<?xml version='1.0' encoding='UTF-8'?><gpx version="1.1" creator="JPX - https://github.com/jenetics/jpx" xmlns="http://www.topografix.com/GPX/1/1"><trk><trkseg><trkpt lat="40.71455547484753" lon="14.702516556669991"><ele>169.0</ele><time>2026-05-02T06:55:21.998Z</time></trkpt><trkpt lat="40.714484356773355" lon="14.702504764007262"><ele>169.0</ele><time>2026-05-02T06:55:40.998Z</time></trkpt><trkpt lat="40.71446271695396" lon="14.702599936104084"><ele>169.0</ele><time>2026-05-02T06:55:52.997Z</time></trkpt><trkpt lat="40.71446312625404" lon="14.702688432791126"><ele>169.0</ele><time>2026-05-02T06:55:58.997Z</time></trkpt><trkpt lat="40.7144081531673" lon="14.702748451254067"><ele>169.0</ele><time>2026-05-02T06:56:01.997Z</time></trkpt><trkpt lat="40.71430999906101" lon="14.70282316626911"><ele>169.0</ele><time>2026-05-02T06:56:04.997Z</time></trkpt><trkpt lat="40.7142353786834" lon="14.702857408258836"><ele>169.71428571428572</ele><time>2026-05-02T06:56:06.997Z</time></trkpt><trkpt lat="40.714173307688334" lon="14.70281381882271"><ele>170.42857142857142</ele><time>2026-05-02T06:56:08.997Z</time></trkpt><trkpt lat="40.71411889705201" lon="14.70276678895624"><ele>171.14285714285714</ele><time>2026-05-02T06:56:10.997Z</time></trkpt><trkpt lat="40.71406997490828" lon="14.70271011947103"><ele>171.85714285714286</ele><time>2026-05-02T06:56:18.997Z</time></trkpt><trkpt lat="40.71411990015088" lon="14.702768702343082"><ele>172.57142857142858</ele><time>2026-05-02T06:56:21.996Z</time></trkpt><trkpt lat="40.71415985426987" lon="14.702843348768202"><ele>173.28571428571428</ele><time>2026-05-02T06:56:23.996Z</time></trkpt><trkpt lat="40.714222182123045" lon="14.70287765796333"><ele>174.0</ele><time>2026-05-02T06:56:25.996Z</time></trkpt><trkpt lat="40.714323830877696" lon="14.702778344698316"><ele>174.33333333333334</ele><time>2026-05-02T06:56:27.996Z</time></trkpt><trkpt lat="40.71440854445639" lon="14.702777352353078"><ele>174.66666666666669</ele><time>2026-05-02T06:56:30.996Z</time></trkpt><trkpt lat="40.7146212112957" lon="14.702746673985283"><ele>175.0</ele><time>2026-05-02T06:56:33.996Z</time></trkpt><trkpt lat="40.71435854782198" lon="14.70291852485655"><ele>175.0</ele><time>2026-05-02T06:56:35.996Z</time></trkpt><trkpt lat="40.714359576187256" lon="14.703031796599221"><ele>175.0</ele><time>2026-05-02T06:56:36.996Z</time></trkpt><trkpt lat="40.714271510765506" lon="14.703056545013164"><ele>175.0</ele><time>2026-05-02T06:56:38.996Z</time></trkpt><trkpt lat="40.714170480972015" lon="14.703039029992683"><ele>175.0</ele><time>2026-05-02T06:56:40.996Z</time></trkpt><trkpt lat="40.71410903007157" lon="14.703061013500507"><ele>175.0</ele><time>2026-05-02T06:56:43.996Z</time></trkpt><trkpt lat="40.71404980977852" lon="14.703179418606792"><ele>175.0</ele><time>2026-05-02T06:56:47.996Z</time></trkpt><trkpt lat="40.714025104677994" lon="14.703259030557108"><ele>175.0</ele><time>2026-05-02T06:56:48.996Z</time></trkpt><trkpt lat="40.7140478796486" lon="14.703356001076896"><ele>175.0</ele><time>2026-05-02T06:56:49.996Z</time></trkpt><trkpt lat="40.713962583064514" lon="14.703494450332238"><ele>175.0</ele><time>2026-05-02T06:56:51.995Z</time></trkpt><trkpt lat="40.7138823047422" lon="14.703574600929898"><ele>175.0</ele><time>2026-05-02T06:56:52.995Z</time></trkpt><trkpt lat="40.71375282759025" lon="14.703622046948158"><ele>175.0</ele><time>2026-05-02T06:56:53.995Z</time></trkpt><trkpt lat="40.713662199214426" lon="14.703768577156024"><ele>175.25</ele><time>2026-05-02T06:56:54.995Z</time></trkpt><trkpt lat="40.71354093298998" lon="14.703875871185879"><ele>175.5</ele><time>2026-05-02T06:56:55.995Z</time></trkpt><trkpt lat="40.71341767250091" lon="14.703983960185123"><ele>175.75</ele><time>2026-05-02T06:56:56.995Z</time></trkpt><trkpt lat="40.713297000865765" lon="14.704085333146057"><ele>176.0</ele><time>2026-05-02T06:56:57.995Z</time></trkpt><trkpt lat="40.71318426201199" lon="14.704182624834377"><ele>176.0</ele><time>2026-05-02T06:56:58.995Z</time></trkpt><trkpt lat="40.713053288239045" lon="14.704248911753899"><ele>176.0</ele><time>2026-05-02T06:56:59.995Z</time></trkpt><trkpt lat="40.712941202659074" lon="14.704349467853634"><ele>176.0</ele><time>2026-05-02T06:57:00.995Z</time></trkpt><trkpt lat="40.7128302486161" lon="14.704447300305237"><ele>176.0</ele><time>2026-05-02T06:57:01.995Z</time></trkpt><trkpt lat="40.71271173285583" lon="14.704549997766257"><ele>176.25</ele><time>2026-05-02T06:57:02.995Z</time></trkpt><trkpt lat="40.7125954847901" lon="14.704647730802156"><ele>176.5</ele><time>2026-05-02T06:57:03.995Z</time></trkpt><trkpt lat="40.71247108580232" lon="14.704747444575952"><ele>176.75</ele><time>2026-05-02T06:57:04.995Z</time></trkpt><trkpt lat="40.71233658065384" lon="14.70484912438424"><ele>177.0</ele><time>2026-05-02T06:57:05.995Z</time></trkpt><trkpt lat="40.712189398468354" lon="14.704950084999107"><ele>177.0</ele><time>2026-05-02T06:57:06.995Z</time></trkpt><trkpt lat="40.71201713233723" lon="14.705052942682777"><ele>177.0</ele><time>2026-05-02T06:57:07.995Z</time></trkpt><trkpt lat="40.711848344316074" lon="14.705148885520927"><ele>177.0</ele><time>2026-05-02T06:57:08.995Z</time></trkpt><trkpt lat="40.71167148080097" lon="14.705239096677506"><ele>178.33333333333334</ele><time>2026-05-02T06:57:09.995Z</time></trkpt><trkpt lat="40.71149560261326" lon="14.705304817408"><ele>179.66666666666669</ele><time>2026-05-02T06:57:10.995Z</time></trkpt><trkpt lat="40.7113290242371" lon="14.705347202634519"><ele>181.0</ele><time>2026-05-02T06:57:11.995Z</time></trkpt><trkpt lat="40.7111915074132" lon="14.705395442139721"><ele>182.0</ele><time>2026-05-02T06:57:12.995Z</time></trkpt><trkpt lat="40.711054173159" lon="14.705442103839646"><ele>183.0</ele><time>2026-05-02T06:57:13.995Z</time></trkpt><trkpt lat="40.710917133929144" lon="14.705483194443245"><ele>184.0</ele><time>2026-05-02T06:57:14.995Z</time></trkpt><trkpt lat="40.71079236072983" lon="14.70553037037327"><ele>185.0</ele><time>2026-05-02T06:57:15.995Z</time></trkpt><trkpt lat="40.7106734093033" lon="14.705572359001753"><ele>185.0</ele><time>2026-05-02T06:57:16.995Z</time></trkpt><trkpt lat="40.710567630596714" lon="14.705603709635557"><ele>185.0</ele><time>2026-05-02T06:57:17.995Z</time></trkpt><trkpt lat="40.710466320186555" lon="14.705630093159142"><ele>185.0</ele><time>2026-05-02T06:57:18.995Z</time></trkpt><trkpt lat="40.71037930268554" lon="14.705671949327002"><ele>185.0</ele><time>2026-05-02T06:57:19.994Z</time></trkpt><trkpt lat="40.71028112780847" lon="14.705706568185974"><ele>185.0</ele><time>2026-05-02T06:57:20.994Z</time></trkpt><trkpt lat="40.710173996769406" lon="14.705746269805587"><ele>185.75</ele><time>2026-05-02T06:57:21.994Z</time></trkpt><trkpt lat="40.71005341017291" lon="14.705783317980641"><ele>186.5</ele><time>2026-05-02T06:57:22.994Z</time></trkpt><trkpt lat="40.70993720048195" lon="14.70581890420792"><ele>187.25</ele><time>2026-05-02T06:57:23.994Z</time></trkpt><trkpt lat="40.709822636326024" lon="14.70585186093606"><ele>188.0</ele><time>2026-05-02T06:57:24.994Z</time></trkpt><trkpt lat="40.70971145674706" lon="14.705873782081895"><ele>188.0</ele><time>2026-05-02T06:57:25.994Z</time></trkpt><trkpt lat="40.70961290906485" lon="14.705903723625594"><ele>188.0</ele><time>2026-05-02T06:57:26.994Z</time></trkpt><trkpt lat="40.709515393480395" lon="14.705938150751106"><ele>188.0</ele><time>2026-05-02T06:57:27.994Z</time></trkpt><trkpt lat="40.70941442484891" lon="14.705970721235722"><ele>188.0</ele><time>2026-05-02T06:57:28.994Z</time></trkpt><trkpt lat="40.70931025883635" lon="14.705999289962838"><ele>188.0</ele><time>2026-05-02T06:57:29.994Z</time></trkpt><trkpt lat="40.70920694986109" lon="14.706033273647948"><ele>188.4</ele><time>2026-05-02T06:57:30.994Z</time></trkpt><trkpt lat="40.70910676366663" lon="14.706068444734429"><ele>188.8</ele><time>2026-05-02T06:57:31.994Z</time></trkpt><trkpt lat="40.709007150976255" lon="14.70610943634628"><ele>189.2</ele><time>2026-05-02T06:57:32.994Z</time></trkpt><trkpt lat="40.70891174676183" lon="14.706150258587416"><ele>189.6</ele><time>2026-05-02T06:57:33.994Z</time></trkpt><trkpt lat="40.708822918210494" lon="14.706184713186031"><ele>190.0</ele><time>2026-05-02T06:57:34.994Z</time></trkpt><trkpt lat="40.70873822654025" lon="14.7062096203412"><ele>190.0</ele><time>2026-05-02T06:57:35.994Z</time></trkpt><trkpt lat="40.708666357489484" lon="14.706226015493504"><ele>190.0</ele><time>2026-05-02T06:57:36.994Z</time></trkpt><trkpt lat="40.70859811509011" lon="14.70624731321317"><ele>190.0</ele><time>2026-05-02T06:57:37.994Z</time></trkpt><trkpt lat="40.70847387673979" lon="14.706295629136763"><ele>190.0</ele><time>2026-05-02T06:57:39.994Z</time></trkpt><trkpt lat="40.70840568629273" lon="14.706321181012328"><ele>190.0</ele><time>2026-05-02T06:57:40.994Z</time></trkpt><trkpt lat="40.708339487026606" lon="14.706344244635634"><ele>190.0</ele><time>2026-05-02T06:57:41.994Z</time></trkpt><trkpt lat="40.708275926098615" lon="14.706367215649577"><ele>190.0</ele><time>2026-05-02T06:57:42.994Z</time></trkpt><trkpt lat="40.70820815841305" lon="14.706385421816787"><ele>190.0</ele><time>2026-05-02T06:57:43.994Z</time></trkpt><trkpt lat="40.708143451970884" lon="14.7064038666896"><ele>190.0</ele><time>2026-05-02T06:57:44.994Z</time></trkpt><trkpt lat="40.70808249989213" lon="14.706425502556602"><ele>190.0</ele><time>2026-05-02T06:57:45.994Z</time></trkpt><trkpt lat="40.7080180572264" lon="14.706448987714172"><ele>190.0</ele><time>2026-05-02T06:57:46.994Z</time></trkpt><trkpt lat="40.70794578221872" lon="14.706479830365913"><ele>190.0</ele><time>2026-05-02T06:57:47.994Z</time></trkpt><trkpt lat="40.70785703876962" lon="14.706511921454357"><ele>190.0</ele><time>2026-05-02T06:57:48.994Z</time></trkpt><trkpt lat="40.707761235385156" lon="14.706524738755025"><ele>190.6</ele><time>2026-05-02T06:57:49.993Z</time></trkpt><trkpt lat="40.707666206181294" lon="14.70655658074312"><ele>191.2</ele><time>2026-05-02T06:57:50.993Z</time></trkpt><trkpt lat="40.7075597742329" lon="14.706592639340636"><ele>191.8</ele><time>2026-05-02T06:57:51.993Z</time></trkpt><trkpt lat="40.70746505227546" lon="14.70664423849937"><ele>192.4</ele><time>2026-05-02T06:57:52.993Z</time></trkpt><trkpt lat="40.70738484073792" lon="14.706670764335998"><ele>193.0</ele><time>2026-05-02T06:57:53.993Z</time></trkpt><trkpt lat="40.707310692580464" lon="14.706693047974221"><ele>192.99999999999997</ele><time>2026-05-02T06:57:54.993Z</time></trkpt><trkpt lat="40.707239416478664" lon="14.706716423773246"><ele>193.0</ele><time>2026-05-02T06:57:55.993Z</time></trkpt><trkpt lat="40.70713611448524" lon="14.706748175368748"><ele>193.0</ele><time>2026-05-02T06:57:57.993Z</time></trkpt><trkpt lat="40.70706807746024" lon="14.706767845566597"><ele>193.0</ele><time>2026-05-02T06:57:59.993Z</time></trkpt><trkpt lat="40.706999011305726" lon="14.706787076973542"><ele>192.99999999999997</ele><time>2026-05-02T06:58:00.993Z</time></trkpt><trkpt lat="40.70690889380956" lon="14.706815731773188"><ele>193.0</ele><time>2026-05-02T06:58:01.993Z</time></trkpt><trkpt lat="40.706784457097484" lon="14.706865524525714"><ele>192.66666666666666</ele><time>2026-05-02T06:58:02.993Z</time></trkpt><trkpt lat="40.70663697519611" lon="14.706907799843547"><ele>192.33333333333331</ele><time>2026-05-02T06:58:03.993Z</time></trkpt><trkpt lat="40.70647815384097" lon="14.706952802100094"><ele>192.0</ele><time>2026-05-02T06:58:04.993Z</time></trkpt><trkpt lat="40.70631999376034" lon="14.707000694884927"><ele>192.0</ele><time>2026-05-02T06:58:05.993Z</time></trkpt><trkpt lat="40.706154408329176" lon="14.707049280493354"><ele>192.0</ele><time>2026-05-02T06:58:06.993Z</time></trkpt><trkpt lat="40.70599926014319" lon="14.70710076673107"><ele>192.0</ele><time>2026-05-02T06:58:07.993Z</time></trkpt><trkpt lat="40.70584952567274" lon="14.707154883795758"><ele>192.25</ele><time>2026-05-02T06:58:08.993Z</time></trkpt><trkpt lat="40.70570825931824" lon="14.707201938892823"><ele>192.5</ele><time>2026-05-02T06:58:09.993Z</time></trkpt><trkpt lat="40.70556434695277" lon="14.707236493795545"><ele>192.75</ele><time>2026-05-02T06:58:10.993Z</time></trkpt><trkpt lat="40.70543117588309" lon="14.707281417020607"><ele>193.0</ele><time>2026-05-02T06:58:11.993Z</time></trkpt><trkpt lat="40.705300252215146" lon="14.707321562651064"><ele>193.25</ele><time>2026-05-02T06:58:12.993Z</time></trkpt><trkpt lat="40.705172635668546" lon="14.707369539566342"><ele>193.5</ele><time>2026-05-02T06:58:13.993Z</time></trkpt><trkpt lat="40.70505080326303" lon="14.707405495675486"><ele>193.75</ele><time>2026-05-02T06:58:14.993Z</time></trkpt><trkpt lat="40.704939376841665" lon="14.707440081700863"><ele>194.0</ele><time>2026-05-02T06:58:15.993Z</time></trkpt><trkpt lat="40.70482163687601" lon="14.707484378457517"><ele>194.0</ele><time>2026-05-02T06:58:16.993Z</time></trkpt><trkpt lat="40.70470407408949" lon="14.707527815732126"><ele>194.0</ele><time>2026-05-02T06:58:17.993Z</time></trkpt><trkpt lat="40.704585696064164" lon="14.707570642952982"><ele>194.0</ele><time>2026-05-02T06:58:18.993Z</time></trkpt><trkpt lat="40.70447179354513" lon="14.707607706886431"><ele>194.0</ele><time>2026-05-02T06:58:19.992Z</time></trkpt><trkpt lat="40.704349891493834" lon="14.70765343981529"><ele>195.0</ele><time>2026-05-02T06:58:20.992Z</time></trkpt><trkpt lat="40.704233645881374" lon="14.707703132393501"><ele>196.0</ele><time>2026-05-02T06:58:21.992Z</time></trkpt><trkpt lat="40.70412835623233" lon="14.70775615405568"><ele>197.0</ele><time>2026-05-02T06:58:22.992Z</time></trkpt><trkpt lat="40.704022489191544" lon="14.707778556457829"><ele>198.0</ele><time>2026-05-02T06:58:23.992Z</time></trkpt><trkpt lat="40.70392756848866" lon="14.707806495843217"><ele>199.0</ele><time>2026-05-02T06:58:24.992Z</time></trkpt><trkpt lat="40.70384044524833" lon="14.707846172853934"><ele>198.99999999999997</ele><time>2026-05-02T06:58:25.992Z</time></trkpt><trkpt lat="40.70376136415206" lon="14.70789521415586"><ele>199.0</ele><time>2026-05-02T06:58:26.992Z</time></trkpt><trkpt lat="40.70368686826682" lon="14.707908873472142"><ele>199.0</ele><time>2026-05-02T06:58:27.992Z</time></trkpt><trkpt lat="40.703588016771334" lon="14.707931339380417"><ele>199.0</ele><time>2026-05-02T06:58:29.992Z</time></trkpt><trkpt lat="40.703521177957676" lon="14.707931258551081"><ele>198.99999999999997</ele><time>2026-05-02T06:58:30.992Z</time></trkpt><trkpt lat="40.70345756429306" lon="14.707943474213478"><ele>199.0</ele><time>2026-05-02T06:58:31.992Z</time></trkpt><trkpt lat="40.70339030196744" lon="14.70799215308186"><ele>199.57142857142856</ele><time>2026-05-02T06:58:32.992Z</time></trkpt><trkpt lat="40.70332702169924" lon="14.70805545136942"><ele>200.14285714285714</ele><time>2026-05-02T06:58:33.992Z</time></trkpt><trkpt lat="40.70326875964163" lon="14.708129606996286"><ele>200.71428571428572</ele><time>2026-05-02T06:58:34.992Z</time></trkpt><trkpt lat="40.70320872735464" lon="14.70818605518236"><ele>201.28571428571428</ele><time>2026-05-02T06:58:35.992Z</time></trkpt><trkpt lat="40.70314817197033" lon="14.708232048062776"><ele>201.85714285714286</ele><time>2026-05-02T06:58:36.992Z</time></trkpt><trkpt lat="40.703085885389136" lon="14.708264526593577"><ele>202.42857142857142</ele><time>2026-05-02T06:58:37.992Z</time></trkpt><trkpt lat="40.703017090549906" lon="14.708294718648444"><ele>203.0</ele><time>2026-05-02T06:58:38.992Z</time></trkpt><trkpt lat="40.70293204975577" lon="14.708326760755593"><ele>203.0</ele><time>2026-05-02T06:58:39.992Z</time></trkpt><trkpt lat="40.70282911165961" lon="14.708313520349824"><ele>203.0</ele><time>2026-05-02T06:58:40.992Z</time></trkpt><trkpt lat="40.702735547707604" lon="14.708360385551973"><ele>203.0</ele><time>2026-05-02T06:58:41.992Z</time></trkpt><trkpt lat="40.70263877143697" lon="14.708392096348115"><ele>203.0</ele><time>2026-05-02T06:58:42.992Z</time></trkpt><trkpt lat="40.702534301640846" lon="14.708429266912601"><ele>203.0</ele><time>2026-05-02T06:58:43.992Z</time></trkpt><trkpt lat="40.702426089732846" lon="14.708465214104512"><ele>203.0</ele><time>2026-05-02T06:58:44.992Z</time></trkpt><trkpt lat="40.70229508743694" lon="14.708516800433207"><ele>203.0</ele><time>2026-05-02T06:58:45.992Z</time></trkpt><trkpt lat="40.7021754265929" lon="14.70857996028775"><ele>203.0</ele><time>2026-05-02T06:58:46.992Z</time></trkpt><trkpt lat="40.70203197516766" lon="14.708591075288567"><ele>203.0</ele><time>2026-05-02T06:58:47.992Z</time></trkpt><trkpt lat="40.70192390196433" lon="14.708634540119023"><ele>203.4</ele><time>2026-05-02T06:58:48.992Z</time></trkpt><trkpt lat="40.70183098219204" lon="14.70867586164893"><ele>203.8</ele><time>2026-05-02T06:58:49.992Z</time></trkpt><trkpt lat="40.701744058185646" lon="14.708719149317735"><ele>204.2</ele><time>2026-05-02T06:58:50.992Z</time></trkpt><trkpt lat="40.701638212689474" lon="14.708789251165912"><ele>204.6</ele><time>2026-05-02T06:58:51.992Z</time></trkpt><trkpt lat="40.70151659986003" lon="14.708857612072158"><ele>205.0</ele><time>2026-05-02T06:58:52.992Z</time></trkpt><trkpt lat="40.70136516383628" lon="14.708958401964454"><ele>205.0</ele><time>2026-05-02T06:58:53.992Z</time></trkpt><trkpt lat="40.70119358876058" lon="14.709044708069372"><ele>205.0</ele><time>2026-05-02T06:58:54.992Z</time></trkpt><trkpt lat="40.701028644529956" lon="14.709144086702763"><ele>205.0</ele><time>2026-05-02T06:58:55.992Z</time></trkpt><trkpt lat="40.70085782999693" lon="14.709245738041238"><ele>205.0</ele><time>2026-05-02T06:58:56.991Z</time></trkpt><trkpt lat="40.70067978594869" lon="14.709345929536516"><ele>205.0</ele><time>2026-05-02T06:58:57.991Z</time></trkpt><trkpt lat="40.70050412505891" lon="14.709466378544178"><ele>205.0</ele><time>2026-05-02T06:58:58.991Z</time></trkpt><trkpt lat="40.70030542338254" lon="14.709577365867935"><ele>204.33333333333331</ele><time>2026-05-02T06:58:59.991Z</time></trkpt><trkpt lat="40.70010771964003" lon="14.709687716840438"><ele>203.66666666666669</ele><time>2026-05-02T06:59:00.991Z</time></trkpt><trkpt lat="40.699903107083074" lon="14.709804153931781"><ele>203.0</ele><time>2026-05-02T06:59:01.991Z</time></trkpt><trkpt lat="40.699690941054065" lon="14.70991763599962"><ele>203.0</ele><time>2026-05-02T06:59:02.991Z</time></trkpt><trkpt lat="40.699475806832325" lon="14.710051665672191"><ele>203.0</ele><time>2026-05-02T06:59:03.991Z</time></trkpt><trkpt lat="40.699246968458695" lon="14.710181067912293"><ele>202.5</ele><time>2026-05-02T06:59:04.991Z</time></trkpt><trkpt lat="40.69899040912194" lon="14.710242122134131"><ele>202.0</ele><time>2026-05-02T06:59:05.991Z</time></trkpt><trkpt lat="40.69876217957743" lon="14.710384473492903"><ele>200.0</ele><time>2026-05-02T06:59:06.991Z</time></trkpt><trkpt lat="40.69854352088828" lon="14.710586927427338"><ele>198.0</ele><time>2026-05-02T06:59:07.991Z</time></trkpt><trkpt lat="40.69830543005236" lon="14.71072793463128"><ele>198.0</ele><time>2026-05-02T06:59:08.991Z</time></trkpt><trkpt lat="40.6980808546441" lon="14.71086388184464"><ele>198.0</ele><time>2026-05-02T06:59:09.991Z</time></trkpt><trkpt lat="40.69540477796883" lon="14.712304398229943"><ele>184.5</ele><time>2026-05-02T06:59:22.991Z</time></trkpt><trkpt lat="40.69516934985009" lon="14.712478902827309"><ele>171.0</ele><time>2026-05-02T06:59:23.991Z</time></trkpt><trkpt lat="40.69503589852597" lon="14.712675939267106"><ele>172.0</ele><time>2026-05-02T06:59:24.991Z</time></trkpt><trkpt lat="40.69494477126482" lon="14.71279523786468"><ele>173.0</ele><time>2026-05-02T06:59:25.991Z</time></trkpt><trkpt lat="40.6948354184604" lon="14.712901078663396"><ele>174.0</ele><time>2026-05-02T06:59:26.991Z</time></trkpt><trkpt lat="40.694748968395416" lon="14.713109041496075"><ele>175.0</ele><time>2026-05-02T06:59:27.99Z</time></trkpt><trkpt lat="40.6946145311489" lon="14.713289105503268"><ele>175.0</ele><time>2026-05-02T06:59:28.99Z</time></trkpt><trkpt lat="40.69448453771573" lon="14.713457267084147"><ele>175.0</ele><time>2026-05-02T06:59:29.99Z</time></trkpt><trkpt lat="40.69435961432222" lon="14.713607533685837"><ele>175.0</ele><time>2026-05-02T06:59:30.99Z</time></trkpt><trkpt lat="40.69423297404191" lon="14.71374009047484"><ele>174.25</ele><time>2026-05-02T06:59:31.99Z</time></trkpt><trkpt lat="40.69411497573073" lon="14.71386006993702"><ele>173.5</ele><time>2026-05-02T06:59:32.99Z</time></trkpt><trkpt lat="40.693988245238934" lon="14.713967531297836"><ele>172.75</ele><time>2026-05-02T06:59:33.99Z</time></trkpt><trkpt lat="40.6938731167545" lon="14.714048222289929"><ele>172.0</ele><time>2026-05-02T06:59:34.99Z</time></trkpt><trkpt lat="40.69376047512149" lon="14.714104657748498"><ele>172.0</ele><time>2026-05-02T06:59:35.99Z</time></trkpt><trkpt lat="40.693647908302474" lon="14.714141343072148"><ele>172.0</ele><time>2026-05-02T06:59:36.99Z</time></trkpt><trkpt lat="40.6935375689197" lon="14.714161979814087"><ele>172.0</ele><time>2026-05-02T06:59:37.99Z</time></trkpt><trkpt lat="40.69343056838486" lon="14.714163999042933"><ele>172.0</ele><time>2026-05-02T06:59:38.99Z</time></trkpt><trkpt lat="40.69332424906523" lon="14.714157803586557"><ele>172.0</ele><time>2026-05-02T06:59:39.99Z</time></trkpt><trkpt lat="40.693234790320545" lon="14.714135847377635"><ele>169.6</ele><time>2026-05-02T06:59:40.99Z</time></trkpt><trkpt lat="40.69315368409919" lon="14.714101861414129"><ele>167.2</ele><time>2026-05-02T06:59:41.99Z</time></trkpt><trkpt lat="40.69308940509125" lon="14.714067807899449"><ele>164.8</ele><time>2026-05-02T06:59:42.99Z</time></trkpt><trkpt lat="40.69300373411057" lon="14.713960980450674"><ele>162.4</ele><time>2026-05-02T06:59:44.99Z</time></trkpt><trkpt lat="40.69291922150878" lon="14.713917191206667"><ele>160.0</ele><time>2026-05-02T06:59:46.99Z</time></trkpt><trkpt lat="40.69285837134236" lon="14.714002085162916"><ele>160.0</ele><time>2026-05-02T06:59:47.99Z</time></trkpt><trkpt lat="40.69280209091244" lon="14.714059085412341"><ele>160.0</ele><time>2026-05-02T06:59:48.99Z</time></trkpt><trkpt lat="40.69274446370611" lon="14.714136904184627"><ele>160.0</ele><time>2026-05-02T06:59:49.99Z</time></trkpt><trkpt lat="40.692689259237305" lon="14.714213324307334"><ele>160.0</ele><time>2026-05-02T06:59:50.99Z</time></trkpt><trkpt lat="40.69263100428585" lon="14.714310756983577"><ele>160.0</ele><time>2026-05-02T06:59:51.99Z</time></trkpt><trkpt lat="40.692550364390705" lon="14.714421763978955"><ele>160.0</ele><time>2026-05-02T06:59:52.99Z</time></trkpt><trkpt lat="40.692488352879344" lon="14.71455969174489"><ele>160.0</ele><time>2026-05-02T06:59:53.99Z</time></trkpt><trkpt lat="40.69240039388879" lon="14.714674561558734"><ele>160.0</ele><time>2026-05-02T06:59:54.99Z</time></trkpt><trkpt lat="40.69232984125951" lon="14.71479018266528"><ele>160.0</ele><time>2026-05-02T06:59:55.99Z</time></trkpt><trkpt lat="40.692238778775206" lon="14.714904784286926"><ele>160.0</ele><time>2026-05-02T06:59:56.99Z</time></trkpt><trkpt lat="40.69213611850625" lon="14.715031057308222"><ele>160.0</ele><time>2026-05-02T06:59:57.989Z</time></trkpt><trkpt lat="40.6920209267759" lon="14.715137963894902"><ele>160.0</ele><time>2026-05-02T06:59:58.989Z</time></trkpt><trkpt lat="40.69193318922847" lon="14.715276876166811"><ele>160.0</ele><time>2026-05-02T06:59:59.989Z</time></trkpt><trkpt lat="40.69187343630938" lon="14.715444956236857"><ele>160.0</ele><time>2026-05-02T07:00:00.989Z</time></trkpt><trkpt lat="40.69180500204368" lon="14.715611960886196"><ele>160.5</ele><time>2026-05-02T07:00:01.989Z</time></trkpt><trkpt lat="40.691741250862066" lon="14.71577370773729"><ele>161.0</ele><time>2026-05-02T07:00:02.989Z</time></trkpt><trkpt lat="40.691678340611006" lon="14.71592425018572"><ele>161.5</ele><time>2026-05-02T07:00:03.989Z</time></trkpt><trkpt lat="40.69159133612144" lon="14.71604735489263"><ele>162.0</ele><time>2026-05-02T07:00:04.989Z</time></trkpt><trkpt lat="40.691544195580114" lon="14.7162048466938"><ele>158.75</ele><time>2026-05-02T07:00:05.989Z</time></trkpt><trkpt lat="40.69149314771723" lon="14.716355261334181"><ele>155.5</ele><time>2026-05-02T07:00:06.989Z</time></trkpt><trkpt lat="40.69146354523677" lon="14.716526646796565"><ele>152.25</ele><time>2026-05-02T07:00:07.989Z</time></trkpt><trkpt lat="40.69144121926036" lon="14.716695184262326"><ele>149.0</ele><time>2026-05-02T07:00:08.989Z</time></trkpt><trkpt lat="40.691405996938165" lon="14.716865564063175"><ele>149.0</ele><time>2026-05-02T07:00:09.989Z</time></trkpt><trkpt lat="40.69133446776568" lon="14.717021000743948"><ele>149.0</ele><time>2026-05-02T07:00:10.989Z</time></trkpt><trkpt lat="40.691260078619656" lon="14.717186447490786"><ele>149.0</ele><time>2026-05-02T07:00:11.989Z</time></trkpt><trkpt lat="40.69118542037" lon="14.717348393672847"><ele>149.0</ele><time>2026-05-02T07:00:12.989Z</time></trkpt><trkpt lat="40.691122626871774" lon="14.717521140966332"><ele>148.25</ele><time>2026-05-02T07:00:13.989Z</time></trkpt><trkpt lat="40.69104192363319" lon="14.717677072737512"><ele>147.5</ele><time>2026-05-02T07:00:14.989Z</time></trkpt><trkpt lat="40.69096162396847" lon="14.717826915816266"><ele>146.75</ele><time>2026-05-02T07:00:15.989Z</time></trkpt><trkpt lat="40.69087766487813" lon="14.717955279129296"><ele>146.0</ele><time>2026-05-02T07:00:16.989Z</time></trkpt><trkpt lat="40.69078125921608" lon="14.71805276166703"><ele>146.0</ele><time>2026-05-02T07:00:17.989Z</time></trkpt><trkpt lat="40.69068065821375" lon="14.718155424730963"><ele>146.0</ele><time>2026-05-02T07:00:18.989Z</time></trkpt><trkpt lat="40.690561623893295" lon="14.718230445505505"><ele>146.0</ele><time>2026-05-02T07:00:19.989Z</time></trkpt><trkpt lat="40.69044832547815" lon="14.718337594775898"><ele>146.0</ele><time>2026-05-02T07:00:20.989Z</time></trkpt><trkpt lat="40.690348953998736" lon="14.718469816083028"><ele>145.75</ele><time>2026-05-02T07:00:21.989Z</time></trkpt><trkpt lat="40.69027438872314" lon="14.718627871548318"><ele>145.5</ele><time>2026-05-02T07:00:22.989Z</time></trkpt><trkpt lat="40.69019240164353" lon="14.718771879083366"><ele>145.25</ele><time>2026-05-02T07:00:23.989Z</time></trkpt><trkpt lat="40.69012176337416" lon="14.718923542460749"><ele>145.0</ele><time>2026-05-02T07:00:24.989Z</time></trkpt><trkpt lat="40.690045690805974" lon="14.719061682806638"><ele>145.0</ele><time>2026-05-02T07:00:25.989Z</time></trkpt><trkpt lat="40.689955884940474" lon="14.719184050872835"><ele>145.0</ele><time>2026-05-02T07:00:26.989Z</time></trkpt><trkpt lat="40.68984415234932" lon="14.71926109838941"><ele>145.0</ele><time>2026-05-02T07:00:27.988Z</time></trkpt><trkpt lat="40.68971325151708" lon="14.71934015844675"><ele>145.0</ele><time>2026-05-02T07:00:28.988Z</time></trkpt><trkpt lat="40.68955417982666" lon="14.719419301126017"><ele>141.0</ele><time>2026-05-02T07:00:29.988Z</time></trkpt><trkpt lat="40.68939636754595" lon="14.719522477679593"><ele>137.0</ele><time>2026-05-02T07:00:30.988Z</time></trkpt><trkpt lat="40.68923811707954" lon="14.71962228128285"><ele>133.0</ele><time>2026-05-02T07:00:31.988Z</time></trkpt><trkpt lat="40.68907524937998" lon="14.719708731776576"><ele>133.0</ele><time>2026-05-02T07:00:32.988Z</time></trkpt><trkpt lat="40.688915959658345" lon="14.719799960241746"><ele>133.0</ele><time>2026-05-02T07:00:33.988Z</time></trkpt><trkpt lat="40.68876177195755" lon="14.719898112826645"><ele>133.0</ele><time>2026-05-02T07:00:34.988Z</time></trkpt><trkpt lat="40.68861115375114" lon="14.72000762212996"><ele>132.33333333333334</ele><time>2026-05-02T07:00:35.988Z</time></trkpt><trkpt lat="40.6884781636127" lon="14.720133038081224"><ele>131.66666666666666</ele><time>2026-05-02T07:00:36.988Z</time></trkpt><trkpt lat="40.68835451223892" lon="14.720274857704503"><ele>131.0</ele><time>2026-05-02T07:00:37.988Z</time></trkpt><trkpt lat="40.68824406941231" lon="14.72044183751843"><ele>131.0</ele><time>2026-05-02T07:00:38.988Z</time></trkpt><trkpt lat="40.68814497585813" lon="14.720624492163385"><ele>131.0</ele><time>2026-05-02T07:00:39.988Z</time></trkpt><trkpt lat="40.68806309767477" lon="14.720814266984961"><ele>131.0</ele><time>2026-05-02T07:00:40.988Z</time></trkpt><trkpt lat="40.68799340375392" lon="14.72101013036671"><ele>131.0</ele><time>2026-05-02T07:00:41.988Z</time></trkpt><trkpt lat="40.687915069803275" lon="14.721182424113676"><ele>131.0</ele><time>2026-05-02T07:00:42.988Z</time></trkpt><trkpt lat="40.68783308336404" lon="14.721338864573942"><ele>131.0</ele><time>2026-05-02T07:00:43.988Z</time></trkpt><trkpt lat="40.68773435214732" lon="14.721472898552332"><ele>131.0</ele><time>2026-05-02T07:00:44.988Z</time></trkpt><trkpt lat="40.68761732152504" lon="14.721580180006075"><ele>132.0</ele><time>2026-05-02T07:00:45.988Z</time></trkpt><trkpt lat="40.68748130836836" lon="14.721640328602358"><ele>133.0</ele><time>2026-05-02T07:00:46.988Z</time></trkpt><trkpt lat="40.68733501303745" lon="14.721699454691752"><ele>134.0</ele><time>2026-05-02T07:00:47.988Z</time></trkpt><trkpt lat="40.6871838269435" lon="14.721757977950691"><ele>134.0</ele><time>2026-05-02T07:00:48.988Z</time></trkpt><trkpt lat="40.68703700962033" lon="14.721807574071097"><ele>134.0</ele><time>2026-05-02T07:00:49.988Z</time></trkpt><trkpt lat="40.68689355365232" lon="14.72182517215394"><ele>134.0</ele><time>2026-05-02T07:00:50.988Z</time></trkpt><trkpt lat="40.68676785031119" lon="14.721806345000093"><ele>134.0</ele><time>2026-05-02T07:00:51.988Z</time></trkpt><trkpt lat="40.686627187823724" lon="14.721779079018878"><ele>134.66666666666666</ele><time>2026-05-02T07:00:52.988Z</time></trkpt><trkpt lat="40.68646170327272" lon="14.721816799255887"><ele>135.33333333333334</ele><time>2026-05-02T07:00:53.988Z</time></trkpt><trkpt lat="40.68632747570321" lon="14.721914017626503"><ele>136.0</ele><time>2026-05-02T07:00:54.988Z</time></trkpt><trkpt lat="40.68620160265929" lon="14.72202154355373"><ele>131.5</ele><time>2026-05-02T07:00:55.988Z</time></trkpt><trkpt lat="40.68607823938081" lon="14.722125557568935"><ele>127.0</ele><time>2026-05-02T07:00:56.988Z</time></trkpt><trkpt lat="40.68596631798795" lon="14.722212190653527"><ele>122.5</ele><time>2026-05-02T07:00:57.987Z</time></trkpt><trkpt lat="40.68586466829229" lon="14.722273171045122"><ele>118.0</ele><time>2026-05-02T07:00:58.987Z</time></trkpt><trkpt lat="40.68575264726906" lon="14.722293704747422"><ele>118.0</ele><time>2026-05-02T07:00:59.987Z</time></trkpt><trkpt lat="40.68561764365483" lon="14.722289729550472"><ele>118.0</ele><time>2026-05-02T07:01:00.987Z</time></trkpt><trkpt lat="40.68547934683543" lon="14.722277947861842"><ele>118.0</ele><time>2026-05-02T07:01:01.987Z</time></trkpt><trkpt lat="40.68534481110072" lon="14.722255944305324"><ele>118.0</ele><time>2026-05-02T07:01:02.987Z</time></trkpt><trkpt lat="40.68520929400566" lon="14.722225058595441"><ele>116.66666666666667</ele><time>2026-05-02T07:01:03.987Z</time></trkpt><trkpt lat="40.68506494987433" lon="14.722184331219955"><ele>115.33333333333334</ele><time>2026-05-02T07:01:04.987Z</time></trkpt><trkpt lat="40.68490690860401" lon="14.722156222334542"><ele>114.0</ele><time>2026-05-02T07:01:05.987Z</time></trkpt><trkpt lat="40.68474965897362" lon="14.72218148246393"><ele>114.0</ele><time>2026-05-02T07:01:06.987Z</time></trkpt><trkpt lat="40.68459361304572" lon="14.722171645524277"><ele>114.0</ele><time>2026-05-02T07:01:07.987Z</time></trkpt><trkpt lat="40.68444297137149" lon="14.722161744183067"><ele>114.0</ele><time>2026-05-02T07:01:08.987Z</time></trkpt><trkpt lat="40.68430465139566" lon="14.72212953660362"><ele>114.0</ele><time>2026-05-02T07:01:09.987Z</time></trkpt><trkpt lat="40.68416659744838" lon="14.72206648207998"><ele>111.25</ele><time>2026-05-02T07:01:10.987Z</time></trkpt><trkpt lat="40.68402385621455" lon="14.721987880003612"><ele>108.5</ele><time>2026-05-02T07:01:11.987Z</time></trkpt><trkpt lat="40.68389773829883" lon="14.721894876820151"><ele>105.75</ele><time>2026-05-02T07:01:12.987Z</time></trkpt><trkpt lat="40.68377679181962" lon="14.72182476941185"><ele>103.0</ele><time>2026-05-02T07:01:13.987Z</time></trkpt><trkpt lat="40.6836504576874" lon="14.721778847589619"><ele>105.75</ele><time>2026-05-02T07:01:14.987Z</time></trkpt><trkpt lat="40.68352048493813" lon="14.721736915716038"><ele>108.5</ele><time>2026-05-02T07:01:15.987Z</time></trkpt><trkpt lat="40.683391257882555" lon="14.721767685812331"><ele>111.25</ele><time>2026-05-02T07:01:16.987Z</time></trkpt><trkpt lat="40.68325548005176" lon="14.721791117599453"><ele>114.0</ele><time>2026-05-02T07:01:17.987Z</time></trkpt><trkpt lat="40.68311118210675" lon="14.721831595153743"><ele>114.0</ele><time>2026-05-02T07:01:18.987Z</time></trkpt><trkpt lat="40.6829679149423" lon="14.721873662803537"><ele>114.0</ele><time>2026-05-02T07:01:19.987Z</time></trkpt><trkpt lat="40.68283960558944" lon="14.721907733634204"><ele>114.0</ele><time>2026-05-02T07:01:20.987Z</time></trkpt><trkpt lat="40.68272935695894" lon="14.721938640542655"><ele>114.0</ele><time>2026-05-02T07:01:21.987Z</time></trkpt><trkpt lat="40.68262419421745" lon="14.721959675716818"><ele>110.0</ele><time>2026-05-02T07:01:22.987Z</time></trkpt><trkpt lat="40.682525597915955" lon="14.72198259689146"><ele>106.0</ele><time>2026-05-02T07:01:23.987Z</time></trkpt><trkpt lat="40.682418797779555" lon="14.721991719161002"><ele>102.0</ele><time>2026-05-02T07:01:24.987Z</time></trkpt><trkpt lat="40.6823119273293" lon="14.722001814611698"><ele>98.0</ele><time>2026-05-02T07:01:25.987Z</time></trkpt><trkpt lat="40.68221699212384" lon="14.722010984521644"><ele>94.0</ele><time>2026-05-02T07:01:26.987Z</time></trkpt><trkpt lat="40.68213651296986" lon="14.722023494941848"><ele>94.0</ele><time>2026-05-02T07:01:27.986Z</time></trkpt><trkpt lat="40.682047697580984" lon="14.722032868060072"><ele>94.0</ele><time>2026-05-02T07:01:28.986Z</time></trkpt><trkpt lat="40.681948164310725" lon="14.722042232016136"><ele>94.0</ele><time>2026-05-02T07:01:29.986Z</time></trkpt><trkpt lat="40.6818425091395" lon="14.722070950661928"><ele>94.0</ele><time>2026-05-02T07:01:30.986Z</time></trkpt><trkpt lat="40.68172775063721" lon="14.722102691714294"><ele>94.0</ele><time>2026-05-02T07:01:31.986Z</time></trkpt><trkpt lat="40.681592895985425" lon="14.722149238541263"><ele>92.66666666666666</ele><time>2026-05-02T07:01:32.986Z</time></trkpt><trkpt lat="40.681438000178616" lon="14.722198407948886"><ele>91.33333333333333</ele><time>2026-05-02T07:01:33.986Z</time></trkpt><trkpt lat="40.68126568985973" lon="14.722287904899627"><ele>90.0</ele><time>2026-05-02T07:01:34.986Z</time></trkpt><trkpt lat="40.68109510624499" lon="14.722372442723065"><ele>88.33333333333333</ele><time>2026-05-02T07:01:35.986Z</time></trkpt><trkpt lat="40.68093560066254" lon="14.722433213333005"><ele>86.66666666666666</ele><time>2026-05-02T07:01:36.986Z</time></trkpt><trkpt lat="40.68079003134662" lon="14.722505650867777"><ele>85.0</ele><time>2026-05-02T07:01:37.986Z</time></trkpt><trkpt lat="40.680653972501844" lon="14.72258545349291"><ele>85.0</ele><time>2026-05-02T07:01:38.986Z</time></trkpt><trkpt lat="40.68052744330577" lon="14.722627280819658"><ele>85.0</ele><time>2026-05-02T07:01:39.986Z</time></trkpt><trkpt lat="40.68038134185767" lon="14.722623507374882"><ele>85.0</ele><time>2026-05-02T07:01:40.986Z</time></trkpt><trkpt lat="40.68021855260236" lon="14.722613801906391"><ele>85.0</ele><time>2026-05-02T07:01:41.986Z</time></trkpt><trkpt lat="40.68004983883282" lon="14.722608717164297"><ele>86.66666666666666</ele><time>2026-05-02T07:01:42.986Z</time></trkpt><trkpt lat="40.67988745229855" lon="14.722611925798708"><ele>88.33333333333333</ele><time>2026-05-02T07:01:43.986Z</time></trkpt><trkpt lat="40.67969518658855" lon="14.72263011273809"><ele>90.0</ele><time>2026-05-02T07:01:44.986Z</time></trkpt><trkpt lat="40.67948783577843" lon="14.722647937900106"><ele>89.0</ele><time>2026-05-02T07:01:45.986Z</time></trkpt><trkpt lat="40.679270257531314" lon="14.722663065070243"><ele>88.0</ele><time>2026-05-02T07:01:46.986Z</time></trkpt><trkpt lat="40.679078534769445" lon="14.722698047435875"><ele>87.0</ele><time>2026-05-02T07:01:47.986Z</time></trkpt><trkpt lat="40.67888857960384" lon="14.722742120779904"><ele>95.66666666666666</ele><time>2026-05-02T07:01:48.986Z</time></trkpt><trkpt lat="40.67872203529132" lon="14.722783649994499"><ele>104.33333333333333</ele><time>2026-05-02T07:01:49.986Z</time></trkpt><trkpt lat="40.678576828319365" lon="14.722817257964605"><ele>113.0</ele><time>2026-05-02T07:01:50.986Z</time></trkpt><trkpt lat="40.67844120702466" lon="14.722867493290241"><ele>113.0</ele><time>2026-05-02T07:01:51.986Z</time></trkpt><trkpt lat="40.678304059293986" lon="14.722881445471735"><ele>113.0</ele><time>2026-05-02T07:01:52.986Z</time></trkpt><trkpt lat="40.67816356107555" lon="14.722898051373743"><ele>113.0</ele><time>2026-05-02T07:01:53.986Z</time></trkpt><trkpt lat="40.67799793652632" lon="14.722928719565333"><ele>113.0</ele><time>2026-05-02T07:01:54.986Z</time></trkpt><trkpt lat="40.67785152424165" lon="14.722957939471323"><ele>108.5</ele><time>2026-05-02T07:01:55.986Z</time></trkpt><trkpt lat="40.67771620259442" lon="14.722987552098399"><ele>104.0</ele><time>2026-05-02T07:01:56.986Z</time></trkpt><trkpt lat="40.67759212764365" lon="14.72302992836207"><ele>99.5</ele><time>2026-05-02T07:01:57.985Z</time></trkpt><trkpt lat="40.67745894717559" lon="14.723081508573754"><ele>95.0</ele><time>2026-05-02T07:01:58.985Z</time></trkpt><trkpt lat="40.67734296924313" lon="14.723185218118672"><ele>95.0</ele><time>2026-05-02T07:01:59.985Z</time></trkpt><trkpt lat="40.67723069700432" lon="14.723303017153565"><ele>95.0</ele><time>2026-05-02T07:02:00.985Z</time></trkpt><trkpt lat="40.67713274450572" lon="14.72342909080998"><ele>95.0</ele><time>2026-05-02T07:02:01.985Z</time></trkpt><trkpt lat="40.677023864229064" lon="14.723545775183883"><ele>95.0</ele><time>2026-05-02T07:02:02.985Z</time></trkpt><trkpt lat="40.6769211743786" lon="14.72365809219371"><ele>94.75</ele><time>2026-05-02T07:02:03.985Z</time></trkpt><trkpt lat="40.67682254110941" lon="14.723759871288316"><ele>94.5</ele><time>2026-05-02T07:02:04.985Z</time></trkpt><trkpt lat="40.676735681676696" lon="14.723864021449211"><ele>94.25</ele><time>2026-05-02T07:02:05.985Z</time></trkpt><trkpt lat="40.67665187553646" lon="14.723956503637504"><ele>94.0</ele><time>2026-05-02T07:02:06.985Z</time></trkpt><trkpt lat="40.67656252000152" lon="14.724056856277176"><ele>94.0</ele><time>2026-05-02T07:02:07.985Z</time></trkpt><trkpt lat="40.676471334126376" lon="14.724150218232934"><ele>94.0</ele><time>2026-05-02T07:02:08.985Z</time></trkpt><trkpt lat="40.6763818837851" lon="14.724249477816572"><ele>94.0</ele><time>2026-05-02T07:02:09.985Z</time></trkpt><trkpt lat="40.67628772861676" lon="14.724343543685189"><ele>94.0</ele><time>2026-05-02T07:02:10.985Z</time></trkpt><trkpt lat="40.67619455597714" lon="14.724447165824246"><ele>94.25</ele><time>2026-05-02T07:02:11.985Z</time></trkpt><trkpt lat="40.67609531421506" lon="14.724561856890919"><ele>94.5</ele><time>2026-05-02T07:02:12.985Z</time></trkpt><trkpt lat="40.67599101897823" lon="14.724682591901795"><ele>94.75</ele><time>2026-05-02T07:02:13.985Z</time></trkpt><trkpt lat="40.67588832146774" lon="14.72479432344588"><ele>95.0</ele><time>2026-05-02T07:02:14.985Z</time></trkpt><trkpt lat="40.67577180085205" lon="14.72487812381085"><ele>95.0</ele><time>2026-05-02T07:02:15.985Z</time></trkpt><trkpt lat="40.67568582239377" lon="14.724981268982765"><ele>95.0</ele><time>2026-05-02T07:02:16.985Z</time></trkpt><trkpt lat="40.67561098729745" lon="14.725076920741461"><ele>95.0</ele><time>2026-05-02T07:02:17.985Z</time></trkpt><trkpt lat="40.675543787944214" lon="14.725169222490946"><ele>95.0</ele><time>2026-05-02T07:02:18.985Z</time></trkpt><trkpt lat="40.67548215720368" lon="14.725251488846194"><ele>95.0</ele><time>2026-05-02T07:02:19.985Z</time></trkpt><trkpt lat="40.67542888834792" lon="14.725332117462342"><ele>94.5</ele><time>2026-05-02T07:02:20.985Z</time></trkpt><trkpt lat="40.67537689912996" lon="14.725397737130534"><ele>94.0</ele><time>2026-05-02T07:02:21.985Z</time></trkpt><trkpt lat="40.67532410442609" lon="14.725455141197747"><ele>93.5</ele><time>2026-05-02T07:02:22.985Z</time></trkpt><trkpt lat="40.67523369652567" lon="14.725578343678562"><ele>93.0</ele><time>2026-05-02T07:02:24.985Z</time></trkpt><trkpt lat="40.67517265649911" lon="14.725656756196985"><ele>92.5</ele><time>2026-05-02T07:02:25.985Z</time></trkpt><trkpt lat="40.6751121351227" lon="14.725731295714288"><ele>92.0</ele><time>2026-05-02T07:02:26.984Z</time></trkpt><trkpt lat="40.67505214328451" lon="14.725797512876047"><ele>92.0</ele><time>2026-05-02T07:02:27.984Z</time></trkpt><trkpt lat="40.67498230108079" lon="14.725864585175028"><ele>92.0</ele><time>2026-05-02T07:02:28.984Z</time></trkpt><trkpt lat="40.674904294127195" lon="14.725947722195817"><ele>92.0</ele><time>2026-05-02T07:02:29.984Z</time></trkpt><trkpt lat="40.674818836771124" lon="14.726042670045414"><ele>92.0</ele><time>2026-05-02T07:02:30.984Z</time></trkpt><trkpt lat="40.67472655480816" lon="14.726152162812804"><ele>92.0</ele><time>2026-05-02T07:02:31.984Z</time></trkpt><trkpt lat="40.67462065414099" lon="14.72627088270668"><ele>89.33333333333334</ele><time>2026-05-02T07:02:32.984Z</time></trkpt><trkpt lat="40.67449884419351" lon="14.726404453303388"><ele>86.66666666666667</ele><time>2026-05-02T07:02:33.984Z</time></trkpt><trkpt lat="40.67439487559033" lon="14.726542492631035"><ele>84.0</ele><time>2026-05-02T07:02:34.984Z</time></trkpt><trkpt lat="40.67427075245982" lon="14.726674291984637"><ele>84.0</ele><time>2026-05-02T07:02:35.984Z</time></trkpt><trkpt lat="40.67413769207685" lon="14.726818611577283"><ele>84.0</ele><time>2026-05-02T07:02:36.984Z</time></trkpt><trkpt lat="40.674031128087734" lon="14.72697557392757"><ele>84.0</ele><time>2026-05-02T07:02:37.984Z</time></trkpt><trkpt lat="40.67393429581396" lon="14.727140057968397"><ele>87.66666666666667</ele><time>2026-05-02T07:02:38.984Z</time></trkpt><trkpt lat="40.673832264808574" lon="14.727297264833986"><ele>91.33333333333334</ele><time>2026-05-02T07:02:39.984Z</time></trkpt><trkpt lat="40.673738648487806" lon="14.727470707892216"><ele>95.0</ele><time>2026-05-02T07:02:40.984Z</time></trkpt><trkpt lat="40.67365312941436" lon="14.72765464588274"><ele>93.33333333333334</ele><time>2026-05-02T07:02:41.984Z</time></trkpt><trkpt lat="40.6736045174605" lon="14.727862117042406"><ele>91.66666666666667</ele><time>2026-05-02T07:02:42.984Z</time></trkpt><trkpt lat="40.67356989805013" lon="14.728065083243624"><ele>90.0</ele><time>2026-05-02T07:02:43.984Z</time></trkpt><trkpt lat="40.67350404788041" lon="14.728235382461976"><ele>90.0</ele><time>2026-05-02T07:02:44.984Z</time></trkpt><trkpt lat="40.673425128277614" lon="14.728375530619475"><ele>90.0</ele><time>2026-05-02T07:02:45.984Z</time></trkpt><trkpt lat="40.67332556542791" lon="14.728502875690966"><ele>90.0</ele><time>2026-05-02T07:02:46.984Z</time></trkpt><trkpt lat="40.673217918472744" lon="14.728604612109972"><ele>90.0</ele><time>2026-05-02T07:02:47.984Z</time></trkpt><trkpt lat="40.67310138215451" lon="14.728683420227615"><ele>92.25</ele><time>2026-05-02T07:02:48.984Z</time></trkpt><trkpt lat="40.67297659034922" lon="14.728759295598778"><ele>94.5</ele><time>2026-05-02T07:02:49.984Z</time></trkpt><trkpt lat="40.67283674589081" lon="14.728809939179841"><ele>96.75</ele><time>2026-05-02T07:02:50.984Z</time></trkpt><trkpt lat="40.67270188090269" lon="14.728861516787854"><ele>99.0</ele><time>2026-05-02T07:02:51.984Z</time></trkpt><trkpt lat="40.67256142082088" lon="14.72891298800412"><ele>99.0</ele><time>2026-05-02T07:02:52.984Z</time></trkpt><trkpt lat="40.672419441322184" lon="14.72896107221133"><ele>99.0</ele><time>2026-05-02T07:02:53.984Z</time></trkpt><trkpt lat="40.67228337676697" lon="14.729005475435716"><ele>99.0</ele><time>2026-05-02T07:02:54.984Z</time></trkpt><trkpt lat="40.672152811816645" lon="14.729055362975952"><ele>99.0</ele><time>2026-05-02T07:02:55.984Z</time></trkpt><trkpt lat="40.67203728422871" lon="14.729115073989485"><ele>99.25</ele><time>2026-05-02T07:02:56.983Z</time></trkpt><trkpt lat="40.6719342049055" lon="14.729190506003155"><ele>99.5</ele><time>2026-05-02T07:02:57.983Z</time></trkpt><trkpt lat="40.67184749061543" lon="14.729281641377177"><ele>99.75</ele><time>2026-05-02T07:02:58.983Z</time></trkpt><trkpt lat="40.67175927481389" lon="14.729395537780844"><ele>100.0</ele><time>2026-05-02T07:02:59.983Z</time></trkpt><trkpt lat="40.671625223218555" lon="14.729482865094285"><ele>100.0</ele><time>2026-05-02T07:03:00.983Z</time></trkpt><trkpt lat="40.67156321731583" lon="14.729624821071864"><ele>100.0</ele><time>2026-05-02T07:03:01.983Z</time></trkpt><trkpt lat="40.671519885295886" lon="14.729775572522303"><ele>100.0</ele><time>2026-05-02T07:03:02.983Z</time></trkpt><trkpt lat="40.6714937237179" lon="14.729894148299344"><ele>100.0</ele><time>2026-05-02T07:03:03.983Z</time></trkpt><trkpt lat="40.67145162838651" lon="14.730034587486426"><ele>100.0</ele><time>2026-05-02T07:03:04.983Z</time></trkpt><trkpt lat="40.67142541405798" lon="14.730188013453"><ele>100.0</ele><time>2026-05-02T07:03:05.983Z</time></trkpt><trkpt lat="40.67139832345072" lon="14.730321881144272"><ele>100.0</ele><time>2026-05-02T07:03:06.983Z</time></trkpt><trkpt lat="40.67137410666526" lon="14.730462279824671"><ele>100.0</ele><time>2026-05-02T07:03:07.983Z</time></trkpt><trkpt lat="40.67135327811297" lon="14.730589862224337"><ele>100.0</ele><time>2026-05-02T07:03:08.983Z</time></trkpt><trkpt lat="40.671323133079284" lon="14.730703634154695"><ele>101.16666666666667</ele><time>2026-05-02T07:03:09.983Z</time></trkpt><trkpt lat="40.67128014715847" lon="14.730809588002536"><ele>102.33333333333334</ele><time>2026-05-02T07:03:10.983Z</time></trkpt><trkpt lat="40.67123379245617" lon="14.730903142750208"><ele>103.5</ele><time>2026-05-02T07:03:11.983Z</time></trkpt><trkpt lat="40.67118320160346" lon="14.730982507827543"><ele>104.66666666666666</ele><time>2026-05-02T07:03:12.983Z</time></trkpt><trkpt lat="40.67112681325927" lon="14.731072159308283"><ele>105.83333333333333</ele><time>2026-05-02T07:03:13.983Z</time></trkpt><trkpt lat="40.67107152746408" lon="14.73117290026845"><ele>107.0</ele><time>2026-05-02T07:03:14.983Z</time></trkpt><trkpt lat="40.671020491138044" lon="14.73127112001324"><ele>99.6</ele><time>2026-05-02T07:03:15.983Z</time></trkpt><trkpt lat="40.67098134792087" lon="14.731379127922851"><ele>92.19999999999999</ele><time>2026-05-02T07:03:16.983Z</time></trkpt><trkpt lat="40.670966282736714" lon="14.731505653718111"><ele>84.8</ele><time>2026-05-02T07:03:17.983Z</time></trkpt><trkpt lat="40.67097850121814" lon="14.73163522009732"><ele>77.4</ele><time>2026-05-02T07:03:18.983Z</time></trkpt><trkpt lat="40.67100212663939" lon="14.731775396172278"><ele>70.0</ele><time>2026-05-02T07:03:19.983Z</time></trkpt><trkpt lat="40.67103087772102" lon="14.73190972644498"><ele>67.0</ele><time>2026-05-02T07:03:20.983Z</time></trkpt><trkpt lat="40.671057876426794" lon="14.732041105307747"><ele>64.0</ele><time>2026-05-02T07:03:21.983Z</time></trkpt><trkpt lat="40.67108868781324" lon="14.732172450367438"><ele>61.0</ele><time>2026-05-02T07:03:22.983Z</time></trkpt><trkpt lat="40.67112591576738" lon="14.732321914471605"><ele>58.0</ele><time>2026-05-02T07:03:23.983Z</time></trkpt><trkpt lat="40.6711674492332" lon="14.732481739457791"><ele>65.0</ele><time>2026-05-02T07:03:24.983Z</time></trkpt><trkpt lat="40.67119508756926" lon="14.732645155598625"><ele>72.0</ele><time>2026-05-02T07:03:25.983Z</time></trkpt><trkpt lat="40.67122296463276" lon="14.732810606100479"><ele>79.0</ele><time>2026-05-02T07:03:26.982Z</time></trkpt><trkpt lat="40.67125576239767" lon="14.73298021820458"><ele>86.0</ele><time>2026-05-02T07:03:27.982Z</time></trkpt><trkpt lat="40.671276935774614" lon="14.733159929486003"><ele>86.0</ele><time>2026-05-02T07:03:28.982Z</time></trkpt><trkpt lat="40.67129688438576" lon="14.733338815453381"><ele>86.0</ele><time>2026-05-02T07:03:29.982Z</time></trkpt><trkpt lat="40.67131747534894" lon="14.733508038286834"><ele>86.0</ele><time>2026-05-02T07:03:30.982Z</time></trkpt><trkpt lat="40.67135765709924" lon="14.733661842110445"><ele>86.0</ele><time>2026-05-02T07:03:31.982Z</time></trkpt><trkpt lat="40.67142102085134" lon="14.733806950974087"><ele>82.25</ele><time>2026-05-02T07:03:32.982Z</time></trkpt><trkpt lat="40.671501474103195" lon="14.733952368768957"><ele>78.5</ele><time>2026-05-02T07:03:33.982Z</time></trkpt><trkpt lat="40.6715938629221" lon="14.734085880688824"><ele>74.75</ele><time>2026-05-02T07:03:34.982Z</time></trkpt><trkpt lat="40.671680827491386" lon="14.73420535768278"><ele>71.0</ele><time>2026-05-02T07:03:35.982Z</time></trkpt><trkpt lat="40.67176902897569" lon="14.734312002100259"><ele>70.25</ele><time>2026-05-02T07:03:36.982Z</time></trkpt><trkpt lat="40.671872270641025" lon="14.734402885499149"><ele>69.5</ele><time>2026-05-02T07:03:37.982Z</time></trkpt><trkpt lat="40.67199306352833" lon="14.734485538533429"><ele>68.75</ele><time>2026-05-02T07:03:38.982Z</time></trkpt><trkpt lat="40.672107841488234" lon="14.734565933270176"><ele>68.0</ele><time>2026-05-02T07:03:39.982Z</time></trkpt><trkpt lat="40.672210088975305" lon="14.734659763438906"><ele>68.0</ele><time>2026-05-02T07:03:40.982Z</time></trkpt><trkpt lat="40.67229888981527" lon="14.734758835128265"><ele>68.0</ele><time>2026-05-02T07:03:41.982Z</time></trkpt><trkpt lat="40.67237576611059" lon="14.734859387133922"><ele>68.0</ele><time>2026-05-02T07:03:42.982Z</time></trkpt><trkpt lat="40.67244959956084" lon="14.734942031868076"><ele>68.0</ele><time>2026-05-02T07:03:43.982Z</time></trkpt><trkpt lat="40.67252510864388" lon="14.735020750020784"><ele>68.0</ele><time>2026-05-02T07:03:44.982Z</time></trkpt><trkpt lat="40.67259471097645" lon="14.735101053028282"><ele>68.0</ele><time>2026-05-02T07:03:45.982Z</time></trkpt><trkpt lat="40.67266539975122" lon="14.735175699285643"><ele>68.0</ele><time>2026-05-02T07:03:46.982Z</time></trkpt><trkpt lat="40.672749101163454" lon="14.73523471687317"><ele>68.0</ele><time>2026-05-02T07:03:47.982Z</time></trkpt><trkpt lat="40.67283934733387" lon="14.73528948513921"><ele>68.0</ele><time>2026-05-02T07:03:48.982Z</time></trkpt><trkpt lat="40.67293788748811" lon="14.73533561037152"><ele>68.0</ele><time>2026-05-02T07:03:49.982Z</time></trkpt><trkpt lat="40.67303633364583" lon="14.735389301192404"><ele>65.0</ele><time>2026-05-02T07:03:50.982Z</time></trkpt><trkpt lat="40.673137830909475" lon="14.735456750356427"><ele>62.0</ele><time>2026-05-02T07:03:51.982Z</time></trkpt><trkpt lat="40.67324188376201" lon="14.735528492719997"><ele>59.0</ele><time>2026-05-02T07:03:52.982Z</time></trkpt><trkpt lat="40.67333991449946" lon="14.735606234142857"><ele>56.0</ele><time>2026-05-02T07:03:53.982Z</time></trkpt><trkpt lat="40.67342864134726" lon="14.73567323672347"><ele>53.0</ele><time>2026-05-02T07:03:54.982Z</time></trkpt><trkpt lat="40.67351467698489" lon="14.735731803240414"><ele>53.0</ele><time>2026-05-02T07:03:55.982Z</time></trkpt><trkpt lat="40.67360155709973" lon="14.73579386740836"><ele>53.0</ele><time>2026-05-02T07:03:56.981Z</time></trkpt><trkpt lat="40.6736869031367" lon="14.735870865351828"><ele>53.0</ele><time>2026-05-02T07:03:57.981Z</time></trkpt><trkpt lat="40.673762381334896" lon="14.735954130302968"><ele>53.0</ele><time>2026-05-02T07:03:58.981Z</time></trkpt><trkpt lat="40.67383006114488" lon="14.736046667871676"><ele>53.0</ele><time>2026-05-02T07:03:59.981Z</time></trkpt><trkpt lat="40.67389501802748" lon="14.736131709237476"><ele>48.199999999999996</ele><time>2026-05-02T07:04:00.981Z</time></trkpt><trkpt lat="40.67396078144752" lon="14.736223208595389"><ele>43.4</ele><time>2026-05-02T07:04:01.981Z</time></trkpt><trkpt lat="40.674038354340965" lon="14.736316920009841"><ele>38.599999999999994</ele><time>2026-05-02T07:04:02.981Z</time></trkpt><trkpt lat="40.67412824010611" lon="14.736400494059103"><ele>33.8</ele><time>2026-05-02T07:04:03.981Z</time></trkpt><trkpt lat="40.67423199122228" lon="14.736473393668417"><ele>29.0</ele><time>2026-05-02T07:04:04.981Z</time></trkpt><trkpt lat="40.67434602307792" lon="14.736541085036167"><ele>40.0</ele><time>2026-05-02T07:04:05.981Z</time></trkpt><trkpt lat="40.67447933977884" lon="14.736609128028299"><ele>51.0</ele><time>2026-05-02T07:04:06.981Z</time></trkpt><trkpt lat="40.674639390506904" lon="14.736673542736659"><ele>62.0</ele><time>2026-05-02T07:04:07.981Z</time></trkpt><trkpt lat="40.67479941099118" lon="14.736733205961478"><ele>62.0</ele><time>2026-05-02T07:04:08.981Z</time></trkpt><trkpt lat="40.67496146180797" lon="14.736793078590317"><ele>62.0</ele><time>2026-05-02T07:04:09.981Z</time></trkpt><trkpt lat="40.67511244620572" lon="14.736854143775021"><ele>62.0</ele><time>2026-05-02T07:04:10.981Z</time></trkpt><trkpt lat="40.675258929470765" lon="14.736905528122564"><ele>58.25</ele><time>2026-05-02T07:04:11.981Z</time></trkpt><trkpt lat="40.67539448204507" lon="14.736965996364027"><ele>54.5</ele><time>2026-05-02T07:04:12.981Z</time></trkpt><trkpt lat="40.67551559801426" lon="14.737046649238218"><ele>50.75</ele><time>2026-05-02T07:04:13.981Z</time></trkpt><trkpt lat="40.67562571598087" lon="14.737142173724544"><ele>47.0</ele><time>2026-05-02T07:04:14.981Z</time></trkpt><trkpt lat="40.6757210749729" lon="14.73725311696859"><ele>47.0</ele><time>2026-05-02T07:04:15.981Z</time></trkpt><trkpt lat="40.67580451333308" lon="14.73739133796014"><ele>47.0</ele><time>2026-05-02T07:04:16.981Z</time></trkpt><trkpt lat="40.67588288968539" lon="14.737543618822144"><ele>47.0</ele><time>2026-05-02T07:04:17.981Z</time></trkpt><trkpt lat="40.67594951064625" lon="14.737714014738126"><ele>47.0</ele><time>2026-05-02T07:04:18.981Z</time></trkpt><trkpt lat="40.676037144872325" lon="14.737882590132886"><ele>50.666666666666664</ele><time>2026-05-02T07:04:19.981Z</time></trkpt><trkpt lat="40.676157258839325" lon="14.738031676421443"><ele>54.33333333333333</ele><time>2026-05-02T07:04:20.981Z</time></trkpt><trkpt lat="40.67623240870467" lon="14.738215636723291"><ele>58.0</ele><time>2026-05-02T07:04:21.981Z</time></trkpt><trkpt lat="40.67634562790556" lon="14.738365454073072"><ele>58.0</ele><time>2026-05-02T07:04:22.981Z</time></trkpt><trkpt lat="40.676446135940196" lon="14.738493547941337"><ele>58.0</ele><time>2026-05-02T07:04:23.981Z</time></trkpt><trkpt lat="40.67653945921489" lon="14.738621424494797"><ele>58.0</ele><time>2026-05-02T07:04:24.981Z</time></trkpt><trkpt lat="40.6766089925717" lon="14.738739340170243"><ele>58.0</ele><time>2026-05-02T07:04:25.981Z</time></trkpt><trkpt lat="40.67666976514477" lon="14.738856652583209"><ele>52.8</ele><time>2026-05-02T07:04:26.98Z</time></trkpt><trkpt lat="40.67672505120068" lon="14.738976188474798"><ele>47.599999999999994</ele><time>2026-05-02T07:04:27.98Z</time></trkpt><trkpt lat="40.67676918114748" lon="14.739102152542607"><ele>42.400000000000006</ele><time>2026-05-02T07:04:28.98Z</time></trkpt><trkpt lat="40.676809731266275" lon="14.739220684980735"><ele>37.2</ele><time>2026-05-02T07:04:29.98Z</time></trkpt><trkpt lat="40.67684954659211" lon="14.739337687378573"><ele>32.0</ele><time>2026-05-02T07:04:30.98Z</time></trkpt><trkpt lat="40.67688404767914" lon="14.739468133544152"><ele>29.6</ele><time>2026-05-02T07:04:31.98Z</time></trkpt><trkpt lat="40.676921071248955" lon="14.739600084512151"><ele>27.200000000000003</ele><time>2026-05-02T07:04:32.98Z</time></trkpt><trkpt lat="40.67695464935177" lon="14.739731436199508"><ele>24.8</ele><time>2026-05-02T07:04:33.98Z</time></trkpt><trkpt lat="40.67698747408146" lon="14.73984680362591"><ele>22.4</ele><time>2026-05-02T07:04:34.98Z</time></trkpt><trkpt lat="40.67697701476854" lon="14.73997390636521"><ele>20.0</ele><time>2026-05-02T07:04:35.98Z</time></trkpt><trkpt lat="40.67699964612321" lon="14.740092625389181"><ele>21.6</ele><time>2026-05-02T07:04:36.98Z</time></trkpt><trkpt lat="40.67703455126872" lon="14.740220216000845"><ele>23.2</ele><time>2026-05-02T07:04:37.98Z</time></trkpt><trkpt lat="40.67707878849922" lon="14.740337867232599"><ele>24.799999999999997</ele><time>2026-05-02T07:04:38.98Z</time></trkpt><trkpt lat="40.6771282547865" lon="14.74045636412356"><ele>26.4</ele><time>2026-05-02T07:04:39.98Z</time></trkpt><trkpt lat="40.677188508887376" lon="14.740550924458152"><ele>28.0</ele><time>2026-05-02T07:04:40.98Z</time></trkpt><trkpt lat="40.677254512662195" lon="14.740636217849515"><ele>28.0</ele><time>2026-05-02T07:04:41.98Z</time></trkpt><trkpt lat="40.67731993080966" lon="14.740717501282052"><ele>27.999999999999996</ele><time>2026-05-02T07:04:42.98Z</time></trkpt><trkpt lat="40.677393724565576" lon="14.740777196906976"><ele>27.999999999999996</ele><time>2026-05-02T07:04:43.98Z</time></trkpt><trkpt lat="40.67746113765955" lon="14.740843592328517"><ele>28.0</ele><time>2026-05-02T07:04:44.98Z</time></trkpt><trkpt lat="40.677522723828865" lon="14.740899986985589"><ele>28.0</ele><time>2026-05-02T07:04:45.98Z</time></trkpt><trkpt lat="40.67761697449051" lon="14.741000909267287"><ele>26.833333333333336</ele><time>2026-05-02T07:04:47.98Z</time></trkpt><trkpt lat="40.67770762868176" lon="14.741095729591214"><ele>25.666666666666668</ele><time>2026-05-02T07:04:49.98Z</time></trkpt><trkpt lat="40.67775257248123" lon="14.74118134841191"><ele>24.5</ele><time>2026-05-02T07:04:50.98Z</time></trkpt><trkpt lat="40.67778171899814" lon="14.741280528714569"><ele>23.333333333333336</ele><time>2026-05-02T07:04:51.98Z</time></trkpt><trkpt lat="40.6778033671015" lon="14.74138518454873"><ele>22.166666666666668</ele><time>2026-05-02T07:04:52.98Z</time></trkpt><trkpt lat="40.67783001812223" lon="14.741483774001987"><ele>21.0</ele><time>2026-05-02T07:04:53.98Z</time></trkpt><trkpt lat="40.67785735849167" lon="14.741583805395617"><ele>28.200000000000003</ele><time>2026-05-02T07:04:54.98Z</time></trkpt><trkpt lat="40.67787510531927" lon="14.741671666355579"><ele>35.400000000000006</ele><time>2026-05-02T07:04:55.979Z</time></trkpt><trkpt lat="40.67790218304953" lon="14.741820783255639"><ele>42.6</ele><time>2026-05-02T07:04:57.979Z</time></trkpt><trkpt lat="40.67794383707846" lon="14.741985199048534"><ele>49.800000000000004</ele><time>2026-05-02T07:04:59.979Z</time></trkpt><trkpt lat="40.67795825072541" lon="14.742119313908145"><ele>57.0</ele><time>2026-05-02T07:05:01.979Z</time></trkpt><trkpt lat="40.67795300427466" lon="14.74224731054726"><ele>57.0</ele><time>2026-05-02T07:05:03.979Z</time></trkpt><trkpt lat="40.677942016059184" lon="14.742363296748831"><ele>57.0</ele><time>2026-05-02T07:05:05.979Z</time></trkpt><trkpt lat="40.67791759590277" lon="14.742480885451974"><ele>57.0</ele><time>2026-05-02T07:05:07.979Z</time></trkpt><trkpt lat="40.67780642164054" lon="14.742534751643877"><ele>57.0</ele><time>2026-05-02T07:05:09.979Z</time></trkpt><trkpt lat="40.67771577461761" lon="14.742595095745886"><ele>57.0</ele><time>2026-05-02T07:05:11.979Z</time></trkpt><trkpt lat="40.67770506939944" lon="14.7426856018117"><ele>56.2</ele><time>2026-05-02T07:05:12.979Z</time></trkpt><trkpt lat="40.6776529792248" lon="14.742759931092195"><ele>55.400000000000006</ele><time>2026-05-02T07:05:15.979Z</time></trkpt><trkpt lat="40.677707870213446" lon="14.742924354925586"><ele>54.599999999999994</ele><time>2026-05-02T07:05:17.979Z</time></trkpt><trkpt lat="40.67775978682029" lon="14.743009974849537"><ele>53.8</ele><time>2026-05-02T07:05:18.979Z</time></trkpt><trkpt lat="40.67783515339764" lon="14.743107749511156"><ele>53.0</ele><time>2026-05-02T07:05:19.979Z</time></trkpt><trkpt lat="40.677927195370984" lon="14.743227483593198"><ele>53.0</ele><time>2026-05-02T07:05:20.979Z</time></trkpt><trkpt lat="40.678021430651114" lon="14.743360666337445"><ele>53.0</ele><time>2026-05-02T07:05:21.979Z</time></trkpt><trkpt lat="40.678107411251524" lon="14.743514227159727"><ele>53.0</ele><time>2026-05-02T07:05:22.979Z</time></trkpt><trkpt lat="40.67818422983283" lon="14.743681446580817"><ele>53.0</ele><time>2026-05-02T07:05:23.979Z</time></trkpt><trkpt lat="40.67825102585357" lon="14.743871295301442"><ele>49.66666666666667</ele><time>2026-05-02T07:05:24.979Z</time></trkpt><trkpt lat="40.67831356925538" lon="14.744074418487289"><ele>46.333333333333336</ele><time>2026-05-02T07:05:25.978Z</time></trkpt><trkpt lat="40.67837764589885" lon="14.744279728919052"><ele>43.0</ele><time>2026-05-02T07:05:26.978Z</time></trkpt><trkpt lat="40.67844365060328" lon="14.744486094214224"><ele>40.66666666666667</ele><time>2026-05-02T07:05:27.978Z</time></trkpt><trkpt lat="40.67849886873954" lon="14.744686370037526"><ele>38.333333333333336</ele><time>2026-05-02T07:05:28.978Z</time></trkpt><trkpt lat="40.678551740535646" lon="14.744888227151725"><ele>36.0</ele><time>2026-05-02T07:05:29.978Z</time></trkpt><trkpt lat="40.678595808802434" lon="14.745099659975315"><ele>48.66666666666667</ele><time>2026-05-02T07:05:30.978Z</time></trkpt><trkpt lat="40.67861903947686" lon="14.7453287279002"><ele>61.333333333333336</ele><time>2026-05-02T07:05:31.978Z</time></trkpt><trkpt lat="40.678632597413106" lon="14.745573898554287"><ele>74.0</ele><time>2026-05-02T07:05:32.978Z</time></trkpt><trkpt lat="40.67864784986974" lon="14.745830122056592"><ele>71.66666666666667</ele><time>2026-05-02T07:05:33.978Z</time></trkpt><trkpt lat="40.67866516663314" lon="14.7460887591347"><ele>69.33333333333333</ele><time>2026-05-02T07:05:34.978Z</time></trkpt><trkpt lat="40.6786820143818" lon="14.746337141928787"><ele>67.0</ele><time>2026-05-02T07:05:35.978Z</time></trkpt><trkpt lat="40.678698147152765" lon="14.746564882213784"><ele>67.0</ele><time>2026-05-02T07:05:36.978Z</time></trkpt><trkpt lat="40.67871392520084" lon="14.746785026767798"><ele>67.0</ele><time>2026-05-02T07:05:37.978Z</time></trkpt><trkpt lat="40.678721335495844" lon="14.746991020352368"><ele>67.0</ele><time>2026-05-02T07:05:38.978Z</time></trkpt><trkpt lat="40.67871164468396" lon="14.747176696703235"><ele>67.25</ele><time>2026-05-02T07:05:39.978Z</time></trkpt><trkpt lat="40.67868995237903" lon="14.747353981459103"><ele>67.5</ele><time>2026-05-02T07:05:40.978Z</time></trkpt><trkpt lat="40.67867610037189" lon="14.747514342949254"><ele>67.75</ele><time>2026-05-02T07:05:41.978Z</time></trkpt><trkpt lat="40.678685348544654" lon="14.747667079483003"><ele>68.0</ele><time>2026-05-02T07:05:42.978Z</time></trkpt><trkpt lat="40.67871758566786" lon="14.747819211029285"><ele>66.25</ele><time>2026-05-02T07:05:43.978Z</time></trkpt><trkpt lat="40.67876741131282" lon="14.747971791386815"><ele>64.5</ele><time>2026-05-02T07:05:44.978Z</time></trkpt><trkpt lat="40.67882652385546" lon="14.748118536911852"><ele>62.75</ele><time>2026-05-02T07:05:45.978Z</time></trkpt><trkpt lat="40.67889114381431" lon="14.74826389066727"><ele>61.0</ele><time>2026-05-02T07:05:46.978Z</time></trkpt><trkpt lat="40.67896507800635" lon="14.748398259302999"><ele>61.0</ele><time>2026-05-02T07:05:47.978Z</time></trkpt><trkpt lat="40.67905517451019" lon="14.748511623538832"><ele>61.0</ele><time>2026-05-02T07:05:48.978Z</time></trkpt><trkpt lat="40.679167571982404" lon="14.748602826985554"><ele>61.0</ele><time>2026-05-02T07:05:49.978Z</time></trkpt><trkpt lat="40.6792970867036" lon="14.748674291991472"><ele>61.0</ele><time>2026-05-02T07:05:50.978Z</time></trkpt><trkpt lat="40.67944405111123" lon="14.748722088094084"><ele>66.33333333333333</ele><time>2026-05-02T07:05:51.978Z</time></trkpt><trkpt lat="40.67960069693511" lon="14.74876844174609"><ele>71.66666666666667</ele><time>2026-05-02T07:05:52.978Z</time></trkpt><trkpt lat="40.679768484927905" lon="14.748832883451913"><ele>77.0</ele><time>2026-05-02T07:05:53.978Z</time></trkpt><trkpt lat="40.67992679282892" lon="14.748902165925507"><ele>77.0</ele><time>2026-05-02T07:05:54.978Z</time></trkpt><trkpt lat="40.68005858607209" lon="14.74897211577879"><ele>77.0</ele><time>2026-05-02T07:05:55.977Z</time></trkpt><trkpt lat="40.68016585587812" lon="14.749064708780784"><ele>77.0</ele><time>2026-05-02T07:05:56.977Z</time></trkpt><trkpt lat="40.680259494055896" lon="14.749188233618685"><ele>77.0</ele><time>2026-05-02T07:05:57.977Z</time></trkpt><trkpt lat="40.680339734934165" lon="14.749337623168916"><ele>86.66666666666667</ele><time>2026-05-02T07:05:58.977Z</time></trkpt><trkpt lat="40.68040743680404" lon="14.749519012652318"><ele>96.33333333333334</ele><time>2026-05-02T07:05:59.977Z</time></trkpt><trkpt lat="40.680451463332076" lon="14.749732586871925"><ele>106.0</ele><time>2026-05-02T07:06:00.977Z</time></trkpt><trkpt lat="40.6805225333759" lon="14.749935151477848"><ele>106.0</ele><time>2026-05-02T07:06:01.977Z</time></trkpt><trkpt lat="40.680574056241994" lon="14.750131010516979"><ele>106.0</ele><time>2026-05-02T07:06:02.977Z</time></trkpt><trkpt lat="40.68063287197035" lon="14.750318239708756"><ele>106.0</ele><time>2026-05-02T07:06:03.977Z</time></trkpt><trkpt lat="40.6806884539427" lon="14.750494162920383"><ele>100.5</ele><time>2026-05-02T07:06:04.977Z</time></trkpt><trkpt lat="40.68075172177341" lon="14.750652512819823"><ele>95.0</ele><time>2026-05-02T07:06:05.977Z</time></trkpt><trkpt lat="40.68082653658792" lon="14.75078753528296"><ele>89.5</ele><time>2026-05-02T07:06:06.977Z</time></trkpt><trkpt lat="40.68091084843072" lon="14.75094459234571"><ele>84.0</ele><time>2026-05-02T07:06:07.977Z</time></trkpt><trkpt lat="40.68103107493864" lon="14.7510286782229"><ele>83.5</ele><time>2026-05-02T07:06:08.977Z</time></trkpt><trkpt lat="40.681141293671494" lon="14.751131438633902"><ele>83.0</ele><time>2026-05-02T07:06:09.977Z</time></trkpt><trkpt lat="40.68124367917174" lon="14.751212884009371"><ele>82.5</ele><time>2026-05-02T07:06:10.977Z</time></trkpt><trkpt lat="40.68136965265671" lon="14.751279722057719"><ele>82.0</ele><time>2026-05-02T07:06:11.977Z</time></trkpt><trkpt lat="40.681498280311466" lon="14.751352179419706"><ele>82.0</ele><time>2026-05-02T07:06:12.977Z</time></trkpt><trkpt lat="40.68161920622474" lon="14.751426400377161"><ele>82.0</ele><time>2026-05-02T07:06:13.977Z</time></trkpt><trkpt lat="40.68174553336457" lon="14.751508538286414"><ele>82.0</ele><time>2026-05-02T07:06:14.977Z</time></trkpt><trkpt lat="40.681868145319285" lon="14.751581797638808"><ele>82.0</ele><time>2026-05-02T07:06:15.977Z</time></trkpt><trkpt lat="40.681974408094085" lon="14.751646245804483"><ele>87.39999999999999</ele><time>2026-05-02T07:06:16.977Z</time></trkpt><trkpt lat="40.682065518928574" lon="14.751716729396055"><ele>92.8</ele><time>2026-05-02T07:06:17.977Z</time></trkpt><trkpt lat="40.68213373654179" lon="14.751805222503716"><ele>98.2</ele><time>2026-05-02T07:06:18.977Z</time></trkpt><trkpt lat="40.682172058627756" lon="14.751924722581128"><ele>103.6</ele><time>2026-05-02T07:06:19.977Z</time></trkpt><trkpt lat="40.68220010944796" lon="14.752061595994546"><ele>109.0</ele><time>2026-05-02T07:06:20.977Z</time></trkpt><trkpt lat="40.6822212595931" lon="14.752225262962108"><ele>109.0</ele><time>2026-05-02T07:06:21.977Z</time></trkpt><trkpt lat="40.68222677448275" lon="14.752421817649354"><ele>109.0</ele><time>2026-05-02T07:06:22.977Z</time></trkpt><trkpt lat="40.68222770185236" lon="14.75264276362182"><ele>109.0</ele><time>2026-05-02T07:06:23.977Z</time></trkpt><trkpt lat="40.68222544072392" lon="14.752894795081911"><ele>113.66666666666667</ele><time>2026-05-02T07:06:24.977Z</time></trkpt><trkpt lat="40.68222544072539" lon="14.753152971421896"><ele>118.33333333333334</ele><time>2026-05-02T07:06:25.976Z</time></trkpt><trkpt lat="40.68222496800839" lon="14.753405573945644"><ele>123.0</ele><time>2026-05-02T07:06:26.976Z</time></trkpt><trkpt lat="40.68222434072925" lon="14.753659891676238"><ele>123.0</ele><time>2026-05-02T07:06:27.976Z</time></trkpt><trkpt lat="40.68222434073172" lon="14.753897628077775"><ele>123.0</ele><time>2026-05-02T07:06:28.976Z</time></trkpt><trkpt lat="40.68222434073223" lon="14.754165216098706"><ele>123.0</ele><time>2026-05-02T07:06:30.137Z</time></trkpt><trkpt lat="40.68222669121836" lon="14.754524433769541"><ele>122.0</ele><time>2026-05-02T07:06:32.976Z</time></trkpt><trkpt lat="40.682228044739354" lon="14.754722957393398"><ele>121.0</ele><time>2026-05-02T07:06:33.976Z</time></trkpt><trkpt lat="40.68221105508731" lon="14.754983835921584"><ele>120.0</ele><time>2026-05-02T07:06:34.976Z</time></trkpt><trkpt lat="40.682168869685746" lon="14.755223078737352"><ele>125.0</ele><time>2026-05-02T07:06:35.976Z</time></trkpt><trkpt lat="40.682066559799324" lon="14.755468765759856"><ele>130.0</ele><time>2026-05-02T07:06:36.976Z</time></trkpt><trkpt lat="40.682021354805876" lon="14.755700524396486"><ele>135.0</ele><time>2026-05-02T07:06:37.976Z</time></trkpt><trkpt lat="40.68202198381471" lon="14.755904494110025"><ele>133.75</ele><time>2026-05-02T07:06:38.976Z</time></trkpt><trkpt lat="40.68203018174665" lon="14.756087538502983"><ele>132.5</ele><time>2026-05-02T07:06:39.976Z</time></trkpt><trkpt lat="40.68204771456846" lon="14.756254844386046"><ele>131.25</ele><time>2026-05-02T07:06:40.976Z</time></trkpt><trkpt lat="40.682083206553855" lon="14.756431074779695"><ele>130.0</ele><time>2026-05-02T07:06:41.976Z</time></trkpt><trkpt lat="40.682138869431384" lon="14.75661591598659"><ele>130.0</ele><time>2026-05-02T07:06:42.976Z</time></trkpt><trkpt lat="40.68221595739354" lon="14.756796260553248"><ele>130.0</ele><time>2026-05-02T07:06:43.976Z</time></trkpt><trkpt lat="40.682306089700724" lon="14.756943454318879"><ele>130.0</ele><time>2026-05-02T07:06:44.976Z</time></trkpt><trkpt lat="40.68237495507455" lon="14.757085683283265"><ele>130.0</ele><time>2026-05-02T07:06:45.976Z</time></trkpt><trkpt lat="40.682464986482714" lon="14.757203220766753"><ele>131.75</ele><time>2026-05-02T07:06:46.976Z</time></trkpt><trkpt lat="40.68254588511537" lon="14.757307077975995"><ele>133.5</ele><time>2026-05-02T07:06:47.976Z</time></trkpt><trkpt lat="40.68262384485004" lon="14.757422338300985"><ele>135.25</ele><time>2026-05-02T07:06:48.976Z</time></trkpt><trkpt lat="40.68271277608393" lon="14.757530921928202"><ele>137.0</ele><time>2026-05-02T07:06:49.976Z</time></trkpt><trkpt lat="40.6828011810604" lon="14.757660573195562"><ele>129.0</ele><time>2026-05-02T07:06:50.976Z</time></trkpt><trkpt lat="40.68288494616022" lon="14.757792183011913"><ele>121.0</ele><time>2026-05-02T07:06:51.976Z</time></trkpt><trkpt lat="40.682986188399404" lon="14.757903866910159"><ele>113.0</ele><time>2026-05-02T07:06:52.976Z</time></trkpt><trkpt lat="40.68307760769095" lon="14.758000036330175"><ele>105.0</ele><time>2026-05-02T07:06:53.976Z</time></trkpt><trkpt lat="40.68317117233358" lon="14.758080406883776"><ele>105.0</ele><time>2026-05-02T07:06:54.976Z</time></trkpt><trkpt lat="40.68327451334397" lon="14.758153105481426"><ele>105.0</ele><time>2026-05-02T07:06:55.975Z</time></trkpt><trkpt lat="40.683378622176086" lon="14.758201545960302"><ele>105.0</ele><time>2026-05-02T07:06:56.975Z</time></trkpt><trkpt lat="40.68348862305167" lon="14.758225250829062"><ele>105.0</ele><time>2026-05-02T07:06:57.975Z</time></trkpt><trkpt lat="40.68359626409176" lon="14.758261074223945"><ele>106.5</ele><time>2026-05-02T07:06:58.975Z</time></trkpt><trkpt lat="40.68370867148517" lon="14.758287101471312"><ele>108.0</ele><time>2026-05-02T07:06:59.975Z</time></trkpt><trkpt lat="40.68381647054006" lon="14.758312150054033"><ele>109.5</ele><time>2026-05-02T07:07:00.975Z</time></trkpt><trkpt lat="40.68393082069962" lon="14.758340904819887"><ele>111.0</ele><time>2026-05-02T07:07:01.975Z</time></trkpt><trkpt lat="40.68405002909776" lon="14.758364926592513"><ele>111.0</ele><time>2026-05-02T07:07:02.975Z</time></trkpt><trkpt lat="40.684168427975294" lon="14.758388134606426"><ele>111.0</ele><time>2026-05-02T07:07:03.975Z</time></trkpt><trkpt lat="40.68428025254765" lon="14.758410056042994"><ele>111.0</ele><time>2026-05-02T07:07:04.975Z</time></trkpt><trkpt lat="40.68439371081507" lon="14.758433875291747"><ele>111.0</ele><time>2026-05-02T07:07:05.975Z</time></trkpt><trkpt lat="40.68449980893663" lon="14.758454582810128"><ele>110.19999999999999</ele><time>2026-05-02T07:07:06.975Z</time></trkpt><trkpt lat="40.68459877447039" lon="14.75848857423726"><ele>109.39999999999999</ele><time>2026-05-02T07:07:07.975Z</time></trkpt><trkpt lat="40.68468657243803" lon="14.75852793252734"><ele>108.6</ele><time>2026-05-02T07:07:08.975Z</time></trkpt><trkpt lat="40.684766608644296" lon="14.758576907357916"><ele>107.8</ele><time>2026-05-02T07:07:09.975Z</time></trkpt><trkpt lat="40.68484484079162" lon="14.758637283656315"><ele>107.0</ele><time>2026-05-02T07:07:10.975Z</time></trkpt><trkpt lat="40.6849158606372" lon="14.758722071161376"><ele>107.0</ele><time>2026-05-02T07:07:11.975Z</time></trkpt><trkpt lat="40.68496209475513" lon="14.758821753587034"><ele>106.99999999999999</ele><time>2026-05-02T07:07:12.975Z</time></trkpt><trkpt lat="40.68500153052115" lon="14.75893549160854"><ele>106.99999999999999</ele><time>2026-05-02T07:07:13.975Z</time></trkpt><trkpt lat="40.685006850148014" lon="14.7590883053171"><ele>107.0</ele><time>2026-05-02T07:07:14.975Z</time></trkpt><trkpt lat="40.68501719119251" lon="14.759252748360913"><ele>107.0</ele><time>2026-05-02T07:07:15.975Z</time></trkpt><trkpt lat="40.6850267747413" lon="14.759429904419733"><ele>107.19999999999999</ele><time>2026-05-02T07:07:16.975Z</time></trkpt><trkpt lat="40.685036144438826" lon="14.759594169330889"><ele>107.39999999999999</ele><time>2026-05-02T07:07:17.975Z</time></trkpt><trkpt lat="40.68504552408187" lon="14.759750371064959"><ele>107.60000000000001</ele><time>2026-05-02T07:07:18.975Z</time></trkpt><trkpt lat="40.68505414407782" lon="14.759889106027375"><ele>107.80000000000001</ele><time>2026-05-02T07:07:19.975Z</time></trkpt><trkpt lat="40.68506132928182" lon="14.760004748652634"><ele>108.0</ele><time>2026-05-02T07:07:20.975Z</time></trkpt><trkpt lat="40.68506780744569" lon="14.760109011416686"><ele>107.5</ele><time>2026-05-02T07:07:21.975Z</time></trkpt><trkpt lat="40.68508625627927" lon="14.760210196764339"><ele>107.0</ele><time>2026-05-02T07:07:22.975Z</time></trkpt><trkpt lat="40.68508713653179" lon="14.760355477127607"><ele>106.5</ele><time>2026-05-02T07:07:24.974Z</time></trkpt><trkpt lat="40.68510150824833" lon="14.760462633074205"><ele>106.0</ele><time>2026-05-02T07:07:26.974Z</time></trkpt><trkpt lat="40.68509209916597" lon="14.760546883031285"><ele>105.5</ele><time>2026-05-02T07:07:29.974Z</time></trkpt><trkpt lat="40.68510326735658" lon="14.760635413887009"><ele>105.0</ele><time>2026-05-02T07:07:34.974Z</time></trkpt><trkpt lat="40.68512603793778" lon="14.760741493605973"><ele>105.0</ele><time>2026-05-02T07:07:36.974Z</time></trkpt><trkpt lat="40.68517300210987" lon="14.760868883004237"><ele>105.0</ele><time>2026-05-02T07:07:38.974Z</time></trkpt><trkpt lat="40.685241581474585" lon="14.760984473131588"><ele>105.0</ele><time>2026-05-02T07:07:40.974Z</time></trkpt><trkpt lat="40.685321232416435" lon="14.761090935812097"><ele>105.0</ele><time>2026-05-02T07:07:42.974Z</time></trkpt><trkpt lat="40.68541087300628" lon="14.761188814266998"><ele>105.0</ele><time>2026-05-02T07:07:44.974Z</time></trkpt><trkpt lat="40.685486347227716" lon="14.761248281653792"><ele>103.57142857142857</ele><time>2026-05-02T07:07:46.974Z</time></trkpt><trkpt lat="40.68555890436541" lon="14.761281351403008"><ele>102.14285714285714</ele><time>2026-05-02T07:07:48.974Z</time></trkpt><trkpt lat="40.685597501961276" lon="14.761393792562584"><ele>100.71428571428572</ele><time>2026-05-02T07:07:50.974Z</time></trkpt><trkpt lat="40.68560173628446" lon="14.76148126674028"><ele>99.28571428571428</ele><time>2026-05-02T07:07:51.974Z</time></trkpt><trkpt lat="40.685595037024726" lon="14.761577833194547"><ele>97.85714285714286</ele><time>2026-05-02T07:07:52.974Z</time></trkpt><trkpt lat="40.685569486406756" lon="14.76166116131742"><ele>96.42857142857143</ele><time>2026-05-02T07:07:53.974Z</time></trkpt><trkpt lat="40.685526140191016" lon="14.761727743581645"><ele>95.0</ele><time>2026-05-02T07:07:54.973Z</time></trkpt><trkpt lat="40.68546649125378" lon="14.761792490266513"><ele>95.0</ele><time>2026-05-02T07:07:55.973Z</time></trkpt><trkpt lat="40.68539562278798" lon="14.761823551406543"><ele>95.0</ele><time>2026-05-02T07:07:56.973Z</time></trkpt><trkpt lat="40.685319179981974" lon="14.7618410476558"><ele>95.0</ele><time>2026-05-02T07:07:57.973Z</time></trkpt><trkpt lat="40.68523556110783" lon="14.76183688713692"><ele>95.0</ele><time>2026-05-02T07:07:58.973Z</time></trkpt><trkpt lat="40.685159402498115" lon="14.761812268413024"><ele>95.0</ele><time>2026-05-02T07:07:59.973Z</time></trkpt><trkpt lat="40.6850980770611" lon="14.761788892167932"><ele>95.0</ele><time>2026-05-02T07:08:00.973Z</time></trkpt><trkpt lat="40.68502997025553" lon="14.761741695746327"><ele>96.2</ele><time>2026-05-02T07:08:01.973Z</time></trkpt><trkpt lat="40.68497859414071" lon="14.761685630908802"><ele>97.4</ele><time>2026-05-02T07:08:02.973Z</time></trkpt><trkpt lat="40.68489305062464" lon="14.761579673133372"><ele>98.6</ele><time>2026-05-02T07:08:04.973Z</time></trkpt><trkpt lat="40.68481215237425" lon="14.761460178199291"><ele>99.8</ele><time>2026-05-02T07:08:06.973Z</time></trkpt><trkpt lat="40.684768453794774" lon="14.76134724494367"><ele>101.0</ele><time>2026-05-02T07:08:08.973Z</time></trkpt><trkpt lat="40.68475359255803" lon="14.761208124701366"><ele>101.0</ele><time>2026-05-02T07:08:10.973Z</time></trkpt><trkpt lat="40.6848189709732" lon="14.761104191475209"><ele>101.0</ele><time>2026-05-02T07:08:12.973Z</time></trkpt><trkpt lat="40.684886352607954" lon="14.761056868189577"><ele>101.0</ele><time>2026-05-02T07:08:14.973Z</time></trkpt><trkpt lat="40.684975339294155" lon="14.761055894626205"><ele>101.0</ele><time>2026-05-02T07:08:17.973Z</time></trkpt><trkpt lat="40.68502688449639" lon="14.76114477638444"><ele>101.0</ele><time>2026-05-02T07:08:19.973Z</time></trkpt><trkpt lat="40.6850822309761" lon="14.761256478761297"><ele>100.99999999999999</ele><time>2026-05-02T07:08:21.973Z</time></trkpt><trkpt lat="40.68511752095188" lon="14.761325749418084"><ele>101.0</ele><time>2026-05-02T07:08:22.973Z</time></trkpt><trkpt lat="40.685159348674674" lon="14.761397606728943"><ele>101.0</ele><time>2026-05-02T07:08:23.973Z</time></trkpt><trkpt lat="40.68520140337114" lon="14.761471780426767"><ele>101.0</ele><time>2026-05-02T07:08:24.972Z</time></trkpt><trkpt lat="40.685253641665106" lon="14.761546778253495"><ele>100.99999999999999</ele><time>2026-05-02T07:08:25.972Z</time></trkpt><trkpt lat="40.68532285336289" lon="14.761635834664855"><ele>101.0</ele><time>2026-05-02T07:08:26.972Z</time></trkpt><trkpt lat="40.68539993906658" lon="14.761741955369121"><ele>99.5</ele><time>2026-05-02T07:08:27.972Z</time></trkpt><trkpt lat="40.685480549397624" lon="14.76186101340751"><ele>98.0</ele><time>2026-05-02T07:08:28.972Z</time></trkpt><trkpt lat="40.68558268429908" lon="14.762003485101486"><ele>96.5</ele><time>2026-05-02T07:08:29.972Z</time></trkpt><trkpt lat="40.685698671882854" lon="14.762156430087623"><ele>95.0</ele><time>2026-05-02T07:08:30.972Z</time></trkpt><trkpt lat="40.68582644214084" lon="14.762346812451222"><ele>91.66666666666667</ele><time>2026-05-02T07:08:31.972Z</time></trkpt><trkpt lat="40.68596588313388" lon="14.762559707751597"><ele>88.33333333333333</ele><time>2026-05-02T07:08:32.972Z</time></trkpt><trkpt lat="40.68609672111901" lon="14.762798445180394"><ele>85.0</ele><time>2026-05-02T07:08:33.972Z</time></trkpt><trkpt lat="40.68621573025299" lon="14.763056813860358"><ele>96.0</ele><time>2026-05-02T07:08:34.972Z</time></trkpt><trkpt lat="40.686329675623064" lon="14.76332910948312"><ele>107.0</ele><time>2026-05-02T07:08:35.972Z</time></trkpt><trkpt lat="40.68643825492967" lon="14.763587012397155"><ele>108.33333333333333</ele><time>2026-05-02T07:08:36.972Z</time></trkpt><trkpt lat="40.68653660712941" lon="14.76383667604461"><ele>109.66666666666666</ele><time>2026-05-02T07:08:37.972Z</time></trkpt><trkpt lat="40.68662822756341" lon="14.764090933617451"><ele>111.0</ele><time>2026-05-02T07:08:38.972Z</time></trkpt><trkpt lat="40.68670319817456" lon="14.764352194812048"><ele>116.66666666666666</ele><time>2026-05-02T07:08:39.972Z</time></trkpt><trkpt lat="40.686762710980595" lon="14.764621652412751"><ele>122.33333333333333</ele><time>2026-05-02T07:08:40.972Z</time></trkpt><trkpt lat="40.68677617170109" lon="14.76489025480942"><ele>128.0</ele><time>2026-05-02T07:08:41.972Z</time></trkpt><trkpt lat="40.68678808353842" lon="14.765136488162776"><ele>132.66666666666666</ele><time>2026-05-02T07:08:42.972Z</time></trkpt><trkpt lat="40.68678884016724" lon="14.765390061962298"><ele>137.33333333333334</ele><time>2026-05-02T07:08:43.972Z</time></trkpt><trkpt lat="40.68677266783167" lon="14.765665201028867"><ele>142.0</ele><time>2026-05-02T07:08:45.137Z</time></trkpt><trkpt lat="40.68643682385515" lon="14.768968718482311"><ele>116.5</ele><time>2026-05-02T07:08:55.971Z</time></trkpt><trkpt lat="40.68649245012671" lon="14.769063572072142"><ele>91.0</ele><time>2026-05-02T07:08:56.971Z</time></trkpt><trkpt lat="40.68659130434004" lon="14.769609621988733"><ele>85.5</ele><time>2026-05-02T07:08:57.971Z</time></trkpt><trkpt lat="40.68662303482028" lon="14.769992843649904"><ele>80.0</ele><time>2026-05-02T07:08:58.971Z</time></trkpt><trkpt lat="40.686534651256125" lon="14.770351879230518"><ele>77.0</ele><time>2026-05-02T07:08:59.971Z</time></trkpt><trkpt lat="40.6866082564206" lon="14.770650718761948"><ele>74.0</ele><time>2026-05-02T07:09:00.971Z</time></trkpt><trkpt lat="40.68670234304702" lon="14.77093878910118"><ele>72.5</ele><time>2026-05-02T07:09:01.971Z</time></trkpt><trkpt lat="40.68681054283692" lon="14.771210412736815"><ele>71.0</ele><time>2026-05-02T07:09:02.971Z</time></trkpt><trkpt lat="40.68694867556783" lon="14.771452313137381"><ele>71.5</ele><time>2026-05-02T07:09:03.971Z</time></trkpt><trkpt lat="40.68707570023881" lon="14.771696551013655"><ele>72.0</ele><time>2026-05-02T07:09:04.971Z</time></trkpt><trkpt lat="40.68722345591738" lon="14.771920945624592"><ele>72.0</ele><time>2026-05-02T07:09:05.971Z</time></trkpt><trkpt lat="40.68738355349606" lon="14.772124547304486"><ele>72.0</ele><time>2026-05-02T07:09:06.971Z</time></trkpt><trkpt lat="40.68756816772324" lon="14.772311252886952"><ele>79.5</ele><time>2026-05-02T07:09:07.971Z</time></trkpt><trkpt lat="40.68776196934632" lon="14.772480962411148"><ele>87.0</ele><time>2026-05-02T07:09:08.971Z</time></trkpt><trkpt lat="40.687961376069175" lon="14.77263727041673"><ele>79.5</ele><time>2026-05-02T07:09:09.971Z</time></trkpt><trkpt lat="40.6881675114586" lon="14.772781005515744"><ele>72.0</ele><time>2026-05-02T07:09:10.971Z</time></trkpt><trkpt lat="40.688377038634556" lon="14.772910687082113"><ele>72.0</ele><time>2026-05-02T07:09:11.971Z</time></trkpt><trkpt lat="40.68858163480282" lon="14.773039609700424"><ele>72.0</ele><time>2026-05-02T07:09:12.971Z</time></trkpt><trkpt lat="40.688778415847835" lon="14.773171887026074"><ele>72.0</ele><time>2026-05-02T07:09:13.971Z</time></trkpt><trkpt lat="40.68897207571661" lon="14.773295466542107"><ele>72.66666666666667</ele><time>2026-05-02T07:09:14.971Z</time></trkpt><trkpt lat="40.689157971194646" lon="14.773400751420102"><ele>73.33333333333334</ele><time>2026-05-02T07:09:15.971Z</time></trkpt><trkpt lat="40.68934101436223" lon="14.773497467844628"><ele>74.0</ele><time>2026-05-02T07:09:16.971Z</time></trkpt><trkpt lat="40.68953523714031" lon="14.773562727564423"><ele>64.0</ele><time>2026-05-02T07:09:17.971Z</time></trkpt><trkpt lat="40.689728117065115" lon="14.773602609864835"><ele>54.0</ele><time>2026-05-02T07:09:18.971Z</time></trkpt><trkpt lat="40.68990979787182" lon="14.773629347464622"><ele>44.0</ele><time>2026-05-02T07:09:19.971Z</time></trkpt><trkpt lat="40.69010184619867" lon="14.773645188250894"><ele>44.0</ele><time>2026-05-02T07:09:20.971Z</time></trkpt><trkpt lat="40.69029701088262" lon="14.773661716114466"><ele>44.0</ele><time>2026-05-02T07:09:21.971Z</time></trkpt><trkpt lat="40.69049791921789" lon="14.773681346661371"><ele>44.0</ele><time>2026-05-02T07:09:22.971Z</time></trkpt><trkpt lat="40.69070205661118" lon="14.773705414574009"><ele>44.0</ele><time>2026-05-02T07:09:23.97Z</time></trkpt><trkpt lat="40.69089491572644" lon="14.773728208218733"><ele>44.0</ele><time>2026-05-02T07:09:24.97Z</time></trkpt><trkpt lat="40.69108199016419" lon="14.773766137548703"><ele>44.0</ele><time>2026-05-02T07:09:25.97Z</time></trkpt><trkpt lat="40.691269407803084" lon="14.773819213276148"><ele>47.33333333333333</ele><time>2026-05-02T07:09:26.97Z</time></trkpt><trkpt lat="40.69145750476923" lon="14.773895769652126"><ele>50.666666666666664</ele><time>2026-05-02T07:09:27.97Z</time></trkpt><trkpt lat="40.691638955589326" lon="14.773989622278826"><ele>54.0</ele><time>2026-05-02T07:09:28.97Z</time></trkpt><trkpt lat="40.691811810928726" lon="14.77409986698427"><ele>50.666666666666664</ele><time>2026-05-02T07:09:29.97Z</time></trkpt><trkpt lat="40.69197174228853" lon="14.774219631660406"><ele>47.33333333333333</ele><time>2026-05-02T07:09:30.97Z</time></trkpt><trkpt lat="40.69211906646308" lon="14.774351772724891"><ele>44.0</ele><time>2026-05-02T07:09:31.97Z</time></trkpt><trkpt lat="40.692262894200645" lon="14.774500484645497"><ele>44.0</ele><time>2026-05-02T07:09:32.97Z</time></trkpt><trkpt lat="40.69239776064713" lon="14.774666344295703"><ele>44.0</ele><time>2026-05-02T07:09:33.97Z</time></trkpt><trkpt lat="40.6925240112789" lon="14.774837147015283"><ele>44.0</ele><time>2026-05-02T07:09:34.97Z</time></trkpt><trkpt lat="40.69263701754173" lon="14.775019909176109"><ele>42.0</ele><time>2026-05-02T07:09:35.97Z</time></trkpt><trkpt lat="40.69274122153571" lon="14.775213723365567"><ele>40.0</ele><time>2026-05-02T07:09:36.97Z</time></trkpt><trkpt lat="40.69284100528209" lon="14.77541719078039"><ele>38.0</ele><time>2026-05-02T07:09:37.97Z</time></trkpt><trkpt lat="40.69293435482542" lon="14.775628236025806"><ele>38.0</ele><time>2026-05-02T07:09:38.97Z</time></trkpt><trkpt lat="40.693012646038206" lon="14.775851078905722"><ele>38.0</ele><time>2026-05-02T07:09:39.97Z</time></trkpt><trkpt lat="40.69308266855574" lon="14.77607814281874"><ele>38.0</ele><time>2026-05-02T07:09:40.97Z</time></trkpt><trkpt lat="40.69314856260194" lon="14.776303677496676"><ele>38.666666666666664</ele><time>2026-05-02T07:09:41.97Z</time></trkpt><trkpt lat="40.69321467612362" lon="14.776532962562676"><ele>39.333333333333336</ele><time>2026-05-02T07:09:42.97Z</time></trkpt><trkpt lat="40.6932873533668" lon="14.776762806400273"><ele>40.0</ele><time>2026-05-02T07:09:43.97Z</time></trkpt><trkpt lat="40.693357138430166" lon="14.776995893096387"><ele>40.333333333333336</ele><time>2026-05-02T07:09:44.97Z</time></trkpt><trkpt lat="40.693423690464506" lon="14.777222542279247"><ele>40.666666666666664</ele><time>2026-05-02T07:09:45.97Z</time></trkpt><trkpt lat="40.69348888884599" lon="14.777439144731122"><ele>41.0</ele><time>2026-05-02T07:09:46.97Z</time></trkpt><trkpt lat="40.693561674157834" lon="14.77767101123105"><ele>42.666666666666664</ele><time>2026-05-02T07:09:47.97Z</time></trkpt><trkpt lat="40.693632028721844" lon="14.77790648101382"><ele>44.333333333333336</ele><time>2026-05-02T07:09:48.97Z</time></trkpt><trkpt lat="40.693708548037286" lon="14.778151403507852"><ele>46.0</ele><time>2026-05-02T07:09:49.97Z</time></trkpt><trkpt lat="40.6937882668912" lon="14.778403840916202"><ele>46.333333333333336</ele><time>2026-05-02T07:09:50.97Z</time></trkpt><trkpt lat="40.69387046114508" lon="14.7786698353743"><ele>46.666666666666664</ele><time>2026-05-02T07:09:51.97Z</time></trkpt><trkpt lat="40.69395839434426" lon="14.778929013766845"><ele>47.0</ele><time>2026-05-02T07:09:52.97Z</time></trkpt><trkpt lat="40.6940642063706" lon="14.779209337522758"><ele>48.5</ele><time>2026-05-02T07:09:53.969Z</time></trkpt><trkpt lat="40.69418142709279" lon="14.779489380942262"><ele>50.0</ele><time>2026-05-02T07:09:54.969Z</time></trkpt><trkpt lat="40.69431195979627" lon="14.779761396333555"><ele>49.0</ele><time>2026-05-02T07:09:55.969Z</time></trkpt><trkpt lat="40.69446069279853" lon="14.780031830110337"><ele>48.0</ele><time>2026-05-02T07:09:56.969Z</time></trkpt><trkpt lat="40.69461695164414" lon="14.780269138688372"><ele>50.0</ele><time>2026-05-02T07:09:57.969Z</time></trkpt><trkpt lat="40.69477970255224" lon="14.780499529719188"><ele>52.0</ele><time>2026-05-02T07:09:58.969Z</time></trkpt><trkpt lat="40.69494707393413" lon="14.780724559564375"><ele>52.0</ele><time>2026-05-02T07:09:59.969Z</time></trkpt><trkpt lat="40.69512292160806" lon="14.780951711431568"><ele>52.0</ele><time>2026-05-02T07:10:00.969Z</time></trkpt><trkpt lat="40.69529555757937" lon="14.78117785607136"><ele>54.5</ele><time>2026-05-02T07:10:01.969Z</time></trkpt><trkpt lat="40.695462557802216" lon="14.781398118047095"><ele>57.0</ele><time>2026-05-02T07:10:02.969Z</time></trkpt><trkpt lat="40.695620941204794" lon="14.781611018658964"><ele>57.0</ele><time>2026-05-02T07:10:03.969Z</time></trkpt><trkpt lat="40.69576700522831" lon="14.781822688536407"><ele>57.0</ele><time>2026-05-02T07:10:04.969Z</time></trkpt><trkpt lat="40.695898988097156" lon="14.782048755427626"><ele>57.0</ele><time>2026-05-02T07:10:05.969Z</time></trkpt><trkpt lat="40.69601606921783" lon="14.782282773974005"><ele>64.0</ele><time>2026-05-02T07:10:06.969Z</time></trkpt><trkpt lat="40.69611572387874" lon="14.782551977863017"><ele>71.0</ele><time>2026-05-02T07:10:07.969Z</time></trkpt><trkpt lat="40.69620385795258" lon="14.78283452202548"><ele>71.0</ele><time>2026-05-02T07:10:08.969Z</time></trkpt><trkpt lat="40.696278882983734" lon="14.7830976980507"><ele>71.0</ele><time>2026-05-02T07:10:09.969Z</time></trkpt><trkpt lat="40.696337716747486" lon="14.78336600855194"><ele>71.0</ele><time>2026-05-02T07:10:10.969Z</time></trkpt><trkpt lat="40.696392774612654" lon="14.78362944845287"><ele>71.0</ele><time>2026-05-02T07:10:11.969Z</time></trkpt><trkpt lat="40.69644855677512" lon="14.783892756712717"><ele>71.0</ele><time>2026-05-02T07:10:12.969Z</time></trkpt><trkpt lat="40.69650582171682" lon="14.784150637793234"><ele>71.0</ele><time>2026-05-02T07:10:13.969Z</time></trkpt><trkpt lat="40.696557655692914" lon="14.784396437990772"><ele>71.0</ele><time>2026-05-02T07:10:14.969Z</time></trkpt><trkpt lat="40.696603510392414" lon="14.784652085220928"><ele>71.0</ele><time>2026-05-02T07:10:15.969Z</time></trkpt><trkpt lat="40.69664661616692" lon="14.784903236321396"><ele>71.0</ele><time>2026-05-02T07:10:16.969Z</time></trkpt><trkpt lat="40.69668450192144" lon="14.785136047237426"><ele>71.66666666666667</ele><time>2026-05-02T07:10:17.969Z</time></trkpt><trkpt lat="40.69672300456716" lon="14.785373243640729"><ele>72.33333333333333</ele><time>2026-05-02T07:10:18.969Z</time></trkpt><trkpt lat="40.69675889932137" lon="14.785612291359707"><ele>73.0</ele><time>2026-05-02T07:10:19.969Z</time></trkpt><trkpt lat="40.696801002407476" lon="14.78585291946633"><ele>73.66666666666666</ele><time>2026-05-02T07:10:20.969Z</time></trkpt><trkpt lat="40.696842504618594" lon="14.786101822123701"><ele>74.33333333333333</ele><time>2026-05-02T07:10:21.969Z</time></trkpt><trkpt lat="40.696886045752734" lon="14.786354626256811"><ele>75.0</ele><time>2026-05-02T07:10:22.969Z</time></trkpt><trkpt lat="40.69693096279031" lon="14.786613467469152"><ele>78.33333333333333</ele><time>2026-05-02T07:10:23.968Z</time></trkpt><trkpt lat="40.69697863777304" lon="14.78687722234543"><ele>81.66666666666666</ele><time>2026-05-02T07:10:24.968Z</time></trkpt><trkpt lat="40.69702569924726" lon="14.78714570665162"><ele>85.0</ele><time>2026-05-02T07:10:25.968Z</time></trkpt><trkpt lat="40.69707206158887" lon="14.787423069482184"><ele>86.66666666666666</ele><time>2026-05-02T07:10:26.968Z</time></trkpt><trkpt lat="40.697120886850435" lon="14.787697837450555"><ele>88.33333333333333</ele><time>2026-05-02T07:10:27.968Z</time></trkpt><trkpt lat="40.697157437552804" lon="14.787973690979019"><ele>90.0</ele><time>2026-05-02T07:10:28.968Z</time></trkpt><trkpt lat="40.69718683974947" lon="14.788243289006399"><ele>90.0</ele><time>2026-05-02T07:10:29.968Z</time></trkpt><trkpt lat="40.697211758667464" lon="14.788499126739055"><ele>90.0</ele><time>2026-05-02T07:10:30.968Z</time></trkpt><trkpt lat="40.69723370669848" lon="14.788747635319055"><ele>90.0</ele><time>2026-05-02T07:10:31.968Z</time></trkpt><trkpt lat="40.69724536111453" lon="14.78898664808638"><ele>92.0</ele><time>2026-05-02T07:10:32.968Z</time></trkpt><trkpt lat="40.697254483393664" lon="14.789229954375253"><ele>94.0</ele><time>2026-05-02T07:10:33.968Z</time></trkpt><trkpt lat="40.69726434281023" lon="14.789473522508137"><ele>96.0</ele><time>2026-05-02T07:10:34.968Z</time></trkpt><trkpt lat="40.697271541182545" lon="14.789711935104629"><ele>96.33333333333334</ele><time>2026-05-02T07:10:35.968Z</time></trkpt><trkpt lat="40.69727325561144" lon="14.789942593156507"><ele>96.66666666666667</ele><time>2026-05-02T07:10:36.968Z</time></trkpt><trkpt lat="40.69727297371685" lon="14.790141334587455"><ele>97.0</ele><time>2026-05-02T07:10:37.968Z</time></trkpt><trkpt lat="40.69726054159889" lon="14.7903275192034"><ele>98.0</ele><time>2026-05-02T07:10:38.968Z</time></trkpt><trkpt lat="40.697252675775445" lon="14.790515745164946"><ele>99.0</ele><time>2026-05-02T07:10:39.968Z</time></trkpt><trkpt lat="40.697240785996286" lon="14.790699217869312"><ele>100.0</ele><time>2026-05-02T07:10:40.968Z</time></trkpt><trkpt lat="40.697229576776" lon="14.790880556858765"><ele>101.0</ele><time>2026-05-02T07:10:41.968Z</time></trkpt><trkpt lat="40.697216404488856" lon="14.791057781560166"><ele>102.0</ele><time>2026-05-02T07:10:42.968Z</time></trkpt><trkpt lat="40.697203594229464" lon="14.791223694700173"><ele>103.0</ele><time>2026-05-02T07:10:43.968Z</time></trkpt><trkpt lat="40.69718914264852" lon="14.791388796101758"><ele>104.0</ele><time>2026-05-02T07:10:44.968Z</time></trkpt><trkpt lat="40.697175883175376" lon="14.791557593825031"><ele>105.0</ele><time>2026-05-02T07:10:45.968Z</time></trkpt><trkpt lat="40.69716633624226" lon="14.791727713090015"><ele>106.25</ele><time>2026-05-02T07:10:46.968Z</time></trkpt><trkpt lat="40.69715501408932" lon="14.791899927799685"><ele>107.5</ele><time>2026-05-02T07:10:47.968Z</time></trkpt><trkpt lat="40.69713395266269" lon="14.792077621598262"><ele>108.75</ele><time>2026-05-02T07:10:48.968Z</time></trkpt><trkpt lat="40.69711485528085" lon="14.792268178149738"><ele>110.0</ele><time>2026-05-02T07:10:49.968Z</time></trkpt><trkpt lat="40.69710091417138" lon="14.792466678111975"><ele>111.66666666666666</ele><time>2026-05-02T07:10:50.968Z</time></trkpt><trkpt lat="40.69708507363265" lon="14.792676193731856"><ele>113.33333333333334</ele><time>2026-05-02T07:10:51.968Z</time></trkpt><trkpt lat="40.697070636050164" lon="14.792893067856465"><ele>115.0</ele><time>2026-05-02T07:10:52.968Z</time></trkpt><trkpt lat="40.6970582609469" lon="14.793117287105137"><ele>115.0</ele><time>2026-05-02T07:10:53.967Z</time></trkpt><trkpt lat="40.697046031059855" lon="14.793352381754437"><ele>115.0</ele><time>2026-05-02T07:10:54.967Z</time></trkpt><trkpt lat="40.697028752369505" lon="14.79359437278923"><ele>115.0</ele><time>2026-05-02T07:10:55.967Z</time></trkpt><trkpt lat="40.697014665196484" lon="14.79384503177005"><ele>115.0</ele><time>2026-05-02T07:10:56.967Z</time></trkpt><trkpt lat="40.69699486837464" lon="14.794110337274285"><ele>115.0</ele><time>2026-05-02T07:10:57.967Z</time></trkpt><trkpt lat="40.6969819911396" lon="14.794384599034064"><ele>115.0</ele><time>2026-05-02T07:10:58.967Z</time></trkpt><trkpt lat="40.69696929397767" lon="14.794668396141429"><ele>114.0</ele><time>2026-05-02T07:10:59.967Z</time></trkpt><trkpt lat="40.6969579400141" lon="14.794971274332896"><ele>113.0</ele><time>2026-05-02T07:11:00.967Z</time></trkpt><trkpt lat="40.69695174950398" lon="14.795293027568869"><ele>111.5</ele><time>2026-05-02T07:11:01.967Z</time></trkpt><trkpt lat="40.69695064539926" lon="14.795628237492707"><ele>110.0</ele><time>2026-05-02T07:11:02.967Z</time></trkpt><trkpt lat="40.69695984778883" lon="14.795957323301963"><ele>111.0</ele><time>2026-05-02T07:11:03.967Z</time></trkpt><trkpt lat="40.69696971755897" lon="14.796288669961722"><ele>112.0</ele><time>2026-05-02T07:11:04.967Z</time></trkpt><trkpt lat="40.696984980747075" lon="14.796630311760032"><ele>114.0</ele><time>2026-05-02T07:11:05.967Z</time></trkpt><trkpt lat="40.69700987226181" lon="14.796992612724951"><ele>116.0</ele><time>2026-05-02T07:11:06.967Z</time></trkpt><trkpt lat="40.69703324858563" lon="14.797360183342668"><ele>118.0</ele><time>2026-05-02T07:11:07.967Z</time></trkpt><trkpt lat="40.69706235217331" lon="14.797728670642412"><ele>120.0</ele><time>2026-05-02T07:11:08.967Z</time></trkpt><trkpt lat="40.697097060306874" lon="14.79809492798231"><ele>120.0</ele><time>2026-05-02T07:11:09.967Z</time></trkpt><trkpt lat="40.69713840432711" lon="14.798457037871705"><ele>120.0</ele><time>2026-05-02T07:11:10.967Z</time></trkpt><trkpt lat="40.6971807272849" lon="14.798804272560746"><ele>122.5</ele><time>2026-05-02T07:11:11.967Z</time></trkpt><trkpt lat="40.69723566505949" lon="14.799162990874947"><ele>125.0</ele><time>2026-05-02T07:11:12.967Z</time></trkpt><trkpt lat="40.69729364871671" lon="14.799517540297952"><ele>125.0</ele><time>2026-05-02T07:11:13.967Z</time></trkpt><trkpt lat="40.69735724206018" lon="14.799864252169783"><ele>125.0</ele><time>2026-05-02T07:11:14.967Z</time></trkpt><trkpt lat="40.697420579798525" lon="14.800207280786772"><ele>125.0</ele><time>2026-05-02T07:11:15.967Z</time></trkpt><trkpt lat="40.697490889929526" lon="14.800542435673098"><ele>125.0</ele><time>2026-05-02T07:11:16.967Z</time></trkpt><trkpt lat="40.6975600886671" lon="14.800871889001575"><ele>126.5</ele><time>2026-05-02T07:11:17.967Z</time></trkpt><trkpt lat="40.697634258057924" lon="14.801185615893957"><ele>128.0</ele><time>2026-05-02T07:11:18.967Z</time></trkpt><trkpt lat="40.69770963725716" lon="14.801503194557641"><ele>135.5</ele><time>2026-05-02T07:11:19.967Z</time></trkpt><trkpt lat="40.69777827226513" lon="14.801816822001177"><ele>143.0</ele><time>2026-05-02T07:11:20.967Z</time></trkpt><trkpt lat="40.697852481733165" lon="14.802133013731442"><ele>143.5</ele><time>2026-05-02T07:11:21.967Z</time></trkpt><trkpt lat="40.6979265453769" lon="14.8024443216281"><ele>144.0</ele><time>2026-05-02T07:11:22.967Z</time></trkpt><trkpt lat="40.69799818931923" lon="14.80275852347402"><ele>142.5</ele><time>2026-05-02T07:11:23.966Z</time></trkpt><trkpt lat="40.698070826272286" lon="14.803082938322216"><ele>141.0</ele><time>2026-05-02T07:11:24.966Z</time></trkpt><trkpt lat="40.69814665896774" lon="14.803411586617901"><ele>139.5</ele><time>2026-05-02T07:11:25.966Z</time></trkpt><trkpt lat="40.6982168788654" lon="14.803736129073117"><ele>138.0</ele><time>2026-05-02T07:11:26.966Z</time></trkpt><trkpt lat="40.698291598062646" lon="14.804064503883312"><ele>140.0</ele><time>2026-05-02T07:11:27.966Z</time></trkpt><trkpt lat="40.698375972311496" lon="14.804398619038272"><ele>142.0</ele><time>2026-05-02T07:11:28.966Z</time></trkpt><trkpt lat="40.698459465098374" lon="14.80473204035388"><ele>142.0</ele><time>2026-05-02T07:11:29.966Z</time></trkpt><trkpt lat="40.69854089849132" lon="14.805071001364219"><ele>142.0</ele><time>2026-05-02T07:11:30.966Z</time></trkpt><trkpt lat="40.69862454067759" lon="14.805403024431515"><ele>148.5</ele><time>2026-05-02T07:11:31.966Z</time></trkpt><trkpt lat="40.698710201002314" lon="14.80574144508157"><ele>155.0</ele><time>2026-05-02T07:11:32.966Z</time></trkpt><trkpt lat="40.698789448966046" lon="14.806070285095872"><ele>155.0</ele><time>2026-05-02T07:11:33.966Z</time></trkpt><trkpt lat="40.69886273768758" lon="14.806400316231565"><ele>155.0</ele><time>2026-05-02T07:11:34.966Z</time></trkpt><trkpt lat="40.69893480805692" lon="14.806734641058105"><ele>154.0</ele><time>2026-05-02T07:11:35.966Z</time></trkpt><trkpt lat="40.69900046197728" lon="14.807066611305393"><ele>153.0</ele><time>2026-05-02T07:11:36.966Z</time></trkpt><trkpt lat="40.69906009670871" lon="14.80740550662499"><ele>156.5</ele><time>2026-05-02T07:11:37.966Z</time></trkpt><trkpt lat="40.69911391611349" lon="14.807736424531816"><ele>160.0</ele><time>2026-05-02T07:11:38.966Z</time></trkpt><trkpt lat="40.69915722567646" lon="14.808075241042708"><ele>160.0</ele><time>2026-05-02T07:11:39.966Z</time></trkpt><trkpt lat="40.699198785711054" lon="14.808410001868308"><ele>160.0</ele><time>2026-05-02T07:11:40.966Z</time></trkpt><trkpt lat="40.69923905304017" lon="14.808749409581896"><ele>164.0</ele><time>2026-05-02T07:11:41.966Z</time></trkpt><trkpt lat="40.699270381261485" lon="14.809087676314471"><ele>168.0</ele><time>2026-05-02T07:11:42.966Z</time></trkpt><trkpt lat="40.699291916496556" lon="14.809424100248547"><ele>169.0</ele><time>2026-05-02T07:11:43.966Z</time></trkpt><trkpt lat="40.69931001671702" lon="14.809758657772544"><ele>170.0</ele><time>2026-05-02T07:11:44.966Z</time></trkpt><trkpt lat="40.6993181853006" lon="14.810094663090675"><ele>169.0</ele><time>2026-05-02T07:11:45.966Z</time></trkpt><trkpt lat="40.69932360583595" lon="14.810434176192278"><ele>168.0</ele><time>2026-05-02T07:11:46.966Z</time></trkpt><trkpt lat="40.699319522421995" lon="14.81077388159615"><ele>165.5</ele><time>2026-05-02T07:11:47.966Z</time></trkpt><trkpt lat="40.69931354966212" lon="14.811124419289834"><ele>163.0</ele><time>2026-05-02T07:11:48.966Z</time></trkpt><trkpt lat="40.69929852506139" lon="14.811475203783333"><ele>167.0</ele><time>2026-05-02T07:11:49.966Z</time></trkpt><trkpt lat="40.699273191306105" lon="14.811827129181552"><ele>171.0</ele><time>2026-05-02T07:11:50.966Z</time></trkpt><trkpt lat="40.69924661284502" lon="14.812177542837569"><ele>171.0</ele><time>2026-05-02T07:11:51.966Z</time></trkpt><trkpt lat="40.69921605502976" lon="14.81252789385338"><ele>171.0</ele><time>2026-05-02T07:11:52.965Z</time></trkpt><trkpt lat="40.6991865915488" lon="14.812878651477204"><ele>175.5</ele><time>2026-05-02T07:11:53.965Z</time></trkpt><trkpt lat="40.699149383765935" lon="14.813235201357761"><ele>180.0</ele><time>2026-05-02T07:11:54.965Z</time></trkpt><trkpt lat="40.699110228289236" lon="14.81359315527966"><ele>185.5</ele><time>2026-05-02T07:11:55.965Z</time></trkpt><trkpt lat="40.699067980436645" lon="14.813953123469787"><ele>191.0</ele><time>2026-05-02T07:11:56.965Z</time></trkpt><trkpt lat="40.69901672120138" lon="14.814326128762646"><ele>193.5</ele><time>2026-05-02T07:11:57.965Z</time></trkpt><trkpt lat="40.698969595245984" lon="14.814690950010252"><ele>196.0</ele><time>2026-05-02T07:11:58.965Z</time></trkpt><trkpt lat="40.698923472620905" lon="14.815055854079995"><ele>195.0</ele><time>2026-05-02T07:11:59.965Z</time></trkpt><trkpt lat="40.69887608740608" lon="14.815429430343885"><ele>194.0</ele><time>2026-05-02T07:12:00.965Z</time></trkpt><trkpt lat="40.69865143636903" lon="14.818407282109785"><ele>182.0</ele><time>2026-05-02T07:12:05.497Z</time></trkpt><trkpt lat="40.6985783" lon="14.8191845"><ele>181.0</ele><time>2026-05-02T07:12:06.493Z</time></trkpt><trkpt lat="40.69841902644502" lon="14.82009720581722"><ele>180.0</ele><time>2026-05-02T07:12:13.965Z</time></trkpt><trkpt lat="40.69841693481935" lon="14.820458314171514"><ele>179.0</ele><time>2026-05-02T07:12:14.965Z</time></trkpt><trkpt lat="40.69841201582627" lon="14.820835564521262"><ele>177.5</ele><time>2026-05-02T07:12:15.965Z</time></trkpt><trkpt lat="40.698384552056545" lon="14.82119541626583"><ele>176.0</ele><time>2026-05-02T07:12:16.965Z</time></trkpt><trkpt lat="40.698353895443134" lon="14.82155266131673"><ele>176.5</ele><time>2026-05-02T07:12:17.965Z</time></trkpt><trkpt lat="40.69830674770353" lon="14.821915760612216"><ele>177.0</ele><time>2026-05-02T07:12:18.965Z</time></trkpt><trkpt lat="40.69826968502448" lon="14.822276715106527"><ele>177.0</ele><time>2026-05-02T07:12:19.965Z</time></trkpt><trkpt lat="40.69822368586945" lon="14.822639683559531"><ele>177.0</ele><time>2026-05-02T07:12:20.965Z</time></trkpt><trkpt lat="40.69816668910224" lon="14.823007789856568"><ele>176.5</ele><time>2026-05-02T07:12:21.965Z</time></trkpt><trkpt lat="40.69810090621926" lon="14.823372569252863"><ele>176.0</ele><time>2026-05-02T07:12:22.964Z</time></trkpt><trkpt lat="40.69803241994533" lon="14.823735016787204"><ele>175.5</ele><time>2026-05-02T07:12:23.964Z</time></trkpt><trkpt lat="40.69795799160254" lon="14.824092535950683"><ele>175.0</ele><time>2026-05-02T07:12:24.964Z</time></trkpt><trkpt lat="40.69788208827671" lon="14.824447330771392"><ele>175.0</ele><time>2026-05-02T07:12:25.964Z</time></trkpt><trkpt lat="40.697800866367736" lon="14.824796332165409"><ele>175.0</ele><time>2026-05-02T07:12:26.964Z</time></trkpt><trkpt lat="40.69771454079719" lon="14.825142411205368"><ele>174.5</ele><time>2026-05-02T07:12:27.964Z</time></trkpt><trkpt lat="40.697621880305206" lon="14.825486716833614"><ele>174.0</ele><time>2026-05-02T07:12:28.964Z</time></trkpt><trkpt lat="40.69752511359166" lon="14.82582959399314"><ele>175.0</ele><time>2026-05-02T07:12:29.964Z</time></trkpt><trkpt lat="40.697420623505444" lon="14.826173637127656"><ele>176.0</ele><time>2026-05-02T07:12:30.964Z</time></trkpt><trkpt lat="40.697312008708764" lon="14.826515126613218"><ele>177.5</ele><time>2026-05-02T07:12:31.964Z</time></trkpt><trkpt lat="40.69719811814452" lon="14.826854561060069"><ele>179.0</ele><time>2026-05-02T07:12:32.964Z</time></trkpt><trkpt lat="40.697078009825205" lon="14.827191666934187"><ele>179.0</ele><time>2026-05-02T07:12:33.964Z</time></trkpt><trkpt lat="40.69695063811107" lon="14.827523800001716"><ele>179.0</ele><time>2026-05-02T07:12:34.964Z</time></trkpt><trkpt lat="40.69681918792306" lon="14.827858548174547"><ele>179.0</ele><time>2026-05-02T07:12:35.964Z</time></trkpt><trkpt lat="40.6966867673184" lon="14.82818664922566"><ele>179.0</ele><time>2026-05-02T07:12:36.964Z</time></trkpt><trkpt lat="40.69654456314659" lon="14.828509129590968"><ele>179.0</ele><time>2026-05-02T07:12:37.964Z</time></trkpt><trkpt lat="40.69639838521954" lon="14.828832510153811"><ele>179.0</ele><time>2026-05-02T07:12:38.964Z</time></trkpt><trkpt lat="40.696245537456555" lon="14.829142739707436"><ele>178.0</ele><time>2026-05-02T07:12:39.964Z</time></trkpt><trkpt lat="40.69609294586483" lon="14.829450915515892"><ele>177.0</ele><time>2026-05-02T07:12:40.964Z</time></trkpt><trkpt lat="40.695938777323924" lon="14.82975642068715"><ele>176.0</ele><time>2026-05-02T07:12:41.964Z</time></trkpt><trkpt lat="40.69577499706421" lon="14.830061032396674"><ele>175.0</ele><time>2026-05-02T07:12:42.964Z</time></trkpt><trkpt lat="40.69559512210002" lon="14.830366323384695"><ele>174.5</ele><time>2026-05-02T07:12:43.964Z</time></trkpt><trkpt lat="40.69541106252834" lon="14.830660310346186"><ele>174.0</ele><time>2026-05-02T07:12:44.964Z</time></trkpt><trkpt lat="40.69522367975628" lon="14.830956440439744"><ele>170.0</ele><time>2026-05-02T07:12:45.964Z</time></trkpt><trkpt lat="40.695038164396735" lon="14.831243861687796"><ele>166.0</ele><time>2026-05-02T07:12:46.964Z</time></trkpt><trkpt lat="40.69484636408713" lon="14.831527142514368"><ele>166.0</ele><time>2026-05-02T07:12:47.964Z</time></trkpt><trkpt lat="40.69464847635422" lon="14.831809870036572"><ele>166.0</ele><time>2026-05-02T07:12:48.964Z</time></trkpt><trkpt lat="40.6944515935487" lon="14.832087552428792"><ele>165.0</ele><time>2026-05-02T07:12:49.964Z</time></trkpt><trkpt lat="40.694250122690846" lon="14.832364946606614"><ele>164.0</ele><time>2026-05-02T07:12:50.964Z</time></trkpt><trkpt lat="40.6940510135308" lon="14.83264395430866"><ele>164.0</ele><time>2026-05-02T07:12:51.964Z</time></trkpt><trkpt lat="40.693843629481336" lon="14.832915481069604"><ele>164.0</ele><time>2026-05-02T07:12:52.963Z</time></trkpt><trkpt lat="40.69364169144882" lon="14.83319017998819"><ele>162.0</ele><time>2026-05-02T07:12:53.963Z</time></trkpt><trkpt lat="40.69343393925711" lon="14.833448145431202"><ele>160.0</ele><time>2026-05-02T07:12:54.963Z</time></trkpt><trkpt lat="40.693226626010194" lon="14.833709145602521"><ele>159.0</ele><time>2026-05-02T07:12:55.963Z</time></trkpt><trkpt lat="40.69303072915067" lon="14.833968874707093"><ele>158.0</ele><time>2026-05-02T07:12:56.963Z</time></trkpt><trkpt lat="40.69284225114584" lon="14.834233235853247"><ele>157.0</ele><time>2026-05-02T07:12:57.963Z</time></trkpt><trkpt lat="40.69265690874511" lon="14.834495587822495"><ele>156.0</ele><time>2026-05-02T07:12:58.963Z</time></trkpt><trkpt lat="40.692463519807234" lon="14.834755941463314"><ele>156.0</ele><time>2026-05-02T07:12:59.963Z</time></trkpt><trkpt lat="40.69226644080885" lon="14.835018960787512"><ele>156.0</ele><time>2026-05-02T07:13:00.963Z</time></trkpt><trkpt lat="40.692063550767735" lon="14.83528484677336"><ele>154.0</ele><time>2026-05-02T07:13:01.963Z</time></trkpt><trkpt lat="40.69186178396409" lon="14.83555020096841"><ele>152.0</ele><time>2026-05-02T07:13:02.963Z</time></trkpt><trkpt lat="40.691660817739" lon="14.835817026266428"><ele>151.5</ele><time>2026-05-02T07:13:03.963Z</time></trkpt><trkpt lat="40.69146151142766" lon="14.836084170310324"><ele>151.0</ele><time>2026-05-02T07:13:04.963Z</time></trkpt><trkpt lat="40.69126402623869" lon="14.8363515007542"><ele>150.5</ele><time>2026-05-02T07:13:05.963Z</time></trkpt><trkpt lat="40.69107432111921" lon="14.836619008386224"><ele>150.0</ele><time>2026-05-02T07:13:06.963Z</time></trkpt><trkpt lat="40.69088228412976" lon="14.836890126125041"><ele>150.0</ele><time>2026-05-02T07:13:07.963Z</time></trkpt><trkpt lat="40.69069900798886" lon="14.83715755369085"><ele>150.0</ele><time>2026-05-02T07:13:08.963Z</time></trkpt><trkpt lat="40.69051233504343" lon="14.837433747011536"><ele>148.5</ele><time>2026-05-02T07:13:09.963Z</time></trkpt><trkpt lat="40.690333023902475" lon="14.837710416366043"><ele>147.0</ele><time>2026-05-02T07:13:10.963Z</time></trkpt><trkpt lat="40.69015471595826" lon="14.837992007307895"><ele>145.0</ele><time>2026-05-02T07:13:11.963Z</time></trkpt><trkpt lat="40.68997504416014" lon="14.838275141603663"><ele>143.0</ele><time>2026-05-02T07:13:12.963Z</time></trkpt><trkpt lat="40.68980132902474" lon="14.83856688522035"><ele>142.5</ele><time>2026-05-02T07:13:13.963Z</time></trkpt><trkpt lat="40.689631016929106" lon="14.838866270366648"><ele>142.0</ele><time>2026-05-02T07:13:14.963Z</time></trkpt><trkpt lat="40.689463120731986" lon="14.83917111143691"><ele>140.0</ele><time>2026-05-02T07:13:15.963Z</time></trkpt><trkpt lat="40.6893002095972" lon="14.839479605488853"><ele>138.0</ele><time>2026-05-02T07:13:16.963Z</time></trkpt><trkpt lat="40.689141696463075" lon="14.839792742843265"><ele>138.0</ele><time>2026-05-02T07:13:17.963Z</time></trkpt><trkpt lat="40.68898444791399" lon="14.840107580167896"><ele>138.0</ele><time>2026-05-02T07:13:18.963Z</time></trkpt><trkpt lat="40.68882902747988" lon="14.840426676273585"><ele>137.5</ele><time>2026-05-02T07:13:19.963Z</time></trkpt><trkpt lat="40.68868276496977" lon="14.840744506306093"><ele>137.0</ele><time>2026-05-02T07:13:20.963Z</time></trkpt><trkpt lat="40.688543814474976" lon="14.841061262640695"><ele>134.0</ele><time>2026-05-02T07:13:21.963Z</time></trkpt><trkpt lat="40.688414173851974" lon="14.84137955975806"><ele>131.0</ele><time>2026-05-02T07:13:22.962Z</time></trkpt><trkpt lat="40.688288371908094" lon="14.841699649020248"><ele>130.5</ele><time>2026-05-02T07:13:23.962Z</time></trkpt><trkpt lat="40.68816989402837" lon="14.84202181934635"><ele>130.0</ele><time>2026-05-02T07:13:24.962Z</time></trkpt><trkpt lat="40.68805654328604" lon="14.842349746106374"><ele>129.5</ele><time>2026-05-02T07:13:25.962Z</time></trkpt><trkpt lat="40.68794419558428" lon="14.842679428041608"><ele>129.0</ele><time>2026-05-02T07:13:26.962Z</time></trkpt><trkpt lat="40.68783353423431" lon="14.843014720198294"><ele>129.0</ele><time>2026-05-02T07:13:27.962Z</time></trkpt><trkpt lat="40.687727088199416" lon="14.843349481425468"><ele>129.0</ele><time>2026-05-02T07:13:28.962Z</time></trkpt><trkpt lat="40.68762625938649" lon="14.843690631776553"><ele>128.0</ele><time>2026-05-02T07:13:29.962Z</time></trkpt><trkpt lat="40.68753582964838" lon="14.84403258250688"><ele>127.0</ele><time>2026-05-02T07:13:30.962Z</time></trkpt><trkpt lat="40.687435282955015" lon="14.844388400886016"><ele>126.5</ele><time>2026-05-02T07:13:31.962Z</time></trkpt><trkpt lat="40.68733929844424" lon="14.84473829020685"><ele>126.0</ele><time>2026-05-02T07:13:32.962Z</time></trkpt><trkpt lat="40.687247427276425" lon="14.845085395517554"><ele>125.0</ele><time>2026-05-02T07:13:33.962Z</time></trkpt><trkpt lat="40.687155268042595" lon="14.845434479041966"><ele>124.0</ele><time>2026-05-02T07:13:34.962Z</time></trkpt><trkpt lat="40.68706192546414" lon="14.845786137300188"><ele>123.0</ele><time>2026-05-02T07:13:35.962Z</time></trkpt><trkpt lat="40.68697452015099" lon="14.846139533261342"><ele>122.0</ele><time>2026-05-02T07:13:36.962Z</time></trkpt><trkpt lat="40.6868849091282" lon="14.846485232698265"><ele>120.5</ele><time>2026-05-02T07:13:37.962Z</time></trkpt><trkpt lat="40.6867925915704" lon="14.846828267232603"><ele>119.0</ele><time>2026-05-02T07:13:38.962Z</time></trkpt><trkpt lat="40.68670901216856" lon="14.847163513331115"><ele>119.0</ele><time>2026-05-02T07:13:39.962Z</time></trkpt><trkpt lat="40.686619053572386" lon="14.84750701907729"><ele>119.0</ele><time>2026-05-02T07:13:40.962Z</time></trkpt><trkpt lat="40.686532968104" lon="14.847854402953686"><ele>115.5</ele><time>2026-05-02T07:13:41.962Z</time></trkpt><trkpt lat="40.686447888802604" lon="14.84820488635322"><ele>112.0</ele><time>2026-05-02T07:13:42.962Z</time></trkpt><trkpt lat="40.686362524060456" lon="14.84855971261785"><ele>111.5</ele><time>2026-05-02T07:13:43.962Z</time></trkpt><trkpt lat="40.686277001448616" lon="14.848911997148441"><ele>111.0</ele><time>2026-05-02T07:13:44.962Z</time></trkpt><trkpt lat="40.686193048029935" lon="14.849257439659501"><ele>111.5</ele><time>2026-05-02T07:13:45.962Z</time></trkpt><trkpt lat="40.68610339783736" lon="14.849607067738564"><ele>112.0</ele><time>2026-05-02T07:13:46.962Z</time></trkpt><trkpt lat="40.686010993550276" lon="14.849953042622483"><ele>110.5</ele><time>2026-05-02T07:13:47.962Z</time></trkpt><trkpt lat="40.6859116438172" lon="14.850290227137856"><ele>109.0</ele><time>2026-05-02T07:13:48.962Z</time></trkpt><trkpt lat="40.68581282054892" lon="14.850632755056331"><ele>110.5</ele><time>2026-05-02T07:13:49.962Z</time></trkpt><trkpt lat="40.68570033984029" lon="14.850984825004826"><ele>112.0</ele><time>2026-05-02T07:13:50.962Z</time></trkpt><trkpt lat="40.68558446637003" lon="14.851333425924787"><ele>112.0</ele><time>2026-05-02T07:13:51.962Z</time></trkpt><trkpt lat="40.685458872984846" lon="14.85168042576389"><ele>112.0</ele><time>2026-05-02T07:13:52.961Z</time></trkpt><trkpt lat="40.68531576030412" lon="14.852025879150824"><ele>112.5</ele><time>2026-05-02T07:13:53.961Z</time></trkpt><trkpt lat="40.68516587012857" lon="14.85235401789285"><ele>113.0</ele><time>2026-05-02T07:13:54.961Z</time></trkpt><trkpt lat="40.6849978348491" lon="14.852683101665104"><ele>114.0</ele><time>2026-05-02T07:13:55.961Z</time></trkpt><trkpt lat="40.68483114793144" lon="14.852984559778582"><ele>115.0</ele><time>2026-05-02T07:13:56.961Z</time></trkpt><trkpt lat="40.684655060593165" lon="14.853282232635726"><ele>115.5</ele><time>2026-05-02T07:13:57.961Z</time></trkpt><trkpt lat="40.68447369959438" lon="14.853567416063619"><ele>116.0</ele><time>2026-05-02T07:13:58.961Z</time></trkpt><trkpt lat="40.68427785924746" lon="14.853842205715658"><ele>114.5</ele><time>2026-05-02T07:13:59.961Z</time></trkpt><trkpt lat="40.6840809252111" lon="14.854111723765161"><ele>113.0</ele><time>2026-05-02T07:14:00.961Z</time></trkpt><trkpt lat="40.683871916198626" lon="14.854379934629021"><ele>113.0</ele><time>2026-05-02T07:14:01.961Z</time></trkpt><trkpt lat="40.68365974148526" lon="14.854637503613656"><ele>113.0</ele><time>2026-05-02T07:14:02.961Z</time></trkpt><trkpt lat="40.68343539835424" lon="14.854884084185283"><ele>113.0</ele><time>2026-05-02T07:14:03.961Z</time></trkpt><trkpt lat="40.68320486337508" lon="14.855118404459542"><ele>113.0</ele><time>2026-05-02T07:14:04.961Z</time></trkpt><trkpt lat="40.68296577064792" lon="14.855341033956487"><ele>112.0</ele><time>2026-05-02T07:14:05.961Z</time></trkpt><trkpt lat="40.68272665890302" lon="14.855554419730977"><ele>111.0</ele><time>2026-05-02T07:14:06.961Z</time></trkpt><trkpt lat="40.6824802089307" lon="14.85574986640095"><ele>111.0</ele><time>2026-05-02T07:14:07.961Z</time></trkpt><trkpt lat="40.68222638840481" lon="14.855933006165566"><ele>111.0</ele><time>2026-05-02T07:14:08.961Z</time></trkpt><trkpt lat="40.68197130235563" lon="14.856111424361197"><ele>113.0</ele><time>2026-05-02T07:14:09.961Z</time></trkpt><trkpt lat="40.68171005874351" lon="14.856272716313466"><ele>115.0</ele><time>2026-05-02T07:14:10.961Z</time></trkpt><trkpt lat="40.68144576057785" lon="14.856426243841844"><ele>115.0</ele><time>2026-05-02T07:14:11.961Z</time></trkpt><trkpt lat="40.68117538177786" lon="14.856566989934917"><ele>115.0</ele><time>2026-05-02T07:14:12.961Z</time></trkpt><trkpt lat="40.680899758204774" lon="14.856693019901892"><ele>114.5</ele><time>2026-05-02T07:14:13.961Z</time></trkpt><trkpt lat="40.68061924144752" lon="14.856807553774388"><ele>114.0</ele><time>2026-05-02T07:14:14.961Z</time></trkpt><trkpt lat="40.680335012864816" lon="14.85690686333397"><ele>114.0</ele><time>2026-05-02T07:14:15.961Z</time></trkpt><trkpt lat="40.68004867349985" lon="14.856990104192812"><ele>114.0</ele><time>2026-05-02T07:14:16.961Z</time></trkpt><trkpt lat="40.67976038510051" lon="14.85706168857731"><ele>114.0</ele><time>2026-05-02T07:14:17.961Z</time></trkpt><trkpt lat="40.67946909371742" lon="14.857116628156382"><ele>114.0</ele><time>2026-05-02T07:14:18.961Z</time></trkpt><trkpt lat="40.67917558030944" lon="14.857165429007976"><ele>114.0</ele><time>2026-05-02T07:14:19.961Z</time></trkpt><trkpt lat="40.6788825274553" lon="14.857206944124725"><ele>114.0</ele><time>2026-05-02T07:14:20.961Z</time></trkpt><trkpt lat="40.67858699615836" lon="14.857239966513495"><ele>115.5</ele><time>2026-05-02T07:14:21.96Z</time></trkpt><trkpt lat="40.67829067921001" lon="14.857271870081505"><ele>117.0</ele><time>2026-05-02T07:14:22.96Z</time></trkpt><trkpt lat="40.67799560818134" lon="14.857301548369986"><ele>118.0</ele><time>2026-05-02T07:14:23.96Z</time></trkpt><trkpt lat="40.67770107711028" lon="14.857328371735743"><ele>119.0</ele><time>2026-05-02T07:14:24.96Z</time></trkpt><trkpt lat="40.67740615184392" lon="14.857355004147273"><ele>119.0</ele><time>2026-05-02T07:14:25.96Z</time></trkpt><trkpt lat="40.67711302957148" lon="14.857382543594502"><ele>119.0</ele><time>2026-05-02T07:14:26.96Z</time></trkpt><trkpt lat="40.67681773695288" lon="14.857411845633868"><ele>125.0</ele><time>2026-05-02T07:14:27.96Z</time></trkpt><trkpt lat="40.67652334213932" lon="14.85745096346093"><ele>131.0</ele><time>2026-05-02T07:14:28.96Z</time></trkpt><trkpt lat="40.67622795047353" lon="14.857496558516917"><ele>148.0</ele><time>2026-05-02T07:14:29.96Z</time></trkpt><trkpt lat="40.675925366535395" lon="14.857534648925782"><ele>165.0</ele><time>2026-05-02T07:14:30.96Z</time></trkpt><trkpt lat="40.67561921329023" lon="14.857572629912658"><ele>170.5</ele><time>2026-05-02T07:14:31.96Z</time></trkpt><trkpt lat="40.67525601432698" lon="14.857617291802361"><ele>176.0</ele><time>2026-05-02T07:14:33.139Z</time></trkpt><trkpt lat="40.67494592434322" lon="14.857655492247995"><ele>70.0</ele><time>2026-05-02T07:14:34.144Z</time></trkpt><trkpt lat="40.66167760141002" lon="14.859608969151882"><ele>70.0</ele><time>2026-05-02T07:15:19.992Z</time></trkpt><trkpt lat="40.66142561848721" lon="14.859762236217994"><ele>70.0</ele><time>2026-05-02T07:15:20.992Z</time></trkpt><trkpt lat="40.661149101216395" lon="14.85991843319626"><ele>70.0</ele><time>2026-05-02T07:15:21.992Z</time></trkpt><trkpt lat="40.66092420476101" lon="14.86010261715855"><ele>70.0</ele><time>2026-05-02T07:15:22.992Z</time></trkpt><trkpt lat="40.66068299674015" lon="14.860286260629598"><ele>70.0</ele><time>2026-05-02T07:15:23.992Z</time></trkpt><trkpt lat="40.66043879710281" lon="14.860473983380189"><ele>70.0</ele><time>2026-05-02T07:15:24.992Z</time></trkpt><trkpt lat="40.66018814151063" lon="14.86066888359069"><ele>69.0</ele><time>2026-05-02T07:15:25.992Z</time></trkpt><trkpt lat="40.65995329545105" lon="14.860854091996437"><ele>68.0</ele><time>2026-05-02T07:15:26.992Z</time></trkpt><trkpt lat="40.65970692468069" lon="14.861048091640896"><ele>68.0</ele><time>2026-05-02T07:15:27.996Z</time></trkpt><trkpt lat="40.659469337354" lon="14.861236323335405"><ele>68.0</ele><time>2026-05-02T07:15:28.996Z</time></trkpt><trkpt lat="40.65923504781508" lon="14.861422482702384"><ele>62.5</ele><time>2026-05-02T07:15:29.996Z</time></trkpt><trkpt lat="40.65900241962588" lon="14.861610975814433"><ele>57.0</ele><time>2026-05-02T07:15:30.995Z</time></trkpt><trkpt lat="40.65876951531094" lon="14.861794551627604"><ele>54.5</ele><time>2026-05-02T07:15:31.996Z</time></trkpt><trkpt lat="40.65853991323264" lon="14.861983576733046"><ele>52.0</ele><time>2026-05-02T07:15:32.996Z</time></trkpt><trkpt lat="40.65831288226715" lon="14.86217256209597"><ele>52.0</ele><time>2026-05-02T07:15:33.996Z</time></trkpt><trkpt lat="40.658089151566415" lon="14.862377031851715"><ele>52.0</ele><time>2026-05-02T07:15:34.996Z</time></trkpt><trkpt lat="40.65786830313092" lon="14.86258773648671"><ele>50.5</ele><time>2026-05-02T07:15:35.996Z</time></trkpt><trkpt lat="40.65765189596032" lon="14.862809684306175"><ele>49.0</ele><time>2026-05-02T07:15:36.996Z</time></trkpt><trkpt lat="40.65744144429793" lon="14.863042933614784"><ele>49.0</ele><time>2026-05-02T07:15:37.996Z</time></trkpt><trkpt lat="40.65723731399736" lon="14.863284312377965"><ele>49.0</ele><time>2026-05-02T07:15:38.996Z</time></trkpt><trkpt lat="40.657040209939474" lon="14.863531729399446"><ele>48.5</ele><time>2026-05-02T07:15:39.996Z</time></trkpt><trkpt lat="40.6568520451578" lon="14.863790053197045"><ele>48.0</ele><time>2026-05-02T07:15:40.996Z</time></trkpt><trkpt lat="40.656668247666815" lon="14.864052234606644"><ele>47.5</ele><time>2026-05-02T07:15:41.996Z</time></trkpt><trkpt lat="40.65649238652152" lon="14.864328768877753"><ele>47.0</ele><time>2026-05-02T07:15:42.996Z</time></trkpt><trkpt lat="40.656311776389195" lon="14.864615195872345"><ele>47.0</ele><time>2026-05-02T07:15:43.996Z</time></trkpt><trkpt lat="40.65614193909102" lon="14.864918369431757"><ele>47.0</ele><time>2026-05-02T07:15:44.996Z</time></trkpt><trkpt lat="40.65596936684818" lon="14.865235042267138"><ele>46.5</ele><time>2026-05-02T07:15:45.996Z</time></trkpt><trkpt lat="40.65580506653536" lon="14.865558167411324"><ele>46.0</ele><time>2026-05-02T07:15:46.996Z</time></trkpt><trkpt lat="40.655649247231295" lon="14.865890994492792"><ele>47.0</ele><time>2026-05-02T07:15:47.996Z</time></trkpt><trkpt lat="40.65550068035415" lon="14.866232894587483"><ele>48.0</ele><time>2026-05-02T07:15:48.996Z</time></trkpt><trkpt lat="40.655360774308306" lon="14.866579399362196"><ele>45.5</ele><time>2026-05-02T07:15:49.996Z</time></trkpt><trkpt lat="40.65521849811306" lon="14.866928078094704"><ele>43.0</ele><time>2026-05-02T07:15:50.996Z</time></trkpt><trkpt lat="40.6550812296136" lon="14.86728309970465"><ele>43.0</ele><time>2026-05-02T07:15:51.996Z</time></trkpt><trkpt lat="40.65494294147384" lon="14.867648750662271"><ele>43.0</ele><time>2026-05-02T07:15:52.996Z</time></trkpt><trkpt lat="40.65479579703094" lon="14.868025544857149"><ele>43.0</ele><time>2026-05-02T07:15:53.995Z</time></trkpt><trkpt lat="40.654651581782986" lon="14.868401997930413"><ele>43.0</ele><time>2026-05-02T07:15:54.995Z</time></trkpt><trkpt lat="40.65449859375437" lon="14.868773261657545"><ele>41.5</ele><time>2026-05-02T07:15:55.995Z</time></trkpt><trkpt lat="40.6543399291301" lon="14.869153468566711"><ele>40.0</ele><time>2026-05-02T07:15:56.995Z</time></trkpt><trkpt lat="40.654194077784354" lon="14.869538217947268"><ele>40.0</ele><time>2026-05-02T07:15:57.995Z</time></trkpt><trkpt lat="40.65404238617064" lon="14.869930223880075"><ele>40.0</ele><time>2026-05-02T07:15:58.995Z</time></trkpt><trkpt lat="40.65388135414447" lon="14.870319795388385"><ele>38.5</ele><time>2026-05-02T07:15:59.995Z</time></trkpt><trkpt lat="40.653724685607486" lon="14.870699396892325"><ele>37.0</ele><time>2026-05-02T07:16:00.995Z</time></trkpt><trkpt lat="40.653574848192704" lon="14.871075781371431"><ele>34.5</ele><time>2026-05-02T07:16:01.995Z</time></trkpt><trkpt lat="40.653417007426555" lon="14.871441968035288"><ele>32.0</ele><time>2026-05-02T07:16:02.995Z</time></trkpt><trkpt lat="40.653272521521316" lon="14.871796442291279"><ele>31.5</ele><time>2026-05-02T07:16:03.995Z</time></trkpt><trkpt lat="40.65314545216822" lon="14.87213502797076"><ele>31.0</ele><time>2026-05-02T07:16:04.995Z</time></trkpt><trkpt lat="40.65302919429753" lon="14.872449424082177"><ele>31.0</ele><time>2026-05-02T07:16:05.995Z</time></trkpt><trkpt lat="40.65290167689069" lon="14.872754572937604"><ele>31.0</ele><time>2026-05-02T07:16:06.995Z</time></trkpt><trkpt lat="40.65278859683373" lon="14.873022127589273"><ele>31.0</ele><time>2026-05-02T07:16:07.995Z</time></trkpt><trkpt lat="40.652678615643" lon="14.873281624412543"><ele>31.0</ele><time>2026-05-02T07:16:08.995Z</time></trkpt><trkpt lat="40.65256996837198" lon="14.873535453208774"><ele>31.0</ele><time>2026-05-02T07:16:09.995Z</time></trkpt><trkpt lat="40.65247084201228" lon="14.873785485346898"><ele>34.0</ele><time>2026-05-02T07:16:10.995Z</time></trkpt><trkpt lat="40.6520818920529" lon="14.874503625699194"><ele>33.0</ele><time>2026-05-02T07:16:11.995Z</time></trkpt><trkpt lat="40.65193549209117" lon="14.874819097218898"><ele>32.0</ele><time>2026-05-02T07:16:12.995Z</time></trkpt><trkpt lat="40.651792051724954" lon="14.875138051328904"><ele>34.0</ele><time>2026-05-02T07:16:13.995Z</time></trkpt><trkpt lat="40.65165001745294" lon="14.875459735837708"><ele>36.0</ele><time>2026-05-02T07:16:14.995Z</time></trkpt><trkpt lat="40.65150580399899" lon="14.875788555499598"><ele>36.0</ele><time>2026-05-02T07:16:15.995Z</time></trkpt><trkpt lat="40.65135983866057" lon="14.876115713938907"><ele>36.0</ele><time>2026-05-02T07:16:16.995Z</time></trkpt><trkpt lat="40.65121788230435" lon="14.876441732399991"><ele>35.5</ele><time>2026-05-02T07:16:17.995Z</time></trkpt><trkpt lat="40.651068382659886" lon="14.876789697680964"><ele>35.0</ele><time>2026-05-02T07:16:18.995Z</time></trkpt><trkpt lat="40.6509209024255" lon="14.877123787949238"><ele>35.0</ele><time>2026-05-02T07:16:19.995Z</time></trkpt><trkpt lat="40.650769880841324" lon="14.877460567339076"><ele>35.0</ele><time>2026-05-02T07:16:20.995Z</time></trkpt><trkpt lat="40.65062322244349" lon="14.877789006228202"><ele>35.5</ele><time>2026-05-02T07:16:21.995Z</time></trkpt><trkpt lat="40.65047530340042" lon="14.878132278390648"><ele>36.0</ele><time>2026-05-02T07:16:22.995Z</time></trkpt><trkpt lat="40.65032547072196" lon="14.878468568668787"><ele>37.0</ele><time>2026-05-02T07:16:23.994Z</time></trkpt><trkpt lat="40.65018151860471" lon="14.878813818272729"><ele>38.0</ele><time>2026-05-02T07:16:24.994Z</time></trkpt><trkpt lat="40.65003462500981" lon="14.879134183927738"><ele>38.0</ele><time>2026-05-02T07:16:25.994Z</time></trkpt><trkpt lat="40.64974991695117" lon="14.87977351274954"><ele>38.0</ele><time>2026-05-02T07:16:27.994Z</time></trkpt><trkpt lat="40.64961062421348" lon="14.88009520222376"><ele>38.0</ele><time>2026-05-02T07:16:28.994Z</time></trkpt><trkpt lat="40.64947049571176" lon="14.880402704502183"><ele>39.0</ele><time>2026-05-02T07:16:29.994Z</time></trkpt><trkpt lat="40.649337148869066" lon="14.880704220853799"><ele>40.0</ele><time>2026-05-02T07:16:30.994Z</time></trkpt><trkpt lat="40.649205893991976" lon="14.8810082406292"><ele>40.0</ele><time>2026-05-02T07:16:31.994Z</time></trkpt><trkpt lat="40.64907379986213" lon="14.881307059465625"><ele>40.0</ele><time>2026-05-02T07:16:32.994Z</time></trkpt><trkpt lat="40.6489499603131" lon="14.881595341655514"><ele>40.5</ele><time>2026-05-02T07:16:33.994Z</time></trkpt><trkpt lat="40.6488215737382" lon="14.881895024153751"><ele>41.0</ele><time>2026-05-02T07:16:34.994Z</time></trkpt><trkpt lat="40.64867793672388" lon="14.882192680684438"><ele>41.0</ele><time>2026-05-02T07:16:35.994Z</time></trkpt><trkpt lat="40.648541151048995" lon="14.882484582907393"><ele>41.0</ele><time>2026-05-02T07:16:36.994Z</time></trkpt><trkpt lat="40.64841671025707" lon="14.88278992809358"><ele>41.0</ele><time>2026-05-02T07:16:37.994Z</time></trkpt><trkpt lat="40.64828597710088" lon="14.883089223805964"><ele>41.0</ele><time>2026-05-02T07:16:38.994Z</time></trkpt><trkpt lat="40.64815301211569" lon="14.883386382134239"><ele>41.5</ele><time>2026-05-02T07:16:39.994Z</time></trkpt><trkpt lat="40.64802604391596" lon="14.883685059650476"><ele>42.0</ele><time>2026-05-02T07:16:40.994Z</time></trkpt><trkpt lat="40.64788456171436" lon="14.883993657125727"><ele>42.0</ele><time>2026-05-02T07:16:41.994Z</time></trkpt><trkpt lat="40.64773687494642" lon="14.884306282924642"><ele>42.0</ele><time>2026-05-02T07:16:42.994Z</time></trkpt><trkpt lat="40.64759023836566" lon="14.884629019158414"><ele>42.0</ele><time>2026-05-02T07:16:43.994Z</time></trkpt><trkpt lat="40.64744217745014" lon="14.884969631266435"><ele>42.0</ele><time>2026-05-02T07:16:44.994Z</time></trkpt><trkpt lat="40.64728343883253" lon="14.885319806589969"><ele>42.5</ele><time>2026-05-02T07:16:45.994Z</time></trkpt><trkpt lat="40.647120415704556" lon="14.885679173653022"><ele>43.0</ele><time>2026-05-02T07:16:46.994Z</time></trkpt><trkpt lat="40.646958966223174" lon="14.886031580641012"><ele>43.0</ele><time>2026-05-02T07:16:47.994Z</time></trkpt><trkpt lat="40.646796776330646" lon="14.886412098434441"><ele>43.0</ele><time>2026-05-02T07:16:48.994Z</time></trkpt><trkpt lat="40.64663376663075" lon="14.886792184371583"><ele>43.0</ele><time>2026-05-02T07:16:49.994Z</time></trkpt><trkpt lat="40.64646608763353" lon="14.887161228720348"><ele>43.0</ele><time>2026-05-02T07:16:50.994Z</time></trkpt><trkpt lat="40.64630840714337" lon="14.887531142343821"><ele>43.5</ele><time>2026-05-02T07:16:51.994Z</time></trkpt><trkpt lat="40.64614546707798" lon="14.88787504045539"><ele>44.0</ele><time>2026-05-02T07:16:52.994Z</time></trkpt><trkpt lat="40.645996956203135" lon="14.888222156033937"><ele>45.0</ele><time>2026-05-02T07:16:53.993Z</time></trkpt><trkpt lat="40.64584674401243" lon="14.888549294209755"><ele>46.0</ele><time>2026-05-02T07:16:54.993Z</time></trkpt><trkpt lat="40.64569667675482" lon="14.888892202712418"><ele>46.0</ele><time>2026-05-02T07:16:55.993Z</time></trkpt><trkpt lat="40.64555374202813" lon="14.889221120141507"><ele>46.0</ele><time>2026-05-02T07:16:56.993Z</time></trkpt><trkpt lat="40.64540368209018" lon="14.889547624900322"><ele>45.0</ele><time>2026-05-02T07:16:57.993Z</time></trkpt><trkpt lat="40.645255837025935" lon="14.889877190244356"><ele>44.0</ele><time>2026-05-02T07:16:58.993Z</time></trkpt><trkpt lat="40.645113572534584" lon="14.890209923034858"><ele>44.0</ele><time>2026-05-02T07:16:59.993Z</time></trkpt><trkpt lat="40.644971485249535" lon="14.890544270521872"><ele>44.0</ele><time>2026-05-02T07:17:00.993Z</time></trkpt><trkpt lat="40.64482928230055" lon="14.89087773822883"><ele>45.0</ele><time>2026-05-02T07:17:01.993Z</time></trkpt><trkpt lat="40.64468481823696" lon="14.891210581608684"><ele>46.0</ele><time>2026-05-02T07:17:02.993Z</time></trkpt><trkpt lat="40.64453633330474" lon="14.89153835937573"><ele>45.0</ele><time>2026-05-02T07:17:03.993Z</time></trkpt><trkpt lat="40.644385476881766" lon="14.89186597046052"><ele>44.0</ele><time>2026-05-02T07:17:04.993Z</time></trkpt><trkpt lat="40.644231630851564" lon="14.892216714919492"><ele>44.0</ele><time>2026-05-02T07:17:05.993Z</time></trkpt><trkpt lat="40.64407387406365" lon="14.892562152095108"><ele>44.0</ele><time>2026-05-02T07:17:06.993Z</time></trkpt><trkpt lat="40.643913630012094" lon="14.892904631412131"><ele>43.5</ele><time>2026-05-02T07:17:07.993Z</time></trkpt><trkpt lat="40.643764568063816" lon="14.893250363366004"><ele>43.0</ele><time>2026-05-02T07:17:08.993Z</time></trkpt><trkpt lat="40.643611403279614" lon="14.893585968265894"><ele>42.0</ele><time>2026-05-02T07:17:09.993Z</time></trkpt><trkpt lat="40.643463242587195" lon="14.89391261204095"><ele>41.0</ele><time>2026-05-02T07:17:10.993Z</time></trkpt><trkpt lat="40.6433156088627" lon="14.89423554892112"><ele>41.0</ele><time>2026-05-02T07:17:11.993Z</time></trkpt><trkpt lat="40.64317166618499" lon="14.894554489436535"><ele>41.0</ele><time>2026-05-02T07:17:12.993Z</time></trkpt><trkpt lat="40.643030693107285" lon="14.894863621048852"><ele>40.5</ele><time>2026-05-02T07:17:13.993Z</time></trkpt><trkpt lat="40.642893299528275" lon="14.895173183260663"><ele>40.0</ele><time>2026-05-02T07:17:14.993Z</time></trkpt><trkpt lat="40.64275367635624" lon="14.895479156520604"><ele>40.0</ele><time>2026-05-02T07:17:15.993Z</time></trkpt><trkpt lat="40.64261860558545" lon="14.895784575267164"><ele>40.0</ele><time>2026-05-02T07:17:16.993Z</time></trkpt><trkpt lat="40.64247973641195" lon="14.896089518605278"><ele>39.5</ele><time>2026-05-02T07:17:17.993Z</time></trkpt><trkpt lat="40.642333732043696" lon="14.896403117776225"><ele>39.0</ele><time>2026-05-02T07:17:18.993Z</time></trkpt><trkpt lat="40.64218461406387" lon="14.896723158063033"><ele>39.0</ele><time>2026-05-02T07:17:19.993Z</time></trkpt><trkpt lat="40.64203614957992" lon="14.897039061514242"><ele>39.0</ele><time>2026-05-02T07:17:20.993Z</time></trkpt><trkpt lat="40.641891020197384" lon="14.897357927439593"><ele>38.0</ele><time>2026-05-02T07:17:21.993Z</time></trkpt><trkpt lat="40.64174665824778" lon="14.89767906152264"><ele>37.0</ele><time>2026-05-02T07:17:22.992Z</time></trkpt><trkpt lat="40.641602787960984" lon="14.898004615470244"><ele>37.0</ele><time>2026-05-02T07:17:23.992Z</time></trkpt><trkpt lat="40.6414589568934" lon="14.89832508314284"><ele>37.0</ele><time>2026-05-02T07:17:24.992Z</time></trkpt><trkpt lat="40.641312095311775" lon="14.898637884856232"><ele>37.5</ele><time>2026-05-02T07:17:25.992Z</time></trkpt><trkpt lat="40.64117417386255" lon="14.898947569012712"><ele>38.0</ele><time>2026-05-02T07:17:26.992Z</time></trkpt><trkpt lat="40.641035358315676" lon="14.899243423081252"><ele>38.5</ele><time>2026-05-02T07:17:27.992Z</time></trkpt><trkpt lat="40.6408994910796" lon="14.89954215866345"><ele>39.0</ele><time>2026-05-02T07:17:28.992Z</time></trkpt><trkpt lat="40.640758078219584" lon="14.89985101628467"><ele>39.5</ele><time>2026-05-02T07:17:29.992Z</time></trkpt><trkpt lat="40.6406151449688" lon="14.900158861160662"><ele>40.0</ele><time>2026-05-02T07:17:30.992Z</time></trkpt><trkpt lat="40.64047251182626" lon="14.900466485932325"><ele>40.0</ele><time>2026-05-02T07:17:31.992Z</time></trkpt><trkpt lat="40.64032995928932" lon="14.900777722476548"><ele>40.0</ele><time>2026-05-02T07:17:32.992Z</time></trkpt><trkpt lat="40.64018415104871" lon="14.901093980242056"><ele>39.5</ele><time>2026-05-02T07:17:33.996Z</time></trkpt><trkpt lat="40.640044799139595" lon="14.901410254197943"><ele>39.0</ele><time>2026-05-02T07:17:34.995Z</time></trkpt><trkpt lat="40.63990323704415" lon="14.901719750715092"><ele>39.5</ele><time>2026-05-02T07:17:35.995Z</time></trkpt><trkpt lat="40.639764029536344" lon="14.90203174805562"><ele>40.0</ele><time>2026-05-02T07:17:36.995Z</time></trkpt><trkpt lat="40.639619948803656" lon="14.902339165201886"><ele>40.0</ele><time>2026-05-02T07:17:37.995Z</time></trkpt><trkpt lat="40.63947345519399" lon="14.90264955139496"><ele>40.0</ele><time>2026-05-02T07:17:38.995Z</time></trkpt><trkpt lat="40.63932973351073" lon="14.902960907963074"><ele>40.0</ele><time>2026-05-02T07:17:39.996Z</time></trkpt><trkpt lat="40.639191584412494" lon="14.903279662897354"><ele>40.0</ele><time>2026-05-02T07:17:40.996Z</time></trkpt><trkpt lat="40.63904864743705" lon="14.903589672532146"><ele>39.5</ele><time>2026-05-02T07:17:41.996Z</time></trkpt><trkpt lat="40.63890820740417" lon="14.903902159243819"><ele>39.0</ele><time>2026-05-02T07:17:42.995Z</time></trkpt><trkpt lat="40.63876515384499" lon="14.904201180724375"><ele>38.0</ele><time>2026-05-02T07:17:43.995Z</time></trkpt><trkpt lat="40.63862721794658" lon="14.904506404788217"><ele>37.0</ele><time>2026-05-02T07:17:44.995Z</time></trkpt><trkpt lat="40.638485927500795" lon="14.904809764300008"><ele>38.0</ele><time>2026-05-02T07:17:45.995Z</time></trkpt><trkpt lat="40.63834895311006" lon="14.905108131174917"><ele>39.0</ele><time>2026-05-02T07:17:46.995Z</time></trkpt><trkpt lat="40.638205762219094" lon="14.905417705272598"><ele>39.0</ele><time>2026-05-02T07:17:47.995Z</time></trkpt><trkpt lat="40.63806760962138" lon="14.905729223828981"><ele>39.0</ele><time>2026-05-02T07:17:48.995Z</time></trkpt><trkpt lat="40.63793096047265" lon="14.906038379073834"><ele>38.5</ele><time>2026-05-02T07:17:49.995Z</time></trkpt><trkpt lat="40.63779169819008" lon="14.906351096837632"><ele>38.0</ele><time>2026-05-02T07:17:50.995Z</time></trkpt><trkpt lat="40.63765290405383" lon="14.906662804121384"><ele>39.0</ele><time>2026-05-02T07:17:51.995Z</time></trkpt><trkpt lat="40.63751855223467" lon="14.906985066528334"><ele>40.0</ele><time>2026-05-02T07:17:52.995Z</time></trkpt><trkpt lat="40.63738163633879" lon="14.907306707387486"><ele>40.0</ele><time>2026-05-02T07:17:53.995Z</time></trkpt><trkpt lat="40.63724907225698" lon="14.907621597832796"><ele>40.0</ele><time>2026-05-02T07:17:54.995Z</time></trkpt><trkpt lat="40.63712258897983" lon="14.907938344308333"><ele>40.0</ele><time>2026-05-02T07:17:55.995Z</time></trkpt><trkpt lat="40.6369933250213" lon="14.908270509195681"><ele>40.0</ele><time>2026-05-02T07:17:56.995Z</time></trkpt><trkpt lat="40.63687492292796" lon="14.908610347681392"><ele>39.0</ele><time>2026-05-02T07:17:57.995Z</time></trkpt><trkpt lat="40.6367637784355" lon="14.908946902830658"><ele>38.0</ele><time>2026-05-02T07:17:58.995Z</time></trkpt><trkpt lat="40.63664639388974" lon="14.909277756947027"><ele>37.0</ele><time>2026-05-02T07:17:59.995Z</time></trkpt><trkpt lat="40.63653793477362" lon="14.909603600081486"><ele>36.0</ele><time>2026-05-02T07:18:00.995Z</time></trkpt><trkpt lat="40.63643340377697" lon="14.909936374429304"><ele>36.5</ele><time>2026-05-02T07:18:01.995Z</time></trkpt><trkpt lat="40.63631622961314" lon="14.910274183178974"><ele>37.0</ele><time>2026-05-02T07:18:02.995Z</time></trkpt><trkpt lat="40.63620506916268" lon="14.910608326896428"><ele>38.0</ele><time>2026-05-02T07:18:03.995Z</time></trkpt><trkpt lat="40.63609355215676" lon="14.91093755996891"><ele>39.0</ele><time>2026-05-02T07:18:04.995Z</time></trkpt><trkpt lat="40.63598419919687" lon="14.911269212235924"><ele>39.0</ele><time>2026-05-02T07:18:05.995Z</time></trkpt><trkpt lat="40.63587279348309" lon="14.9115971002124"><ele>39.0</ele><time>2026-05-02T07:18:06.995Z</time></trkpt><trkpt lat="40.6357631894145" lon="14.911932465902972"><ele>39.0</ele><time>2026-05-02T07:18:07.995Z</time></trkpt><trkpt lat="40.635658830659025" lon="14.912262407782988"><ele>39.0</ele><time>2026-05-02T07:18:08.995Z</time></trkpt><trkpt lat="40.63554785829792" lon="14.912583728893463"><ele>38.5</ele><time>2026-05-02T07:18:09.995Z</time></trkpt><trkpt lat="40.63544129280236" lon="14.912916963730321"><ele>38.0</ele><time>2026-05-02T07:18:10.995Z</time></trkpt><trkpt lat="40.635331749388826" lon="14.913241969824394"><ele>39.0</ele><time>2026-05-02T07:18:11.995Z</time></trkpt><trkpt lat="40.635225450684985" lon="14.913575807626675"><ele>40.0</ele><time>2026-05-02T07:18:12.995Z</time></trkpt><trkpt lat="40.63511572018269" lon="14.913899401434385"><ele>40.0</ele><time>2026-05-02T07:18:13.995Z</time></trkpt><trkpt lat="40.63500547632744" lon="14.914226443178629"><ele>40.0</ele><time>2026-05-02T07:18:14.994Z</time></trkpt><trkpt lat="40.634896926164174" lon="14.914558142665191"><ele>41.0</ele><time>2026-05-02T07:18:15.994Z</time></trkpt><trkpt lat="40.63478901024563" lon="14.914880919549887"><ele>42.0</ele><time>2026-05-02T07:18:16.994Z</time></trkpt><trkpt lat="40.63468164694044" lon="14.915203958647547"><ele>42.0</ele><time>2026-05-02T07:18:17.994Z</time></trkpt><trkpt lat="40.63456983651562" lon="14.915518076961098"><ele>42.0</ele><time>2026-05-02T07:18:18.994Z</time></trkpt><trkpt lat="40.63446750234489" lon="14.915851942653243"><ele>42.0</ele><time>2026-05-02T07:18:19.994Z</time></trkpt><trkpt lat="40.63435905799515" lon="14.916188820165114"><ele>42.0</ele><time>2026-05-02T07:18:20.994Z</time></trkpt><trkpt lat="40.634251838735366" lon="14.916518099899207"><ele>43.0</ele><time>2026-05-02T07:18:21.994Z</time></trkpt><trkpt lat="40.634139354434666" lon="14.916839443493478"><ele>44.0</ele><time>2026-05-02T07:18:22.994Z</time></trkpt><trkpt lat="40.63402775543128" lon="14.917164377041665"><ele>44.0</ele><time>2026-05-02T07:18:23.994Z</time></trkpt><trkpt lat="40.63392265397378" lon="14.91750597369806"><ele>44.0</ele><time>2026-05-02T07:18:24.994Z</time></trkpt><trkpt lat="40.63381340145333" lon="14.917833409829392"><ele>44.5</ele><time>2026-05-02T07:18:25.994Z</time></trkpt><trkpt lat="40.633700918617805" lon="14.91815996638313"><ele>45.0</ele><time>2026-05-02T07:18:26.994Z</time></trkpt><trkpt lat="40.63359234586669" lon="14.918491603848135"><ele>46.5</ele><time>2026-05-02T07:18:27.994Z</time></trkpt><trkpt lat="40.63348034732109" lon="14.918815945412762"><ele>48.0</ele><time>2026-05-02T07:18:28.994Z</time></trkpt><trkpt lat="40.63337152061653" lon="14.91913861696617"><ele>47.5</ele><time>2026-05-02T07:18:29.994Z</time></trkpt><trkpt lat="40.63326370361986" lon="14.91946901073999"><ele>47.0</ele><time>2026-05-02T07:18:30.994Z</time></trkpt><trkpt lat="40.63314861921836" lon="14.919806242714165"><ele>48.0</ele><time>2026-05-02T07:18:31.994Z</time></trkpt><trkpt lat="40.63303421347583" lon="14.920138084348077"><ele>49.0</ele><time>2026-05-02T07:18:32.994Z</time></trkpt><trkpt lat="40.632923471887906" lon="14.920473571426536"><ele>49.0</ele><time>2026-05-02T07:18:33.994Z</time></trkpt><trkpt lat="40.63281376696666" lon="14.92081306392323"><ele>49.0</ele><time>2026-05-02T07:18:34.994Z</time></trkpt><trkpt lat="40.632703102578056" lon="14.921149300044116"><ele>48.5</ele><time>2026-05-02T07:18:35.994Z</time></trkpt><trkpt lat="40.632591192156745" lon="14.921490959277774"><ele>48.0</ele><time>2026-05-02T07:18:36.994Z</time></trkpt><trkpt lat="40.632488780153295" lon="14.921821502093735"><ele>49.0</ele><time>2026-05-02T07:18:37.994Z</time></trkpt><trkpt lat="40.632383587809855" lon="14.922150981199001"><ele>50.0</ele><time>2026-05-02T07:18:38.994Z</time></trkpt><trkpt lat="40.63227205537871" lon="14.922482703594962"><ele>51.0</ele><time>2026-05-02T07:18:39.994Z</time></trkpt><trkpt lat="40.63215685916378" lon="14.922824999069716"><ele>52.0</ele><time>2026-05-02T07:18:40.994Z</time></trkpt><trkpt lat="40.63204486603849" lon="14.923158672259788"><ele>51.0</ele><time>2026-05-02T07:18:41.994Z</time></trkpt><trkpt lat="40.631934885774236" lon="14.923496527596766"><ele>50.0</ele><time>2026-05-02T07:18:42.994Z</time></trkpt><trkpt lat="40.63182225019751" lon="14.923831087024606"><ele>50.0</ele><time>2026-05-02T07:18:43.994Z</time></trkpt><trkpt lat="40.63171339497763" lon="14.924163098146618"><ele>50.0</ele><time>2026-05-02T07:18:44.993Z</time></trkpt><trkpt lat="40.631600365857516" lon="14.924494464286232"><ele>50.5</ele><time>2026-05-02T07:18:45.993Z</time></trkpt><trkpt lat="40.63148954476397" lon="14.92482027550993"><ele>51.0</ele><time>2026-05-02T07:18:46.993Z</time></trkpt><trkpt lat="40.63137681686399" lon="14.925156737479451"><ele>52.0</ele><time>2026-05-02T07:18:47.993Z</time></trkpt><trkpt lat="40.63127220376037" lon="14.92549015094115"><ele>53.0</ele><time>2026-05-02T07:18:48.993Z</time></trkpt><trkpt lat="40.63116402790983" lon="14.925818445525456"><ele>53.0</ele><time>2026-05-02T07:18:49.993Z</time></trkpt><trkpt lat="40.63105031882181" lon="14.926147922798982"><ele>53.0</ele><time>2026-05-02T07:18:50.993Z</time></trkpt><trkpt lat="40.630943095669274" lon="14.926477873449796"><ele>54.0</ele><time>2026-05-02T07:18:51.993Z</time></trkpt><trkpt lat="40.630830958372364" lon="14.926807258468171"><ele>55.0</ele><time>2026-05-02T07:18:52.993Z</time></trkpt><trkpt lat="40.6307144698365" lon="14.927134666622214"><ele>55.0</ele><time>2026-05-02T07:18:53.993Z</time></trkpt><trkpt lat="40.6306068054418" lon="14.927462601215048"><ele>55.0</ele><time>2026-05-02T07:18:54.993Z</time></trkpt><trkpt lat="40.63049090738345" lon="14.927794744685626"><ele>55.5</ele><time>2026-05-02T07:18:55.993Z</time></trkpt><trkpt lat="40.63039290271441" lon="14.928122974821726"><ele>56.0</ele><time>2026-05-02T07:18:56.993Z</time></trkpt><trkpt lat="40.63028707963348" lon="14.928444845277983"><ele>56.5</ele><time>2026-05-02T07:18:57.993Z</time></trkpt><trkpt lat="40.63018493878336" lon="14.928769117834728"><ele>57.0</ele><time>2026-05-02T07:18:58.993Z</time></trkpt><trkpt lat="40.630077121075864" lon="14.929086767646734"><ele>58.0</ele><time>2026-05-02T07:18:59.993Z</time></trkpt><trkpt lat="40.62997141487979" lon="14.929405431156"><ele>59.0</ele><time>2026-05-02T07:19:00.993Z</time></trkpt><trkpt lat="40.629864786139414" lon="14.929722669128418"><ele>59.0</ele><time>2026-05-02T07:19:01.993Z</time></trkpt><trkpt lat="40.62975742148966" lon="14.930044573050653"><ele>59.0</ele><time>2026-05-02T07:19:02.993Z</time></trkpt><trkpt lat="40.62964924131253" lon="14.93036475210388"><ele>59.0</ele><time>2026-05-02T07:19:03.993Z</time></trkpt><trkpt lat="40.62954252959253" lon="14.930686084945503"><ele>59.0</ele><time>2026-05-02T07:19:04.993Z</time></trkpt><trkpt lat="40.629440206119206" lon="14.931011107800648"><ele>59.0</ele><time>2026-05-02T07:19:05.993Z</time></trkpt><trkpt lat="40.62933759717566" lon="14.93134039529134"><ele>59.0</ele><time>2026-05-02T07:19:06.993Z</time></trkpt><trkpt lat="40.629235111213404" lon="14.931668247667709"><ele>59.0</ele><time>2026-05-02T07:19:07.993Z</time></trkpt><trkpt lat="40.62913116322528" lon="14.932001524111786"><ele>59.0</ele><time>2026-05-02T07:19:08.993Z</time></trkpt><trkpt lat="40.62903913076456" lon="14.932345630718164"><ele>58.5</ele><time>2026-05-02T07:19:09.993Z</time></trkpt><trkpt lat="40.62894799185364" lon="14.932702428517793"><ele>58.0</ele><time>2026-05-02T07:19:10.993Z</time></trkpt><trkpt lat="40.62886339836642" lon="14.93306244060583"><ele>58.0</ele><time>2026-05-02T07:19:11.993Z</time></trkpt><trkpt lat="40.62878466475138" lon="14.933421391364126"><ele>58.0</ele><time>2026-05-02T07:19:12.993Z</time></trkpt><trkpt lat="40.628714748144134" lon="14.933784365399498"><ele>58.0</ele><time>2026-05-02T07:19:13.993Z</time></trkpt><trkpt lat="40.62864548252237" lon="14.934147409896998"><ele>58.0</ele><time>2026-05-02T07:19:14.992Z</time></trkpt><trkpt lat="40.628581643395044" lon="14.93451165547254"><ele>58.0</ele><time>2026-05-02T07:19:15.992Z</time></trkpt><trkpt lat="40.62852402699088" lon="14.934879849368341"><ele>58.0</ele><time>2026-05-02T07:19:16.992Z</time></trkpt><trkpt lat="40.62847410642694" lon="14.935249054961542"><ele>58.0</ele><time>2026-05-02T07:19:17.992Z</time></trkpt><trkpt lat="40.62843447689914" lon="14.935616276392395"><ele>58.0</ele><time>2026-05-02T07:19:18.992Z</time></trkpt><trkpt lat="40.62840629942174" lon="14.935979858466956"><ele>59.0</ele><time>2026-05-02T07:19:19.992Z</time></trkpt><trkpt lat="40.6283756360921" lon="14.936335630252255"><ele>60.0</ele><time>2026-05-02T07:19:20.992Z</time></trkpt><trkpt lat="40.62834434040515" lon="14.936688574699668"><ele>60.0</ele><time>2026-05-02T07:19:21.992Z</time></trkpt><trkpt lat="40.62831685382826" lon="14.937042604286237"><ele>60.0</ele><time>2026-05-02T07:19:22.992Z</time></trkpt><trkpt lat="40.62829400654354" lon="14.937398357158333"><ele>61.5</ele><time>2026-05-02T07:19:23.992Z</time></trkpt><trkpt lat="40.62825259865239" lon="14.937770770633573"><ele>63.0</ele><time>2026-05-02T07:19:24.992Z</time></trkpt><trkpt lat="40.62823619336378" lon="14.938126272512445"><ele>63.5</ele><time>2026-05-02T07:19:25.992Z</time></trkpt><trkpt lat="40.62822082956804" lon="14.938481498128494"><ele>64.0</ele><time>2026-05-02T07:19:26.992Z</time></trkpt><trkpt lat="40.6282115625138" lon="14.938838008459644"><ele>64.0</ele><time>2026-05-02T07:19:27.992Z</time></trkpt><trkpt lat="40.62820006284918" lon="14.939195013784241"><ele>64.0</ele><time>2026-05-02T07:19:28.992Z</time></trkpt><trkpt lat="40.62818541996214" lon="14.93955348376274"><ele>64.0</ele><time>2026-05-02T07:19:29.992Z</time></trkpt><trkpt lat="40.628162710659645" lon="14.939903631837229"><ele>64.0</ele><time>2026-05-02T07:19:30.992Z</time></trkpt><trkpt lat="40.62814621216642" lon="14.9402593877742"><ele>64.0</ele><time>2026-05-02T07:19:31.992Z</time></trkpt><trkpt lat="40.62812600827555" lon="14.940616741101458"><ele>64.0</ele><time>2026-05-02T07:19:32.992Z</time></trkpt><trkpt lat="40.62809052351411" lon="14.940963351891776"><ele>64.5</ele><time>2026-05-02T07:19:33.992Z</time></trkpt><trkpt lat="40.62805868218763" lon="14.941309344605031"><ele>65.0</ele><time>2026-05-02T07:19:34.992Z</time></trkpt><trkpt lat="40.62802488100313" lon="14.941659378853839"><ele>65.0</ele><time>2026-05-02T07:19:35.992Z</time></trkpt><trkpt lat="40.62798691991606" lon="14.942010136320052"><ele>65.0</ele><time>2026-05-02T07:19:36.992Z</time></trkpt><trkpt lat="40.627949129125554" lon="14.94235770022423"><ele>65.0</ele><time>2026-05-02T07:19:37.992Z</time></trkpt><trkpt lat="40.62790179178069" lon="14.942700971336112"><ele>65.0</ele><time>2026-05-02T07:19:38.992Z</time></trkpt><trkpt lat="40.62784579254199" lon="14.9430410416366"><ele>64.5</ele><time>2026-05-02T07:19:39.995Z</time></trkpt><trkpt lat="40.62778341434735" lon="14.94337602210097"><ele>64.0</ele><time>2026-05-02T07:19:40.995Z</time></trkpt><trkpt lat="40.62771668641192" lon="14.943714048177888"><ele>63.5</ele><time>2026-05-02T07:19:41.995Z</time></trkpt><trkpt lat="40.627639783789725" lon="14.944049724412745"><ele>63.0</ele><time>2026-05-02T07:19:42.995Z</time></trkpt><trkpt lat="40.6275608325836" lon="14.944388896075068"><ele>63.0</ele><time>2026-05-02T07:19:43.995Z</time></trkpt><trkpt lat="40.627476513254784" lon="14.944729276082928"><ele>63.0</ele><time>2026-05-02T07:19:44.995Z</time></trkpt><trkpt lat="40.62738652509247" lon="14.945070500956051"><ele>62.5</ele><time>2026-05-02T07:19:45.995Z</time></trkpt><trkpt lat="40.62729126042792" lon="14.945413246747538"><ele>62.0</ele><time>2026-05-02T07:19:46.995Z</time></trkpt><trkpt lat="40.62717636582912" lon="14.945753532703018"><ele>62.0</ele><time>2026-05-02T07:19:47.995Z</time></trkpt><trkpt lat="40.62705482815987" lon="14.9460979476167"><ele>62.0</ele><time>2026-05-02T07:19:48.995Z</time></trkpt><trkpt lat="40.62692497667276" lon="14.94644359780246"><ele>61.5</ele><time>2026-05-02T07:19:49.995Z</time></trkpt><trkpt lat="40.626798743339286" lon="14.946779670070661"><ele>61.0</ele><time>2026-05-02T07:19:50.995Z</time></trkpt><trkpt lat="40.626669516418424" lon="14.947112920161546"><ele>61.0</ele><time>2026-05-02T07:19:51.995Z</time></trkpt><trkpt lat="40.626534160568866" lon="14.94744291560281"><ele>61.0</ele><time>2026-05-02T07:19:52.995Z</time></trkpt><trkpt lat="40.626401372918444" lon="14.94777911327662"><ele>61.0</ele><time>2026-05-02T07:19:53.995Z</time></trkpt><trkpt lat="40.62626789671803" lon="14.948116209786978"><ele>61.0</ele><time>2026-05-02T07:19:54.995Z</time></trkpt><trkpt lat="40.62613645528807" lon="14.948462196448421"><ele>60.5</ele><time>2026-05-02T07:19:55.995Z</time></trkpt><trkpt lat="40.62600344734685" lon="14.948795085553428"><ele>60.0</ele><time>2026-05-02T07:19:56.995Z</time></trkpt><trkpt lat="40.62587083304806" lon="14.949126845217314"><ele>60.0</ele><time>2026-05-02T07:19:57.995Z</time></trkpt><trkpt lat="40.625742077253136" lon="14.94944975639638"><ele>60.0</ele><time>2026-05-02T07:19:58.995Z</time></trkpt><trkpt lat="40.62561942656281" lon="14.949761870199215"><ele>60.0</ele><time>2026-05-02T07:19:59.995Z</time></trkpt><trkpt lat="40.62550580036474" lon="14.950045171990618"><ele>60.0</ele><time>2026-05-02T07:20:00.995Z</time></trkpt><trkpt lat="40.62539338179866" lon="14.950318030484354"><ele>60.5</ele><time>2026-05-02T07:20:01.995Z</time></trkpt><trkpt lat="40.6252766857331" lon="14.950613330123545"><ele>61.0</ele><time>2026-05-02T07:20:02.995Z</time></trkpt><trkpt lat="40.62515758248846" lon="14.950920593866044"><ele>61.5</ele><time>2026-05-02T07:20:03.995Z</time></trkpt><trkpt lat="40.62504280530298" lon="14.951241522353563"><ele>62.0</ele><time>2026-05-02T07:20:04.995Z</time></trkpt><trkpt lat="40.62492173346707" lon="14.951553021025987"><ele>64.0</ele><time>2026-05-02T07:20:05.995Z</time></trkpt><trkpt lat="40.62480026056239" lon="14.951865277340483"><ele>66.0</ele><time>2026-05-02T07:20:06.995Z</time></trkpt><trkpt lat="40.62467454240626" lon="14.952197373438342"><ele>66.0</ele><time>2026-05-02T07:20:07.995Z</time></trkpt><trkpt lat="40.62455347148316" lon="14.952543277016275"><ele>66.0</ele><time>2026-05-02T07:20:08.995Z</time></trkpt><trkpt lat="40.62442823684567" lon="14.952888099310323"><ele>66.0</ele><time>2026-05-02T07:20:09.994Z</time></trkpt><trkpt lat="40.62430284854616" lon="14.953245120145697"><ele>66.0</ele><time>2026-05-02T07:20:10.994Z</time></trkpt><trkpt lat="40.62417018080194" lon="14.953571144876566"><ele>66.0</ele><time>2026-05-02T07:20:11.994Z</time></trkpt><trkpt lat="40.62404241427832" lon="14.953883628347482"><ele>66.0</ele><time>2026-05-02T07:20:12.994Z</time></trkpt><trkpt lat="40.62391276302093" lon="14.954193572060179"><ele>67.5</ele><time>2026-05-02T07:20:13.994Z</time></trkpt><trkpt lat="40.623787765363716" lon="14.954505001887018"><ele>69.0</ele><time>2026-05-02T07:20:14.994Z</time></trkpt><trkpt lat="40.623663315090724" lon="14.954817925420933"><ele>67.0</ele><time>2026-05-02T07:20:15.994Z</time></trkpt><trkpt lat="40.62353674220576" lon="14.955125496887435"><ele>65.0</ele><time>2026-05-02T07:20:16.994Z</time></trkpt><trkpt lat="40.6234103368583" lon="14.955436312566583"><ele>65.0</ele><time>2026-05-02T07:20:17.994Z</time></trkpt><trkpt lat="40.623302264869" lon="14.955759809237396"><ele>65.0</ele><time>2026-05-02T07:20:18.994Z</time></trkpt><trkpt lat="40.623202202171214" lon="14.95607712909186"><ele>65.0</ele><time>2026-05-02T07:20:19.994Z</time></trkpt><trkpt lat="40.623106278990576" lon="14.956400633406524"><ele>65.0</ele><time>2026-05-02T07:20:20.994Z</time></trkpt><trkpt lat="40.623010062509245" lon="14.956715717448619"><ele>65.0</ele><time>2026-05-02T07:20:21.994Z</time></trkpt><trkpt lat="40.6229117172314" lon="14.95703437342861"><ele>65.0</ele><time>2026-05-02T07:20:22.994Z</time></trkpt><trkpt lat="40.6228135173756" lon="14.95735343263975"><ele>63.5</ele><time>2026-05-02T07:20:23.994Z</time></trkpt><trkpt lat="40.62271779198367" lon="14.957675102763789"><ele>62.0</ele><time>2026-05-02T07:20:24.994Z</time></trkpt><trkpt lat="40.62261634668541" lon="14.95799920763447"><ele>62.0</ele><time>2026-05-02T07:20:25.994Z</time></trkpt><trkpt lat="40.622517492441276" lon="14.95833437292588"><ele>62.0</ele><time>2026-05-02T07:20:26.994Z</time></trkpt><trkpt lat="40.62242564267829" lon="14.958675005164404"><ele>61.5</ele><time>2026-05-02T07:20:27.994Z</time></trkpt><trkpt lat="40.62233308692142" lon="14.959018653871818"><ele>61.0</ele><time>2026-05-02T07:20:28.994Z</time></trkpt><trkpt lat="40.62224548518682" lon="14.959365183038784"><ele>61.0</ele><time>2026-05-02T07:20:29.994Z</time></trkpt><trkpt lat="40.622154579531866" lon="14.959716800590645"><ele>61.0</ele><time>2026-05-02T07:20:30.994Z</time></trkpt><trkpt lat="40.622061515816625" lon="14.960063225132197"><ele>59.5</ele><time>2026-05-02T07:20:31.994Z</time></trkpt><trkpt lat="40.62196985409998" lon="14.960405856461326"><ele>58.0</ele><time>2026-05-02T07:20:32.994Z</time></trkpt><trkpt lat="40.62187329053981" lon="14.960741590821623"><ele>58.0</ele><time>2026-05-02T07:20:33.994Z</time></trkpt><trkpt lat="40.62178539106486" lon="14.961070484010271"><ele>58.0</ele><time>2026-05-02T07:20:34.994Z</time></trkpt><trkpt lat="40.621688811466775" lon="14.961405270655872"><ele>57.5</ele><time>2026-05-02T07:20:35.994Z</time></trkpt><trkpt lat="40.62160293385053" lon="14.96173528285858"><ele>57.0</ele><time>2026-05-02T07:20:36.994Z</time></trkpt><trkpt lat="40.621517702368145" lon="14.9620597505145"><ele>57.0</ele><time>2026-05-02T07:20:37.994Z</time></trkpt><trkpt lat="40.62143426400672" lon="14.962400250420536"><ele>57.0</ele><time>2026-05-02T07:20:38.993Z</time></trkpt><trkpt lat="40.6213531166209" lon="14.962727966750169"><ele>58.0</ele><time>2026-05-02T07:20:39.993Z</time></trkpt><trkpt lat="40.62127491194182" lon="14.963055816398056"><ele>59.0</ele><time>2026-05-02T07:20:40.993Z</time></trkpt><trkpt lat="40.621203346537236" lon="14.963383479834452"><ele>58.5</ele><time>2026-05-02T07:20:41.993Z</time></trkpt><trkpt lat="40.621130128191936" lon="14.96369724792006"><ele>58.0</ele><time>2026-05-02T07:20:42.993Z</time></trkpt><trkpt lat="40.62106400582058" lon="14.964016960159022"><ele>58.5</ele><time>2026-05-02T07:20:43.993Z</time></trkpt><trkpt lat="40.62099842875009" lon="14.964350457496797"><ele>59.0</ele><time>2026-05-02T07:20:44.993Z</time></trkpt><trkpt lat="40.6209450722163" lon="14.964700569353626"><ele>60.0</ele><time>2026-05-02T07:20:45.993Z</time></trkpt><trkpt lat="40.62089051481015" lon="14.965052188276251"><ele>61.0</ele><time>2026-05-02T07:20:46.993Z</time></trkpt><trkpt lat="40.620833041555564" lon="14.96539838710092"><ele>61.0</ele><time>2026-05-02T07:20:47.993Z</time></trkpt><trkpt lat="40.6207753097023" lon="14.96574413226359"><ele>61.0</ele><time>2026-05-02T07:20:48.993Z</time></trkpt><trkpt lat="40.62072555213877" lon="14.966087359228585"><ele>62.0</ele><time>2026-05-02T07:20:49.993Z</time></trkpt><trkpt lat="40.62068018270458" lon="14.966426751111133"><ele>63.0</ele><time>2026-05-02T07:20:50.993Z</time></trkpt><trkpt lat="40.62064421887528" lon="14.966765430102381"><ele>63.5</ele><time>2026-05-02T07:20:51.993Z</time></trkpt><trkpt lat="40.62061725779902" lon="14.96710478424578"><ele>64.0</ele><time>2026-05-02T07:20:52.993Z</time></trkpt><trkpt lat="40.62059921562123" lon="14.96744355151873"><ele>65.0</ele><time>2026-05-02T07:20:53.993Z</time></trkpt><trkpt lat="40.62058170461017" lon="14.967780620988227"><ele>66.0</ele><time>2026-05-02T07:20:54.993Z</time></trkpt><trkpt lat="40.62056804638907" lon="14.968112559354756"><ele>65.0</ele><time>2026-05-02T07:20:55.993Z</time></trkpt><trkpt lat="40.6205546312337" lon="14.96844150549786"><ele>64.0</ele><time>2026-05-02T07:20:56.993Z</time></trkpt><trkpt lat="40.62054268793983" lon="14.968764750720045"><ele>64.0</ele><time>2026-05-02T07:20:57.993Z</time></trkpt><trkpt lat="40.620533132538185" lon="14.96908194429512"><ele>64.0</ele><time>2026-05-02T07:20:58.993Z</time></trkpt><trkpt lat="40.6205210148242" lon="14.96939167160024"><ele>65.0</ele><time>2026-05-02T07:20:59.993Z</time></trkpt><trkpt lat="40.62050864678188" lon="14.969685625823434"><ele>66.0</ele><time>2026-05-02T07:21:00.993Z</time></trkpt><trkpt lat="40.62049109558194" lon="14.969965525440804"><ele>67.0</ele><time>2026-05-02T07:21:01.993Z</time></trkpt><trkpt lat="40.62048343859992" lon="14.970237282164893"><ele>67.33333333333333</ele><time>2026-05-02T07:21:02.993Z</time></trkpt><trkpt lat="40.62046561265762" lon="14.970490161540367"><ele>67.66666666666667</ele><time>2026-05-02T07:21:03.993Z</time></trkpt><trkpt lat="40.620451892956694" lon="14.970730562528209"><ele>68.0</ele><time>2026-05-02T07:21:04.993Z</time></trkpt><trkpt lat="40.62044817416897" lon="14.97095576356409"><ele>67.25</ele><time>2026-05-02T07:21:05.993Z</time></trkpt><trkpt lat="40.62043652913729" lon="14.971166361139538"><ele>66.5</ele><time>2026-05-02T07:21:06.993Z</time></trkpt><trkpt lat="40.62042251815218" lon="14.97134886613817"><ele>65.75</ele><time>2026-05-02T07:21:07.993Z</time></trkpt><trkpt lat="40.62041940716212" lon="14.971532770642447"><ele>65.0</ele><time>2026-05-02T07:21:08.992Z</time></trkpt><trkpt lat="40.62040717119113" lon="14.971699176036603"><ele>65.0</ele><time>2026-05-02T07:21:09.992Z</time></trkpt><trkpt lat="40.6203791433141" lon="14.971862240467154"><ele>65.0</ele><time>2026-05-02T07:21:10.992Z</time></trkpt><trkpt lat="40.62034206132141" lon="14.97201254057146"><ele>65.0</ele><time>2026-05-02T07:21:11.992Z</time></trkpt><trkpt lat="40.62029955478414" lon="14.972151180932167"><ele>65.0</ele><time>2026-05-02T07:21:12.992Z</time></trkpt><trkpt lat="40.62024264947995" lon="14.972283122150635"><ele>65.25</ele><time>2026-05-02T07:21:13.992Z</time></trkpt><trkpt lat="40.620173359939756" lon="14.972402567281613"><ele>65.5</ele><time>2026-05-02T07:21:14.992Z</time></trkpt><trkpt lat="40.620090259001365" lon="14.972502142109184"><ele>65.75</ele><time>2026-05-02T07:21:15.992Z</time></trkpt><trkpt lat="40.61999180330745" lon="14.97258756629284"><ele>66.0</ele><time>2026-05-02T07:21:16.992Z</time></trkpt><trkpt lat="40.619874637576956" lon="14.97265934774191"><ele>66.5</ele><time>2026-05-02T07:21:17.992Z</time></trkpt><trkpt lat="40.619753179573664" lon="14.972732070591736"><ele>67.0</ele><time>2026-05-02T07:21:18.992Z</time></trkpt><trkpt lat="40.61961358180214" lon="14.972769338930824"><ele>67.5</ele><time>2026-05-02T07:21:19.992Z</time></trkpt><trkpt lat="40.61948554343927" lon="14.972780274199517"><ele>68.0</ele><time>2026-05-02T07:21:20.992Z</time></trkpt><trkpt lat="40.61935085795139" lon="14.972750855800502"><ele>68.0</ele><time>2026-05-02T07:21:21.992Z</time></trkpt><trkpt lat="40.619212465402406" lon="14.972714724191281"><ele>68.0</ele><time>2026-05-02T07:21:22.992Z</time></trkpt><trkpt lat="40.619075266799115" lon="14.97266017719382"><ele>68.0</ele><time>2026-05-02T07:21:23.992Z</time></trkpt><trkpt lat="40.61893917506192" lon="14.97259658491256"><ele>68.0</ele><time>2026-05-02T07:21:24.992Z</time></trkpt><trkpt lat="40.618797727885365" lon="14.972526994251242"><ele>67.66666666666667</ele><time>2026-05-02T07:21:25.992Z</time></trkpt><trkpt lat="40.61865120225993" lon="14.972446897603824"><ele>67.33333333333333</ele><time>2026-05-02T07:21:26.992Z</time></trkpt><trkpt lat="40.61850390231057" lon="14.97237044934495"><ele>67.0</ele><time>2026-05-02T07:21:27.992Z</time></trkpt><trkpt lat="40.61835950826703" lon="14.972291002398242"><ele>66.33333333333333</ele><time>2026-05-02T07:21:28.992Z</time></trkpt><trkpt lat="40.61821323024357" lon="14.972208722921337"><ele>65.66666666666667</ele><time>2026-05-02T07:21:29.992Z</time></trkpt><trkpt lat="40.6180671153556" lon="14.972128405743153"><ele>65.0</ele><time>2026-05-02T07:21:30.992Z</time></trkpt><trkpt lat="40.61792515357397" lon="14.972053378226695"><ele>64.33333333333334</ele><time>2026-05-02T07:21:31.992Z</time></trkpt><trkpt lat="40.61778287660107" lon="14.97196988574033"><ele>63.66666666666667</ele><time>2026-05-02T07:21:32.992Z</time></trkpt><trkpt lat="40.61764619171235" lon="14.971890704018065"><ele>63.0</ele><time>2026-05-02T07:21:33.992Z</time></trkpt><trkpt lat="40.61750569500161" lon="14.971805554231882"><ele>63.0</ele><time>2026-05-02T07:21:34.992Z</time></trkpt><trkpt lat="40.61736243713351" lon="14.971729988637913"><ele>63.0</ele><time>2026-05-02T07:21:35.992Z</time></trkpt><trkpt lat="40.61721713026419" lon="14.971644193130027"><ele>63.0</ele><time>2026-05-02T07:21:36.992Z</time></trkpt><trkpt lat="40.61706856136734" lon="14.971562837152277"><ele>62.66666666666667</ele><time>2026-05-02T07:21:37.992Z</time></trkpt><trkpt lat="40.61692019006041" lon="14.97147808848338"><ele>62.333333333333336</ele><time>2026-05-02T07:21:38.991Z</time></trkpt><trkpt lat="40.61677307921643" lon="14.971398747508102"><ele>62.0</ele><time>2026-05-02T07:21:39.991Z</time></trkpt><trkpt lat="40.616624523706534" lon="14.97130770737219"><ele>62.0</ele><time>2026-05-02T07:21:40.991Z</time></trkpt><trkpt lat="40.61647489458356" lon="14.971218504462454"><ele>62.0</ele><time>2026-05-02T07:21:41.991Z</time></trkpt><trkpt lat="40.616327174628175" lon="14.97113916820355"><ele>62.0</ele><time>2026-05-02T07:21:42.991Z</time></trkpt><trkpt lat="40.616197887031" lon="14.971075794367687"><ele>62.5</ele><time>2026-05-02T07:21:43.991Z</time></trkpt><trkpt lat="40.616064735105184" lon="14.971022462309772"><ele>63.0</ele><time>2026-05-02T07:21:44.991Z</time></trkpt><trkpt lat="40.6159309384868" lon="14.970977544296511"><ele>63.5</ele><time>2026-05-02T07:21:45.995Z</time></trkpt><trkpt lat="40.6157765290705" lon="14.970940841897159"><ele>64.0</ele><time>2026-05-02T07:21:46.995Z</time></trkpt><trkpt lat="40.61561051867875" lon="14.970903654336274"><ele>64.0</ele><time>2026-05-02T07:21:47.995Z</time></trkpt><trkpt lat="40.615433266295774" lon="14.970878026307963"><ele>64.0</ele><time>2026-05-02T07:21:48.994Z</time></trkpt><trkpt lat="40.61524759024654" lon="14.970868066049492"><ele>64.0</ele><time>2026-05-02T07:21:49.994Z</time></trkpt><trkpt lat="40.61505816159531" lon="14.970880152700797"><ele>64.0</ele><time>2026-05-02T07:21:50.994Z</time></trkpt><trkpt lat="40.614878365049435" lon="14.97090982929329"><ele>64.0</ele><time>2026-05-02T07:21:51.995Z</time></trkpt><trkpt lat="40.61470045604225" lon="14.970965747179754"><ele>64.0</ele><time>2026-05-02T07:21:52.994Z</time></trkpt><trkpt lat="40.61452543296922" lon="14.971039859310565"><ele>63.666666666666664</ele><time>2026-05-02T07:21:53.994Z</time></trkpt><trkpt lat="40.61436401493127" lon="14.971120381104512"><ele>63.33333333333333</ele><time>2026-05-02T07:21:54.994Z</time></trkpt><trkpt lat="40.614218701601644" lon="14.971217063322062"><ele>63.0</ele><time>2026-05-02T07:21:55.995Z</time></trkpt><trkpt lat="40.61408234653775" lon="14.971322213725427"><ele>63.0</ele><time>2026-05-02T07:21:56.995Z</time></trkpt><trkpt lat="40.61395348247426" lon="14.971441497370144"><ele>63.0</ele><time>2026-05-02T07:21:57.994Z</time></trkpt><trkpt lat="40.61382785885582" lon="14.971569856520938"><ele>63.0</ele><time>2026-05-02T07:21:58.994Z</time></trkpt><trkpt lat="40.61369613044577" lon="14.971690203430095"><ele>63.0</ele><time>2026-05-02T07:21:59.994Z</time></trkpt><trkpt lat="40.61357638578032" lon="14.971808965825051"><ele>63.0</ele><time>2026-05-02T07:22:00.994Z</time></trkpt><trkpt lat="40.613456262320135" lon="14.9719207627152"><ele>63.0</ele><time>2026-05-02T07:22:01.994Z</time></trkpt><trkpt lat="40.61334305064876" lon="14.972042333428313"><ele>63.0</ele><time>2026-05-02T07:22:02.994Z</time></trkpt><trkpt lat="40.61322613905754" lon="14.972147673580983"><ele>63.0</ele><time>2026-05-02T07:22:03.994Z</time></trkpt><trkpt lat="40.61311097410993" lon="14.972242116365104"><ele>63.0</ele><time>2026-05-02T07:22:04.994Z</time></trkpt><trkpt lat="40.61299899021966" lon="14.972328284832559"><ele>63.0</ele><time>2026-05-02T07:22:05.994Z</time></trkpt><trkpt lat="40.61287897409886" lon="14.972409917139466"><ele>63.0</ele><time>2026-05-02T07:22:06.994Z</time></trkpt><trkpt lat="40.612751500981496" lon="14.972481879208834"><ele>63.0</ele><time>2026-05-02T07:22:07.994Z</time></trkpt><trkpt lat="40.61261870934414" lon="14.97254611791635"><ele>63.0</ele><time>2026-05-02T07:22:08.994Z</time></trkpt><trkpt lat="40.61247666463436" lon="14.972600997596585"><ele>63.0</ele><time>2026-05-02T07:22:09.994Z</time></trkpt><trkpt lat="40.612331707090796" lon="14.972620903279621"><ele>63.0</ele><time>2026-05-02T07:22:10.994Z</time></trkpt><trkpt lat="40.61218968451506" lon="14.972644331962622"><ele>63.0</ele><time>2026-05-02T07:22:11.994Z</time></trkpt><trkpt lat="40.61204777613569" lon="14.97266124183871"><ele>63.0</ele><time>2026-05-02T07:22:12.994Z</time></trkpt><trkpt lat="40.61191453199466" lon="14.972686172692082"><ele>63.0</ele><time>2026-05-02T07:22:13.994Z</time></trkpt><trkpt lat="40.61178195449115" lon="14.97269974720631"><ele>63.0</ele><time>2026-05-02T07:22:14.994Z</time></trkpt><trkpt lat="40.61165217855841" lon="14.972710685300855"><ele>63.0</ele><time>2026-05-02T07:22:15.993Z</time></trkpt><trkpt lat="40.61116764807198" lon="14.97274603771085"><ele>62.5</ele><time>2026-05-02T07:22:19.993Z</time></trkpt><trkpt lat="40.611058381691095" lon="14.97276221048956"><ele>62.0</ele><time>2026-05-02T07:22:20.993Z</time></trkpt><trkpt lat="40.61093875507795" lon="14.97278500281408"><ele>61.5</ele><time>2026-05-02T07:22:21.993Z</time></trkpt><trkpt lat="40.61081384411008" lon="14.972798627781073"><ele>61.0</ele><time>2026-05-02T07:22:22.993Z</time></trkpt><trkpt lat="40.61067828265005" lon="14.972806993448808"><ele>61.0</ele><time>2026-05-02T07:22:23.993Z</time></trkpt><trkpt lat="40.61053968953095" lon="14.972820019680325"><ele>61.0</ele><time>2026-05-02T07:22:24.993Z</time></trkpt><trkpt lat="40.61040962463209" lon="14.972826496231107"><ele>61.0</ele><time>2026-05-02T07:22:25.993Z</time></trkpt><trkpt lat="40.61029672698361" lon="14.972827462002265"><ele>61.0</ele><time>2026-05-02T07:22:26.993Z</time></trkpt><trkpt lat="40.610192588754394" lon="14.972826636484593"><ele>61.599999999999994</ele><time>2026-05-02T07:22:27.993Z</time></trkpt><trkpt lat="40.610098254299665" lon="14.972829152634413"><ele>62.199999999999996</ele><time>2026-05-02T07:22:28.993Z</time></trkpt><trkpt lat="40.6100079216474" lon="14.97284003727451"><ele>62.800000000000004</ele><time>2026-05-02T07:22:29.993Z</time></trkpt><trkpt lat="40.609917907137074" lon="14.972852283236517"><ele>63.400000000000006</ele><time>2026-05-02T07:22:30.993Z</time></trkpt><trkpt lat="40.60982862158178" lon="14.972870085280471"><ele>64.0</ele><time>2026-05-02T07:22:31.993Z</time></trkpt><trkpt lat="40.60972682358837" lon="14.972884718497362"><ele>64.0</ele><time>2026-05-02T07:22:32.993Z</time></trkpt><trkpt lat="40.60962820311287" lon="14.972897168443005"><ele>64.0</ele><time>2026-05-02T07:22:33.993Z</time></trkpt><trkpt lat="40.609539902480854" lon="14.972915384480904"><ele>64.0</ele><time>2026-05-02T07:22:34.993Z</time></trkpt><trkpt lat="40.60944941573589" lon="14.972937533939708"><ele>64.0</ele><time>2026-05-02T07:22:35.993Z</time></trkpt><trkpt lat="40.60934596562525" lon="14.972929072616619"><ele>64.0</ele><time>2026-05-02T07:22:36.993Z</time></trkpt><trkpt lat="40.60924747396763" lon="14.972948181450038"><ele>64.2</ele><time>2026-05-02T07:22:37.993Z</time></trkpt><trkpt lat="40.60915679758012" lon="14.972958005738356"><ele>64.4</ele><time>2026-05-02T07:22:38.993Z</time></trkpt><trkpt lat="40.609064013729444" lon="14.972968897500284"><ele>64.6</ele><time>2026-05-02T07:22:39.993Z</time></trkpt><trkpt lat="40.60897220526589" lon="14.972978837277214"><ele>64.8</ele><time>2026-05-02T07:22:40.993Z</time></trkpt><trkpt lat="40.60888625346797" lon="14.972989427660522"><ele>65.0</ele><time>2026-05-02T07:22:41.993Z</time></trkpt><trkpt lat="40.60879229675571" lon="14.972992186378303"><ele>65.0</ele><time>2026-05-02T07:22:42.993Z</time></trkpt><trkpt lat="40.608708825389385" lon="14.97300424946838"><ele>65.0</ele><time>2026-05-02T07:22:43.993Z</time></trkpt><trkpt lat="40.60862749882811" lon="14.973008072165504"><ele>65.0</ele><time>2026-05-02T07:22:44.993Z</time></trkpt><trkpt lat="40.608535433090466" lon="14.973018116075085"><ele>65.0</ele><time>2026-05-02T07:22:45.993Z</time></trkpt><trkpt lat="40.608434250302615" lon="14.97302760046273"><ele>65.0</ele><time>2026-05-02T07:22:46.993Z</time></trkpt><trkpt lat="40.60832941256635" lon="14.97303694248689"><ele>65.0</ele><time>2026-05-02T07:22:47.992Z</time></trkpt><trkpt lat="40.6082207897647" lon="14.973046022269472"><ele>65.0</ele><time>2026-05-02T07:22:48.992Z</time></trkpt><trkpt lat="40.60810397418924" lon="14.973056746700992"><ele>65.0</ele><time>2026-05-02T07:22:49.992Z</time></trkpt><trkpt lat="40.607988369411906" lon="14.973069280640722"><ele>65.0</ele><time>2026-05-02T07:22:50.992Z</time></trkpt><trkpt lat="40.607879191437355" lon="14.973081415424923"><ele>66.0</ele><time>2026-05-02T07:22:51.992Z</time></trkpt><trkpt lat="40.60776673925316" lon="14.97309238407511"><ele>67.0</ele><time>2026-05-02T07:22:52.992Z</time></trkpt><trkpt lat="40.60765157026096" lon="14.973102372650713"><ele>68.0</ele><time>2026-05-02T07:22:53.992Z</time></trkpt><trkpt lat="40.60752952843084" lon="14.973091108024091"><ele>69.0</ele><time>2026-05-02T07:22:54.992Z</time></trkpt><trkpt lat="40.60741802463101" lon="14.973105507567398"><ele>69.0</ele><time>2026-05-02T07:22:55.992Z</time></trkpt><trkpt lat="40.607305280753444" lon="14.97311554007214"><ele>69.0</ele><time>2026-05-02T07:22:56.992Z</time></trkpt><trkpt lat="40.607197025843625" lon="14.973129512875829"><ele>69.0</ele><time>2026-05-02T07:22:57.992Z</time></trkpt><trkpt lat="40.607080591537915" lon="14.973142901640056"><ele>69.0</ele><time>2026-05-02T07:22:58.992Z</time></trkpt><trkpt lat="40.60696747297447" lon="14.973158151978655"><ele>68.5</ele><time>2026-05-02T07:22:59.992Z</time></trkpt><trkpt lat="40.60684740514564" lon="14.973170363527615"><ele>68.0</ele><time>2026-05-02T07:23:00.992Z</time></trkpt><trkpt lat="40.60673196955553" lon="14.973181004211185"><ele>67.5</ele><time>2026-05-02T07:23:01.992Z</time></trkpt><trkpt lat="40.606619797557705" lon="14.973196938655798"><ele>67.0</ele><time>2026-05-02T07:23:02.992Z</time></trkpt><trkpt lat="40.60651089425591" lon="14.973205633344877"><ele>67.0</ele><time>2026-05-02T07:23:03.992Z</time></trkpt><trkpt lat="40.606406916639315" lon="14.97322419631883"><ele>67.0</ele><time>2026-05-02T07:23:04.992Z</time></trkpt><trkpt lat="40.60630750546559" lon="14.973239929914719"><ele>67.0</ele><time>2026-05-02T07:23:05.992Z</time></trkpt><trkpt lat="40.60620847359028" lon="14.973240435498669"><ele>67.0</ele><time>2026-05-02T07:23:06.992Z</time></trkpt><trkpt lat="40.60610247455637" lon="14.973254267695582"><ele>67.0</ele><time>2026-05-02T07:23:07.992Z</time></trkpt><trkpt lat="40.60599553143472" lon="14.973262704938872"><ele>67.0</ele><time>2026-05-02T07:23:08.992Z</time></trkpt><trkpt lat="40.60588445874541" lon="14.973273541232828"><ele>67.0</ele><time>2026-05-02T07:23:09.992Z</time></trkpt><trkpt lat="40.60577338733591" lon="14.973287438506654"><ele>67.0</ele><time>2026-05-02T07:23:10.992Z</time></trkpt><trkpt lat="40.60565754185294" lon="14.973307094865477"><ele>67.0</ele><time>2026-05-02T07:23:11.992Z</time></trkpt><trkpt lat="40.60554243407702" lon="14.973323055681192"><ele>67.0</ele><time>2026-05-02T07:23:12.992Z</time></trkpt><trkpt lat="40.60542951012085" lon="14.973337113744313"><ele>67.0</ele><time>2026-05-02T07:23:13.992Z</time></trkpt><trkpt lat="40.605316014973596" lon="14.9733387145558"><ele>67.0</ele><time>2026-05-02T07:23:14.992Z</time></trkpt><trkpt lat="40.60520468777987" lon="14.973348168510926"><ele>67.0</ele><time>2026-05-02T07:23:15.992Z</time></trkpt><trkpt lat="40.6050946831458" lon="14.973356738886068"><ele>67.0</ele><time>2026-05-02T07:23:16.992Z</time></trkpt><trkpt lat="40.60498410512144" lon="14.973361024833588"><ele>67.5</ele><time>2026-05-02T07:23:17.991Z</time></trkpt><trkpt lat="40.6048675177652" lon="14.973364956143003"><ele>68.0</ele><time>2026-05-02T07:23:18.991Z</time></trkpt><trkpt lat="40.604748655529384" lon="14.973372097830202"><ele>68.5</ele><time>2026-05-02T07:23:19.991Z</time></trkpt><trkpt lat="40.60462976738558" lon="14.973380087172043"><ele>69.0</ele><time>2026-05-02T07:23:20.991Z</time></trkpt><trkpt lat="40.60451617875617" lon="14.973393277936458"><ele>67.60000000000001</ele><time>2026-05-02T07:23:21.991Z</time></trkpt><trkpt lat="40.60440402654026" lon="14.973407857015603"><ele>66.2</ele><time>2026-05-02T07:23:22.991Z</time></trkpt><trkpt lat="40.60429523598279" lon="14.973423090024188"><ele>64.80000000000001</ele><time>2026-05-02T07:23:23.991Z</time></trkpt><trkpt lat="40.60418749091658" lon="14.973438654340674"><ele>63.400000000000006</ele><time>2026-05-02T07:23:24.991Z</time></trkpt><trkpt lat="40.60407809082638" lon="14.973464026244836"><ele>62.0</ele><time>2026-05-02T07:23:25.991Z</time></trkpt><trkpt lat="40.60396900615167" lon="14.97349865974084"><ele>62.0</ele><time>2026-05-02T07:23:26.991Z</time></trkpt><trkpt lat="40.60385794730239" lon="14.97354113406099"><ele>62.0</ele><time>2026-05-02T07:23:27.991Z</time></trkpt><trkpt lat="40.603749622763445" lon="14.97358196590076"><ele>62.0</ele><time>2026-05-02T07:23:28.991Z</time></trkpt><trkpt lat="40.60363703545088" lon="14.973605204678085"><ele>62.0</ele><time>2026-05-02T07:23:29.991Z</time></trkpt><trkpt lat="40.603546005007104" lon="14.973653890199685"><ele>62.0</ele><time>2026-05-02T07:23:30.991Z</time></trkpt><trkpt lat="40.6034706391509" lon="14.973700255622163"><ele>62.16666666666667</ele><time>2026-05-02T07:23:31.991Z</time></trkpt><trkpt lat="40.60340012367186" lon="14.973737969716929"><ele>62.333333333333336</ele><time>2026-05-02T07:23:32.991Z</time></trkpt><trkpt lat="40.603336944481136" lon="14.973776487043452"><ele>62.5</ele><time>2026-05-02T07:23:33.991Z</time></trkpt><trkpt lat="40.60323332368602" lon="14.97384796311693"><ele>62.66666666666667</ele><time>2026-05-02T07:23:35.991Z</time></trkpt><trkpt lat="40.603143492767614" lon="14.973894489293222"><ele>62.833333333333336</ele><time>2026-05-02T07:23:37.991Z</time></trkpt><trkpt lat="40.603075955800705" lon="14.973943224677617"><ele>63.0</ele><time>2026-05-02T07:23:39.991Z</time></trkpt><trkpt lat="40.60300191456478" lon="14.974009641000995"><ele>63.0</ele><time>2026-05-02T07:23:41.991Z</time></trkpt><trkpt lat="40.60293075820291" lon="14.974081918756553"><ele>63.0</ele><time>2026-05-02T07:23:43.991Z</time></trkpt><trkpt lat="40.602867105387176" lon="14.974135624143539"><ele>63.0</ele><time>2026-05-02T07:23:45.991Z</time></trkpt><trkpt lat="40.60280382505318" lon="14.974203933734767"><ele>63.0</ele><time>2026-05-02T07:23:47.99Z</time></trkpt><trkpt lat="40.60274445616207" lon="14.974269166803285"><ele>63.0</ele><time>2026-05-02T07:23:49.99Z</time></trkpt><trkpt lat="40.60266883467457" lon="14.974341178080834"><ele>63.0</ele><time>2026-05-02T07:23:54.993Z</time></trkpt><trkpt lat="40.60261626658165" lon="14.974394819773462"><ele>63.333333333333336</ele><time>2026-05-02T07:23:55.994Z</time></trkpt><trkpt lat="40.60255233905886" lon="14.974457046277006"><ele>63.66666666666667</ele><time>2026-05-02T07:23:56.994Z</time></trkpt><trkpt lat="40.60249001351357" lon="14.97451771342642"><ele>64.0</ele><time>2026-05-02T07:23:57.994Z</time></trkpt><trkpt lat="40.60242515581272" lon="14.974580845549934"><ele>64.33333333333334</ele><time>2026-05-02T07:23:58.993Z</time></trkpt><trkpt lat="40.60236158473963" lon="14.97464398123314"><ele>64.66666666666667</ele><time>2026-05-02T07:23:59.993Z</time></trkpt><trkpt lat="40.60230667722917" lon="14.974698222980932"><ele>65.0</ele><time>2026-05-02T07:24:00.993Z</time></trkpt><trkpt lat="40.602222139219634" lon="14.974776668773721"><ele>65.00000000000001</ele><time>2026-05-02T07:24:02.994Z</time></trkpt><trkpt lat="40.60216240329262" lon="14.974827596119434"><ele>65.0</ele><time>2026-05-02T07:24:56.992Z</time></trkpt><trkpt lat="40.6021866513549" lon="14.974748723418106"><ele>65.0</ele><time>2026-05-02T07:25:01.992Z</time></trkpt><trkpt lat="40.60225316606821" lon="14.974751085344788"><ele>65.0</ele><time>2026-05-02T07:25:13.992Z</time></trkpt><trkpt lat="40.60233274621428" lon="14.974672470197957"><ele>65.0</ele><time>2026-05-02T07:25:15.992Z</time></trkpt><trkpt lat="40.602392570569755" lon="14.974613371148939"><ele>65.00000000000001</ele><time>2026-05-02T07:25:16.992Z</time></trkpt><trkpt lat="40.60244548030253" lon="14.974561061754867"><ele>65.0</ele><time>2026-05-02T07:25:17.991Z</time></trkpt><trkpt lat="40.602510621940375" lon="14.974497653148097"><ele>65.0</ele><time>2026-05-02T07:25:18.991Z</time></trkpt><trkpt lat="40.602582540982304" lon="14.974451209503775"><ele>65.0</ele><time>2026-05-02T07:25:19.991Z</time></trkpt><trkpt lat="40.60248959799908" lon="14.974588277865669"><ele>65.0</ele><time>2026-05-02T07:25:20.991Z</time></trkpt><trkpt lat="40.6029240618635" lon="14.974132875721487"><ele>64.5</ele><time>2026-05-02T07:25:22.991Z</time></trkpt><trkpt lat="40.60303252161722" lon="14.97403360702227"><ele>64.0</ele><time>2026-05-02T07:25:23.991Z</time></trkpt><trkpt lat="40.603154922425524" lon="14.973964035559659"><ele>63.5</ele><time>2026-05-02T07:25:24.991Z</time></trkpt><trkpt lat="40.60326439558708" lon="14.973884959098182"><ele>63.0</ele><time>2026-05-02T07:25:25.991Z</time></trkpt><trkpt lat="40.60338473861368" lon="14.973802353114163"><ele>63.0</ele><time>2026-05-02T07:25:26.991Z</time></trkpt><trkpt lat="40.60350897824419" lon="14.973728969771662"><ele>63.0</ele><time>2026-05-02T07:25:27.991Z</time></trkpt><trkpt lat="40.603632581480696" lon="14.973646118129649"><ele>63.0</ele><time>2026-05-02T07:25:28.991Z</time></trkpt><trkpt lat="40.60376263794575" lon="14.973594723203929"><ele>63.0</ele><time>2026-05-02T07:25:29.991Z</time></trkpt><trkpt lat="40.603897789319966" lon="14.973550029508447"><ele>62.75</ele><time>2026-05-02T07:25:30.991Z</time></trkpt><trkpt lat="40.604040362784204" lon="14.973514270905026"><ele>62.5</ele><time>2026-05-02T07:25:31.991Z</time></trkpt><trkpt lat="40.60418572742208" lon="14.973480906136615"><ele>62.25</ele><time>2026-05-02T07:25:32.991Z</time></trkpt><trkpt lat="40.60433121742265" lon="14.973457002055904"><ele>62.0</ele><time>2026-05-02T07:25:33.991Z</time></trkpt><trkpt lat="40.60447454011901" lon="14.973447206930649"><ele>63.75</ele><time>2026-05-02T07:25:34.991Z</time></trkpt><trkpt lat="40.604616463925595" lon="14.973436074784015"><ele>65.5</ele><time>2026-05-02T07:25:35.991Z</time></trkpt><trkpt lat="40.604750410868554" lon="14.973423355069572"><ele>67.25</ele><time>2026-05-02T07:25:36.991Z</time></trkpt><trkpt lat="40.60488306914615" lon="14.97340845882921"><ele>69.0</ele><time>2026-05-02T07:25:37.991Z</time></trkpt><trkpt lat="40.60502119934407" lon="14.973397677375623"><ele>69.0</ele><time>2026-05-02T07:25:38.991Z</time></trkpt><trkpt lat="40.60516282548521" lon="14.97338997003041"><ele>69.0</ele><time>2026-05-02T07:25:39.991Z</time></trkpt><trkpt lat="40.605300668927974" lon="14.973381448903101"><ele>69.0</ele><time>2026-05-02T07:25:40.991Z</time></trkpt><trkpt lat="40.60542558272914" lon="14.973380308680994"><ele>69.0</ele><time>2026-05-02T07:25:41.991Z</time></trkpt><trkpt lat="40.60553684635044" lon="14.973373916155193"><ele>68.8</ele><time>2026-05-02T07:25:42.991Z</time></trkpt><trkpt lat="40.605642197021616" lon="14.973366103656321"><ele>68.60000000000001</ele><time>2026-05-02T07:25:43.991Z</time></trkpt><trkpt lat="40.60573892712966" lon="14.973360113999679"><ele>68.4</ele><time>2026-05-02T07:25:44.991Z</time></trkpt><trkpt lat="40.60582981777806" lon="14.973361427948078"><ele>68.2</ele><time>2026-05-02T07:25:45.991Z</time></trkpt><trkpt lat="40.60591795419918" lon="14.973377044927547"><ele>68.0</ele><time>2026-05-02T07:25:46.991Z</time></trkpt><trkpt lat="40.605990321142336" lon="14.973412756186955"><ele>68.0</ele><time>2026-05-02T07:25:47.99Z</time></trkpt><trkpt lat="40.60606154871668" lon="14.973464186518619"><ele>68.0</ele><time>2026-05-02T07:25:48.99Z</time></trkpt><trkpt lat="40.60612588934018" lon="14.973504425117829"><ele>68.0</ele><time>2026-05-02T07:25:49.99Z</time></trkpt><trkpt lat="40.60624225855438" lon="14.973471256112814"><ele>68.0</ele><time>2026-05-02T07:25:51.99Z</time></trkpt><trkpt lat="40.606300429692126" lon="14.973416565847057"><ele>68.0</ele><time>2026-05-02T07:25:52.99Z</time></trkpt><trkpt lat="40.60637960339587" lon="14.973367694619537"><ele>68.0</ele><time>2026-05-02T07:25:53.99Z</time></trkpt><trkpt lat="40.60647966377862" lon="14.973319831260673"><ele>67.75</ele><time>2026-05-02T07:25:54.99Z</time></trkpt><trkpt lat="40.60659662864672" lon="14.973285934504247"><ele>67.5</ele><time>2026-05-02T07:25:55.99Z</time></trkpt><trkpt lat="40.6067224954031" lon="14.973265272996796"><ele>67.25</ele><time>2026-05-02T07:25:56.99Z</time></trkpt><trkpt lat="40.60685139909128" lon="14.973249419857884"><ele>67.0</ele><time>2026-05-02T07:25:57.993Z</time></trkpt><trkpt lat="40.60698258257937" lon="14.973235999350859"><ele>67.5</ele><time>2026-05-02T07:25:58.993Z</time></trkpt><trkpt lat="40.607112698274975" lon="14.973217963954172"><ele>68.0</ele><time>2026-05-02T07:25:59.993Z</time></trkpt><trkpt lat="40.60724565280885" lon="14.973194289372955"><ele>68.5</ele><time>2026-05-02T07:26:00.993Z</time></trkpt><trkpt lat="40.60737471429602" lon="14.973171599065894"><ele>69.0</ele><time>2026-05-02T07:26:01.993Z</time></trkpt><trkpt lat="40.60750073918452" lon="14.973157374912269"><ele>69.0</ele><time>2026-05-02T07:26:02.993Z</time></trkpt><trkpt lat="40.60762831401597" lon="14.973150675914367"><ele>69.0</ele><time>2026-05-02T07:26:03.992Z</time></trkpt><trkpt lat="40.607749638527835" lon="14.973138401970646"><ele>69.0</ele><time>2026-05-02T07:26:04.993Z</time></trkpt><trkpt lat="40.60786582067677" lon="14.973126659002117"><ele>69.0</ele><time>2026-05-02T07:26:05.993Z</time></trkpt><trkpt lat="40.60797838545016" lon="14.97311519855861"><ele>68.0</ele><time>2026-05-02T07:26:06.993Z</time></trkpt><trkpt lat="40.60809372880955" lon="14.97310452496987"><ele>67.0</ele><time>2026-05-02T07:26:07.993Z</time></trkpt><trkpt lat="40.60821198836731" lon="14.973090741098204"><ele>66.0</ele><time>2026-05-02T07:26:08.993Z</time></trkpt><trkpt lat="40.60833497629053" lon="14.973076191770216"><ele>65.0</ele><time>2026-05-02T07:26:09.993Z</time></trkpt><trkpt lat="40.60845195535979" lon="14.973064373289692"><ele>65.0</ele><time>2026-05-02T07:26:10.993Z</time></trkpt><trkpt lat="40.608569021099576" lon="14.973052186773593"><ele>65.0</ele><time>2026-05-02T07:26:11.993Z</time></trkpt><trkpt lat="40.60868383049693" lon="14.97303813101108"><ele>65.0</ele><time>2026-05-02T07:26:12.993Z</time></trkpt><trkpt lat="40.60878829990986" lon="14.973029940778295"><ele>65.0</ele><time>2026-05-02T07:26:13.993Z</time></trkpt><trkpt lat="40.60887099838959" lon="14.973017370719592"><ele>65.0</ele><time>2026-05-02T07:26:14.993Z</time></trkpt><trkpt lat="40.608951261683686" lon="14.973004354524118"><ele>65.0</ele><time>2026-05-02T07:26:15.993Z</time></trkpt><trkpt lat="40.60903405785728" lon="14.972996944364386"><ele>65.0</ele><time>2026-05-02T07:26:16.993Z</time></trkpt><trkpt lat="40.60911769943787" lon="14.97299307867696"><ele>65.0</ele><time>2026-05-02T07:26:17.993Z</time></trkpt><trkpt lat="40.60920453568793" lon="14.972986964059999"><ele>65.0</ele><time>2026-05-02T07:26:18.993Z</time></trkpt><trkpt lat="40.60930803804398" lon="14.972977001784534"><ele>65.0</ele><time>2026-05-02T07:26:19.993Z</time></trkpt><trkpt lat="40.60941986879611" lon="14.972967723757392"><ele>64.75</ele><time>2026-05-02T07:26:20.993Z</time></trkpt><trkpt lat="40.60953366880386" lon="14.972955500530025"><ele>64.5</ele><time>2026-05-02T07:26:21.993Z</time></trkpt><trkpt lat="40.60965476139043" lon="14.972945049758994"><ele>64.25</ele><time>2026-05-02T07:26:22.993Z</time></trkpt><trkpt lat="40.609777918789895" lon="14.97293459718706"><ele>64.0</ele><time>2026-05-02T07:26:23.992Z</time></trkpt><trkpt lat="40.60990637303645" lon="14.97292651251731"><ele>64.0</ele><time>2026-05-02T07:26:24.992Z</time></trkpt><trkpt lat="40.610039555627715" lon="14.97291561481319"><ele>64.0</ele><time>2026-05-02T07:26:25.992Z</time></trkpt><trkpt lat="40.6101693873756" lon="14.972906212732067"><ele>64.0</ele><time>2026-05-02T07:26:26.992Z</time></trkpt><trkpt lat="40.61030135412459" lon="14.972893908767027"><ele>64.0</ele><time>2026-05-02T07:26:27.992Z</time></trkpt><trkpt lat="40.61043111143386" lon="14.972885025656224"><ele>63.25</ele><time>2026-05-02T07:26:28.992Z</time></trkpt><trkpt lat="40.61056200201332" lon="14.972871852072446"><ele>62.5</ele><time>2026-05-02T07:26:29.992Z</time></trkpt><trkpt lat="40.61069505087403" lon="14.972860793153208"><ele>61.75</ele><time>2026-05-02T07:26:30.992Z</time></trkpt><trkpt lat="40.6108279317334" lon="14.972854229471379"><ele>61.0</ele><time>2026-05-02T07:26:31.992Z</time></trkpt><trkpt lat="40.61096356633494" lon="14.972848478816449"><ele>61.0</ele><time>2026-05-02T07:26:32.992Z</time></trkpt><trkpt lat="40.61110434363618" lon="14.972854118235327"><ele>61.0</ele><time>2026-05-02T07:26:33.992Z</time></trkpt><trkpt lat="40.61124603447937" lon="14.972860604688133"><ele>61.0</ele><time>2026-05-02T07:26:34.992Z</time></trkpt><trkpt lat="40.611391052494724" lon="14.972870224401285"><ele>61.0</ele><time>2026-05-02T07:26:35.992Z</time></trkpt><trkpt lat="40.61154207919372" lon="14.972889232561464"><ele>61.5</ele><time>2026-05-02T07:26:36.992Z</time></trkpt><trkpt lat="40.61169253522786" lon="14.972899533315454"><ele>62.0</ele><time>2026-05-02T07:26:37.992Z</time></trkpt><trkpt lat="40.61184170073359" lon="14.972898530712799"><ele>62.5</ele><time>2026-05-02T07:26:38.992Z</time></trkpt><trkpt lat="40.61197517809182" lon="14.97290238754484"><ele>63.0</ele><time>2026-05-02T07:26:39.992Z</time></trkpt><trkpt lat="40.612106364675114" lon="14.972903864601012"><ele>63.0</ele><time>2026-05-02T07:26:40.992Z</time></trkpt><trkpt lat="40.61222406514636" lon="14.972909188528872"><ele>63.0</ele><time>2026-05-02T07:26:41.992Z</time></trkpt><trkpt lat="40.61232787137999" lon="14.972919683129515"><ele>63.0</ele><time>2026-05-02T07:26:42.992Z</time></trkpt><trkpt lat="40.61242445523257" lon="14.97292207878951"><ele>63.0</ele><time>2026-05-02T07:26:43.992Z</time></trkpt><trkpt lat="40.61251837855619" lon="14.9729242851936"><ele>63.0</ele><time>2026-05-02T07:26:44.992Z</time></trkpt><trkpt lat="40.612604669737195" lon="14.972930137357128"><ele>63.0</ele><time>2026-05-02T07:26:45.992Z</time></trkpt><trkpt lat="40.61268660581764" lon="14.972954960966032"><ele>63.0</ele><time>2026-05-02T07:26:46.992Z</time></trkpt><trkpt lat="40.61277274024487" lon="14.9729886229723"><ele>63.0</ele><time>2026-05-02T07:26:47.992Z</time></trkpt><trkpt lat="40.61284538526656" lon="14.973031890178506"><ele>63.0</ele><time>2026-05-02T07:26:48.992Z</time></trkpt><trkpt lat="40.61295950582909" lon="14.973006538498867"><ele>63.0</ele><time>2026-05-02T07:26:49.992Z</time></trkpt><trkpt lat="40.61302508197161" lon="14.973074652126805"><ele>63.4</ele><time>2026-05-02T07:26:50.992Z</time></trkpt><trkpt lat="40.61302529744622" lon="14.973251794280273"><ele>63.8</ele><time>2026-05-02T07:26:51.992Z</time></trkpt><trkpt lat="40.61306487965387" lon="14.973348436422938"><ele>64.2</ele><time>2026-05-02T07:26:52.992Z</time></trkpt><trkpt lat="40.61309665312933" lon="14.97345657607468"><ele>64.6</ele><time>2026-05-02T07:26:53.991Z</time></trkpt><trkpt lat="40.61311865996677" lon="14.973567789765557"><ele>65.0</ele><time>2026-05-02T07:26:54.991Z</time></trkpt><trkpt lat="40.61312877759239" lon="14.973667366922372"><ele>65.2</ele><time>2026-05-02T07:26:55.991Z</time></trkpt><trkpt lat="40.61312701355344" lon="14.973753878081446"><ele>65.4</ele><time>2026-05-02T07:26:56.991Z</time></trkpt><trkpt lat="40.61312464558193" lon="14.973839550356537"><ele>65.6</ele><time>2026-05-02T07:26:57.991Z</time></trkpt><trkpt lat="40.61310404906583" lon="14.973999654690044"><ele>65.8</ele><time>2026-05-02T07:26:59.991Z</time></trkpt><trkpt lat="40.61308439461208" lon="14.974163142958734"><ele>66.0</ele><time>2026-05-02T07:27:01.991Z</time></trkpt><trkpt lat="40.613033199142244" lon="14.97424195362791"><ele>66.0</ele><time>2026-05-02T07:27:02.991Z</time></trkpt><trkpt lat="40.61300734481716" lon="14.97433833591776"><ele>66.0</ele><time>2026-05-02T07:27:03.991Z</time></trkpt><trkpt lat="40.6129807612463" lon="14.974436570728328"><ele>66.0</ele><time>2026-05-02T07:27:04.991Z</time></trkpt><trkpt lat="40.612947932837315" lon="14.974523724183394"><ele>66.0</ele><time>2026-05-02T07:27:05.991Z</time></trkpt><trkpt lat="40.61291969230326" lon="14.974616639856704"><ele>66.0</ele><time>2026-05-02T07:27:06.991Z</time></trkpt><trkpt lat="40.61289221569043" lon="14.974705718935333"><ele>66.0</ele><time>2026-05-02T07:27:07.991Z</time></trkpt><trkpt lat="40.61286362680311" lon="14.974793225418543"><ele>66.0</ele><time>2026-05-02T07:27:08.991Z</time></trkpt><trkpt lat="40.61283882796879" lon="14.974880424750644"><ele>66.0</ele><time>2026-05-02T07:27:09.991Z</time></trkpt><trkpt lat="40.6128158936489" lon="14.974969195673044"><ele>66.0</ele><time>2026-05-02T07:27:10.991Z</time></trkpt><trkpt lat="40.61279052925444" lon="14.97506290988742"><ele>66.0</ele><time>2026-05-02T07:27:11.991Z</time></trkpt><trkpt lat="40.61276061200317" lon="14.975165659685418"><ele>66.0</ele><time>2026-05-02T07:27:12.991Z</time></trkpt><trkpt lat="40.612734442876594" lon="14.975280477737332"><ele>66.0</ele><time>2026-05-02T07:27:13.991Z</time></trkpt><trkpt lat="40.612709389052675" lon="14.975405237282107"><ele>66.39999999999999</ele><time>2026-05-02T07:27:14.991Z</time></trkpt><trkpt lat="40.61267321525891" lon="14.975530568200805"><ele>66.8</ele><time>2026-05-02T07:27:15.991Z</time></trkpt><trkpt lat="40.61263816606144" lon="14.975653101077793"><ele>67.19999999999999</ele><time>2026-05-02T07:27:16.991Z</time></trkpt><trkpt lat="40.61260275114163" lon="14.975768526068155"><ele>67.6</ele><time>2026-05-02T07:27:17.991Z</time></trkpt><trkpt lat="40.612571687633086" lon="14.9758662813719"><ele>68.0</ele><time>2026-05-02T07:27:18.991Z</time></trkpt><trkpt lat="40.61250031985017" lon="14.97599445614061"><ele>68.16666666666667</ele><time>2026-05-02T07:27:20.991Z</time></trkpt><trkpt lat="40.61245379953054" lon="14.976056990375668"><ele>68.33333333333334</ele><time>2026-05-02T07:27:21.991Z</time></trkpt><trkpt lat="40.612420935257724" lon="14.976127784167767"><ele>68.5</ele><time>2026-05-02T07:27:22.991Z</time></trkpt><trkpt lat="40.612407860721795" lon="14.976222973057036"><ele>68.66666666666667</ele><time>2026-05-02T07:27:23.99Z</time></trkpt><trkpt lat="40.61241149155647" lon="14.976333514643086"><ele>68.83333333333333</ele><time>2026-05-02T07:27:24.99Z</time></trkpt><trkpt lat="40.61240839064036" lon="14.976469251573407"><ele>69.0</ele><time>2026-05-02T07:27:25.99Z</time></trkpt><trkpt lat="40.61238444673234" lon="14.976619619806426"><ele>68.8</ele><time>2026-05-02T07:27:26.99Z</time></trkpt><trkpt lat="40.612348822378046" lon="14.976761169868004"><ele>68.60000000000001</ele><time>2026-05-02T07:27:27.99Z</time></trkpt><trkpt lat="40.61231531331218" lon="14.976902995973415"><ele>68.4</ele><time>2026-05-02T07:27:28.99Z</time></trkpt><trkpt lat="40.6122499206095" lon="14.977022476163866"><ele>68.2</ele><time>2026-05-02T07:27:29.99Z</time></trkpt><trkpt lat="40.612216325859734" lon="14.977149519413398"><ele>68.0</ele><time>2026-05-02T07:27:30.99Z</time></trkpt><trkpt lat="40.612182122043784" lon="14.977270429653283"><ele>68.0</ele><time>2026-05-02T07:27:31.99Z</time></trkpt><trkpt lat="40.6121564586366" lon="14.977380816004864"><ele>68.0</ele><time>2026-05-02T07:27:32.99Z</time></trkpt><trkpt lat="40.612131901396445" lon="14.977486636835463"><ele>68.0</ele><time>2026-05-02T07:27:33.99Z</time></trkpt><trkpt lat="40.61210488851707" lon="14.977584458964836"><ele>68.0</ele><time>2026-05-02T07:27:34.99Z</time></trkpt><trkpt lat="40.61208368798063" lon="14.977671980123827"><ele>68.0</ele><time>2026-05-02T07:27:35.99Z</time></trkpt><trkpt lat="40.61206855882914" lon="14.97775389848677"><ele>68.0</ele><time>2026-05-02T07:27:36.99Z</time></trkpt><trkpt lat="40.61203914021252" lon="14.977886018448276"><ele>68.0</ele><time>2026-05-02T07:27:38.99Z</time></trkpt><trkpt lat="40.612019900912365" lon="14.977971500091355"><ele>68.0</ele><time>2026-05-02T07:27:40.99Z</time></trkpt><trkpt lat="40.61202423100028" lon="14.978093730076234"><ele>68.0</ele><time>2026-05-02T07:27:44.99Z</time></trkpt><trkpt lat="40.612123430131625" lon="14.978160906840122"><ele>68.0</ele><time>2026-05-02T07:27:46.99Z</time></trkpt><trkpt lat="40.61216566146843" lon="14.97822998659442"><ele>68.0</ele><time>2026-05-02T07:27:47.99Z</time></trkpt><trkpt lat="40.61221890655672" lon="14.978283341713068"><ele>68.0</ele><time>2026-05-02T07:27:48.99Z</time></trkpt><trkpt lat="40.61227312150433" lon="14.978331424823509"><ele>68.4</ele><time>2026-05-02T07:27:49.99Z</time></trkpt><trkpt lat="40.61236205862282" lon="14.978412594766466"><ele>68.8</ele><time>2026-05-02T07:27:51.99Z</time></trkpt><trkpt lat="40.61245961981242" lon="14.978493589989343"><ele>69.2</ele><time>2026-05-02T07:27:53.989Z</time></trkpt><trkpt lat="40.61256348702295" lon="14.978592512708559"><ele>69.6</ele><time>2026-05-02T07:27:55.989Z</time></trkpt><trkpt lat="40.61262600682362" lon="14.978635714189487"><ele>70.0</ele><time>2026-05-02T07:27:56.989Z</time></trkpt><trkpt lat="40.61269190067557" lon="14.978658371922283"><ele>70.0</ele><time>2026-05-02T07:27:57.989Z</time></trkpt><trkpt lat="40.612758809834276" lon="14.978672131342927"><ele>70.0</ele><time>2026-05-02T07:27:58.989Z</time></trkpt><trkpt lat="40.61287408560607" lon="14.978666401898604"><ele>70.0</ele><time>2026-05-02T07:28:00.989Z</time></trkpt><trkpt lat="40.61298610104318" lon="14.978658821851985"><ele>70.0</ele><time>2026-05-02T07:28:02.989Z</time></trkpt><trkpt lat="40.61308681717446" lon="14.978647149282402"><ele>70.0</ele><time>2026-05-02T07:28:04.992Z</time></trkpt><trkpt lat="40.6132001375614" lon="14.978646187603845"><ele>70.0</ele><time>2026-05-02T07:28:06.992Z</time></trkpt><trkpt lat="40.613326017411644" lon="14.978652497345816"><ele>70.0</ele><time>2026-05-02T07:28:08.992Z</time></trkpt><trkpt lat="40.61344137240903" lon="14.978692498608764"><ele>70.0</ele><time>2026-05-02T07:28:10.992Z</time></trkpt><trkpt lat="40.61353245813062" lon="14.978709647556556"><ele>70.0</ele><time>2026-05-02T07:28:12.992Z</time></trkpt><trkpt lat="40.613624954713096" lon="14.978735989130243"><ele>70.0</ele><time>2026-05-02T07:28:14.992Z</time></trkpt><trkpt lat="40.61369228943376" lon="14.97875625172118"><ele>70.16666666666666</ele><time>2026-05-02T07:28:15.992Z</time></trkpt><trkpt lat="40.61377199798203" lon="14.978780911069565"><ele>70.33333333333333</ele><time>2026-05-02T07:28:16.992Z</time></trkpt><trkpt lat="40.6138511241896" lon="14.978812704720358"><ele>70.5</ele><time>2026-05-02T07:28:17.992Z</time></trkpt><trkpt lat="40.613943602274894" lon="14.978855286538975"><ele>70.66666666666667</ele><time>2026-05-02T07:28:18.991Z</time></trkpt><trkpt lat="40.61403007223373" lon="14.978893604060614"><ele>70.83333333333334</ele><time>2026-05-02T07:28:19.991Z</time></trkpt><trkpt lat="40.614115366038426" lon="14.9789379506517"><ele>71.0</ele><time>2026-05-02T07:28:20.991Z</time></trkpt><trkpt lat="40.61420598180452" lon="14.97898705383167"><ele>71.0</ele><time>2026-05-02T07:28:21.991Z</time></trkpt><trkpt lat="40.61429029720712" lon="14.979049497460652"><ele>71.0</ele><time>2026-05-02T07:28:22.991Z</time></trkpt><trkpt lat="40.61435873111121" lon="14.979131240391956"><ele>71.0</ele><time>2026-05-02T07:28:23.991Z</time></trkpt><trkpt lat="40.61444066383718" lon="14.979201408330637"><ele>71.0</ele><time>2026-05-02T07:28:24.991Z</time></trkpt><trkpt lat="40.61451652121969" lon="14.979266987011762"><ele>71.0</ele><time>2026-05-02T07:28:25.991Z</time></trkpt><trkpt lat="40.6145844140685" lon="14.97932613240487"><ele>70.83333333333334</ele><time>2026-05-02T07:28:26.991Z</time></trkpt><trkpt lat="40.6146347653853" lon="14.979398623411445"><ele>70.66666666666667</ele><time>2026-05-02T07:28:27.991Z</time></trkpt><trkpt lat="40.61468876521116" lon="14.979458259524401"><ele>70.5</ele><time>2026-05-02T07:28:28.991Z</time></trkpt><trkpt lat="40.61475513095526" lon="14.979518418361122"><ele>70.33333333333333</ele><time>2026-05-02T07:28:29.991Z</time></trkpt><trkpt lat="40.61482333940833" lon="14.979583633262717"><ele>70.16666666666666</ele><time>2026-05-02T07:28:30.991Z</time></trkpt><trkpt lat="40.61488732918426" lon="14.97964383398214"><ele>70.0</ele><time>2026-05-02T07:28:31.991Z</time></trkpt><trkpt lat="40.614944359646834" lon="14.979704655895643"><ele>70.0</ele><time>2026-05-02T07:28:32.991Z</time></trkpt><trkpt lat="40.61499676422481" lon="14.979762060944628"><ele>70.0</ele><time>2026-05-02T07:28:33.991Z</time></trkpt><trkpt lat="40.615048736556545" lon="14.979814546036833"><ele>70.0</ele><time>2026-05-02T07:28:34.991Z</time></trkpt><trkpt lat="40.61513274162985" lon="14.979896948788289"><ele>70.0</ele><time>2026-05-02T07:28:36.991Z</time></trkpt><trkpt lat="40.61518537850579" lon="14.979958996279919"><ele>70.0</ele><time>2026-05-02T07:28:38.991Z</time></trkpt><trkpt lat="40.61520637259887" lon="14.980039299963343"><ele>70.0</ele><time>2026-05-02T07:28:40.991Z</time></trkpt><trkpt lat="40.61519551982962" lon="14.98014291111184"><ele>70.0</ele><time>2026-05-02T07:28:41.991Z</time></trkpt><trkpt lat="40.61516964751147" lon="14.98025702433713"><ele>70.0</ele><time>2026-05-02T07:28:42.991Z</time></trkpt><trkpt lat="40.61514819743877" lon="14.98038462736788"><ele>70.0</ele><time>2026-05-02T07:28:43.991Z</time></trkpt><trkpt lat="40.61513796811448" lon="14.980492678099369"><ele>70.0</ele><time>2026-05-02T07:28:44.991Z</time></trkpt><trkpt lat="40.615119269648844" lon="14.980589354118207"><ele>70.0</ele><time>2026-05-02T07:28:45.991Z</time></trkpt><trkpt lat="40.615105585429674" lon="14.98068052711961"><ele>70.0</ele><time>2026-05-02T07:28:46.991Z</time></trkpt><trkpt lat="40.61508165166327" lon="14.98075868299073"><ele>70.0</ele><time>2026-05-02T07:28:47.991Z</time></trkpt><trkpt lat="40.615050960784664" lon="14.980840205673116"><ele>70.0</ele><time>2026-05-02T07:28:48.99Z</time></trkpt><trkpt lat="40.615014476553455" lon="14.980938506044408"><ele>70.0</ele><time>2026-05-02T07:28:49.99Z</time></trkpt><trkpt lat="40.614974013138536" lon="14.981047623706079"><ele>70.0</ele><time>2026-05-02T07:28:50.99Z</time></trkpt><trkpt lat="40.614927465521696" lon="14.981160988887563"><ele>70.0</ele><time>2026-05-02T07:28:51.99Z</time></trkpt><trkpt lat="40.614869776406" lon="14.98128399470504"><ele>70.0</ele><time>2026-05-02T07:28:52.99Z</time></trkpt><trkpt lat="40.61480107553066" lon="14.981378167159457"><ele>70.0</ele><time>2026-05-02T07:28:53.99Z</time></trkpt><trkpt lat="40.61475139082178" lon="14.981462881238283"><ele>70.0</ele><time>2026-05-02T07:28:54.99Z</time></trkpt><trkpt lat="40.61469392040327" lon="14.981560790199232"><ele>70.0</ele><time>2026-05-02T07:28:55.99Z</time></trkpt><trkpt lat="40.61463048840291" lon="14.981668855611522"><ele>70.0</ele><time>2026-05-02T07:28:56.99Z</time></trkpt><trkpt lat="40.61455338632437" lon="14.981796891463523"><ele>70.0</ele><time>2026-05-02T07:28:57.99Z</time></trkpt><trkpt lat="40.614489407700276" lon="14.981937611257242"><ele>70.0</ele><time>2026-05-02T07:28:58.99Z</time></trkpt><trkpt lat="40.61438492156804" lon="14.982054550589709"><ele>70.0</ele><time>2026-05-02T07:28:59.99Z</time></trkpt><trkpt lat="40.61429592061117" lon="14.982178085372903"><ele>70.0</ele><time>2026-05-02T07:29:00.99Z</time></trkpt><trkpt lat="40.614202969604754" lon="14.982287709842225"><ele>69.75</ele><time>2026-05-02T07:29:01.99Z</time></trkpt><trkpt lat="40.614108971780766" lon="14.982382284392967"><ele>69.5</ele><time>2026-05-02T07:29:02.99Z</time></trkpt><trkpt lat="40.61401294217778" lon="14.982467313836679"><ele>69.25</ele><time>2026-05-02T07:29:03.99Z</time></trkpt><trkpt lat="40.6139169787451" lon="14.982547719302131"><ele>69.0</ele><time>2026-05-02T07:29:04.99Z</time></trkpt><trkpt lat="40.61382364679357" lon="14.982624137171646"><ele>69.0</ele><time>2026-05-02T07:29:05.99Z</time></trkpt><trkpt lat="40.61375223745062" lon="14.982746214370085"><ele>69.0</ele><time>2026-05-02T07:29:06.99Z</time></trkpt><trkpt lat="40.61365540656363" lon="14.98279954420304"><ele>69.0</ele><time>2026-05-02T07:29:07.99Z</time></trkpt><trkpt lat="40.61356895478417" lon="14.982830357552809"><ele>69.0</ele><time>2026-05-02T07:29:08.99Z</time></trkpt><trkpt lat="40.613496549469886" lon="14.982889343741066"><ele>69.0</ele><time>2026-05-02T07:29:09.99Z</time></trkpt><trkpt lat="40.613427706996035" lon="14.982946220403647"><ele>69.57142857142857</ele><time>2026-05-02T07:29:10.99Z</time></trkpt><trkpt lat="40.6133628706082" lon="14.982996830375049"><ele>70.14285714285715</ele><time>2026-05-02T07:29:11.99Z</time></trkpt><trkpt lat="40.61330503514282" lon="14.983040846793077"><ele>70.71428571428572</ele><time>2026-05-02T07:29:12.99Z</time></trkpt><trkpt lat="40.61325019202354" lon="14.983085905964375"><ele>71.28571428571429</ele><time>2026-05-02T07:29:13.99Z</time></trkpt><trkpt lat="40.61319529084605" lon="14.983133103252763"><ele>71.85714285714286</ele><time>2026-05-02T07:29:14.99Z</time></trkpt><trkpt lat="40.61311253957498" lon="14.983195107783521"><ele>72.42857142857143</ele><time>2026-05-02T07:29:16.99Z</time></trkpt><trkpt lat="40.613047829676056" lon="14.983247390887875"><ele>73.0</ele><time>2026-05-02T07:29:18.989Z</time></trkpt><trkpt lat="40.613056131137085" lon="14.983447273464623"><ele>73.16666666666666</ele><time>2026-05-02T07:29:21.989Z</time></trkpt><trkpt lat="40.61309726635697" lon="14.983540846767532"><ele>73.33333333333333</ele><time>2026-05-02T07:29:22.989Z</time></trkpt><trkpt lat="40.6131452530536" lon="14.983643648284465"><ele>73.5</ele><time>2026-05-02T07:29:23.989Z</time></trkpt><trkpt lat="40.61319801521161" lon="14.98374378830186"><ele>73.66666666666667</ele><time>2026-05-02T07:29:24.989Z</time></trkpt><trkpt lat="40.613230044535776" lon="14.983850134738816"><ele>73.83333333333334</ele><time>2026-05-02T07:29:25.989Z</time></trkpt><trkpt lat="40.613277007922626" lon="14.9839519614251"><ele>74.0</ele><time>2026-05-02T07:29:26.989Z</time></trkpt><trkpt lat="40.61331926548785" lon="14.984044023439587"><ele>74.0</ele><time>2026-05-02T07:29:27.989Z</time></trkpt><trkpt lat="40.613372039425926" lon="14.984124729641657"><ele>74.0</ele><time>2026-05-02T07:29:28.989Z</time></trkpt><trkpt lat="40.61341826996858" lon="14.984224945379944"><ele>74.0</ele><time>2026-05-02T07:29:29.989Z</time></trkpt><trkpt lat="40.61346778775217" lon="14.984330230958706"><ele>74.0</ele><time>2026-05-02T07:29:30.989Z</time></trkpt><trkpt lat="40.61352388014309" lon="14.984456907651026"><ele>74.0</ele><time>2026-05-02T07:29:31.989Z</time></trkpt><trkpt lat="40.613573923300905" lon="14.984583312506508"><ele>74.4</ele><time>2026-05-02T07:29:32.989Z</time></trkpt><trkpt lat="40.61362429829896" lon="14.984706444438674"><ele>74.80000000000001</ele><time>2026-05-02T07:29:33.989Z</time></trkpt><trkpt lat="40.613677190844164" lon="14.984827655697593"><ele>75.19999999999999</ele><time>2026-05-02T07:29:34.989Z</time></trkpt><trkpt lat="40.613730342517144" lon="14.984945695827244"><ele>75.6</ele><time>2026-05-02T07:29:35.989Z</time></trkpt><trkpt lat="40.61378870853448" lon="14.985079635639995"><ele>76.0</ele><time>2026-05-02T07:29:36.989Z</time></trkpt><trkpt lat="40.61384465344072" lon="14.98520548030378"><ele>76.5</ele><time>2026-05-02T07:29:37.989Z</time></trkpt><trkpt lat="40.61390872989675" lon="14.985345092586398"><ele>77.0</ele><time>2026-05-02T07:29:38.989Z</time></trkpt><trkpt lat="40.61397142425321" lon="14.985489475962636"><ele>77.5</ele><time>2026-05-02T07:29:39.989Z</time></trkpt><trkpt lat="40.61402565877771" lon="14.985638321314907"><ele>78.0</ele><time>2026-05-02T07:29:40.989Z</time></trkpt><trkpt lat="40.61408181371249" lon="14.98577129344156"><ele>77.75</ele><time>2026-05-02T07:29:41.989Z</time></trkpt><trkpt lat="40.61413710207414" lon="14.985902383876736"><ele>77.5</ele><time>2026-05-02T07:29:42.989Z</time></trkpt><trkpt lat="40.61419002302331" lon="14.986029615188594"><ele>77.25</ele><time>2026-05-02T07:29:43.989Z</time></trkpt><trkpt lat="40.614251717075774" lon="14.986160370413359"><ele>77.0</ele><time>2026-05-02T07:29:44.989Z</time></trkpt><trkpt lat="40.61431330417155" lon="14.986288244737347"><ele>77.0</ele><time>2026-05-02T07:29:45.989Z</time></trkpt><trkpt lat="40.61437218863341" lon="14.986410425437292"><ele>77.0</ele><time>2026-05-02T07:29:46.989Z</time></trkpt><trkpt lat="40.614433199194366" lon="14.986535646630665"><ele>77.0</ele><time>2026-05-02T07:29:47.989Z</time></trkpt><trkpt lat="40.61449066021159" lon="14.98665793752579"><ele>77.0</ele><time>2026-05-02T07:29:48.988Z</time></trkpt><trkpt lat="40.614546484035245" lon="14.986783296766538"><ele>77.0</ele><time>2026-05-02T07:29:49.988Z</time></trkpt><trkpt lat="40.61460578843528" lon="14.986901797561302"><ele>77.0</ele><time>2026-05-02T07:29:50.988Z</time></trkpt><trkpt lat="40.61466626425252" lon="14.98703752669234"><ele>77.0</ele><time>2026-05-02T07:29:51.988Z</time></trkpt><trkpt lat="40.614730867902196" lon="14.987175411242825"><ele>77.0</ele><time>2026-05-02T07:29:52.988Z</time></trkpt><trkpt lat="40.61477282412669" lon="14.987322420609607"><ele>77.0</ele><time>2026-05-02T07:29:53.988Z</time></trkpt><trkpt lat="40.61483044132639" lon="14.987452608463883"><ele>77.0</ele><time>2026-05-02T07:29:54.988Z</time></trkpt><trkpt lat="40.614881715243186" lon="14.987568604967057"><ele>77.0</ele><time>2026-05-02T07:29:55.988Z</time></trkpt><trkpt lat="40.61492404115778" lon="14.987667638917065"><ele>77.0</ele><time>2026-05-02T07:29:56.988Z</time></trkpt><trkpt lat="40.61495608966336" lon="14.98775103654903"><ele>77.0</ele><time>2026-05-02T07:29:57.988Z</time></trkpt><trkpt lat="40.61499944671049" lon="14.987865879042133"><ele>77.0</ele><time>2026-05-02T07:29:59.988Z</time></trkpt><trkpt lat="40.6149527135732" lon="14.987963915529495"><ele>77.0</ele><time>2026-05-02T07:30:01.988Z</time></trkpt><trkpt lat="40.6148524266931" lon="14.98800329668035"><ele>77.0</ele><time>2026-05-02T07:30:03.988Z</time></trkpt><trkpt lat="40.61478237130204" lon="14.988005153170741"><ele>77.0</ele><time>2026-05-02T07:30:04.988Z</time></trkpt><trkpt lat="40.614706136612334" lon="14.988001971511514"><ele>77.0</ele><time>2026-05-02T07:30:05.988Z</time></trkpt><trkpt lat="40.614628950653206" lon="14.988000232578374"><ele>77.0</ele><time>2026-05-02T07:30:06.988Z</time></trkpt><trkpt lat="40.61454683409871" lon="14.988007846878201"><ele>77.0</ele><time>2026-05-02T07:30:07.988Z</time></trkpt><trkpt lat="40.61446497593062" lon="14.988016154241448"><ele>77.0</ele><time>2026-05-02T07:30:08.991Z</time></trkpt><trkpt lat="40.61438271535414" lon="14.988024514639362"><ele>77.5</ele><time>2026-05-02T07:30:09.99Z</time></trkpt><trkpt lat="40.61430822529636" lon="14.988030743540703"><ele>78.0</ele><time>2026-05-02T07:30:10.99Z</time></trkpt><trkpt lat="40.61420424711508" lon="14.9880787633693"><ele>78.5</ele><time>2026-05-02T07:30:12.991Z</time></trkpt><trkpt lat="40.61424274408308" lon="14.988339597747753"><ele>79.0</ele><time>2026-05-02T07:30:17.99Z</time></trkpt><trkpt lat="40.61429902601223" lon="14.988407675025423"><ele>80.0</ele><time>2026-05-02T07:30:18.991Z</time></trkpt><trkpt lat="40.61435410233515" lon="14.988486996605785"><ele>81.0</ele><time>2026-05-02T07:30:19.991Z</time></trkpt><trkpt lat="40.61441583848928" lon="14.988573796973853"><ele>82.0</ele><time>2026-05-02T07:30:20.99Z</time></trkpt><trkpt lat="40.61448063101408" lon="14.988666524898731"><ele>83.0</ele><time>2026-05-02T07:30:21.99Z</time></trkpt><trkpt lat="40.614553689521124" lon="14.98877554809348"><ele>84.0</ele><time>2026-05-02T07:30:22.99Z</time></trkpt><trkpt lat="40.61462863160263" lon="14.988899811535719"><ele>84.0</ele><time>2026-05-02T07:30:23.99Z</time></trkpt><trkpt lat="40.61471133951047" lon="14.989025996072355"><ele>84.0</ele><time>2026-05-02T07:30:24.99Z</time></trkpt><trkpt lat="40.61479514608958" lon="14.989154681557272"><ele>84.0</ele><time>2026-05-02T07:30:25.99Z</time></trkpt><trkpt lat="40.614881353714956" lon="14.989285340732877"><ele>84.0</ele><time>2026-05-02T07:30:26.99Z</time></trkpt><trkpt lat="40.61496606843299" lon="14.989414936123007"><ele>84.6</ele><time>2026-05-02T07:30:27.99Z</time></trkpt><trkpt lat="40.61504487062871" lon="14.989532085745818"><ele>85.2</ele><time>2026-05-02T07:30:28.99Z</time></trkpt><trkpt lat="40.615125822694914" lon="14.989644671969353"><ele>85.8</ele><time>2026-05-02T07:30:29.99Z</time></trkpt><trkpt lat="40.61519910076004" lon="14.989747171498864"><ele>86.39999999999999</ele><time>2026-05-02T07:30:30.99Z</time></trkpt><trkpt lat="40.61526760985101" lon="14.989840873179372"><ele>87.0</ele><time>2026-05-02T07:30:31.99Z</time></trkpt><trkpt lat="40.6153367628636" lon="14.989939736650815"><ele>90.0</ele><time>2026-05-02T07:30:32.99Z</time></trkpt><trkpt lat="40.61539719132892" lon="14.990039223112756"><ele>93.0</ele><time>2026-05-02T07:30:33.99Z</time></trkpt><trkpt lat="40.61544757680254" lon="14.990119711765912"><ele>96.0</ele><time>2026-05-02T07:30:34.99Z</time></trkpt><trkpt lat="40.61549373772763" lon="14.990184039440466"><ele>99.0</ele><time>2026-05-02T07:30:35.99Z</time></trkpt><trkpt lat="40.615542710068745" lon="14.990241314260546"><ele>102.0</ele><time>2026-05-02T07:30:36.99Z</time></trkpt><trkpt lat="40.61560519507871" lon="14.990283550174293"><ele>105.0</ele><time>2026-05-02T07:30:37.99Z</time></trkpt><trkpt lat="40.61568442465721" lon="14.990328267933666"><ele>105.0</ele><time>2026-05-02T07:30:38.99Z</time></trkpt><trkpt lat="40.61577862079107" lon="14.990369010705624"><ele>105.0</ele><time>2026-05-02T07:30:39.99Z</time></trkpt><trkpt lat="40.6158870764849" lon="14.990414427783048"><ele>105.0</ele><time>2026-05-02T07:30:40.99Z</time></trkpt><trkpt lat="40.615992487731546" lon="14.990494489904327"><ele>105.0</ele><time>2026-05-02T07:30:41.99Z</time></trkpt><trkpt lat="40.61608063185491" lon="14.990586635733571"><ele>105.0</ele><time>2026-05-02T07:30:42.99Z</time></trkpt><trkpt lat="40.6161487061333" lon="14.99066626181632"><ele>107.6</ele><time>2026-05-02T07:30:43.99Z</time></trkpt><trkpt lat="40.61621815621022" lon="14.990716104644116"><ele>110.2</ele><time>2026-05-02T07:30:44.99Z</time></trkpt><trkpt lat="40.616329374610686" lon="14.990690171271629"><ele>112.80000000000001</ele><time>2026-05-02T07:30:46.99Z</time></trkpt><trkpt lat="40.616383699086434" lon="14.990610181130958"><ele>115.4</ele><time>2026-05-02T07:30:47.99Z</time></trkpt><trkpt lat="40.61644714940296" lon="14.990512217548154"><ele>118.0</ele><time>2026-05-02T07:30:48.989Z</time></trkpt><trkpt lat="40.61651718484114" lon="14.990436451182333"><ele>118.0</ele><time>2026-05-02T07:30:49.989Z</time></trkpt><trkpt lat="40.61659102746262" lon="14.990403963023047"><ele>118.00000000000001</ele><time>2026-05-02T07:30:50.989Z</time></trkpt><trkpt lat="40.61668483803292" lon="14.990386509434115"><ele>118.00000000000001</ele><time>2026-05-02T07:30:51.989Z</time></trkpt><trkpt lat="40.616780888156164" lon="14.990372166464022"><ele>118.0</ele><time>2026-05-02T07:30:52.989Z</time></trkpt><trkpt lat="40.616880198832895" lon="14.990385764652082"><ele>118.0</ele><time>2026-05-02T07:30:53.989Z</time></trkpt><trkpt lat="40.61697378032006" lon="14.990405748035773"><ele>121.4</ele><time>2026-05-02T07:30:54.989Z</time></trkpt><trkpt lat="40.61706223643829" lon="14.990404225073847"><ele>124.80000000000001</ele><time>2026-05-02T07:30:55.989Z</time></trkpt><trkpt lat="40.61714150312752" lon="14.990370114405184"><ele>128.2</ele><time>2026-05-02T07:30:56.989Z</time></trkpt><trkpt lat="40.617222013678116" lon="14.990317392131502"><ele>131.6</ele><time>2026-05-02T07:30:57.989Z</time></trkpt><trkpt lat="40.617313840256735" lon="14.990273611452137"><ele>135.0</ele><time>2026-05-02T07:30:58.989Z</time></trkpt><trkpt lat="40.61740540073173" lon="14.990234611552072"><ele>135.0</ele><time>2026-05-02T07:30:59.989Z</time></trkpt><trkpt lat="40.617480751298274" lon="14.990203053790598"><ele>135.0</ele><time>2026-05-02T07:31:00.989Z</time></trkpt><trkpt lat="40.617553052269145" lon="14.990185791471779"><ele>135.0</ele><time>2026-05-02T07:31:01.989Z</time></trkpt><trkpt lat="40.617617077831945" lon="14.990183409854197"><ele>135.0</ele><time>2026-05-02T07:31:02.989Z</time></trkpt><trkpt lat="40.61766899033045" lon="14.990234554424127"><ele>135.0</ele><time>2026-05-02T07:31:03.989Z</time></trkpt><trkpt lat="40.61773712398531" lon="14.990269382904822"><ele>135.0</ele><time>2026-05-02T07:31:04.989Z</time></trkpt><trkpt lat="40.61779628300998" lon="14.99034821549543"><ele>135.0</ele><time>2026-05-02T07:31:05.989Z</time></trkpt><trkpt lat="40.61783887088261" lon="14.990425224122255"><ele>135.0</ele><time>2026-05-02T07:31:06.989Z</time></trkpt><trkpt lat="40.61787397411456" lon="14.990565197268412"><ele>135.0</ele><time>2026-05-02T07:31:08.989Z</time></trkpt><trkpt lat="40.6178470362463" lon="14.990698881030346"><ele>135.0</ele><time>2026-05-02T07:31:10.989Z</time></trkpt><trkpt lat="40.61779933856704" lon="14.990755310658155"><ele>135.0</ele><time>2026-05-02T07:31:11.989Z</time></trkpt><trkpt lat="40.61776976477463" lon="14.990839796937333"><ele>135.0</ele><time>2026-05-02T07:31:12.989Z</time></trkpt><trkpt lat="40.617750488007246" lon="14.990931249809432"><ele>135.0</ele><time>2026-05-02T07:31:13.989Z</time></trkpt><trkpt lat="40.61773710443644" lon="14.991037984738348"><ele>137.5</ele><time>2026-05-02T07:31:14.989Z</time></trkpt><trkpt lat="40.61771871190451" lon="14.991125404919563"><ele>140.0</ele><time>2026-05-02T07:31:15.989Z</time></trkpt><trkpt lat="40.617699750046896" lon="14.9912187503306"><ele>142.5</ele><time>2026-05-02T07:31:16.989Z</time></trkpt><trkpt lat="40.61769333533938" lon="14.991310487489724"><ele>145.0</ele><time>2026-05-02T07:31:17.989Z</time></trkpt><trkpt lat="40.61769141325666" lon="14.991401378509385"><ele>147.5</ele><time>2026-05-02T07:31:18.988Z</time></trkpt><trkpt lat="40.61770291158948" lon="14.991538612367352"><ele>150.0</ele><time>2026-05-02T07:31:20.988Z</time></trkpt><trkpt lat="40.61764206492682" lon="14.991630358371014"><ele>150.0</ele><time>2026-05-02T07:31:22.988Z</time></trkpt><trkpt lat="40.617551017851525" lon="14.991640874260444"><ele>150.0</ele><time>2026-05-02T07:31:23.988Z</time></trkpt><trkpt lat="40.61748960436295" lon="14.991673010210963"><ele>150.0</ele><time>2026-05-02T07:31:24.988Z</time></trkpt><trkpt lat="40.617434082380534" lon="14.991719331262393"><ele>150.0</ele><time>2026-05-02T07:31:25.988Z</time></trkpt><trkpt lat="40.6173623373802" lon="14.99183371596314"><ele>150.0</ele><time>2026-05-02T07:31:27.988Z</time></trkpt><trkpt lat="40.61733399655162" lon="14.991916067370907"><ele>150.0</ele><time>2026-05-02T07:31:28.988Z</time></trkpt><trkpt lat="40.61727890108017" lon="14.992032636835686"><ele>151.16666666666666</ele><time>2026-05-02T07:31:30.988Z</time></trkpt><trkpt lat="40.61721078577203" lon="14.99206774086808"><ele>152.33333333333334</ele><time>2026-05-02T07:31:32.988Z</time></trkpt><trkpt lat="40.61713602583958" lon="14.992094974377109"><ele>153.5</ele><time>2026-05-02T07:31:35.988Z</time></trkpt><trkpt lat="40.61708618009051" lon="14.99215000354585"><ele>154.66666666666669</ele><time>2026-05-02T07:31:37.988Z</time></trkpt><trkpt lat="40.617043857730906" lon="14.992225886203776"><ele>155.83333333333334</ele><time>2026-05-02T07:35:50.986Z</time></trkpt><trkpt lat="40.61693705198307" lon="14.992303829010996"><ele>157.0</ele><time>2026-05-02T07:35:52.986Z</time></trkpt><trkpt lat="40.61687967315707" lon="14.992339911854508"><ele>157.0</ele><time>2026-05-02T07:35:53.986Z</time></trkpt><trkpt lat="40.616817588367134" lon="14.992371702016031"><ele>157.0</ele><time>2026-05-02T07:35:54.986Z</time></trkpt><trkpt lat="40.61674987800806" lon="14.992391941752013"><ele>157.0</ele><time>2026-05-02T07:35:55.986Z</time></trkpt><trkpt lat="40.616667912016446" lon="14.992409292570466"><ele>157.0</ele><time>2026-05-02T07:35:56.986Z</time></trkpt><trkpt lat="40.61658689857452" lon="14.992436451819893"><ele>157.0</ele><time>2026-05-02T07:35:57.986Z</time></trkpt><trkpt lat="40.6165035465431" lon="14.992471229734905"><ele>157.0</ele><time>2026-05-02T07:35:58.986Z</time></trkpt><trkpt lat="40.616424429271376" lon="14.992504100032352"><ele>159.39999999999998</ele><time>2026-05-02T07:35:59.986Z</time></trkpt><trkpt lat="40.61634335367634" lon="14.99254567776034"><ele>161.79999999999998</ele><time>2026-05-02T07:36:00.986Z</time></trkpt><trkpt lat="40.61626627358448" lon="14.992592967794907"><ele>164.2</ele><time>2026-05-02T07:36:01.986Z</time></trkpt><trkpt lat="40.616191141781044" lon="14.992645428381378"><ele>166.6</ele><time>2026-05-02T07:36:02.986Z</time></trkpt><trkpt lat="40.616103434744275" lon="14.992704058403378"><ele>169.0</ele><time>2026-05-02T07:36:03.986Z</time></trkpt><trkpt lat="40.61601015542191" lon="14.992766419799375"><ele>169.0</ele><time>2026-05-02T07:36:04.986Z</time></trkpt><trkpt lat="40.61591293207008" lon="14.992832218354987"><ele>169.0</ele><time>2026-05-02T07:36:05.986Z</time></trkpt><trkpt lat="40.615820088981344" lon="14.99289657686326"><ele>169.0</ele><time>2026-05-02T07:36:06.986Z</time></trkpt><trkpt lat="40.61572916498926" lon="14.992961669361208"><ele>169.0</ele><time>2026-05-02T07:36:07.986Z</time></trkpt><trkpt lat="40.615647165594666" lon="14.993039172300353"><ele>169.0</ele><time>2026-05-02T07:36:08.986Z</time></trkpt><trkpt lat="40.615565378078934" lon="14.993119303897116"><ele>169.0</ele><time>2026-05-02T07:36:09.986Z</time></trkpt><trkpt lat="40.615495524911324" lon="14.993211063813662"><ele>169.0</ele><time>2026-05-02T07:36:10.986Z</time></trkpt><trkpt lat="40.615429371031546" lon="14.993306905227483"><ele>169.0</ele><time>2026-05-02T07:36:11.986Z</time></trkpt><trkpt lat="40.615363420687416" lon="14.993395934353526"><ele>169.0</ele><time>2026-05-02T07:36:12.986Z</time></trkpt><trkpt lat="40.61527663170282" lon="14.993466960712164"><ele>169.0</ele><time>2026-05-02T07:36:13.986Z</time></trkpt><trkpt lat="40.61522060804704" lon="14.993538123022333"><ele>169.28571428571428</ele><time>2026-05-02T07:36:14.985Z</time></trkpt><trkpt lat="40.61518019626847" lon="14.993614090253127"><ele>169.57142857142856</ele><time>2026-05-02T07:36:15.985Z</time></trkpt><trkpt lat="40.615144111006174" lon="14.993693431425017"><ele>169.85714285714283</ele><time>2026-05-02T07:36:16.985Z</time></trkpt><trkpt lat="40.61511944907128" lon="14.993771762365007"><ele>170.14285714285714</ele><time>2026-05-02T07:36:17.985Z</time></trkpt><trkpt lat="40.61508891823214" lon="14.993850357780584"><ele>170.42857142857142</ele><time>2026-05-02T07:36:18.985Z</time></trkpt><trkpt lat="40.61504881361899" lon="14.99392850198505"><ele>170.7142857142857</ele><time>2026-05-02T07:36:19.985Z</time></trkpt><trkpt lat="40.61500519545397" lon="14.994014910758327"><ele>171.0</ele><time>2026-05-02T07:36:20.985Z</time></trkpt><trkpt lat="40.61495570763027" lon="14.994112715620297"><ele>172.4</ele><time>2026-05-02T07:36:21.985Z</time></trkpt><trkpt lat="40.61490361722899" lon="14.994227874613708"><ele>173.8</ele><time>2026-05-02T07:36:22.985Z</time></trkpt><trkpt lat="40.61485451470337" lon="14.994364742233872"><ele>175.20000000000002</ele><time>2026-05-02T07:36:23.985Z</time></trkpt><trkpt lat="40.61480509743151" lon="14.99450177601377"><ele>176.60000000000002</ele><time>2026-05-02T07:36:24.985Z</time></trkpt><trkpt lat="40.61476621880907" lon="14.994624847871577"><ele>178.0</ele><time>2026-05-02T07:36:25.988Z</time></trkpt><trkpt lat="40.61473536006777" lon="14.994733319634491"><ele>177.99999999999997</ele><time>2026-05-02T07:36:26.987Z</time></trkpt><trkpt lat="40.614706539835176" lon="14.994831369919904"><ele>178.0</ele><time>2026-05-02T07:36:27.987Z</time></trkpt><trkpt lat="40.61467355969106" lon="14.994923417652604"><ele>178.0</ele><time>2026-05-02T07:36:28.987Z</time></trkpt><trkpt lat="40.61463836507187" lon="14.99500974411466"><ele>178.0</ele><time>2026-05-02T07:36:29.988Z</time></trkpt><trkpt lat="40.61462580087453" lon="14.995111185271446"><ele>178.0</ele><time>2026-05-02T07:36:30.988Z</time></trkpt><trkpt lat="40.61460267105113" lon="14.99519629482762"><ele>177.99999999999997</ele><time>2026-05-02T07:36:31.988Z</time></trkpt><trkpt lat="40.61457458608306" lon="14.99527156495099"><ele>178.0</ele><time>2026-05-02T07:36:32.987Z</time></trkpt><trkpt lat="40.61453386494812" lon="14.995405530137358"><ele>179.0</ele><time>2026-05-02T07:36:34.987Z</time></trkpt><trkpt lat="40.614510826076426" lon="14.995552795901876"><ele>180.0</ele><time>2026-05-02T07:36:36.987Z</time></trkpt><trkpt lat="40.614499259308204" lon="14.995704954122548"><ele>181.0</ele><time>2026-05-02T07:36:38.987Z</time></trkpt><trkpt lat="40.614494664680706" lon="14.995858930297366"><ele>182.0</ele><time>2026-05-02T07:36:40.987Z</time></trkpt><trkpt lat="40.614480801829956" lon="14.995975563607715"><ele>183.0</ele><time>2026-05-02T07:36:42.987Z</time></trkpt><trkpt lat="40.61445220742581" lon="14.996074712228108"><ele>180.16666666666666</ele><time>2026-05-02T07:36:44.987Z</time></trkpt><trkpt lat="40.61442071117167" lon="14.99617711390883"><ele>177.33333333333334</ele><time>2026-05-02T07:36:47.987Z</time></trkpt><trkpt lat="40.61438255302814" lon="14.99624880230325"><ele>174.5</ele><time>2026-05-02T07:36:49.987Z</time></trkpt><trkpt lat="40.61432078006333" lon="14.996329382351389"><ele>171.66666666666669</ele><time>2026-05-02T07:36:51.987Z</time></trkpt><trkpt lat="40.61429052256682" lon="14.996404918403355"><ele>168.83333333333334</ele><time>2026-05-02T07:36:52.987Z</time></trkpt><trkpt lat="40.61426123714256" lon="14.996497478485473"><ele>166.0</ele><time>2026-05-02T07:36:53.987Z</time></trkpt><trkpt lat="40.614224109446056" lon="14.996585629375524"><ele>167.75</ele><time>2026-05-02T07:36:54.987Z</time></trkpt><trkpt lat="40.61416617690395" lon="14.996714106075162"><ele>169.5</ele><time>2026-05-02T07:36:56.987Z</time></trkpt><trkpt lat="40.614110572235134" lon="14.99686755639338"><ele>171.25</ele><time>2026-05-02T07:36:58.987Z</time></trkpt><trkpt lat="40.6140785177071" lon="14.996954896412413"><ele>173.0</ele><time>2026-05-02T07:36:59.986Z</time></trkpt><trkpt lat="40.61402543550308" lon="14.997120723310493"><ele>173.0</ele><time>2026-05-02T07:37:01.986Z</time></trkpt><trkpt lat="40.613995803895016" lon="14.997205384129975"><ele>173.0</ele><time>2026-05-02T07:37:02.986Z</time></trkpt><trkpt lat="40.613966669641066" lon="14.997295870992387"><ele>173.0</ele><time>2026-05-02T07:37:03.986Z</time></trkpt><trkpt lat="40.61394198820062" lon="14.997386462760968"><ele>173.0</ele><time>2026-05-02T07:37:04.986Z</time></trkpt><trkpt lat="40.613924326255734" lon="14.997481231579618"><ele>173.0</ele><time>2026-05-02T07:37:05.986Z</time></trkpt><trkpt lat="40.61391368768273" lon="14.997574360849082"><ele>173.0</ele><time>2026-05-02T07:37:06.986Z</time></trkpt><trkpt lat="40.61389438847924" lon="14.99772905034301"><ele>174.60000000000002</ele><time>2026-05-02T07:37:08.986Z</time></trkpt><trkpt lat="40.613843530806385" lon="14.997861729316572"><ele>176.20000000000002</ele><time>2026-05-02T07:37:10.986Z</time></trkpt><trkpt lat="40.61381330958171" lon="14.997989825365607"><ele>177.8</ele><time>2026-05-02T07:37:12.986Z</time></trkpt><trkpt lat="40.61378675925704" lon="14.998065613130507"><ele>179.4</ele><time>2026-05-02T07:37:13.986Z</time></trkpt><trkpt lat="40.613745452490974" lon="14.998146523293528"><ele>181.0</ele><time>2026-05-02T07:37:14.986Z</time></trkpt><trkpt lat="40.613698830971856" lon="14.998266963428039"><ele>182.5</ele><time>2026-05-02T07:37:15.986Z</time></trkpt><trkpt lat="40.613670435016815" lon="14.998373828983665"><ele>184.0</ele><time>2026-05-02T07:37:16.986Z</time></trkpt><trkpt lat="40.613646817045655" lon="14.998475942467897"><ele>185.5</ele><time>2026-05-02T07:37:17.986Z</time></trkpt><trkpt lat="40.61362552565384" lon="14.998570297341784"><ele>187.0</ele><time>2026-05-02T07:37:18.986Z</time></trkpt><trkpt lat="40.61357763548176" lon="14.998649423125858"><ele>188.5</ele><time>2026-05-02T07:37:19.986Z</time></trkpt><trkpt lat="40.61355497617214" lon="14.998730372514858"><ele>190.0</ele><time>2026-05-02T07:37:20.986Z</time></trkpt><trkpt lat="40.61351520798377" lon="14.998870801285328"><ele>187.0</ele><time>2026-05-02T07:37:22.986Z</time></trkpt><trkpt lat="40.61348288526473" lon="14.999000422520716"><ele>184.0</ele><time>2026-05-02T07:37:24.986Z</time></trkpt><trkpt lat="40.61347388726626" lon="14.999088363179542"><ele>181.0</ele><time>2026-05-02T07:37:25.986Z</time></trkpt><trkpt lat="40.613464883831845" lon="14.99917415379855"><ele>178.0</ele><time>2026-05-02T07:37:26.986Z</time></trkpt><trkpt lat="40.613455936132254" lon="14.999264781341086"><ele>175.0</ele><time>2026-05-02T07:37:27.986Z</time></trkpt><trkpt lat="40.61344560528874" lon="14.999352050437503"><ele>172.0</ele><time>2026-05-02T07:37:28.986Z</time></trkpt><trkpt lat="40.61342044720139" lon="14.999428466127409"><ele>169.0</ele><time>2026-05-02T07:37:29.985Z</time></trkpt><trkpt lat="40.61337269250837" lon="14.999574347036523"><ele>169.0</ele><time>2026-05-02T07:37:31.985Z</time></trkpt><trkpt lat="40.61333452052362" lon="14.999723327835195"><ele>169.0</ele><time>2026-05-02T07:37:33.985Z</time></trkpt><trkpt lat="40.613318482437954" lon="14.99988882212244"><ele>169.0</ele><time>2026-05-02T07:37:35.985Z</time></trkpt><trkpt lat="40.61332258442446" lon="14.99998629781892"><ele>169.0</ele><time>2026-05-02T07:37:36.985Z</time></trkpt><trkpt lat="40.613328453724904" lon="15.000076525870316"><ele>169.0</ele><time>2026-05-02T07:37:37.985Z</time></trkpt><trkpt lat="40.61332782485455" lon="15.000254182529229"><ele>169.0</ele><time>2026-05-02T07:37:39.985Z</time></trkpt><trkpt lat="40.613318826465886" lon="15.000363239473465"><ele>169.0</ele><time>2026-05-02T07:37:40.985Z</time></trkpt><trkpt lat="40.6133023264944" lon="15.000468227288218"><ele>169.0</ele><time>2026-05-02T07:37:41.985Z</time></trkpt><trkpt lat="40.613283346406455" lon="15.000571976562457"><ele>169.0</ele><time>2026-05-02T07:37:42.985Z</time></trkpt><trkpt lat="40.61326514030893" lon="15.000678087770542"><ele>169.0</ele><time>2026-05-02T07:37:43.985Z</time></trkpt><trkpt lat="40.61324719971019" lon="15.00078682034656"><ele>169.0</ele><time>2026-05-02T07:37:44.985Z</time></trkpt><trkpt lat="40.61322039258469" lon="15.000891724271547"><ele>169.5</ele><time>2026-05-02T07:37:45.985Z</time></trkpt><trkpt lat="40.613193111420706" lon="15.001005306171358"><ele>170.0</ele><time>2026-05-02T07:37:46.985Z</time></trkpt><trkpt lat="40.61316933270903" lon="15.001122231318055"><ele>170.5</ele><time>2026-05-02T07:37:47.985Z</time></trkpt><trkpt lat="40.613140170355216" lon="15.001242200317366"><ele>171.0</ele><time>2026-05-02T07:37:48.985Z</time></trkpt><trkpt lat="40.61311344468969" lon="15.001355288070474"><ele>171.5</ele><time>2026-05-02T07:37:49.985Z</time></trkpt><trkpt lat="40.61309240206873" lon="15.001458037723202"><ele>172.0</ele><time>2026-05-02T07:37:50.985Z</time></trkpt><trkpt lat="40.613076260688864" lon="15.001568756862307"><ele>172.5</ele><time>2026-05-02T07:37:51.985Z</time></trkpt><trkpt lat="40.613056586110744" lon="15.001681390445272"><ele>173.0</ele><time>2026-05-02T07:37:52.985Z</time></trkpt><trkpt lat="40.613042226369664" lon="15.001791846497978"><ele>173.5</ele><time>2026-05-02T07:37:53.985Z</time></trkpt><trkpt lat="40.613031342929574" lon="15.001889196429238"><ele>174.0</ele><time>2026-05-02T07:37:54.985Z</time></trkpt><trkpt lat="40.613024526447866" lon="15.001977262948479"><ele>174.5</ele><time>2026-05-02T07:37:55.985Z</time></trkpt><trkpt lat="40.61300847100397" lon="15.002060966774339"><ele>175.0</ele><time>2026-05-02T07:37:56.985Z</time></trkpt><trkpt lat="40.612977133367714" lon="15.00221832768223"><ele>175.0</ele><time>2026-05-02T07:37:58.984Z</time></trkpt><trkpt lat="40.612942611653686" lon="15.00237525415108"><ele>175.0</ele><time>2026-05-02T07:38:00.984Z</time></trkpt><trkpt lat="40.612906634586764" lon="15.00251952104234"><ele>175.0</ele><time>2026-05-02T07:38:02.984Z</time></trkpt><trkpt lat="40.61287971186509" lon="15.002649170479225"><ele>175.0</ele><time>2026-05-02T07:38:04.984Z</time></trkpt><trkpt lat="40.6128452877123" lon="15.002746138323745"><ele>175.0</ele><time>2026-05-02T07:38:06.984Z</time></trkpt><trkpt lat="40.61282318408303" lon="15.002851485899951"><ele>172.28571428571428</ele><time>2026-05-02T07:38:09.984Z</time></trkpt><trkpt lat="40.612812917079246" lon="15.002965761310135"><ele>169.57142857142856</ele><time>2026-05-02T07:38:12.984Z</time></trkpt><trkpt lat="40.61280330790636" lon="15.003053314695453"><ele>166.85714285714286</ele><time>2026-05-02T07:38:14.984Z</time></trkpt><trkpt lat="40.61279906980859" lon="15.003142149583287"><ele>164.14285714285714</ele><time>2026-05-02T07:38:16.984Z</time></trkpt><trkpt lat="40.612793851046575" lon="15.003224850594068"><ele>161.42857142857142</ele><time>2026-05-02T07:38:18.984Z</time></trkpt><trkpt lat="40.61277644867206" lon="15.003316900023643"><ele>158.71428571428572</ele><time>2026-05-02T07:38:20.984Z</time></trkpt><trkpt lat="40.61278047453777" lon="15.003407657702631"><ele>156.0</ele><time>2026-05-02T07:38:22.984Z</time></trkpt><trkpt lat="40.61276530818963" lon="15.003503912502419"><ele>156.0</ele><time>2026-05-02T07:38:24.984Z</time></trkpt><trkpt lat="40.61276358018537" lon="15.003619235726998"><ele>156.0</ele><time>2026-05-02T07:38:26.984Z</time></trkpt><trkpt lat="40.61274521243988" lon="15.003750695728304"><ele>156.0</ele><time>2026-05-02T07:38:28.983Z</time></trkpt><trkpt lat="40.61273842867406" lon="15.003915563450034"><ele>156.0</ele><time>2026-05-02T07:38:30.983Z</time></trkpt><trkpt lat="40.612731415538136" lon="15.004064928237678"><ele>156.0</ele><time>2026-05-02T07:38:32.986Z</time></trkpt><trkpt lat="40.61272955265273" lon="15.004194777687372"><ele>156.6</ele><time>2026-05-02T07:38:34.986Z</time></trkpt><trkpt lat="40.61270157791678" lon="15.004318146413071"><ele>157.2</ele><time>2026-05-02T07:38:36.986Z</time></trkpt><trkpt lat="40.61267809055115" lon="15.004465256108327"><ele>157.8</ele><time>2026-05-02T07:38:38.986Z</time></trkpt><trkpt lat="40.61265299018198" lon="15.004583415132279"><ele>158.4</ele><time>2026-05-02T07:38:40.986Z</time></trkpt><trkpt lat="40.612641256806896" lon="15.004728668365928"><ele>159.0</ele><time>2026-05-02T07:38:43.986Z</time></trkpt><trkpt lat="40.61262098124459" lon="15.004854711769225"><ele>159.0</ele><time>2026-05-02T07:38:45.986Z</time></trkpt><trkpt lat="40.61262937319091" lon="15.004947958543537"><ele>159.0</ele><time>2026-05-02T07:38:48.986Z</time></trkpt><trkpt lat="40.61265182924556" lon="15.005041825881637"><ele>159.0</ele><time>2026-05-02T07:38:51.986Z</time></trkpt><trkpt lat="40.61265018669438" lon="15.005134598807887"><ele>159.0</ele><time>2026-05-02T07:38:53.986Z</time></trkpt><trkpt lat="40.61265931479275" lon="15.005271088643275"><ele>159.0</ele><time>2026-05-02T07:38:55.985Z</time></trkpt><trkpt lat="40.61264345884331" lon="15.00541061510315"><ele>159.0</ele><time>2026-05-02T07:38:57.985Z</time></trkpt><trkpt lat="40.61261620463412" lon="15.005545666750976"><ele>158.83333333333334</ele><time>2026-05-02T07:38:59.985Z</time></trkpt><trkpt lat="40.6126070751488" lon="15.00567386346554"><ele>158.66666666666666</ele><time>2026-05-02T07:39:01.985Z</time></trkpt><trkpt lat="40.6125973060493" lon="15.005808773532008"><ele>158.5</ele><time>2026-05-02T07:39:03.985Z</time></trkpt><trkpt lat="40.612571714523284" lon="15.00589551860759"><ele>158.33333333333331</ele><time>2026-05-02T07:39:04.985Z</time></trkpt><trkpt lat="40.61255988509727" lon="15.005994656820429"><ele>158.16666666666666</ele><time>2026-05-02T07:39:05.985Z</time></trkpt><trkpt lat="40.61253507563897" lon="15.00608852256338"><ele>158.0</ele><time>2026-05-02T07:39:06.985Z</time></trkpt><trkpt lat="40.61251239140237" lon="15.006193319815504"><ele>157.8</ele><time>2026-05-02T07:39:07.985Z</time></trkpt><trkpt lat="40.612492310854336" lon="15.006280162869436"><ele>157.60000000000002</ele><time>2026-05-02T07:39:08.985Z</time></trkpt><trkpt lat="40.61246144752647" lon="15.006426617781907"><ele>157.39999999999998</ele><time>2026-05-02T07:39:10.985Z</time></trkpt><trkpt lat="40.612418299406116" lon="15.00656358316959"><ele>157.2</ele><time>2026-05-02T07:39:12.985Z</time></trkpt><trkpt lat="40.612390803276845" lon="15.006642395795819"><ele>157.0</ele><time>2026-05-02T07:39:13.985Z</time></trkpt><trkpt lat="40.61234841518191" lon="15.00680040653357"><ele>157.0</ele><time>2026-05-02T07:39:15.985Z</time></trkpt><trkpt lat="40.61233955516412" lon="15.006896370838431"><ele>157.0</ele><time>2026-05-02T07:39:16.985Z</time></trkpt><trkpt lat="40.61232031314118" lon="15.007023798756263"><ele>157.0</ele><time>2026-05-02T07:39:17.985Z</time></trkpt><trkpt lat="40.612285464941294" lon="15.00713246240137"><ele>157.0</ele><time>2026-05-02T07:39:18.985Z</time></trkpt><trkpt lat="40.61225772377994" lon="15.007243514942028"><ele>157.0</ele><time>2026-05-02T07:39:19.985Z</time></trkpt><trkpt lat="40.612227691965835" lon="15.007364276787687"><ele>157.0</ele><time>2026-05-02T07:39:20.985Z</time></trkpt><trkpt lat="40.612190985959906" lon="15.007512928630792"><ele>157.2</ele><time>2026-05-02T07:39:21.985Z</time></trkpt><trkpt lat="40.6121688614966" lon="15.007665981937079"><ele>157.39999999999998</ele><time>2026-05-02T07:39:22.985Z</time></trkpt><trkpt lat="40.61211968729422" lon="15.007786124330002"><ele>157.60000000000002</ele><time>2026-05-02T07:39:23.985Z</time></trkpt><trkpt lat="40.61209679694833" lon="15.007891486933284"><ele>157.8</ele><time>2026-05-02T07:39:24.984Z</time></trkpt><trkpt lat="40.612070941979034" lon="15.007978511061939"><ele>158.0</ele><time>2026-05-02T07:39:25.984Z</time></trkpt><trkpt lat="40.6120474364834" lon="15.008071387844753"><ele>158.0</ele><time>2026-05-02T07:39:26.984Z</time></trkpt><trkpt lat="40.61202934281218" lon="15.008176974752628"><ele>158.0</ele><time>2026-05-02T07:39:27.984Z</time></trkpt><trkpt lat="40.611993456868426" lon="15.008297058950834"><ele>158.0</ele><time>2026-05-02T07:39:28.984Z</time></trkpt><trkpt lat="40.611963220359456" lon="15.00842117288077"><ele>158.0</ele><time>2026-05-02T07:39:29.984Z</time></trkpt><trkpt lat="40.611925350130825" lon="15.008542989568099"><ele>158.0</ele><time>2026-05-02T07:39:30.984Z</time></trkpt><trkpt lat="40.61188377249283" lon="15.008670527683021"><ele>154.8</ele><time>2026-05-02T07:39:31.984Z</time></trkpt><trkpt lat="40.61185683687017" lon="15.008808531631542"><ele>151.60000000000002</ele><time>2026-05-02T07:39:32.984Z</time></trkpt><trkpt lat="40.6118356450789" lon="15.008938282680102"><ele>148.39999999999998</ele><time>2026-05-02T07:39:33.984Z</time></trkpt><trkpt lat="40.61181592321968" lon="15.009060939309608"><ele>145.2</ele><time>2026-05-02T07:39:34.984Z</time></trkpt><trkpt lat="40.6117716298895" lon="15.009185973528819"><ele>142.0</ele><time>2026-05-02T07:39:35.984Z</time></trkpt><trkpt lat="40.61173442716893" lon="15.00932922731474"><ele>141.79999999999998</ele><time>2026-05-02T07:39:36.984Z</time></trkpt><trkpt lat="40.611694649547225" lon="15.009466620284117"><ele>141.6</ele><time>2026-05-02T07:39:37.984Z</time></trkpt><trkpt lat="40.61165673952986" lon="15.009594151414609"><ele>141.39999999999998</ele><time>2026-05-02T07:39:38.984Z</time></trkpt><trkpt lat="40.61161857758983" lon="15.009721497690919"><ele>141.2</ele><time>2026-05-02T07:39:39.984Z</time></trkpt><trkpt lat="40.61159558650701" lon="15.0098587950325"><ele>141.0</ele><time>2026-05-02T07:39:40.984Z</time></trkpt><trkpt lat="40.61154903316839" lon="15.009960590652078"><ele>141.5</ele><time>2026-05-02T07:39:41.984Z</time></trkpt><trkpt lat="40.61153008425097" lon="15.010057801239224"><ele>142.0</ele><time>2026-05-02T07:39:42.984Z</time></trkpt><trkpt lat="40.611511306657796" lon="15.010161428333983"><ele>142.5</ele><time>2026-05-02T07:39:43.984Z</time></trkpt><trkpt lat="40.61150338403709" lon="15.010284278039817"><ele>143.0</ele><time>2026-05-02T07:39:44.984Z</time></trkpt><trkpt lat="40.61149193794622" lon="15.010395384293606"><ele>143.5</ele><time>2026-05-02T07:39:45.984Z</time></trkpt><trkpt lat="40.61148745957698" lon="15.010494749853123"><ele>144.0</ele><time>2026-05-02T07:39:46.984Z</time></trkpt><trkpt lat="40.61148355624652" lon="15.01059179384169"><ele>144.0</ele><time>2026-05-02T07:39:47.984Z</time></trkpt><trkpt lat="40.61148060704091" lon="15.010687715741948"><ele>144.0</ele><time>2026-05-02T07:39:48.984Z</time></trkpt><trkpt lat="40.611475046548875" lon="15.01079683077272"><ele>144.0</ele><time>2026-05-02T07:39:49.984Z</time></trkpt><trkpt lat="40.61146288756085" lon="15.010922158371041"><ele>144.0</ele><time>2026-05-02T07:39:50.984Z</time></trkpt><trkpt lat="40.61145550370143" lon="15.011047015530302"><ele>144.0</ele><time>2026-05-02T07:39:51.984Z</time></trkpt><trkpt lat="40.611443727189354" lon="15.011181336953022"><ele>144.0</ele><time>2026-05-02T07:39:52.984Z</time></trkpt><trkpt lat="40.611427991199264" lon="15.011329896654665"><ele>144.0</ele><time>2026-05-02T07:39:53.984Z</time></trkpt><trkpt lat="40.611417976351674" lon="15.011483834352296"><ele>144.0</ele><time>2026-05-02T07:39:54.983Z</time></trkpt><trkpt lat="40.611407085391626" lon="15.011611590253235"><ele>144.0</ele><time>2026-05-02T07:39:55.983Z</time></trkpt><trkpt lat="40.61139625198361" lon="15.01173137904417"><ele>144.0</ele><time>2026-05-02T07:39:56.983Z</time></trkpt><trkpt lat="40.611389318970026" lon="15.011857370434806"><ele>144.0</ele><time>2026-05-02T07:39:57.983Z</time></trkpt><trkpt lat="40.6113746812977" lon="15.011976507720286"><ele>144.0</ele><time>2026-05-02T07:39:58.983Z</time></trkpt><trkpt lat="40.61136257977239" lon="15.012103458846163"><ele>144.0</ele><time>2026-05-02T07:39:59.983Z</time></trkpt><trkpt lat="40.611349708716126" lon="15.012220086570457"><ele>144.0</ele><time>2026-05-02T07:40:00.983Z</time></trkpt><trkpt lat="40.611333096313224" lon="15.012328226280761"><ele>144.0</ele><time>2026-05-02T07:40:01.983Z</time></trkpt><trkpt lat="40.61129722597372" lon="15.012433814320204"><ele>145.0</ele><time>2026-05-02T07:40:02.983Z</time></trkpt><trkpt lat="40.61128079778115" lon="15.012546843863362"><ele>146.0</ele><time>2026-05-02T07:40:03.983Z</time></trkpt><trkpt lat="40.61126177907504" lon="15.012659328354989"><ele>147.0</ele><time>2026-05-02T07:40:04.983Z</time></trkpt><trkpt lat="40.611242605630736" lon="15.012781295382654"><ele>148.0</ele><time>2026-05-02T07:40:05.983Z</time></trkpt><trkpt lat="40.611224068141105" lon="15.012886236493276"><ele>149.0</ele><time>2026-05-02T07:40:06.983Z</time></trkpt><trkpt lat="40.611196531431126" lon="15.012995241776364"><ele>150.0</ele><time>2026-05-02T07:40:07.983Z</time></trkpt><trkpt lat="40.6111697106115" lon="15.013106539806131"><ele>148.5</ele><time>2026-05-02T07:40:08.983Z</time></trkpt><trkpt lat="40.61115211762836" lon="15.01321953408582"><ele>147.0</ele><time>2026-05-02T07:40:09.983Z</time></trkpt><trkpt lat="40.61113541091732" lon="15.013322960197074"><ele>145.5</ele><time>2026-05-02T07:40:10.983Z</time></trkpt><trkpt lat="40.61110132903938" lon="15.01342051029743"><ele>144.0</ele><time>2026-05-02T07:40:11.983Z</time></trkpt><trkpt lat="40.61107930584461" lon="15.013525302417705"><ele>142.5</ele><time>2026-05-02T07:40:12.983Z</time></trkpt><trkpt lat="40.61105730648778" lon="15.013633187078645"><ele>141.0</ele><time>2026-05-02T07:40:13.983Z</time></trkpt><trkpt lat="40.61103563528642" lon="15.013751332510948"><ele>141.0</ele><time>2026-05-02T07:40:14.983Z</time></trkpt><trkpt lat="40.61101072187767" lon="15.013858582080255"><ele>141.0</ele><time>2026-05-02T07:40:15.983Z</time></trkpt><trkpt lat="40.610983558022724" lon="15.013979510058233"><ele>141.0</ele><time>2026-05-02T07:40:16.983Z</time></trkpt><trkpt lat="40.610954877742714" lon="15.014102107624092"><ele>141.0</ele><time>2026-05-02T07:40:17.982Z</time></trkpt><trkpt lat="40.61092290185748" lon="15.014231419163188"><ele>141.0</ele><time>2026-05-02T07:40:18.982Z</time></trkpt><trkpt lat="40.61088062982169" lon="15.014363182001183"><ele>141.0</ele><time>2026-05-02T07:40:19.982Z</time></trkpt><trkpt lat="40.61082706827683" lon="15.014484425768789"><ele>141.0</ele><time>2026-05-02T07:40:20.982Z</time></trkpt><trkpt lat="40.61079665255143" lon="15.014593615205161"><ele>141.0</ele><time>2026-05-02T07:40:21.982Z</time></trkpt><trkpt lat="40.610764896990844" lon="15.014693288619622"><ele>141.0</ele><time>2026-05-02T07:40:22.982Z</time></trkpt><trkpt lat="40.61074023421856" lon="15.014799212213148"><ele>141.0</ele><time>2026-05-02T07:40:23.982Z</time></trkpt><trkpt lat="40.61071134338709" lon="15.01490380390312"><ele>141.0</ele><time>2026-05-02T07:40:24.982Z</time></trkpt><trkpt lat="40.610675655236776" lon="15.015007314998936"><ele>141.0</ele><time>2026-05-02T07:40:25.982Z</time></trkpt><trkpt lat="40.61064381166135" lon="15.015112918854339"><ele>141.0</ele><time>2026-05-02T07:40:26.982Z</time></trkpt><trkpt lat="40.610613488953554" lon="15.015221501319264"><ele>141.0</ele><time>2026-05-02T07:40:27.982Z</time></trkpt><trkpt lat="40.6105857696468" lon="15.015335123989537"><ele>141.0</ele><time>2026-05-02T07:40:28.982Z</time></trkpt><trkpt lat="40.61055820082304" lon="15.015463414832714"><ele>141.0</ele><time>2026-05-02T07:40:29.982Z</time></trkpt><trkpt lat="40.61053347375154" lon="15.015577292694163"><ele>141.0</ele><time>2026-05-02T07:40:30.982Z</time></trkpt><trkpt lat="40.610515366454734" lon="15.01567863473321"><ele>141.0</ele><time>2026-05-02T07:40:31.982Z</time></trkpt><trkpt lat="40.610496985795244" lon="15.015768007555367"><ele>141.0</ele><time>2026-05-02T07:40:32.982Z</time></trkpt><trkpt lat="40.61047612856713" lon="15.015866199602844"><ele>141.0</ele><time>2026-05-02T07:40:33.982Z</time></trkpt><trkpt lat="40.61044700491854" lon="15.01596094201852"><ele>141.0</ele><time>2026-05-02T07:40:34.982Z</time></trkpt><trkpt lat="40.6104171053756" lon="15.01605279439737"><ele>141.0</ele><time>2026-05-02T07:40:35.982Z</time></trkpt><trkpt lat="40.61038439162032" lon="15.016183740937183"><ele>141.2</ele><time>2026-05-02T07:40:37.984Z</time></trkpt><trkpt lat="40.61035095923678" lon="15.016294871082746"><ele>141.39999999999998</ele><time>2026-05-02T07:40:39.984Z</time></trkpt><trkpt lat="40.61030925639267" lon="15.016441637882142"><ele>141.6</ele><time>2026-05-02T07:40:41.984Z</time></trkpt><trkpt lat="40.610276863007165" lon="15.016553672230174"><ele>141.79999999999998</ele><time>2026-05-02T07:40:43.984Z</time></trkpt><trkpt lat="40.610241705170715" lon="15.01667910411242"><ele>142.0</ele><time>2026-05-02T07:40:45.984Z</time></trkpt><trkpt lat="40.61022228445673" lon="15.016778074230519"><ele>143.5</ele><time>2026-05-02T07:40:46.984Z</time></trkpt><trkpt lat="40.61020483145319" lon="15.016867016603033"><ele>145.0</ele><time>2026-05-02T07:40:47.984Z</time></trkpt><trkpt lat="40.61016611818498" lon="15.017026657746431"><ele>146.5</ele><time>2026-05-02T07:40:49.984Z</time></trkpt><trkpt lat="40.61015190661097" lon="15.017189111023812"><ele>148.0</ele><time>2026-05-02T07:40:51.984Z</time></trkpt><trkpt lat="40.61016139752076" lon="15.01736063995705"><ele>148.0</ele><time>2026-05-02T07:40:53.984Z</time></trkpt><trkpt lat="40.61014403195763" lon="15.017457072318257"><ele>148.0</ele><time>2026-05-02T07:40:54.984Z</time></trkpt><trkpt lat="40.610142900385824" lon="15.017551833097054"><ele>148.0</ele><time>2026-05-02T07:40:55.984Z</time></trkpt><trkpt lat="40.610143544036625" lon="15.017642537782836"><ele>148.0</ele><time>2026-05-02T07:40:56.984Z</time></trkpt><trkpt lat="40.61014518822453" lon="15.017743010786436"><ele>148.0</ele><time>2026-05-02T07:40:57.984Z</time></trkpt><trkpt lat="40.610140291145996" lon="15.0178566702222"><ele>148.0</ele><time>2026-05-02T07:40:58.984Z</time></trkpt><trkpt lat="40.610139215538325" lon="15.017976339555696"><ele>148.0</ele><time>2026-05-02T07:40:59.984Z</time></trkpt><trkpt lat="40.610126894816595" lon="15.01810230638448"><ele>148.0</ele><time>2026-05-02T07:41:00.984Z</time></trkpt><trkpt lat="40.61011947567663" lon="15.018230661848614"><ele>148.0</ele><time>2026-05-02T07:41:01.984Z</time></trkpt><trkpt lat="40.61010242917496" lon="15.018360859069611"><ele>148.0</ele><time>2026-05-02T07:41:02.984Z</time></trkpt><trkpt lat="40.61008885196128" lon="15.01848837240315"><ele>148.0</ele><time>2026-05-02T07:41:03.984Z</time></trkpt><trkpt lat="40.61007656488382" lon="15.01860590518673"><ele>148.0</ele><time>2026-05-02T07:41:04.984Z</time></trkpt><trkpt lat="40.610080734744" lon="15.018731736662982"><ele>148.0</ele><time>2026-05-02T07:41:05.984Z</time></trkpt><trkpt lat="40.6100732270126" lon="15.018864345676867"><ele>148.0</ele><time>2026-05-02T07:41:06.984Z</time></trkpt><trkpt lat="40.61006425579496" lon="15.018999829002064"><ele>148.0</ele><time>2026-05-02T07:41:07.984Z</time></trkpt><trkpt lat="40.6100566315979" lon="15.019142471950069"><ele>148.0</ele><time>2026-05-02T07:41:08.984Z</time></trkpt><trkpt lat="40.610048491332236" lon="15.019290014713471"><ele>148.6</ele><time>2026-05-02T07:41:09.984Z</time></trkpt><trkpt lat="40.61003251419698" lon="15.019438860633523"><ele>149.20000000000002</ele><time>2026-05-02T07:41:10.984Z</time></trkpt><trkpt lat="40.61002146881024" lon="15.01957386336836"><ele>149.8</ele><time>2026-05-02T07:41:11.984Z</time></trkpt><trkpt lat="40.61000579838201" lon="15.019709595399844"><ele>150.4</ele><time>2026-05-02T07:41:12.984Z</time></trkpt><trkpt lat="40.609994937014314" lon="15.019853592638283"><ele>151.0</ele><time>2026-05-02T07:41:13.984Z</time></trkpt><trkpt lat="40.60998069085309" lon="15.019996163543356"><ele>151.4</ele><time>2026-05-02T07:41:14.984Z</time></trkpt><trkpt lat="40.60996911145771" lon="15.020136182401558"><ele>151.8</ele><time>2026-05-02T07:41:15.983Z</time></trkpt><trkpt lat="40.6099558251414" lon="15.020278336463694"><ele>152.20000000000002</ele><time>2026-05-02T07:41:16.983Z</time></trkpt><trkpt lat="40.60994475153017" lon="15.020427192477934"><ele>152.6</ele><time>2026-05-02T07:41:17.983Z</time></trkpt><trkpt lat="40.609939268947016" lon="15.020572091052886"><ele>153.0</ele><time>2026-05-02T07:41:18.983Z</time></trkpt><trkpt lat="40.60991684775143" lon="15.020719837496303"><ele>153.4</ele><time>2026-05-02T07:41:19.983Z</time></trkpt><trkpt lat="40.609908896093884" lon="15.020866634072588"><ele>153.8</ele><time>2026-05-02T07:41:20.983Z</time></trkpt><trkpt lat="40.60990828155739" lon="15.021018505341498"><ele>154.2</ele><time>2026-05-02T07:41:21.983Z</time></trkpt><trkpt lat="40.60988100953778" lon="15.021169273914992"><ele>154.6</ele><time>2026-05-02T07:41:22.983Z</time></trkpt><trkpt lat="40.609871993775364" lon="15.0213060269937"><ele>155.0</ele><time>2026-05-02T07:41:23.983Z</time></trkpt><trkpt lat="40.609863177787055" lon="15.02142427474337"><ele>155.0</ele><time>2026-05-02T07:41:24.983Z</time></trkpt><trkpt lat="40.60985308128273" lon="15.021537828470807"><ele>155.0</ele><time>2026-05-02T07:41:25.983Z</time></trkpt><trkpt lat="40.609843546273126" lon="15.02164506715925"><ele>155.0</ele><time>2026-05-02T07:41:26.983Z</time></trkpt><trkpt lat="40.609846765477755" lon="15.021735773151004"><ele>155.0</ele><time>2026-05-02T07:41:27.983Z</time></trkpt><trkpt lat="40.60982543818107" lon="15.021897216138765"><ele>155.0</ele><time>2026-05-02T07:41:29.983Z</time></trkpt><trkpt lat="40.60982523768436" lon="15.022084345627789"><ele>155.33333333333331</ele><time>2026-05-02T07:41:31.983Z</time></trkpt><trkpt lat="40.60981007894544" lon="15.0221978058208"><ele>155.66666666666666</ele><time>2026-05-02T07:41:32.983Z</time></trkpt><trkpt lat="40.6098103406768" lon="15.022307527889998"><ele>156.0</ele><time>2026-05-02T07:41:33.983Z</time></trkpt><trkpt lat="40.60981393193098" lon="15.02242257100973"><ele>156.33333333333334</ele><time>2026-05-02T07:41:34.983Z</time></trkpt><trkpt lat="40.60981858106587" lon="15.022540468043118"><ele>156.66666666666669</ele><time>2026-05-02T07:41:35.983Z</time></trkpt><trkpt lat="40.60982225220968" lon="15.022664000514938"><ele>157.0</ele><time>2026-05-02T07:41:36.983Z</time></trkpt><trkpt lat="40.609825250046526" lon="15.022786594833942"><ele>157.2</ele><time>2026-05-02T07:41:37.983Z</time></trkpt><trkpt lat="40.60983351266829" lon="15.022913899878835"><ele>157.39999999999998</ele><time>2026-05-02T07:41:38.983Z</time></trkpt><trkpt lat="40.60984513534619" lon="15.023043901857575"><ele>157.60000000000002</ele><time>2026-05-02T07:41:39.983Z</time></trkpt><trkpt lat="40.60985506126569" lon="15.023170354755711"><ele>157.8</ele><time>2026-05-02T07:41:40.983Z</time></trkpt><trkpt lat="40.60986247112723" lon="15.023295190870279"><ele>158.0</ele><time>2026-05-02T07:41:41.983Z</time></trkpt><trkpt lat="40.60987745245607" lon="15.023416648422371"><ele>158.0</ele><time>2026-05-02T07:41:42.983Z</time></trkpt><trkpt lat="40.60989290061214" lon="15.023540130477421"><ele>158.0</ele><time>2026-05-02T07:41:43.983Z</time></trkpt><trkpt lat="40.60987461233495" lon="15.023669194280572"><ele>158.0</ele><time>2026-05-02T07:41:44.983Z</time></trkpt><trkpt lat="40.609885858099325" lon="15.023776475358952"><ele>158.0</ele><time>2026-05-02T07:41:45.982Z</time></trkpt><trkpt lat="40.609893690853475" lon="15.0238702587259"><ele>158.0</ele><time>2026-05-02T07:41:46.982Z</time></trkpt><trkpt lat="40.60990893797158" lon="15.024017714017582"><ele>158.0</ele><time>2026-05-02T07:41:48.982Z</time></trkpt><trkpt lat="40.60992059014118" lon="15.024132612981"><ele>158.0</ele><time>2026-05-02T07:41:50.982Z</time></trkpt><trkpt lat="40.60992894384905" lon="15.024214986653881"><ele>158.0</ele><time>2026-05-02T07:41:52.982Z</time></trkpt><trkpt lat="40.609937206437195" lon="15.024300060558714"><ele>158.0</ele><time>2026-05-02T07:41:57.982Z</time></trkpt><trkpt lat="40.60993095278862" lon="15.024394428880678"><ele>158.0</ele><time>2026-05-02T07:42:03.982Z</time></trkpt><trkpt lat="40.609952525823665" lon="15.024502257594104"><ele>158.0</ele><time>2026-05-02T07:42:06.982Z</time></trkpt><trkpt lat="40.60997148649398" lon="15.024607981037382"><ele>158.0</ele><time>2026-05-02T07:42:08.982Z</time></trkpt><trkpt lat="40.609993478889116" lon="15.024711716236105"><ele>158.0</ele><time>2026-05-02T07:43:15.982Z</time></trkpt><trkpt lat="40.60998752914901" lon="15.024818945155985"><ele>158.0</ele><time>2026-05-02T07:43:17.982Z</time></trkpt><trkpt lat="40.60998160995621" lon="15.024940786661588"><ele>158.0</ele><time>2026-05-02T07:43:19.982Z</time></trkpt><trkpt lat="40.61000507726947" lon="15.025034103579515"><ele>158.0</ele><time>2026-05-02T07:43:21.982Z</time></trkpt><trkpt lat="40.610127835275506" lon="15.025131613766849"><ele>158.0</ele><time>2026-05-02T07:43:23.982Z</time></trkpt><trkpt lat="40.610230641395056" lon="15.025113546492626"><ele>158.0</ele><time>2026-05-02T07:43:25.982Z</time></trkpt><trkpt lat="40.61033011558071" lon="15.025096064809931"><ele>158.0</ele><time>2026-05-02T07:43:27.982Z</time></trkpt><trkpt lat="40.61044056536473" lon="15.025076654268203"><ele>158.0</ele><time>2026-05-02T07:43:29.982Z</time></trkpt><trkpt lat="40.610548159662635" lon="15.025037445934549"><ele>158.0</ele><time>2026-05-02T07:43:31.982Z</time></trkpt><trkpt lat="40.610652686948086" lon="15.025017071478862"><ele>159.0</ele><time>2026-05-02T07:43:33.981Z</time></trkpt><trkpt lat="40.610742893821744" lon="15.025021815576162"><ele>160.0</ele><time>2026-05-02T07:43:35.981Z</time></trkpt><trkpt lat="40.610820344070646" lon="15.025010914586463"><ele>161.0</ele><time>2026-05-02T07:43:37.981Z</time></trkpt><trkpt lat="40.61089660874845" lon="15.02502355587657"><ele>162.0</ele><time>2026-05-02T07:43:39.981Z</time></trkpt><trkpt lat="40.61094827123284" lon="15.025124560096682"><ele>163.0</ele><time>2026-05-02T07:43:41.981Z</time></trkpt><trkpt lat="40.61099108182799" lon="15.025263376397891"><ele>163.0</ele><time>2026-05-02T07:43:43.981Z</time></trkpt><trkpt lat="40.61101256465774" lon="15.025343032444987"><ele>163.0</ele><time>2026-05-02T07:43:44.981Z</time></trkpt><trkpt lat="40.61102975801784" lon="15.02542721199358"><ele>163.0</ele><time>2026-05-02T07:43:45.981Z</time></trkpt><trkpt lat="40.61106931638099" lon="15.025511187203646"><ele>163.0</ele><time>2026-05-02T07:43:46.981Z</time></trkpt><trkpt lat="40.6110987182719" lon="15.025600324320353"><ele>163.0</ele><time>2026-05-02T07:43:47.981Z</time></trkpt><trkpt lat="40.61111639825039" lon="15.025695728078587"><ele>163.0</ele><time>2026-05-02T07:43:48.981Z</time></trkpt><trkpt lat="40.61114541432464" lon="15.025771096908482"><ele>163.0</ele><time>2026-05-02T07:43:49.981Z</time></trkpt><trkpt lat="40.611174059043286" lon="15.025917595938767"><ele>166.4</ele><time>2026-05-02T07:43:51.981Z</time></trkpt><trkpt lat="40.61119304281847" lon="15.02605958419687"><ele>169.8</ele><time>2026-05-02T07:43:53.981Z</time></trkpt><trkpt lat="40.61124052631308" lon="15.026159216208569"><ele>173.2</ele><time>2026-05-02T07:43:55.981Z</time></trkpt><trkpt lat="40.611322024657184" lon="15.026187687617103"><ele>176.6</ele><time>2026-05-02T07:43:57.981Z</time></trkpt><trkpt lat="40.61141799749837" lon="15.026177317841107"><ele>180.0</ele><time>2026-05-02T07:43:59.981Z</time></trkpt><trkpt lat="40.61150308970755" lon="15.026028880802503"><ele>180.0</ele><time>2026-05-02T07:44:01.981Z</time></trkpt><trkpt lat="40.611491779579396" lon="15.025848214693134"><ele>180.0</ele><time>2026-05-02T07:44:03.98Z</time></trkpt><trkpt lat="40.611477249589555" lon="15.02575733018702"><ele>180.0</ele><time>2026-05-02T07:44:04.98Z</time></trkpt><trkpt lat="40.611450930751" lon="15.025680067239392"><ele>180.0</ele><time>2026-05-02T07:44:05.98Z</time></trkpt><trkpt lat="40.611439317685594" lon="15.02559091176738"><ele>180.0</ele><time>2026-05-02T07:44:06.98Z</time></trkpt><trkpt lat="40.61142783707843" lon="15.0254964371778"><ele>180.0</ele><time>2026-05-02T07:44:07.98Z</time></trkpt><trkpt lat="40.611408504160906" lon="15.025393201154117"><ele>181.16666666666666</ele><time>2026-05-02T07:44:08.98Z</time></trkpt><trkpt lat="40.61139657069237" lon="15.025295486338534"><ele>182.33333333333334</ele><time>2026-05-02T07:44:09.98Z</time></trkpt><trkpt lat="40.61138525760575" lon="15.025201639019254"><ele>183.5</ele><time>2026-05-02T07:44:10.98Z</time></trkpt><trkpt lat="40.61137737081953" lon="15.025096925623371"><ele>184.66666666666669</ele><time>2026-05-02T07:44:11.98Z</time></trkpt><trkpt lat="40.611364487189405" lon="15.024991615702401"><ele>185.83333333333334</ele><time>2026-05-02T07:44:12.98Z</time></trkpt><trkpt lat="40.611368597304725" lon="15.024892021789386"><ele>187.0</ele><time>2026-05-02T07:44:13.98Z</time></trkpt><trkpt lat="40.61136018654835" lon="15.024802504359116"><ele>187.28571428571428</ele><time>2026-05-02T07:44:14.98Z</time></trkpt><trkpt lat="40.61135865391137" lon="15.024717106657691"><ele>187.57142857142858</ele><time>2026-05-02T07:44:15.98Z</time></trkpt><trkpt lat="40.61136159504803" lon="15.024625779568119"><ele>187.85714285714286</ele><time>2026-05-02T07:44:16.98Z</time></trkpt><trkpt lat="40.61135104459954" lon="15.024540925887203"><ele>188.14285714285714</ele><time>2026-05-02T07:44:17.98Z</time></trkpt><trkpt lat="40.6113581548633" lon="15.02445213692749"><ele>188.42857142857144</ele><time>2026-05-02T07:44:18.98Z</time></trkpt><trkpt lat="40.61138119707228" lon="15.024360556084687"><ele>188.71428571428572</ele><time>2026-05-02T07:44:19.98Z</time></trkpt><trkpt lat="40.61137403421659" lon="15.024260911235338"><ele>189.0</ele><time>2026-05-02T07:44:20.98Z</time></trkpt><trkpt lat="40.61139615727484" lon="15.024168036318578"><ele>189.0</ele><time>2026-05-02T07:44:21.98Z</time></trkpt><trkpt lat="40.61138983372109" lon="15.024070608936347"><ele>189.0</ele><time>2026-05-02T07:44:22.98Z</time></trkpt><trkpt lat="40.6113995812271" lon="15.023974893219501"><ele>189.0</ele><time>2026-05-02T07:44:23.98Z</time></trkpt><trkpt lat="40.61140041469281" lon="15.023891916109788"><ele>189.0</ele><time>2026-05-02T07:44:24.98Z</time></trkpt><trkpt lat="40.61142304792498" lon="15.02380080857247"><ele>189.0</ele><time>2026-05-02T07:44:25.98Z</time></trkpt><trkpt lat="40.61143053637348" lon="15.02370352075848"><ele>189.0</ele><time>2026-05-02T07:44:26.98Z</time></trkpt><trkpt lat="40.61143867645322" lon="15.02360052567146"><ele>189.0</ele><time>2026-05-02T07:44:27.98Z</time></trkpt><trkpt lat="40.61144699022356" lon="15.023495332912896"><ele>189.0</ele><time>2026-05-02T07:44:28.98Z</time></trkpt><trkpt lat="40.61145613898727" lon="15.023384097123737"><ele>189.0</ele><time>2026-05-02T07:44:29.98Z</time></trkpt><trkpt lat="40.611448760490426" lon="15.023278106113452"><ele>189.0</ele><time>2026-05-02T07:44:30.98Z</time></trkpt><trkpt lat="40.61146425328866" lon="15.023183355872723"><ele>189.0</ele><time>2026-05-02T07:44:31.98Z</time></trkpt><trkpt lat="40.611469580234775" lon="15.023089239140138"><ele>189.0</ele><time>2026-05-02T07:44:32.979Z</time></trkpt><trkpt lat="40.61147650921175" lon="15.022975921647289"><ele>189.0</ele><time>2026-05-02T07:44:33.979Z</time></trkpt><trkpt lat="40.61150419520767" lon="15.022857680944647"><ele>189.0</ele><time>2026-05-02T07:44:34.979Z</time></trkpt><trkpt lat="40.61151725730699" lon="15.022730675327363"><ele>189.0</ele><time>2026-05-02T07:44:35.979Z</time></trkpt><trkpt lat="40.61153008598793" lon="15.022605939322801"><ele>189.0</ele><time>2026-05-02T07:44:36.979Z</time></trkpt><trkpt lat="40.61152723181174" lon="15.02247320123815"><ele>189.0</ele><time>2026-05-02T07:44:37.979Z</time></trkpt><trkpt lat="40.61154764069527" lon="15.022339255697599"><ele>189.0</ele><time>2026-05-02T07:44:38.979Z</time></trkpt><trkpt lat="40.61155594216498" lon="15.02220786785276"><ele>189.0</ele><time>2026-05-02T07:44:39.979Z</time></trkpt><trkpt lat="40.611555794624195" lon="15.022088731859572"><ele>189.0</ele><time>2026-05-02T07:44:40.979Z</time></trkpt><trkpt lat="40.61155793559456" lon="15.02195462009426"><ele>189.0</ele><time>2026-05-02T07:44:41.979Z</time></trkpt><trkpt lat="40.61155855099846" lon="15.021824615200787"><ele>189.0</ele><time>2026-05-02T07:44:42.979Z</time></trkpt><trkpt lat="40.61157710723114" lon="15.021690744718525"><ele>189.0</ele><time>2026-05-02T07:44:43.979Z</time></trkpt><trkpt lat="40.611579640255954" lon="15.021559991152314"><ele>189.16666666666666</ele><time>2026-05-02T07:44:44.979Z</time></trkpt><trkpt lat="40.61156526481988" lon="15.021442570663746"><ele>189.33333333333334</ele><time>2026-05-02T07:44:45.979Z</time></trkpt><trkpt lat="40.61157402518777" lon="15.021327629394909"><ele>189.5</ele><time>2026-05-02T07:44:46.979Z</time></trkpt><trkpt lat="40.61160423624447" lon="15.021239844995383"><ele>189.66666666666669</ele><time>2026-05-02T07:44:47.979Z</time></trkpt><trkpt lat="40.61162616666413" lon="15.021116732268338"><ele>189.83333333333334</ele><time>2026-05-02T07:44:48.979Z</time></trkpt><trkpt lat="40.61164049306794" lon="15.020985193892564"><ele>190.0</ele><time>2026-05-02T07:44:49.982Z</time></trkpt><trkpt lat="40.61164468188425" lon="15.0208504565189"><ele>189.4</ele><time>2026-05-02T07:44:50.981Z</time></trkpt><trkpt lat="40.61167332491722" lon="15.020717429796042"><ele>188.8</ele><time>2026-05-02T07:44:51.981Z</time></trkpt><trkpt lat="40.61169520245731" lon="15.020583259922855"><ele>188.2</ele><time>2026-05-02T07:44:52.981Z</time></trkpt><trkpt lat="40.61172095475974" lon="15.020446526612345"><ele>187.6</ele><time>2026-05-02T07:44:53.981Z</time></trkpt><trkpt lat="40.61173065191509" lon="15.020306243224674"><ele>187.0</ele><time>2026-05-02T07:44:54.981Z</time></trkpt><trkpt lat="40.611763410514754" lon="15.020175213998167"><ele>187.0</ele><time>2026-05-02T07:44:55.982Z</time></trkpt><trkpt lat="40.61180261009182" lon="15.020038743923992"><ele>187.0</ele><time>2026-05-02T07:44:56.981Z</time></trkpt><trkpt lat="40.611834318825736" lon="15.019917298940417"><ele>187.0</ele><time>2026-05-02T07:44:57.981Z</time></trkpt><trkpt lat="40.611868916088355" lon="15.019803334318988"><ele>187.0</ele><time>2026-05-02T07:44:58.981Z</time></trkpt><trkpt lat="40.61190358698415" lon="15.019699153602694"><ele>187.0</ele><time>2026-05-02T07:44:59.982Z</time></trkpt><trkpt lat="40.61194129456224" lon="15.01959712703991"><ele>185.83333333333334</ele><time>2026-05-02T07:45:00.982Z</time></trkpt><trkpt lat="40.61198391316866" lon="15.019513408313644"><ele>184.66666666666669</ele><time>2026-05-02T07:45:01.981Z</time></trkpt><trkpt lat="40.61203208703987" lon="15.019428757170889"><ele>183.5</ele><time>2026-05-02T07:45:02.981Z</time></trkpt><trkpt lat="40.6120828504266" lon="15.019354411550845"><ele>182.33333333333334</ele><time>2026-05-02T07:45:03.981Z</time></trkpt><trkpt lat="40.61213702301585" lon="15.01929343423031"><ele>181.16666666666666</ele><time>2026-05-02T07:45:04.981Z</time></trkpt><trkpt lat="40.61219644020027" lon="15.019240098471371"><ele>180.0</ele><time>2026-05-02T07:45:05.981Z</time></trkpt><trkpt lat="40.61230880428433" lon="15.019222601650556"><ele>183.8</ele><time>2026-05-02T07:45:07.981Z</time></trkpt><trkpt lat="40.61242835607028" lon="15.019233277891878"><ele>187.6</ele><time>2026-05-02T07:45:09.981Z</time></trkpt><trkpt lat="40.6125433826008" lon="15.019303096967992"><ele>191.39999999999998</ele><time>2026-05-02T07:45:11.981Z</time></trkpt><trkpt lat="40.6125923065795" lon="15.01935647556203"><ele>195.2</ele><time>2026-05-02T07:45:12.981Z</time></trkpt><trkpt lat="40.612644652339796" lon="15.019416098127836"><ele>199.0</ele><time>2026-05-02T07:45:13.981Z</time></trkpt><trkpt lat="40.61269719461746" lon="15.019479724592172"><ele>198.99999999999997</ele><time>2026-05-02T07:45:14.981Z</time></trkpt><trkpt lat="40.61275151236056" lon="15.019557247390773"><ele>199.0</ele><time>2026-05-02T07:45:15.981Z</time></trkpt><trkpt lat="40.61281700496282" lon="15.019652084097011"><ele>199.0</ele><time>2026-05-02T07:45:16.981Z</time></trkpt><trkpt lat="40.61289129888949" lon="15.019739649790349"><ele>199.0</ele><time>2026-05-02T07:45:17.981Z</time></trkpt><trkpt lat="40.612947091492494" lon="15.019816692743582"><ele>198.99999999999997</ele><time>2026-05-02T07:45:18.981Z</time></trkpt><trkpt lat="40.612995262037145" lon="15.019886402384245"><ele>199.0</ele><time>2026-05-02T07:45:19.981Z</time></trkpt><trkpt lat="40.61304629210937" lon="15.019953347178417"><ele>202.0</ele><time>2026-05-02T07:45:20.981Z</time></trkpt><trkpt lat="40.61313915737814" lon="15.020010756890057"><ele>205.0</ele><time>2026-05-02T07:45:22.98Z</time></trkpt><trkpt lat="40.61323029663824" lon="15.019994684514907"><ele>207.99999999999997</ele><time>2026-05-02T07:45:24.98Z</time></trkpt><trkpt lat="40.6133218058031" lon="15.019907737276336"><ele>211.0</ele><time>2026-05-02T07:45:26.98Z</time></trkpt><trkpt lat="40.6133663023385" lon="15.01981338299628"><ele>214.0</ele><time>2026-05-02T07:45:27.98Z</time></trkpt><trkpt lat="40.61339826385612" lon="15.019673953119273"><ele>213.79999999999998</ele><time>2026-05-02T07:45:28.98Z</time></trkpt><trkpt lat="40.6134128363234" lon="15.019540090448066"><ele>213.59999999999997</ele><time>2026-05-02T07:45:29.98Z</time></trkpt><trkpt lat="40.61341768642164" lon="15.019395523042828"><ele>213.4</ele><time>2026-05-02T07:45:30.98Z</time></trkpt><trkpt lat="40.61341066956336" lon="15.019255017866003"><ele>213.2</ele><time>2026-05-02T07:45:31.98Z</time></trkpt><trkpt lat="40.61341432778322" lon="15.019105614954034"><ele>213.0</ele><time>2026-05-02T07:45:32.98Z</time></trkpt><trkpt lat="40.613415132291145" lon="15.018959200851087"><ele>213.0</ele><time>2026-05-02T07:45:33.98Z</time></trkpt><trkpt lat="40.61342173388987" lon="15.018810484274312"><ele>213.0</ele><time>2026-05-02T07:45:34.98Z</time></trkpt><trkpt lat="40.61342991024511" lon="15.018656970537487"><ele>213.0</ele><time>2026-05-02T07:45:35.98Z</time></trkpt><trkpt lat="40.613435932817794" lon="15.018502934765342"><ele>213.0</ele><time>2026-05-02T07:45:36.98Z</time></trkpt><trkpt lat="40.61344504623243" lon="15.01834601118819"><ele>212.60000000000002</ele><time>2026-05-02T07:45:37.98Z</time></trkpt><trkpt lat="40.613448946495005" lon="15.01819206713247"><ele>212.20000000000002</ele><time>2026-05-02T07:45:38.98Z</time></trkpt><trkpt lat="40.613471275383205" lon="15.018049571987728"><ele>211.8</ele><time>2026-05-02T07:45:39.98Z</time></trkpt><trkpt lat="40.613477574053974" lon="15.017902698403734"><ele>211.4</ele><time>2026-05-02T07:45:40.98Z</time></trkpt><trkpt lat="40.61348374717341" lon="15.017758752463678"><ele>211.0</ele><time>2026-05-02T07:45:41.98Z</time></trkpt><trkpt lat="40.613473608077015" lon="15.017616418136695"><ele>211.0</ele><time>2026-05-02T07:45:42.98Z</time></trkpt><trkpt lat="40.61347952638846" lon="15.01748651795061"><ele>211.0</ele><time>2026-05-02T07:45:43.98Z</time></trkpt><trkpt lat="40.61348303455006" lon="15.017362509899835"><ele>211.0</ele><time>2026-05-02T07:45:44.98Z</time></trkpt><trkpt lat="40.61350161665043" lon="15.017258797729006"><ele>211.0</ele><time>2026-05-02T07:45:45.98Z</time></trkpt><trkpt lat="40.613491274535114" lon="15.017144122715472"><ele>211.0</ele><time>2026-05-02T07:45:46.98Z</time></trkpt><trkpt lat="40.61349829635707" lon="15.01702335312458"><ele>211.83333333333331</ele><time>2026-05-02T07:45:47.98Z</time></trkpt><trkpt lat="40.6135013434907" lon="15.016895049281278"><ele>212.66666666666666</ele><time>2026-05-02T07:45:48.98Z</time></trkpt><trkpt lat="40.61349531594619" lon="15.016771373831148"><ele>213.5</ele><time>2026-05-02T07:45:49.98Z</time></trkpt><trkpt lat="40.6134905219314" lon="15.016669935410311"><ele>214.33333333333331</ele><time>2026-05-02T07:45:50.98Z</time></trkpt><trkpt lat="40.61350728462267" lon="15.016586972085546"><ele>215.16666666666666</ele><time>2026-05-02T07:45:51.979Z</time></trkpt><trkpt lat="40.613517841214694" lon="15.016457493903182"><ele>216.0</ele><time>2026-05-02T07:45:53.979Z</time></trkpt><trkpt lat="40.61356564722335" lon="15.016362429221394"><ele>216.33333333333334</ele><time>2026-05-02T07:45:55.979Z</time></trkpt><trkpt lat="40.61365435341439" lon="15.016376472021909"><ele>216.66666666666669</ele><time>2026-05-02T07:45:57.979Z</time></trkpt><trkpt lat="40.61370591217784" lon="15.016428093266798"><ele>217.0</ele><time>2026-05-02T07:45:59.979Z</time></trkpt><trkpt lat="40.61375934657654" lon="15.016552037247546"><ele>217.33333333333334</ele><time>2026-05-02T07:46:01.979Z</time></trkpt><trkpt lat="40.61380595094071" lon="15.016696459342999"><ele>217.66666666666669</ele><time>2026-05-02T07:46:03.979Z</time></trkpt><trkpt lat="40.613835131647626" lon="15.016775292553284"><ele>218.0</ele><time>2026-05-02T07:46:04.979Z</time></trkpt><trkpt lat="40.61386043468979" lon="15.016862091584409"><ele>222.00000000000003</ele><time>2026-05-02T07:46:05.979Z</time></trkpt><trkpt lat="40.61386930114823" lon="15.016953615083324"><ele>226.0</ele><time>2026-05-02T07:46:06.979Z</time></trkpt><trkpt lat="40.613892503952314" lon="15.017046715534166"><ele>230.0</ele><time>2026-05-02T07:46:07.979Z</time></trkpt><trkpt lat="40.613933605936" lon="15.017145495567409"><ele>234.0</ele><time>2026-05-02T07:46:08.979Z</time></trkpt><trkpt lat="40.61396014169217" lon="15.017249131919165"><ele>238.00000000000003</ele><time>2026-05-02T07:46:09.979Z</time></trkpt><trkpt lat="40.61398843144748" lon="15.017348407691633"><ele>242.0</ele><time>2026-05-02T07:46:10.979Z</time></trkpt><trkpt lat="40.61403897456797" lon="15.017504526558493"><ele>242.00000000000003</ele><time>2026-05-02T07:46:12.979Z</time></trkpt><trkpt lat="40.61406851788105" lon="15.017597746183785"><ele>242.0</ele><time>2026-05-02T07:46:13.979Z</time></trkpt><trkpt lat="40.614096535618394" lon="15.017681212330693"><ele>242.0</ele><time>2026-05-02T07:46:14.979Z</time></trkpt><trkpt lat="40.614125697048465" lon="15.017763598072003"><ele>242.0</ele><time>2026-05-02T07:46:15.979Z</time></trkpt><trkpt lat="40.61415779837565" lon="15.01785384315338"><ele>242.00000000000003</ele><time>2026-05-02T07:46:16.979Z</time></trkpt><trkpt lat="40.614194134815655" lon="15.017949941288158"><ele>242.0</ele><time>2026-05-02T07:46:17.979Z</time></trkpt><trkpt lat="40.61423384922157" lon="15.018045191275476"><ele>242.0</ele><time>2026-05-02T07:46:18.979Z</time></trkpt><trkpt lat="40.61427550525794" lon="15.018136218452238"><ele>241.99999999999997</ele><time>2026-05-02T07:46:19.979Z</time></trkpt><trkpt lat="40.614310027565026" lon="15.018216220299445"><ele>242.0</ele><time>2026-05-02T07:46:20.978Z</time></trkpt><trkpt lat="40.61432164791181" lon="15.018307283042837"><ele>242.0</ele><time>2026-05-02T07:46:21.978Z</time></trkpt><trkpt lat="40.614343720685085" lon="15.018393180632083"><ele>241.99999999999997</ele><time>2026-05-02T07:46:22.978Z</time></trkpt><trkpt lat="40.614363568806766" lon="15.018487278006132"><ele>242.0</ele><time>2026-05-02T07:46:23.978Z</time></trkpt><trkpt lat="40.61438175616782" lon="15.018585672420176"><ele>242.0</ele><time>2026-05-02T07:46:24.978Z</time></trkpt><trkpt lat="40.61441283271647" lon="15.018672290093779"><ele>241.16666666666669</ele><time>2026-05-02T07:46:25.978Z</time></trkpt><trkpt lat="40.614422409230464" lon="15.01876932066352"><ele>240.33333333333334</ele><time>2026-05-02T07:46:26.978Z</time></trkpt><trkpt lat="40.614438593895024" lon="15.018867267878907"><ele>239.5</ele><time>2026-05-02T07:46:27.978Z</time></trkpt><trkpt lat="40.61450009306237" lon="15.01900633885696"><ele>238.66666666666669</ele><time>2026-05-02T07:46:29.978Z</time></trkpt><trkpt lat="40.61451732265464" lon="15.019096839919051"><ele>237.83333333333334</ele><time>2026-05-02T07:46:30.978Z</time></trkpt><trkpt lat="40.61454935716714" lon="15.019184521198758"><ele>237.0</ele><time>2026-05-02T07:46:31.978Z</time></trkpt><trkpt lat="40.61458339081702" lon="15.019277674242709"><ele>242.0</ele><time>2026-05-02T07:46:32.978Z</time></trkpt><trkpt lat="40.61462304992188" lon="15.019386224698321"><ele>247.0</ele><time>2026-05-02T07:46:33.978Z</time></trkpt><trkpt lat="40.61467705867088" lon="15.019483531989495"><ele>252.0</ele><time>2026-05-02T07:46:34.978Z</time></trkpt><trkpt lat="40.61471383700105" lon="15.019604234566462"><ele>257.0</ele><time>2026-05-02T07:46:35.978Z</time></trkpt><trkpt lat="40.61475769216996" lon="15.01971919776505"><ele>262.0</ele><time>2026-05-02T07:46:36.978Z</time></trkpt><trkpt lat="40.61479678466408" lon="15.019819281437606"><ele>262.0</ele><time>2026-05-02T07:46:37.978Z</time></trkpt><trkpt lat="40.61482752685611" lon="15.019938136855659"><ele>262.0</ele><time>2026-05-02T07:46:38.978Z</time></trkpt><trkpt lat="40.614885385082026" lon="15.020046922797404"><ele>262.0</ele><time>2026-05-02T07:46:39.978Z</time></trkpt><trkpt lat="40.61493443691521" lon="15.020181777752843"><ele>262.0</ele><time>2026-05-02T07:46:40.978Z</time></trkpt><trkpt lat="40.61498051105371" lon="15.020309830780239"><ele>262.0</ele><time>2026-05-02T07:46:41.978Z</time></trkpt><trkpt lat="40.6150205641214" lon="15.020441173488758"><ele>261.0</ele><time>2026-05-02T07:46:42.978Z</time></trkpt><trkpt lat="40.61506490665567" lon="15.020554520361495"><ele>260.0</ele><time>2026-05-02T07:46:43.978Z</time></trkpt><trkpt lat="40.61512570871045" lon="15.020668780873672"><ele>259.0</ele><time>2026-05-02T07:46:44.978Z</time></trkpt><trkpt lat="40.6151732939345" lon="15.02080804708361"><ele>258.0</ele><time>2026-05-02T07:46:45.978Z</time></trkpt><trkpt lat="40.61521642448427" lon="15.02092057061587"><ele>257.0</ele><time>2026-05-02T07:46:46.978Z</time></trkpt><trkpt lat="40.615272327870706" lon="15.021036503341303"><ele>261.6</ele><time>2026-05-02T07:46:47.978Z</time></trkpt><trkpt lat="40.61532461178681" lon="15.021155623342787"><ele>266.2</ele><time>2026-05-02T07:46:48.978Z</time></trkpt><trkpt lat="40.61535575772071" lon="15.021267807420271"><ele>270.8</ele><time>2026-05-02T07:46:49.978Z</time></trkpt><trkpt lat="40.61539699679544" lon="15.021367000113093"><ele>275.4</ele><time>2026-05-02T07:46:50.977Z</time></trkpt><trkpt lat="40.6154558372005" lon="15.021461373322683"><ele>280.0</ele><time>2026-05-02T07:46:51.977Z</time></trkpt><trkpt lat="40.615491928504525" lon="15.021549674863234"><ele>280.0</ele><time>2026-05-02T07:46:52.977Z</time></trkpt><trkpt lat="40.61554899879067" lon="15.021656226685476"><ele>280.0</ele><time>2026-05-02T07:46:54.977Z</time></trkpt><trkpt lat="40.61561635786023" lon="15.021673396482454"><ele>280.0</ele><time>2026-05-02T07:46:56.98Z</time></trkpt><trkpt lat="40.61572036489469" lon="15.02162188470136"><ele>280.0</ele><time>2026-05-02T07:46:58.98Z</time></trkpt><trkpt lat="40.61574570416374" lon="15.021518260876709"><ele>280.0</ele><time>2026-05-02T07:46:59.98Z</time></trkpt><trkpt lat="40.61572970547973" lon="15.021436948276902"><ele>280.0</ele><time>2026-05-02T07:47:00.98Z</time></trkpt><trkpt lat="40.61569200775948" lon="15.021333657779955"><ele>280.0</ele><time>2026-05-02T07:47:01.98Z</time></trkpt><trkpt lat="40.61566916707882" lon="15.021243257884606"><ele>280.0</ele><time>2026-05-02T07:47:02.981Z</time></trkpt><trkpt lat="40.61564575315392" lon="15.021154695853093"><ele>280.0</ele><time>2026-05-02T07:47:03.981Z</time></trkpt><trkpt lat="40.61562069744765" lon="15.021059907770125"><ele>280.0</ele><time>2026-05-02T07:47:04.98Z</time></trkpt><trkpt lat="40.615593822749425" lon="15.020964597866717"><ele>280.0</ele><time>2026-05-02T07:47:05.98Z</time></trkpt><trkpt lat="40.615576036056716" lon="15.020839341172067"><ele>280.0</ele><time>2026-05-02T07:47:06.98Z</time></trkpt><trkpt lat="40.61556414209724" lon="15.020706124689143"><ele>281.3333333333333</ele><time>2026-05-02T07:47:07.98Z</time></trkpt><trkpt lat="40.6155406820206" lon="15.02059489021707"><ele>282.66666666666663</ele><time>2026-05-02T07:47:08.98Z</time></trkpt><trkpt lat="40.61554907197979" lon="15.020486683570104"><ele>284.0</ele><time>2026-05-02T07:47:09.98Z</time></trkpt><trkpt lat="40.61552575768599" lon="15.020371770691844"><ele>285.3333333333333</ele><time>2026-05-02T07:47:10.98Z</time></trkpt><trkpt lat="40.61552553686524" lon="15.020251844071216"><ele>286.6666666666667</ele><time>2026-05-02T07:47:11.98Z</time></trkpt><trkpt lat="40.615518091693325" lon="15.020135099276727"><ele>288.0</ele><time>2026-05-02T07:47:12.98Z</time></trkpt><trkpt lat="40.615512382269856" lon="15.020016896460163"><ele>288.8</ele><time>2026-05-02T07:47:13.98Z</time></trkpt><trkpt lat="40.61550391327081" lon="15.019907410111298"><ele>289.6</ele><time>2026-05-02T07:47:14.98Z</time></trkpt><trkpt lat="40.61551703712968" lon="15.019815214890793"><ele>290.4</ele><time>2026-05-02T07:47:15.98Z</time></trkpt><trkpt lat="40.61551263744995" lon="15.019634068243995"><ele>291.2</ele><time>2026-05-02T07:47:17.979Z</time></trkpt><trkpt lat="40.61549595782709" lon="15.019521480383128"><ele>292.0</ele><time>2026-05-02T07:47:18.979Z</time></trkpt><trkpt lat="40.61551588350388" lon="15.019379449944907"><ele>292.0</ele><time>2026-05-02T07:47:19.979Z</time></trkpt><trkpt lat="40.61552195927708" lon="15.01923626525953"><ele>292.0</ele><time>2026-05-02T07:47:20.979Z</time></trkpt><trkpt lat="40.615512004646234" lon="15.01908809433975"><ele>292.0</ele><time>2026-05-02T07:47:21.979Z</time></trkpt><trkpt lat="40.61552204219892" lon="15.018947984024518"><ele>292.0</ele><time>2026-05-02T07:47:22.979Z</time></trkpt><trkpt lat="40.615539716184465" lon="15.01881429513633"><ele>292.0</ele><time>2026-05-02T07:47:23.979Z</time></trkpt><trkpt lat="40.61556357745876" lon="15.018689417099901"><ele>292.5</ele><time>2026-05-02T07:47:24.979Z</time></trkpt><trkpt lat="40.61558048312743" lon="15.018576320756447"><ele>293.0</ele><time>2026-05-02T07:47:25.979Z</time></trkpt><trkpt lat="40.61559239681976" lon="15.018471855971098"><ele>293.5</ele><time>2026-05-02T07:47:26.979Z</time></trkpt><trkpt lat="40.61561184763996" lon="15.018377148840212"><ele>294.0</ele><time>2026-05-02T07:47:27.979Z</time></trkpt><trkpt lat="40.61563632821879" lon="15.018274037170537"><ele>294.5</ele><time>2026-05-02T07:47:28.979Z</time></trkpt><trkpt lat="40.61566906539349" lon="15.018173058544638"><ele>295.0</ele><time>2026-05-02T07:47:29.979Z</time></trkpt><trkpt lat="40.61571477505536" lon="15.018082395776803"><ele>295.8333333333333</ele><time>2026-05-02T07:47:30.979Z</time></trkpt><trkpt lat="40.615760476271724" lon="15.018001741214157"><ele>296.66666666666663</ele><time>2026-05-02T07:47:31.979Z</time></trkpt><trkpt lat="40.6158058313428" lon="15.01792766793728"><ele>297.5</ele><time>2026-05-02T07:47:32.979Z</time></trkpt><trkpt lat="40.61584610596399" lon="15.017849011591217"><ele>298.3333333333333</ele><time>2026-05-02T07:47:33.979Z</time></trkpt><trkpt lat="40.61590045718488" lon="15.017715924565206"><ele>299.1666666666667</ele><time>2026-05-02T07:47:35.979Z</time></trkpt><trkpt lat="40.61593085936335" lon="15.017635347154055"><ele>300.0</ele><time>2026-05-02T07:47:36.979Z</time></trkpt><trkpt lat="40.61592696820051" lon="15.01753381775137"><ele>300.6666666666667</ele><time>2026-05-02T07:47:37.979Z</time></trkpt><trkpt lat="40.61590422618032" lon="15.017433338817321"><ele>301.3333333333333</ele><time>2026-05-02T07:47:38.979Z</time></trkpt><trkpt lat="40.61589377326557" lon="15.017334724571311"><ele>302.0</ele><time>2026-05-02T07:47:39.979Z</time></trkpt><trkpt lat="40.615882284183115" lon="15.017224487675986"><ele>302.66666666666663</ele><time>2026-05-02T07:47:40.979Z</time></trkpt><trkpt lat="40.61586986904357" lon="15.017123219916265"><ele>303.3333333333333</ele><time>2026-05-02T07:47:41.979Z</time></trkpt><trkpt lat="40.615871572767176" lon="15.017019510505223"><ele>304.0</ele><time>2026-05-02T07:47:42.979Z</time></trkpt><trkpt lat="40.61586186848265" lon="15.0169190827597"><ele>304.0</ele><time>2026-05-02T07:47:43.979Z</time></trkpt><trkpt lat="40.61584186029685" lon="15.01680929059924"><ele>304.0</ele><time>2026-05-02T07:47:44.979Z</time></trkpt><trkpt lat="40.61583172913079" lon="15.016696898041163"><ele>304.0</ele><time>2026-05-02T07:47:45.979Z</time></trkpt><trkpt lat="40.61582306641108" lon="15.016587008379117"><ele>304.0</ele><time>2026-05-02T07:47:46.979Z</time></trkpt><trkpt lat="40.61583275714638" lon="15.016481270525208"><ele>304.0</ele><time>2026-05-02T07:47:47.978Z</time></trkpt><trkpt lat="40.61581673145559" lon="15.016387859897618"><ele>304.0</ele><time>2026-05-02T07:47:48.978Z</time></trkpt><trkpt lat="40.6158072202205" lon="15.01623186043692"><ele>304.2</ele><time>2026-05-02T07:47:50.978Z</time></trkpt><trkpt lat="40.61579708660415" lon="15.016074616799145"><ele>304.4</ele><time>2026-05-02T07:47:52.978Z</time></trkpt><trkpt lat="40.615804326187444" lon="15.015970170235471"><ele>304.6</ele><time>2026-05-02T07:47:54.978Z</time></trkpt><trkpt lat="40.61583774463667" lon="15.015893222950263"><ele>304.8</ele><time>2026-05-02T07:47:56.978Z</time></trkpt><trkpt lat="40.615926833314916" lon="15.015872648194797"><ele>305.0</ele><time>2026-05-02T07:47:58.978Z</time></trkpt><trkpt lat="40.61601309025177" lon="15.0159301436876"><ele>305.0</ele><time>2026-05-02T07:48:00.978Z</time></trkpt><trkpt lat="40.6160907906606" lon="15.016019007584234"><ele>305.0</ele><time>2026-05-02T07:48:02.978Z</time></trkpt><trkpt lat="40.616141342934846" lon="15.01607999632015"><ele>305.0</ele><time>2026-05-02T07:48:04.978Z</time></trkpt><trkpt lat="40.61623620529171" lon="15.016143824345123"><ele>305.0</ele><time>2026-05-02T07:48:06.978Z</time></trkpt><trkpt lat="40.61628911918274" lon="15.016189720802506"><ele>305.0</ele><time>2026-05-02T07:48:07.978Z</time></trkpt><trkpt lat="40.61634574545255" lon="15.016238366389056"><ele>305.0</ele><time>2026-05-02T07:48:08.978Z</time></trkpt><trkpt lat="40.61643305085114" lon="15.016318472942684"><ele>308.0</ele><time>2026-05-02T07:48:10.978Z</time></trkpt><trkpt lat="40.61650176695738" lon="15.016381523063236"><ele>311.0</ele><time>2026-05-02T07:48:12.978Z</time></trkpt><trkpt lat="40.61661773149394" lon="15.016450587257712"><ele>314.0</ele><time>2026-05-02T07:48:18.977Z</time></trkpt><trkpt lat="40.616687279020205" lon="15.016490367624995"><ele>317.0</ele><time>2026-05-02T07:48:20.977Z</time></trkpt><trkpt lat="40.61678664903432" lon="15.01648684624852"><ele>320.0</ele><time>2026-05-02T07:48:22.977Z</time></trkpt><trkpt lat="40.616895037763825" lon="15.016455767121304"><ele>320.0</ele><time>2026-05-02T07:48:24.977Z</time></trkpt><trkpt lat="40.61699219389075" lon="15.016454615180825"><ele>320.0</ele><time>2026-05-02T07:48:26.977Z</time></trkpt><trkpt lat="40.61706717056566" lon="15.01645651021342"><ele>320.0</ele><time>2026-05-02T07:48:29.977Z</time></trkpt><trkpt lat="40.61703609741923" lon="15.01629219199873"><ele>320.0</ele><time>2026-05-02T07:48:30.977Z</time></trkpt><trkpt lat="40.61703891972561" lon="15.016157904922915"><ele>320.0</ele><time>2026-05-02T07:48:32.977Z</time></trkpt><trkpt lat="40.61703650337124" lon="15.016016085810913"><ele>320.0</ele><time>2026-05-02T07:48:34.977Z</time></trkpt><trkpt lat="40.61701142646853" lon="15.01592525490799"><ele>320.0</ele><time>2026-05-02T07:48:35.977Z</time></trkpt><trkpt lat="40.61699612496954" lon="15.01581968723157"><ele>320.0</ele><time>2026-05-02T07:48:36.977Z</time></trkpt><trkpt lat="40.61699317315615" lon="15.015698401031793"><ele>320.0</ele><time>2026-05-02T07:48:37.977Z</time></trkpt><trkpt lat="40.61695878380679" lon="15.01558416103316"><ele>320.0</ele><time>2026-05-02T07:48:38.977Z</time></trkpt><trkpt lat="40.61694818488881" lon="15.01547259895578"><ele>320.0</ele><time>2026-05-02T07:48:39.977Z</time></trkpt><trkpt lat="40.61694734852205" lon="15.015357154935984"><ele>320.4</ele><time>2026-05-02T07:48:40.977Z</time></trkpt><trkpt lat="40.616936780984275" lon="15.015240866816024"><ele>320.8</ele><time>2026-05-02T07:48:41.977Z</time></trkpt><trkpt lat="40.61692777106241" lon="15.01512339162719"><ele>321.20000000000005</ele><time>2026-05-02T07:48:42.977Z</time></trkpt><trkpt lat="40.61690177503191" lon="15.014993720779954"><ele>321.6</ele><time>2026-05-02T07:48:43.977Z</time></trkpt><trkpt lat="40.61689794721532" lon="15.014861359032082"><ele>322.0</ele><time>2026-05-02T07:48:44.977Z</time></trkpt><trkpt lat="40.61688662182395" lon="15.014700525728163"><ele>322.25</ele><time>2026-05-02T07:48:45.977Z</time></trkpt><trkpt lat="40.61688727480938" lon="15.014527940482427"><ele>322.5</ele><time>2026-05-02T07:48:46.977Z</time></trkpt><trkpt lat="40.61687628509554" lon="15.014361506631436"><ele>322.75</ele><time>2026-05-02T07:48:47.976Z</time></trkpt><trkpt lat="40.61685051704088" lon="15.014222115149215"><ele>323.0</ele><time>2026-05-02T07:48:48.976Z</time></trkpt><trkpt lat="40.61684951057952" lon="15.014089139089629"><ele>323.79999999999995</ele><time>2026-05-02T07:48:49.976Z</time></trkpt><trkpt lat="40.616840423978815" lon="15.01396463076805"><ele>324.6</ele><time>2026-05-02T07:48:50.976Z</time></trkpt><trkpt lat="40.61682144859052" lon="15.013832763557911"><ele>325.4</ele><time>2026-05-02T07:48:51.976Z</time></trkpt><trkpt lat="40.616817445515444" lon="15.01368635289782"><ele>326.20000000000005</ele><time>2026-05-02T07:48:52.976Z</time></trkpt><trkpt lat="40.61680982784046" lon="15.013554181957504"><ele>327.0</ele><time>2026-05-02T07:48:53.976Z</time></trkpt><trkpt lat="40.61680533401309" lon="15.013439552426659"><ele>327.0</ele><time>2026-05-02T07:48:54.976Z</time></trkpt><trkpt lat="40.61680517712958" lon="15.013348233347651"><ele>327.0</ele><time>2026-05-02T07:48:55.976Z</time></trkpt><trkpt lat="40.61680417917144" lon="15.013215487310573"><ele>327.0</ele><time>2026-05-02T07:48:57.976Z</time></trkpt><trkpt lat="40.61685768889326" lon="15.013152897412224"><ele>327.0</ele><time>2026-05-02T07:48:59.976Z</time></trkpt><trkpt lat="40.616971076227124" lon="15.013170841751647"><ele>327.0</ele><time>2026-05-02T07:49:01.979Z</time></trkpt><trkpt lat="40.61703744990296" lon="15.013158876593083"><ele>327.0</ele><time>2026-05-02T07:49:02.979Z</time></trkpt><trkpt lat="40.61712178629892" lon="15.013149372920884"><ele>326.40000000000003</ele><time>2026-05-02T07:49:03.979Z</time></trkpt><trkpt lat="40.61721490896696" lon="15.013127106129085"><ele>325.8</ele><time>2026-05-02T07:49:04.979Z</time></trkpt><trkpt lat="40.617314663243356" lon="15.013125615551186"><ele>325.2</ele><time>2026-05-02T07:49:05.979Z</time></trkpt><trkpt lat="40.617413399881094" lon="15.013129347238175"><ele>324.6</ele><time>2026-05-02T07:49:06.979Z</time></trkpt><trkpt lat="40.61751843530405" lon="15.013124253338"><ele>324.0</ele><time>2026-05-02T07:49:07.979Z</time></trkpt><trkpt lat="40.61762429845987" lon="15.013144080323721"><ele>324.0</ele><time>2026-05-02T07:49:08.979Z</time></trkpt><trkpt lat="40.617733369418325" lon="15.013143616487048"><ele>324.0</ele><time>2026-05-02T07:49:09.979Z</time></trkpt><trkpt lat="40.61783169622996" lon="15.013143220329153"><ele>324.0</ele><time>2026-05-02T07:49:10.979Z</time></trkpt><trkpt lat="40.617928974970624" lon="15.013139476696598"><ele>324.0</ele><time>2026-05-02T07:49:11.979Z</time></trkpt><trkpt lat="40.618035002250714" lon="15.01313459565517"><ele>324.0</ele><time>2026-05-02T07:49:12.979Z</time></trkpt><trkpt lat="40.61813706282587" lon="15.013127347039262"><ele>324.4</ele><time>2026-05-02T07:49:13.979Z</time></trkpt><trkpt lat="40.61824234534131" lon="15.013099539082742"><ele>324.79999999999995</ele><time>2026-05-02T07:49:14.979Z</time></trkpt><trkpt lat="40.61834792460975" lon="15.01309238678689"><ele>325.20000000000005</ele><time>2026-05-02T07:49:15.979Z</time></trkpt><trkpt lat="40.61845309931676" lon="15.013088319502822"><ele>325.6</ele><time>2026-05-02T07:49:16.979Z</time></trkpt><trkpt lat="40.618556094804674" lon="15.01307953409462"><ele>326.0</ele><time>2026-05-02T07:49:17.978Z</time></trkpt><trkpt lat="40.61865621579991" lon="15.013074426235665"><ele>328.83333333333337</ele><time>2026-05-02T07:49:18.978Z</time></trkpt><trkpt lat="40.61875269261455" lon="15.013068138981495"><ele>331.6666666666667</ele><time>2026-05-02T07:49:19.978Z</time></trkpt><trkpt lat="40.61884520239957" lon="15.013067081926144"><ele>334.5</ele><time>2026-05-02T07:49:20.978Z</time></trkpt><trkpt lat="40.618921766927" lon="15.013079446207405"><ele>337.3333333333333</ele><time>2026-05-02T07:49:21.978Z</time></trkpt><trkpt lat="40.618993155762446" lon="15.01307975494681"><ele>340.16666666666663</ele><time>2026-05-02T07:49:22.978Z</time></trkpt><trkpt lat="40.61909519990196" lon="15.013126141897441"><ele>343.0</ele><time>2026-05-02T07:49:24.978Z</time></trkpt><trkpt lat="40.61913440160102" lon="15.01323321363769"><ele>343.0</ele><time>2026-05-02T07:49:26.978Z</time></trkpt><trkpt lat="40.61915846466283" lon="15.013384220020903"><ele>343.0</ele><time>2026-05-02T07:49:28.978Z</time></trkpt><trkpt lat="40.619176625517994" lon="15.013471449310025"><ele>343.0</ele><time>2026-05-02T07:49:29.978Z</time></trkpt><trkpt lat="40.61919305101229" lon="15.013570991874474"><ele>343.0</ele><time>2026-05-02T07:49:30.978Z</time></trkpt><trkpt lat="40.61920947215909" lon="15.013675059629945"><ele>343.0</ele><time>2026-05-02T07:49:31.978Z</time></trkpt><trkpt lat="40.619228832431496" lon="15.01378115799478"><ele>343.0</ele><time>2026-05-02T07:49:32.978Z</time></trkpt><trkpt lat="40.61928753790584" lon="15.013938245471344"><ele>343.0</ele><time>2026-05-02T07:49:34.978Z</time></trkpt><trkpt lat="40.61933856359946" lon="15.014015562933071"><ele>343.0</ele><time>2026-05-02T07:49:35.978Z</time></trkpt><trkpt lat="40.619392334604036" lon="15.014076343303419"><ele>343.0</ele><time>2026-05-02T07:49:36.978Z</time></trkpt><trkpt lat="40.6194381962336" lon="15.014145124620196"><ele>343.0</ele><time>2026-05-02T07:49:37.978Z</time></trkpt><trkpt lat="40.61948972078404" lon="15.014212051450363"><ele>343.0</ele><time>2026-05-02T07:49:38.978Z</time></trkpt><trkpt lat="40.61954849598626" lon="15.014278039983935"><ele>343.0</ele><time>2026-05-02T07:49:39.978Z</time></trkpt><trkpt lat="40.61960881300679" lon="15.014354756940241"><ele>346.16666666666663</ele><time>2026-05-02T07:49:40.978Z</time></trkpt><trkpt lat="40.61965973159788" lon="15.014404246540746"><ele>349.3333333333333</ele><time>2026-05-02T07:49:41.978Z</time></trkpt><trkpt lat="40.61974174415115" lon="15.014470580691652"><ele>352.5</ele><time>2026-05-02T07:49:42.978Z</time></trkpt><trkpt lat="40.619804064599215" lon="15.01452780926087"><ele>355.6666666666667</ele><time>2026-05-02T07:49:43.978Z</time></trkpt><trkpt lat="40.619856076063066" lon="15.014584568270017"><ele>358.83333333333337</ele><time>2026-05-02T07:49:44.978Z</time></trkpt><trkpt lat="40.619913116800205" lon="15.014639984682368"><ele>362.0</ele><time>2026-05-02T07:49:45.978Z</time></trkpt><trkpt lat="40.619978176711314" lon="15.014699132479222"><ele>362.0</ele><time>2026-05-02T07:49:46.978Z</time></trkpt><trkpt lat="40.620040480020975" lon="15.01475781577276"><ele>362.0</ele><time>2026-05-02T07:49:47.977Z</time></trkpt><trkpt lat="40.620089630473956" lon="15.014819851248243"><ele>362.0</ele><time>2026-05-02T07:49:48.977Z</time></trkpt><trkpt lat="40.620140091110756" lon="15.014882816009886"><ele>362.0</ele><time>2026-05-02T07:49:49.977Z</time></trkpt><trkpt lat="40.62018612275076" lon="15.014940953464293"><ele>362.0</ele><time>2026-05-02T07:49:50.977Z</time></trkpt><trkpt lat="40.620228818035365" lon="15.015014307273582"><ele>362.0</ele><time>2026-05-02T07:49:51.977Z</time></trkpt><trkpt lat="40.62027353691345" lon="15.015084356106778"><ele>362.0</ele><time>2026-05-02T07:49:52.977Z</time></trkpt><trkpt lat="40.620334981735176" lon="15.015223146604104"><ele>365.5</ele><time>2026-05-02T07:49:54.977Z</time></trkpt><trkpt lat="40.62037436945857" lon="15.015373208065332"><ele>369.0</ele><time>2026-05-02T07:49:56.977Z</time></trkpt><trkpt lat="40.62040710399072" lon="15.01546688336487"><ele>372.5</ele><time>2026-05-02T07:49:57.977Z</time></trkpt><trkpt lat="40.620451035325985" lon="15.015549975384912"><ele>376.0</ele><time>2026-05-02T07:49:58.977Z</time></trkpt><trkpt lat="40.620470903643564" lon="15.015636120092509"><ele>379.5</ele><time>2026-05-02T07:49:59.977Z</time></trkpt><trkpt lat="40.62050464200487" lon="15.015716270169904"><ele>383.0</ele><time>2026-05-02T07:50:00.977Z</time></trkpt><trkpt lat="40.62051092531553" lon="15.015807458062822"><ele>382.0</ele><time>2026-05-02T07:50:01.977Z</time></trkpt><trkpt lat="40.62053962885885" lon="15.015900758333922"><ele>381.0</ele><time>2026-05-02T07:50:02.977Z</time></trkpt><trkpt lat="40.620601068327844" lon="15.016018473542006"><ele>380.0</ele><time>2026-05-02T07:50:04.977Z</time></trkpt><trkpt lat="40.620706161608005" lon="15.016132523754642"><ele>379.0</ele><time>2026-05-02T07:50:06.977Z</time></trkpt><trkpt lat="40.62077333130225" lon="15.016189728332513"><ele>378.0</ele><time>2026-05-02T07:50:07.977Z</time></trkpt><trkpt lat="40.62084614986882" lon="15.016234101352081"><ele>378.0</ele><time>2026-05-02T07:50:08.977Z</time></trkpt><trkpt lat="40.6209216235258" lon="15.016266751788935"><ele>378.0</ele><time>2026-05-02T07:50:09.977Z</time></trkpt><trkpt lat="40.621011948080266" lon="15.016323801335213"><ele>378.0</ele><time>2026-05-02T07:50:11.977Z</time></trkpt><trkpt lat="40.62108023826998" lon="15.016400011808885"><ele>378.0</ele><time>2026-05-02T07:50:48.975Z</time></trkpt><trkpt lat="40.62112921297848" lon="15.01648919233331"><ele>378.0</ele><time>2026-05-02T07:50:50.975Z</time></trkpt><trkpt lat="40.62119110056978" lon="15.016602911140184"><ele>379.79999999999995</ele><time>2026-05-02T07:50:52.975Z</time></trkpt><trkpt lat="40.62124576145061" lon="15.016721453680898"><ele>381.6</ele><time>2026-05-02T07:50:54.975Z</time></trkpt><trkpt lat="40.62130367668946" lon="15.016854485327892"><ele>383.4</ele><time>2026-05-02T07:50:56.975Z</time></trkpt><trkpt lat="40.62133533596176" lon="15.016929594012028"><ele>385.20000000000005</ele><time>2026-05-02T07:50:57.975Z</time></trkpt><trkpt lat="40.62136789055964" lon="15.017007725043344"><ele>387.0</ele><time>2026-05-02T07:50:58.975Z</time></trkpt><trkpt lat="40.621442203853235" lon="15.017132473166733"><ele>387.0</ele><time>2026-05-02T07:51:00.975Z</time></trkpt><trkpt lat="40.62150477997024" lon="15.017238587247578"><ele>387.0</ele><time>2026-05-02T07:51:02.975Z</time></trkpt><trkpt lat="40.6215981721073" lon="15.017323204354172"><ele>387.0</ele><time>2026-05-02T07:51:04.975Z</time></trkpt><trkpt lat="40.62170980354943" lon="15.017395276110948"><ele>387.0</ele><time>2026-05-02T07:51:06.975Z</time></trkpt><trkpt lat="40.621811916475565" lon="15.017448391943457"><ele>387.0</ele><time>2026-05-02T07:51:08.978Z</time></trkpt><trkpt lat="40.621896139092236" lon="15.017461614005375"><ele>388.20000000000005</ele><time>2026-05-02T07:51:10.978Z</time></trkpt><trkpt lat="40.62199745706962" lon="15.01743794145248"><ele>389.4</ele><time>2026-05-02T07:51:12.978Z</time></trkpt><trkpt lat="40.62206782986495" lon="15.01732497096365"><ele>390.6</ele><time>2026-05-02T07:51:14.978Z</time></trkpt><trkpt lat="40.62205185310093" lon="15.017169997054673"><ele>391.79999999999995</ele><time>2026-05-02T07:51:16.978Z</time></trkpt><trkpt lat="40.62203872249147" lon="15.017077849919007"><ele>393.0</ele><time>2026-05-02T07:51:17.978Z</time></trkpt><trkpt lat="40.622018124989204" lon="15.01697804097389"><ele>393.0</ele><time>2026-05-02T07:51:18.978Z</time></trkpt><trkpt lat="40.62199239597219" lon="15.016883747138936"><ele>393.0</ele><time>2026-05-02T07:51:19.977Z</time></trkpt><trkpt lat="40.62196519856226" lon="15.01678509655977"><ele>393.0</ele><time>2026-05-02T07:51:20.978Z</time></trkpt><trkpt lat="40.621938214256986" lon="15.016699460719005"><ele>393.0</ele><time>2026-05-02T07:51:21.978Z</time></trkpt><trkpt lat="40.62190785816085" lon="15.016570188675908"><ele>393.0</ele><time>2026-05-02T07:51:23.978Z</time></trkpt><trkpt lat="40.62190579760778" lon="15.016487216183275"><ele>393.0</ele><time>2026-05-02T07:51:25.978Z</time></trkpt><trkpt lat="40.621879053802346" lon="15.016411738546811"><ele>393.4</ele><time>2026-05-02T07:51:47.977Z</time></trkpt><trkpt lat="40.62184756831727" lon="15.016285833695374"><ele>393.79999999999995</ele><time>2026-05-02T07:52:01.977Z</time></trkpt><trkpt lat="40.62182528501022" lon="15.016158540080726"><ele>394.2</ele><time>2026-05-02T07:52:03.977Z</time></trkpt><trkpt lat="40.621801964941945" lon="15.016027233278365"><ele>394.6</ele><time>2026-05-02T07:52:05.977Z</time></trkpt><trkpt lat="40.621780860581985" lon="15.015897700537465"><ele>395.0</ele><time>2026-05-02T07:52:07.976Z</time></trkpt><trkpt lat="40.621740918968854" lon="15.015762270434529"><ele>395.0</ele><time>2026-05-02T07:52:09.976Z</time></trkpt><trkpt lat="40.62170889796796" lon="15.015607886460069"><ele>395.0</ele><time>2026-05-02T07:52:11.976Z</time></trkpt><trkpt lat="40.62169205289984" lon="15.015458575012007"><ele>395.0</ele><time>2026-05-02T07:52:13.976Z</time></trkpt><trkpt lat="40.621662693264" lon="15.015374692616392"><ele>395.0</ele><time>2026-05-02T07:52:14.976Z</time></trkpt><trkpt lat="40.62163847458026" lon="15.015222898106142"><ele>395.0</ele><time>2026-05-02T07:52:16.976Z</time></trkpt><trkpt lat="40.62161373235376" lon="15.015081700017975"><ele>395.6</ele><time>2026-05-02T07:52:18.976Z</time></trkpt><trkpt lat="40.621576541581874" lon="15.014929862755022"><ele>396.2</ele><time>2026-05-02T07:52:20.976Z</time></trkpt><trkpt lat="40.621525804925504" lon="15.014794442354942"><ele>396.79999999999995</ele><time>2026-05-02T07:52:22.976Z</time></trkpt><trkpt lat="40.62146383728518" lon="15.01464127648871"><ele>397.4</ele><time>2026-05-02T07:52:24.976Z</time></trkpt><trkpt lat="40.621438477721114" lon="15.014563339717995"><ele>398.0</ele><time>2026-05-02T07:52:25.976Z</time></trkpt><trkpt lat="40.62139033147608" lon="15.014420967263533"><ele>398.0</ele><time>2026-05-02T07:52:27.976Z</time></trkpt><trkpt lat="40.62135603693879" lon="15.014269419143135"><ele>398.0</ele><time>2026-05-02T07:52:29.976Z</time></trkpt><trkpt lat="40.621312656078175" lon="15.01413116840734"><ele>398.0</ele><time>2026-05-02T07:52:31.976Z</time></trkpt><trkpt lat="40.62126585556267" lon="15.014023074427017"><ele>398.0</ele><time>2026-05-02T07:52:33.976Z</time></trkpt><trkpt lat="40.62122883443511" lon="15.01391636598648"><ele>398.0</ele><time>2026-05-02T07:52:35.976Z</time></trkpt><trkpt lat="40.62118256528583" lon="15.013786388370265"><ele>397.16666666666663</ele><time>2026-05-02T07:52:37.975Z</time></trkpt><trkpt lat="40.621141258913546" lon="15.013629468292583"><ele>396.3333333333333</ele><time>2026-05-02T07:52:39.975Z</time></trkpt><trkpt lat="40.62110963512008" lon="15.013547041470984"><ele>395.5</ele><time>2026-05-02T07:52:40.975Z</time></trkpt><trkpt lat="40.62107554170291" lon="15.013463047709372"><ele>394.66666666666663</ele><time>2026-05-02T07:52:41.975Z</time></trkpt><trkpt lat="40.621023401453975" lon="15.013381286207883"><ele>393.8333333333333</ele><time>2026-05-02T07:52:42.975Z</time></trkpt><trkpt lat="40.62098574652851" lon="15.013291721470814"><ele>393.0</ele><time>2026-05-02T07:52:43.975Z</time></trkpt><trkpt lat="40.620949732086046" lon="15.013212190118844"><ele>393.0</ele><time>2026-05-02T07:52:44.975Z</time></trkpt><trkpt lat="40.62091500722748" lon="15.013121398422399"><ele>393.0</ele><time>2026-05-02T07:52:45.975Z</time></trkpt><trkpt lat="40.62088379701073" lon="15.013031816829159"><ele>393.0</ele><time>2026-05-02T07:52:46.975Z</time></trkpt><trkpt lat="40.62085098420262" lon="15.012952708846292"><ele>393.0</ele><time>2026-05-02T07:52:47.975Z</time></trkpt><trkpt lat="40.620809177026885" lon="15.012803858287276"><ele>393.0</ele><time>2026-05-02T07:52:49.975Z</time></trkpt><trkpt lat="40.62077427274271" lon="15.01267629364398"><ele>393.0</ele><time>2026-05-02T07:52:51.975Z</time></trkpt><trkpt lat="40.62075609178452" lon="15.012569935647457"><ele>393.00000000000006</ele><time>2026-05-02T07:52:53.975Z</time></trkpt><trkpt lat="40.620733594308064" lon="15.012460439999549"><ele>393.0</ele><time>2026-05-02T07:52:56.975Z</time></trkpt><trkpt lat="40.62071125166661" lon="15.01237759767701"><ele>393.0</ele><time>2026-05-02T07:53:00.975Z</time></trkpt><trkpt lat="40.62073831365572" lon="15.012479066368632"><ele>393.0</ele><time>2026-05-02T07:53:09.974Z</time></trkpt><trkpt lat="40.62076341586456" lon="15.012574455148888"><ele>393.0</ele><time>2026-05-02T07:53:11.974Z</time></trkpt><trkpt lat="40.62078107268658" lon="15.0126635981358"><ele>393.00000000000006</ele><time>2026-05-02T07:53:13.976Z</time></trkpt><trkpt lat="40.62079539743259" lon="15.012748714382596"><ele>393.0</ele><time>2026-05-02T07:53:15.977Z</time></trkpt><trkpt lat="40.620792040089455" lon="15.012839672525748"><ele>393.0</ele><time>2026-05-02T07:53:17.977Z</time></trkpt><trkpt lat="40.62082457214173" lon="15.012934261457847"><ele>393.0</ele><time>2026-05-02T07:53:19.976Z</time></trkpt><trkpt lat="40.6208672739903" lon="15.013034339660077"><ele>393.0</ele><time>2026-05-02T07:53:21.976Z</time></trkpt><trkpt lat="40.620913816045814" lon="15.013139099121599"><ele>393.0</ele><time>2026-05-02T07:53:23.976Z</time></trkpt><trkpt lat="40.62096909049161" lon="15.013262177393496"><ele>393.0</ele><time>2026-05-02T07:53:25.976Z</time></trkpt><trkpt lat="40.62103894875499" lon="15.013406151740002"><ele>392.59999999999997</ele><time>2026-05-02T07:53:27.977Z</time></trkpt><trkpt lat="40.62108165881694" lon="15.013495916606189"><ele>392.2</ele><time>2026-05-02T07:53:28.977Z</time></trkpt><trkpt lat="40.62113688429233" lon="15.013639298294224"><ele>391.8</ele><time>2026-05-02T07:53:30.977Z</time></trkpt><trkpt lat="40.62119379797636" lon="15.01378182761798"><ele>391.4</ele><time>2026-05-02T07:53:32.976Z</time></trkpt><trkpt lat="40.621225538414464" lon="15.013867577761829"><ele>391.0</ele><time>2026-05-02T07:53:33.976Z</time></trkpt><trkpt lat="40.62125192404783" lon="15.013951945498729"><ele>391.57142857142856</ele><time>2026-05-02T07:53:34.976Z</time></trkpt><trkpt lat="40.6212823561496" lon="15.014035500607283"><ele>392.1428571428571</ele><time>2026-05-02T07:53:35.976Z</time></trkpt><trkpt lat="40.6213072614346" lon="15.01412607504196"><ele>392.71428571428567</ele><time>2026-05-02T07:53:36.976Z</time></trkpt><trkpt lat="40.621332524609386" lon="15.014214994497486"><ele>393.2857142857143</ele><time>2026-05-02T07:53:37.976Z</time></trkpt><trkpt lat="40.62136049719637" lon="15.014301421911412"><ele>393.8571428571429</ele><time>2026-05-02T07:53:38.976Z</time></trkpt><trkpt lat="40.621390712100656" lon="15.014386223747511"><ele>394.4285714285714</ele><time>2026-05-02T07:53:39.976Z</time></trkpt><trkpt lat="40.621425841345776" lon="15.01446902641704"><ele>395.0</ele><time>2026-05-02T07:53:40.976Z</time></trkpt><trkpt lat="40.62146046441021" lon="15.014560241745134"><ele>395.0</ele><time>2026-05-02T07:53:41.976Z</time></trkpt><trkpt lat="40.62149182315514" lon="15.014641234679582"><ele>395.0</ele><time>2026-05-02T07:53:42.976Z</time></trkpt><trkpt lat="40.62152105166344" lon="15.01472502945086"><ele>395.0</ele><time>2026-05-02T07:53:43.976Z</time></trkpt><trkpt lat="40.62154396633671" lon="15.014814938247502"><ele>395.0</ele><time>2026-05-02T07:53:44.976Z</time></trkpt><trkpt lat="40.62156815065649" lon="15.014909190943927"><ele>395.0</ele><time>2026-05-02T07:53:45.976Z</time></trkpt><trkpt lat="40.62159462342234" lon="15.014992980555254"><ele>395.0</ele><time>2026-05-02T07:53:46.976Z</time></trkpt><trkpt lat="40.62158801251232" lon="15.015084810769034"><ele>395.0</ele><time>2026-05-02T07:53:47.976Z</time></trkpt><trkpt lat="40.62161309169927" lon="15.01521393397789"><ele>395.0</ele><time>2026-05-02T07:53:49.976Z</time></trkpt><trkpt lat="40.62164596496053" lon="15.015332561749448"><ele>395.0</ele><time>2026-05-02T07:53:51.976Z</time></trkpt><trkpt lat="40.62166653884997" lon="15.015454102308759"><ele>395.0</ele><time>2026-05-02T07:53:53.976Z</time></trkpt><trkpt lat="40.621694022683506" lon="15.015587117917939"><ele>395.0</ele><time>2026-05-02T07:53:55.976Z</time></trkpt><trkpt lat="40.62172430409762" lon="15.015724416377035"><ele>395.0</ele><time>2026-05-02T07:53:57.976Z</time></trkpt><trkpt lat="40.621750811224565" lon="15.015843865508705"><ele>394.99999999999994</ele><time>2026-05-02T07:53:59.976Z</time></trkpt><trkpt lat="40.6217698550488" lon="15.01595820580123"><ele>395.0</ele><time>2026-05-02T07:54:01.975Z</time></trkpt><trkpt lat="40.62178785382667" lon="15.016063797485394"><ele>395.0</ele><time>2026-05-02T07:54:03.975Z</time></trkpt><trkpt lat="40.62180240422437" lon="15.016173910758427"><ele>395.0</ele><time>2026-05-02T07:54:06.975Z</time></trkpt><trkpt lat="40.62182322783126" lon="15.0162726978507"><ele>394.99999999999994</ele><time>2026-05-02T07:54:36.974Z</time></trkpt><trkpt lat="40.621842042061516" lon="15.016357037501887"><ele>395.0</ele><time>2026-05-02T07:54:39.974Z</time></trkpt><trkpt lat="40.62210192873136" lon="15.016322357217774"><ele>394.99999999999994</ele><time>2026-05-02T07:54:47.974Z</time></trkpt><trkpt lat="40.622169993461874" lon="15.016313848275717"><ele>395.0</ele><time>2026-05-02T07:54:48.974Z</time></trkpt><trkpt lat="40.62225932834264" lon="15.016299867641063"><ele>395.0</ele><time>2026-05-02T07:54:49.974Z</time></trkpt><trkpt lat="40.62233422557255" lon="15.01628645671278"><ele>395.0</ele><time>2026-05-02T07:54:50.974Z</time></trkpt><trkpt lat="40.622434385692436" lon="15.016268463434999"><ele>394.99999999999994</ele><time>2026-05-02T07:54:52.974Z</time></trkpt><trkpt lat="40.62252595915962" lon="15.016260326195187"><ele>395.0</ele><time>2026-05-02T07:54:54.974Z</time></trkpt><trkpt lat="40.62263636709682" lon="15.016239575092973"><ele>395.0</ele><time>2026-05-02T07:54:56.974Z</time></trkpt><trkpt lat="40.622737659879874" lon="15.01621437219298"><ele>395.0</ele><time>2026-05-02T07:54:58.974Z</time></trkpt><trkpt lat="40.62283910214218" lon="15.016191012191575"><ele>395.0</ele><time>2026-05-02T07:55:00.973Z</time></trkpt><trkpt lat="40.622933616576475" lon="15.016164829822863"><ele>395.0</ele><time>2026-05-02T07:55:02.973Z</time></trkpt><trkpt lat="40.62302030032345" lon="15.016146246519984"><ele>395.0</ele><time>2026-05-02T07:55:04.973Z</time></trkpt><trkpt lat="40.623107308885245" lon="15.016124378528788"><ele>394.0</ele><time>2026-05-02T07:55:06.973Z</time></trkpt><trkpt lat="40.62318176934722" lon="15.016106393494715"><ele>393.0</ele><time>2026-05-02T07:55:08.973Z</time></trkpt><trkpt lat="40.623252077501945" lon="15.016094975208398"><ele>392.0</ele><time>2026-05-02T07:55:10.973Z</time></trkpt><trkpt lat="40.62332062919967" lon="15.016083405102112"><ele>391.0</ele><time>2026-05-02T07:55:12.973Z</time></trkpt><trkpt lat="40.623400551300115" lon="15.016067640219465"><ele>390.0</ele><time>2026-05-02T07:55:15.973Z</time></trkpt><trkpt lat="40.623474236211905" lon="15.016057127924013"><ele>389.0</ele><time>2026-05-02T07:55:18.973Z</time></trkpt><trkpt lat="40.6235377362226" lon="15.016054531529788"><ele>388.0</ele><time>2026-05-02T07:55:22.976Z</time></trkpt><trkpt lat="40.62347322004036" lon="15.016028725243066"><ele>388.00000000000006</ele><time>2026-05-02T07:55:36.975Z</time></trkpt><trkpt lat="40.6233973212644" lon="15.016087680586798"><ele>388.0</ele><time>2026-05-02T07:55:51.975Z</time></trkpt><trkpt lat="40.62331291209746" lon="15.016107360146622"><ele>388.0</ele><time>2026-05-02T07:55:53.975Z</time></trkpt><trkpt lat="40.623238593319535" lon="15.016122373290422"><ele>388.0</ele><time>2026-05-02T07:55:55.974Z</time></trkpt><trkpt lat="40.623140890611324" lon="15.016127489570414"><ele>388.00000000000006</ele><time>2026-05-02T07:55:57.974Z</time></trkpt><trkpt lat="40.62307502324284" lon="15.016143522310186"><ele>388.0</ele><time>2026-05-02T07:55:58.974Z</time></trkpt><trkpt lat="40.6229852011032" lon="15.01617273762783"><ele>388.0</ele><time>2026-05-02T07:56:00.974Z</time></trkpt><trkpt lat="40.62287464535704" lon="15.016197142126176"><ele>388.0</ele><time>2026-05-02T07:56:02.974Z</time></trkpt><trkpt lat="40.622768063440866" lon="15.016218495584551"><ele>388.0</ele><time>2026-05-02T07:56:04.974Z</time></trkpt><trkpt lat="40.622675685318406" lon="15.01624047282841"><ele>388.0</ele><time>2026-05-02T07:56:06.974Z</time></trkpt><trkpt lat="40.62256044567607" lon="15.01626318329335"><ele>388.0</ele><time>2026-05-02T07:56:08.974Z</time></trkpt><trkpt lat="40.62249770546937" lon="15.016281263132514"><ele>389.4</ele><time>2026-05-02T07:56:09.974Z</time></trkpt><trkpt lat="40.6223852259822" lon="15.016296243509979"><ele>390.79999999999995</ele><time>2026-05-02T07:56:11.974Z</time></trkpt><trkpt lat="40.62226421349071" lon="15.016300819625911"><ele>392.2</ele><time>2026-05-02T07:56:13.974Z</time></trkpt><trkpt lat="40.622148199042876" lon="15.016318406510017"><ele>393.6</ele><time>2026-05-02T07:56:15.974Z</time></trkpt><trkpt lat="40.62205196716478" lon="15.016336616968104"><ele>395.0</ele><time>2026-05-02T07:56:17.974Z</time></trkpt><trkpt lat="40.62198747944239" lon="15.016342336110496"><ele>394.16666666666663</ele><time>2026-05-02T07:56:19.974Z</time></trkpt><trkpt lat="40.62192563063565" lon="15.016365805794198"><ele>393.3333333333333</ele><time>2026-05-02T07:56:21.974Z</time></trkpt><trkpt lat="40.62187723371572" lon="15.016426648161776"><ele>392.5</ele><time>2026-05-02T07:56:23.974Z</time></trkpt><trkpt lat="40.621886147104654" lon="15.016564722525139"><ele>391.66666666666663</ele><time>2026-05-02T07:56:26.973Z</time></trkpt><trkpt lat="40.62190840680034" lon="15.016647011233728"><ele>390.8333333333333</ele><time>2026-05-02T07:56:27.973Z</time></trkpt><trkpt lat="40.62193299582259" lon="15.016750443257544"><ele>390.0</ele><time>2026-05-02T07:56:28.973Z</time></trkpt><trkpt lat="40.62195946206435" lon="15.016849271275042"><ele>390.0</ele><time>2026-05-02T07:56:29.973Z</time></trkpt><trkpt lat="40.62198356319185" lon="15.016937750994236"><ele>390.0</ele><time>2026-05-02T07:56:30.973Z</time></trkpt><trkpt lat="40.62200574331324" lon="15.01701885195351"><ele>390.0</ele><time>2026-05-02T07:56:31.973Z</time></trkpt><trkpt lat="40.6220274857799" lon="15.017098507137318"><ele>390.0</ele><time>2026-05-02T07:56:32.973Z</time></trkpt><trkpt lat="40.62203684973328" lon="15.017253413286191"><ele>390.0</ele><time>2026-05-02T07:56:34.973Z</time></trkpt><trkpt lat="40.62205320064283" lon="15.017406819239643"><ele>390.0</ele><time>2026-05-02T07:56:36.973Z</time></trkpt><trkpt lat="40.622062793105584" lon="15.017536299444453"><ele>390.0</ele><time>2026-05-02T07:56:38.973Z</time></trkpt><trkpt lat="40.622062350977416" lon="15.017677453294958"><ele>390.0</ele><time>2026-05-02T07:56:40.973Z</time></trkpt><trkpt lat="40.622062508673416" lon="15.017858260088424"><ele>390.0</ele><time>2026-05-02T07:56:42.973Z</time></trkpt><trkpt lat="40.62206902933038" lon="15.017944690299196"><ele>390.0</ele><time>2026-05-02T07:56:43.973Z</time></trkpt><trkpt lat="40.62207955861366" lon="15.018051760165152"><ele>390.0</ele><time>2026-05-02T07:56:44.973Z</time></trkpt><trkpt lat="40.62209085091544" lon="15.018166588931479"><ele>390.0</ele><time>2026-05-02T07:56:45.973Z</time></trkpt><trkpt lat="40.62211191768438" lon="15.018279696254579"><ele>390.0</ele><time>2026-05-02T07:56:46.973Z</time></trkpt><trkpt lat="40.62212119557941" lon="15.018382059840357"><ele>390.0</ele><time>2026-05-02T07:56:47.973Z</time></trkpt><trkpt lat="40.622133773076186" lon="15.018492620682983"><ele>390.0</ele><time>2026-05-02T07:56:48.973Z</time></trkpt><trkpt lat="40.62214474267423" lon="15.018600564269835"><ele>390.0</ele><time>2026-05-02T07:56:49.973Z</time></trkpt><trkpt lat="40.62214386343454" lon="15.018719152009062"><ele>390.0</ele><time>2026-05-02T07:56:50.973Z</time></trkpt><trkpt lat="40.622156448049466" lon="15.018843106805518"><ele>389.6666666666667</ele><time>2026-05-02T07:56:51.973Z</time></trkpt><trkpt lat="40.622185557661744" lon="15.018960859226718"><ele>389.33333333333337</ele><time>2026-05-02T07:56:52.973Z</time></trkpt><trkpt lat="40.62220016090191" lon="15.019075211532678"><ele>389.0</ele><time>2026-05-02T07:56:53.973Z</time></trkpt><trkpt lat="40.62221459552413" lon="15.01918687443871"><ele>388.6666666666667</ele><time>2026-05-02T07:56:54.972Z</time></trkpt><trkpt lat="40.622232390394664" lon="15.01929553369781"><ele>388.33333333333337</ele><time>2026-05-02T07:56:55.972Z</time></trkpt><trkpt lat="40.62225286162417" lon="15.019409355859782"><ele>388.0</ele><time>2026-05-02T07:56:56.972Z</time></trkpt><trkpt lat="40.6222706133042" lon="15.019523433234502"><ele>388.0</ele><time>2026-05-02T07:56:57.972Z</time></trkpt><trkpt lat="40.622276978152804" lon="15.01964864885787"><ele>388.0</ele><time>2026-05-02T07:56:58.972Z</time></trkpt><trkpt lat="40.622300305177355" lon="15.019781527665419"><ele>388.0</ele><time>2026-05-02T07:56:59.972Z</time></trkpt><trkpt lat="40.62234265122667" lon="15.019932823738948"><ele>388.0</ele><time>2026-05-02T07:57:00.972Z</time></trkpt><trkpt lat="40.62237218731209" lon="15.020106083138348"><ele>388.25</ele><time>2026-05-02T07:57:01.972Z</time></trkpt><trkpt lat="40.62240895473015" lon="15.020287544122002"><ele>388.5</ele><time>2026-05-02T07:57:02.972Z</time></trkpt><trkpt lat="40.622429308738674" lon="15.020468024811487"><ele>388.75</ele><time>2026-05-02T07:57:03.972Z</time></trkpt><trkpt lat="40.62247330562374" lon="15.020636716900043"><ele>389.0</ele><time>2026-05-02T07:57:04.972Z</time></trkpt><trkpt lat="40.62250903832322" lon="15.020808921044972"><ele>389.25</ele><time>2026-05-02T07:57:05.972Z</time></trkpt><trkpt lat="40.622543719946684" lon="15.020983645195848"><ele>389.5</ele><time>2026-05-02T07:57:06.972Z</time></trkpt><trkpt lat="40.62257492241424" lon="15.021140170078343"><ele>389.75</ele><time>2026-05-02T07:57:07.972Z</time></trkpt><trkpt lat="40.62259084567564" lon="15.02130306438283"><ele>390.0</ele><time>2026-05-02T07:57:08.972Z</time></trkpt><trkpt lat="40.62263984843347" lon="15.021464957389027"><ele>390.0</ele><time>2026-05-02T07:57:09.972Z</time></trkpt><trkpt lat="40.62266747816467" lon="15.021637541288444"><ele>390.0</ele><time>2026-05-02T07:57:10.972Z</time></trkpt><trkpt lat="40.622689339210794" lon="15.021811081244033"><ele>390.0</ele><time>2026-05-02T07:57:11.972Z</time></trkpt><trkpt lat="40.6227203512927" lon="15.021975046865716"><ele>390.0</ele><time>2026-05-02T07:57:12.972Z</time></trkpt><trkpt lat="40.62276788109851" lon="15.022134774806782"><ele>389.75</ele><time>2026-05-02T07:57:13.972Z</time></trkpt><trkpt lat="40.6227951114357" lon="15.022283940323064"><ele>389.5</ele><time>2026-05-02T07:57:14.972Z</time></trkpt><trkpt lat="40.62282588609971" lon="15.022435749658225"><ele>389.25</ele><time>2026-05-02T07:57:15.972Z</time></trkpt><trkpt lat="40.62285106405007" lon="15.0225781728821"><ele>389.0</ele><time>2026-05-02T07:57:16.972Z</time></trkpt><trkpt lat="40.622882556463544" lon="15.022707585587684"><ele>389.4</ele><time>2026-05-02T07:57:17.972Z</time></trkpt><trkpt lat="40.62291217563575" lon="15.022833150417028"><ele>389.79999999999995</ele><time>2026-05-02T07:57:18.972Z</time></trkpt><trkpt lat="40.62294463571673" lon="15.022982064580585"><ele>390.20000000000005</ele><time>2026-05-02T07:57:19.972Z</time></trkpt><trkpt lat="40.62297355671693" lon="15.023118357240072"><ele>390.6</ele><time>2026-05-02T07:57:20.972Z</time></trkpt><trkpt lat="40.6230002599658" lon="15.02322993491993"><ele>391.0</ele><time>2026-05-02T07:57:21.972Z</time></trkpt><trkpt lat="40.623025188538136" lon="15.02333666583366"><ele>391.8</ele><time>2026-05-02T07:57:22.972Z</time></trkpt><trkpt lat="40.623055360806035" lon="15.023454053787843"><ele>392.6</ele><time>2026-05-02T07:57:23.972Z</time></trkpt><trkpt lat="40.62308714357643" lon="15.023581689363763"><ele>393.4</ele><time>2026-05-02T07:57:24.974Z</time></trkpt><trkpt lat="40.623119968608584" lon="15.02372860021095"><ele>394.2</ele><time>2026-05-02T07:57:25.974Z</time></trkpt><trkpt lat="40.623129990799775" lon="15.02385964035674"><ele>395.0</ele><time>2026-05-02T07:57:26.974Z</time></trkpt><trkpt lat="40.623149251346604" lon="15.023964537154407"><ele>394.99999999999994</ele><time>2026-05-02T07:57:27.974Z</time></trkpt><trkpt lat="40.623183608723785" lon="15.02406458000692"><ele>395.0</ele><time>2026-05-02T07:57:28.974Z</time></trkpt><trkpt lat="40.62318594879671" lon="15.024175581914406"><ele>395.0</ele><time>2026-05-02T07:57:29.974Z</time></trkpt><trkpt lat="40.623214036168406" lon="15.024279047589783"><ele>395.0</ele><time>2026-05-02T07:57:30.974Z</time></trkpt><trkpt lat="40.623232616333034" lon="15.024387951941"><ele>394.99999999999994</ele><time>2026-05-02T07:57:31.974Z</time></trkpt><trkpt lat="40.623233406258784" lon="15.024502453529582"><ele>395.0</ele><time>2026-05-02T07:57:32.973Z</time></trkpt><trkpt lat="40.62324151954389" lon="15.024600446600061"><ele>396.16666666666663</ele><time>2026-05-02T07:57:33.974Z</time></trkpt><trkpt lat="40.62326461448506" lon="15.024686128117981"><ele>397.3333333333333</ele><time>2026-05-02T07:57:34.974Z</time></trkpt><trkpt lat="40.623267375315905" lon="15.024771610280022"><ele>398.5</ele><time>2026-05-02T07:57:35.974Z</time></trkpt><trkpt lat="40.623282769664215" lon="15.024898444316111"><ele>399.66666666666663</ele><time>2026-05-02T07:57:37.974Z</time></trkpt><trkpt lat="40.62334516783901" lon="15.025040072504808"><ele>400.8333333333333</ele><time>2026-05-02T07:57:39.974Z</time></trkpt><trkpt lat="40.623388616315786" lon="15.02513076216453"><ele>402.0</ele><time>2026-05-02T07:57:40.974Z</time></trkpt><trkpt lat="40.6234387836413" lon="15.025215155759957"><ele>402.1666666666667</ele><time>2026-05-02T07:57:41.974Z</time></trkpt><trkpt lat="40.62348534024377" lon="15.025306238624253"><ele>402.33333333333337</ele><time>2026-05-02T07:57:42.974Z</time></trkpt><trkpt lat="40.62352620599833" lon="15.025394185714442"><ele>402.5</ele><time>2026-05-02T07:57:43.974Z</time></trkpt><trkpt lat="40.62356297290435" lon="15.025469715993252"><ele>402.6666666666667</ele><time>2026-05-02T07:57:44.974Z</time></trkpt><trkpt lat="40.623641916537395" lon="15.025572478759766"><ele>402.83333333333337</ele><time>2026-05-02T07:57:46.974Z</time></trkpt><trkpt lat="40.62374595396821" lon="15.025607773363975"><ele>403.0</ele><time>2026-05-02T07:57:48.974Z</time></trkpt><trkpt lat="40.62381176484073" lon="15.02573485670599"><ele>402.2</ele><time>2026-05-02T07:57:50.974Z</time></trkpt><trkpt lat="40.62385503856925" lon="15.025836465968052"><ele>401.4</ele><time>2026-05-02T07:57:51.974Z</time></trkpt><trkpt lat="40.62389918792711" lon="15.025932443417092"><ele>400.59999999999997</ele><time>2026-05-02T07:57:52.974Z</time></trkpt><trkpt lat="40.62396328446066" lon="15.026065657637458"><ele>399.79999999999995</ele><time>2026-05-02T07:57:53.974Z</time></trkpt><trkpt lat="40.62402975548345" lon="15.026176512822142"><ele>399.0</ele><time>2026-05-02T07:57:54.974Z</time></trkpt><trkpt lat="40.62408728875358" lon="15.026305322626268"><ele>399.0</ele><time>2026-05-02T07:57:55.974Z</time></trkpt><trkpt lat="40.624141637447" lon="15.026428810047799"><ele>399.0</ele><time>2026-05-02T07:57:56.974Z</time></trkpt><trkpt lat="40.62419412747504" lon="15.026539374882892"><ele>399.0</ele><time>2026-05-02T07:57:57.974Z</time></trkpt><trkpt lat="40.62425693321172" lon="15.026644103503381"><ele>399.0</ele><time>2026-05-02T07:57:58.974Z</time></trkpt><trkpt lat="40.62431852124005" lon="15.026765992188245"><ele>399.0</ele><time>2026-05-02T07:57:59.974Z</time></trkpt><trkpt lat="40.6243739234638" lon="15.026875477407867"><ele>398.6</ele><time>2026-05-02T07:58:00.974Z</time></trkpt><trkpt lat="40.62443062262512" lon="15.026994374567389"><ele>398.2</ele><time>2026-05-02T07:58:01.973Z</time></trkpt><trkpt lat="40.62448778810529" lon="15.027112041771707"><ele>397.8</ele><time>2026-05-02T07:58:02.973Z</time></trkpt><trkpt lat="40.624553168685864" lon="15.027228027230258"><ele>397.40000000000003</ele><time>2026-05-02T07:58:03.973Z</time></trkpt><trkpt lat="40.624613189270335" lon="15.02733839001137"><ele>397.0</ele><time>2026-05-02T07:58:04.973Z</time></trkpt><trkpt lat="40.62467108817832" lon="15.027447787733347"><ele>395.6</ele><time>2026-05-02T07:58:05.973Z</time></trkpt><trkpt lat="40.62472806443004" lon="15.02755692004779"><ele>394.20000000000005</ele><time>2026-05-02T07:58:06.973Z</time></trkpt><trkpt lat="40.62478629318228" lon="15.027666769370887"><ele>392.8</ele><time>2026-05-02T07:58:07.973Z</time></trkpt><trkpt lat="40.624831467034355" lon="15.027782461346648"><ele>391.4</ele><time>2026-05-02T07:58:08.973Z</time></trkpt><trkpt lat="40.62488504069579" lon="15.027880958400463"><ele>390.0</ele><time>2026-05-02T07:58:09.973Z</time></trkpt><trkpt lat="40.624936748521506" lon="15.027976023557073"><ele>390.0</ele><time>2026-05-02T07:58:10.973Z</time></trkpt><trkpt lat="40.62498186504342" lon="15.02805897165341"><ele>390.0</ele><time>2026-05-02T07:58:11.973Z</time></trkpt><trkpt lat="40.625030636295264" lon="15.028152223292093"><ele>390.0</ele><time>2026-05-02T07:58:12.973Z</time></trkpt><trkpt lat="40.62509713819575" lon="15.028237320787929"><ele>390.0</ele><time>2026-05-02T07:58:13.973Z</time></trkpt><trkpt lat="40.62514069864398" lon="15.028341382669309"><ele>390.0</ele><time>2026-05-02T07:58:14.973Z</time></trkpt><trkpt lat="40.62520009131071" lon="15.02842721257205"><ele>390.0</ele><time>2026-05-02T07:58:15.973Z</time></trkpt><trkpt lat="40.6252679503119" lon="15.028520505121257"><ele>388.3333333333333</ele><time>2026-05-02T07:58:16.973Z</time></trkpt><trkpt lat="40.625342822087546" lon="15.02859178078772"><ele>386.6666666666667</ele><time>2026-05-02T07:58:17.973Z</time></trkpt><trkpt lat="40.625405101470115" lon="15.02867884313109"><ele>385.0</ele><time>2026-05-02T07:58:18.973Z</time></trkpt><trkpt lat="40.625463805865685" lon="15.02876225324109"><ele>383.33333333333337</ele><time>2026-05-02T07:58:19.973Z</time></trkpt><trkpt lat="40.625524644319164" lon="15.028846457926809"><ele>381.6666666666667</ele><time>2026-05-02T07:58:20.973Z</time></trkpt><trkpt lat="40.625587278354814" lon="15.02893137936734"><ele>380.0</ele><time>2026-05-02T07:58:21.973Z</time></trkpt><trkpt lat="40.62564773999034" lon="15.029023162198895"><ele>380.0</ele><time>2026-05-02T07:58:22.973Z</time></trkpt><trkpt lat="40.62570568984585" lon="15.029108405357077"><ele>380.0</ele><time>2026-05-02T07:58:23.973Z</time></trkpt><trkpt lat="40.62577575564347" lon="15.029186321451439"><ele>380.0</ele><time>2026-05-02T07:58:24.973Z</time></trkpt><trkpt lat="40.62583292764045" lon="15.029286465454074"><ele>380.0</ele><time>2026-05-02T07:58:25.973Z</time></trkpt><trkpt lat="40.625909179539" lon="15.029362230485434"><ele>380.0</ele><time>2026-05-02T07:58:26.973Z</time></trkpt><trkpt lat="40.62597634404762" lon="15.029450051804215"><ele>379.6</ele><time>2026-05-02T07:58:27.973Z</time></trkpt><trkpt lat="40.62603557429027" lon="15.029553898022636"><ele>379.2</ele><time>2026-05-02T07:58:28.973Z</time></trkpt><trkpt lat="40.62610497183877" lon="15.029641993998085"><ele>378.79999999999995</ele><time>2026-05-02T07:58:29.973Z</time></trkpt><trkpt lat="40.62618631603704" lon="15.029708046970988"><ele>378.4</ele><time>2026-05-02T07:58:30.972Z</time></trkpt><trkpt lat="40.62626024864211" lon="15.029773645252687"><ele>378.0</ele><time>2026-05-02T07:58:31.972Z</time></trkpt><trkpt lat="40.626335594820155" lon="15.0298276353018"><ele>376.59999999999997</ele><time>2026-05-02T07:58:32.972Z</time></trkpt><trkpt lat="40.62641529285679" lon="15.029875461025153"><ele>375.2</ele><time>2026-05-02T07:58:33.972Z</time></trkpt><trkpt lat="40.62650256634745" lon="15.029911189908491"><ele>373.8</ele><time>2026-05-02T07:58:34.972Z</time></trkpt><trkpt lat="40.626592124856465" lon="15.029942054070103"><ele>372.4</ele><time>2026-05-02T07:58:35.972Z</time></trkpt><trkpt lat="40.62669250125983" lon="15.029954554461641"><ele>371.0</ele><time>2026-05-02T07:58:36.972Z</time></trkpt><trkpt lat="40.62679691547038" lon="15.029951855197673"><ele>371.0</ele><time>2026-05-02T07:58:37.972Z</time></trkpt><trkpt lat="40.62691969924534" lon="15.029944626320564"><ele>371.0</ele><time>2026-05-02T07:58:38.972Z</time></trkpt><trkpt lat="40.627049155327775" lon="15.029921626670099"><ele>371.0</ele><time>2026-05-02T07:58:39.972Z</time></trkpt><trkpt lat="40.62718792444469" lon="15.029913191516467"><ele>371.0</ele><time>2026-05-02T07:58:40.972Z</time></trkpt><trkpt lat="40.627331038104" lon="15.029904145093411"><ele>368.0</ele><time>2026-05-02T07:58:41.972Z</time></trkpt><trkpt lat="40.627474485023704" lon="15.029897816642821"><ele>365.0</ele><time>2026-05-02T07:58:42.972Z</time></trkpt><trkpt lat="40.627617958428715" lon="15.029913508789356"><ele>362.0</ele><time>2026-05-02T07:58:43.972Z</time></trkpt><trkpt lat="40.627770138615986" lon="15.029911049505598"><ele>359.0</ele><time>2026-05-02T07:58:44.972Z</time></trkpt><trkpt lat="40.627934151347105" lon="15.029909579661018"><ele>358.25</ele><time>2026-05-02T07:58:45.972Z</time></trkpt><trkpt lat="40.62808179187484" lon="15.029908256538734"><ele>357.5</ele><time>2026-05-02T07:58:46.972Z</time></trkpt><trkpt lat="40.62822627019843" lon="15.029906961756232"><ele>356.75</ele><time>2026-05-02T07:58:47.972Z</time></trkpt><trkpt lat="40.62837482045" lon="15.029905091359964"><ele>356.0</ele><time>2026-05-02T07:58:48.972Z</time></trkpt><trkpt lat="40.628518157368774" lon="15.029902711595787"><ele>355.0</ele><time>2026-05-02T07:58:49.972Z</time></trkpt><trkpt lat="40.62866072679151" lon="15.029900344573374"><ele>354.0</ele><time>2026-05-02T07:58:50.972Z</time></trkpt><trkpt lat="40.62880431476741" lon="15.029897960638895"><ele>353.0</ele><time>2026-05-02T07:58:51.972Z</time></trkpt><trkpt lat="40.628944401411815" lon="15.029895634836256"><ele>352.0</ele><time>2026-05-02T07:58:52.972Z</time></trkpt><trkpt lat="40.62908966054321" lon="15.02989546376432"><ele>352.0</ele><time>2026-05-02T07:58:53.972Z</time></trkpt><trkpt lat="40.62921894869804" lon="15.029897253769107"><ele>352.0</ele><time>2026-05-02T07:58:54.972Z</time></trkpt><trkpt lat="40.629331066349756" lon="15.029899550565007"><ele>352.0</ele><time>2026-05-02T07:58:55.972Z</time></trkpt><trkpt lat="40.62943535362106" lon="15.029895377726318"><ele>352.0</ele><time>2026-05-02T07:58:56.972Z</time></trkpt><trkpt lat="40.62952760895199" lon="15.029907296894413"><ele>352.0</ele><time>2026-05-02T07:58:57.972Z</time></trkpt><trkpt lat="40.629628854732346" lon="15.02990560789164"><ele>352.20000000000005</ele><time>2026-05-02T07:58:58.972Z</time></trkpt><trkpt lat="40.62972665873701" lon="15.029881998598645"><ele>352.4</ele><time>2026-05-02T07:58:59.972Z</time></trkpt><trkpt lat="40.62983836804955" lon="15.029889615940622"><ele>352.6</ele><time>2026-05-02T07:59:00.971Z</time></trkpt><trkpt lat="40.629948288907435" lon="15.02988681750026"><ele>352.79999999999995</ele><time>2026-05-02T07:59:01.971Z</time></trkpt><trkpt lat="40.63004059180386" lon="15.029886838770208"><ele>353.0</ele><time>2026-05-02T07:59:02.971Z</time></trkpt><trkpt lat="40.63012927336692" lon="15.02988836500127"><ele>353.0</ele><time>2026-05-02T07:59:03.971Z</time></trkpt><trkpt lat="40.630201997803795" lon="15.02994576803672"><ele>353.0</ele><time>2026-05-02T07:59:04.971Z</time></trkpt><trkpt lat="40.63026324005121" lon="15.03002674659854"><ele>353.0</ele><time>2026-05-02T07:59:05.971Z</time></trkpt><trkpt lat="40.6302334536274" lon="15.030156459668438"><ele>353.0</ele><time>2026-05-02T07:59:06.971Z</time></trkpt><trkpt lat="40.63025496393155" lon="15.030276093411102"><ele>353.0</ele><time>2026-05-02T07:59:07.971Z</time></trkpt><trkpt lat="40.6302755042631" lon="15.03040074141942"><ele>353.6666666666667</ele><time>2026-05-02T07:59:08.971Z</time></trkpt><trkpt lat="40.63029617615368" lon="15.030537085190028"><ele>354.33333333333337</ele><time>2026-05-02T07:59:09.971Z</time></trkpt><trkpt lat="40.630326948623654" lon="15.0306562846291"><ele>355.0</ele><time>2026-05-02T07:59:10.971Z</time></trkpt><trkpt lat="40.63031722697701" lon="15.030768435001171"><ele>355.6666666666667</ele><time>2026-05-02T07:59:11.971Z</time></trkpt><trkpt lat="40.630333193084645" lon="15.030866121602353"><ele>356.3333333333333</ele><time>2026-05-02T07:59:12.971Z</time></trkpt><trkpt lat="40.63034718434662" lon="15.03097254549976"><ele>357.0</ele><time>2026-05-02T07:59:13.971Z</time></trkpt><trkpt lat="40.630363709523856" lon="15.031057771827294"><ele>358.40000000000003</ele><time>2026-05-02T07:59:14.971Z</time></trkpt><trkpt lat="40.63038189161616" lon="15.03113893268633"><ele>359.8</ele><time>2026-05-02T07:59:15.971Z</time></trkpt><trkpt lat="40.630415566602004" lon="15.031278336719666"><ele>361.2</ele><time>2026-05-02T07:59:17.971Z</time></trkpt><trkpt lat="40.63054233091206" lon="15.031266783256054"><ele>362.6</ele><time>2026-05-02T07:59:21.971Z</time></trkpt><trkpt lat="40.630631421143576" lon="15.031195154326246"><ele>364.0</ele><time>2026-05-02T07:59:22.971Z</time></trkpt><trkpt lat="40.63072925088891" lon="15.031117026577052"><ele>364.0</ele><time>2026-05-02T07:59:23.971Z</time></trkpt><trkpt lat="40.63084948385562" lon="15.03109097530862"><ele>364.0</ele><time>2026-05-02T07:59:24.971Z</time></trkpt><trkpt lat="40.63094115517088" lon="15.031027179520661"><ele>364.0</ele><time>2026-05-02T07:59:25.971Z</time></trkpt><trkpt lat="40.631021511673865" lon="15.030960800111464"><ele>364.0</ele><time>2026-05-02T07:59:26.971Z</time></trkpt><trkpt lat="40.63110312011663" lon="15.030916538090207"><ele>364.0</ele><time>2026-05-02T07:59:27.971Z</time></trkpt><trkpt lat="40.63117597765888" lon="15.030872525749729"><ele>363.57142857142856</ele><time>2026-05-02T07:59:28.971Z</time></trkpt><trkpt lat="40.6312460803628" lon="15.030829829115028"><ele>363.1428571428571</ele><time>2026-05-02T07:59:29.971Z</time></trkpt><trkpt lat="40.63131532635928" lon="15.030785311318137"><ele>362.7142857142857</ele><time>2026-05-02T07:59:30.972Z</time></trkpt><trkpt lat="40.63137999980564" lon="15.03074004155681"><ele>362.2857142857143</ele><time>2026-05-02T07:59:31.972Z</time></trkpt><trkpt lat="40.63144652091729" lon="15.030694084517878"><ele>361.85714285714283</ele><time>2026-05-02T07:59:32.972Z</time></trkpt><trkpt lat="40.63150676366605" lon="15.03065405337459"><ele>361.42857142857144</ele><time>2026-05-02T07:59:33.973Z</time></trkpt><trkpt lat="40.63156269932102" lon="15.030615338968431"><ele>361.0</ele><time>2026-05-02T07:59:34.973Z</time></trkpt><trkpt lat="40.63162072488692" lon="15.030572723749458"><ele>360.42857142857144</ele><time>2026-05-02T07:59:35.973Z</time></trkpt><trkpt lat="40.63169126251275" lon="15.030550197460789"><ele>359.85714285714283</ele><time>2026-05-02T07:59:36.972Z</time></trkpt><trkpt lat="40.63175500066708" lon="15.03050942937252"><ele>359.2857142857143</ele><time>2026-05-02T07:59:37.973Z</time></trkpt><trkpt lat="40.63181853824151" lon="15.03046932089811"><ele>358.7142857142857</ele><time>2026-05-02T07:59:38.973Z</time></trkpt><trkpt lat="40.63188124170263" lon="15.030430811919532"><ele>358.1428571428571</ele><time>2026-05-02T07:59:39.972Z</time></trkpt><trkpt lat="40.631944393851725" lon="15.030392027384517"><ele>357.57142857142856</ele><time>2026-05-02T07:59:40.972Z</time></trkpt><trkpt lat="40.63200927027247" lon="15.030352183897934"><ele>357.0</ele><time>2026-05-02T07:59:41.972Z</time></trkpt><trkpt lat="40.632077788836" lon="15.030310103610466"><ele>356.0</ele><time>2026-05-02T07:59:42.972Z</time></trkpt><trkpt lat="40.63213690204459" lon="15.03024986379981"><ele>355.0</ele><time>2026-05-02T07:59:43.973Z</time></trkpt><trkpt lat="40.63220284600385" lon="15.030216181557249"><ele>354.0</ele><time>2026-05-02T07:59:44.972Z</time></trkpt><trkpt lat="40.632265606709474" lon="15.030177852196752"><ele>353.0</ele><time>2026-05-02T07:59:45.972Z</time></trkpt><trkpt lat="40.63232792875216" lon="15.030140877552377"><ele>352.0</ele><time>2026-05-02T07:59:46.972Z</time></trkpt><trkpt lat="40.632387692870886" lon="15.030104883128217"><ele>351.0</ele><time>2026-05-02T07:59:47.972Z</time></trkpt><trkpt lat="40.63250042335026" lon="15.030037387118002"><ele>351.0</ele><time>2026-05-02T07:59:49.972Z</time></trkpt><trkpt lat="40.63256617739347" lon="15.030001608610684"><ele>351.0</ele><time>2026-05-02T07:59:50.972Z</time></trkpt><trkpt lat="40.632638786275905" lon="15.029981668560614"><ele>351.0</ele><time>2026-05-02T07:59:51.972Z</time></trkpt><trkpt lat="40.632721779212716" lon="15.0299772210912"><ele>351.0</ele><time>2026-05-02T07:59:52.972Z</time></trkpt><trkpt lat="40.632805104636724" lon="15.030019950386595"><ele>351.0</ele><time>2026-05-02T07:59:53.972Z</time></trkpt><trkpt lat="40.63290145950419" lon="15.030021062492146"><ele>351.0</ele><time>2026-05-02T07:59:54.972Z</time></trkpt><trkpt lat="40.632999787228535" lon="15.030048901322127"><ele>350.4</ele><time>2026-05-02T07:59:55.972Z</time></trkpt><trkpt lat="40.63309815773531" lon="15.030070483597315"><ele>349.8</ele><time>2026-05-02T07:59:56.972Z</time></trkpt><trkpt lat="40.63319422867438" lon="15.030092486983403"><ele>349.2</ele><time>2026-05-02T07:59:57.972Z</time></trkpt><trkpt lat="40.633282455198334" lon="15.03011519793417"><ele>348.59999999999997</ele><time>2026-05-02T07:59:58.972Z</time></trkpt><trkpt lat="40.63336850046912" lon="15.03013182063294"><ele>348.0</ele><time>2026-05-02T07:59:59.972Z</time></trkpt><trkpt lat="40.63345005499375" lon="15.030147996152413"><ele>348.0</ele><time>2026-05-02T08:00:00.972Z</time></trkpt><trkpt lat="40.63352723877115" lon="15.030172969650764"><ele>348.0</ele><time>2026-05-02T08:00:01.972Z</time></trkpt><trkpt lat="40.63359752340917" lon="15.030219248729411"><ele>348.0</ele><time>2026-05-02T08:00:02.972Z</time></trkpt><trkpt lat="40.633663371234746" lon="15.030269834880825"><ele>348.0</ele><time>2026-05-02T08:00:03.972Z</time></trkpt><trkpt lat="40.63372976393277" lon="15.030323236684719"><ele>348.0</ele><time>2026-05-02T08:00:04.972Z</time></trkpt><trkpt lat="40.63379817036062" lon="15.030384122671995"><ele>348.0</ele><time>2026-05-02T08:00:05.972Z</time></trkpt><trkpt lat="40.63386241138278" lon="15.030464501861914"><ele>347.0</ele><time>2026-05-02T08:00:06.972Z</time></trkpt><trkpt lat="40.63393797551903" lon="15.030533830868425"><ele>346.0</ele><time>2026-05-02T08:00:07.972Z</time></trkpt><trkpt lat="40.634013531711666" lon="15.030601509154053"><ele>345.0</ele><time>2026-05-02T08:00:08.972Z</time></trkpt><trkpt lat="40.63409921763169" lon="15.030678261021052"><ele>344.0</ele><time>2026-05-02T08:00:09.972Z</time></trkpt><trkpt lat="40.634180823102376" lon="15.030752502514266"><ele>343.0</ele><time>2026-05-02T08:00:10.972Z</time></trkpt><trkpt lat="40.63425737154813" lon="15.030823088255486"><ele>343.0</ele><time>2026-05-02T08:00:11.972Z</time></trkpt><trkpt lat="40.634328909955904" lon="15.03088694016397"><ele>343.0</ele><time>2026-05-02T08:00:12.972Z</time></trkpt><trkpt lat="40.63439999520248" lon="15.03094941852095"><ele>343.0</ele><time>2026-05-02T08:00:13.972Z</time></trkpt><trkpt lat="40.63446944650762" lon="15.031018976671911"><ele>343.0</ele><time>2026-05-02T08:00:14.971Z</time></trkpt><trkpt lat="40.63453468326698" lon="15.031094269619233"><ele>343.0</ele><time>2026-05-02T08:00:15.971Z</time></trkpt><trkpt lat="40.634591622463" lon="15.031173845141273"><ele>343.0</ele><time>2026-05-02T08:00:16.971Z</time></trkpt><trkpt lat="40.634654063378576" lon="15.031243216556778"><ele>341.16666666666663</ele><time>2026-05-02T08:00:17.971Z</time></trkpt><trkpt lat="40.63471154920619" lon="15.0313390370235"><ele>339.3333333333333</ele><time>2026-05-02T08:00:18.971Z</time></trkpt><trkpt lat="40.63477177401297" lon="15.031424914602999"><ele>337.5</ele><time>2026-05-02T08:00:19.971Z</time></trkpt><trkpt lat="40.63483248450567" lon="15.03151049487789"><ele>335.6666666666667</ele><time>2026-05-02T08:00:20.971Z</time></trkpt><trkpt lat="40.6348924892429" lon="15.031596070324138"><ele>333.83333333333337</ele><time>2026-05-02T08:00:21.971Z</time></trkpt><trkpt lat="40.634946879016084" lon="15.03167485223716"><ele>332.0</ele><time>2026-05-02T08:00:22.971Z</time></trkpt><trkpt lat="40.6349998955593" lon="15.031742188740806"><ele>332.0</ele><time>2026-05-02T08:00:23.971Z</time></trkpt><trkpt lat="40.63506201696813" lon="15.0317991238406"><ele>332.0</ele><time>2026-05-02T08:00:24.971Z</time></trkpt><trkpt lat="40.635142794625736" lon="15.031784506113299"><ele>332.0</ele><time>2026-05-02T08:00:25.971Z</time></trkpt><trkpt lat="40.63521212583309" lon="15.031742975272605"><ele>332.0</ele><time>2026-05-02T08:00:26.971Z</time></trkpt><trkpt lat="40.63527132837717" lon="15.03166708906822"><ele>332.0</ele><time>2026-05-02T08:00:27.971Z</time></trkpt><trkpt lat="40.63530172787325" lon="15.03156484485848"><ele>332.0</ele><time>2026-05-02T08:00:28.971Z</time></trkpt><trkpt lat="40.635330950884466" lon="15.03143710258009"><ele>328.40000000000003</ele><time>2026-05-02T08:00:29.971Z</time></trkpt><trkpt lat="40.63535445133345" lon="15.031303431937951"><ele>324.8</ele><time>2026-05-02T08:00:30.971Z</time></trkpt><trkpt lat="40.63538059724612" lon="15.031163574045134"><ele>321.2</ele><time>2026-05-02T08:00:31.971Z</time></trkpt><trkpt lat="40.63541086944285" lon="15.031037654397526"><ele>317.6</ele><time>2026-05-02T08:00:32.971Z</time></trkpt><trkpt lat="40.63543183129256" lon="15.03091106355584"><ele>314.0</ele><time>2026-05-02T08:00:33.971Z</time></trkpt><trkpt lat="40.635466596645124" lon="15.030795194289599"><ele>312.4</ele><time>2026-05-02T08:00:34.971Z</time></trkpt><trkpt lat="40.63549022298672" lon="15.030666029261136"><ele>310.79999999999995</ele><time>2026-05-02T08:00:35.971Z</time></trkpt><trkpt lat="40.63550062545995" lon="15.030525530554245"><ele>309.20000000000005</ele><time>2026-05-02T08:00:36.971Z</time></trkpt><trkpt lat="40.63549854884064" lon="15.030380794232489"><ele>307.6</ele><time>2026-05-02T08:00:37.971Z</time></trkpt><trkpt lat="40.63549501007309" lon="15.030227364214058"><ele>306.0</ele><time>2026-05-02T08:00:38.971Z</time></trkpt><trkpt lat="40.63549036695511" lon="15.03006376260818"><ele>304.75</ele><time>2026-05-02T08:00:39.971Z</time></trkpt><trkpt lat="40.63548563797629" lon="15.029894684281837"><ele>303.5</ele><time>2026-05-02T08:00:40.971Z</time></trkpt><trkpt lat="40.635482706740355" lon="15.029728182623643"><ele>302.25</ele><time>2026-05-02T08:00:41.971Z</time></trkpt><trkpt lat="40.63547973023878" lon="15.02955911009096"><ele>301.0</ele><time>2026-05-02T08:00:42.971Z</time></trkpt><trkpt lat="40.63546188844567" lon="15.029401412244932"><ele>301.0</ele><time>2026-05-02T08:00:43.97Z</time></trkpt><trkpt lat="40.63546779338743" lon="15.029245787132574"><ele>301.0</ele><time>2026-05-02T08:00:44.97Z</time></trkpt><trkpt lat="40.635462910435805" lon="15.029106395845076"><ele>301.0</ele><time>2026-05-02T08:00:45.97Z</time></trkpt><trkpt lat="40.635457710382894" lon="15.028968099068146"><ele>301.0</ele><time>2026-05-02T08:00:46.97Z</time></trkpt><trkpt lat="40.635457026061914" lon="15.02883574114237"><ele>301.0</ele><time>2026-05-02T08:00:47.97Z</time></trkpt><trkpt lat="40.63545454572487" lon="15.02870319530472"><ele>300.0</ele><time>2026-05-02T08:00:48.97Z</time></trkpt><trkpt lat="40.63544786256743" lon="15.028567131623484"><ele>299.0</ele><time>2026-05-02T08:00:49.97Z</time></trkpt><trkpt lat="40.635447297114496" lon="15.028421403823543"><ele>298.0</ele><time>2026-05-02T08:00:50.97Z</time></trkpt><trkpt lat="40.63545203802553" lon="15.028285135868739"><ele>297.0</ele><time>2026-05-02T08:00:51.97Z</time></trkpt><trkpt lat="40.635456799034436" lon="15.028176322247829"><ele>296.0</ele><time>2026-05-02T08:00:52.97Z</time></trkpt><trkpt lat="40.63547104645313" lon="15.028075073584569"><ele>295.5</ele><time>2026-05-02T08:00:53.97Z</time></trkpt><trkpt lat="40.635505708399165" lon="15.02798250876927"><ele>295.0</ele><time>2026-05-02T08:00:54.97Z</time></trkpt><trkpt lat="40.63556010802349" lon="15.027933162078975"><ele>294.5</ele><time>2026-05-02T08:00:55.97Z</time></trkpt><trkpt lat="40.635623328358186" lon="15.027905438564826"><ele>294.0</ele><time>2026-05-02T08:00:56.97Z</time></trkpt><trkpt lat="40.63569663703675" lon="15.0279484160523"><ele>293.5</ele><time>2026-05-02T08:00:57.97Z</time></trkpt><trkpt lat="40.6357668601223" lon="15.027979914029805"><ele>293.0</ele><time>2026-05-02T08:00:58.97Z</time></trkpt><trkpt lat="40.63584850087186" lon="15.02801553813084"><ele>293.0</ele><time>2026-05-02T08:00:59.97Z</time></trkpt><trkpt lat="40.63594017664459" lon="15.02805864183472"><ele>293.0</ele><time>2026-05-02T08:01:00.97Z</time></trkpt><trkpt lat="40.63602754140196" lon="15.02810410866562"><ele>293.0</ele><time>2026-05-02T08:01:01.97Z</time></trkpt><trkpt lat="40.63610304109426" lon="15.02814871901353"><ele>293.0</ele><time>2026-05-02T08:01:02.97Z</time></trkpt><trkpt lat="40.63616690268746" lon="15.028198765929536"><ele>293.0</ele><time>2026-05-02T08:01:03.97Z</time></trkpt><trkpt lat="40.63621346886284" lon="15.028267029049802"><ele>293.0</ele><time>2026-05-02T08:01:04.97Z</time></trkpt><trkpt lat="40.636251566292344" lon="15.028344616816574"><ele>291.33333333333337</ele><time>2026-05-02T08:01:05.97Z</time></trkpt><trkpt lat="40.636289376486914" lon="15.028438652277531"><ele>289.6666666666667</ele><time>2026-05-02T08:01:06.97Z</time></trkpt><trkpt lat="40.636337570144214" lon="15.02853574958369"><ele>288.0</ele><time>2026-05-02T08:01:07.97Z</time></trkpt><trkpt lat="40.636375230118006" lon="15.028634313213786"><ele>286.3333333333333</ele><time>2026-05-02T08:01:08.97Z</time></trkpt><trkpt lat="40.636421848164" lon="15.02873620383888"><ele>284.66666666666663</ele><time>2026-05-02T08:01:09.97Z</time></trkpt><trkpt lat="40.636478161290924" lon="15.028834296282067"><ele>283.0</ele><time>2026-05-02T08:01:10.97Z</time></trkpt><trkpt lat="40.636529252995636" lon="15.028930912816543"><ele>283.0</ele><time>2026-05-02T08:01:11.97Z</time></trkpt><trkpt lat="40.63657528737688" lon="15.029026302527944"><ele>283.0</ele><time>2026-05-02T08:01:12.97Z</time></trkpt><trkpt lat="40.63661729336843" lon="15.029121726285616"><ele>283.0</ele><time>2026-05-02T08:01:13.969Z</time></trkpt><trkpt lat="40.63665860711604" lon="15.029216322640712"><ele>283.0</ele><time>2026-05-02T08:01:14.969Z</time></trkpt><trkpt lat="40.63670369974993" lon="15.029307261231223"><ele>283.0</ele><time>2026-05-02T08:01:15.969Z</time></trkpt><trkpt lat="40.63674881115176" lon="15.029404199111445"><ele>283.0</ele><time>2026-05-02T08:01:16.969Z</time></trkpt><trkpt lat="40.636787356351" lon="15.029499062014848"><ele>283.16666666666663</ele><time>2026-05-02T08:01:17.969Z</time></trkpt><trkpt lat="40.636837386061124" lon="15.02958624113433"><ele>283.3333333333333</ele><time>2026-05-02T08:01:18.969Z</time></trkpt><trkpt lat="40.63689124851561" lon="15.029672180159334"><ele>283.5</ele><time>2026-05-02T08:01:19.969Z</time></trkpt><trkpt lat="40.63692761822237" lon="15.029759353072846"><ele>283.6666666666667</ele><time>2026-05-02T08:01:20.969Z</time></trkpt><trkpt lat="40.6369557530356" lon="15.029834576240797"><ele>283.83333333333337</ele><time>2026-05-02T08:01:21.969Z</time></trkpt><trkpt lat="40.63697270522568" lon="15.029924494765678"><ele>284.0</ele><time>2026-05-02T08:01:22.969Z</time></trkpt><trkpt lat="40.63699572929255" lon="15.03003148684374"><ele>281.4</ele><time>2026-05-02T08:01:23.969Z</time></trkpt><trkpt lat="40.63700284010504" lon="15.030146514222064"><ele>278.79999999999995</ele><time>2026-05-02T08:01:24.969Z</time></trkpt><trkpt lat="40.63700290155434" lon="15.030273372815607"><ele>276.20000000000005</ele><time>2026-05-02T08:01:25.969Z</time></trkpt><trkpt lat="40.63699861477929" lon="15.03040359983202"><ele>273.6</ele><time>2026-05-02T08:01:26.969Z</time></trkpt><trkpt lat="40.63697621767688" lon="15.030578121156433"><ele>271.0</ele><time>2026-05-02T08:01:27.969Z</time></trkpt><trkpt lat="40.63698824481447" lon="15.030707219072601"><ele>270.8333333333333</ele><time>2026-05-02T08:01:28.969Z</time></trkpt><trkpt lat="40.636983784166496" lon="15.03083173677383"><ele>270.66666666666663</ele><time>2026-05-02T08:01:29.969Z</time></trkpt><trkpt lat="40.63697745910632" lon="15.030941667737382"><ele>270.5</ele><time>2026-05-02T08:01:30.969Z</time></trkpt><trkpt lat="40.636970908388285" lon="15.031058895645588"><ele>270.3333333333333</ele><time>2026-05-02T08:01:31.969Z</time></trkpt><trkpt lat="40.636964719530475" lon="15.031170415885395"><ele>270.1666666666667</ele><time>2026-05-02T08:01:32.969Z</time></trkpt><trkpt lat="40.63695270489177" lon="15.031262900754895"><ele>270.0</ele><time>2026-05-02T08:01:33.969Z</time></trkpt><trkpt lat="40.636935186556556" lon="15.03134436649729"><ele>272.8333333333333</ele><time>2026-05-02T08:01:34.969Z</time></trkpt><trkpt lat="40.636876510205724" lon="15.031494681697563"><ele>275.6666666666667</ele><time>2026-05-02T08:01:36.972Z</time></trkpt><trkpt lat="40.63684203987803" lon="15.031584450349385"><ele>278.5</ele><time>2026-05-02T08:01:37.971Z</time></trkpt><trkpt lat="40.63682817157915" lon="15.031694410010221"><ele>281.33333333333337</ele><time>2026-05-02T08:01:38.971Z</time></trkpt><trkpt lat="40.63683763321507" lon="15.03180533928188"><ele>284.1666666666667</ele><time>2026-05-02T08:01:39.972Z</time></trkpt><trkpt lat="40.63686461085433" lon="15.031895642870003"><ele>287.0</ele><time>2026-05-02T08:01:40.971Z</time></trkpt><trkpt lat="40.636915113242395" lon="15.03205483719667"><ele>287.0</ele><time>2026-05-02T08:01:41.971Z</time></trkpt><trkpt lat="40.63696314009716" lon="15.03212490167021"><ele>287.0</ele><time>2026-05-02T08:01:42.972Z</time></trkpt><trkpt lat="40.63704931625277" lon="15.032233881939185"><ele>287.0</ele><time>2026-05-02T08:01:43.972Z</time></trkpt><trkpt lat="40.63711046184224" lon="15.032276283250837"><ele>287.0</ele><time>2026-05-02T08:01:44.972Z</time></trkpt><trkpt lat="40.63720132833612" lon="15.03230908339341"><ele>287.0</ele><time>2026-05-02T08:01:49.971Z</time></trkpt><trkpt lat="40.637263549618694" lon="15.032268271592171"><ele>287.0</ele><time>2026-05-02T08:01:50.971Z</time></trkpt><trkpt lat="40.637389073109986" lon="15.032221306789644"><ele>284.6666666666667</ele><time>2026-05-02T08:01:52.971Z</time></trkpt><trkpt lat="40.63745706195768" lon="15.032174932253902"><ele>282.33333333333337</ele><time>2026-05-02T08:01:53.971Z</time></trkpt><trkpt lat="40.63752935365221" lon="15.032123236031417"><ele>280.0</ele><time>2026-05-02T08:01:54.971Z</time></trkpt><trkpt lat="40.637596172337005" lon="15.032083557827908"><ele>277.6666666666667</ele><time>2026-05-02T08:01:55.971Z</time></trkpt><trkpt lat="40.63768532266677" lon="15.031997507077616"><ele>275.3333333333333</ele><time>2026-05-02T08:01:57.971Z</time></trkpt><trkpt lat="40.63772976751271" lon="15.031931401149764"><ele>273.0</ele><time>2026-05-02T08:01:59.971Z</time></trkpt><trkpt lat="40.637796506166055" lon="15.031950894910299"><ele>273.0</ele><time>2026-05-02T08:02:04.97Z</time></trkpt><trkpt lat="40.63774124121579" lon="15.032004671779132"><ele>273.0</ele><time>2026-05-02T08:02:08.97Z</time></trkpt><trkpt lat="40.637668581638344" lon="15.032071769974513"><ele>273.0</ele><time>2026-05-02T08:02:11.97Z</time></trkpt><trkpt lat="40.63759481557909" lon="15.032135205468345"><ele>273.0</ele><time>2026-05-02T08:02:14.97Z</time></trkpt><trkpt lat="40.63754585070983" lon="15.032214474013683"><ele>273.0</ele><time>2026-05-02T08:02:17.97Z</time></trkpt><trkpt lat="40.63764198555638" lon="15.032585047616996"><ele>274.2</ele><time>2026-05-02T08:02:18.97Z</time></trkpt><trkpt lat="40.63757633768137" lon="15.032670653471635"><ele>275.4</ele><time>2026-05-02T08:02:20.97Z</time></trkpt><trkpt lat="40.63750583272836" lon="15.032736163602799"><ele>276.59999999999997</ele><time>2026-05-02T08:02:22.97Z</time></trkpt><trkpt lat="40.637426349193774" lon="15.032798742868833"><ele>277.8</ele><time>2026-05-02T08:02:24.97Z</time></trkpt><trkpt lat="40.6373297104836" lon="15.032881717023859"><ele>279.0</ele><time>2026-05-02T08:02:26.97Z</time></trkpt><trkpt lat="40.63727708215916" lon="15.032953105387604"><ele>279.0</ele><time>2026-05-02T08:02:28.97Z</time></trkpt><trkpt lat="40.63724683480654" lon="15.033066406553683"><ele>279.0</ele><time>2026-05-02T08:02:31.97Z</time></trkpt><trkpt lat="40.63720553137058" lon="15.033184516603805"><ele>279.0</ele><time>2026-05-02T08:02:33.97Z</time></trkpt><trkpt lat="40.63717626418733" lon="15.033322105256385"><ele>279.0</ele><time>2026-05-02T08:02:35.969Z</time></trkpt><trkpt lat="40.637134459952875" lon="15.033425840333354"><ele>279.0</ele><time>2026-05-02T08:02:37.969Z</time></trkpt><trkpt lat="40.63709014081081" lon="15.03353753142392"><ele>278.6666666666667</ele><time>2026-05-02T08:02:39.969Z</time></trkpt><trkpt lat="40.637056913017325" lon="15.033665483290374"><ele>278.3333333333333</ele><time>2026-05-02T08:02:41.969Z</time></trkpt><trkpt lat="40.63702957167684" lon="15.0337614896372"><ele>278.0</ele><time>2026-05-02T08:02:43.969Z</time></trkpt><trkpt lat="40.63700148744837" lon="15.033863473735568"><ele>277.66666666666663</ele><time>2026-05-02T08:02:48.969Z</time></trkpt><trkpt lat="40.63695889079276" lon="15.033966604301725"><ele>277.3333333333333</ele><time>2026-05-02T08:02:50.969Z</time></trkpt><trkpt lat="40.63691349154487" lon="15.03405982857632"><ele>277.0</ele><time>2026-05-02T08:02:52.969Z</time></trkpt><trkpt lat="40.636868314648225" lon="15.034158328498028"><ele>279.2</ele><time>2026-05-02T08:02:54.969Z</time></trkpt><trkpt lat="40.63682745676116" lon="15.034296462278228"><ele>281.4</ele><time>2026-05-02T08:02:56.969Z</time></trkpt><trkpt lat="40.636802606854346" lon="15.03442282827912"><ele>283.6</ele><time>2026-05-02T08:02:58.969Z</time></trkpt><trkpt lat="40.63678600551824" lon="15.034569008099021"><ele>285.8</ele><time>2026-05-02T08:03:00.969Z</time></trkpt><trkpt lat="40.63678127179391" lon="15.034664389884451"><ele>288.0</ele><time>2026-05-02T08:03:01.969Z</time></trkpt><trkpt lat="40.636767077675835" lon="15.034822562271524"><ele>288.0</ele><time>2026-05-02T08:03:03.969Z</time></trkpt><trkpt lat="40.63676241364238" lon="15.034906588855016"><ele>288.0</ele><time>2026-05-02T08:03:04.968Z</time></trkpt><trkpt lat="40.63675902164852" lon="15.0350634519191"><ele>288.0</ele><time>2026-05-02T08:03:06.968Z</time></trkpt><trkpt lat="40.63673970182434" lon="15.03521207237076"><ele>288.0</ele><time>2026-05-02T08:03:08.968Z</time></trkpt><trkpt lat="40.63672491739035" lon="15.035353725962477"><ele>288.0</ele><time>2026-05-02T08:03:10.968Z</time></trkpt><trkpt lat="40.636712767390705" lon="15.035484147218627"><ele>288.6</ele><time>2026-05-02T08:03:12.968Z</time></trkpt><trkpt lat="40.63670142080838" lon="15.035605733256594"><ele>289.20000000000005</ele><time>2026-05-02T08:03:14.968Z</time></trkpt><trkpt lat="40.63670524213023" lon="15.035762282218323"><ele>289.8</ele><time>2026-05-02T08:03:16.968Z</time></trkpt><trkpt lat="40.6366958815606" lon="15.03590596964784"><ele>290.40000000000003</ele><time>2026-05-02T08:03:18.968Z</time></trkpt><trkpt lat="40.63669607083285" lon="15.03606071504207"><ele>291.0</ele><time>2026-05-02T08:03:20.968Z</time></trkpt><trkpt lat="40.63669610771027" lon="15.03614742579713"><ele>291.40000000000003</ele><time>2026-05-02T08:03:21.968Z</time></trkpt><trkpt lat="40.63669827391584" lon="15.03623207249664"><ele>291.8</ele><time>2026-05-02T08:03:22.968Z</time></trkpt><trkpt lat="40.6366957185699" lon="15.036316709550405"><ele>292.20000000000005</ele><time>2026-05-02T08:03:23.968Z</time></trkpt><trkpt lat="40.63669807171383" lon="15.036476903378384"><ele>292.6</ele><time>2026-05-02T08:03:25.968Z</time></trkpt><trkpt lat="40.63668331464707" lon="15.036632946782387"><ele>293.0</ele><time>2026-05-02T08:03:27.968Z</time></trkpt><trkpt lat="40.63666725902914" lon="15.036775494093026"><ele>293.1666666666667</ele><time>2026-05-02T08:03:29.968Z</time></trkpt><trkpt lat="40.636648277551934" lon="15.036960157560152"><ele>293.33333333333337</ele><time>2026-05-02T08:03:31.968Z</time></trkpt><trkpt lat="40.636631575524255" lon="15.037052471879376"><ele>293.5</ele><time>2026-05-02T08:03:32.968Z</time></trkpt><trkpt lat="40.63662289912402" lon="15.037145101780318"><ele>293.6666666666667</ele><time>2026-05-02T08:03:33.967Z</time></trkpt><trkpt lat="40.6366177252565" lon="15.03724161235731"><ele>293.8333333333333</ele><time>2026-05-02T08:03:34.967Z</time></trkpt><trkpt lat="40.63661384449773" lon="15.037339186607621"><ele>294.0</ele><time>2026-05-02T08:03:35.967Z</time></trkpt><trkpt lat="40.63660903748191" lon="15.037427738704062"><ele>294.8333333333333</ele><time>2026-05-02T08:03:36.967Z</time></trkpt><trkpt lat="40.636608485183295" lon="15.037517804660018"><ele>295.6666666666667</ele><time>2026-05-02T08:03:37.967Z</time></trkpt><trkpt lat="40.636607824098384" lon="15.037601852474735"><ele>296.5</ele><time>2026-05-02T08:03:38.967Z</time></trkpt><trkpt lat="40.63661413832655" lon="15.03768447828352"><ele>297.33333333333337</ele><time>2026-05-02T08:03:39.967Z</time></trkpt><trkpt lat="40.63661762417327" lon="15.03785161648737"><ele>298.1666666666667</ele><time>2026-05-02T08:03:41.967Z</time></trkpt><trkpt lat="40.63660698723478" lon="15.038014500301802"><ele>299.0</ele><time>2026-05-02T08:03:43.97Z</time></trkpt><trkpt lat="40.636602898155445" lon="15.038105737341294"><ele>299.0</ele><time>2026-05-02T08:03:44.97Z</time></trkpt><trkpt lat="40.636602071039036" lon="15.038243596246406"><ele>299.0</ele><time>2026-05-02T08:03:46.97Z</time></trkpt><trkpt lat="40.63659197764766" lon="15.038379189246504"><ele>299.0</ele><time>2026-05-02T08:03:48.97Z</time></trkpt><trkpt lat="40.636588515936154" lon="15.03852082679905"><ele>299.0</ele><time>2026-05-02T08:03:50.971Z</time></trkpt><trkpt lat="40.636590939627105" lon="15.038661445735382"><ele>299.0</ele><time>2026-05-02T08:03:52.971Z</time></trkpt><trkpt lat="40.63659262735933" lon="15.03876974996326"><ele>299.5</ele><time>2026-05-02T08:03:54.971Z</time></trkpt><trkpt lat="40.636598609248885" lon="15.0388705798335"><ele>300.0</ele><time>2026-05-02T08:03:56.971Z</time></trkpt><trkpt lat="40.63658439015059" lon="15.038957618362446"><ele>300.5</ele><time>2026-05-02T08:03:59.97Z</time></trkpt><trkpt lat="40.63660886761636" lon="15.039056140671201"><ele>301.0</ele><time>2026-05-02T08:04:04.97Z</time></trkpt><trkpt lat="40.636589167400324" lon="15.03914165330046"><ele>301.5</ele><time>2026-05-02T08:04:07.97Z</time></trkpt><trkpt lat="40.63658930068129" lon="15.039227124609708"><ele>302.0</ele><time>2026-05-02T08:04:09.97Z</time></trkpt><trkpt lat="40.63647916550518" lon="15.039344140945287"><ele>303.5</ele><time>2026-05-02T08:04:11.97Z</time></trkpt><trkpt lat="40.636499472854474" lon="15.039437788242529"><ele>305.0</ele><time>2026-05-02T08:04:14.97Z</time></trkpt><trkpt lat="40.63677513399152" lon="15.039353580985644"><ele>306.5</ele><time>2026-05-02T08:04:16.97Z</time></trkpt><trkpt lat="40.636854956531536" lon="15.039297735507246"><ele>308.0</ele><time>2026-05-02T08:04:18.97Z</time></trkpt><trkpt lat="40.63693992884234" lon="15.039259942365696"><ele>308.4</ele><time>2026-05-02T08:04:20.97Z</time></trkpt><trkpt lat="40.63705522812329" lon="15.039234459316583"><ele>308.8</ele><time>2026-05-02T08:04:22.97Z</time></trkpt><trkpt lat="40.63717243698906" lon="15.039199413779443"><ele>309.2</ele><time>2026-05-02T08:04:24.97Z</time></trkpt><trkpt lat="40.63723741407359" lon="15.039175640518595"><ele>309.6</ele><time>2026-05-02T08:04:25.97Z</time></trkpt><trkpt lat="40.63730942573893" lon="15.039161101589324"><ele>310.0</ele><time>2026-05-02T08:04:26.97Z</time></trkpt><trkpt lat="40.637383048680576" lon="15.039138943982612"><ele>308.16666666666663</ele><time>2026-05-02T08:04:27.97Z</time></trkpt><trkpt lat="40.637457646364645" lon="15.039118340918321"><ele>306.3333333333333</ele><time>2026-05-02T08:04:28.97Z</time></trkpt><trkpt lat="40.63752253919996" lon="15.039102472889903"><ele>304.5</ele><time>2026-05-02T08:04:29.969Z</time></trkpt><trkpt lat="40.63759005137454" lon="15.03909572832762"><ele>302.6666666666667</ele><time>2026-05-02T08:04:30.969Z</time></trkpt><trkpt lat="40.6376550443817" lon="15.039089192130271"><ele>300.83333333333337</ele><time>2026-05-02T08:04:31.969Z</time></trkpt><trkpt lat="40.637782445796766" lon="15.039077371906133"><ele>299.0</ele><time>2026-05-02T08:04:33.969Z</time></trkpt><trkpt lat="40.637846158573325" lon="15.03908096239416"><ele>298.5</ele><time>2026-05-02T08:04:34.969Z</time></trkpt><trkpt lat="40.637927835746495" lon="15.039077636196339"><ele>298.0</ele><time>2026-05-02T08:04:36.969Z</time></trkpt><trkpt lat="40.63800085659059" lon="15.039132657325162"><ele>297.5</ele><time>2026-05-02T08:04:39.969Z</time></trkpt><trkpt lat="40.63805358290616" lon="15.039189654289032"><ele>297.0</ele><time>2026-05-02T08:04:41.969Z</time></trkpt><trkpt lat="40.638118094505565" lon="15.03924334202858"><ele>296.5</ele><time>2026-05-02T08:04:43.969Z</time></trkpt><trkpt lat="40.63818914038905" lon="15.039242728466377"><ele>296.0</ele><time>2026-05-02T08:04:45.969Z</time></trkpt><trkpt lat="40.63825981307917" lon="15.039148709674372"><ele>296.0</ele><time>2026-05-02T08:04:47.969Z</time></trkpt><trkpt lat="40.63833299169998" lon="15.039030887891926"><ele>296.0</ele><time>2026-05-02T08:04:49.969Z</time></trkpt><trkpt lat="40.63837855928344" lon="15.038951111150872"><ele>296.0</ele><time>2026-05-02T08:04:51.969Z</time></trkpt><trkpt lat="40.638450150952195" lon="15.038967752380886"><ele>296.0</ele><time>2026-05-02T08:04:53.969Z</time></trkpt><trkpt lat="40.638538224392924" lon="15.038986116268209"><ele>296.0</ele><time>2026-05-02T08:04:56.969Z</time></trkpt><trkpt lat="40.63861991823943" lon="15.039008668868405"><ele>296.0</ele><time>2026-05-02T08:04:59.968Z</time></trkpt><trkpt lat="40.63869266563259" lon="15.039039397611814"><ele>298.1666666666667</ele><time>2026-05-02T08:05:02.968Z</time></trkpt><trkpt lat="40.63874891090961" lon="15.039100197780034"><ele>300.33333333333337</ele><time>2026-05-02T08:05:04.968Z</time></trkpt><trkpt lat="40.63882345248415" lon="15.039179208915296"><ele>302.5</ele><time>2026-05-02T08:05:06.968Z</time></trkpt><trkpt lat="40.63891770331993" lon="15.039217268478213"><ele>304.6666666666667</ele><time>2026-05-02T08:05:08.968Z</time></trkpt><trkpt lat="40.638979596367584" lon="15.039187052016914"><ele>306.8333333333333</ele><time>2026-05-02T08:05:09.968Z</time></trkpt><trkpt lat="40.639024241523934" lon="15.039096341381928"><ele>309.0</ele><time>2026-05-02T08:05:10.968Z</time></trkpt><trkpt lat="40.63901807538119" lon="15.039001134474013"><ele>309.0</ele><time>2026-05-02T08:05:11.968Z</time></trkpt><trkpt lat="40.63905737704462" lon="15.038861155690535"><ele>309.0</ele><time>2026-05-02T08:05:13.968Z</time></trkpt><trkpt lat="40.63909595653424" lon="15.038782114522064"><ele>309.0</ele><time>2026-05-02T08:05:15.968Z</time></trkpt><trkpt lat="40.63916116497491" lon="15.038708960135747"><ele>309.0</ele><time>2026-05-02T08:05:17.968Z</time></trkpt><trkpt lat="40.63922197006572" lon="15.038606548126237"><ele>309.0</ele><time>2026-05-02T08:05:19.968Z</time></trkpt><trkpt lat="40.6392374054021" lon="15.038439874613303"><ele>309.0</ele><time>2026-05-02T08:05:21.968Z</time></trkpt><trkpt lat="40.63925148537413" lon="15.038354993342974"><ele>309.0</ele><time>2026-05-02T08:05:22.968Z</time></trkpt><trkpt lat="40.63925580739572" lon="15.038180043011558"><ele>309.0</ele><time>2026-05-02T08:05:24.968Z</time></trkpt><trkpt lat="40.63925452759694" lon="15.038086079453075"><ele>309.0</ele><time>2026-05-02T08:05:25.968Z</time></trkpt><trkpt lat="40.6392474778592" lon="15.037999068639504"><ele>309.0</ele><time>2026-05-02T08:05:26.968Z</time></trkpt><trkpt lat="40.63923946032794" lon="15.037909090001559"><ele>309.0</ele><time>2026-05-02T08:05:27.968Z</time></trkpt><trkpt lat="40.63922952033352" lon="15.037825265854039"><ele>307.0</ele><time>2026-05-02T08:05:28.967Z</time></trkpt><trkpt lat="40.63921648558395" lon="15.037700689272755"><ele>305.0</ele><time>2026-05-02T08:05:30.967Z</time></trkpt><trkpt lat="40.63922060663064" lon="15.037587998954095"><ele>303.0</ele><time>2026-05-02T08:05:32.967Z</time></trkpt><trkpt lat="40.63926625555946" lon="15.03749609868325"><ele>301.0</ele><time>2026-05-02T08:05:34.967Z</time></trkpt><trkpt lat="40.639347105153774" lon="15.037477145385111"><ele>299.0</ele><time>2026-05-02T08:05:36.967Z</time></trkpt><trkpt lat="40.63945587359275" lon="15.037427838456205"><ele>301.1666666666667</ele><time>2026-05-02T08:05:38.967Z</time></trkpt><trkpt lat="40.63953323494216" lon="15.037366614424217"><ele>303.33333333333337</ele><time>2026-05-02T08:05:39.967Z</time></trkpt><trkpt lat="40.63959687713547" lon="15.037308585381426"><ele>305.5</ele><time>2026-05-02T08:05:40.967Z</time></trkpt><trkpt lat="40.63965678633818" lon="15.03725056115034"><ele>307.6666666666667</ele><time>2026-05-02T08:05:41.967Z</time></trkpt><trkpt lat="40.639700724334396" lon="15.037190984475512"><ele>309.8333333333333</ele><time>2026-05-02T08:05:42.967Z</time></trkpt><trkpt lat="40.63977932094955" lon="15.03708729042402"><ele>312.0</ele><time>2026-05-02T08:05:44.967Z</time></trkpt><trkpt lat="40.63986322645452" lon="15.037042101986135"><ele>312.0</ele><time>2026-05-02T08:05:46.967Z</time></trkpt><trkpt lat="40.639945453450416" lon="15.03693806330132"><ele>312.0</ele><time>2026-05-02T08:05:48.969Z</time></trkpt><trkpt lat="40.640031972011805" lon="15.036850294101827"><ele>312.0</ele><time>2026-05-02T08:05:50.97Z</time></trkpt><trkpt lat="40.640102957189015" lon="15.036744171362217"><ele>312.0</ele><time>2026-05-02T08:05:52.969Z</time></trkpt><trkpt lat="40.640204402504864" lon="15.036643619821001"><ele>313.75</ele><time>2026-05-02T08:05:54.969Z</time></trkpt><trkpt lat="40.64029315825049" lon="15.036555144265849"><ele>315.5</ele><time>2026-05-02T08:05:56.969Z</time></trkpt><trkpt lat="40.640398296581935" lon="15.036469633892905"><ele>317.25</ele><time>2026-05-02T08:05:58.97Z</time></trkpt><trkpt lat="40.64050516604246" lon="15.03638301788121"><ele>319.0</ele><time>2026-05-02T08:06:00.969Z</time></trkpt><trkpt lat="40.64062172294914" lon="15.03634880642452"><ele>319.0</ele><time>2026-05-02T08:06:02.97Z</time></trkpt><trkpt lat="40.640731928595244" lon="15.036285520204476"><ele>319.0</ele><time>2026-05-02T08:06:04.97Z</time></trkpt><trkpt lat="40.640832583296444" lon="15.036229562367842"><ele>319.0</ele><time>2026-05-02T08:06:06.969Z</time></trkpt><trkpt lat="40.64093083565113" lon="15.036179877995432"><ele>319.0</ele><time>2026-05-02T08:06:08.969Z</time></trkpt><trkpt lat="40.64099554156177" lon="15.036147162857276"><ele>319.0</ele><time>2026-05-02T08:06:10.969Z</time></trkpt><trkpt lat="40.64105000222666" lon="15.035980637291582"><ele>319.0</ele><time>2026-05-02T08:06:12.969Z</time></trkpt><trkpt lat="40.64112842488304" lon="15.035875900077464"><ele>319.0</ele><time>2026-05-02T08:06:14.969Z</time></trkpt><trkpt lat="40.64119444427307" lon="15.035790700860582"><ele>319.0</ele><time>2026-05-02T08:06:16.969Z</time></trkpt><trkpt lat="40.64124978582713" lon="15.035713093078769"><ele>319.0</ele><time>2026-05-02T08:06:18.969Z</time></trkpt><trkpt lat="40.64129580286719" lon="15.035626681804942"><ele>319.0</ele><time>2026-05-02T08:06:20.969Z</time></trkpt><trkpt lat="40.641340260109274" lon="15.03556045723796"><ele>319.0</ele><time>2026-05-02T08:06:22.969Z</time></trkpt><trkpt lat="40.6413870997773" lon="15.03548190670067"><ele>322.0</ele><time>2026-05-02T08:06:24.969Z</time></trkpt><trkpt lat="40.64144509057966" lon="15.035390518457692"><ele>325.0</ele><time>2026-05-02T08:06:26.969Z</time></trkpt><trkpt lat="40.641498332510636" lon="15.035293010259332"><ele>328.0</ele><time>2026-05-02T08:06:28.969Z</time></trkpt><trkpt lat="40.64157177807277" lon="15.035166381223746"><ele>331.0</ele><time>2026-05-02T08:06:30.969Z</time></trkpt><trkpt lat="40.64164973283361" lon="15.035062588251508"><ele>334.0</ele><time>2026-05-02T08:06:32.969Z</time></trkpt><trkpt lat="40.64170875182861" lon="15.03500178753433"><ele>334.0</ele><time>2026-05-02T08:06:34.969Z</time></trkpt><trkpt lat="40.6417746066543" lon="15.034919218082255"><ele>334.0</ele><time>2026-05-02T08:06:37.968Z</time></trkpt><trkpt lat="40.641830414904575" lon="15.03487581649917"><ele>334.0</ele><time>2026-05-02T08:08:12.968Z</time></trkpt><trkpt lat="40.64177647657804" lon="15.034946221786512"><ele>334.0</ele><time>2026-05-02T08:08:41.967Z</time></trkpt><trkpt lat="40.64171022411901" lon="15.035029836687805"><ele>334.0</ele><time>2026-05-02T08:08:44.967Z</time></trkpt><trkpt lat="40.64165209000712" lon="15.035098465152375"><ele>334.0</ele><time>2026-05-02T08:08:47.961Z</time></trkpt><trkpt lat="40.64159749333907" lon="15.035168632773535"><ele>334.0</ele><time>2026-05-02T08:08:50.956Z</time></trkpt><trkpt lat="40.64153845404263" lon="15.03525629216661"><ele>334.0</ele><time>2026-05-02T08:08:53.952Z</time></trkpt><trkpt lat="40.641497964906655" lon="15.03532386843092"><ele>334.0</ele><time>2026-05-02T08:08:55.949Z</time></trkpt><trkpt lat="40.641443558485314" lon="15.035416988454417"><ele>334.0</ele><time>2026-05-02T08:08:58.946Z</time></trkpt><trkpt lat="40.64139683182348" lon="15.035503249416815"><ele>334.0</ele><time>2026-05-02T08:09:02.943Z</time></trkpt><trkpt lat="40.6413601152659" lon="15.035571611848717"><ele>334.0</ele><time>2026-05-02T08:09:05.94Z</time></trkpt><trkpt lat="40.64131490734034" lon="15.03564105790234"><ele>334.0</ele><time>2026-05-02T08:09:08.939Z</time></trkpt><trkpt lat="40.64126988103849" lon="15.035704377757368"><ele>334.0</ele><time>2026-05-02T08:09:11.937Z</time></trkpt><trkpt lat="40.64122118458451" lon="15.035762663272228"><ele>334.0</ele><time>2026-05-02T08:09:14.936Z</time></trkpt><trkpt lat="40.64117360720406" lon="15.035831139364522"><ele>334.0</ele><time>2026-05-02T08:09:17.935Z</time></trkpt><trkpt lat="40.64112577567988" lon="15.03589269700731"><ele>334.0</ele><time>2026-05-02T08:09:19.934Z</time></trkpt><trkpt lat="40.64106983488941" lon="15.035957158638755"><ele>334.0</ele><time>2026-05-02T08:09:21.934Z</time></trkpt><trkpt lat="40.641020975292285" lon="15.036033929657721"><ele>334.0</ele><time>2026-05-02T08:09:23.933Z</time></trkpt><trkpt lat="40.640961716107185" lon="15.036099735801365"><ele>331.5</ele><time>2026-05-02T08:09:25.933Z</time></trkpt><trkpt lat="40.640895386344965" lon="15.036162999074964"><ele>329.0</ele><time>2026-05-02T08:09:28.932Z</time></trkpt><trkpt lat="40.64083067137352" lon="15.036201394702317"><ele>326.5</ele><time>2026-05-02T08:09:45.93Z</time></trkpt><trkpt lat="40.64076877903228" lon="15.036240034076572"><ele>324.0</ele><time>2026-05-02T08:09:49.93Z</time></trkpt><trkpt lat="40.6407084607715" lon="15.036293275471573"><ele>321.5</ele><time>2026-05-02T08:09:53.93Z</time></trkpt><trkpt lat="40.640627653644" lon="15.036333750472258"><ele>319.0</ele><time>2026-05-02T08:09:57.929Z</time></trkpt><trkpt lat="40.64054295986192" lon="15.036377625385224"><ele>319.0</ele><time>2026-05-02T08:10:00.932Z</time></trkpt><trkpt lat="40.64048557301161" lon="15.036418188733217"><ele>319.0</ele><time>2026-05-02T08:10:02.932Z</time></trkpt><trkpt lat="40.64042661983154" lon="15.036464734100287"><ele>319.0</ele><time>2026-05-02T08:10:04.931Z</time></trkpt><trkpt lat="40.64036535775925" lon="15.036512069661347"><ele>319.0</ele><time>2026-05-02T08:10:06.932Z</time></trkpt><trkpt lat="40.64030192804811" lon="15.036560283719384"><ele>319.0</ele><time>2026-05-02T08:10:08.931Z</time></trkpt><trkpt lat="40.64024394132647" lon="15.03660385868052"><ele>319.0</ele><time>2026-05-02T08:10:10.931Z</time></trkpt><trkpt lat="40.64017669184801" lon="15.036677643556684"><ele>319.0</ele><time>2026-05-02T08:10:12.932Z</time></trkpt><trkpt lat="40.64010632115983" lon="15.036756464647953"><ele>318.0</ele><time>2026-05-02T08:10:14.932Z</time></trkpt><trkpt lat="40.640040428075196" lon="15.036829817020804"><ele>317.0</ele><time>2026-05-02T08:10:17.932Z</time></trkpt><trkpt lat="40.639996489154704" lon="15.036889241545651"><ele>316.0</ele><time>2026-05-02T08:10:19.931Z</time></trkpt><trkpt lat="40.639939350183944" lon="15.036945117099462"><ele>315.0</ele><time>2026-05-02T08:10:21.931Z</time></trkpt><trkpt lat="40.6398890425808" lon="15.036995581557838"><ele>314.0</ele><time>2026-05-02T08:10:23.931Z</time></trkpt><trkpt lat="40.639829292820444" lon="15.037026411332205"><ele>313.0</ele><time>2026-05-02T08:10:26.931Z</time></trkpt><trkpt lat="40.639849031715144" lon="15.036907211817581"><ele>312.0</ele><time>2026-05-02T08:10:34.931Z</time></trkpt><trkpt lat="40.639891566289776" lon="15.03683685689251"><ele>312.0</ele><time>2026-05-02T08:10:36.931Z</time></trkpt><trkpt lat="40.63993874604716" lon="15.036762233205474"><ele>312.0</ele><time>2026-05-02T08:10:38.931Z</time></trkpt><trkpt lat="40.639989301672564" lon="15.036684668155592"><ele>312.0</ele><time>2026-05-02T08:10:40.93Z</time></trkpt><trkpt lat="40.64004844995773" lon="15.036594281171684"><ele>312.0</ele><time>2026-05-02T08:10:42.93Z</time></trkpt><trkpt lat="40.64012751670229" lon="15.036490280478029"><ele>312.0</ele><time>2026-05-02T08:10:44.93Z</time></trkpt><trkpt lat="40.64021304103139" lon="15.0363901377446"><ele>313.1666666666667</ele><time>2026-05-02T08:10:46.93Z</time></trkpt><trkpt lat="40.640265772009116" lon="15.036331440471013"><ele>314.3333333333333</ele><time>2026-05-02T08:10:47.93Z</time></trkpt><trkpt lat="40.640326526544456" lon="15.036258643810807"><ele>315.5</ele><time>2026-05-02T08:10:48.93Z</time></trkpt><trkpt lat="40.640384550624226" lon="15.036201866434961"><ele>316.66666666666663</ele><time>2026-05-02T08:10:49.93Z</time></trkpt><trkpt lat="40.64046526976507" lon="15.036173975425134"><ele>317.8333333333333</ele><time>2026-05-02T08:10:50.93Z</time></trkpt><trkpt lat="40.64051581209542" lon="15.036107430106112"><ele>319.0</ele><time>2026-05-02T08:10:51.93Z</time></trkpt><trkpt lat="40.6405955794493" lon="15.036006846924483"><ele>319.0</ele><time>2026-05-02T08:10:53.93Z</time></trkpt><trkpt lat="40.64066751222837" lon="15.035912040327782"><ele>319.0</ele><time>2026-05-02T08:10:55.93Z</time></trkpt><trkpt lat="40.64071933292354" lon="15.035823033299604"><ele>319.0</ele><time>2026-05-02T08:10:57.93Z</time></trkpt><trkpt lat="40.640743229648756" lon="15.035741569526833"><ele>319.0</ele><time>2026-05-02T08:11:36.928Z</time></trkpt><trkpt lat="40.64070453053984" lon="15.035813761830337"><ele>319.0</ele><time>2026-05-02T08:12:03.927Z</time></trkpt><trkpt lat="40.64065180337049" lon="15.035922613192264"><ele>319.0</ele><time>2026-05-02T08:12:05.929Z</time></trkpt><trkpt lat="40.64058157545611" lon="15.036020424410825"><ele>319.0</ele><time>2026-05-02T08:12:07.929Z</time></trkpt><trkpt lat="40.640509760713634" lon="15.036115396529306"><ele>319.0</ele><time>2026-05-02T08:12:09.929Z</time></trkpt><trkpt lat="40.64041574653781" lon="15.036209412363384"><ele>319.0</ele><time>2026-05-02T08:12:11.928Z</time></trkpt><trkpt lat="40.640327483753644" lon="15.036311418860874"><ele>319.0</ele><time>2026-05-02T08:12:13.928Z</time></trkpt><trkpt lat="40.64024083856529" lon="15.03638429917203"><ele>319.0</ele><time>2026-05-02T08:12:15.929Z</time></trkpt><trkpt lat="40.64016762920342" lon="15.036489312994322"><ele>317.59999999999997</ele><time>2026-05-02T08:12:17.928Z</time></trkpt><trkpt lat="40.640089939712254" lon="15.036598229972302"><ele>316.2</ele><time>2026-05-02T08:12:19.929Z</time></trkpt><trkpt lat="40.64004012058993" lon="15.036650484189822"><ele>314.79999999999995</ele><time>2026-05-02T08:12:20.929Z</time></trkpt><trkpt lat="40.63996400979498" lon="15.036765138058927"><ele>313.4</ele><time>2026-05-02T08:12:22.928Z</time></trkpt><trkpt lat="40.639918996446795" lon="15.036866896170967"><ele>312.0</ele><time>2026-05-02T08:12:24.928Z</time></trkpt><trkpt lat="40.63985762565708" lon="15.036970582822432"><ele>312.0</ele><time>2026-05-02T08:12:26.928Z</time></trkpt><trkpt lat="40.639819653351154" lon="15.037038056165382"><ele>312.0</ele><time>2026-05-02T08:12:27.928Z</time></trkpt><trkpt lat="40.639736864029636" lon="15.0371551461495"><ele>312.0</ele><time>2026-05-02T08:12:29.928Z</time></trkpt><trkpt lat="40.639690925943476" lon="15.037212871850873"><ele>312.0</ele><time>2026-05-02T08:12:30.928Z</time></trkpt><trkpt lat="40.63963992751774" lon="15.03726694889628"><ele>312.0</ele><time>2026-05-02T08:12:31.928Z</time></trkpt><trkpt lat="40.63956768468924" lon="15.037387499200486"><ele>312.0</ele><time>2026-05-02T08:12:33.928Z</time></trkpt><trkpt lat="40.639497266063074" lon="15.037489596676794"><ele>309.4</ele><time>2026-05-02T08:12:35.928Z</time></trkpt><trkpt lat="40.63935165289658" lon="15.037482059308402"><ele>306.79999999999995</ele><time>2026-05-02T08:12:37.928Z</time></trkpt><trkpt lat="40.63928103594944" lon="15.037510569198927"><ele>304.2</ele><time>2026-05-02T08:12:39.928Z</time></trkpt><trkpt lat="40.63923844620209" lon="15.03757647162764"><ele>301.59999999999997</ele><time>2026-05-02T08:12:43.928Z</time></trkpt><trkpt lat="40.6392113999255" lon="15.037493575169446"><ele>299.0</ele><time>2026-05-02T08:12:49.927Z</time></trkpt><trkpt lat="40.63926855106448" lon="15.037389605265716"><ele>296.59999999999997</ele><time>2026-05-02T08:12:52.927Z</time></trkpt><trkpt lat="40.639323513088506" lon="15.037297713949114"><ele>294.2</ele><time>2026-05-02T08:12:55.927Z</time></trkpt><trkpt lat="40.63937490284109" lon="15.037240115824792"><ele>291.79999999999995</ele><time>2026-05-02T08:12:57.927Z</time></trkpt><trkpt lat="40.639444496136974" lon="15.037145699527597"><ele>289.4</ele><time>2026-05-02T08:12:59.927Z</time></trkpt><trkpt lat="40.639501259437516" lon="15.037016959406346"><ele>287.0</ele><time>2026-05-02T08:13:01.927Z</time></trkpt><trkpt lat="40.639549919392216" lon="15.036893549537467"><ele>288.6</ele><time>2026-05-02T08:13:03.927Z</time></trkpt><trkpt lat="40.63958941183865" lon="15.036752858211722"><ele>290.2</ele><time>2026-05-02T08:13:05.927Z</time></trkpt><trkpt lat="40.63961968426569" lon="15.03663001174982"><ele>291.8</ele><time>2026-05-02T08:13:07.926Z</time></trkpt><trkpt lat="40.639661182092546" lon="15.036505054931238"><ele>293.4</ele><time>2026-05-02T08:13:09.926Z</time></trkpt><trkpt lat="40.63970233876602" lon="15.03636486015343"><ele>295.0</ele><time>2026-05-02T08:13:11.926Z</time></trkpt><trkpt lat="40.639751700660895" lon="15.036266190647252"><ele>295.0</ele><time>2026-05-02T08:13:13.926Z</time></trkpt><trkpt lat="40.63980079069995" lon="15.03617431421293"><ele>295.0</ele><time>2026-05-02T08:13:15.926Z</time></trkpt><trkpt lat="40.63983292522433" lon="15.036098722972094"><ele>295.0</ele><time>2026-05-02T08:13:17.926Z</time></trkpt><trkpt lat="40.639853496506475" lon="15.036008276762152"><ele>295.0</ele><time>2026-05-02T08:13:19.926Z</time></trkpt><trkpt lat="40.63988080452477" lon="15.035905491914546"><ele>295.0</ele><time>2026-05-02T08:13:21.926Z</time></trkpt><trkpt lat="40.63991410351536" lon="15.035801561441716"><ele>295.0</ele><time>2026-05-02T08:13:23.926Z</time></trkpt><trkpt lat="40.63992827524446" lon="15.035716928777111"><ele>292.16666666666663</ele><time>2026-05-02T08:13:25.926Z</time></trkpt><trkpt lat="40.63994977196663" lon="15.035620972434653"><ele>289.3333333333333</ele><time>2026-05-02T08:13:27.926Z</time></trkpt><trkpt lat="40.64001074860447" lon="15.035522551769166"><ele>286.5</ele><time>2026-05-02T08:13:29.925Z</time></trkpt><trkpt lat="40.64007881551151" lon="15.035429112015441"><ele>283.6666666666667</ele><time>2026-05-02T08:13:31.925Z</time></trkpt><trkpt lat="40.64015727681465" lon="15.03537558179996"><ele>280.83333333333337</ele><time>2026-05-02T08:13:33.925Z</time></trkpt><trkpt lat="40.64022356628125" lon="15.035296211508474"><ele>278.0</ele><time>2026-05-02T08:13:35.925Z</time></trkpt><trkpt lat="40.640287779061005" lon="15.0351846189333"><ele>281.4</ele><time>2026-05-02T08:13:37.925Z</time></trkpt><trkpt lat="40.640314452689864" lon="15.035034927026427"><ele>284.8</ele><time>2026-05-02T08:13:39.925Z</time></trkpt><trkpt lat="40.64032464837882" lon="15.034952843142955"><ele>288.2</ele><time>2026-05-02T08:13:40.925Z</time></trkpt><trkpt lat="40.6403376718443" lon="15.03481562851618"><ele>291.6</ele><time>2026-05-02T08:13:42.925Z</time></trkpt><trkpt lat="40.640360423821754" lon="15.034690172364833"><ele>295.0</ele><time>2026-05-02T08:13:44.925Z</time></trkpt><trkpt lat="40.64038730064211" lon="15.034590246275627"><ele>295.0</ele><time>2026-05-02T08:13:46.925Z</time></trkpt><trkpt lat="40.64038018183675" lon="15.03448465608568"><ele>295.0</ele><time>2026-05-02T08:13:49.925Z</time></trkpt><trkpt lat="40.64038460900503" lon="15.034384841009773"><ele>295.0</ele><time>2026-05-02T08:14:12.925Z</time></trkpt><trkpt lat="40.64041920495659" lon="15.034294074996573"><ele>295.0</ele><time>2026-05-02T08:14:16.925Z</time></trkpt><trkpt lat="40.64045532787468" lon="15.03421772974296"><ele>295.0</ele><time>2026-05-02T08:14:22.925Z</time></trkpt><trkpt lat="40.64051113739125" lon="15.034109665256377"><ele>295.0</ele><time>2026-05-02T08:14:25.925Z</time></trkpt><trkpt lat="40.640536557450766" lon="15.034013340260685"><ele>292.28571428571433</ele><time>2026-05-02T08:14:27.925Z</time></trkpt><trkpt lat="40.64056731149509" lon="15.033923771612352"><ele>289.57142857142856</ele><time>2026-05-02T08:14:29.925Z</time></trkpt><trkpt lat="40.640613916599335" lon="15.033833356658233"><ele>286.8571428571429</ele><time>2026-05-02T08:14:31.925Z</time></trkpt><trkpt lat="40.640659643008334" lon="15.033753206147502"><ele>284.14285714285717</ele><time>2026-05-02T08:14:34.925Z</time></trkpt><trkpt lat="40.64071983181481" lon="15.033692360011068"><ele>281.42857142857144</ele><time>2026-05-02T08:14:36.925Z</time></trkpt><trkpt lat="40.64077810675389" lon="15.033632052552287"><ele>278.7142857142857</ele><time>2026-05-02T08:14:38.925Z</time></trkpt><trkpt lat="40.64083159763021" lon="15.033581565396116"><ele>276.0</ele><time>2026-05-02T08:14:40.924Z</time></trkpt><trkpt lat="40.64089394511732" lon="15.033526604716767"><ele>276.0</ele><time>2026-05-02T08:14:42.924Z</time></trkpt><trkpt lat="40.640990686540015" lon="15.033449897818658"><ele>276.0</ele><time>2026-05-02T08:14:44.924Z</time></trkpt><trkpt lat="40.64107472036667" lon="15.033372073674322"><ele>276.0</ele><time>2026-05-02T08:14:46.924Z</time></trkpt><trkpt lat="40.64114013396571" lon="15.03327385875885"><ele>276.0</ele><time>2026-05-02T08:14:48.924Z</time></trkpt><trkpt lat="40.64118002748654" lon="15.033169067981175"><ele>276.0</ele><time>2026-05-02T08:14:50.924Z</time></trkpt><trkpt lat="40.641243814204195" lon="15.033058430031605"><ele>278.2</ele><time>2026-05-02T08:14:52.924Z</time></trkpt><trkpt lat="40.64130722793203" lon="15.032941393581918"><ele>280.40000000000003</ele><time>2026-05-02T08:14:54.924Z</time></trkpt><trkpt lat="40.64136031649149" lon="15.032821059001236"><ele>282.6</ele><time>2026-05-02T08:14:56.924Z</time></trkpt><trkpt lat="40.64140226360735" lon="15.032723157570157"><ele>284.8</ele><time>2026-05-02T08:14:58.924Z</time></trkpt><trkpt lat="40.6414348580564" lon="15.032638826283389"><ele>287.0</ele><time>2026-05-02T08:15:00.924Z</time></trkpt><trkpt lat="40.64148373183461" lon="15.032558912537352"><ele>283.0</ele><time>2026-05-02T08:15:02.923Z</time></trkpt><trkpt lat="40.6415405189579" lon="15.032453084493858"><ele>279.0</ele><time>2026-05-02T08:15:05.923Z</time></trkpt><trkpt lat="40.64160770422868" lon="15.032378105552844"><ele>275.0</ele><time>2026-05-02T08:15:08.923Z</time></trkpt><trkpt lat="40.64169653745927" lon="15.032342905717472"><ele>271.0</ele><time>2026-05-02T08:15:11.923Z</time></trkpt><trkpt lat="40.64176448764395" lon="15.032338591053769"><ele>267.0</ele><time>2026-05-02T08:15:13.923Z</time></trkpt><trkpt lat="40.64183528035146" lon="15.032303673510405"><ele>263.0</ele><time>2026-05-02T08:16:50.92Z</time></trkpt><trkpt lat="40.64192481679633" lon="15.032347138435052"><ele>265.85714285714283</ele><time>2026-05-02T08:16:54.92Z</time></trkpt><trkpt lat="40.6419794217941" lon="15.03239666379908"><ele>268.71428571428567</ele><time>2026-05-02T08:16:56.92Z</time></trkpt><trkpt lat="40.642033022144375" lon="15.032442266457183"><ele>271.57142857142856</ele><time>2026-05-02T08:16:58.92Z</time></trkpt><trkpt lat="40.64209195228562" lon="15.03248687721563"><ele>274.42857142857144</ele><time>2026-05-02T08:17:00.92Z</time></trkpt><trkpt lat="40.64216798141201" lon="15.032535595340995"><ele>277.28571428571433</ele><time>2026-05-02T08:17:03.92Z</time></trkpt><trkpt lat="40.642242879263804" lon="15.032526518068321"><ele>280.14285714285717</ele><time>2026-05-02T08:17:07.919Z</time></trkpt><trkpt lat="40.64225816840511" lon="15.032437856786817"><ele>283.0</ele><time>2026-05-02T08:17:10.919Z</time></trkpt><trkpt lat="40.64225842060385" lon="15.032338130630027"><ele>283.0</ele><time>2026-05-02T08:17:12.919Z</time></trkpt><trkpt lat="40.64229519989236" lon="15.032228174993572"><ele>283.0</ele><time>2026-05-02T08:17:14.919Z</time></trkpt><trkpt lat="40.64234428404738" lon="15.032117446017306"><ele>283.0</ele><time>2026-05-02T08:17:16.919Z</time></trkpt><trkpt lat="40.64239861886372" lon="15.032039359184015"><ele>283.0</ele><time>2026-05-02T08:17:19.919Z</time></trkpt><trkpt lat="40.6424903191589" lon="15.032076772202917"><ele>283.0</ele><time>2026-05-02T08:17:22.919Z</time></trkpt><trkpt lat="40.642519664362354" lon="15.032169261313198"><ele>283.0</ele><time>2026-05-02T08:17:24.919Z</time></trkpt><trkpt lat="40.64258084719299" lon="15.032251614397637"><ele>283.0</ele><time>2026-05-02T08:17:26.919Z</time></trkpt><trkpt lat="40.64267519762538" lon="15.032286216486115"><ele>283.0</ele><time>2026-05-02T08:17:28.919Z</time></trkpt><trkpt lat="40.64275834643059" lon="15.032342245009986"><ele>283.0</ele><time>2026-05-02T08:17:31.918Z</time></trkpt><trkpt lat="40.64282187576329" lon="15.0324644443978"><ele>283.0</ele><time>2026-05-02T08:17:33.918Z</time></trkpt><trkpt lat="40.64285795067662" lon="15.032577936091709"><ele>283.0</ele><time>2026-05-02T08:17:35.918Z</time></trkpt><trkpt lat="40.64287722033208" lon="15.032701022112924"><ele>285.8</ele><time>2026-05-02T08:17:37.918Z</time></trkpt><trkpt lat="40.64292255416544" lon="15.03280967708378"><ele>288.6</ele><time>2026-05-02T08:17:39.918Z</time></trkpt><trkpt lat="40.64300096562596" lon="15.032931801611015"><ele>291.4</ele><time>2026-05-02T08:17:41.918Z</time></trkpt><trkpt lat="40.643044887426264" lon="15.033007401473967"><ele>294.2</ele><time>2026-05-02T08:17:42.918Z</time></trkpt><trkpt lat="40.64312074008975" lon="15.033078081911569"><ele>297.0</ele><time>2026-05-02T08:17:44.918Z</time></trkpt><trkpt lat="40.64320914837323" lon="15.03313151439223"><ele>297.0</ele><time>2026-05-02T08:17:46.918Z</time></trkpt><trkpt lat="40.64326287287659" lon="15.033218261896293"><ele>297.0</ele><time>2026-05-02T08:17:48.918Z</time></trkpt><trkpt lat="40.6432760655882" lon="15.033328893138435"><ele>297.0</ele><time>2026-05-02T08:17:50.918Z</time></trkpt><trkpt lat="40.64326438215862" lon="15.033433726847992"><ele>297.0</ele><time>2026-05-02T08:17:52.917Z</time></trkpt><trkpt lat="40.64335278661075" lon="15.033500294696795"><ele>297.0</ele><time>2026-05-02T08:17:56.917Z</time></trkpt><trkpt lat="40.643427462614305" lon="15.033563998348102"><ele>297.0</ele><time>2026-05-02T08:17:59.917Z</time></trkpt><trkpt lat="40.643474947883355" lon="15.033626673942727"><ele>295.2</ele><time>2026-05-02T08:18:01.917Z</time></trkpt><trkpt lat="40.64351491897003" lon="15.033742735952375"><ele>293.4</ele><time>2026-05-02T08:18:04.917Z</time></trkpt><trkpt lat="40.64354697284586" lon="15.033868086254762"><ele>291.6</ele><time>2026-05-02T08:18:06.917Z</time></trkpt><trkpt lat="40.643585228013414" lon="15.033965323314051"><ele>289.8</ele><time>2026-05-02T08:18:08.917Z</time></trkpt><trkpt lat="40.64363204184508" lon="15.034038591217502"><ele>288.0</ele><time>2026-05-02T08:18:10.917Z</time></trkpt><trkpt lat="40.643698922539286" lon="15.034146888000548"><ele>291.8</ele><time>2026-05-02T08:18:12.917Z</time></trkpt><trkpt lat="40.64378158375252" lon="15.034258335906765"><ele>295.6</ele><time>2026-05-02T08:18:14.916Z</time></trkpt><trkpt lat="40.643873738922295" lon="15.034346320703193"><ele>299.4</ele><time>2026-05-02T08:18:16.916Z</time></trkpt><trkpt lat="40.64395633614365" lon="15.034444018297854"><ele>303.2</ele><time>2026-05-02T08:18:18.916Z</time></trkpt><trkpt lat="40.64402550779678" lon="15.034534381642693"><ele>307.0</ele><time>2026-05-02T08:18:20.916Z</time></trkpt><trkpt lat="40.6441035104603" lon="15.034660469124848"><ele>307.0</ele><time>2026-05-02T08:18:22.916Z</time></trkpt><trkpt lat="40.64416153148154" lon="15.0347748968388"><ele>307.0</ele><time>2026-05-02T08:18:24.919Z</time></trkpt><trkpt lat="40.64420340460709" lon="15.034857161724059"><ele>307.0</ele><time>2026-05-02T08:18:26.919Z</time></trkpt><trkpt lat="40.64426357935541" lon="15.034927234430656"><ele>307.0</ele><time>2026-05-02T08:18:29.919Z</time></trkpt><trkpt lat="40.644328489288036" lon="15.034900560147856"><ele>307.0</ele><time>2026-05-02T08:18:31.919Z</time></trkpt><trkpt lat="40.64439466392969" lon="15.034828896839283"><ele>307.0</ele><time>2026-05-02T08:18:33.919Z</time></trkpt><trkpt lat="40.64440584837394" lon="15.034729400426151"><ele>307.0</ele><time>2026-05-02T08:18:35.919Z</time></trkpt><trkpt lat="40.64438569468493" lon="15.034597094678185"><ele>307.0</ele><time>2026-05-02T08:18:37.919Z</time></trkpt><trkpt lat="40.64437193741858" lon="15.034473870054116"><ele>307.0</ele><time>2026-05-02T08:18:39.919Z</time></trkpt><trkpt lat="40.64436280492485" lon="15.034366297948472"><ele>307.0</ele><time>2026-05-02T08:18:41.919Z</time></trkpt><trkpt lat="40.64437397063211" lon="15.034277968725842"><ele>307.0</ele><time>2026-05-02T08:18:43.919Z</time></trkpt><trkpt lat="40.64437808760118" lon="15.034186153908877"><ele>307.0</ele><time>2026-05-02T08:18:46.918Z</time></trkpt><trkpt lat="40.644393934786805" lon="15.03408466596888"><ele>306.5</ele><time>2026-05-02T08:18:49.918Z</time></trkpt><trkpt lat="40.644467085499684" lon="15.034019964825237"><ele>306.0</ele><time>2026-05-02T08:18:51.918Z</time></trkpt><trkpt lat="40.644535757598135" lon="15.034007614318314"><ele>305.5</ele><time>2026-05-02T08:18:53.918Z</time></trkpt><trkpt lat="40.64460900468452" lon="15.034047426877663"><ele>305.0</ele><time>2026-05-02T08:18:55.918Z</time></trkpt><trkpt lat="40.64468374033948" lon="15.034122636980532"><ele>304.5</ele><time>2026-05-02T08:18:57.918Z</time></trkpt><trkpt lat="40.644747437841524" lon="15.034172880900796"><ele>304.0</ele><time>2026-05-02T08:18:59.918Z</time></trkpt><trkpt lat="40.64483814756999" lon="15.034208416293154"><ele>304.0</ele><time>2026-05-02T08:19:01.918Z</time></trkpt><trkpt lat="40.64492067020367" lon="15.034253396825424"><ele>304.0</ele><time>2026-05-02T08:19:03.918Z</time></trkpt><trkpt lat="40.64498892938964" lon="15.034316521293022"><ele>304.0</ele><time>2026-05-02T08:19:05.918Z</time></trkpt><trkpt lat="40.64504359210712" lon="15.034374449651327"><ele>304.0</ele><time>2026-05-02T08:19:07.918Z</time></trkpt><trkpt lat="40.645075774575446" lon="15.034453033583773"><ele>304.0</ele><time>2026-05-02T08:19:09.917Z</time></trkpt><trkpt lat="40.64511231105984" lon="15.034543281289512"><ele>304.0</ele><time>2026-05-02T08:19:12.917Z</time></trkpt><trkpt lat="40.64515467017736" lon="15.034646658351308"><ele>304.0</ele><time>2026-05-02T08:19:15.917Z</time></trkpt><trkpt lat="40.64520676578793" lon="15.034749139736471"><ele>304.0</ele><time>2026-05-02T08:19:17.917Z</time></trkpt><trkpt lat="40.64525875475982" lon="15.034810935548746"><ele>304.0</ele><time>2026-05-02T08:19:21.917Z</time></trkpt><trkpt lat="40.645192501380734" lon="15.034759279065407"><ele>304.0</ele><time>2026-05-02T08:20:01.915Z</time></trkpt><trkpt lat="40.64517085542306" lon="15.034680098435302"><ele>304.0</ele><time>2026-05-02T08:20:03.915Z</time></trkpt><trkpt lat="40.64513332593488" lon="15.03458576392527"><ele>304.0</ele><time>2026-05-02T08:20:05.915Z</time></trkpt><trkpt lat="40.6451004736539" lon="15.03448198070549"><ele>304.0</ele><time>2026-05-02T08:20:08.915Z</time></trkpt><trkpt lat="40.64505535896576" lon="15.034394737542103"><ele>304.0</ele><time>2026-05-02T08:20:11.915Z</time></trkpt><trkpt lat="40.64499952899257" lon="15.034323386731268"><ele>304.0</ele><time>2026-05-02T08:20:13.915Z</time></trkpt><trkpt lat="40.64491740037492" lon="15.034252451054916"><ele>304.0</ele><time>2026-05-02T08:20:15.914Z</time></trkpt><trkpt lat="40.64481751333556" lon="15.034204017645095"><ele>304.0</ele><time>2026-05-02T08:20:17.914Z</time></trkpt><trkpt lat="40.6447603201553" lon="15.03415729516499"><ele>304.0</ele><time>2026-05-02T08:20:20.914Z</time></trkpt><trkpt lat="40.64466950772929" lon="15.034077585757563"><ele>304.5</ele><time>2026-05-02T08:20:22.914Z</time></trkpt><trkpt lat="40.64460806242814" lon="15.034024119838197"><ele>305.0</ele><time>2026-05-02T08:20:23.914Z</time></trkpt><trkpt lat="40.64452379804267" lon="15.033985367489697"><ele>305.5</ele><time>2026-05-02T08:20:25.914Z</time></trkpt><trkpt lat="40.64444652570457" lon="15.034047666608338"><ele>306.0</ele><time>2026-05-02T08:20:27.914Z</time></trkpt><trkpt lat="40.64439763325381" lon="15.034153547523383"><ele>306.5</ele><time>2026-05-02T08:20:29.917Z</time></trkpt><trkpt lat="40.64442107688905" lon="15.034239021053901"><ele>307.0</ele><time>2026-05-02T08:20:31.917Z</time></trkpt><trkpt lat="40.64438894821708" lon="15.034317218022666"><ele>306.99999999999994</ele><time>2026-05-02T08:20:36.917Z</time></trkpt><trkpt lat="40.644343261881644" lon="15.034240904159008"><ele>307.0</ele><time>2026-05-02T08:20:39.917Z</time></trkpt><trkpt lat="40.644321216417865" lon="15.03416288165824"><ele>307.0</ele><time>2026-05-02T08:20:42.917Z</time></trkpt><trkpt lat="40.64430648579065" lon="15.034068410790944"><ele>307.0</ele><time>2026-05-02T08:20:46.917Z</time></trkpt><trkpt lat="40.64429938176931" lon="15.033984792905608"><ele>307.0</ele><time>2026-05-02T08:20:49.917Z</time></trkpt><trkpt lat="40.644318143265224" lon="15.033901773156282"><ele>306.99999999999994</ele><time>2026-05-02T08:20:52.917Z</time></trkpt><trkpt lat="40.6443627844736" lon="15.033839861513375"><ele>307.0</ele><time>2026-05-02T08:20:56.916Z</time></trkpt><trkpt lat="40.64442888858157" lon="15.033763796338949"><ele>302.99999999999994</ele><time>2026-05-02T08:21:00.916Z</time></trkpt><trkpt lat="40.64448429541374" lon="15.033681596318969"><ele>299.0</ele><time>2026-05-02T08:21:04.916Z</time></trkpt><trkpt lat="40.64454512535043" lon="15.03363324720085"><ele>295.0</ele><time>2026-05-02T08:21:08.916Z</time></trkpt><trkpt lat="40.64461397833183" lon="15.033590394685376"><ele>291.0</ele><time>2026-05-02T08:21:12.916Z</time></trkpt><trkpt lat="40.64467401784883" lon="15.033558632641414"><ele>287.0</ele><time>2026-05-02T08:21:16.915Z</time></trkpt><trkpt lat="40.64472951432639" lon="15.033607535792674"><ele>282.99999999999994</ele><time>2026-05-02T08:21:25.915Z</time></trkpt><trkpt lat="40.64480612180375" lon="15.033625876650014"><ele>279.0</ele><time>2026-05-02T08:21:32.915Z</time></trkpt><trkpt lat="40.64488590026808" lon="15.033611561729114"><ele>278.99999999999994</ele><time>2026-05-02T08:21:36.915Z</time></trkpt><trkpt lat="40.64495173720918" lon="15.033616338010159"><ele>279.0</ele><time>2026-05-02T08:21:43.914Z</time></trkpt><trkpt lat="40.645018235235995" lon="15.033629982522905"><ele>279.0</ele><time>2026-05-02T08:21:51.914Z</time></trkpt><trkpt lat="40.64508223162316" lon="15.033669127873635"><ele>279.0</ele><time>2026-05-02T08:21:55.914Z</time></trkpt><trkpt lat="40.645151522776004" lon="15.033685310983913"><ele>279.0</ele><time>2026-05-02T08:22:17.913Z</time></trkpt><trkpt lat="40.645218110310665" lon="15.033723533559053"><ele>278.99999999999994</ele><time>2026-05-02T08:22:20.913Z</time></trkpt><trkpt lat="40.64528388793761" lon="15.03376099645641"><ele>279.0</ele><time>2026-05-02T08:22:24.912Z</time></trkpt><trkpt lat="40.6453453933635" lon="15.033808008030796"><ele>275.5</ele><time>2026-05-02T08:22:29.912Z</time></trkpt><trkpt lat="40.645405308189666" lon="15.033847349039533"><ele>272.0</ele><time>2026-05-02T08:22:33.912Z</time></trkpt><trkpt lat="40.64547770817244" lon="15.033901672436553"><ele>268.5</ele><time>2026-05-02T08:23:24.913Z</time></trkpt><trkpt lat="40.64549812454558" lon="15.034000908636846"><ele>265.0</ele><time>2026-05-02T08:23:29.913Z</time></trkpt><trkpt lat="40.64555106782589" lon="15.034086645638455"><ele>261.5</ele><time>2026-05-02T08:23:42.912Z</time></trkpt><trkpt lat="40.645632689756965" lon="15.034104398412735"><ele>258.0</ele><time>2026-05-02T08:23:48.06Z</time></trkpt><trkpt lat="40.645697479373624" lon="15.034114320946562"><ele>257.99999999999994</ele><time>2026-05-02T08:23:50.059Z</time></trkpt><trkpt lat="40.64577476332796" lon="15.034095163041282"><ele>258.0</ele><time>2026-05-02T08:23:57.912Z</time></trkpt><trkpt lat="40.645847261199975" lon="15.034062398672287"><ele>258.0</ele><time>2026-05-02T08:24:00.912Z</time></trkpt><trkpt lat="40.64592238279685" lon="15.034013874112839"><ele>258.0</ele><time>2026-05-02T08:24:04.912Z</time></trkpt><trkpt lat="40.64599453160078" lon="15.033990330983425"><ele>258.0</ele><time>2026-05-02T08:24:08.911Z</time></trkpt><trkpt lat="40.64606217478207" lon="15.033988919513888"><ele>257.99999999999994</ele><time>2026-05-02T08:24:13.911Z</time></trkpt><trkpt lat="40.646110528339385" lon="15.03405088219548"><ele>258.0</ele><time>2026-05-02T08:24:21.911Z</time></trkpt><trkpt lat="40.64616883624615" lon="15.034091757013705"><ele>257.71428571428567</ele><time>2026-05-02T08:24:33.91Z</time></trkpt><trkpt lat="40.646209459460465" lon="15.034156881574743"><ele>257.42857142857144</ele><time>2026-05-02T08:24:45.912Z</time></trkpt><trkpt lat="40.646282468572466" lon="15.034177020973704"><ele>257.1428571428571</ele><time>2026-05-02T08:24:49.913Z</time></trkpt><trkpt lat="40.64634870100637" lon="15.03419381609843"><ele>256.85714285714283</ele><time>2026-05-02T08:24:52.912Z</time></trkpt><trkpt lat="40.64641294670218" lon="15.034214363405342"><ele>256.57142857142856</ele><time>2026-05-02T08:24:55.913Z</time></trkpt><trkpt lat="40.64647072620917" lon="15.034248055773867"><ele>256.2857142857143</ele><time>2026-05-02T08:24:58.913Z</time></trkpt><trkpt lat="40.64654108081565" lon="15.034263264512164"><ele>256.0</ele><time>2026-05-02T08:25:03.913Z</time></trkpt><trkpt lat="40.64659521742679" lon="15.034309480395908"><ele>256.0</ele><time>2026-05-02T08:25:08.912Z</time></trkpt><trkpt lat="40.64667116757138" lon="15.034341298559763"><ele>255.99999999999997</ele><time>2026-05-02T08:25:15.912Z</time></trkpt><trkpt lat="40.64673142226681" lon="15.034405001209104"><ele>256.0</ele><time>2026-05-02T08:25:19.912Z</time></trkpt><trkpt lat="40.64676044151632" lon="15.03447877089402"><ele>256.0</ele><time>2026-05-02T08:25:23.912Z</time></trkpt><trkpt lat="40.646822243008124" lon="15.034506955163927"><ele>255.99999999999997</ele><time>2026-05-02T08:25:33.911Z</time></trkpt><trkpt lat="40.64686423248674" lon="15.034569695625807"><ele>256.0</ele><time>2026-05-02T08:25:45.911Z</time></trkpt><trkpt lat="40.646899667416946" lon="15.034657710494574"><ele>256.0</ele><time>2026-05-02T08:25:52.91Z</time></trkpt><trkpt lat="40.64696511702729" lon="15.034703378374983"><ele>256.16666666666663</ele><time>2026-05-02T08:41:33.92Z</time></trkpt><trkpt lat="40.64701950618059" lon="15.03480645072416"><ele>256.3333333333333</ele><time>2026-05-02T08:41:38.921Z</time></trkpt><trkpt lat="40.64709026493597" lon="15.034847578032572"><ele>256.5</ele><time>2026-05-02T08:41:41.92Z</time></trkpt><trkpt lat="40.6471375476179" lon="15.034948015301323"><ele>256.6666666666667</ele><time>2026-05-02T08:41:44.92Z</time></trkpt><trkpt lat="40.64716604272181" lon="15.035022411067171"><ele>256.83333333333337</ele><time>2026-05-02T08:41:46.92Z</time></trkpt><trkpt lat="40.647188324554065" lon="15.035103543855802"><ele>257.0</ele><time>2026-05-02T08:41:48.92Z</time></trkpt><trkpt lat="40.647207449399446" lon="15.035198134466988"><ele>257.0</ele><time>2026-05-02T08:41:51.92Z</time></trkpt><trkpt lat="40.647243512205264" lon="15.03526848763094"><ele>257.0</ele><time>2026-05-02T08:41:55.92Z</time></trkpt><trkpt lat="40.6473110694812" lon="15.035290469484133"><ele>257.0</ele><time>2026-05-02T08:42:01.92Z</time></trkpt><trkpt lat="40.647364023993596" lon="15.035233720681767"><ele>257.0</ele><time>2026-05-02T08:42:04.92Z</time></trkpt><trkpt lat="40.64741298959824" lon="15.035123113426572"><ele>257.0</ele><time>2026-05-02T08:42:06.919Z</time></trkpt><trkpt lat="40.64744167986722" lon="15.035008345814846"><ele>257.0</ele><time>2026-05-02T08:42:08.919Z</time></trkpt><trkpt lat="40.647459753464055" lon="15.034895580864168"><ele>257.0</ele><time>2026-05-02T08:42:10.919Z</time></trkpt><trkpt lat="40.64747285513946" lon="15.034757641007019"><ele>257.0</ele><time>2026-05-02T08:42:12.919Z</time></trkpt><trkpt lat="40.64748366726604" lon="15.034613717907362"><ele>257.0</ele><time>2026-05-02T08:42:14.919Z</time></trkpt><trkpt lat="40.64748546817473" lon="15.034490305019803"><ele>257.0</ele><time>2026-05-02T08:42:16.919Z</time></trkpt><trkpt lat="40.64748684648186" lon="15.034368588137308"><ele>257.0</ele><time>2026-05-02T08:42:18.919Z</time></trkpt><trkpt lat="40.647468393476814" lon="15.034243055662808"><ele>257.0</ele><time>2026-05-02T08:42:20.919Z</time></trkpt><trkpt lat="40.647451516534936" lon="15.034158563588534"><ele>257.0</ele><time>2026-05-02T08:42:21.919Z</time></trkpt><trkpt lat="40.647436533913535" lon="15.034029936696012"><ele>257.0</ele><time>2026-05-02T08:42:23.919Z</time></trkpt><trkpt lat="40.64748414054084" lon="15.03395893940052"><ele>257.0</ele><time>2026-05-02T08:42:24.919Z</time></trkpt><trkpt lat="40.64752281886295" lon="15.033853919237947"><ele>257.0</ele><time>2026-05-02T08:42:26.919Z</time></trkpt><trkpt lat="40.64753281807345" lon="15.03375343045914"><ele>257.0</ele><time>2026-05-02T08:42:28.919Z</time></trkpt><trkpt lat="40.647514366443076" lon="15.033635408086083"><ele>256.7142857142857</ele><time>2026-05-02T08:42:30.919Z</time></trkpt><trkpt lat="40.64753569873826" lon="15.033541503295176"><ele>256.42857142857144</ele><time>2026-05-02T08:42:32.918Z</time></trkpt><trkpt lat="40.647556077474626" lon="15.033451520947285"><ele>256.14285714285717</ele><time>2026-05-02T08:42:34.918Z</time></trkpt><trkpt lat="40.64759638321078" lon="15.033380808121224"><ele>255.85714285714286</ele><time>2026-05-02T08:42:36.918Z</time></trkpt><trkpt lat="40.6476652735277" lon="15.033411615847182"><ele>255.5714285714286</ele><time>2026-05-02T08:42:39.918Z</time></trkpt><trkpt lat="40.64773337566348" lon="15.033395842817894"><ele>255.2857142857143</ele><time>2026-05-02T08:42:45.918Z</time></trkpt><trkpt lat="40.647800951386785" lon="15.033371007680302"><ele>255.0</ele><time>2026-05-02T08:42:47.918Z</time></trkpt><trkpt lat="40.64786786102522" lon="15.033337243158266"><ele>254.0</ele><time>2026-05-02T08:42:49.918Z</time></trkpt><trkpt lat="40.647935288674645" lon="15.033288132434109"><ele>253.0</ele><time>2026-05-02T08:42:51.918Z</time></trkpt><trkpt lat="40.64800059071362" lon="15.033240823205205"><ele>252.0</ele><time>2026-05-02T08:42:53.918Z</time></trkpt><trkpt lat="40.64807884899525" lon="15.033196446380797"><ele>251.0</ele><time>2026-05-02T08:42:55.918Z</time></trkpt><trkpt lat="40.64815794710327" lon="15.033160204505934"><ele>250.0</ele><time>2026-05-02T08:42:57.917Z</time></trkpt><trkpt lat="40.648259159822146" lon="15.033115012440781"><ele>249.0</ele><time>2026-05-02T08:42:59.917Z</time></trkpt><trkpt lat="40.64835522941475" lon="15.03306509490416"><ele>249.0</ele><time>2026-05-02T08:43:01.917Z</time></trkpt><trkpt lat="40.648432569758455" lon="15.033022603524046"><ele>249.0</ele><time>2026-05-02T08:43:03.917Z</time></trkpt><trkpt lat="40.64850931219493" lon="15.032978720455343"><ele>249.0</ele><time>2026-05-02T08:43:05.917Z</time></trkpt><trkpt lat="40.64859274400675" lon="15.032931012421708"><ele>249.0</ele><time>2026-05-02T08:43:07.917Z</time></trkpt><trkpt lat="40.648673035907876" lon="15.032885099700655"><ele>249.0</ele><time>2026-05-02T08:43:09.917Z</time></trkpt><trkpt lat="40.64874684437064" lon="15.032839183117918"><ele>249.0</ele><time>2026-05-02T08:43:11.917Z</time></trkpt><trkpt lat="40.64883056176168" lon="15.032770398918148"><ele>248.66666666666666</ele><time>2026-05-02T08:43:13.917Z</time></trkpt><trkpt lat="40.64887787922677" lon="15.03265817896591"><ele>248.33333333333331</ele><time>2026-05-02T08:43:15.917Z</time></trkpt><trkpt lat="40.64893956014807" lon="15.032601655555665"><ele>248.0</ele><time>2026-05-02T08:43:17.917Z</time></trkpt><trkpt lat="40.64899896430772" lon="15.032511591309575"><ele>247.66666666666666</ele><time>2026-05-02T08:43:19.917Z</time></trkpt><trkpt lat="40.64907723307727" lon="15.03246018181285"><ele>247.33333333333331</ele><time>2026-05-02T08:43:21.916Z</time></trkpt><trkpt lat="40.649142344521664" lon="15.0324290039781"><ele>247.0</ele><time>2026-05-02T08:43:23.916Z</time></trkpt><trkpt lat="40.64921566443354" lon="15.032391873582556"><ele>247.0</ele><time>2026-05-02T08:43:25.914Z</time></trkpt><trkpt lat="40.649318061178235" lon="15.032363993839587"><ele>247.0</ele><time>2026-05-02T08:43:27.91Z</time></trkpt><trkpt lat="40.649426128095676" lon="15.032338648419637"><ele>247.0</ele><time>2026-05-02T08:43:29.906Z</time></trkpt><trkpt lat="40.649536989439504" lon="15.03229761169369"><ele>247.0</ele><time>2026-05-02T08:43:31.903Z</time></trkpt><trkpt lat="40.64964136630745" lon="15.032270505074647"><ele>247.0</ele><time>2026-05-02T08:43:33.903Z</time></trkpt><trkpt lat="40.649740292561425" lon="15.032175572474117"><ele>245.99999999999997</ele><time>2026-05-02T08:43:35.9Z</time></trkpt><trkpt lat="40.649777893639495" lon="15.032054824161076"><ele>245.0</ele><time>2026-05-02T08:43:37.898Z</time></trkpt><trkpt lat="40.649797449022216" lon="15.03197435218098"><ele>244.0</ele><time>2026-05-02T08:43:39.895Z</time></trkpt><trkpt lat="40.64985960557614" lon="15.031947985227538"><ele>243.0</ele><time>2026-05-02T08:43:43.892Z</time></trkpt><trkpt lat="40.64988436374644" lon="15.032026644811229"><ele>241.99999999999997</ele><time>2026-05-02T08:43:45.891Z</time></trkpt><trkpt lat="40.64992173788363" lon="15.032130586872166"><ele>241.0</ele><time>2026-05-02T08:43:47.89Z</time></trkpt><trkpt lat="40.64999821073593" lon="15.03220146070305"><ele>241.0</ele><time>2026-05-02T08:43:49.889Z</time></trkpt><trkpt lat="40.650117107262055" lon="15.032192483303488"><ele>241.00000000000003</ele><time>2026-05-02T08:43:51.888Z</time></trkpt><trkpt lat="40.650232330580586" lon="15.032187671860044"><ele>241.00000000000003</ele><time>2026-05-02T08:43:53.887Z</time></trkpt><trkpt lat="40.650314104092644" lon="15.032196027779301"><ele>241.0</ele><time>2026-05-02T08:43:55.886Z</time></trkpt><trkpt lat="40.65038125995224" lon="15.032234545365887"><ele>241.0</ele><time>2026-05-02T08:43:57.886Z</time></trkpt><trkpt lat="40.650473268295244" lon="15.03227276118407"><ele>242.0</ele><time>2026-05-02T08:43:59.885Z</time></trkpt><trkpt lat="40.65058989411924" lon="15.03229113804007"><ele>243.00000000000003</ele><time>2026-05-02T08:44:01.885Z</time></trkpt><trkpt lat="40.65064812774863" lon="15.032227805522318"><ele>244.00000000000003</ele><time>2026-05-02T08:44:02.884Z</time></trkpt><trkpt lat="40.650740393388695" lon="15.032147668311811"><ele>245.0</ele><time>2026-05-02T08:44:04.884Z</time></trkpt><trkpt lat="40.650832509102415" lon="15.03207709883516"><ele>246.0</ele><time>2026-05-02T08:44:06.883Z</time></trkpt><trkpt lat="40.65093705831318" lon="15.032037508346853"><ele>246.0</ele><time>2026-05-02T08:44:08.883Z</time></trkpt><trkpt lat="40.651046970736886" lon="15.032019714469373"><ele>246.00000000000003</ele><time>2026-05-02T08:44:10.883Z</time></trkpt><trkpt lat="40.6511497605714" lon="15.03198602287614"><ele>246.00000000000003</ele><time>2026-05-02T08:44:12.882Z</time></trkpt><trkpt lat="40.65122897953425" lon="15.031981497856053"><ele>246.0</ele><time>2026-05-02T08:44:14.882Z</time></trkpt><trkpt lat="40.65130806410192" lon="15.031914997559072"><ele>246.0</ele><time>2026-05-02T08:44:17.882Z</time></trkpt><trkpt lat="40.6513542144628" lon="15.031849482612191"><ele>246.66666666666666</ele><time>2026-05-02T08:44:19.881Z</time></trkpt><trkpt lat="40.651401383430695" lon="15.031777779783306"><ele>247.33333333333331</ele><time>2026-05-02T08:44:21.881Z</time></trkpt><trkpt lat="40.65145065021696" lon="15.031703810370363"><ele>248.0</ele><time>2026-05-02T08:44:23.881Z</time></trkpt><trkpt lat="40.65151427618835" lon="15.031650656098963"><ele>248.66666666666666</ele><time>2026-05-02T08:44:25.881Z</time></trkpt><trkpt lat="40.651579699033675" lon="15.031595504671321"><ele>249.33333333333331</ele><time>2026-05-02T08:44:27.881Z</time></trkpt><trkpt lat="40.65164932016782" lon="15.031616155368718"><ele>250.0</ele><time>2026-05-02T08:44:29.88Z</time></trkpt><trkpt lat="40.65173615681654" lon="15.031659006096936"><ele>249.99999999999997</ele><time>2026-05-02T08:44:31.88Z</time></trkpt><trkpt lat="40.651818910874276" lon="15.031681741713458"><ele>250.0</ele><time>2026-05-02T08:44:33.88Z</time></trkpt><trkpt lat="40.65188536629262" lon="15.031754052751774"><ele>250.0</ele><time>2026-05-02T08:44:35.88Z</time></trkpt><trkpt lat="40.65194429969593" lon="15.031811408528872"><ele>250.0</ele><time>2026-05-02T08:44:37.88Z</time></trkpt><trkpt lat="40.651991080614714" lon="15.031888636653328"><ele>249.99999999999997</ele><time>2026-05-02T08:44:39.88Z</time></trkpt><trkpt lat="40.65202120026876" lon="15.031980338469088"><ele>250.0</ele><time>2026-05-02T08:44:41.88Z</time></trkpt><trkpt lat="40.65204263707496" lon="15.032065633880238"><ele>248.6</ele><time>2026-05-02T08:44:43.879Z</time></trkpt><trkpt lat="40.65214990258782" lon="15.032107805588245"><ele>247.2</ele><time>2026-05-02T08:44:46.879Z</time></trkpt><trkpt lat="40.652210951160825" lon="15.03208095544824"><ele>245.8</ele><time>2026-05-02T08:44:47.879Z</time></trkpt><trkpt lat="40.65227657835557" lon="15.032052301012278"><ele>244.4</ele><time>2026-05-02T08:44:48.879Z</time></trkpt><trkpt lat="40.65238759599295" lon="15.032056516852036"><ele>243.0</ele><time>2026-05-02T08:44:50.879Z</time></trkpt><trkpt lat="40.65249452047912" lon="15.0320465739168"><ele>243.0</ele><time>2026-05-02T08:44:52.879Z</time></trkpt><trkpt lat="40.65260774425688" lon="15.032025731135924"><ele>243.0</ele><time>2026-05-02T08:44:54.879Z</time></trkpt><trkpt lat="40.65270524339926" lon="15.031978399805057"><ele>243.0</ele><time>2026-05-02T08:44:56.879Z</time></trkpt><trkpt lat="40.65276811464776" lon="15.031841527745135"><ele>243.0</ele><time>2026-05-02T08:44:58.879Z</time></trkpt><trkpt lat="40.65283391947949" lon="15.031742653897512"><ele>243.0</ele><time>2026-05-02T08:45:00.878Z</time></trkpt><trkpt lat="40.65293042991148" lon="15.031700355808324"><ele>243.0</ele><time>2026-05-02T08:45:02.878Z</time></trkpt><trkpt lat="40.65299757307054" lon="15.031692538765439"><ele>243.0</ele><time>2026-05-02T08:45:03.878Z</time></trkpt><trkpt lat="40.65306487140204" lon="15.031699906696764"><ele>243.0</ele><time>2026-05-02T08:45:04.878Z</time></trkpt><trkpt lat="40.65312999440305" lon="15.03170589742307"><ele>243.0</ele><time>2026-05-02T08:45:05.878Z</time></trkpt><trkpt lat="40.65324605041373" lon="15.031689967333804"><ele>243.0</ele><time>2026-05-02T08:45:07.878Z</time></trkpt><trkpt lat="40.6533484264553" lon="15.031690290503418"><ele>243.0</ele><time>2026-05-02T08:45:09.878Z</time></trkpt><trkpt lat="40.65344898004419" lon="15.03169361790097"><ele>240.33333333333334</ele><time>2026-05-02T08:45:11.878Z</time></trkpt><trkpt lat="40.65354361814782" lon="15.031625896339557"><ele>237.66666666666669</ele><time>2026-05-02T08:45:13.878Z</time></trkpt><trkpt lat="40.653588917876554" lon="15.031567304545149"><ele>235.0</ele><time>2026-05-02T08:45:14.878Z</time></trkpt><trkpt lat="40.65365262500369" lon="15.031502874975818"><ele>232.33333333333334</ele><time>2026-05-02T08:45:16.878Z</time></trkpt><trkpt lat="40.65373611387202" lon="15.031464225767289"><ele>229.66666666666669</ele><time>2026-05-02T08:45:18.877Z</time></trkpt><trkpt lat="40.653823976436605" lon="15.031402586881866"><ele>227.0</ele><time>2026-05-02T08:45:20.877Z</time></trkpt><trkpt lat="40.653940734254746" lon="15.031382526687926"><ele>225.50000000000003</ele><time>2026-05-02T08:45:22.877Z</time></trkpt><trkpt lat="40.65400566009961" lon="15.031347030929103"><ele>224.0</ele><time>2026-05-02T08:45:23.877Z</time></trkpt><trkpt lat="40.654068494793094" lon="15.031306471739905"><ele>222.5</ele><time>2026-05-02T08:45:24.877Z</time></trkpt><trkpt lat="40.654132036481776" lon="15.03127350694942"><ele>221.0</ele><time>2026-05-02T08:45:25.877Z</time></trkpt><trkpt lat="40.65420244929327" lon="15.031225678470886"><ele>219.50000000000003</ele><time>2026-05-02T08:45:26.877Z</time></trkpt><trkpt lat="40.65426031299713" lon="15.03119001861333"><ele>218.0</ele><time>2026-05-02T08:45:27.877Z</time></trkpt><trkpt lat="40.65436094948361" lon="15.03112411435651"><ele>216.4</ele><time>2026-05-02T08:45:29.877Z</time></trkpt><trkpt lat="40.65446396160589" lon="15.03106875386507"><ele>214.8</ele><time>2026-05-02T08:45:31.877Z</time></trkpt><trkpt lat="40.65454797236682" lon="15.030968600530564"><ele>213.2</ele><time>2026-05-02T08:45:33.877Z</time></trkpt><trkpt lat="40.65458526346064" lon="15.030848559994508"><ele>211.6</ele><time>2026-05-02T08:45:35.877Z</time></trkpt><trkpt lat="40.65461128053703" lon="15.030738190313443"><ele>210.0</ele><time>2026-05-02T08:45:37.88Z</time></trkpt><trkpt lat="40.65464030613884" lon="15.03064543802886"><ele>206.5</ele><time>2026-05-02T08:45:39.88Z</time></trkpt><trkpt lat="40.65469274602811" lon="15.030589555922584"><ele>203.0</ele><time>2026-05-02T08:45:41.879Z</time></trkpt><trkpt lat="40.65477460711359" lon="15.030592413270455"><ele>199.5</ele><time>2026-05-02T08:45:43.88Z</time></trkpt><trkpt lat="40.65485036784467" lon="15.030658069814875"><ele>196.0</ele><time>2026-05-02T08:45:45.879Z</time></trkpt><trkpt lat="40.654934923589984" lon="15.03069138617641"><ele>192.5</ele><time>2026-05-02T08:45:47.879Z</time></trkpt><trkpt lat="40.65502184392558" lon="15.030660349083078"><ele>189.0</ele><time>2026-05-02T08:45:49.879Z</time></trkpt><trkpt lat="40.65510879072744" lon="15.030575437616807"><ele>189.0</ele><time>2026-05-02T08:45:51.879Z</time></trkpt><trkpt lat="40.65517899272863" lon="15.030494712528345"><ele>189.0</ele><time>2026-05-02T08:45:53.879Z</time></trkpt><trkpt lat="40.65524481338086" lon="15.03040773339049"><ele>189.0</ele><time>2026-05-02T08:45:55.879Z</time></trkpt><trkpt lat="40.65531131937264" lon="15.030308048294646"><ele>189.0</ele><time>2026-05-02T08:45:57.879Z</time></trkpt><trkpt lat="40.65536236845224" lon="15.03022321462283"><ele>189.0</ele><time>2026-05-02T08:46:00.879Z</time></trkpt><trkpt lat="40.65541751357595" lon="15.030129237669511"><ele>187.2</ele><time>2026-05-02T08:46:02.879Z</time></trkpt><trkpt lat="40.65547650169822" lon="15.030011777580805"><ele>185.39999999999998</ele><time>2026-05-02T08:46:04.878Z</time></trkpt><trkpt lat="40.655496850376" lon="15.029932518375363"><ele>183.6</ele><time>2026-05-02T08:46:05.878Z</time></trkpt><trkpt lat="40.655454537704074" lon="15.029768886975823"><ele>181.8</ele><time>2026-05-02T08:46:07.878Z</time></trkpt><trkpt lat="40.65538699614901" lon="15.029663974946171"><ele>180.0</ele><time>2026-05-02T08:46:09.878Z</time></trkpt><trkpt lat="40.655329081242165" lon="15.0295725768294"><ele>178.66666666666666</ele><time>2026-05-02T08:46:11.878Z</time></trkpt><trkpt lat="40.65528248715988" lon="15.029500754585705"><ele>177.33333333333334</ele><time>2026-05-02T08:46:13.878Z</time></trkpt><trkpt lat="40.655293282220654" lon="15.029398463428416"><ele>176.0</ele><time>2026-05-02T08:46:15.878Z</time></trkpt><trkpt lat="40.65536084980482" lon="15.029270317259485"><ele>174.66666666666669</ele><time>2026-05-02T08:46:17.878Z</time></trkpt><trkpt lat="40.65540228104416" lon="15.029203687925582"><ele>173.33333333333334</ele><time>2026-05-02T08:46:18.878Z</time></trkpt><trkpt lat="40.655459911891214" lon="15.02914506293538"><ele>172.0</ele><time>2026-05-02T08:46:19.878Z</time></trkpt><trkpt lat="40.65550105775608" lon="15.029079729163817"><ele>169.57142857142858</ele><time>2026-05-02T08:46:20.878Z</time></trkpt><trkpt lat="40.6555397546996" lon="15.02901172461886"><ele>167.14285714285714</ele><time>2026-05-02T08:46:21.878Z</time></trkpt><trkpt lat="40.65557660052175" lon="15.028941237783496"><ele>164.71428571428572</ele><time>2026-05-02T08:46:22.878Z</time></trkpt><trkpt lat="40.65561438669865" lon="15.028871473927245"><ele>162.28571428571428</ele><time>2026-05-02T08:46:23.878Z</time></trkpt><trkpt lat="40.65565372031296" lon="15.02879867999067"><ele>159.85714285714286</ele><time>2026-05-02T08:46:24.877Z</time></trkpt><trkpt lat="40.65569180122914" lon="15.028730402167213"><ele>157.42857142857144</ele><time>2026-05-02T08:46:25.877Z</time></trkpt><trkpt lat="40.65573249208758" lon="15.02865740823233"><ele>155.0</ele><time>2026-05-02T08:46:26.877Z</time></trkpt><trkpt lat="40.65577210563193" lon="15.028586899963303"><ele>155.0</ele><time>2026-05-02T08:46:27.877Z</time></trkpt><trkpt lat="40.655815299755126" lon="15.028519712605856"><ele>155.0</ele><time>2026-05-02T08:46:28.877Z</time></trkpt><trkpt lat="40.65586251256437" lon="15.028458201898056"><ele>155.0</ele><time>2026-05-02T08:46:29.877Z</time></trkpt><trkpt lat="40.655914522506244" lon="15.028397794282135"><ele>155.0</ele><time>2026-05-02T08:46:30.877Z</time></trkpt><trkpt lat="40.65597558514656" lon="15.028351350381115"><ele>155.0</ele><time>2026-05-02T08:46:31.877Z</time></trkpt><trkpt lat="40.65603473369512" lon="15.028308367327275"><ele>155.0</ele><time>2026-05-02T08:46:32.877Z</time></trkpt><trkpt lat="40.656090857449236" lon="15.028265050302032"><ele>155.0</ele><time>2026-05-02T08:46:33.877Z</time></trkpt><trkpt lat="40.65618847081338" lon="15.028177596296517"><ele>154.33333333333331</ele><time>2026-05-02T08:46:35.877Z</time></trkpt><trkpt lat="40.65622778116668" lon="15.028104581155166"><ele>153.66666666666666</ele><time>2026-05-02T08:46:36.877Z</time></trkpt><trkpt lat="40.656271878840336" lon="15.028001633129067"><ele>153.0</ele><time>2026-05-02T08:46:38.877Z</time></trkpt><trkpt lat="40.65630034102577" lon="15.027916456736945"><ele>152.33333333333334</ele><time>2026-05-02T08:46:41.877Z</time></trkpt><trkpt lat="40.65643797370448" lon="15.02799615427517"><ele>151.66666666666669</ele><time>2026-05-02T08:46:42.877Z</time></trkpt><trkpt lat="40.6564992942404" lon="15.028031381460027"><ele>151.0</ele><time>2026-05-02T08:46:43.877Z</time></trkpt><trkpt lat="40.656565246245925" lon="15.028047118293662"><ele>151.0</ele><time>2026-05-02T08:46:44.877Z</time></trkpt><trkpt lat="40.656637512054445" lon="15.028071378261638"><ele>151.0</ele><time>2026-05-02T08:46:45.876Z</time></trkpt><trkpt lat="40.65670269964071" lon="15.028092107882879"><ele>151.0</ele><time>2026-05-02T08:46:46.876Z</time></trkpt><trkpt lat="40.65680690246968" lon="15.0281272121867"><ele>151.0</ele><time>2026-05-02T08:46:48.876Z</time></trkpt><trkpt lat="40.656883175978486" lon="15.02820652284617"><ele>151.0</ele><time>2026-05-02T08:46:50.876Z</time></trkpt><trkpt lat="40.656944350436106" lon="15.028245326016426"><ele>151.0</ele><time>2026-05-02T08:46:51.876Z</time></trkpt><trkpt lat="40.65700194866165" lon="15.028293257407016"><ele>151.5</ele><time>2026-05-02T08:46:52.876Z</time></trkpt><trkpt lat="40.65709342898818" lon="15.028381140284134"><ele>152.0</ele><time>2026-05-02T08:46:54.876Z</time></trkpt><trkpt lat="40.657192207482126" lon="15.028458060734062"><ele>152.5</ele><time>2026-05-02T08:46:56.876Z</time></trkpt><trkpt lat="40.65728920653711" lon="15.028535691512248"><ele>153.0</ele><time>2026-05-02T08:46:58.876Z</time></trkpt><trkpt lat="40.657371141244425" lon="15.028639088401482"><ele>153.0</ele><time>2026-05-02T08:47:00.876Z</time></trkpt><trkpt lat="40.657452001951896" lon="15.028738666183077"><ele>153.0</ele><time>2026-05-02T08:47:02.876Z</time></trkpt><trkpt lat="40.657513033068895" lon="15.028835583276436"><ele>153.0</ele><time>2026-05-02T08:47:04.876Z</time></trkpt><trkpt lat="40.65757416850066" lon="15.028924888820715"><ele>153.0</ele><time>2026-05-02T08:47:06.875Z</time></trkpt><trkpt lat="40.65762242323148" lon="15.029018792944784"><ele>153.0</ele><time>2026-05-02T08:47:08.875Z</time></trkpt><trkpt lat="40.65765773926671" lon="15.029150176383837"><ele>153.42857142857142</ele><time>2026-05-02T08:47:10.875Z</time></trkpt><trkpt lat="40.65765898587525" lon="15.029236327177106"><ele>153.85714285714286</ele><time>2026-05-02T08:47:11.875Z</time></trkpt><trkpt lat="40.65765114144115" lon="15.029332282686735"><ele>154.28571428571428</ele><time>2026-05-02T08:47:12.875Z</time></trkpt><trkpt lat="40.6576279558788" lon="15.029426542326847"><ele>154.71428571428572</ele><time>2026-05-02T08:47:13.875Z</time></trkpt><trkpt lat="40.65759956049536" lon="15.02951900951671"><ele>155.14285714285714</ele><time>2026-05-02T08:47:14.875Z</time></trkpt><trkpt lat="40.65757150004945" lon="15.029612888119246"><ele>155.57142857142858</ele><time>2026-05-02T08:47:15.875Z</time></trkpt><trkpt lat="40.657544055131986" lon="15.029699617478073"><ele>156.0</ele><time>2026-05-02T08:47:16.875Z</time></trkpt><trkpt lat="40.65751868236948" lon="15.029778462869965"><ele>156.0</ele><time>2026-05-02T08:47:17.875Z</time></trkpt><trkpt lat="40.6575067255724" lon="15.02992625921905"><ele>156.0</ele><time>2026-05-02T08:47:19.875Z</time></trkpt><trkpt lat="40.6575135043212" lon="15.030017557772787"><ele>156.0</ele><time>2026-05-02T08:47:20.875Z</time></trkpt><trkpt lat="40.65754487845935" lon="15.03010759049662"><ele>156.0</ele><time>2026-05-02T08:47:21.875Z</time></trkpt><trkpt lat="40.6575862380907" lon="15.030189404738831"><ele>156.0</ele><time>2026-05-02T08:47:22.875Z</time></trkpt><trkpt lat="40.657634125947126" lon="15.03026079330631"><ele>156.0</ele><time>2026-05-02T08:47:23.875Z</time></trkpt><trkpt lat="40.65768498168969" lon="15.03031970426195"><ele>156.4</ele><time>2026-05-02T08:47:24.875Z</time></trkpt><trkpt lat="40.65778145310185" lon="15.030420896997056"><ele>156.8</ele><time>2026-05-02T08:47:26.874Z</time></trkpt><trkpt lat="40.65783254347713" lon="15.030469878594925"><ele>157.20000000000002</ele><time>2026-05-02T08:47:27.874Z</time></trkpt><trkpt lat="40.65788715775213" lon="15.030516526942302"><ele>157.6</ele><time>2026-05-02T08:47:28.874Z</time></trkpt><trkpt lat="40.65799923470198" lon="15.030573902996464"><ele>158.0</ele><time>2026-05-02T08:47:30.874Z</time></trkpt><trkpt lat="40.65808765036808" lon="15.030621045215643"><ele>158.0</ele><time>2026-05-02T08:47:32.874Z</time></trkpt><trkpt lat="40.658158333498854" lon="15.030709094865472"><ele>158.0</ele><time>2026-05-02T08:47:34.874Z</time></trkpt><trkpt lat="40.65818977073211" lon="15.030867161488976"><ele>158.0</ele><time>2026-05-02T08:47:36.874Z</time></trkpt><trkpt lat="40.658202782736225" lon="15.030975594824"><ele>158.0</ele><time>2026-05-02T08:47:37.874Z</time></trkpt><trkpt lat="40.658219611694825" lon="15.031084457959738"><ele>158.0</ele><time>2026-05-02T08:47:38.874Z</time></trkpt><trkpt lat="40.658249824726894" lon="15.031182491329751"><ele>159.57142857142858</ele><time>2026-05-02T08:47:39.874Z</time></trkpt><trkpt lat="40.658265974359686" lon="15.031276850438909"><ele>161.14285714285714</ele><time>2026-05-02T08:47:40.874Z</time></trkpt><trkpt lat="40.658286511067494" lon="15.031362795669793"><ele>162.71428571428572</ele><time>2026-05-02T08:47:41.874Z</time></trkpt><trkpt lat="40.65830449507092" lon="15.03145142719684"><ele>164.28571428571428</ele><time>2026-05-02T08:47:42.874Z</time></trkpt><trkpt lat="40.65832955176368" lon="15.03153209225946"><ele>165.85714285714286</ele><time>2026-05-02T08:47:43.877Z</time></trkpt><trkpt lat="40.65836351522767" lon="15.031605711980095"><ele>167.42857142857144</ele><time>2026-05-02T08:47:44.877Z</time></trkpt><trkpt lat="40.65842022962402" lon="15.031668084632479"><ele>169.0</ele><time>2026-05-02T08:47:45.877Z</time></trkpt><trkpt lat="40.65848731931406" lon="15.031723044176829"><ele>168.0</ele><time>2026-05-02T08:47:46.878Z</time></trkpt><trkpt lat="40.65856217164618" lon="15.031773672011525"><ele>167.0</ele><time>2026-05-02T08:47:47.877Z</time></trkpt><trkpt lat="40.658620692532644" lon="15.03183722069012"><ele>166.0</ele><time>2026-05-02T08:47:48.877Z</time></trkpt><trkpt lat="40.65868177415315" lon="15.031897143335808"><ele>165.0</ele><time>2026-05-02T08:47:49.878Z</time></trkpt><trkpt lat="40.65874202759893" lon="15.031948311752883"><ele>164.0</ele><time>2026-05-02T08:47:50.877Z</time></trkpt><trkpt lat="40.65880569596949" lon="15.03199634208529"><ele>163.0</ele><time>2026-05-02T08:47:51.877Z</time></trkpt><trkpt lat="40.65886397848124" lon="15.032040651611338"><ele>162.0</ele><time>2026-05-02T08:47:52.877Z</time></trkpt><trkpt lat="40.658921451855726" lon="15.032082477992722"><ele>162.0</ele><time>2026-05-02T08:47:53.877Z</time></trkpt><trkpt lat="40.65898160834186" lon="15.032122564167047"><ele>162.0</ele><time>2026-05-02T08:47:54.877Z</time></trkpt><trkpt lat="40.65904328846168" lon="15.032161684024354"><ele>162.0</ele><time>2026-05-02T08:47:55.877Z</time></trkpt><trkpt lat="40.65911047380759" lon="15.032206683970252"><ele>162.0</ele><time>2026-05-02T08:47:56.877Z</time></trkpt><trkpt lat="40.65918232138202" lon="15.032253205220504"><ele>162.0</ele><time>2026-05-02T08:47:57.877Z</time></trkpt><trkpt lat="40.65925832846965" lon="15.032298078814387"><ele>162.0</ele><time>2026-05-02T08:47:58.877Z</time></trkpt><trkpt lat="40.6593381946974" lon="15.032349184144945"><ele>162.0</ele><time>2026-05-02T08:47:59.877Z</time></trkpt><trkpt lat="40.65940580308423" lon="15.032414525559163"><ele>162.0</ele><time>2026-05-02T08:48:00.877Z</time></trkpt><trkpt lat="40.65948059953453" lon="15.032465803799637"><ele>162.0</ele><time>2026-05-02T08:48:01.877Z</time></trkpt><trkpt lat="40.65956291268535" lon="15.032504164600883"><ele>162.0</ele><time>2026-05-02T08:48:02.877Z</time></trkpt><trkpt lat="40.659626709670995" lon="15.032554036464761"><ele>162.0</ele><time>2026-05-02T08:48:03.877Z</time></trkpt><trkpt lat="40.65968125165467" lon="15.032611151083415"><ele>162.0</ele><time>2026-05-02T08:48:04.876Z</time></trkpt><trkpt lat="40.65973581110538" lon="15.032701873557848"><ele>162.39999999999998</ele><time>2026-05-02T08:48:05.876Z</time></trkpt><trkpt lat="40.65980210985345" lon="15.032821415316757"><ele>162.79999999999998</ele><time>2026-05-02T08:48:06.876Z</time></trkpt><trkpt lat="40.65986881155934" lon="15.032928992137107"><ele>163.2</ele><time>2026-05-02T08:48:07.876Z</time></trkpt><trkpt lat="40.65993451118447" lon="15.033032427065766"><ele>163.6</ele><time>2026-05-02T08:48:08.876Z</time></trkpt><trkpt lat="40.65997571111898" lon="15.033143603335576"><ele>164.0</ele><time>2026-05-02T08:48:09.876Z</time></trkpt><trkpt lat="40.66003928706357" lon="15.033216999917201"><ele>164.0</ele><time>2026-05-02T08:48:10.876Z</time></trkpt><trkpt lat="40.66009932723629" lon="15.033286283187413"><ele>164.0</ele><time>2026-05-02T08:48:11.876Z</time></trkpt><trkpt lat="40.66018789886149" lon="15.033405306078995"><ele>164.0</ele><time>2026-05-02T08:48:13.876Z</time></trkpt><trkpt lat="40.66022644716777" lon="15.033485430785825"><ele>164.0</ele><time>2026-05-02T08:48:14.876Z</time></trkpt><trkpt lat="40.660279158138046" lon="15.033565748764685"><ele>164.0</ele><time>2026-05-02T08:48:15.876Z</time></trkpt><trkpt lat="40.66033329015234" lon="15.033648228189715"><ele>164.0</ele><time>2026-05-02T08:48:16.876Z</time></trkpt><trkpt lat="40.66038873163325" lon="15.033731080992581"><ele>164.66666666666666</ele><time>2026-05-02T08:48:17.876Z</time></trkpt><trkpt lat="40.66044474116356" lon="15.033806881159684"><ele>165.33333333333331</ele><time>2026-05-02T08:48:18.876Z</time></trkpt><trkpt lat="40.66051484667299" lon="15.033864243182224"><ele>166.0</ele><time>2026-05-02T08:48:19.876Z</time></trkpt><trkpt lat="40.660563604200135" lon="15.033950827356206"><ele>166.66666666666666</ele><time>2026-05-02T08:48:20.876Z</time></trkpt><trkpt lat="40.660646520996664" lon="15.034036151354922"><ele>167.33333333333334</ele><time>2026-05-02T08:48:22.876Z</time></trkpt><trkpt lat="40.66071161397224" lon="15.03409063308445"><ele>168.0</ele><time>2026-05-02T08:48:24.876Z</time></trkpt><trkpt lat="40.66073752831876" lon="15.034192670177585"><ele>168.66666666666666</ele><time>2026-05-02T08:48:27.875Z</time></trkpt><trkpt lat="40.66070365793377" lon="15.034274158846044"><ele>169.33333333333334</ele><time>2026-05-02T08:48:29.875Z</time></trkpt><trkpt lat="40.660661500853756" lon="15.034345363954866"><ele>170.0</ele><time>2026-05-02T08:48:31.875Z</time></trkpt><trkpt lat="40.66063477167626" lon="15.034458940698938"><ele>170.66666666666669</ele><time>2026-05-02T08:48:33.875Z</time></trkpt><trkpt lat="40.6606553549327" lon="15.034559147317614"><ele>171.33333333333334</ele><time>2026-05-02T08:48:35.875Z</time></trkpt><trkpt lat="40.66067498770222" lon="15.03466823927784"><ele>172.0</ele><time>2026-05-02T08:48:37.875Z</time></trkpt><trkpt lat="40.66066839035931" lon="15.034757341254434"><ele>172.0</ele><time>2026-05-02T08:48:39.875Z</time></trkpt><trkpt lat="40.66070426221257" lon="15.034831787699835"><ele>172.0</ele><time>2026-05-02T08:48:42.875Z</time></trkpt><trkpt lat="40.6605645832868" lon="15.035118647857477"><ele>172.0</ele><time>2026-05-02T08:48:57.874Z</time></trkpt><trkpt lat="40.660547678225626" lon="15.035213902120494"><ele>172.0</ele><time>2026-05-02T08:49:02.874Z</time></trkpt><trkpt lat="40.66056312649156" lon="15.035129721525903"><ele>172.0</ele><time>2026-05-02T08:49:25.873Z</time></trkpt><trkpt lat="40.66059363200334" lon="15.035052790813381"><ele>172.0</ele><time>2026-05-02T08:49:29.872Z</time></trkpt><trkpt lat="40.66062666803444" lon="15.034968692118612"><ele>172.0</ele><time>2026-05-02T08:49:32.872Z</time></trkpt><trkpt lat="40.660666202603934" lon="15.034885170390911"><ele>172.0</ele><time>2026-05-02T08:49:36.872Z</time></trkpt><trkpt lat="40.66071529722989" lon="15.034805535986772"><ele>172.0</ele><time>2026-05-02T08:49:39.872Z</time></trkpt><trkpt lat="40.660779246039915" lon="15.034740107335475"><ele>172.0</ele><time>2026-05-02T08:49:45.872Z</time></trkpt><trkpt lat="40.66085528689418" lon="15.03469381669524"><ele>172.0</ele><time>2026-05-02T08:49:47.871Z</time></trkpt><trkpt lat="40.660910958718055" lon="15.034631791522092"><ele>172.0</ele><time>2026-05-02T08:49:49.875Z</time></trkpt><trkpt lat="40.66099090210678" lon="15.03467304681041"><ele>172.0</ele><time>2026-05-02T08:49:52.875Z</time></trkpt><trkpt lat="40.66102667230174" lon="15.03474265553312"><ele>172.0</ele><time>2026-05-02T08:49:53.875Z</time></trkpt><trkpt lat="40.66103915134354" lon="15.034859104081201"><ele>172.0</ele><time>2026-05-02T08:49:55.875Z</time></trkpt><trkpt lat="40.661095218918376" lon="15.034952374467727"><ele>172.0</ele><time>2026-05-02T08:49:57.875Z</time></trkpt><trkpt lat="40.6611441610632" lon="15.035068486224745"><ele>173.5</ele><time>2026-05-02T08:49:59.875Z</time></trkpt><trkpt lat="40.66119673519112" lon="15.03515285227158"><ele>175.0</ele><time>2026-05-02T08:50:01.875Z</time></trkpt><trkpt lat="40.6612549113657" lon="15.035227170117391"><ele>176.5</ele><time>2026-05-02T08:50:03.875Z</time></trkpt><trkpt lat="40.661308754923624" lon="15.035294790030381"><ele>178.0</ele><time>2026-05-02T08:50:05.875Z</time></trkpt><trkpt lat="40.66138458213581" lon="15.035344841665095"><ele>179.5</ele><time>2026-05-02T08:50:07.875Z</time></trkpt><trkpt lat="40.66148772843538" lon="15.035417649157083"><ele>181.0</ele><time>2026-05-02T08:50:09.875Z</time></trkpt><trkpt lat="40.661577611915305" lon="15.035489572090453"><ele>181.0</ele><time>2026-05-02T08:50:11.875Z</time></trkpt><trkpt lat="40.66163971552459" lon="15.035509687623772"><ele>181.0</ele><time>2026-05-02T08:50:12.875Z</time></trkpt><trkpt lat="40.661761797977285" lon="15.035533363947506"><ele>181.0</ele><time>2026-05-02T08:50:14.875Z</time></trkpt><trkpt lat="40.66187545230079" lon="15.035537303208383"><ele>181.0</ele><time>2026-05-02T08:50:16.875Z</time></trkpt><trkpt lat="40.66197319327939" lon="15.035555902587063"><ele>181.0</ele><time>2026-05-02T08:50:18.874Z</time></trkpt><trkpt lat="40.66207982974038" lon="15.035571715616749"><ele>180.4</ele><time>2026-05-02T08:50:20.874Z</time></trkpt><trkpt lat="40.6621814475165" lon="15.035584160717569"><ele>179.8</ele><time>2026-05-02T08:50:22.874Z</time></trkpt><trkpt lat="40.66226124154967" lon="15.035616470760628"><ele>179.20000000000002</ele><time>2026-05-02T08:50:24.874Z</time></trkpt><trkpt lat="40.662345594889175" lon="15.035681173992414"><ele>178.60000000000002</ele><time>2026-05-02T08:50:26.874Z</time></trkpt><trkpt lat="40.66241640275268" lon="15.03574934969561"><ele>178.0</ele><time>2026-05-02T08:50:28.874Z</time></trkpt><trkpt lat="40.66252653675085" lon="15.03576918856948"><ele>178.0</ele><time>2026-05-02T08:50:30.874Z</time></trkpt><trkpt lat="40.662594913342474" lon="15.03576853220775"><ele>178.0</ele><time>2026-05-02T08:50:31.874Z</time></trkpt><trkpt lat="40.66269214304083" lon="15.035782898338553"><ele>178.0</ele><time>2026-05-02T08:50:33.874Z</time></trkpt><trkpt lat="40.66278286819327" lon="15.035783368562718"><ele>178.0</ele><time>2026-05-02T08:50:35.874Z</time></trkpt><trkpt lat="40.6628734312404" lon="15.035826509115163"><ele>178.0</ele><time>2026-05-02T08:50:37.874Z</time></trkpt><trkpt lat="40.66295625872608" lon="15.035888567881196"><ele>178.0</ele><time>2026-05-02T08:50:39.873Z</time></trkpt><trkpt lat="40.663018185941624" lon="15.035974650026152"><ele>180.4</ele><time>2026-05-02T08:50:41.873Z</time></trkpt><trkpt lat="40.66306327479243" lon="15.036076128715386"><ele>182.8</ele><time>2026-05-02T08:50:43.873Z</time></trkpt><trkpt lat="40.66307794047369" lon="15.0362200274011"><ele>185.2</ele><time>2026-05-02T08:50:45.873Z</time></trkpt><trkpt lat="40.663062228932795" lon="15.036366392092281"><ele>187.6</ele><time>2026-05-02T08:50:47.873Z</time></trkpt><trkpt lat="40.66306796559345" lon="15.0364803549354"><ele>190.0</ele><time>2026-05-02T08:50:49.873Z</time></trkpt><trkpt lat="40.66312050885911" lon="15.036557800270673"><ele>190.0</ele><time>2026-05-02T08:50:51.873Z</time></trkpt><trkpt lat="40.66317693824204" lon="15.036598244606418"><ele>190.0</ele><time>2026-05-02T08:50:53.873Z</time></trkpt><trkpt lat="40.663325792770706" lon="15.036527119238457"><ele>190.0</ele><time>2026-05-02T08:50:58.873Z</time></trkpt><trkpt lat="40.663376916054006" lon="15.036443728848012"><ele>190.0</ele><time>2026-05-02T08:50:59.872Z</time></trkpt><trkpt lat="40.66342398480928" lon="15.036358066275794"><ele>190.0</ele><time>2026-05-02T08:51:00.872Z</time></trkpt><trkpt lat="40.66346641711623" lon="15.036282739364179"><ele>190.0</ele><time>2026-05-02T08:51:01.872Z</time></trkpt><trkpt lat="40.66353149369117" lon="15.036161574075837"><ele>190.0</ele><time>2026-05-02T08:51:03.872Z</time></trkpt><trkpt lat="40.663587519597606" lon="15.036089914643687"><ele>190.0</ele><time>2026-05-02T08:51:05.872Z</time></trkpt><trkpt lat="40.663696530437925" lon="15.036069155683967"><ele>190.0</ele><time>2026-05-02T08:51:07.872Z</time></trkpt><trkpt lat="40.66376258665828" lon="15.036097107164311"><ele>190.0</ele><time>2026-05-02T08:51:08.872Z</time></trkpt><trkpt lat="40.66382252402359" lon="15.036138215272201"><ele>190.0</ele><time>2026-05-02T08:51:09.872Z</time></trkpt><trkpt lat="40.663885343154774" lon="15.036169881233894"><ele>191.16666666666669</ele><time>2026-05-02T08:51:10.872Z</time></trkpt><trkpt lat="40.6639532275136" lon="15.036208584452531"><ele>192.33333333333334</ele><time>2026-05-02T08:51:11.872Z</time></trkpt><trkpt lat="40.66402278078689" lon="15.036223835403158"><ele>193.5</ele><time>2026-05-02T08:51:12.872Z</time></trkpt><trkpt lat="40.66407097476091" lon="15.03628600347684"><ele>194.66666666666669</ele><time>2026-05-02T08:51:13.872Z</time></trkpt><trkpt lat="40.66416904652399" lon="15.03633494759205"><ele>195.83333333333334</ele><time>2026-05-02T08:51:15.872Z</time></trkpt><trkpt lat="40.66424208831135" lon="15.036383459817483"><ele>197.0</ele><time>2026-05-02T08:51:17.872Z</time></trkpt><trkpt lat="40.66431201488033" lon="15.0364477399079"><ele>197.00000000000003</ele><time>2026-05-02T08:51:19.871Z</time></trkpt><trkpt lat="40.66438559383821" lon="15.036487857426602"><ele>197.0</ele><time>2026-05-02T08:51:21.871Z</time></trkpt><trkpt lat="40.66447681350518" lon="15.036486247611723"><ele>197.0</ele><time>2026-05-02T08:51:23.871Z</time></trkpt><trkpt lat="40.66454367555257" lon="15.036479626060872"><ele>197.0</ele><time>2026-05-02T08:51:25.871Z</time></trkpt><trkpt lat="40.66459520154164" lon="15.036410484600871"><ele>197.00000000000003</ele><time>2026-05-02T08:51:27.871Z</time></trkpt><trkpt lat="40.66464642326162" lon="15.036350195381033"><ele>197.0</ele><time>2026-05-02T08:51:29.871Z</time></trkpt><trkpt lat="40.66474474069545" lon="15.036316454655434"><ele>198.00000000000003</ele><time>2026-05-02T08:51:31.871Z</time></trkpt><trkpt lat="40.66481938306247" lon="15.03635467748391"><ele>199.0</ele><time>2026-05-02T08:51:33.871Z</time></trkpt><trkpt lat="40.664887637042874" lon="15.036358490679367"><ele>200.0</ele><time>2026-05-02T08:52:22.873Z</time></trkpt><trkpt lat="40.66496252206131" lon="15.036409307544023"><ele>201.0</ele><time>2026-05-02T08:52:25.873Z</time></trkpt><trkpt lat="40.66503905891405" lon="15.036420987135507"><ele>202.00000000000003</ele><time>2026-05-02T08:52:29.873Z</time></trkpt><trkpt lat="40.66510424359623" lon="15.036429993942509"><ele>203.0</ele><time>2026-05-02T08:52:31.872Z</time></trkpt><trkpt lat="40.66518519886837" lon="15.036455875208699"><ele>203.0</ele><time>2026-05-02T08:52:33.872Z</time></trkpt><trkpt lat="40.665251370417785" lon="15.03645249651226"><ele>203.0</ele><time>2026-05-02T08:52:35.872Z</time></trkpt><trkpt lat="40.66531973239881" lon="15.036454136643433"><ele>203.0</ele><time>2026-05-02T08:52:38.872Z</time></trkpt><trkpt lat="40.66539339885427" lon="15.03647718536208"><ele>203.0</ele><time>2026-05-02T08:52:41.872Z</time></trkpt><trkpt lat="40.66544390499843" lon="15.036541117202121"><ele>203.0</ele><time>2026-05-02T08:52:43.872Z</time></trkpt><trkpt lat="40.6654965693162" lon="15.03659997212949"><ele>203.0</ele><time>2026-05-02T08:52:45.872Z</time></trkpt><trkpt lat="40.66557087120305" lon="15.036608441309637"><ele>203.0</ele><time>2026-05-02T08:52:48.872Z</time></trkpt><trkpt lat="40.6656585704864" lon="15.036644739776476"><ele>202.16666666666669</ele><time>2026-05-02T08:52:51.871Z</time></trkpt><trkpt lat="40.66572702959378" lon="15.036743631339627"><ele>201.33333333333334</ele><time>2026-05-02T08:52:53.871Z</time></trkpt><trkpt lat="40.66580317321279" lon="15.036797457573668"><ele>200.5</ele><time>2026-05-02T08:52:55.871Z</time></trkpt><trkpt lat="40.66588458861375" lon="15.036831510742624"><ele>199.66666666666669</ele><time>2026-05-02T08:52:57.871Z</time></trkpt><trkpt lat="40.66596630636602" lon="15.03680215158907"><ele>198.83333333333334</ele><time>2026-05-02T08:52:59.871Z</time></trkpt><trkpt lat="40.66603835688214" lon="15.036778583631563"><ele>198.0</ele><time>2026-05-02T08:53:01.871Z</time></trkpt><trkpt lat="40.666130535064134" lon="15.0368317204394"><ele>198.0</ele><time>2026-05-02T08:53:03.871Z</time></trkpt><trkpt lat="40.666158169853375" lon="15.036944333649021"><ele>198.0</ele><time>2026-05-02T08:53:05.871Z</time></trkpt><trkpt lat="40.66613508055033" lon="15.037064256710824"><ele>198.0</ele><time>2026-05-02T08:53:07.871Z</time></trkpt><trkpt lat="40.666140549912384" lon="15.037163323573594"><ele>198.0</ele><time>2026-05-02T08:53:09.871Z</time></trkpt><trkpt lat="40.66617595493688" lon="15.037253462947064"><ele>198.0</ele><time>2026-05-02T08:53:11.87Z</time></trkpt><trkpt lat="40.666267032924765" lon="15.03728036728566"><ele>198.0</ele><time>2026-05-02T08:53:13.87Z</time></trkpt><trkpt lat="40.66635496538012" lon="15.037275984699285"><ele>198.0</ele><time>2026-05-02T08:53:15.87Z</time></trkpt><trkpt lat="40.66643738329856" lon="15.037248680255873"><ele>198.0</ele><time>2026-05-02T08:53:17.87Z</time></trkpt><trkpt lat="40.666494246117594" lon="15.037206755411988"><ele>198.0</ele><time>2026-05-02T08:53:19.87Z</time></trkpt><trkpt lat="40.66656153691881" lon="15.037176635308175"><ele>198.0</ele><time>2026-05-02T08:53:21.87Z</time></trkpt><trkpt lat="40.66665322721596" lon="15.037188919919245"><ele>198.0</ele><time>2026-05-02T08:53:23.87Z</time></trkpt><trkpt lat="40.666770078556894" lon="15.037242032542988"><ele>198.0</ele><time>2026-05-02T08:53:25.87Z</time></trkpt><trkpt lat="40.66683723055646" lon="15.037258581355939"><ele>198.0</ele><time>2026-05-02T08:53:26.87Z</time></trkpt><trkpt lat="40.66690346540479" lon="15.037251532222804"><ele>198.0</ele><time>2026-05-02T08:53:27.87Z</time></trkpt><trkpt lat="40.66700958020304" lon="15.037232312435096"><ele>198.0</ele><time>2026-05-02T08:53:29.87Z</time></trkpt><trkpt lat="40.66711566386915" lon="15.037236710563672"><ele>198.0</ele><time>2026-05-02T08:53:31.869Z</time></trkpt><trkpt lat="40.66722303292257" lon="15.037282252874137"><ele>198.0</ele><time>2026-05-02T08:53:33.869Z</time></trkpt><trkpt lat="40.667289810145505" lon="15.037373412621813"><ele>200.16666666666666</ele><time>2026-05-02T08:53:35.869Z</time></trkpt><trkpt lat="40.667350656733454" lon="15.037472914375147"><ele>202.33333333333331</ele><time>2026-05-02T08:53:37.869Z</time></trkpt><trkpt lat="40.66741044045177" lon="15.037557610268331"><ele>204.5</ele><time>2026-05-02T08:53:39.869Z</time></trkpt><trkpt lat="40.66744834516948" lon="15.037631794859077"><ele>206.66666666666666</ele><time>2026-05-02T08:53:41.869Z</time></trkpt><trkpt lat="40.667547865460605" lon="15.037650180598423"><ele>208.83333333333331</ele><time>2026-05-02T08:53:43.869Z</time></trkpt><trkpt lat="40.66763553935953" lon="15.03760085282593"><ele>211.0</ele><time>2026-05-02T08:53:45.869Z</time></trkpt><trkpt lat="40.667743427049245" lon="15.037591882388641"><ele>210.16666666666666</ele><time>2026-05-02T08:53:47.869Z</time></trkpt><trkpt lat="40.667852672805054" lon="15.037622322319999"><ele>209.33333333333331</ele><time>2026-05-02T08:53:49.869Z</time></trkpt><trkpt lat="40.66791823122226" lon="15.03763847933296"><ele>208.5</ele><time>2026-05-02T08:53:50.869Z</time></trkpt><trkpt lat="40.66798989226986" lon="15.037647162398972"><ele>207.66666666666669</ele><time>2026-05-02T08:53:51.869Z</time></trkpt><trkpt lat="40.668069373493715" lon="15.037660203621034"><ele>206.83333333333334</ele><time>2026-05-02T08:53:52.868Z</time></trkpt><trkpt lat="40.66813867188843" lon="15.037670995583373"><ele>206.0</ele><time>2026-05-02T08:53:53.868Z</time></trkpt><trkpt lat="40.66821179117644" lon="15.037674931477278"><ele>206.0</ele><time>2026-05-02T08:53:54.868Z</time></trkpt><trkpt lat="40.668278332451706" lon="15.037679479884057"><ele>206.0</ele><time>2026-05-02T08:53:55.868Z</time></trkpt><trkpt lat="40.668370729326355" lon="15.037705113197346"><ele>206.0</ele><time>2026-05-02T08:53:57.868Z</time></trkpt><trkpt lat="40.6684832700426" lon="15.037750668350943"><ele>206.0</ele><time>2026-05-02T08:53:59.868Z</time></trkpt><trkpt lat="40.66858379850144" lon="15.03784359045573"><ele>206.0</ele><time>2026-05-02T08:54:01.872Z</time></trkpt><trkpt lat="40.66863243294772" lon="15.037941768345695"><ele>206.4</ele><time>2026-05-02T08:54:03.871Z</time></trkpt><trkpt lat="40.66865683663953" lon="15.038061657635847"><ele>206.8</ele><time>2026-05-02T08:54:05.871Z</time></trkpt><trkpt lat="40.66868637587079" lon="15.038173363090184"><ele>207.20000000000002</ele><time>2026-05-02T08:54:07.871Z</time></trkpt><trkpt lat="40.66870839867176" lon="15.038255958252554"><ele>207.60000000000002</ele><time>2026-05-02T08:54:09.871Z</time></trkpt><trkpt lat="40.66879159422357" lon="15.038260775920104"><ele>208.0</ele><time>2026-05-02T08:54:11.871Z</time></trkpt><trkpt lat="40.66889209616802" lon="15.038179633905756"><ele>208.0</ele><time>2026-05-02T08:54:13.871Z</time></trkpt><trkpt lat="40.66898682227906" lon="15.03816382321937"><ele>208.0</ele><time>2026-05-02T08:54:15.871Z</time></trkpt><trkpt lat="40.66908093922969" lon="15.038188690846626"><ele>208.0</ele><time>2026-05-02T08:54:17.871Z</time></trkpt><trkpt lat="40.66918729578638" lon="15.038225910139705"><ele>208.0</ele><time>2026-05-02T08:54:19.871Z</time></trkpt><trkpt lat="40.66929473734645" lon="15.038251890696834"><ele>208.0</ele><time>2026-05-02T08:54:21.871Z</time></trkpt><trkpt lat="40.66940324298554" lon="15.038256443987562"><ele>208.2</ele><time>2026-05-02T08:54:23.871Z</time></trkpt><trkpt lat="40.66950918615598" lon="15.038259243739942"><ele>208.4</ele><time>2026-05-02T08:54:25.871Z</time></trkpt><trkpt lat="40.66961658854439" lon="15.038284906703224"><ele>208.6</ele><time>2026-05-02T08:54:27.871Z</time></trkpt><trkpt lat="40.66972710909567" lon="15.038330475169474"><ele>208.79999999999998</ele><time>2026-05-02T08:54:29.871Z</time></trkpt><trkpt lat="40.66978987595297" lon="15.038360920399919"><ele>209.0</ele><time>2026-05-02T08:54:30.871Z</time></trkpt><trkpt lat="40.669851522270214" lon="15.038397833052924"><ele>212.83333333333334</ele><time>2026-05-02T08:54:31.871Z</time></trkpt><trkpt lat="40.66995354288069" lon="15.038485825524555"><ele>216.66666666666669</ele><time>2026-05-02T08:54:33.87Z</time></trkpt><trkpt lat="40.670034038787435" lon="15.038579302684726"><ele>220.5</ele><time>2026-05-02T08:54:35.87Z</time></trkpt><trkpt lat="40.670069103182115" lon="15.038663814661675"><ele>224.33333333333331</ele><time>2026-05-02T08:54:37.87Z</time></trkpt><trkpt lat="40.67009104401258" lon="15.038752463900497"><ele>228.16666666666666</ele><time>2026-05-02T08:54:40.87Z</time></trkpt><trkpt lat="40.67012959560097" lon="15.03882635995498"><ele>232.0</ele><time>2026-05-02T08:54:43.87Z</time></trkpt><trkpt lat="40.67017627903121" lon="15.038901838267538"><ele>231.99999999999997</ele><time>2026-05-02T08:54:46.87Z</time></trkpt><trkpt lat="40.67022193621708" lon="15.03897880894641"><ele>232.0</ele><time>2026-05-02T08:54:49.87Z</time></trkpt><trkpt lat="40.67024657284687" lon="15.039083362416735"><ele>232.0</ele><time>2026-05-02T08:54:52.87Z</time></trkpt><trkpt lat="40.6702947836751" lon="15.039158183775685"><ele>232.0</ele><time>2026-05-02T08:54:55.869Z</time></trkpt><trkpt lat="40.670375125407936" lon="15.039149705707452"><ele>231.99999999999997</ele><time>2026-05-02T08:54:57.869Z</time></trkpt><trkpt lat="40.67046194083263" lon="15.039129251686525"><ele>232.0</ele><time>2026-05-02T08:54:59.869Z</time></trkpt><trkpt lat="40.67053502353851" lon="15.03912882051179"><ele>232.16666666666666</ele><time>2026-05-02T08:55:01.869Z</time></trkpt><trkpt lat="40.67060945315004" lon="15.039140225631566"><ele>232.33333333333331</ele><time>2026-05-02T08:55:03.869Z</time></trkpt><trkpt lat="40.67067490087865" lon="15.03916223249106"><ele>232.5</ele><time>2026-05-02T08:55:05.869Z</time></trkpt><trkpt lat="40.67077253756406" lon="15.039151805081808"><ele>232.66666666666669</ele><time>2026-05-02T08:55:08.869Z</time></trkpt><trkpt lat="40.67085014258525" lon="15.039133223600977"><ele>232.83333333333334</ele><time>2026-05-02T08:55:10.869Z</time></trkpt><trkpt lat="40.67095488743807" lon="15.039109861966018"><ele>233.0</ele><time>2026-05-02T08:55:12.869Z</time></trkpt><trkpt lat="40.671018689739995" lon="15.039080845829384"><ele>228.8</ele><time>2026-05-02T08:55:13.868Z</time></trkpt><trkpt lat="40.671124469519235" lon="15.039027679612579"><ele>224.60000000000002</ele><time>2026-05-02T08:55:15.868Z</time></trkpt><trkpt lat="40.671222857784365" lon="15.03899867578113"><ele>220.39999999999998</ele><time>2026-05-02T08:55:17.868Z</time></trkpt><trkpt lat="40.67132835163507" lon="15.038976724125638"><ele>216.2</ele><time>2026-05-02T08:55:19.868Z</time></trkpt><trkpt lat="40.67143435761642" lon="15.038960397562045"><ele>212.0</ele><time>2026-05-02T08:55:21.868Z</time></trkpt><trkpt lat="40.6715505371349" lon="15.038973052476894"><ele>212.0</ele><time>2026-05-02T08:55:23.868Z</time></trkpt><trkpt lat="40.67164901543426" lon="15.038989600854787"><ele>212.0</ele><time>2026-05-02T08:55:25.868Z</time></trkpt><trkpt lat="40.67174225643124" lon="15.03902391357475"><ele>212.0</ele><time>2026-05-02T08:55:27.868Z</time></trkpt><trkpt lat="40.67183385641677" lon="15.039050485462889"><ele>212.0</ele><time>2026-05-02T08:55:29.868Z</time></trkpt><trkpt lat="40.67192639162143" lon="15.039081404743396"><ele>212.0</ele><time>2026-05-02T08:55:31.868Z</time></trkpt><trkpt lat="40.67201735274749" lon="15.039123566001892"><ele>212.6</ele><time>2026-05-02T08:55:33.868Z</time></trkpt><trkpt lat="40.67213174072039" lon="15.039129650069048"><ele>213.2</ele><time>2026-05-02T08:55:35.867Z</time></trkpt><trkpt lat="40.67222677101334" lon="15.039207650374397"><ele>213.8</ele><time>2026-05-02T08:55:37.867Z</time></trkpt><trkpt lat="40.672282398908884" lon="15.039255233761692"><ele>214.4</ele><time>2026-05-02T08:55:38.867Z</time></trkpt><trkpt lat="40.672333879713584" lon="15.039303395277349"><ele>215.0</ele><time>2026-05-02T08:55:39.867Z</time></trkpt><trkpt lat="40.67241387133016" lon="15.039395480719902"><ele>216.4</ele><time>2026-05-02T08:55:41.867Z</time></trkpt><trkpt lat="40.672496683884624" lon="15.039459402838764"><ele>217.8</ele><time>2026-05-02T08:55:43.867Z</time></trkpt><trkpt lat="40.672559322579595" lon="15.039471644830396"><ele>219.2</ele><time>2026-05-02T08:55:44.867Z</time></trkpt><trkpt lat="40.672678020458086" lon="15.03948109819063"><ele>220.6</ele><time>2026-05-02T08:55:46.867Z</time></trkpt><trkpt lat="40.67274356197282" lon="15.039520737610827"><ele>222.0</ele><time>2026-05-02T08:55:47.867Z</time></trkpt><trkpt lat="40.67283197051194" lon="15.039586325266349"><ele>222.0</ele><time>2026-05-02T08:55:49.867Z</time></trkpt><trkpt lat="40.67287244843309" lon="15.039654008198916"><ele>222.0</ele><time>2026-05-02T08:55:50.867Z</time></trkpt><trkpt lat="40.67292750316515" lon="15.039787695375995"><ele>222.0</ele><time>2026-05-02T08:55:52.867Z</time></trkpt><trkpt lat="40.67296168798402" lon="15.03994805639716"><ele>222.0</ele><time>2026-05-02T08:55:54.866Z</time></trkpt><trkpt lat="40.67302977774605" lon="15.040060043644736"><ele>222.0</ele><time>2026-05-02T08:55:56.866Z</time></trkpt><trkpt lat="40.67314466062984" lon="15.040145494573029"><ele>223.6</ele><time>2026-05-02T08:55:58.866Z</time></trkpt><trkpt lat="40.67325373448036" lon="15.040192431377214"><ele>225.2</ele><time>2026-05-02T08:56:00.866Z</time></trkpt><trkpt lat="40.67334628120691" lon="15.040281675306217"><ele>226.8</ele><time>2026-05-02T08:56:02.866Z</time></trkpt><trkpt lat="40.67341036729582" lon="15.040409163285592"><ele>228.4</ele><time>2026-05-02T08:56:04.866Z</time></trkpt><trkpt lat="40.67344969425136" lon="15.040527574302711"><ele>230.0</ele><time>2026-05-02T08:56:06.866Z</time></trkpt><trkpt lat="40.673490473498454" lon="15.040649982978254"><ele>230.00000000000003</ele><time>2026-05-02T08:56:08.869Z</time></trkpt><trkpt lat="40.67353677591936" lon="15.040766961310302"><ele>230.0</ele><time>2026-05-02T08:56:10.869Z</time></trkpt><trkpt lat="40.67359654177183" lon="15.0408853599716"><ele>230.0</ele><time>2026-05-02T08:56:12.869Z</time></trkpt><trkpt lat="40.673668892072094" lon="15.04095634156483"><ele>230.0</ele><time>2026-05-02T08:56:14.869Z</time></trkpt><trkpt lat="40.673705316758024" lon="15.041036047245639"><ele>230.00000000000003</ele><time>2026-05-02T08:56:16.869Z</time></trkpt><trkpt lat="40.67372480160382" lon="15.041136590146603"><ele>230.0</ele><time>2026-05-02T08:56:18.869Z</time></trkpt><trkpt lat="40.67371633539492" lon="15.041247895030377"><ele>229.00000000000003</ele><time>2026-05-02T08:56:20.869Z</time></trkpt><trkpt lat="40.67372594322133" lon="15.041338915927067"><ele>228.0</ele><time>2026-05-02T08:56:22.869Z</time></trkpt><trkpt lat="40.673791743557295" lon="15.041415541972341"><ele>227.0</ele><time>2026-05-02T08:56:24.869Z</time></trkpt><trkpt lat="40.673861195589815" lon="15.04143523072103"><ele>226.0</ele><time>2026-05-02T08:56:26.869Z</time></trkpt><trkpt lat="40.67397002173051" lon="15.041429578937143"><ele>225.00000000000003</ele><time>2026-05-02T08:56:28.869Z</time></trkpt><trkpt lat="40.67404637178925" lon="15.041514433729583"><ele>224.0</ele><time>2026-05-02T08:56:30.869Z</time></trkpt><trkpt lat="40.67410771334014" lon="15.04159539533689"><ele>227.0</ele><time>2026-05-02T08:56:32.869Z</time></trkpt><trkpt lat="40.67416452250379" lon="15.041649923562357"><ele>229.99999999999997</ele><time>2026-05-02T08:56:34.869Z</time></trkpt><trkpt lat="40.6742341533295" lon="15.041732607913929"><ele>232.99999999999997</ele><time>2026-05-02T08:56:36.868Z</time></trkpt><trkpt lat="40.674353476138876" lon="15.041777444425193"><ele>236.0</ele><time>2026-05-02T08:56:38.868Z</time></trkpt><trkpt lat="40.674451437291665" lon="15.041840586080328"><ele>239.0</ele><time>2026-05-02T08:56:40.868Z</time></trkpt><trkpt lat="40.67453677447287" lon="15.041890098323497"><ele>239.0</ele><time>2026-05-02T08:56:42.868Z</time></trkpt><trkpt lat="40.674624529842355" lon="15.041950022430779"><ele>238.99999999999997</ele><time>2026-05-02T08:56:44.868Z</time></trkpt><trkpt lat="40.67471095011205" lon="15.041981359465607"><ele>238.99999999999997</ele><time>2026-05-02T08:56:46.868Z</time></trkpt><trkpt lat="40.67480001093906" lon="15.042046765291799"><ele>239.0</ele><time>2026-05-02T08:56:48.868Z</time></trkpt><trkpt lat="40.67488124612882" lon="15.042133561812976"><ele>239.0</ele><time>2026-05-02T08:56:50.868Z</time></trkpt><trkpt lat="40.674935633076316" lon="15.042238417621041"><ele>239.00000000000003</ele><time>2026-05-02T08:56:52.868Z</time></trkpt><trkpt lat="40.67496070047764" lon="15.042317396973303"><ele>239.0</ele><time>2026-05-02T08:56:54.868Z</time></trkpt><trkpt lat="40.6749861861333" lon="15.042418694906635"><ele>239.0</ele><time>2026-05-02T08:56:56.867Z</time></trkpt><trkpt lat="40.674991696311224" lon="15.042518823500638"><ele>239.0</ele><time>2026-05-02T08:56:58.867Z</time></trkpt><trkpt lat="40.675007857426834" lon="15.042631448384375"><ele>239.00000000000003</ele><time>2026-05-02T08:57:00.867Z</time></trkpt><trkpt lat="40.67504826166506" lon="15.042723033649436"><ele>239.0</ele><time>2026-05-02T08:57:03.867Z</time></trkpt><trkpt lat="40.67513299779038" lon="15.042701415216461"><ele>241.00000000000003</ele><time>2026-05-02T08:57:05.867Z</time></trkpt><trkpt lat="40.675192817171826" lon="15.042675258622603"><ele>243.0</ele><time>2026-05-02T08:57:06.867Z</time></trkpt><trkpt lat="40.675297381339156" lon="15.042642625772181"><ele>245.0</ele><time>2026-05-02T08:57:08.867Z</time></trkpt><trkpt lat="40.67537654880444" lon="15.042692880067802"><ele>247.0</ele><time>2026-05-02T08:57:10.867Z</time></trkpt><trkpt lat="40.67544685920501" lon="15.042728694432975"><ele>249.00000000000003</ele><time>2026-05-02T08:57:12.867Z</time></trkpt><trkpt lat="40.67551516869229" lon="15.042800415672696"><ele>251.0</ele><time>2026-05-02T08:57:14.867Z</time></trkpt><trkpt lat="40.675570807279094" lon="15.042886675505256"><ele>251.0</ele><time>2026-05-02T08:57:16.866Z</time></trkpt><trkpt lat="40.675635356531075" lon="15.042975489128533"><ele>251.00000000000003</ele><time>2026-05-02T08:57:18.866Z</time></trkpt><trkpt lat="40.67571716581314" lon="15.043040714140508"><ele>251.00000000000003</ele><time>2026-05-02T08:57:20.866Z</time></trkpt><trkpt lat="40.67580132736114" lon="15.043109667656017"><ele>251.0</ele><time>2026-05-02T08:57:22.866Z</time></trkpt><trkpt lat="40.67587622521496" lon="15.043153996543353"><ele>251.0</ele><time>2026-05-02T08:57:24.866Z</time></trkpt><trkpt lat="40.675954396477984" lon="15.043228602053267"><ele>251.00000000000003</ele><time>2026-05-02T08:57:26.866Z</time></trkpt><trkpt lat="40.67602361965813" lon="15.043288358579082"><ele>251.0</ele><time>2026-05-02T08:57:28.866Z</time></trkpt><trkpt lat="40.6760969699814" lon="15.043370358534961"><ele>251.0</ele><time>2026-05-02T08:57:31.866Z</time></trkpt><trkpt lat="40.67618513045698" lon="15.043392882997148"><ele>251.0</ele><time>2026-05-02T08:57:33.866Z</time></trkpt><trkpt lat="40.676279711037864" lon="15.043414607170503"><ele>251.00000000000003</ele><time>2026-05-02T08:57:35.866Z</time></trkpt><trkpt lat="40.67636033010707" lon="15.043430277821207"><ele>251.0</ele><time>2026-05-02T08:57:36.865Z</time></trkpt><trkpt lat="40.67644694459426" lon="15.043431166367839"><ele>251.83333333333334</ele><time>2026-05-02T08:57:38.865Z</time></trkpt><trkpt lat="40.676499709255395" lon="15.0434844463457"><ele>252.66666666666669</ele><time>2026-05-02T08:57:40.865Z</time></trkpt><trkpt lat="40.67656714904649" lon="15.043531065759767"><ele>253.5</ele><time>2026-05-02T08:57:42.865Z</time></trkpt><trkpt lat="40.67663885454449" lon="15.043592092350488"><ele>254.33333333333331</ele><time>2026-05-02T08:57:44.865Z</time></trkpt><trkpt lat="40.67671596099021" lon="15.04363650341095"><ele>255.16666666666666</ele><time>2026-05-02T08:57:46.865Z</time></trkpt><trkpt lat="40.676772019020845" lon="15.043679701556627"><ele>256.0</ele><time>2026-05-02T08:57:49.865Z</time></trkpt><trkpt lat="40.676860851192934" lon="15.043684883444149"><ele>255.85714285714283</ele><time>2026-05-02T08:58:17.867Z</time></trkpt><trkpt lat="40.67694697397325" lon="15.043704310636477"><ele>255.7142857142857</ele><time>2026-05-02T08:58:20.867Z</time></trkpt><trkpt lat="40.677009357642746" lon="15.043720834944176"><ele>255.57142857142856</ele><time>2026-05-02T08:58:22.867Z</time></trkpt><trkpt lat="40.67709044093597" lon="15.0437260816529"><ele>255.42857142857144</ele><time>2026-05-02T08:58:25.866Z</time></trkpt><trkpt lat="40.67716060883807" lon="15.043721971096998"><ele>255.2857142857143</ele><time>2026-05-02T08:58:28.866Z</time></trkpt><trkpt lat="40.67723307998391" lon="15.043702827328406"><ele>255.14285714285717</ele><time>2026-05-02T08:58:31.866Z</time></trkpt><trkpt lat="40.677300361255874" lon="15.043713422284382"><ele>255.0</ele><time>2026-05-02T08:58:34.866Z</time></trkpt><trkpt lat="40.677383000039384" lon="15.04372538583066"><ele>255.0</ele><time>2026-05-02T08:58:37.866Z</time></trkpt><trkpt lat="40.67746570614356" lon="15.043745306064713"><ele>255.0</ele><time>2026-05-02T08:58:39.866Z</time></trkpt><trkpt lat="40.677579953553106" lon="15.043772957969903"><ele>255.0</ele><time>2026-05-02T08:58:41.866Z</time></trkpt><trkpt lat="40.67766285033774" lon="15.043738762550687"><ele>255.0</ele><time>2026-05-02T08:58:43.866Z</time></trkpt><trkpt lat="40.67774720032855" lon="15.043734999728324"><ele>255.0</ele><time>2026-05-02T08:58:45.866Z</time></trkpt><trkpt lat="40.67782954303316" lon="15.043723151942636"><ele>256.7142857142857</ele><time>2026-05-02T08:58:47.865Z</time></trkpt><trkpt lat="40.677895789370346" lon="15.043775333715095"><ele>258.42857142857144</ele><time>2026-05-02T08:59:20.864Z</time></trkpt><trkpt lat="40.6779598448394" lon="15.043761298297966"><ele>260.14285714285717</ele><time>2026-05-02T08:59:25.864Z</time></trkpt><trkpt lat="40.67802243731189" lon="15.043668852640305"><ele>261.8571428571429</ele><time>2026-05-02T08:59:29.863Z</time></trkpt><trkpt lat="40.678079403630974" lon="15.043605740701084"><ele>263.57142857142856</ele><time>2026-05-02T08:59:33.863Z</time></trkpt><trkpt lat="40.67813789271966" lon="15.043562629313055"><ele>265.28571428571433</ele><time>2026-05-02T08:59:44.863Z</time></trkpt><trkpt lat="40.678187280017276" lon="15.0434957745753"><ele>267.0</ele><time>2026-05-02T09:00:38.864Z</time></trkpt><trkpt lat="40.67824873828776" lon="15.043469653738157"><ele>267.0</ele><time>2026-05-02T09:00:40.864Z</time></trkpt><trkpt lat="40.678335760570114" lon="15.043483220552694"><ele>267.0</ele><time>2026-05-02T09:00:43.864Z</time></trkpt><trkpt lat="40.67842151543539" lon="15.043517325707924"><ele>267.0</ele><time>2026-05-02T09:00:47.864Z</time></trkpt><trkpt lat="40.67848391068009" lon="15.043568176588046"><ele>267.0</ele><time>2026-05-02T09:00:49.864Z</time></trkpt><trkpt lat="40.678562483951936" lon="15.043634118164183"><ele>267.0</ele><time>2026-05-02T09:00:51.864Z</time></trkpt><trkpt lat="40.67865145787709" lon="15.04368430302807"><ele>267.0</ele><time>2026-05-02T09:00:53.863Z</time></trkpt><trkpt lat="40.67872267060365" lon="15.043732936871113"><ele>268.8</ele><time>2026-05-02T09:00:55.863Z</time></trkpt><trkpt lat="40.678808048378535" lon="15.043781682203017"><ele>270.6</ele><time>2026-05-02T09:00:57.863Z</time></trkpt><trkpt lat="40.6789176987293" lon="15.043849998140947"><ele>272.40000000000003</ele><time>2026-05-02T09:00:59.863Z</time></trkpt><trkpt lat="40.679022921745414" lon="15.04387777140185"><ele>274.2</ele><time>2026-05-02T09:01:01.863Z</time></trkpt><trkpt lat="40.679140781572606" lon="15.043882184463724"><ele>276.0</ele><time>2026-05-02T09:01:03.863Z</time></trkpt><trkpt lat="40.67923149055948" lon="15.04388915000158"><ele>276.0</ele><time>2026-05-02T09:01:05.863Z</time></trkpt><trkpt lat="40.67933281812843" lon="15.043866805045573"><ele>276.0</ele><time>2026-05-02T09:01:07.863Z</time></trkpt><trkpt lat="40.67939294024594" lon="15.04379643374906"><ele>276.0</ele><time>2026-05-02T09:01:09.863Z</time></trkpt><trkpt lat="40.679413722336655" lon="15.043695309982567"><ele>276.0</ele><time>2026-05-02T09:01:12.863Z</time></trkpt><trkpt lat="40.679324022746435" lon="15.043641802747704"><ele>276.0</ele><time>2026-05-02T09:01:16.862Z</time></trkpt><trkpt lat="40.6792433528467" lon="15.04358296159784"><ele>276.0</ele><time>2026-05-02T09:01:18.862Z</time></trkpt><trkpt lat="40.67917306115484" lon="15.043541152521398"><ele>276.0</ele><time>2026-05-02T09:01:20.862Z</time></trkpt><trkpt lat="40.679067190706256" lon="15.043507388562325"><ele>276.0</ele><time>2026-05-02T09:01:22.862Z</time></trkpt><trkpt lat="40.67897816121817" lon="15.043528228824727"><ele>276.0</ele><time>2026-05-02T09:01:25.862Z</time></trkpt><trkpt lat="40.67896074710172" lon="15.043416200027869"><ele>276.0</ele><time>2026-05-02T09:01:28.862Z</time></trkpt><trkpt lat="40.67902093414932" lon="15.043346369601883"><ele>276.0</ele><time>2026-05-02T09:01:32.862Z</time></trkpt><trkpt lat="40.67909176528297" lon="15.043324316426736"><ele>276.0</ele><time>2026-05-02T09:01:34.861Z</time></trkpt><trkpt lat="40.6791847345307" lon="15.043332606151651"><ele>276.0</ele><time>2026-05-02T09:01:36.861Z</time></trkpt><trkpt lat="40.67926444780893" lon="15.043335410542499"><ele>276.0</ele><time>2026-05-02T09:01:38.861Z</time></trkpt><trkpt lat="40.67935846929359" lon="15.043308348025734"><ele>276.0</ele><time>2026-05-02T09:01:40.861Z</time></trkpt><trkpt lat="40.679443295136636" lon="15.04329874910911"><ele>276.0</ele><time>2026-05-02T09:01:42.861Z</time></trkpt><trkpt lat="40.679529251291726" lon="15.04328891833717"><ele>276.0</ele><time>2026-05-02T09:01:44.861Z</time></trkpt><trkpt lat="40.67966794356083" lon="15.043261092238751"><ele>286.0</ele><time>2026-05-02T09:01:47.861Z</time></trkpt><trkpt lat="40.67978090869716" lon="15.043218046795099"><ele>296.0</ele><time>2026-05-02T09:01:49.861Z</time></trkpt><trkpt lat="40.67989998317926" lon="15.04318494684231"><ele>306.0</ele><time>2026-05-02T09:01:51.861Z</time></trkpt><trkpt lat="40.67996991661546" lon="15.043155020363177"><ele>316.0</ele><time>2026-05-02T09:01:52.861Z</time></trkpt><trkpt lat="40.680038463260324" lon="15.043124487436987"><ele>326.0</ele><time>2026-05-02T09:01:53.861Z</time></trkpt><trkpt lat="40.680101833336714" lon="15.043104855788187"><ele>326.0</ele><time>2026-05-02T09:01:54.861Z</time></trkpt><trkpt lat="40.6801983830847" lon="15.04309951965431"><ele>326.0</ele><time>2026-05-02T09:01:56.86Z</time></trkpt><trkpt lat="40.68030446694128" lon="15.043087762116219"><ele>326.0</ele><time>2026-05-02T09:01:58.86Z</time></trkpt><trkpt lat="40.68037210926831" lon="15.04308577319689"><ele>326.0</ele><time>2026-05-02T09:01:59.86Z</time></trkpt><trkpt lat="40.68043453413303" lon="15.043072503146764"><ele>326.0</ele><time>2026-05-02T09:02:00.86Z</time></trkpt><trkpt lat="40.68050706063398" lon="15.04304509922137"><ele>326.0</ele><time>2026-05-02T09:02:02.86Z</time></trkpt><trkpt lat="40.68058059725308" lon="15.04302369146191"><ele>325.0</ele><time>2026-05-02T09:02:04.86Z</time></trkpt><trkpt lat="40.68070232882388" lon="15.042990106486357"><ele>324.0</ele><time>2026-05-02T09:02:07.86Z</time></trkpt><trkpt lat="40.68077817569288" lon="15.042938696667429"><ele>323.0</ele><time>2026-05-02T09:02:09.86Z</time></trkpt><trkpt lat="40.68087480321056" lon="15.042920396633612"><ele>322.0</ele><time>2026-05-02T09:02:11.86Z</time></trkpt><trkpt lat="40.68095496875727" lon="15.04288306581987"><ele>321.0</ele><time>2026-05-02T09:02:13.86Z</time></trkpt><trkpt lat="40.68104079879902" lon="15.04283199140852"><ele>319.40000000000003</ele><time>2026-05-02T09:02:15.859Z</time></trkpt><trkpt lat="40.681111537822794" lon="15.042807474017671"><ele>317.8</ele><time>2026-05-02T09:02:17.859Z</time></trkpt><trkpt lat="40.68122190142148" lon="15.042782113433962"><ele>316.20000000000005</ele><time>2026-05-02T09:02:19.859Z</time></trkpt><trkpt lat="40.68130194143568" lon="15.042764610099523"><ele>314.6</ele><time>2026-05-02T09:02:20.859Z</time></trkpt><trkpt lat="40.68140646543847" lon="15.042721110197313"><ele>313.0</ele><time>2026-05-02T09:02:22.859Z</time></trkpt><trkpt lat="40.68150836032465" lon="15.042670418613154"><ele>313.0</ele><time>2026-05-02T09:02:24.859Z</time></trkpt><trkpt lat="40.68159712081039" lon="15.042612641402364"><ele>313.0</ele><time>2026-05-02T09:02:26.862Z</time></trkpt><trkpt lat="40.68166668955052" lon="15.042549889118039"><ele>313.0</ele><time>2026-05-02T09:02:28.862Z</time></trkpt><trkpt lat="40.68164076944733" lon="15.042454075455685"><ele>313.0</ele><time>2026-05-02T09:02:32.862Z</time></trkpt><trkpt lat="40.681574482777464" lon="15.042438070419884"><ele>313.0</ele><time>2026-05-02T09:02:35.861Z</time></trkpt><trkpt lat="40.68150082438214" lon="15.042537678649099"><ele>313.0</ele><time>2026-05-02T09:02:38.861Z</time></trkpt><trkpt lat="40.68142314517069" lon="15.042561712032834"><ele>313.0</ele><time>2026-05-02T09:02:40.861Z</time></trkpt><trkpt lat="40.68134864187274" lon="15.042553275060863"><ele>313.0</ele><time>2026-05-02T09:02:42.861Z</time></trkpt><trkpt lat="40.68124399665706" lon="15.042521387335547"><ele>313.0</ele><time>2026-05-02T09:02:44.861Z</time></trkpt><trkpt lat="40.68115544694275" lon="15.042493873173637"><ele>313.0</ele><time>2026-05-02T09:02:46.861Z</time></trkpt><trkpt lat="40.68104705581681" lon="15.042465311968483"><ele>313.0</ele><time>2026-05-02T09:02:48.861Z</time></trkpt><trkpt lat="40.680931887623" lon="15.042435802927073"><ele>321.0</ele><time>2026-05-02T09:02:50.861Z</time></trkpt><trkpt lat="40.680808509584715" lon="15.042438026475013"><ele>329.0</ele><time>2026-05-02T09:02:52.861Z</time></trkpt><trkpt lat="40.680736540056195" lon="15.04244963951657"><ele>337.0</ele><time>2026-05-02T09:02:53.861Z</time></trkpt><trkpt lat="40.680664255174555" lon="15.042449959371138"><ele>345.0</ele><time>2026-05-02T09:02:54.861Z</time></trkpt><trkpt lat="40.680584949877954" lon="15.042439053239095"><ele>353.0</ele><time>2026-05-02T09:02:55.86Z</time></trkpt><trkpt lat="40.68051315253565" lon="15.04241315053757"><ele>361.0</ele><time>2026-05-02T09:02:56.86Z</time></trkpt><trkpt lat="40.680440608672605" lon="15.042395124845001"><ele>361.0</ele><time>2026-05-02T09:02:57.86Z</time></trkpt><trkpt lat="40.68037347515761" lon="15.042363483951124"><ele>361.0</ele><time>2026-05-02T09:02:58.86Z</time></trkpt><trkpt lat="40.680299926267594" lon="15.042354870629257"><ele>361.0</ele><time>2026-05-02T09:02:59.86Z</time></trkpt><trkpt lat="40.680236817451664" lon="15.042331875170044"><ele>361.0</ele><time>2026-05-02T09:03:00.86Z</time></trkpt><trkpt lat="40.68010534048667" lon="15.04231241427829"><ele>361.0</ele><time>2026-05-02T09:03:02.86Z</time></trkpt><trkpt lat="40.679981151800554" lon="15.042328857438077"><ele>363.8</ele><time>2026-05-02T09:03:04.86Z</time></trkpt><trkpt lat="40.679875640495545" lon="15.042348347527254"><ele>366.6</ele><time>2026-05-02T09:03:06.86Z</time></trkpt><trkpt lat="40.67978215691517" lon="15.042330102496244"><ele>369.4</ele><time>2026-05-02T09:03:08.86Z</time></trkpt><trkpt lat="40.67970296492368" lon="15.04226135928889"><ele>372.2</ele><time>2026-05-02T09:03:10.86Z</time></trkpt><trkpt lat="40.679609113093036" lon="15.042218362801442"><ele>375.0</ele><time>2026-05-02T09:03:12.86Z</time></trkpt><trkpt lat="40.679513733780304" lon="15.042172233002363"><ele>373.2</ele><time>2026-05-02T09:03:14.86Z</time></trkpt><trkpt lat="40.679398026647846" lon="15.04217130994083"><ele>371.4</ele><time>2026-05-02T09:03:16.859Z</time></trkpt><trkpt lat="40.67928788456251" lon="15.0421976923552"><ele>369.6</ele><time>2026-05-02T09:03:18.859Z</time></trkpt><trkpt lat="40.679218291316076" lon="15.042196902593039"><ele>367.8</ele><time>2026-05-02T09:03:20.859Z</time></trkpt><trkpt lat="40.67914269786795" lon="15.042150989025519"><ele>366.0</ele><time>2026-05-02T09:03:22.859Z</time></trkpt><trkpt lat="40.679061588122416" lon="15.042161278379796"><ele>366.0</ele><time>2026-05-02T09:03:24.859Z</time></trkpt><trkpt lat="40.67900059101885" lon="15.042184974784703"><ele>366.0</ele><time>2026-05-02T09:03:26.859Z</time></trkpt><trkpt lat="40.678928538798516" lon="15.042197163591544"><ele>366.0</ele><time>2026-05-02T09:03:28.859Z</time></trkpt><trkpt lat="40.67885765355962" lon="15.042171898066782"><ele>366.0</ele><time>2026-05-02T09:03:30.859Z</time></trkpt><trkpt lat="40.67877462153992" lon="15.042081539468631"><ele>366.0</ele><time>2026-05-02T09:03:32.859Z</time></trkpt><trkpt lat="40.678721778228976" lon="15.042027921488234"><ele>366.0</ele><time>2026-05-02T09:03:33.859Z</time></trkpt><trkpt lat="40.67865292935939" lon="15.041965828911678"><ele>363.6666666666667</ele><time>2026-05-02T09:03:34.859Z</time></trkpt><trkpt lat="40.67859415052738" lon="15.04191917702269"><ele>361.3333333333333</ele><time>2026-05-02T09:03:35.859Z</time></trkpt><trkpt lat="40.678548918319805" lon="15.041852550911342"><ele>359.0</ele><time>2026-05-02T09:03:36.858Z</time></trkpt><trkpt lat="40.67849658271387" lon="15.041803853412956"><ele>356.66666666666663</ele><time>2026-05-02T09:03:37.858Z</time></trkpt><trkpt lat="40.67843787307357" lon="15.041744708361822"><ele>354.3333333333333</ele><time>2026-05-02T09:03:38.858Z</time></trkpt><trkpt lat="40.67836765123934" lon="15.041696651091302"><ele>352.0</ele><time>2026-05-02T09:03:39.858Z</time></trkpt><trkpt lat="40.67827560388259" lon="15.041653127975056"><ele>352.0</ele><time>2026-05-02T09:03:40.858Z</time></trkpt><trkpt lat="40.678207383895334" lon="15.041637126258077"><ele>352.0</ele><time>2026-05-02T09:03:41.858Z</time></trkpt><trkpt lat="40.67813912527049" lon="15.041616473008594"><ele>352.0</ele><time>2026-05-02T09:03:42.858Z</time></trkpt><trkpt lat="40.67807068085218" lon="15.041598529577808"><ele>352.0</ele><time>2026-05-02T09:03:43.858Z</time></trkpt><trkpt lat="40.678001391814256" lon="15.041587510858708"><ele>352.0</ele><time>2026-05-02T09:03:44.858Z</time></trkpt><trkpt lat="40.67789019162659" lon="15.041543053009539"><ele>352.0</ele><time>2026-05-02T09:03:46.858Z</time></trkpt><trkpt lat="40.67782684717492" lon="15.041522603985362"><ele>353.16666666666663</ele><time>2026-05-02T09:03:47.858Z</time></trkpt><trkpt lat="40.67776834176888" lon="15.041484866641623"><ele>354.3333333333333</ele><time>2026-05-02T09:03:48.858Z</time></trkpt><trkpt lat="40.67765667216673" lon="15.04143549091659"><ele>355.5</ele><time>2026-05-02T09:03:50.858Z</time></trkpt><trkpt lat="40.6775524404471" lon="15.04134863424876"><ele>356.6666666666667</ele><time>2026-05-02T09:03:52.858Z</time></trkpt><trkpt lat="40.67750034132013" lon="15.041298978782159"><ele>357.83333333333337</ele><time>2026-05-02T09:03:53.858Z</time></trkpt><trkpt lat="40.677446631875654" lon="15.041244423650918"><ele>359.0</ele><time>2026-05-02T09:03:54.858Z</time></trkpt><trkpt lat="40.67737761151833" lon="15.041148134960471"><ele>359.0</ele><time>2026-05-02T09:03:56.858Z</time></trkpt><trkpt lat="40.677314953047535" lon="15.041041243115055"><ele>359.0</ele><time>2026-05-02T09:03:58.857Z</time></trkpt><trkpt lat="40.67724380003069" lon="15.040912147633284"><ele>359.0</ele><time>2026-05-02T09:04:00.857Z</time></trkpt><trkpt lat="40.67718554532772" lon="15.040748191632996"><ele>359.0</ele><time>2026-05-02T09:04:02.857Z</time></trkpt><trkpt lat="40.67713615094822" lon="15.040659051534595"><ele>359.0</ele><time>2026-05-02T09:04:03.857Z</time></trkpt><trkpt lat="40.67709838634869" lon="15.040578881829326"><ele>356.25</ele><time>2026-05-02T09:04:04.857Z</time></trkpt><trkpt lat="40.67704126092055" lon="15.040446146018935"><ele>353.5</ele><time>2026-05-02T09:04:06.857Z</time></trkpt><trkpt lat="40.67699444715685" lon="15.04027748059373"><ele>350.75</ele><time>2026-05-02T09:04:08.857Z</time></trkpt><trkpt lat="40.676933658234375" lon="15.040151504774375"><ele>348.0</ele><time>2026-05-02T09:04:10.857Z</time></trkpt><trkpt lat="40.67683432645809" lon="15.040049586015517"><ele>348.0</ele><time>2026-05-02T09:04:12.857Z</time></trkpt><trkpt lat="40.676737782322064" lon="15.0399713267897"><ele>348.0</ele><time>2026-05-02T09:04:14.857Z</time></trkpt><trkpt lat="40.67668247652237" lon="15.039921609025729"><ele>348.0</ele><time>2026-05-02T09:04:15.857Z</time></trkpt><trkpt lat="40.676627783987904" lon="15.039863780654334"><ele>348.0</ele><time>2026-05-02T09:04:16.857Z</time></trkpt><trkpt lat="40.67653245192628" lon="15.039772780782268"><ele>348.0</ele><time>2026-05-02T09:04:18.856Z</time></trkpt><trkpt lat="40.676468326814586" lon="15.039724849586518"><ele>348.0</ele><time>2026-05-02T09:04:20.856Z</time></trkpt><trkpt lat="40.67644349749385" lon="15.039625404596974"><ele>352.4</ele><time>2026-05-02T09:04:22.856Z</time></trkpt><trkpt lat="40.67645164946367" lon="15.039497956817915"><ele>356.79999999999995</ele><time>2026-05-02T09:04:24.856Z</time></trkpt><trkpt lat="40.67644615500138" lon="15.039368246003962"><ele>361.2</ele><time>2026-05-02T09:04:26.856Z</time></trkpt><trkpt lat="40.67641379008231" lon="15.039229493548152"><ele>365.6</ele><time>2026-05-02T09:04:28.856Z</time></trkpt><trkpt lat="40.67637102066866" lon="15.039100284831143"><ele>370.0</ele><time>2026-05-02T09:04:30.856Z</time></trkpt><trkpt lat="40.67632363017899" lon="15.03897843101053"><ele>373.0</ele><time>2026-05-02T09:04:32.859Z</time></trkpt><trkpt lat="40.676309562321705" lon="15.038890541278455"><ele>376.0</ele><time>2026-05-02T09:04:33.859Z</time></trkpt><trkpt lat="40.67630411787266" lon="15.038758452112495"><ele>379.0</ele><time>2026-05-02T09:04:35.859Z</time></trkpt><trkpt lat="40.67630145056004" lon="15.03864371126952"><ele>382.0</ele><time>2026-05-02T09:04:37.859Z</time></trkpt><trkpt lat="40.676300510510785" lon="15.038535239438065"><ele>385.00000000000006</ele><time>2026-05-02T09:04:39.859Z</time></trkpt><trkpt lat="40.67629012494102" lon="15.038394497810103"><ele>388.0</ele><time>2026-05-02T09:04:41.859Z</time></trkpt><trkpt lat="40.67625845752046" lon="15.038254340353527"><ele>385.79999999999995</ele><time>2026-05-02T09:04:43.858Z</time></trkpt><trkpt lat="40.676185717228584" lon="15.03814738023058"><ele>383.6</ele><time>2026-05-02T09:04:45.859Z</time></trkpt><trkpt lat="40.6760856519123" lon="15.038100410668065"><ele>381.4</ele><time>2026-05-02T09:04:48.859Z</time></trkpt><trkpt lat="40.67597482661109" lon="15.038073241793137"><ele>379.20000000000005</ele><time>2026-05-02T09:04:50.859Z</time></trkpt><trkpt lat="40.67588250170882" lon="15.038123359491278"><ele>377.0</ele><time>2026-05-02T09:04:52.859Z</time></trkpt><trkpt lat="40.6757882525085" lon="15.03811320181599"><ele>377.0</ele><time>2026-05-02T09:04:54.858Z</time></trkpt><trkpt lat="40.6757015979446" lon="15.038078411128788"><ele>377.0</ele><time>2026-05-02T09:04:56.858Z</time></trkpt><trkpt lat="40.67563058594476" lon="15.037989927655612"><ele>377.0</ele><time>2026-05-02T09:04:58.858Z</time></trkpt><trkpt lat="40.67553146827873" lon="15.03789563983994"><ele>377.0</ele><time>2026-05-02T09:05:00.858Z</time></trkpt><trkpt lat="40.6754828067703" lon="15.037834173421208"><ele>377.0</ele><time>2026-05-02T09:05:01.858Z</time></trkpt><trkpt lat="40.67544147439624" lon="15.037768161604953"><ele>377.0</ele><time>2026-05-02T09:05:02.858Z</time></trkpt><trkpt lat="40.67537755751781" lon="15.037633502801267"><ele>377.0</ele><time>2026-05-02T09:05:04.858Z</time></trkpt><trkpt lat="40.67533827047645" lon="15.03748706306684"><ele>377.0</ele><time>2026-05-02T09:05:06.858Z</time></trkpt><trkpt lat="40.67531990790471" lon="15.037343573152203"><ele>377.0</ele><time>2026-05-02T09:05:08.858Z</time></trkpt><trkpt lat="40.67529950714561" lon="15.037193573217545"><ele>377.0</ele><time>2026-05-02T09:05:10.858Z</time></trkpt><trkpt lat="40.675226846059715" lon="15.037065431614772"><ele>374.40000000000003</ele><time>2026-05-02T09:05:12.858Z</time></trkpt><trkpt lat="40.67514930780654" lon="15.0369539256253"><ele>371.8</ele><time>2026-05-02T09:05:14.857Z</time></trkpt><trkpt lat="40.67509632252232" lon="15.036892590287648"><ele>369.2</ele><time>2026-05-02T09:05:15.857Z</time></trkpt><trkpt lat="40.675045496757264" lon="15.03684283260994"><ele>366.6</ele><time>2026-05-02T09:05:16.857Z</time></trkpt><trkpt lat="40.6749403091172" lon="15.036771111552651"><ele>364.0</ele><time>2026-05-02T09:05:18.857Z</time></trkpt><trkpt lat="40.67486467003257" lon="15.036702852932027"><ele>370.0</ele><time>2026-05-02T09:05:20.857Z</time></trkpt><trkpt lat="40.674827717799275" lon="15.036582365833155"><ele>376.0</ele><time>2026-05-02T09:05:22.857Z</time></trkpt><trkpt lat="40.67483011262091" lon="15.0364349107072"><ele>382.0</ele><time>2026-05-02T09:05:24.857Z</time></trkpt><trkpt lat="40.67483472063476" lon="15.036278634496194"><ele>388.0</ele><time>2026-05-02T09:05:26.857Z</time></trkpt><trkpt lat="40.67479350192719" lon="15.036130814472253"><ele>394.0</ele><time>2026-05-02T09:05:28.857Z</time></trkpt><trkpt lat="40.674745172725494" lon="15.036045046345695"><ele>394.00000000000006</ele><time>2026-05-02T09:05:29.857Z</time></trkpt><trkpt lat="40.67470810165003" lon="15.035958948733132"><ele>394.0</ele><time>2026-05-02T09:05:30.857Z</time></trkpt><trkpt lat="40.674672898355766" lon="15.035879601635681"><ele>394.0</ele><time>2026-05-02T09:05:31.857Z</time></trkpt><trkpt lat="40.67463129119315" lon="15.035796687261909"><ele>394.0</ele><time>2026-05-02T09:05:32.857Z</time></trkpt><trkpt lat="40.67458842039273" lon="15.035717297664764"><ele>394.00000000000006</ele><time>2026-05-02T09:05:33.857Z</time></trkpt><trkpt lat="40.67450444817095" lon="15.035640561256491"><ele>394.0</ele><time>2026-05-02T09:05:35.856Z</time></trkpt><trkpt lat="40.67441827004504" lon="15.035591207618708"><ele>390.50000000000006</ele><time>2026-05-02T09:05:37.856Z</time></trkpt><trkpt lat="40.674335391524494" lon="15.035562384354645"><ele>387.0</ele><time>2026-05-02T09:05:39.856Z</time></trkpt><trkpt lat="40.674244487366195" lon="15.035530807044934"><ele>383.5</ele><time>2026-05-02T09:05:41.856Z</time></trkpt><trkpt lat="40.67421133295812" lon="15.035442163205124"><ele>380.0</ele><time>2026-05-02T09:05:43.856Z</time></trkpt><trkpt lat="40.67420434042458" lon="15.03532799374525"><ele>376.5</ele><time>2026-05-02T09:05:45.856Z</time></trkpt><trkpt lat="40.67421134656241" lon="15.03522206867272"><ele>373.0</ele><time>2026-05-02T09:05:47.856Z</time></trkpt><trkpt lat="40.67419074230441" lon="15.035133081131683"><ele>373.0</ele><time>2026-05-02T09:05:49.856Z</time></trkpt><trkpt lat="40.674134417377346" lon="15.03506740784517"><ele>373.0</ele><time>2026-05-02T09:05:51.856Z</time></trkpt><trkpt lat="40.67406631449128" lon="15.03499154801362"><ele>373.0</ele><time>2026-05-02T09:05:53.856Z</time></trkpt><trkpt lat="40.67403169952925" lon="15.034866082291838"><ele>373.0</ele><time>2026-05-02T09:05:55.855Z</time></trkpt><trkpt lat="40.67401423866923" lon="15.034764620291428"><ele>373.0</ele><time>2026-05-02T09:05:57.855Z</time></trkpt><trkpt lat="40.67404725662205" lon="15.034677145244112"><ele>373.0</ele><time>2026-05-02T09:05:59.855Z</time></trkpt><trkpt lat="40.674106944775666" lon="15.034599833898708"><ele>375.2</ele><time>2026-05-02T09:06:01.855Z</time></trkpt><trkpt lat="40.674154534867675" lon="15.034505707147119"><ele>377.4</ele><time>2026-05-02T09:06:03.855Z</time></trkpt><trkpt lat="40.67419640866061" lon="15.03440311260379"><ele>379.59999999999997</ele><time>2026-05-02T09:06:05.855Z</time></trkpt><trkpt lat="40.67425672133474" lon="15.034284480827443"><ele>381.79999999999995</ele><time>2026-05-02T09:06:07.855Z</time></trkpt><trkpt lat="40.67431305630217" lon="15.034174838077192"><ele>384.0</ele><time>2026-05-02T09:06:09.855Z</time></trkpt><trkpt lat="40.67434034237025" lon="15.034064352290038"><ele>385.99999999999994</ele><time>2026-05-02T09:06:11.855Z</time></trkpt><trkpt lat="40.67432216744958" lon="15.033977010791714"><ele>388.0</ele><time>2026-05-02T09:06:13.855Z</time></trkpt><trkpt lat="40.674288756843666" lon="15.033902189854588"><ele>390.0</ele><time>2026-05-02T09:06:15.854Z</time></trkpt><trkpt lat="40.67423125968943" lon="15.03385268358878"><ele>392.0</ele><time>2026-05-02T09:06:19.854Z</time></trkpt><trkpt lat="40.674190771934676" lon="15.03377956078676"><ele>394.0</ele><time>2026-05-02T09:06:21.854Z</time></trkpt><trkpt lat="40.674174603187595" lon="15.033678422093143"><ele>395.99999999999994</ele><time>2026-05-02T09:06:23.854Z</time></trkpt><trkpt lat="40.67414791932522" lon="15.033559741043973"><ele>398.0</ele><time>2026-05-02T09:06:25.854Z</time></trkpt><trkpt lat="40.67412635834179" lon="15.033428456860367"><ele>401.59999999999997</ele><time>2026-05-02T09:06:27.854Z</time></trkpt><trkpt lat="40.674115977173926" lon="15.033301014017697"><ele>405.2</ele><time>2026-05-02T09:06:29.854Z</time></trkpt><trkpt lat="40.6741079298856" lon="15.033179659798233"><ele>408.8</ele><time>2026-05-02T09:06:31.854Z</time></trkpt><trkpt lat="40.674113874933326" lon="15.033039009472647"><ele>412.4</ele><time>2026-05-02T09:06:33.854Z</time></trkpt><trkpt lat="40.674122499763456" lon="15.032907085216936"><ele>416.0</ele><time>2026-05-02T09:06:35.853Z</time></trkpt><trkpt lat="40.674139740005934" lon="15.032810858895978"><ele>415.99999999999994</ele><time>2026-05-02T09:06:37.856Z</time></trkpt><trkpt lat="40.67412840702731" lon="15.032713895977688"><ele>416.0</ele><time>2026-05-02T09:06:39.856Z</time></trkpt><trkpt lat="40.674069875538365" lon="15.032657846688727"><ele>416.0</ele><time>2026-05-02T09:06:41.856Z</time></trkpt><trkpt lat="40.673991728055725" lon="15.032649968241069"><ele>416.0</ele><time>2026-05-02T09:06:43.856Z</time></trkpt><trkpt lat="40.673904981960455" lon="15.032684868793792"><ele>415.99999999999994</ele><time>2026-05-02T09:06:45.856Z</time></trkpt><trkpt lat="40.67383439673755" lon="15.032701865947002"><ele>416.0</ele><time>2026-05-02T09:06:47.856Z</time></trkpt><trkpt lat="40.67376661903273" lon="15.032684832810268"><ele>416.0</ele><time>2026-05-02T09:06:49.856Z</time></trkpt><trkpt lat="40.67367483178471" lon="15.032610503997224"><ele>416.0</ele><time>2026-05-02T09:06:51.856Z</time></trkpt><trkpt lat="40.67356381705528" lon="15.03256119458255"><ele>416.0</ele><time>2026-05-02T09:06:53.856Z</time></trkpt><trkpt lat="40.67347721830127" lon="15.032513302586478"><ele>416.0</ele><time>2026-05-02T09:06:55.856Z</time></trkpt><trkpt lat="40.673385489123774" lon="15.032421809463612"><ele>416.0</ele><time>2026-05-02T09:06:57.856Z</time></trkpt><trkpt lat="40.67330356903022" lon="15.032353106194376"><ele>415.8333333333333</ele><time>2026-05-02T09:06:59.856Z</time></trkpt><trkpt lat="40.673231566734835" lon="15.032330993157002"><ele>415.66666666666663</ele><time>2026-05-02T09:07:01.855Z</time></trkpt><trkpt lat="40.6731578635561" lon="15.03238419718394"><ele>415.5</ele><time>2026-05-02T09:07:03.855Z</time></trkpt><trkpt lat="40.67309743942419" lon="15.032490895676998"><ele>415.33333333333337</ele><time>2026-05-02T09:07:06.855Z</time></trkpt><trkpt lat="40.67303852488047" lon="15.032621376724157"><ele>415.1666666666667</ele><time>2026-05-02T09:07:08.855Z</time></trkpt><trkpt lat="40.672995228293495" lon="15.03268373946591"><ele>415.0</ele><time>2026-05-02T09:07:09.855Z</time></trkpt><trkpt lat="40.6729369573337" lon="15.0327301306905"><ele>415.00000000000006</ele><time>2026-05-02T09:07:10.855Z</time></trkpt><trkpt lat="40.67287576645145" lon="15.032775647684629"><ele>415.0</ele><time>2026-05-02T09:07:11.855Z</time></trkpt><trkpt lat="40.67281627058828" lon="15.032815542230725"><ele>415.0</ele><time>2026-05-02T09:07:12.855Z</time></trkpt><trkpt lat="40.672706297389475" lon="15.032866329546204"><ele>415.0</ele><time>2026-05-02T09:07:14.855Z</time></trkpt><trkpt lat="40.67259101200244" lon="15.032861741415415"><ele>415.00000000000006</ele><time>2026-05-02T09:07:16.855Z</time></trkpt><trkpt lat="40.672517031718534" lon="15.032828359044471"><ele>415.0</ele><time>2026-05-02T09:07:18.855Z</time></trkpt><trkpt lat="40.67242065583197" lon="15.032764313896525"><ele>417.6666666666667</ele><time>2026-05-02T09:07:20.855Z</time></trkpt><trkpt lat="40.67233996574349" lon="15.032695394051986"><ele>420.33333333333337</ele><time>2026-05-02T09:07:22.854Z</time></trkpt><trkpt lat="40.67223722900175" lon="15.032643360670924"><ele>423.0</ele><time>2026-05-02T09:07:24.854Z</time></trkpt><trkpt lat="40.67217398866243" lon="15.03266106828072"><ele>425.66666666666663</ele><time>2026-05-02T09:07:25.854Z</time></trkpt><trkpt lat="40.672098845813416" lon="15.032664681088102"><ele>428.3333333333333</ele><time>2026-05-02T09:07:27.854Z</time></trkpt><trkpt lat="40.672037071502444" lon="15.032599960901283"><ele>431.0</ele><time>2026-05-02T09:07:30.854Z</time></trkpt><trkpt lat="40.67209068120251" lon="15.03253188142605"><ele>431.0</ele><time>2026-05-02T09:07:34.854Z</time></trkpt><trkpt lat="40.67220024989579" lon="15.032536433051526"><ele>431.0</ele><time>2026-05-02T09:07:36.854Z</time></trkpt><trkpt lat="40.67232460882247" lon="15.032533182077872"><ele>431.0</ele><time>2026-05-02T09:07:38.854Z</time></trkpt><trkpt lat="40.672393313710366" lon="15.03253582026208"><ele>431.0</ele><time>2026-05-02T09:07:39.854Z</time></trkpt><trkpt lat="40.672488267881796" lon="15.032536988593316"><ele>431.0</ele><time>2026-05-02T09:07:41.854Z</time></trkpt><trkpt lat="40.672571810867005" lon="15.032522668925123"><ele>435.0</ele><time>2026-05-02T09:07:43.853Z</time></trkpt><trkpt lat="40.67266212421285" lon="15.032467943871048"><ele>439.0</ele><time>2026-05-02T09:07:45.853Z</time></trkpt><trkpt lat="40.672715464864744" lon="15.032416073144923"><ele>443.0</ele><time>2026-05-02T09:07:46.853Z</time></trkpt><trkpt lat="40.67280101975297" lon="15.032324514527158"><ele>447.0</ele><time>2026-05-02T09:07:48.853Z</time></trkpt><trkpt lat="40.67285730312079" lon="15.032230139889272"><ele>451.0</ele><time>2026-05-02T09:07:50.853Z</time></trkpt><trkpt lat="40.672919764787444" lon="15.032114491664519"><ele>451.00000000000006</ele><time>2026-05-02T09:07:52.853Z</time></trkpt><trkpt lat="40.672947357720524" lon="15.032034454290468"><ele>451.0</ele><time>2026-05-02T09:07:53.853Z</time></trkpt><trkpt lat="40.67297043528995" lon="15.031950531815905"><ele>451.0</ele><time>2026-05-02T09:07:54.853Z</time></trkpt><trkpt lat="40.67300169250903" lon="15.031841229668968"><ele>451.0</ele><time>2026-05-02T09:07:56.853Z</time></trkpt><trkpt lat="40.67307225796743" lon="15.031783653178813"><ele>451.00000000000006</ele><time>2026-05-02T09:07:58.853Z</time></trkpt><trkpt lat="40.673209275604144" lon="15.03178921366288"><ele>451.0</ele><time>2026-05-02T09:08:00.853Z</time></trkpt><trkpt lat="40.6732732411839" lon="15.03181615289651"><ele>451.0</ele><time>2026-05-02T09:08:01.853Z</time></trkpt><trkpt lat="40.67339249025239" lon="15.031839634121923"><ele>451.0</ele><time>2026-05-02T09:08:03.852Z</time></trkpt><trkpt lat="40.6735078071375" lon="15.031832633898974"><ele>451.0</ele><time>2026-05-02T09:08:05.852Z</time></trkpt><trkpt lat="40.67360733753628" lon="15.031798880256465"><ele>451.0</ele><time>2026-05-02T09:08:07.852Z</time></trkpt><trkpt lat="40.673712385554914" lon="15.031770739127921"><ele>451.0</ele><time>2026-05-02T09:08:09.852Z</time></trkpt><trkpt lat="40.67382323987801" lon="15.031716292251897"><ele>453.6</ele><time>2026-05-02T09:08:11.852Z</time></trkpt><trkpt lat="40.673903389552024" lon="15.031611138495823"><ele>456.20000000000005</ele><time>2026-05-02T09:08:13.852Z</time></trkpt><trkpt lat="40.67397668271279" lon="15.031507391816575"><ele>458.79999999999995</ele><time>2026-05-02T09:08:15.852Z</time></trkpt><trkpt lat="40.67403746723996" lon="15.031412928278389"><ele>461.4</ele><time>2026-05-02T09:08:17.852Z</time></trkpt><trkpt lat="40.67409623455512" lon="15.031331129057481"><ele>464.0</ele><time>2026-05-02T09:08:19.852Z</time></trkpt><trkpt lat="40.67416978182504" lon="15.03121526464367"><ele>463.99999999999994</ele><time>2026-05-02T09:08:21.852Z</time></trkpt><trkpt lat="40.67421519884581" lon="15.031143228043808"><ele>464.0</ele><time>2026-05-02T09:08:22.852Z</time></trkpt><trkpt lat="40.6742610040415" lon="15.031071486798643"><ele>464.0</ele><time>2026-05-02T09:08:23.851Z</time></trkpt><trkpt lat="40.67430646602106" lon="15.031011898752242"><ele>464.0</ele><time>2026-05-02T09:08:24.851Z</time></trkpt><trkpt lat="40.67435101248871" lon="15.030949873184829"><ele>463.99999999999994</ele><time>2026-05-02T09:08:25.851Z</time></trkpt><trkpt lat="40.6744213141758" lon="15.030814325661444"><ele>464.0</ele><time>2026-05-02T09:08:27.851Z</time></trkpt><trkpt lat="40.674472324667946" lon="15.030670397037415"><ele>463.4</ele><time>2026-05-02T09:08:29.851Z</time></trkpt><trkpt lat="40.67449770766518" lon="15.030517904258621"><ele>462.79999999999995</ele><time>2026-05-02T09:08:31.851Z</time></trkpt><trkpt lat="40.674540618099236" lon="15.030401395947019"><ele>462.20000000000005</ele><time>2026-05-02T09:08:33.851Z</time></trkpt><trkpt lat="40.67462075885064" lon="15.030303946836325"><ele>461.6</ele><time>2026-05-02T09:08:35.851Z</time></trkpt><trkpt lat="40.67467019552853" lon="15.030169798095029"><ele>461.0</ele><time>2026-05-02T09:08:37.851Z</time></trkpt><trkpt lat="40.67469546500598" lon="15.030073384827968"><ele>460.99999999999994</ele><time>2026-05-02T09:08:38.851Z</time></trkpt><trkpt lat="40.674713775562545" lon="15.029993239756909"><ele>461.0</ele><time>2026-05-02T09:08:39.851Z</time></trkpt><trkpt lat="40.67475010154702" lon="15.02984581570939"><ele>461.0</ele><time>2026-05-02T09:08:41.851Z</time></trkpt><trkpt lat="40.67479653930342" lon="15.029700935367899"><ele>461.0</ele><time>2026-05-02T09:08:43.853Z</time></trkpt><trkpt lat="40.67480897923593" lon="15.029618975511148"><ele>460.99999999999994</ele><time>2026-05-02T09:08:44.853Z</time></trkpt><trkpt lat="40.67482146765069" lon="15.029525532027165"><ele>461.0</ele><time>2026-05-02T09:08:45.853Z</time></trkpt><trkpt lat="40.674858462638134" lon="15.029373374219743"><ele>462.99999999999994</ele><time>2026-05-02T09:08:47.853Z</time></trkpt><trkpt lat="40.67488217007977" lon="15.02926046979095"><ele>465.0</ele><time>2026-05-02T09:08:49.853Z</time></trkpt><trkpt lat="40.67494913148915" lon="15.02915022625132"><ele>467.0</ele><time>2026-05-02T09:08:51.853Z</time></trkpt><trkpt lat="40.67497596140981" lon="15.029066335671063"><ele>469.0</ele><time>2026-05-02T09:08:52.853Z</time></trkpt><trkpt lat="40.67500378489776" lon="15.028981768201351"><ele>470.99999999999994</ele><time>2026-05-02T09:08:53.852Z</time></trkpt><trkpt lat="40.675032213155596" lon="15.028901681619816"><ele>473.0</ele><time>2026-05-02T09:08:54.853Z</time></trkpt><trkpt lat="40.675096950760825" lon="15.028785814641058"><ele>474.66666666666663</ele><time>2026-05-02T09:08:56.853Z</time></trkpt><trkpt lat="40.67515548549377" lon="15.028692188770366"><ele>476.3333333333333</ele><time>2026-05-02T09:08:58.852Z</time></trkpt><trkpt lat="40.67524289024016" lon="15.028606204352206"><ele>478.0</ele><time>2026-05-02T09:09:00.852Z</time></trkpt><trkpt lat="40.675314456120205" lon="15.02853279938202"><ele>479.66666666666663</ele><time>2026-05-02T09:09:02.852Z</time></trkpt><trkpt lat="40.67537762549211" lon="15.028483391504645"><ele>481.3333333333333</ele><time>2026-05-02T09:09:04.852Z</time></trkpt><trkpt lat="40.67540564599983" lon="15.028405406109488"><ele>483.0</ele><time>2026-05-02T09:09:06.852Z</time></trkpt><trkpt lat="40.67537258542939" lon="15.028323788143801"><ele>483.0</ele><time>2026-05-02T09:10:19.871Z</time></trkpt><trkpt lat="40.67534666173423" lon="15.028405880958353"><ele>483.0</ele><time>2026-05-02T09:10:24.87Z</time></trkpt><trkpt lat="40.6752944631105" lon="15.02849599021234"><ele>483.0</ele><time>2026-05-02T09:10:28.87Z</time></trkpt><trkpt lat="40.675216770543585" lon="15.02851654349201"><ele>483.0</ele><time>2026-05-02T09:10:31.87Z</time></trkpt><trkpt lat="40.67520981495814" lon="15.028614304437452"><ele>483.0</ele><time>2026-05-02T09:23:53.826Z</time></trkpt><trkpt lat="40.67529080154649" lon="15.028643065668188"><ele>483.0</ele><time>2026-05-02T09:23:57.825Z</time></trkpt><trkpt lat="40.67534373760096" lon="15.028586997890413"><ele>483.0</ele><time>2026-05-02T09:23:59.825Z</time></trkpt><trkpt lat="40.67538014203988" lon="15.028506019367708"><ele>483.0</ele><time>2026-05-02T09:24:01.825Z</time></trkpt><trkpt lat="40.67539342220864" lon="15.028417105728483"><ele>483.0</ele><time>2026-05-02T09:24:03.825Z</time></trkpt><trkpt lat="40.675383738017516" lon="15.02831391136853"><ele>483.0</ele><time>2026-05-02T09:24:05.825Z</time></trkpt><trkpt lat="40.675356824881405" lon="15.02818676913976"><ele>483.0</ele><time>2026-05-02T09:24:07.825Z</time></trkpt><trkpt lat="40.67533208590478" lon="15.028049989624455"><ele>483.0</ele><time>2026-05-02T09:24:09.825Z</time></trkpt><trkpt lat="40.675292240955024" lon="15.027905759777978"><ele>481.1666666666667</ele><time>2026-05-02T09:24:11.825Z</time></trkpt><trkpt lat="40.675266358098014" lon="15.02782975385178"><ele>479.33333333333337</ele><time>2026-05-02T09:24:12.825Z</time></trkpt><trkpt lat="40.675217080158525" lon="15.027727691135832"><ele>477.5</ele><time>2026-05-02T09:24:13.825Z</time></trkpt><trkpt lat="40.6751675980561" lon="15.027648980220317"><ele>475.6666666666667</ele><time>2026-05-02T09:24:14.825Z</time></trkpt><trkpt lat="40.6751106653554" lon="15.02754800387475"><ele>473.83333333333337</ele><time>2026-05-02T09:24:15.825Z</time></trkpt><trkpt lat="40.67503635733852" lon="15.027460823933385"><ele>472.0</ele><time>2026-05-02T09:24:16.825Z</time></trkpt><trkpt lat="40.674970357329364" lon="15.027385722078748"><ele>469.50000000000006</ele><time>2026-05-02T09:24:17.824Z</time></trkpt><trkpt lat="40.674910230874595" lon="15.027313720244335"><ele>467.0</ele><time>2026-05-02T09:24:18.824Z</time></trkpt><trkpt lat="40.67485561146602" lon="15.027238085957675"><ele>464.5</ele><time>2026-05-02T09:24:19.824Z</time></trkpt><trkpt lat="40.674805692161485" lon="15.027159233824625"><ele>462.0</ele><time>2026-05-02T09:24:20.824Z</time></trkpt><trkpt lat="40.67475843485068" lon="15.027075874395397"><ele>459.50000000000006</ele><time>2026-05-02T09:24:21.824Z</time></trkpt><trkpt lat="40.67471536995211" lon="15.026991700688923"><ele>457.0</ele><time>2026-05-02T09:24:22.824Z</time></trkpt><trkpt lat="40.67467410278205" lon="15.02690944299908"><ele>457.00000000000006</ele><time>2026-05-02T09:24:23.824Z</time></trkpt><trkpt lat="40.674629380009065" lon="15.026826882373232"><ele>457.0</ele><time>2026-05-02T09:24:24.824Z</time></trkpt><trkpt lat="40.6745721573948" lon="15.026752690607063"><ele>457.0</ele><time>2026-05-02T09:24:25.824Z</time></trkpt><trkpt lat="40.6745218281071" lon="15.026697097085327"><ele>457.0</ele><time>2026-05-02T09:24:26.824Z</time></trkpt><trkpt lat="40.67444919704022" lon="15.026597245569654"><ele>457.00000000000006</ele><time>2026-05-02T09:24:28.824Z</time></trkpt><trkpt lat="40.67443141029686" lon="15.02649499842777"><ele>457.0</ele><time>2026-05-02T09:24:30.824Z</time></trkpt><trkpt lat="40.67442935830931" lon="15.026407057423212"><ele>456.00000000000006</ele><time>2026-05-02T09:24:31.824Z</time></trkpt><trkpt lat="40.67443149992178" lon="15.026318372864662"><ele>455.0</ele><time>2026-05-02T09:24:32.824Z</time></trkpt><trkpt lat="40.67443438123873" lon="15.026223309552291"><ele>454.00000000000006</ele><time>2026-05-02T09:24:33.824Z</time></trkpt><trkpt lat="40.67443313301552" lon="15.026128140141418"><ele>453.00000000000006</ele><time>2026-05-02T09:24:34.824Z</time></trkpt><trkpt lat="40.674429313249654" lon="15.026033240813938"><ele>452.0</ele><time>2026-05-02T09:24:35.824Z</time></trkpt><trkpt lat="40.67442516583292" lon="15.025930201216466"><ele>451.00000000000006</ele><time>2026-05-02T09:24:36.823Z</time></trkpt><trkpt lat="40.67442110033919" lon="15.025829196938764"><ele>450.00000000000006</ele><time>2026-05-02T09:24:37.823Z</time></trkpt><trkpt lat="40.67441873552987" lon="15.025741683753742"><ele>445.4</ele><time>2026-05-02T09:24:38.823Z</time></trkpt><trkpt lat="40.67441031017901" lon="15.02557059588789"><ele>440.8</ele><time>2026-05-02T09:24:40.823Z</time></trkpt><trkpt lat="40.67436433816993" lon="15.025435282136774"><ele>436.20000000000005</ele><time>2026-05-02T09:24:42.823Z</time></trkpt><trkpt lat="40.674304671964954" lon="15.025331609083308"><ele>431.6</ele><time>2026-05-02T09:24:44.823Z</time></trkpt><trkpt lat="40.6743240582685" lon="15.025236877762973"><ele>427.0</ele><time>2026-05-02T09:24:46.823Z</time></trkpt><trkpt lat="40.6743908182462" lon="15.025172488745527"><ele>424.50000000000006</ele><time>2026-05-02T09:24:48.823Z</time></trkpt><trkpt lat="40.674488182729924" lon="15.025191453905531"><ele>422.0</ele><time>2026-05-02T09:24:50.823Z</time></trkpt><trkpt lat="40.67453634840484" lon="15.025254617728407"><ele>419.5</ele><time>2026-05-02T09:24:51.823Z</time></trkpt><trkpt lat="40.67458017145136" lon="15.025326266460103"><ele>417.0</ele><time>2026-05-02T09:24:52.823Z</time></trkpt><trkpt lat="40.674617648785386" lon="15.025415698993989"><ele>414.50000000000006</ele><time>2026-05-02T09:24:53.823Z</time></trkpt><trkpt lat="40.67464765999138" lon="15.025510647854167"><ele>412.0</ele><time>2026-05-02T09:24:54.823Z</time></trkpt><trkpt lat="40.67468825697316" lon="15.025647826212468"><ele>412.0</ele><time>2026-05-02T09:24:56.822Z</time></trkpt><trkpt lat="40.674733155254046" lon="15.02571966825275"><ele>412.0</ele><time>2026-05-02T09:24:58.822Z</time></trkpt><trkpt lat="40.674818400865426" lon="15.025741463922838"><ele>412.0</ele><time>2026-05-02T09:25:00.822Z</time></trkpt><trkpt lat="40.674857775287" lon="15.025655783173116"><ele>412.0</ele><time>2026-05-02T09:25:01.822Z</time></trkpt><trkpt lat="40.67484992769609" lon="15.025526542895776"><ele>412.0</ele><time>2026-05-02T09:25:03.822Z</time></trkpt><trkpt lat="40.67477480371149" lon="15.025391778355672"><ele>412.0</ele><time>2026-05-02T09:25:06.822Z</time></trkpt><trkpt lat="40.674774495011086" lon="15.02527396636979"><ele>412.0</ele><time>2026-05-02T09:25:08.822Z</time></trkpt><trkpt lat="40.67476634770502" lon="15.025133729120025"><ele>412.0</ele><time>2026-05-02T09:25:10.822Z</time></trkpt><trkpt lat="40.6747191572074" lon="15.024989345074637"><ele>412.0</ele><time>2026-05-02T09:25:12.822Z</time></trkpt><trkpt lat="40.67467044419329" lon="15.024927287892131"><ele>412.0</ele><time>2026-05-02T09:25:13.822Z</time></trkpt><trkpt lat="40.6746171051163" lon="15.024865970727527"><ele>411.00000000000006</ele><time>2026-05-02T09:25:14.822Z</time></trkpt><trkpt lat="40.67455047526899" lon="15.024845744095305"><ele>410.0</ele><time>2026-05-02T09:25:15.822Z</time></trkpt><trkpt lat="40.67445972953227" lon="15.024767674680252"><ele>409.0</ele><time>2026-05-02T09:25:17.821Z</time></trkpt><trkpt lat="40.67440536721271" lon="15.024710776381298"><ele>408.0</ele><time>2026-05-02T09:25:19.821Z</time></trkpt><trkpt lat="40.674450321381755" lon="15.024632878201068"><ele>407.00000000000006</ele><time>2026-05-02T09:25:22.821Z</time></trkpt><trkpt lat="40.67453195280454" lon="15.024691811871358"><ele>406.0</ele><time>2026-05-02T09:25:24.821Z</time></trkpt><trkpt lat="40.674627400327694" lon="15.024770974327804"><ele>404.0</ele><time>2026-05-02T09:25:26.821Z</time></trkpt><trkpt lat="40.674688814649485" lon="15.024821013966182"><ele>402.0</ele><time>2026-05-02T09:25:27.821Z</time></trkpt><trkpt lat="40.67480602850906" lon="15.024858699686776"><ele>400.0</ele><time>2026-05-02T09:25:29.823Z</time></trkpt><trkpt lat="40.67491210301156" lon="15.024847345950688"><ele>398.0</ele><time>2026-05-02T09:25:31.823Z</time></trkpt><trkpt lat="40.675010626601555" lon="15.02481443658573"><ele>396.0</ele><time>2026-05-02T09:25:33.823Z</time></trkpt><trkpt lat="40.675117132181576" lon="15.02472794419674"><ele>396.0</ele><time>2026-05-02T09:25:35.824Z</time></trkpt><trkpt lat="40.67516801432204" lon="15.024664917374409"><ele>396.0</ele><time>2026-05-02T09:25:36.824Z</time></trkpt><trkpt lat="40.675202911416406" lon="15.024592403272072"><ele>396.0</ele><time>2026-05-02T09:25:37.824Z</time></trkpt><trkpt lat="40.67523908066446" lon="15.024480317413389"><ele>396.0</ele><time>2026-05-02T09:25:39.823Z</time></trkpt><trkpt lat="40.67527700996657" lon="15.024397022242319"><ele>396.0</ele><time>2026-05-02T09:25:41.823Z</time></trkpt><trkpt lat="40.67533517290624" lon="15.024348023277014"><ele>396.0</ele><time>2026-05-02T09:25:43.823Z</time></trkpt><trkpt lat="40.67538867171864" lon="15.02430112242287"><ele>396.0</ele><time>2026-05-02T09:25:46.823Z</time></trkpt><trkpt lat="40.67544143973668" lon="15.024254177579712"><ele>396.0</ele><time>2026-05-02T09:26:01.822Z</time></trkpt><trkpt lat="40.675514482851504" lon="15.02433401988388"><ele>396.0</ele><time>2026-05-02T09:26:04.822Z</time></trkpt><trkpt lat="40.67559570830193" lon="15.024470187489415"><ele>396.0</ele><time>2026-05-02T09:26:06.824Z</time></trkpt><trkpt lat="40.675667919008625" lon="15.02460075408196"><ele>396.0</ele><time>2026-05-02T09:26:08.827Z</time></trkpt><trkpt lat="40.67575350579885" lon="15.024727399940899"><ele>396.0</ele><time>2026-05-02T09:26:10.83Z</time></trkpt><trkpt lat="40.675800804136564" lon="15.024789683654213"><ele>396.0</ele><time>2026-05-02T09:26:11.831Z</time></trkpt><trkpt lat="40.67588686586206" lon="15.02484834388568"><ele>396.0</ele><time>2026-05-02T09:26:13.833Z</time></trkpt><trkpt lat="40.67594598729736" lon="15.02492661032109"><ele>396.0</ele><time>2026-05-02T09:26:15.835Z</time></trkpt><trkpt lat="40.67593460408159" lon="15.025033711616015"><ele>396.0</ele><time>2026-05-02T09:26:16.835Z</time></trkpt><trkpt lat="40.67597672018216" lon="15.025110711181396"><ele>396.0</ele><time>2026-05-02T09:26:17.836Z</time></trkpt><trkpt lat="40.67602347374813" lon="15.025178577102102"><ele>398.0</ele><time>2026-05-02T09:26:18.837Z</time></trkpt><trkpt lat="40.67606870980022" lon="15.025246056658764"><ele>400.0</ele><time>2026-05-02T09:26:19.838Z</time></trkpt><trkpt lat="40.67611837613592" lon="15.025320553337192"><ele>402.0</ele><time>2026-05-02T09:26:20.838Z</time></trkpt><trkpt lat="40.676132145941125" lon="15.025434911924764"><ele>404.0</ele><time>2026-05-02T09:26:21.839Z</time></trkpt><trkpt lat="40.67615979288033" lon="15.025550510034188"><ele>406.0</ele><time>2026-05-02T09:26:22.839Z</time></trkpt><trkpt lat="40.676161679768285" lon="15.025659724356846"><ele>408.0</ele><time>2026-05-02T09:26:23.84Z</time></trkpt><trkpt lat="40.67618655196477" lon="15.025738055663611"><ele>411.0</ele><time>2026-05-02T09:26:24.84Z</time></trkpt><trkpt lat="40.67625217530253" lon="15.02586722373657"><ele>414.0</ele><time>2026-05-02T09:26:26.841Z</time></trkpt><trkpt lat="40.676302324457936" lon="15.025942734483802"><ele>417.0</ele><time>2026-05-02T09:26:27.841Z</time></trkpt><trkpt lat="40.67638359969559" lon="15.02604965340428"><ele>420.0</ele><time>2026-05-02T09:26:29.842Z</time></trkpt><trkpt lat="40.676435902179975" lon="15.026103630249853"><ele>423.0</ele><time>2026-05-02T09:26:30.842Z</time></trkpt><trkpt lat="40.676519987190694" lon="15.026207993484999"><ele>423.0</ele><time>2026-05-02T09:26:32.843Z</time></trkpt><trkpt lat="40.67657577282742" lon="15.026259919104454"><ele>423.0</ele><time>2026-05-02T09:26:34.843Z</time></trkpt><trkpt lat="40.67662201611171" lon="15.02632914422465"><ele>423.0</ele><time>2026-05-02T09:26:36.844Z</time></trkpt><trkpt lat="40.67670404380853" lon="15.02636958095014"><ele>423.0</ele><time>2026-05-02T09:26:38.844Z</time></trkpt><trkpt lat="40.67678113982007" lon="15.026452095679794"><ele>423.0</ele><time>2026-05-02T09:26:40.844Z</time></trkpt><trkpt lat="40.6768411878126" lon="15.026482567909163"><ele>423.0</ele><time>2026-05-02T09:26:42.845Z</time></trkpt><trkpt lat="40.67690235972066" lon="15.026541566586149"><ele>423.0</ele><time>2026-05-02T09:26:44.845Z</time></trkpt><trkpt lat="40.6769348615528" lon="15.026623564117202"><ele>423.0</ele><time>2026-05-02T09:26:46.845Z</time></trkpt><trkpt lat="40.6769951912118" lon="15.026686886687155"><ele>423.0</ele><time>2026-05-02T09:26:48.845Z</time></trkpt><trkpt lat="40.677114857542975" lon="15.026649160952985"><ele>423.0</ele><time>2026-05-02T09:26:50.845Z</time></trkpt><trkpt lat="40.67717144268676" lon="15.026608876475116"><ele>423.0</ele><time>2026-05-02T09:26:51.845Z</time></trkpt><trkpt lat="40.67724396217426" lon="15.026563677032176"><ele>423.0</ele><time>2026-05-02T09:26:53.845Z</time></trkpt><trkpt lat="40.677366206689136" lon="15.026565690009198"><ele>423.4</ele><time>2026-05-02T09:26:55.845Z</time></trkpt><trkpt lat="40.677490860374064" lon="15.02652062879551"><ele>423.79999999999995</ele><time>2026-05-02T09:26:57.845Z</time></trkpt><trkpt lat="40.67755863230194" lon="15.026529341207231"><ele>424.2</ele><time>2026-05-02T09:26:58.845Z</time></trkpt><trkpt lat="40.67763066222132" lon="15.026560174142253"><ele>424.6</ele><time>2026-05-02T09:26:59.845Z</time></trkpt><trkpt lat="40.67774741719523" lon="15.02660368521529"><ele>425.0</ele><time>2026-05-02T09:27:01.845Z</time></trkpt><trkpt lat="40.67785449751577" lon="15.026688971784246"><ele>426.0</ele><time>2026-05-02T09:27:03.845Z</time></trkpt><trkpt lat="40.67789547828096" lon="15.026754595186137"><ele>427.0</ele><time>2026-05-02T09:27:04.845Z</time></trkpt><trkpt lat="40.67793845477147" lon="15.026838197760219"><ele>428.0</ele><time>2026-05-02T09:27:05.845Z</time></trkpt><trkpt lat="40.67798950185153" lon="15.026910909263657"><ele>429.0</ele><time>2026-05-02T09:27:06.845Z</time></trkpt><trkpt lat="40.6780301290139" lon="15.026996189320117"><ele>430.0</ele><time>2026-05-02T09:27:07.845Z</time></trkpt><trkpt lat="40.67807598556194" lon="15.02707447068536"><ele>431.0</ele><time>2026-05-02T09:27:08.845Z</time></trkpt><trkpt lat="40.67811499724656" lon="15.02714865115917"><ele>432.0</ele><time>2026-05-02T09:27:09.845Z</time></trkpt><trkpt lat="40.67816287683449" lon="15.02722998539549"><ele>432.0</ele><time>2026-05-02T09:27:10.845Z</time></trkpt><trkpt lat="40.678209924491036" lon="15.027300757844047"><ele>432.0</ele><time>2026-05-02T09:27:11.845Z</time></trkpt><trkpt lat="40.67825060481058" lon="15.027369989704928"><ele>432.0</ele><time>2026-05-02T09:27:12.845Z</time></trkpt><trkpt lat="40.67829444736556" lon="15.02743654332086"><ele>432.0</ele><time>2026-05-02T09:27:13.845Z</time></trkpt><trkpt lat="40.6783396487817" lon="15.02750713759935"><ele>432.0</ele><time>2026-05-02T09:27:14.845Z</time></trkpt><trkpt lat="40.67841592345784" lon="15.027626408809176"><ele>432.0</ele><time>2026-05-02T09:27:16.845Z</time></trkpt><trkpt lat="40.67848145262985" lon="15.02772140034789"><ele>432.0</ele><time>2026-05-02T09:27:18.845Z</time></trkpt><trkpt lat="40.678608971227725" lon="15.027677470771751"><ele>432.00000000000006</ele><time>2026-05-02T09:27:24.845Z</time></trkpt><trkpt lat="40.67859713890143" lon="15.027477702869856"><ele>432.00000000000006</ele><time>2026-05-02T09:27:26.845Z</time></trkpt><trkpt lat="40.67858135359822" lon="15.027377694971012"><ele>432.0</ele><time>2026-05-02T09:27:27.845Z</time></trkpt><trkpt lat="40.6785655183605" lon="15.027288357147915"><ele>432.0</ele><time>2026-05-02T09:27:28.845Z</time></trkpt><trkpt lat="40.6785461163061" lon="15.027192355048683"><ele>432.0</ele><time>2026-05-02T09:27:29.845Z</time></trkpt><trkpt lat="40.67851011999559" lon="15.027033444445017"><ele>432.00000000000006</ele><time>2026-05-02T09:27:31.845Z</time></trkpt><trkpt lat="40.67848718494951" lon="15.026937777162956"><ele>432.00000000000006</ele><time>2026-05-02T09:27:32.845Z</time></trkpt><trkpt lat="40.67846277473653" lon="15.026844723446171"><ele>432.0</ele><time>2026-05-02T09:27:33.844Z</time></trkpt><trkpt lat="40.678415766932446" lon="15.026730879669397"><ele>432.0</ele><time>2026-05-02T09:27:34.844Z</time></trkpt><trkpt lat="40.67839972260195" lon="15.026617972192852"><ele>428.8333333333333</ele><time>2026-05-02T09:27:35.847Z</time></trkpt><trkpt lat="40.678368876315545" lon="15.026516997836136"><ele>425.66666666666663</ele><time>2026-05-02T09:27:36.847Z</time></trkpt><trkpt lat="40.67833339241489" lon="15.026403434526316"><ele>422.5</ele><time>2026-05-02T09:27:37.847Z</time></trkpt><trkpt lat="40.67828996056608" lon="15.026306890708472"><ele>419.3333333333333</ele><time>2026-05-02T09:27:38.847Z</time></trkpt><trkpt lat="40.67826137316828" lon="15.02620545257798"><ele>416.16666666666663</ele><time>2026-05-02T09:27:39.847Z</time></trkpt><trkpt lat="40.6782311100693" lon="15.026107371928408"><ele>413.0</ele><time>2026-05-02T09:27:40.847Z</time></trkpt><trkpt lat="40.678214999151145" lon="15.026025238476214"><ele>413.0</ele><time>2026-05-02T09:27:41.847Z</time></trkpt><trkpt lat="40.678170706790134" lon="15.025888577580101"><ele>413.0</ele><time>2026-05-02T09:27:43.847Z</time></trkpt><trkpt lat="40.67812628857494" lon="15.025758518609468"><ele>413.0</ele><time>2026-05-02T09:27:45.847Z</time></trkpt><trkpt lat="40.67809072483397" lon="15.02562732116357"><ele>413.0</ele><time>2026-05-02T09:27:47.847Z</time></trkpt><trkpt lat="40.67802765485234" lon="15.02549656014674"><ele>413.0</ele><time>2026-05-02T09:27:49.847Z</time></trkpt><trkpt lat="40.67795897734209" lon="15.02538063802549"><ele>411.0</ele><time>2026-05-02T09:27:51.847Z</time></trkpt><trkpt lat="40.677919309055746" lon="15.02531483671659"><ele>409.0</ele><time>2026-05-02T09:27:52.847Z</time></trkpt><trkpt lat="40.67783858247686" lon="15.025186358889279"><ele>407.0</ele><time>2026-05-02T09:27:54.846Z</time></trkpt><trkpt lat="40.677796526035024" lon="15.025123033656811"><ele>405.0</ele><time>2026-05-02T09:27:55.846Z</time></trkpt><trkpt lat="40.67770039066623" lon="15.025017300542833"><ele>403.0</ele><time>2026-05-02T09:27:57.846Z</time></trkpt><trkpt lat="40.6776231856731" lon="15.024893461044078"><ele>401.33333333333337</ele><time>2026-05-02T09:27:59.846Z</time></trkpt><trkpt lat="40.677540911632946" lon="15.02478498240172"><ele>399.6666666666667</ele><time>2026-05-02T09:28:01.846Z</time></trkpt><trkpt lat="40.677492673838735" lon="15.024721377582578"><ele>398.0</ele><time>2026-05-02T09:28:02.846Z</time></trkpt><trkpt lat="40.677446153005825" lon="15.024658110457063"><ele>396.33333333333337</ele><time>2026-05-02T09:28:03.846Z</time></trkpt><trkpt lat="40.67739555855561" lon="15.024588169895823"><ele>394.6666666666667</ele><time>2026-05-02T09:28:04.846Z</time></trkpt><trkpt lat="40.677338203601124" lon="15.02450862989591"><ele>393.0</ele><time>2026-05-02T09:28:05.846Z</time></trkpt><trkpt lat="40.677287792986014" lon="15.024437802745368"><ele>393.0</ele><time>2026-05-02T09:28:06.846Z</time></trkpt><trkpt lat="40.67723625008215" lon="15.024365827256245"><ele>393.0</ele><time>2026-05-02T09:28:07.846Z</time></trkpt><trkpt lat="40.677179767692266" lon="15.024292397201718"><ele>393.0</ele><time>2026-05-02T09:28:08.846Z</time></trkpt><trkpt lat="40.6771166667907" lon="15.02423073802314"><ele>393.0</ele><time>2026-05-02T09:28:09.846Z</time></trkpt><trkpt lat="40.67703950906938" lon="15.024212297804246"><ele>393.0</ele><time>2026-05-02T09:28:10.846Z</time></trkpt><trkpt lat="40.67697052382757" lon="15.024167304399935"><ele>393.0</ele><time>2026-05-02T09:28:11.846Z</time></trkpt><trkpt lat="40.67689681187817" lon="15.024143390653741"><ele>391.0</ele><time>2026-05-02T09:28:12.846Z</time></trkpt><trkpt lat="40.676788143556934" lon="15.024104977704761"><ele>389.0</ele><time>2026-05-02T09:28:14.846Z</time></trkpt><trkpt lat="40.67672417727572" lon="15.02408217721882"><ele>387.0</ele><time>2026-05-02T09:28:16.845Z</time></trkpt><trkpt lat="40.6766370351022" lon="15.024051210259916"><ele>385.0</ele><time>2026-05-02T09:28:19.845Z</time></trkpt><trkpt lat="40.67656748506852" lon="15.024029669497118"><ele>383.0</ele><time>2026-05-02T09:28:21.845Z</time></trkpt><trkpt lat="40.67648537988479" lon="15.024011596647405"><ele>381.0</ele><time>2026-05-02T09:28:23.845Z</time></trkpt><trkpt lat="40.67640795053739" lon="15.024005026949018"><ele>381.0</ele><time>2026-05-02T09:28:25.845Z</time></trkpt><trkpt lat="40.67632430822254" lon="15.024000428058446"><ele>381.0</ele><time>2026-05-02T09:28:27.845Z</time></trkpt><trkpt lat="40.676236322763415" lon="15.023990560888729"><ele>381.0</ele><time>2026-05-02T09:28:29.845Z</time></trkpt><trkpt lat="40.67617401671635" lon="15.023968283829754"><ele>381.0</ele><time>2026-05-02T09:28:30.845Z</time></trkpt><trkpt lat="40.676040335824055" lon="15.023922791928708"><ele>381.0</ele><time>2026-05-02T09:28:32.845Z</time></trkpt><trkpt lat="40.67599058438193" lon="15.023815780391814"><ele>381.6</ele><time>2026-05-02T09:28:33.845Z</time></trkpt><trkpt lat="40.67593719990638" lon="15.023740473296028"><ele>382.20000000000005</ele><time>2026-05-02T09:28:34.845Z</time></trkpt><trkpt lat="40.675872347537464" lon="15.023646408144836"><ele>382.79999999999995</ele><time>2026-05-02T09:28:35.845Z</time></trkpt><trkpt lat="40.67580795747694" lon="15.023556257304477"><ele>383.4</ele><time>2026-05-02T09:28:36.845Z</time></trkpt><trkpt lat="40.675725209455535" lon="15.02347114481133"><ele>384.0</ele><time>2026-05-02T09:28:37.845Z</time></trkpt><trkpt lat="40.67564073895919" lon="15.023399857876212"><ele>384.0</ele><time>2026-05-02T09:28:38.844Z</time></trkpt><trkpt lat="40.675544617413394" lon="15.023346791988944"><ele>384.0</ele><time>2026-05-02T09:28:39.844Z</time></trkpt><trkpt lat="40.675462883031" lon="15.023280660550604"><ele>384.0</ele><time>2026-05-02T09:28:40.844Z</time></trkpt><trkpt lat="40.67538879120496" lon="15.023206051847236"><ele>384.0</ele><time>2026-05-02T09:28:41.844Z</time></trkpt><trkpt lat="40.675301599105666" lon="15.023158475749048"><ele>384.0</ele><time>2026-05-02T09:28:42.844Z</time></trkpt><trkpt lat="40.67521072204569" lon="15.023149880463857"><ele>383.8333333333333</ele><time>2026-05-02T09:28:43.844Z</time></trkpt><trkpt lat="40.675115244851376" lon="15.023161000192365"><ele>383.6666666666667</ele><time>2026-05-02T09:28:44.844Z</time></trkpt><trkpt lat="40.67502365599728" lon="15.023175417937734"><ele>383.5</ele><time>2026-05-02T09:28:45.844Z</time></trkpt><trkpt lat="40.67493434790434" lon="15.023191109351522"><ele>383.33333333333337</ele><time>2026-05-02T09:28:46.844Z</time></trkpt><trkpt lat="40.67485456801062" lon="15.023207340365838"><ele>383.1666666666667</ele><time>2026-05-02T09:28:47.844Z</time></trkpt><trkpt lat="40.67478405447727" lon="15.023240666057607"><ele>383.0</ele><time>2026-05-02T09:28:48.844Z</time></trkpt><trkpt lat="40.67473373738167" lon="15.023318350901901"><ele>383.0</ele><time>2026-05-02T09:28:49.844Z</time></trkpt><trkpt lat="40.67471382489424" lon="15.02341131131015"><ele>383.0</ele><time>2026-05-02T09:28:50.844Z</time></trkpt><trkpt lat="40.6746561394925" lon="15.023511207594707"><ele>383.0</ele><time>2026-05-02T09:28:52.844Z</time></trkpt><trkpt lat="40.67456024115674" lon="15.02350608210175"><ele>383.0</ele><time>2026-05-02T09:28:54.844Z</time></trkpt><trkpt lat="40.674507625854936" lon="15.023428050644846"><ele>383.0</ele><time>2026-05-02T09:28:55.844Z</time></trkpt><trkpt lat="40.674478467507456" lon="15.02332474802364"><ele>383.0</ele><time>2026-05-02T09:28:56.844Z</time></trkpt><trkpt lat="40.674457160078674" lon="15.023203304550247"><ele>380.79999999999995</ele><time>2026-05-02T09:28:57.844Z</time></trkpt><trkpt lat="40.67441456775779" lon="15.023083020266572"><ele>378.6</ele><time>2026-05-02T09:28:58.844Z</time></trkpt><trkpt lat="40.674345005947615" lon="15.022979886642457"><ele>376.4</ele><time>2026-05-02T09:28:59.844Z</time></trkpt><trkpt lat="40.674255910848835" lon="15.022900429190704"><ele>374.20000000000005</ele><time>2026-05-02T09:29:00.843Z</time></trkpt><trkpt lat="40.67418933669249" lon="15.022806200824082"><ele>372.0</ele><time>2026-05-02T09:29:01.843Z</time></trkpt><trkpt lat="40.67412982558377" lon="15.022700657485599"><ele>372.0</ele><time>2026-05-02T09:29:02.843Z</time></trkpt><trkpt lat="40.67410777345082" lon="15.022579800903522"><ele>372.0</ele><time>2026-05-02T09:29:03.843Z</time></trkpt><trkpt lat="40.674063791436" lon="15.022474245999204"><ele>372.0</ele><time>2026-05-02T09:29:04.843Z</time></trkpt><trkpt lat="40.67404499455549" lon="15.022363148995543"><ele>372.0</ele><time>2026-05-02T09:29:05.843Z</time></trkpt><trkpt lat="40.67399928094968" lon="15.02226775196006"><ele>372.0</ele><time>2026-05-02T09:29:06.843Z</time></trkpt><trkpt lat="40.67393522650968" lon="15.02220808625031"><ele>372.0</ele><time>2026-05-02T09:29:07.843Z</time></trkpt><trkpt lat="40.673853221204205" lon="15.02221652884735"><ele>370.0</ele><time>2026-05-02T09:29:08.843Z</time></trkpt><trkpt lat="40.67376504528627" lon="15.0222113508619"><ele>368.0</ele><time>2026-05-02T09:29:09.843Z</time></trkpt><trkpt lat="40.67368095620408" lon="15.022243673502105"><ele>366.0</ele><time>2026-05-02T09:29:10.843Z</time></trkpt><trkpt lat="40.67360467830675" lon="15.02227542658929"><ele>364.0</ele><time>2026-05-02T09:29:11.843Z</time></trkpt><trkpt lat="40.67353062873892" lon="15.02230070971497"><ele>362.0</ele><time>2026-05-02T09:29:12.843Z</time></trkpt><trkpt lat="40.67342442742661" lon="15.022304842111838"><ele>360.0</ele><time>2026-05-02T09:29:14.843Z</time></trkpt><trkpt lat="40.67333804397628" lon="15.022253137810155"><ele>360.0</ele><time>2026-05-02T09:29:16.843Z</time></trkpt><trkpt lat="40.673258298608566" lon="15.022207402967124"><ele>360.0</ele><time>2026-05-02T09:29:18.843Z</time></trkpt><trkpt lat="40.67314011961135" lon="15.022087721722984"><ele>360.0</ele><time>2026-05-02T09:29:20.843Z</time></trkpt><trkpt lat="40.67307449335528" lon="15.02202395234076"><ele>360.0</ele><time>2026-05-02T09:29:21.843Z</time></trkpt><trkpt lat="40.67302633277437" lon="15.02194262282886"><ele>360.0</ele><time>2026-05-02T09:29:22.842Z</time></trkpt><trkpt lat="40.67300808799975" lon="15.021852329619064"><ele>360.0</ele><time>2026-05-02T09:29:23.842Z</time></trkpt><trkpt lat="40.672975550215625" lon="15.021757800717253"><ele>360.0</ele><time>2026-05-02T09:29:24.842Z</time></trkpt><trkpt lat="40.6729379764805" lon="15.021653316517488"><ele>360.0</ele><time>2026-05-02T09:29:25.842Z</time></trkpt><trkpt lat="40.67289486707509" lon="15.021528602669411"><ele>360.0</ele><time>2026-05-02T09:29:26.842Z</time></trkpt><trkpt lat="40.67284300786982" lon="15.021387989314617"><ele>360.0</ele><time>2026-05-02T09:29:27.842Z</time></trkpt><trkpt lat="40.67282955428329" lon="15.02122787339138"><ele>358.5</ele><time>2026-05-02T09:29:28.842Z</time></trkpt><trkpt lat="40.67280610138171" lon="15.021075918221417"><ele>357.0</ele><time>2026-05-02T09:29:29.842Z</time></trkpt><trkpt lat="40.67278415846247" lon="15.020912013872506"><ele>355.5</ele><time>2026-05-02T09:29:30.842Z</time></trkpt><trkpt lat="40.67276438051115" lon="15.0207606086636"><ele>354.0</ele><time>2026-05-02T09:29:31.842Z</time></trkpt><trkpt lat="40.672742078319075" lon="15.02060720162212"><ele>354.0</ele><time>2026-05-02T09:29:32.842Z</time></trkpt><trkpt lat="40.672715202671" lon="15.020457953675294"><ele>354.0</ele><time>2026-05-02T09:29:33.842Z</time></trkpt><trkpt lat="40.67267940505448" lon="15.02031776583081"><ele>354.0</ele><time>2026-05-02T09:29:34.842Z</time></trkpt><trkpt lat="40.67262447584472" lon="15.02018978292967"><ele>354.0</ele><time>2026-05-02T09:29:35.842Z</time></trkpt><trkpt lat="40.672548108667954" lon="15.020084655147507"><ele>354.0</ele><time>2026-05-02T09:29:36.842Z</time></trkpt><trkpt lat="40.672449846045225" lon="15.02000939304719"><ele>354.0</ele><time>2026-05-02T09:29:37.842Z</time></trkpt><trkpt lat="40.67233389314906" lon="15.019979956492755"><ele>354.0</ele><time>2026-05-02T09:29:38.842Z</time></trkpt><trkpt lat="40.67222951685002" lon="15.019946787150104"><ele>354.0</ele><time>2026-05-02T09:29:39.842Z</time></trkpt><trkpt lat="40.672129533717126" lon="15.019900257034436"><ele>354.0</ele><time>2026-05-02T09:29:40.842Z</time></trkpt><trkpt lat="40.67202261374796" lon="15.019837290964045"><ele>351.5</ele><time>2026-05-02T09:29:41.845Z</time></trkpt><trkpt lat="40.67191583931141" lon="15.019766065977747"><ele>349.0</ele><time>2026-05-02T09:29:42.845Z</time></trkpt><trkpt lat="40.67181270231691" lon="15.019697339526967"><ele>346.5</ele><time>2026-05-02T09:29:43.845Z</time></trkpt><trkpt lat="40.671712516623124" lon="15.019635857552183"><ele>344.0</ele><time>2026-05-02T09:29:44.845Z</time></trkpt><trkpt lat="40.6716171957919" lon="15.019577361047062"><ele>344.0</ele><time>2026-05-02T09:29:45.845Z</time></trkpt><trkpt lat="40.67152523572031" lon="15.01952756755204"><ele>344.0</ele><time>2026-05-02T09:29:46.845Z</time></trkpt><trkpt lat="40.671454278547614" lon="15.019438192932112"><ele>344.0</ele><time>2026-05-02T09:29:47.845Z</time></trkpt><trkpt lat="40.67139822306784" lon="15.019324001895532"><ele>344.0</ele><time>2026-05-02T09:29:48.845Z</time></trkpt><trkpt lat="40.671320944523394" lon="15.019221811073749"><ele>344.0</ele><time>2026-05-02T09:29:49.845Z</time></trkpt><trkpt lat="40.67122113355475" lon="15.019138705681092"><ele>342.4</ele><time>2026-05-02T09:29:50.844Z</time></trkpt><trkpt lat="40.671111442266735" lon="15.019088592748734"><ele>340.79999999999995</ele><time>2026-05-02T09:29:51.844Z</time></trkpt><trkpt lat="40.67101421236958" lon="15.019023502714095"><ele>339.20000000000005</ele><time>2026-05-02T09:29:52.844Z</time></trkpt><trkpt lat="40.67092402765355" lon="15.018962213914188"><ele>337.6</ele><time>2026-05-02T09:29:53.845Z</time></trkpt><trkpt lat="40.67083636896339" lon="15.018894442336544"><ele>336.0</ele><time>2026-05-02T09:29:54.845Z</time></trkpt><trkpt lat="40.67075426530197" lon="15.018819203837296"><ele>336.0</ele><time>2026-05-02T09:29:55.845Z</time></trkpt><trkpt lat="40.67068622787281" lon="15.01872769900665"><ele>336.0</ele><time>2026-05-02T09:29:56.845Z</time></trkpt><trkpt lat="40.670611755359346" lon="15.018651654432253"><ele>336.0</ele><time>2026-05-02T09:29:57.845Z</time></trkpt><trkpt lat="40.670536393124586" lon="15.01856789684504"><ele>336.0</ele><time>2026-05-02T09:29:58.844Z</time></trkpt><trkpt lat="40.67046704568819" lon="15.018485364086885"><ele>336.0</ele><time>2026-05-02T09:29:59.844Z</time></trkpt><trkpt lat="40.67040334277144" lon="15.018392667307802"><ele>333.6</ele><time>2026-05-02T09:30:00.844Z</time></trkpt><trkpt lat="40.670328121828696" lon="15.018290478714501"><ele>331.20000000000005</ele><time>2026-05-02T09:30:01.844Z</time></trkpt><trkpt lat="40.67025830674751" lon="15.018186507680092"><ele>328.79999999999995</ele><time>2026-05-02T09:30:02.844Z</time></trkpt><trkpt lat="40.670169619375855" lon="15.018088550924832"><ele>326.4</ele><time>2026-05-02T09:30:03.844Z</time></trkpt><trkpt lat="40.67007186539072" lon="15.01801590031895"><ele>324.0</ele><time>2026-05-02T09:30:04.844Z</time></trkpt><trkpt lat="40.66997108527971" lon="15.017959937758146"><ele>324.0</ele><time>2026-05-02T09:30:05.844Z</time></trkpt><trkpt lat="40.669868947989706" lon="15.017922009575601"><ele>324.0</ele><time>2026-05-02T09:30:06.844Z</time></trkpt><trkpt lat="40.66976670992558" lon="15.017868059374393"><ele>324.0</ele><time>2026-05-02T09:30:07.844Z</time></trkpt><trkpt lat="40.6696654479979" lon="15.01784742353044"><ele>324.0</ele><time>2026-05-02T09:30:08.844Z</time></trkpt><trkpt lat="40.66956749833145" lon="15.017822681362073"><ele>324.0</ele><time>2026-05-02T09:30:09.844Z</time></trkpt><trkpt lat="40.66947210056114" lon="15.017797289541816"><ele>324.4</ele><time>2026-05-02T09:30:10.844Z</time></trkpt><trkpt lat="40.66937560479873" lon="15.017777004855672"><ele>324.79999999999995</ele><time>2026-05-02T09:30:11.844Z</time></trkpt><trkpt lat="40.66928100169604" lon="15.017764348560675"><ele>325.20000000000005</ele><time>2026-05-02T09:30:12.844Z</time></trkpt><trkpt lat="40.66918794009501" lon="15.017760597203136"><ele>325.6</ele><time>2026-05-02T09:30:13.844Z</time></trkpt><trkpt lat="40.66909283838217" lon="15.017775398007537"><ele>326.0</ele><time>2026-05-02T09:30:14.844Z</time></trkpt><trkpt lat="40.66900535986446" lon="15.017816816740165"><ele>326.0</ele><time>2026-05-02T09:30:15.844Z</time></trkpt><trkpt lat="40.668923307162665" lon="15.017882405756659"><ele>326.0</ele><time>2026-05-02T09:30:16.844Z</time></trkpt><trkpt lat="40.66884859144993" lon="15.01795936454962"><ele>326.0</ele><time>2026-05-02T09:30:17.844Z</time></trkpt><trkpt lat="40.668775381927645" lon="15.018029447363695"><ele>326.0</ele><time>2026-05-02T09:30:18.844Z</time></trkpt><trkpt lat="40.668698372229194" lon="15.01805399102642"><ele>326.0</ele><time>2026-05-02T09:30:19.843Z</time></trkpt><trkpt lat="40.66858934077181" lon="15.018045407841084"><ele>325.33333333333337</ele><time>2026-05-02T09:30:21.843Z</time></trkpt><trkpt lat="40.66852300184894" lon="15.018034535570791"><ele>324.6666666666667</ele><time>2026-05-02T09:30:22.843Z</time></trkpt><trkpt lat="40.66846416732793" lon="15.017952996674103"><ele>324.0</ele><time>2026-05-02T09:30:23.843Z</time></trkpt><trkpt lat="40.668422793573384" lon="15.017871602132786"><ele>323.3333333333333</ele><time>2026-05-02T09:30:24.843Z</time></trkpt><trkpt lat="40.66838758135732" lon="15.017793788596032"><ele>322.66666666666663</ele><time>2026-05-02T09:30:25.843Z</time></trkpt><trkpt lat="40.668336922794005" lon="15.017736692583878"><ele>322.0</ele><time>2026-05-02T09:30:26.843Z</time></trkpt><trkpt lat="40.66823070306819" lon="15.017673620636426"><ele>322.0</ele><time>2026-05-02T09:30:28.843Z</time></trkpt><trkpt lat="40.66815625713243" lon="15.017686741924335"><ele>322.0</ele><time>2026-05-02T09:30:29.843Z</time></trkpt><trkpt lat="40.668056998036214" lon="15.017686257129174"><ele>322.0</ele><time>2026-05-02T09:30:31.843Z</time></trkpt><trkpt lat="40.66795453164252" lon="15.017684677246466"><ele>322.0</ele><time>2026-05-02T09:30:33.843Z</time></trkpt><trkpt lat="40.66784419881261" lon="15.01767005630344"><ele>322.0</ele><time>2026-05-02T09:30:35.843Z</time></trkpt><trkpt lat="40.66773521275719" lon="15.01764415188456"><ele>322.16666666666663</ele><time>2026-05-02T09:30:37.843Z</time></trkpt><trkpt lat="40.667617972372966" lon="15.01759401142588"><ele>322.3333333333333</ele><time>2026-05-02T09:30:39.843Z</time></trkpt><trkpt lat="40.66753764853033" lon="15.017575517104085"><ele>322.5</ele><time>2026-05-02T09:30:40.843Z</time></trkpt><trkpt lat="40.66747510681678" lon="15.017506865044597"><ele>322.6666666666667</ele><time>2026-05-02T09:30:41.842Z</time></trkpt><trkpt lat="40.66740936712934" lon="15.017475897855622"><ele>322.83333333333337</ele><time>2026-05-02T09:30:42.842Z</time></trkpt><trkpt lat="40.66733686014306" lon="15.01743849192299"><ele>323.0</ele><time>2026-05-02T09:30:43.842Z</time></trkpt><trkpt lat="40.667272477992" lon="15.017404268845144"><ele>320.5</ele><time>2026-05-02T09:30:44.842Z</time></trkpt><trkpt lat="40.667211446886164" lon="15.017356308165242"><ele>318.0</ele><time>2026-05-02T09:30:45.842Z</time></trkpt><trkpt lat="40.66715662252741" lon="15.017294466058013"><ele>315.5</ele><time>2026-05-02T09:30:46.842Z</time></trkpt><trkpt lat="40.66710908041015" lon="15.017214745034106"><ele>313.0</ele><time>2026-05-02T09:30:47.842Z</time></trkpt><trkpt lat="40.66707036051677" lon="15.017123268750991"><ele>310.5</ele><time>2026-05-02T09:30:48.842Z</time></trkpt><trkpt lat="40.66704734517878" lon="15.01702237520926"><ele>308.0</ele><time>2026-05-02T09:30:49.842Z</time></trkpt><trkpt lat="40.66702814068569" lon="15.01691605513578"><ele>308.0</ele><time>2026-05-02T09:30:50.842Z</time></trkpt><trkpt lat="40.667015246416646" lon="15.016804723084409"><ele>308.0</ele><time>2026-05-02T09:30:51.842Z</time></trkpt><trkpt lat="40.66699660666687" lon="15.01668709770675"><ele>308.0</ele><time>2026-05-02T09:30:52.842Z</time></trkpt><trkpt lat="40.66696929321021" lon="15.01656538304524"><ele>308.0</ele><time>2026-05-02T09:30:53.842Z</time></trkpt><trkpt lat="40.666936792577246" lon="15.016450424058368"><ele>308.0</ele><time>2026-05-02T09:30:54.842Z</time></trkpt><trkpt lat="40.66688555209059" lon="15.01633191042503"><ele>307.6</ele><time>2026-05-02T09:30:55.842Z</time></trkpt><trkpt lat="40.666820055123466" lon="15.01622082620192"><ele>307.20000000000005</ele><time>2026-05-02T09:30:56.842Z</time></trkpt><trkpt lat="40.666758318429466" lon="15.016118913878703"><ele>306.8</ele><time>2026-05-02T09:30:57.842Z</time></trkpt><trkpt lat="40.66669332408239" lon="15.016023557584441"><ele>306.40000000000003</ele><time>2026-05-02T09:30:58.842Z</time></trkpt><trkpt lat="40.66662323290969" lon="15.015930262151906"><ele>306.0</ele><time>2026-05-02T09:30:59.842Z</time></trkpt><trkpt lat="40.66654763194744" lon="15.01584135862625"><ele>301.8</ele><time>2026-05-02T09:31:00.842Z</time></trkpt><trkpt lat="40.66647163536521" lon="15.015770531203263"><ele>297.6</ele><time>2026-05-02T09:31:01.842Z</time></trkpt><trkpt lat="40.66639604670615" lon="15.01568023345024"><ele>293.4</ele><time>2026-05-02T09:31:02.842Z</time></trkpt><trkpt lat="40.66630011481752" lon="15.0156158823869"><ele>289.2</ele><time>2026-05-02T09:31:03.841Z</time></trkpt><trkpt lat="40.666183733173604" lon="15.01558132377428"><ele>285.0</ele><time>2026-05-02T09:31:04.841Z</time></trkpt><trkpt lat="40.66606659553507" lon="15.015542765907135"><ele>285.0</ele><time>2026-05-02T09:31:05.841Z</time></trkpt><trkpt lat="40.66595146362947" lon="15.015492605095059"><ele>285.0</ele><time>2026-05-02T09:31:06.841Z</time></trkpt><trkpt lat="40.66583173499759" lon="15.015463484854733"><ele>285.0</ele><time>2026-05-02T09:31:07.841Z</time></trkpt><trkpt lat="40.665711273367194" lon="15.015445230372908"><ele>285.0</ele><time>2026-05-02T09:31:08.841Z</time></trkpt><trkpt lat="40.66559552006124" lon="15.015443921762591"><ele>285.0</ele><time>2026-05-02T09:31:09.841Z</time></trkpt><trkpt lat="40.6654857687499" lon="15.015449852471367"><ele>285.0</ele><time>2026-05-02T09:31:10.841Z</time></trkpt><trkpt lat="40.66538211291566" lon="15.015457027260277"><ele>285.0</ele><time>2026-05-02T09:31:11.841Z</time></trkpt><trkpt lat="40.665280033592595" lon="15.015483685235074"><ele>285.0</ele><time>2026-05-02T09:31:12.841Z</time></trkpt><trkpt lat="40.66517941179062" lon="15.015488028803386"><ele>285.0</ele><time>2026-05-02T09:31:13.841Z</time></trkpt><trkpt lat="40.66508069395224" lon="15.015503588009071"><ele>286.0</ele><time>2026-05-02T09:31:14.841Z</time></trkpt><trkpt lat="40.66498183081027" lon="15.015511494429576"><ele>287.0</ele><time>2026-05-02T09:31:15.841Z</time></trkpt><trkpt lat="40.66488603866703" lon="15.015494507127919"><ele>288.0</ele><time>2026-05-02T09:31:16.841Z</time></trkpt><trkpt lat="40.664802234293425" lon="15.015407266503926"><ele>289.0</ele><time>2026-05-02T09:31:17.841Z</time></trkpt><trkpt lat="40.66471589558754" lon="15.015337472927197"><ele>290.0</ele><time>2026-05-02T09:31:18.841Z</time></trkpt><trkpt lat="40.66462877475947" lon="15.015280104572042"><ele>290.0</ele><time>2026-05-02T09:31:19.841Z</time></trkpt><trkpt lat="40.6645431329735" lon="15.01522496382183"><ele>290.0</ele><time>2026-05-02T09:31:20.841Z</time></trkpt><trkpt lat="40.66446198847403" lon="15.015169917563577"><ele>290.0</ele><time>2026-05-02T09:31:21.841Z</time></trkpt><trkpt lat="40.66438888532197" lon="15.015094597173732"><ele>290.0</ele><time>2026-05-02T09:31:22.841Z</time></trkpt><trkpt lat="40.664322449436085" lon="15.014983282966103"><ele>290.0</ele><time>2026-05-02T09:31:23.841Z</time></trkpt><trkpt lat="40.66425121406673" lon="15.014857969317825"><ele>288.2</ele><time>2026-05-02T09:31:24.841Z</time></trkpt><trkpt lat="40.66419960694863" lon="15.01473138703997"><ele>286.4</ele><time>2026-05-02T09:31:25.84Z</time></trkpt><trkpt lat="40.66414521717758" lon="15.014609072294286"><ele>284.6</ele><time>2026-05-02T09:31:26.84Z</time></trkpt><trkpt lat="40.66408961759719" lon="15.014493313319463"><ele>282.8</ele><time>2026-05-02T09:31:27.84Z</time></trkpt><trkpt lat="40.66401931918594" lon="15.014375274331284"><ele>281.0</ele><time>2026-05-02T09:31:28.84Z</time></trkpt><trkpt lat="40.66394613764231" lon="15.014277658454185"><ele>281.0</ele><time>2026-05-02T09:31:29.84Z</time></trkpt><trkpt lat="40.66384165414598" lon="15.014179563477771"><ele>281.0</ele><time>2026-05-02T09:31:30.84Z</time></trkpt><trkpt lat="40.663732408841135" lon="15.01409787923423"><ele>281.0</ele><time>2026-05-02T09:31:31.84Z</time></trkpt><trkpt lat="40.663637072799006" lon="15.013992047252385"><ele>281.0</ele><time>2026-05-02T09:31:32.84Z</time></trkpt><trkpt lat="40.66353781576908" lon="15.013918795515055"><ele>279.0</ele><time>2026-05-02T09:31:33.84Z</time></trkpt><trkpt lat="40.663440698715924" lon="15.013844015335026"><ele>277.0</ele><time>2026-05-02T09:31:34.84Z</time></trkpt><trkpt lat="40.66334346894012" lon="15.01378275270645"><ele>275.0</ele><time>2026-05-02T09:31:35.84Z</time></trkpt><trkpt lat="40.66324524816508" lon="15.013737892459195"><ele>273.0</ele><time>2026-05-02T09:31:36.84Z</time></trkpt><trkpt lat="40.66314379111633" lon="15.013717502089508"><ele>271.0</ele><time>2026-05-02T09:31:37.84Z</time></trkpt><trkpt lat="40.6630484017669" lon="15.013723420620792"><ele>271.0</ele><time>2026-05-02T09:31:38.84Z</time></trkpt><trkpt lat="40.66294938726557" lon="15.013763235540157"><ele>271.0</ele><time>2026-05-02T09:31:39.84Z</time></trkpt><trkpt lat="40.6628477664913" lon="15.013822002192642"><ele>271.0</ele><time>2026-05-02T09:31:40.84Z</time></trkpt><trkpt lat="40.66274541285978" lon="15.013888983600657"><ele>271.0</ele><time>2026-05-02T09:31:41.84Z</time></trkpt><trkpt lat="40.66265102077253" lon="15.013962958946635"><ele>271.0</ele><time>2026-05-02T09:31:42.84Z</time></trkpt><trkpt lat="40.66255172435979" lon="15.014024398681638"><ele>271.8</ele><time>2026-05-02T09:31:43.84Z</time></trkpt><trkpt lat="40.66249544318479" lon="15.014127616304922"><ele>272.6</ele><time>2026-05-02T09:31:44.84Z</time></trkpt><trkpt lat="40.66242372673646" lon="15.014228042560983"><ele>273.4</ele><time>2026-05-02T09:31:45.84Z</time></trkpt><trkpt lat="40.662370062602584" lon="15.014341359303653"><ele>274.2</ele><time>2026-05-02T09:31:46.84Z</time></trkpt><trkpt lat="40.662319362531825" lon="15.01446664403538"><ele>275.0</ele><time>2026-05-02T09:31:47.843Z</time></trkpt><trkpt lat="40.66226484130619" lon="15.014598513086527"><ele>277.75</ele><time>2026-05-02T09:31:48.843Z</time></trkpt><trkpt lat="40.66221938909197" lon="15.014746497286641"><ele>280.5</ele><time>2026-05-02T09:31:49.843Z</time></trkpt><trkpt lat="40.66216915948855" lon="15.014886184238637"><ele>283.25</ele><time>2026-05-02T09:31:50.843Z</time></trkpt><trkpt lat="40.662120129587585" lon="15.015019980243425"><ele>286.0</ele><time>2026-05-02T09:31:51.843Z</time></trkpt><trkpt lat="40.66208096445556" lon="15.015156759456884"><ele>287.5</ele><time>2026-05-02T09:31:52.843Z</time></trkpt><trkpt lat="40.66205540312206" lon="15.015302872909908"><ele>289.0</ele><time>2026-05-02T09:31:53.843Z</time></trkpt><trkpt lat="40.662046073466406" lon="15.015464899471185"><ele>290.5</ele><time>2026-05-02T09:31:54.843Z</time></trkpt><trkpt lat="40.66203980370559" lon="15.015613675203621"><ele>292.0</ele><time>2026-05-02T09:31:55.843Z</time></trkpt><trkpt lat="40.662022944054314" lon="15.015745594426122"><ele>291.4</ele><time>2026-05-02T09:31:56.843Z</time></trkpt><trkpt lat="40.66197369917883" lon="15.015864018946438"><ele>290.79999999999995</ele><time>2026-05-02T09:31:57.843Z</time></trkpt><trkpt lat="40.66190889519626" lon="15.015964006329062"><ele>290.2</ele><time>2026-05-02T09:31:58.843Z</time></trkpt><trkpt lat="40.66183425520067" lon="15.016063405409726"><ele>289.59999999999997</ele><time>2026-05-02T09:31:59.843Z</time></trkpt><trkpt lat="40.66175359200145" lon="15.016166501479942"><ele>289.0</ele><time>2026-05-02T09:32:00.843Z</time></trkpt><trkpt lat="40.66166074212064" lon="15.016257204281251"><ele>284.5</ele><time>2026-05-02T09:32:01.843Z</time></trkpt><trkpt lat="40.66156012026898" lon="15.01633885104598"><ele>280.0</ele><time>2026-05-02T09:32:02.843Z</time></trkpt><trkpt lat="40.66145412161904" lon="15.016405972498232"><ele>275.5</ele><time>2026-05-02T09:32:03.843Z</time></trkpt><trkpt lat="40.6613472441018" lon="15.016450177123465"><ele>271.0</ele><time>2026-05-02T09:32:04.843Z</time></trkpt><trkpt lat="40.66123823834678" lon="15.016474590355953"><ele>271.0</ele><time>2026-05-02T09:32:05.843Z</time></trkpt><trkpt lat="40.66112714222846" lon="15.01647665458975"><ele>271.0</ele><time>2026-05-02T09:32:06.843Z</time></trkpt><trkpt lat="40.66100651771409" lon="15.016466197482337"><ele>271.0</ele><time>2026-05-02T09:32:07.843Z</time></trkpt><trkpt lat="40.66088853536219" lon="15.016458911860838"><ele>271.0</ele><time>2026-05-02T09:32:08.843Z</time></trkpt><trkpt lat="40.66077684686095" lon="15.0164764470963"><ele>270.40000000000003</ele><time>2026-05-02T09:32:09.843Z</time></trkpt><trkpt lat="40.66066332423201" lon="15.016511958366838"><ele>269.8</ele><time>2026-05-02T09:32:10.843Z</time></trkpt><trkpt lat="40.660558462622774" lon="15.016560615117308"><ele>269.20000000000005</ele><time>2026-05-02T09:32:11.843Z</time></trkpt><trkpt lat="40.66045997977533" lon="15.016620915445893"><ele>268.6</ele><time>2026-05-02T09:32:12.843Z</time></trkpt><trkpt lat="40.66037032690708" lon="15.016702191879792"><ele>268.0</ele><time>2026-05-02T09:32:13.843Z</time></trkpt><trkpt lat="40.66028688904981" lon="15.016803192779548"><ele>265.0</ele><time>2026-05-02T09:32:14.843Z</time></trkpt><trkpt lat="40.66021106833674" lon="15.016926401876924"><ele>262.0</ele><time>2026-05-02T09:32:15.842Z</time></trkpt><trkpt lat="40.66013864487439" lon="15.017052947828232"><ele>259.0</ele><time>2026-05-02T09:32:16.842Z</time></trkpt><trkpt lat="40.66004786670517" lon="15.017132957085552"><ele>256.0</ele><time>2026-05-02T09:32:17.842Z</time></trkpt><trkpt lat="40.65997746595133" lon="15.017241904467815"><ele>256.0</ele><time>2026-05-02T09:32:18.842Z</time></trkpt><trkpt lat="40.659920483221555" lon="15.017360325004574"><ele>256.0</ele><time>2026-05-02T09:32:19.842Z</time></trkpt><trkpt lat="40.65989034609489" lon="15.01749013988315"><ele>256.0</ele><time>2026-05-02T09:32:20.842Z</time></trkpt><trkpt lat="40.65989817196378" lon="15.01760984950835"><ele>256.0</ele><time>2026-05-02T09:32:21.842Z</time></trkpt><trkpt lat="40.65993749532119" lon="15.017707141031524"><ele>256.0</ele><time>2026-05-02T09:32:22.842Z</time></trkpt><trkpt lat="40.66000385881921" lon="15.017779766075405"><ele>256.8333333333333</ele><time>2026-05-02T09:32:23.842Z</time></trkpt><trkpt lat="40.660083595643414" lon="15.017828458288319"><ele>257.66666666666663</ele><time>2026-05-02T09:32:24.842Z</time></trkpt><trkpt lat="40.66016204023427" lon="15.01787778792949"><ele>258.5</ele><time>2026-05-02T09:32:25.842Z</time></trkpt><trkpt lat="40.660217315924434" lon="15.017958616394193"><ele>259.3333333333333</ele><time>2026-05-02T09:32:26.842Z</time></trkpt><trkpt lat="40.660228278280265" lon="15.018057413471624"><ele>260.1666666666667</ele><time>2026-05-02T09:32:27.842Z</time></trkpt><trkpt lat="40.66019352939134" lon="15.018147910189418"><ele>261.0</ele><time>2026-05-02T09:32:28.842Z</time></trkpt><trkpt lat="40.66013470991455" lon="15.018227284938483"><ele>261.0</ele><time>2026-05-02T09:32:29.842Z</time></trkpt><trkpt lat="40.660066082982695" lon="15.018311184326208"><ele>261.0</ele><time>2026-05-02T09:32:30.842Z</time></trkpt><trkpt lat="40.659981465832885" lon="15.018347580129522"><ele>261.0</ele><time>2026-05-02T09:32:31.842Z</time></trkpt><trkpt lat="40.659894010624754" lon="15.018370886201202"><ele>261.0</ele><time>2026-05-02T09:32:32.842Z</time></trkpt><trkpt lat="40.65979683679898" lon="15.018367824184349"><ele>261.0</ele><time>2026-05-02T09:32:33.842Z</time></trkpt><trkpt lat="40.65969731005495" lon="15.01838589211716"><ele>261.0</ele><time>2026-05-02T09:32:34.842Z</time></trkpt><trkpt lat="40.65959322788515" lon="15.018387131764598"><ele>261.0</ele><time>2026-05-02T09:32:35.842Z</time></trkpt><trkpt lat="40.659488353237684" lon="15.018361639139185"><ele>261.0</ele><time>2026-05-02T09:32:36.842Z</time></trkpt><trkpt lat="40.659386385826096" lon="15.018330326505371"><ele>261.0</ele><time>2026-05-02T09:32:37.841Z</time></trkpt><trkpt lat="40.65929490494831" lon="15.018280981487973"><ele>261.0</ele><time>2026-05-02T09:32:38.841Z</time></trkpt><trkpt lat="40.65919946482036" lon="15.018228778379388"><ele>256.8</ele><time>2026-05-02T09:32:39.841Z</time></trkpt><trkpt lat="40.65909668063465" lon="15.018180328045633"><ele>252.60000000000002</ele><time>2026-05-02T09:32:40.841Z</time></trkpt><trkpt lat="40.6589883936734" lon="15.018148978023135"><ele>248.4</ele><time>2026-05-02T09:32:41.841Z</time></trkpt><trkpt lat="40.65887714771749" lon="15.018171409649735"><ele>244.2</ele><time>2026-05-02T09:32:42.841Z</time></trkpt><trkpt lat="40.65879139491738" lon="15.01824468151892"><ele>240.0</ele><time>2026-05-02T09:32:43.841Z</time></trkpt><trkpt lat="40.65871813231106" lon="15.018318059191898"><ele>240.16666666666666</ele><time>2026-05-02T09:32:44.841Z</time></trkpt><trkpt lat="40.658663704335964" lon="15.01841060778156"><ele>240.33333333333331</ele><time>2026-05-02T09:32:45.841Z</time></trkpt><trkpt lat="40.65861432555598" lon="15.018514348646033"><ele>240.5</ele><time>2026-05-02T09:32:46.841Z</time></trkpt><trkpt lat="40.65857488070092" lon="15.018618745462256"><ele>240.66666666666666</ele><time>2026-05-02T09:32:47.841Z</time></trkpt><trkpt lat="40.65854635983979" lon="15.018724585593235"><ele>240.83333333333331</ele><time>2026-05-02T09:32:48.841Z</time></trkpt><trkpt lat="40.65852603416247" lon="15.018834109065354"><ele>241.0</ele><time>2026-05-02T09:32:49.841Z</time></trkpt><trkpt lat="40.65850452968951" lon="15.018944637581168"><ele>240.99999999999997</ele><time>2026-05-02T09:32:50.841Z</time></trkpt><trkpt lat="40.658486050612105" lon="15.019047060206333"><ele>241.0</ele><time>2026-05-02T09:32:51.841Z</time></trkpt><trkpt lat="40.65846433445299" lon="15.01914889892766"><ele>241.0</ele><time>2026-05-02T09:32:52.841Z</time></trkpt><trkpt lat="40.65844614236359" lon="15.019252096436798"><ele>241.0</ele><time>2026-05-02T09:32:53.841Z</time></trkpt><trkpt lat="40.6584329462878" lon="15.019354846732048"><ele>240.99999999999997</ele><time>2026-05-02T09:32:54.841Z</time></trkpt><trkpt lat="40.65842338074345" lon="15.019456835250395"><ele>241.0</ele><time>2026-05-02T09:32:55.841Z</time></trkpt><trkpt lat="40.658404971423224" lon="15.019552375535742"><ele>240.83333333333331</ele><time>2026-05-02T09:32:56.841Z</time></trkpt><trkpt lat="40.65838430025841" lon="15.01965019068937"><ele>240.66666666666666</ele><time>2026-05-02T09:32:57.841Z</time></trkpt><trkpt lat="40.65835574303194" lon="15.019748577294388"><ele>240.5</ele><time>2026-05-02T09:32:58.841Z</time></trkpt><trkpt lat="40.65832259467163" lon="15.019844511888529"><ele>240.33333333333331</ele><time>2026-05-02T09:32:59.84Z</time></trkpt><trkpt lat="40.65828090349747" lon="15.01993210549042"><ele>240.16666666666666</ele><time>2026-05-02T09:33:00.84Z</time></trkpt><trkpt lat="40.65823119142079" lon="15.020018106196398"><ele>240.0</ele><time>2026-05-02T09:33:01.84Z</time></trkpt><trkpt lat="40.65817286881683" lon="15.020100166285383"><ele>240.0</ele><time>2026-05-02T09:33:02.84Z</time></trkpt><trkpt lat="40.65810857547033" lon="15.020182492551543"><ele>240.0</ele><time>2026-05-02T09:33:03.84Z</time></trkpt><trkpt lat="40.658038620200216" lon="15.020255842751272"><ele>240.0</ele><time>2026-05-02T09:33:04.84Z</time></trkpt><trkpt lat="40.657973928866916" lon="15.020311954939428"><ele>240.0</ele><time>2026-05-02T09:33:05.84Z</time></trkpt><trkpt lat="40.657917311255765" lon="15.020362045020052"><ele>240.0</ele><time>2026-05-02T09:33:06.84Z</time></trkpt><trkpt lat="40.657859393743934" lon="15.02041247699799"><ele>240.0</ele><time>2026-05-02T09:33:07.84Z</time></trkpt><trkpt lat="40.657801224855596" lon="15.020463778351614"><ele>241.83333333333334</ele><time>2026-05-02T09:33:08.84Z</time></trkpt><trkpt lat="40.65773939306727" lon="15.02051849624991"><ele>243.66666666666669</ele><time>2026-05-02T09:33:09.84Z</time></trkpt><trkpt lat="40.65768299302991" lon="15.02056626678449"><ele>245.5</ele><time>2026-05-02T09:33:10.84Z</time></trkpt><trkpt lat="40.65760709339685" lon="15.0206492512586"><ele>247.33333333333334</ele><time>2026-05-02T09:33:12.84Z</time></trkpt><trkpt lat="40.65752455152001" lon="15.020690191936094"><ele>249.16666666666669</ele><time>2026-05-02T09:33:14.84Z</time></trkpt><trkpt lat="40.65746719909167" lon="15.020737987954233"><ele>251.0</ele><time>2026-05-02T09:33:16.84Z</time></trkpt><trkpt lat="40.65741442983469" lon="15.020792061917218"><ele>248.50000000000003</ele><time>2026-05-02T09:33:20.839Z</time></trkpt><trkpt lat="40.65733671159841" lon="15.020875102598193"><ele>246.0</ele><time>2026-05-02T09:34:42.839Z</time></trkpt><trkpt lat="40.65728556909778" lon="15.020935384962954"><ele>243.5</ele><time>2026-05-02T09:34:43.839Z</time></trkpt><trkpt lat="40.65723315868375" lon="15.020992644257634"><ele>241.0</ele><time>2026-05-02T09:34:44.839Z</time></trkpt><trkpt lat="40.657175150146074" lon="15.021045201300144"><ele>238.50000000000003</ele><time>2026-05-02T09:34:45.839Z</time></trkpt><trkpt lat="40.65711886889431" lon="15.021099486514753"><ele>236.0</ele><time>2026-05-02T09:34:46.839Z</time></trkpt><trkpt lat="40.65705961315006" lon="15.021157162044444"><ele>236.00000000000003</ele><time>2026-05-02T09:34:47.839Z</time></trkpt><trkpt lat="40.65699954684104" lon="15.021216306052697"><ele>236.0</ele><time>2026-05-02T09:34:48.839Z</time></trkpt><trkpt lat="40.65692564640707" lon="15.02125291094258"><ele>236.0</ele><time>2026-05-02T09:34:49.839Z</time></trkpt><trkpt lat="40.656862164819245" lon="15.021319414286522"><ele>236.0</ele><time>2026-05-02T09:34:50.839Z</time></trkpt><trkpt lat="40.65678447770747" lon="15.021373874184961"><ele>236.00000000000003</ele><time>2026-05-02T09:34:51.839Z</time></trkpt><trkpt lat="40.65670272035324" lon="15.021429480758947"><ele>236.0</ele><time>2026-05-02T09:34:52.839Z</time></trkpt><trkpt lat="40.65661873051291" lon="15.021476187650084"><ele>233.8</ele><time>2026-05-02T09:34:53.839Z</time></trkpt><trkpt lat="40.65653493006965" lon="15.021528297452107"><ele>231.60000000000002</ele><time>2026-05-02T09:34:54.839Z</time></trkpt><trkpt lat="40.65644624945427" lon="15.021587243098907"><ele>229.4</ele><time>2026-05-02T09:34:55.838Z</time></trkpt><trkpt lat="40.65636620660532" lon="15.021643980314536"><ele>227.2</ele><time>2026-05-02T09:34:56.838Z</time></trkpt><trkpt lat="40.656293129178614" lon="15.02171724936423"><ele>225.0</ele><time>2026-05-02T09:34:57.838Z</time></trkpt><trkpt lat="40.65621086954439" lon="15.021761373964933"><ele>225.0</ele><time>2026-05-02T09:34:58.838Z</time></trkpt><trkpt lat="40.65613751903271" lon="15.021826904318255"><ele>225.0</ele><time>2026-05-02T09:34:59.838Z</time></trkpt><trkpt lat="40.65605858592829" lon="15.021895462313502"><ele>225.0</ele><time>2026-05-02T09:35:00.838Z</time></trkpt><trkpt lat="40.65597619524932" lon="15.021968073851562"><ele>225.0</ele><time>2026-05-02T09:35:01.838Z</time></trkpt><trkpt lat="40.65588168758544" lon="15.02205321212265"><ele>225.0</ele><time>2026-05-02T09:35:02.838Z</time></trkpt><trkpt lat="40.65578414916547" lon="15.022121397763925"><ele>229.5</ele><time>2026-05-02T09:35:03.838Z</time></trkpt><trkpt lat="40.65567751580272" lon="15.02218723766581"><ele>234.0</ele><time>2026-05-02T09:35:04.838Z</time></trkpt><trkpt lat="40.655576319927825" lon="15.022249304440233"><ele>238.5</ele><time>2026-05-02T09:35:05.838Z</time></trkpt><trkpt lat="40.65546489420445" lon="15.022317643679669"><ele>243.0</ele><time>2026-05-02T09:35:06.838Z</time></trkpt><trkpt lat="40.65535826263671" lon="15.022386529364475"><ele>243.5</ele><time>2026-05-02T09:35:07.838Z</time></trkpt><trkpt lat="40.65525135039401" lon="15.02246574326097"><ele>244.0</ele><time>2026-05-02T09:35:08.838Z</time></trkpt><trkpt lat="40.65514946901525" lon="15.022533107312901"><ele>244.5</ele><time>2026-05-02T09:35:09.838Z</time></trkpt><trkpt lat="40.65504766489113" lon="15.022584691999972"><ele>245.0</ele><time>2026-05-02T09:35:10.838Z</time></trkpt><trkpt lat="40.65493598209809" lon="15.02261544137836"><ele>238.4</ele><time>2026-05-02T09:35:11.838Z</time></trkpt><trkpt lat="40.654828795503974" lon="15.022630409851969"><ele>231.8</ele><time>2026-05-02T09:35:12.838Z</time></trkpt><trkpt lat="40.654727085332695" lon="15.02262626069801"><ele>225.2</ele><time>2026-05-02T09:35:13.838Z</time></trkpt><trkpt lat="40.654628135209634" lon="15.022630802231237"><ele>218.6</ele><time>2026-05-02T09:35:14.838Z</time></trkpt><trkpt lat="40.654532389526224" lon="15.022633728303836"><ele>212.0</ele><time>2026-05-02T09:35:15.838Z</time></trkpt><trkpt lat="40.65443840228978" lon="15.022633581415521"><ele>211.0</ele><time>2026-05-02T09:35:16.838Z</time></trkpt><trkpt lat="40.65434180296715" lon="15.022627615705433"><ele>210.0</ele><time>2026-05-02T09:35:17.837Z</time></trkpt><trkpt lat="40.65424240727721" lon="15.022611352274774"><ele>209.0</ele><time>2026-05-02T09:35:18.837Z</time></trkpt><trkpt lat="40.654140365609756" lon="15.022603607499182"><ele>208.0</ele><time>2026-05-02T09:35:19.837Z</time></trkpt><trkpt lat="40.65404039768919" lon="15.022605215176075"><ele>207.0</ele><time>2026-05-02T09:35:20.837Z</time></trkpt><trkpt lat="40.65393693993616" lon="15.022606106913162"><ele>207.0</ele><time>2026-05-02T09:35:21.837Z</time></trkpt><trkpt lat="40.65382523223534" lon="15.022619382663567"><ele>207.0</ele><time>2026-05-02T09:35:22.837Z</time></trkpt><trkpt lat="40.65370510480252" lon="15.022640542287096"><ele>207.0</ele><time>2026-05-02T09:35:23.837Z</time></trkpt><trkpt lat="40.65358236635836" lon="15.022659933762093"><ele>207.0</ele><time>2026-05-02T09:35:24.837Z</time></trkpt><trkpt lat="40.65345873915939" lon="15.022671707346651"><ele>208.25</ele><time>2026-05-02T09:35:25.837Z</time></trkpt><trkpt lat="40.653344399446276" lon="15.022716525874413"><ele>209.5</ele><time>2026-05-02T09:35:26.837Z</time></trkpt><trkpt lat="40.65322861853316" lon="15.022776025147321"><ele>210.75</ele><time>2026-05-02T09:35:27.837Z</time></trkpt><trkpt lat="40.65312294934419" lon="15.022851459497444"><ele>212.0</ele><time>2026-05-02T09:35:28.837Z</time></trkpt><trkpt lat="40.65301066084076" lon="15.022931921143071"><ele>212.0</ele><time>2026-05-02T09:35:29.837Z</time></trkpt><trkpt lat="40.65289295943614" lon="15.022963870498767"><ele>212.0</ele><time>2026-05-02T09:35:30.837Z</time></trkpt><trkpt lat="40.65277539596128" lon="15.022966202931752"><ele>212.0</ele><time>2026-05-02T09:35:31.837Z</time></trkpt><trkpt lat="40.652658483955896" lon="15.023024817201438"><ele>212.0</ele><time>2026-05-02T09:35:32.837Z</time></trkpt><trkpt lat="40.65253913228203" lon="15.0230763906864"><ele>213.5</ele><time>2026-05-02T09:35:33.837Z</time></trkpt><trkpt lat="40.65241175641902" lon="15.023098889399455"><ele>215.0</ele><time>2026-05-02T09:35:34.837Z</time></trkpt><trkpt lat="40.652279625319295" lon="15.02311026972483"><ele>216.5</ele><time>2026-05-02T09:35:35.837Z</time></trkpt><trkpt lat="40.652149278581426" lon="15.02311318990376"><ele>218.0</ele><time>2026-05-02T09:35:36.837Z</time></trkpt><trkpt lat="40.65201773471016" lon="15.023124595321006"><ele>217.0</ele><time>2026-05-02T09:35:37.837Z</time></trkpt><trkpt lat="40.6519019534024" lon="15.02314972671942"><ele>216.0</ele><time>2026-05-02T09:35:38.836Z</time></trkpt><trkpt lat="40.651785798682596" lon="15.02321274028935"><ele>215.0</ele><time>2026-05-02T09:35:39.836Z</time></trkpt><trkpt lat="40.65166864179195" lon="15.023301663430386"><ele>214.0</ele><time>2026-05-02T09:35:40.836Z</time></trkpt><trkpt lat="40.6515516247921" lon="15.02339431118733"><ele>206.5</ele><time>2026-05-02T09:35:41.836Z</time></trkpt><trkpt lat="40.651430677170254" lon="15.023455959966913"><ele>199.0</ele><time>2026-05-02T09:35:42.836Z</time></trkpt><trkpt lat="40.65129988053318" lon="15.023495078855365"><ele>191.5</ele><time>2026-05-02T09:35:43.836Z</time></trkpt><trkpt lat="40.65117252285647" lon="15.023530867011925"><ele>184.0</ele><time>2026-05-02T09:35:44.836Z</time></trkpt><trkpt lat="40.65105033699268" lon="15.023558854123864"><ele>184.0</ele><time>2026-05-02T09:35:45.836Z</time></trkpt><trkpt lat="40.65093812383993" lon="15.02356867198349"><ele>184.0</ele><time>2026-05-02T09:35:46.836Z</time></trkpt><trkpt lat="40.65084041339836" lon="15.023581504326303"><ele>184.0</ele><time>2026-05-02T09:35:47.836Z</time></trkpt><trkpt lat="40.65074740327603" lon="15.02358498622741"><ele>184.0</ele><time>2026-05-02T09:35:48.836Z</time></trkpt><trkpt lat="40.65064863498128" lon="15.02358231673059"><ele>184.0</ele><time>2026-05-02T09:35:49.836Z</time></trkpt><trkpt lat="40.65056044066177" lon="15.023556714161739"><ele>184.0</ele><time>2026-05-02T09:35:50.836Z</time></trkpt><trkpt lat="40.65047752546959" lon="15.023492052609939"><ele>184.0</ele><time>2026-05-02T09:35:51.836Z</time></trkpt><trkpt lat="40.650382029303124" lon="15.023428205970234"><ele>184.0</ele><time>2026-05-02T09:35:52.836Z</time></trkpt><trkpt lat="40.65028980727144" lon="15.023343496746119"><ele>184.0</ele><time>2026-05-02T09:35:53.836Z</time></trkpt><trkpt lat="40.65018642080301" lon="15.023285138596965"><ele>184.0</ele><time>2026-05-02T09:35:54.836Z</time></trkpt><trkpt lat="40.65010389275922" lon="15.023216356124877"><ele>180.66666666666669</ele><time>2026-05-02T09:35:55.836Z</time></trkpt><trkpt lat="40.650035856164116" lon="15.02316022605998"><ele>177.33333333333334</ele><time>2026-05-02T09:35:56.836Z</time></trkpt><trkpt lat="40.64999674775311" lon="15.023088048571882"><ele>174.0</ele><time>2026-05-02T09:35:57.836Z</time></trkpt><trkpt lat="40.64998297765164" lon="15.023004583455002"><ele>170.66666666666666</ele><time>2026-05-02T09:35:58.836Z</time></trkpt><trkpt lat="40.649996260297904" lon="15.022885759819065"><ele>167.33333333333331</ele><time>2026-05-02T09:35:59.838Z</time></trkpt><trkpt lat="40.65001707609826" lon="15.022775904616177"><ele>164.0</ele><time>2026-05-02T09:36:00.839Z</time></trkpt><trkpt lat="40.650040219197145" lon="15.0226712472516"><ele>164.0</ele><time>2026-05-02T09:36:01.839Z</time></trkpt><trkpt lat="40.65005219982452" lon="15.022547878519743"><ele>164.0</ele><time>2026-05-02T09:36:02.838Z</time></trkpt><trkpt lat="40.65005234330153" lon="15.022436306126629"><ele>164.0</ele><time>2026-05-02T09:36:03.839Z</time></trkpt><trkpt lat="40.65003075928089" lon="15.022333534036182"><ele>164.0</ele><time>2026-05-02T09:36:04.839Z</time></trkpt><trkpt lat="40.64997565274472" lon="15.02224286252053"><ele>164.0</ele><time>2026-05-02T09:36:05.839Z</time></trkpt><trkpt lat="40.64987605430327" lon="15.022132019302802"><ele>163.39999999999998</ele><time>2026-05-02T09:36:06.839Z</time></trkpt><trkpt lat="40.649785959680514" lon="15.022033703814623"><ele>162.8</ele><time>2026-05-02T09:36:07.838Z</time></trkpt><trkpt lat="40.64969605161494" lon="15.021934060824202"><ele>162.2</ele><time>2026-05-02T09:36:08.838Z</time></trkpt><trkpt lat="40.64961001102109" lon="15.021846793396307"><ele>161.60000000000002</ele><time>2026-05-02T09:36:09.838Z</time></trkpt><trkpt lat="40.6495268207148" lon="15.021761146978543"><ele>161.0</ele><time>2026-05-02T09:36:10.838Z</time></trkpt><trkpt lat="40.64944744274309" lon="15.021683204897222"><ele>159.83333333333331</ele><time>2026-05-02T09:36:11.838Z</time></trkpt><trkpt lat="40.64937663726192" lon="15.021613715443562"><ele>158.66666666666666</ele><time>2026-05-02T09:36:12.839Z</time></trkpt><trkpt lat="40.64931492613754" lon="15.021553150846755"><ele>157.5</ele><time>2026-05-02T09:36:13.839Z</time></trkpt><trkpt lat="40.64925944782147" lon="15.021503012528495"><ele>156.33333333333334</ele><time>2026-05-02T09:36:14.838Z</time></trkpt><trkpt lat="40.6491786432371" lon="15.021428714611517"><ele>155.16666666666669</ele><time>2026-05-02T09:36:16.838Z</time></trkpt><trkpt lat="40.64911290422663" lon="15.02136423171043"><ele>154.0</ele><time>2026-05-02T09:36:19.838Z</time></trkpt><trkpt lat="40.649061727155484" lon="15.021313884206187"><ele>154.0</ele><time>2026-05-02T09:36:23.838Z</time></trkpt><trkpt lat="40.64898756546515" lon="15.021256276423136"><ele>154.0</ele><time>2026-05-02T09:37:04.836Z</time></trkpt><trkpt lat="40.6488975313303" lon="15.021131176475096"><ele>154.0</ele><time>2026-05-02T09:37:06.836Z</time></trkpt><trkpt lat="40.648881339942506" lon="15.021035861265286"><ele>154.0</ele><time>2026-05-02T09:37:07.836Z</time></trkpt><trkpt lat="40.64886366204752" lon="15.020947181667806"><ele>154.0</ele><time>2026-05-02T09:37:08.836Z</time></trkpt><trkpt lat="40.64885923142098" lon="15.020850288242732"><ele>154.0</ele><time>2026-05-02T09:37:09.836Z</time></trkpt><trkpt lat="40.64886583717315" lon="15.020750324836625"><ele>153.6</ele><time>2026-05-02T09:37:10.836Z</time></trkpt><trkpt lat="40.64887573778367" lon="15.020626414119713"><ele>153.2</ele><time>2026-05-02T09:37:11.836Z</time></trkpt><trkpt lat="40.64888625866072" lon="15.020494741515483"><ele>152.79999999999998</ele><time>2026-05-02T09:37:12.836Z</time></trkpt><trkpt lat="40.64889636665414" lon="15.020348471052598"><ele>152.4</ele><time>2026-05-02T09:37:13.836Z</time></trkpt><trkpt lat="40.6489064695679" lon="15.020216984608115"><ele>152.0</ele><time>2026-05-02T09:37:14.836Z</time></trkpt><trkpt lat="40.64891708188563" lon="15.020094295573582"><ele>152.0</ele><time>2026-05-02T09:37:15.836Z</time></trkpt><trkpt lat="40.64892632752458" lon="15.019989110182689"><ele>152.0</ele><time>2026-05-02T09:37:16.836Z</time></trkpt><trkpt lat="40.64893716764997" lon="15.019865784335254"><ele>152.0</ele><time>2026-05-02T09:37:17.836Z</time></trkpt><trkpt lat="40.64894728040019" lon="15.01975073372095"><ele>152.0</ele><time>2026-05-02T09:37:18.836Z</time></trkpt><trkpt lat="40.64895550316931" lon="15.019657185069983"><ele>152.0</ele><time>2026-05-02T09:37:19.836Z</time></trkpt><trkpt lat="40.64893899899631" lon="15.019526736112207"><ele>152.0</ele><time>2026-05-02T09:37:21.835Z</time></trkpt><trkpt lat="40.648947492163614" lon="15.019369776726919"><ele>151.4</ele><time>2026-05-02T09:37:23.835Z</time></trkpt><trkpt lat="40.64897137942113" lon="15.019250179433651"><ele>150.79999999999998</ele><time>2026-05-02T09:37:24.835Z</time></trkpt><trkpt lat="40.64900096380274" lon="15.019110724925902"><ele>150.2</ele><time>2026-05-02T09:37:25.835Z</time></trkpt><trkpt lat="40.64902849264967" lon="15.018972688030455"><ele>149.6</ele><time>2026-05-02T09:37:26.835Z</time></trkpt><trkpt lat="40.64904624868068" lon="15.018838252454701"><ele>149.0</ele><time>2026-05-02T09:37:27.835Z</time></trkpt><trkpt lat="40.64906128005452" lon="15.018708529436106"><ele>148.16666666666666</ele><time>2026-05-02T09:37:28.835Z</time></trkpt><trkpt lat="40.649067934648194" lon="15.018583306325995"><ele>147.33333333333331</ele><time>2026-05-02T09:37:29.835Z</time></trkpt><trkpt lat="40.64906472655913" lon="15.018457621161811"><ele>146.5</ele><time>2026-05-02T09:37:30.835Z</time></trkpt><trkpt lat="40.64905527950999" lon="15.01832117353475"><ele>145.66666666666666</ele><time>2026-05-02T09:37:31.835Z</time></trkpt><trkpt lat="40.64904828761826" lon="15.01821832167443"><ele>144.83333333333334</ele><time>2026-05-02T09:37:32.835Z</time></trkpt><trkpt lat="40.649036417370965" lon="15.018128862761168"><ele>144.0</ele><time>2026-05-02T09:37:33.835Z</time></trkpt><trkpt lat="40.64907132743505" lon="15.018025715610817"><ele>143.42857142857144</ele><time>2026-05-02T09:37:34.835Z</time></trkpt><trkpt lat="40.64906252541303" lon="15.017934891402286"><ele>142.85714285714286</ele><time>2026-05-02T09:37:35.835Z</time></trkpt><trkpt lat="40.64905263962786" lon="15.017832885528557"><ele>142.28571428571428</ele><time>2026-05-02T09:37:36.835Z</time></trkpt><trkpt lat="40.64903004452372" lon="15.017752113390431"><ele>141.71428571428572</ele><time>2026-05-02T09:37:37.835Z</time></trkpt><trkpt lat="40.64902949940394" lon="15.017664665830848"><ele>141.14285714285714</ele><time>2026-05-02T09:37:38.835Z</time></trkpt><trkpt lat="40.64901247406061" lon="15.017573588481216"><ele>140.57142857142858</ele><time>2026-05-02T09:37:39.835Z</time></trkpt><trkpt lat="40.64898220351275" lon="15.017491736237787"><ele>140.0</ele><time>2026-05-02T09:37:40.835Z</time></trkpt><trkpt lat="40.64895757420584" lon="15.017413721727227"><ele>139.66666666666666</ele><time>2026-05-02T09:37:41.835Z</time></trkpt><trkpt lat="40.64890056194917" lon="15.017270220850225"><ele>139.33333333333331</ele><time>2026-05-02T09:37:43.834Z</time></trkpt><trkpt lat="40.6488731940543" lon="15.017183299032114"><ele>139.0</ele><time>2026-05-02T09:37:44.834Z</time></trkpt><trkpt lat="40.648863850826686" lon="15.017092852227716"><ele>138.66666666666666</ele><time>2026-05-02T09:37:45.834Z</time></trkpt><trkpt lat="40.64886725281113" lon="15.016993647925176"><ele>138.33333333333334</ele><time>2026-05-02T09:37:46.834Z</time></trkpt><trkpt lat="40.64888779313397" lon="15.016876281235877"><ele>138.0</ele><time>2026-05-02T09:37:47.834Z</time></trkpt><trkpt lat="40.64891409620181" lon="15.016760279037207"><ele>137.8</ele><time>2026-05-02T09:37:48.834Z</time></trkpt><trkpt lat="40.64894195100338" lon="15.016638814253307"><ele>137.60000000000002</ele><time>2026-05-02T09:37:49.834Z</time></trkpt><trkpt lat="40.6489670596707" lon="15.016518170755049"><ele>137.39999999999998</ele><time>2026-05-02T09:37:50.834Z</time></trkpt><trkpt lat="40.648985127952066" lon="15.016395637671739"><ele>137.2</ele><time>2026-05-02T09:37:51.834Z</time></trkpt><trkpt lat="40.64899359225738" lon="15.016277672128384"><ele>137.0</ele><time>2026-05-02T09:37:52.834Z</time></trkpt><trkpt lat="40.64899436494239" lon="15.016156317367255"><ele>137.0</ele><time>2026-05-02T09:37:53.834Z</time></trkpt><trkpt lat="40.648985042499845" lon="15.016031200555279"><ele>137.0</ele><time>2026-05-02T09:37:54.834Z</time></trkpt><trkpt lat="40.64897813978426" lon="15.015906565406452"><ele>137.0</ele><time>2026-05-02T09:37:55.834Z</time></trkpt><trkpt lat="40.648980211429276" lon="15.015777740660063"><ele>137.0</ele><time>2026-05-02T09:37:56.834Z</time></trkpt><trkpt lat="40.64898210816711" lon="15.015653980120879"><ele>137.0</ele><time>2026-05-02T09:37:57.834Z</time></trkpt><trkpt lat="40.64899043047303" lon="15.015530168841867"><ele>136.6</ele><time>2026-05-02T09:37:58.834Z</time></trkpt><trkpt lat="40.649006710267415" lon="15.015402568083863"><ele>136.2</ele><time>2026-05-02T09:37:59.834Z</time></trkpt><trkpt lat="40.649015864329314" lon="15.015274483004584"><ele>135.8</ele><time>2026-05-02T09:38:00.834Z</time></trkpt><trkpt lat="40.649018460796206" lon="15.015156986459699"><ele>135.4</ele><time>2026-05-02T09:38:01.834Z</time></trkpt><trkpt lat="40.649015952493905" lon="15.015038730770382"><ele>135.0</ele><time>2026-05-02T09:38:02.834Z</time></trkpt><trkpt lat="40.64902579740476" lon="15.014929746284956"><ele>134.66666666666666</ele><time>2026-05-02T09:38:03.834Z</time></trkpt><trkpt lat="40.64906262626567" lon="15.014841111563795"><ele>134.33333333333334</ele><time>2026-05-02T09:38:04.833Z</time></trkpt><trkpt lat="40.64909756108755" lon="15.014769259775772"><ele>134.0</ele><time>2026-05-02T09:38:05.836Z</time></trkpt><trkpt lat="40.649144924641064" lon="15.014694808323227"><ele>133.66666666666669</ele><time>2026-05-02T09:38:06.836Z</time></trkpt><trkpt lat="40.649201307375336" lon="15.014619046288471"><ele>133.33333333333334</ele><time>2026-05-02T09:38:07.836Z</time></trkpt><trkpt lat="40.6492778874447" lon="15.014557138081617"><ele>133.0</ele><time>2026-05-02T09:38:08.836Z</time></trkpt><trkpt lat="40.64936613768442" lon="15.01448444541831"><ele>133.75</ele><time>2026-05-02T09:38:09.836Z</time></trkpt><trkpt lat="40.64946372295898" lon="15.014394212043882"><ele>134.5</ele><time>2026-05-02T09:38:10.836Z</time></trkpt><trkpt lat="40.64954573445573" lon="15.014250703862727"><ele>135.25</ele><time>2026-05-02T09:38:11.836Z</time></trkpt><trkpt lat="40.64963682872656" lon="15.014116868633984"><ele>136.0</ele><time>2026-05-02T09:38:12.836Z</time></trkpt><trkpt lat="40.649725011939985" lon="15.013975442314273"><ele>136.0</ele><time>2026-05-02T09:38:13.836Z</time></trkpt><trkpt lat="40.64982149167432" lon="15.013858159829017"><ele>136.0</ele><time>2026-05-02T09:38:14.836Z</time></trkpt><trkpt lat="40.649898311226735" lon="15.013738287516148"><ele>136.0</ele><time>2026-05-02T09:38:15.836Z</time></trkpt><trkpt lat="40.649959643346676" lon="15.013610211425458"><ele>136.0</ele><time>2026-05-02T09:38:16.836Z</time></trkpt><trkpt lat="40.65004361976711" lon="15.01351191588181"><ele>136.0</ele><time>2026-05-02T09:38:17.836Z</time></trkpt><trkpt lat="40.65011335670202" lon="15.01339441607055"><ele>136.0</ele><time>2026-05-02T09:38:18.836Z</time></trkpt><trkpt lat="40.65017996308543" lon="15.013277890587563"><ele>136.0</ele><time>2026-05-02T09:38:19.836Z</time></trkpt><trkpt lat="40.65024007316373" lon="15.013172024251675"><ele>136.0</ele><time>2026-05-02T09:38:20.836Z</time></trkpt><trkpt lat="40.65029605296714" lon="15.013059399849208"><ele>136.0</ele><time>2026-05-02T09:38:21.836Z</time></trkpt><trkpt lat="40.6503489377952" lon="15.012943340633145"><ele>135.75</ele><time>2026-05-02T09:38:22.836Z</time></trkpt><trkpt lat="40.6503925102625" lon="15.012823894652556"><ele>135.5</ele><time>2026-05-02T09:38:23.836Z</time></trkpt><trkpt lat="40.650450645151714" lon="15.012702691325071"><ele>135.25</ele><time>2026-05-02T09:38:24.836Z</time></trkpt><trkpt lat="40.65051617418911" lon="15.012562920646804"><ele>135.0</ele><time>2026-05-02T09:38:25.835Z</time></trkpt><trkpt lat="40.65058122377251" lon="15.012394377466329"><ele>134.66666666666666</ele><time>2026-05-02T09:38:26.835Z</time></trkpt><trkpt lat="40.65065336258019" lon="15.012208899933803"><ele>134.33333333333331</ele><time>2026-05-02T09:38:27.835Z</time></trkpt><trkpt lat="40.65072085746283" lon="15.01202207692507"><ele>134.0</ele><time>2026-05-02T09:38:28.835Z</time></trkpt><trkpt lat="40.650791584311456" lon="15.011827580115702"><ele>133.33333333333331</ele><time>2026-05-02T09:38:29.835Z</time></trkpt><trkpt lat="40.650863234149455" lon="15.011626210327355"><ele>132.66666666666666</ele><time>2026-05-02T09:38:30.835Z</time></trkpt><trkpt lat="40.650937265633324" lon="15.011417718190575"><ele>132.0</ele><time>2026-05-02T09:38:31.835Z</time></trkpt><trkpt lat="40.651007723982296" lon="15.011207186591626"><ele>132.0</ele><time>2026-05-02T09:38:32.835Z</time></trkpt><trkpt lat="40.651077513977356" lon="15.010994014408196"><ele>132.0</ele><time>2026-05-02T09:38:33.835Z</time></trkpt><trkpt lat="40.65114795416155" lon="15.010791587977664"><ele>132.0</ele><time>2026-05-02T09:38:34.835Z</time></trkpt><trkpt lat="40.65121548806392" lon="15.010607287515137"><ele>131.33333333333334</ele><time>2026-05-02T09:38:35.835Z</time></trkpt><trkpt lat="40.65128401484197" lon="15.01042082371274"><ele>130.66666666666669</ele><time>2026-05-02T09:38:36.835Z</time></trkpt><trkpt lat="40.65133989926975" lon="15.010221348643238"><ele>130.0</ele><time>2026-05-02T09:38:37.835Z</time></trkpt><trkpt lat="40.65138363023655" lon="15.010025593415211"><ele>130.0</ele><time>2026-05-02T09:38:38.835Z</time></trkpt><trkpt lat="40.651412212800736" lon="15.009821209270028"><ele>130.0</ele><time>2026-05-02T09:38:39.835Z</time></trkpt><trkpt lat="40.65143687653689" lon="15.009613375961319"><ele>130.0</ele><time>2026-05-02T09:38:40.835Z</time></trkpt><trkpt lat="40.651473449913134" lon="15.009412502368088"><ele>130.0</ele><time>2026-05-02T09:38:41.835Z</time></trkpt><trkpt lat="40.6515158694187" lon="15.009220991607922"><ele>130.0</ele><time>2026-05-02T09:38:42.835Z</time></trkpt><trkpt lat="40.65154461901996" lon="15.009014991012096"><ele>130.0</ele><time>2026-05-02T09:38:43.835Z</time></trkpt><trkpt lat="40.651564873337904" lon="15.008799053109803"><ele>129.75</ele><time>2026-05-02T09:38:44.835Z</time></trkpt><trkpt lat="40.651581147359984" lon="15.00859097853741"><ele>129.5</ele><time>2026-05-02T09:38:45.835Z</time></trkpt><trkpt lat="40.651595760341976" lon="15.008399530853154"><ele>129.25</ele><time>2026-05-02T09:38:46.835Z</time></trkpt><trkpt lat="40.651616828537854" lon="15.008217459147339"><ele>129.0</ele><time>2026-05-02T09:38:47.834Z</time></trkpt><trkpt lat="40.65165592920309" lon="15.008057871183926"><ele>129.0</ele><time>2026-05-02T09:38:48.834Z</time></trkpt><trkpt lat="40.651710910002016" lon="15.007919764533995"><ele>129.0</ele><time>2026-05-02T09:38:49.834Z</time></trkpt><trkpt lat="40.65177640741124" lon="15.007806972628067"><ele>129.0</ele><time>2026-05-02T09:38:50.834Z</time></trkpt><trkpt lat="40.65186135109023" lon="15.007718979260359"><ele>129.0</ele><time>2026-05-02T09:38:51.834Z</time></trkpt><trkpt lat="40.6519695633033" lon="15.007649044417711"><ele>129.0</ele><time>2026-05-02T09:38:52.834Z</time></trkpt><trkpt lat="40.65209162198358" lon="15.007593633375393"><ele>129.0</ele><time>2026-05-02T09:38:53.834Z</time></trkpt><trkpt lat="40.65222920545986" lon="15.007532715281698"><ele>129.0</ele><time>2026-05-02T09:38:54.834Z</time></trkpt><trkpt lat="40.652371033334" lon="15.007461543377998"><ele>129.0</ele><time>2026-05-02T09:38:55.834Z</time></trkpt><trkpt lat="40.652514806410416" lon="15.007388205245386"><ele>129.33333333333334</ele><time>2026-05-02T09:38:56.834Z</time></trkpt><trkpt lat="40.65266141130415" lon="15.007311525974224"><ele>129.66666666666669</ele><time>2026-05-02T09:38:57.834Z</time></trkpt><trkpt lat="40.652795398016515" lon="15.00722262338784"><ele>130.0</ele><time>2026-05-02T09:38:58.834Z</time></trkpt><trkpt lat="40.65292597117286" lon="15.007118726984846"><ele>130.75</ele><time>2026-05-02T09:38:59.834Z</time></trkpt><trkpt lat="40.65304866855445" lon="15.006998559679953"><ele>131.5</ele><time>2026-05-02T09:39:00.834Z</time></trkpt><trkpt lat="40.65317191259075" lon="15.006905669946104"><ele>132.25</ele><time>2026-05-02T09:39:01.834Z</time></trkpt><trkpt lat="40.65326326147235" lon="15.006811497212116"><ele>133.0</ele><time>2026-05-02T09:39:02.834Z</time></trkpt><trkpt lat="40.65333432709538" lon="15.006717877207251"><ele>132.75</ele><time>2026-05-02T09:39:03.834Z</time></trkpt><trkpt lat="40.65334384780836" lon="15.006576471496194"><ele>132.5</ele><time>2026-05-02T09:39:04.834Z</time></trkpt><trkpt lat="40.65336398861277" lon="15.006431948083522"><ele>132.25</ele><time>2026-05-02T09:39:05.834Z</time></trkpt><trkpt lat="40.653386454702556" lon="15.006263142513138"><ele>132.0</ele><time>2026-05-02T09:39:06.834Z</time></trkpt><trkpt lat="40.65341374071267" lon="15.006079166431903"><ele>132.0</ele><time>2026-05-02T09:39:07.834Z</time></trkpt><trkpt lat="40.65345078868256" lon="15.005891029967975"><ele>132.0</ele><time>2026-05-02T09:39:08.834Z</time></trkpt><trkpt lat="40.653489237736686" lon="15.005704913186952"><ele>132.0</ele><time>2026-05-02T09:39:09.833Z</time></trkpt><trkpt lat="40.65352889939317" lon="15.005518314801638"><ele>132.0</ele><time>2026-05-02T09:39:10.833Z</time></trkpt><trkpt lat="40.65359658527008" lon="15.00533665804467"><ele>132.0</ele><time>2026-05-02T09:39:11.833Z</time></trkpt><trkpt lat="40.65364201884883" lon="15.005143279874147"><ele>132.0</ele><time>2026-05-02T09:39:12.833Z</time></trkpt><trkpt lat="40.65368921690286" lon="15.004945138846667"><ele>132.0</ele><time>2026-05-02T09:39:13.833Z</time></trkpt><trkpt lat="40.65373495967968" lon="15.00474330702843"><ele>132.0</ele><time>2026-05-02T09:39:14.833Z</time></trkpt><trkpt lat="40.65378291880839" lon="15.004544724625354"><ele>132.0</ele><time>2026-05-02T09:39:15.833Z</time></trkpt><trkpt lat="40.65384450587827" lon="15.00435103112473"><ele>132.0</ele><time>2026-05-02T09:39:16.833Z</time></trkpt><trkpt lat="40.653920398811394" lon="15.004162780050386"><ele>132.33333333333334</ele><time>2026-05-02T09:39:17.833Z</time></trkpt><trkpt lat="40.65400853307473" lon="15.00397859793576"><ele>132.66666666666669</ele><time>2026-05-02T09:39:18.833Z</time></trkpt><trkpt lat="40.65409749350491" lon="15.003789256322808"><ele>133.0</ele><time>2026-05-02T09:39:19.833Z</time></trkpt><trkpt lat="40.65418117659867" lon="15.003609239983469"><ele>133.0</ele><time>2026-05-02T09:39:20.833Z</time></trkpt><trkpt lat="40.654254597487835" lon="15.003447885622034"><ele>133.0</ele><time>2026-05-02T09:39:21.833Z</time></trkpt><trkpt lat="40.65432720866519" lon="15.003298011549083"><ele>133.0</ele><time>2026-05-02T09:39:22.833Z</time></trkpt><trkpt lat="40.65439866210947" lon="15.003156071246181"><ele>133.0</ele><time>2026-05-02T09:39:23.833Z</time></trkpt><trkpt lat="40.6544739731677" lon="15.003013683504907"><ele>133.0</ele><time>2026-05-02T09:39:24.833Z</time></trkpt><trkpt lat="40.65455589849199" lon="15.002870484176121"><ele>133.0</ele><time>2026-05-02T09:39:25.833Z</time></trkpt><trkpt lat="40.6546525208624" lon="15.002718642049288"><ele>133.0</ele><time>2026-05-02T09:39:26.833Z</time></trkpt><trkpt lat="40.65476656805827" lon="15.002566230018088"><ele>133.0</ele><time>2026-05-02T09:39:27.833Z</time></trkpt><trkpt lat="40.654894647488725" lon="15.002412663228183"><ele>133.66666666666669</ele><time>2026-05-02T09:39:28.833Z</time></trkpt><trkpt lat="40.65503276246226" lon="15.002256939874"><ele>134.33333333333334</ele><time>2026-05-02T09:39:29.833Z</time></trkpt><trkpt lat="40.655170157729984" lon="15.002101150829878"><ele>135.0</ele><time>2026-05-02T09:39:30.833Z</time></trkpt><trkpt lat="40.65531097066253" lon="15.001946564365282"><ele>135.66666666666666</ele><time>2026-05-02T09:39:31.832Z</time></trkpt><trkpt lat="40.65544848522724" lon="15.001790138312053"><ele>136.33333333333331</ele><time>2026-05-02T09:39:32.832Z</time></trkpt><trkpt lat="40.65557203651371" lon="15.001645409884077"><ele>137.0</ele><time>2026-05-02T09:39:33.832Z</time></trkpt><trkpt lat="40.65568759966" lon="15.001509222776383"><ele>137.66666666666666</ele><time>2026-05-02T09:39:34.832Z</time></trkpt><trkpt lat="40.65581084626544" lon="15.001363681744257"><ele>138.33333333333334</ele><time>2026-05-02T09:39:35.832Z</time></trkpt><trkpt lat="40.65594014187787" lon="15.001206790992288"><ele>139.0</ele><time>2026-05-02T09:39:36.832Z</time></trkpt><trkpt lat="40.656088895313225" lon="15.001062286175985"><ele>138.66666666666669</ele><time>2026-05-02T09:39:37.832Z</time></trkpt><trkpt lat="40.656239890461414" lon="15.000890282209086"><ele>138.33333333333334</ele><time>2026-05-02T09:39:38.832Z</time></trkpt><trkpt lat="40.65639621133085" lon="15.000710079878385"><ele>138.0</ele><time>2026-05-02T09:39:39.832Z</time></trkpt><trkpt lat="40.65656789474885" lon="15.000524758120182"><ele>137.5</ele><time>2026-05-02T09:39:40.832Z</time></trkpt><trkpt lat="40.65675462159261" lon="15.000330184376875"><ele>137.0</ele><time>2026-05-02T09:39:41.832Z</time></trkpt><trkpt lat="40.65693418452202" lon="15.000144261761866"><ele>137.0</ele><time>2026-05-02T09:39:42.832Z</time></trkpt><trkpt lat="40.65710160173259" lon="14.999966535377993"><ele>137.0</ele><time>2026-05-02T09:39:43.832Z</time></trkpt><trkpt lat="40.65726196572399" lon="14.999784912408806"><ele>137.0</ele><time>2026-05-02T09:39:44.832Z</time></trkpt><trkpt lat="40.6574198697403" lon="14.999600760998796"><ele>137.0</ele><time>2026-05-02T09:39:45.832Z</time></trkpt><trkpt lat="40.65757622665574" lon="14.99942010513303"><ele>137.0</ele><time>2026-05-02T09:39:46.832Z</time></trkpt><trkpt lat="40.65772736898094" lon="14.999244887611173"><ele>137.0</ele><time>2026-05-02T09:39:47.832Z</time></trkpt><trkpt lat="40.657866315431555" lon="14.999080098371868"><ele>136.66666666666666</ele><time>2026-05-02T09:39:48.832Z</time></trkpt><trkpt lat="40.65800085605602" lon="14.998921029671227"><ele>136.33333333333334</ele><time>2026-05-02T09:39:49.832Z</time></trkpt><trkpt lat="40.658133071683935" lon="14.998763010186893"><ele>136.0</ele><time>2026-05-02T09:39:50.832Z</time></trkpt><trkpt lat="40.65826648751804" lon="14.998606645467351"><ele>136.0</ele><time>2026-05-02T09:39:51.832Z</time></trkpt><trkpt lat="40.658396070744935" lon="14.998457740252393"><ele>136.0</ele><time>2026-05-02T09:39:52.832Z</time></trkpt><trkpt lat="40.65852244312145" lon="14.998310938803396"><ele>136.0</ele><time>2026-05-02T09:39:53.831Z</time></trkpt><trkpt lat="40.6586338487693" lon="14.998161615332195"><ele>135.75</ele><time>2026-05-02T09:39:54.831Z</time></trkpt><trkpt lat="40.658733015901916" lon="14.99800929501015"><ele>135.5</ele><time>2026-05-02T09:39:55.831Z</time></trkpt><trkpt lat="40.6588118826894" lon="14.997842319230989"><ele>135.25</ele><time>2026-05-02T09:39:56.831Z</time></trkpt><trkpt lat="40.65887653049193" lon="14.99766920157882"><ele>135.0</ele><time>2026-05-02T09:39:57.831Z</time></trkpt><trkpt lat="40.65891600845676" lon="14.997469491063569"><ele>133.0</ele><time>2026-05-02T09:39:58.831Z</time></trkpt><trkpt lat="40.65893355504213" lon="14.997256833042176"><ele>131.0</ele><time>2026-05-02T09:39:59.831Z</time></trkpt><trkpt lat="40.65893273012669" lon="14.997042697057891"><ele>129.0</ele><time>2026-05-02T09:40:00.831Z</time></trkpt><trkpt lat="40.65892067517851" lon="14.996817628246125"><ele>128.66666666666666</ele><time>2026-05-02T09:40:01.831Z</time></trkpt><trkpt lat="40.65890817563544" lon="14.996573935585026"><ele>128.33333333333331</ele><time>2026-05-02T09:40:02.831Z</time></trkpt><trkpt lat="40.65888773198304" lon="14.9963146174205"><ele>128.0</ele><time>2026-05-02T09:40:03.831Z</time></trkpt><trkpt lat="40.65886700061563" lon="14.996042289235088"><ele>129.0</ele><time>2026-05-02T09:40:04.831Z</time></trkpt><trkpt lat="40.6588458604226" lon="14.995756447141822"><ele>130.0</ele><time>2026-05-02T09:40:05.831Z</time></trkpt><trkpt lat="40.6588258039405" lon="14.995462058393057"><ele>131.0</ele><time>2026-05-02T09:40:06.831Z</time></trkpt><trkpt lat="40.65880532192478" lon="14.995154427774096"><ele>130.5</ele><time>2026-05-02T09:40:07.831Z</time></trkpt><trkpt lat="40.65880052871334" lon="14.994836978958878"><ele>130.0</ele><time>2026-05-02T09:40:08.831Z</time></trkpt><trkpt lat="40.65878363957199" lon="14.994526663959375"><ele>130.0</ele><time>2026-05-02T09:40:09.831Z</time></trkpt><trkpt lat="40.65876602963025" lon="14.994225570099285"><ele>130.0</ele><time>2026-05-02T09:40:10.831Z</time></trkpt><trkpt lat="40.65875305127731" lon="14.993937307992384"><ele>130.0</ele><time>2026-05-02T09:40:11.833Z</time></trkpt><trkpt lat="40.658743997177766" lon="14.993670429774282"><ele>130.33333333333334</ele><time>2026-05-02T09:40:12.834Z</time></trkpt><trkpt lat="40.65873410097049" lon="14.99342251441523"><ele>130.66666666666666</ele><time>2026-05-02T09:40:13.834Z</time></trkpt><trkpt lat="40.658724643636994" lon="14.993206432276764"><ele>131.0</ele><time>2026-05-02T09:40:14.834Z</time></trkpt><trkpt lat="40.658705925612345" lon="14.993016949855347"><ele>131.0</ele><time>2026-05-02T09:40:15.833Z</time></trkpt><trkpt lat="40.65867773362578" lon="14.99283908587156"><ele>131.0</ele><time>2026-05-02T09:40:16.833Z</time></trkpt><trkpt lat="40.658621541872314" lon="14.992673423476067"><ele>131.0</ele><time>2026-05-02T09:40:17.834Z</time></trkpt><trkpt lat="40.65855386309101" lon="14.992504331644957"><ele>131.0</ele><time>2026-05-02T09:40:18.833Z</time></trkpt><trkpt lat="40.65845111913777" lon="14.992323249827427"><ele>131.0</ele><time>2026-05-02T09:40:19.833Z</time></trkpt><trkpt lat="40.658341731767685" lon="14.99214341413641"><ele>131.0</ele><time>2026-05-02T09:40:20.833Z</time></trkpt><trkpt lat="40.6582392954521" lon="14.99196914344174"><ele>131.0</ele><time>2026-05-02T09:40:21.833Z</time></trkpt><trkpt lat="40.658157650385995" lon="14.991824098358839"><ele>131.0</ele><time>2026-05-02T09:40:22.833Z</time></trkpt><trkpt lat="40.6580852165689" lon="14.991690372094023"><ele>131.0</ele><time>2026-05-02T09:40:23.833Z</time></trkpt><trkpt lat="40.65803230572957" lon="14.991549411936084"><ele>131.0</ele><time>2026-05-02T09:40:24.833Z</time></trkpt><trkpt lat="40.65800193015222" lon="14.991400517623616"><ele>131.0</ele><time>2026-05-02T09:40:25.833Z</time></trkpt><trkpt lat="40.65798346674187" lon="14.991241627334599"><ele>132.5</ele><time>2026-05-02T09:40:26.833Z</time></trkpt><trkpt lat="40.65799528754474" lon="14.991083962029236"><ele>134.0</ele><time>2026-05-02T09:40:27.833Z</time></trkpt><trkpt lat="40.65802046963378" lon="14.990936939490977"><ele>135.5</ele><time>2026-05-02T09:40:28.833Z</time></trkpt><trkpt lat="40.65805268232286" lon="14.990791840814092"><ele>137.0</ele><time>2026-05-02T09:40:29.833Z</time></trkpt><trkpt lat="40.6581012754971" lon="14.990637107958884"><ele>138.0</ele><time>2026-05-02T09:40:30.833Z</time></trkpt><trkpt lat="40.65816821517799" lon="14.990477456496862"><ele>139.0</ele><time>2026-05-02T09:40:31.833Z</time></trkpt><trkpt lat="40.65824821596918" lon="14.990303892338558"><ele>140.0</ele><time>2026-05-02T09:40:32.833Z</time></trkpt><trkpt lat="40.65831348936121" lon="14.990124912208504"><ele>141.0</ele><time>2026-05-02T09:40:33.833Z</time></trkpt><trkpt lat="40.65837400847855" lon="14.989934313782669"><ele>141.0</ele><time>2026-05-02T09:40:34.833Z</time></trkpt><trkpt lat="40.658401647206" lon="14.989725246831828"><ele>141.0</ele><time>2026-05-02T09:40:35.832Z</time></trkpt><trkpt lat="40.65840843154062" lon="14.989521860236191"><ele>141.0</ele><time>2026-05-02T09:40:36.832Z</time></trkpt><trkpt lat="40.65840153290681" lon="14.989300829055898"><ele>140.66666666666666</ele><time>2026-05-02T09:40:37.832Z</time></trkpt><trkpt lat="40.65840207099941" lon="14.989077868058933"><ele>140.33333333333331</ele><time>2026-05-02T09:40:38.832Z</time></trkpt><trkpt lat="40.6583993087586" lon="14.988837865127877"><ele>140.0</ele><time>2026-05-02T09:40:39.832Z</time></trkpt><trkpt lat="40.658400079306034" lon="14.988593603478234"><ele>140.0</ele><time>2026-05-02T09:40:40.832Z</time></trkpt><trkpt lat="40.65840782615226" lon="14.988374453818079"><ele>140.0</ele><time>2026-05-02T09:40:41.832Z</time></trkpt><trkpt lat="40.65841800968519" lon="14.988174438001607"><ele>140.0</ele><time>2026-05-02T09:40:42.832Z</time></trkpt><trkpt lat="40.658436797546635" lon="14.987991956401899"><ele>140.0</ele><time>2026-05-02T09:40:43.832Z</time></trkpt><trkpt lat="40.658475737041755" lon="14.987828363018828"><ele>140.0</ele><time>2026-05-02T09:40:44.832Z</time></trkpt><trkpt lat="40.65855018937775" lon="14.98769338441782"><ele>140.0</ele><time>2026-05-02T09:40:45.832Z</time></trkpt><trkpt lat="40.65861302144062" lon="14.98755046021945"><ele>140.0</ele><time>2026-05-02T09:40:46.832Z</time></trkpt><trkpt lat="40.65870787078695" lon="14.987443412247163"><ele>141.0</ele><time>2026-05-02T09:40:47.832Z</time></trkpt><trkpt lat="40.658833285857" lon="14.987385546818192"><ele>142.0</ele><time>2026-05-02T09:40:48.832Z</time></trkpt><trkpt lat="40.65897007413289" lon="14.987320031075813"><ele>143.0</ele><time>2026-05-02T09:40:49.832Z</time></trkpt><trkpt lat="40.65912550198686" lon="14.98725256650225"><ele>144.0</ele><time>2026-05-02T09:40:50.832Z</time></trkpt><trkpt lat="40.65928861812006" lon="14.987183722076722"><ele>144.0</ele><time>2026-05-02T09:40:51.832Z</time></trkpt><trkpt lat="40.659443700150945" lon="14.987118267328635"><ele>144.0</ele><time>2026-05-02T09:40:52.832Z</time></trkpt><trkpt lat="40.659597204656436" lon="14.987047444059842"><ele>144.0</ele><time>2026-05-02T09:40:53.832Z</time></trkpt><trkpt lat="40.659758631987565" lon="14.986990431631336"><ele>144.75</ele><time>2026-05-02T09:40:54.832Z</time></trkpt><trkpt lat="40.65990603480791" lon="14.986945133322688"><ele>145.5</ele><time>2026-05-02T09:40:55.832Z</time></trkpt><trkpt lat="40.66003841757474" lon="14.986904049909343"><ele>146.25</ele><time>2026-05-02T09:40:56.831Z</time></trkpt><trkpt lat="40.66017181712701" lon="14.98687791917762"><ele>147.0</ele><time>2026-05-02T09:40:57.831Z</time></trkpt><trkpt lat="40.660324001626094" lon="14.986853886147124"><ele>147.33333333333334</ele><time>2026-05-02T09:40:58.831Z</time></trkpt><trkpt lat="40.660486280856134" lon="14.986849805832579"><ele>147.66666666666669</ele><time>2026-05-02T09:40:59.831Z</time></trkpt><trkpt lat="40.660658914150396" lon="14.986850763313852"><ele>148.0</ele><time>2026-05-02T09:41:00.831Z</time></trkpt><trkpt lat="40.660820249405546" lon="14.986859320221042"><ele>148.0</ele><time>2026-05-02T09:41:01.831Z</time></trkpt><trkpt lat="40.660972947212144" lon="14.98685502290382"><ele>148.0</ele><time>2026-05-02T09:41:02.831Z</time></trkpt><trkpt lat="40.66111372027285" lon="14.986842597459255"><ele>148.0</ele><time>2026-05-02T09:41:03.831Z</time></trkpt><trkpt lat="40.66124776442082" lon="14.986822179339045"><ele>148.0</ele><time>2026-05-02T09:41:04.831Z</time></trkpt><trkpt lat="40.66137150906813" lon="14.986787443667097"><ele>148.25</ele><time>2026-05-02T09:41:05.831Z</time></trkpt><trkpt lat="40.66147702346928" lon="14.986724582908876"><ele>148.5</ele><time>2026-05-02T09:41:06.831Z</time></trkpt><trkpt lat="40.66157505785568" lon="14.986631083093647"><ele>148.75</ele><time>2026-05-02T09:41:07.831Z</time></trkpt><trkpt lat="40.66167025610945" lon="14.986520118550363"><ele>149.0</ele><time>2026-05-02T09:41:08.831Z</time></trkpt><trkpt lat="40.66175323417364" lon="14.986388885623557"><ele>149.2</ele><time>2026-05-02T09:41:09.831Z</time></trkpt><trkpt lat="40.66184005718169" lon="14.98625221960196"><ele>149.4</ele><time>2026-05-02T09:41:10.831Z</time></trkpt><trkpt lat="40.66189135335307" lon="14.986102135603527"><ele>149.6</ele><time>2026-05-02T09:41:11.831Z</time></trkpt><trkpt lat="40.66195718207415" lon="14.98599785745301"><ele>149.8</ele><time>2026-05-02T09:41:12.831Z</time></trkpt><trkpt lat="40.66199233484118" lon="14.985915372741145"><ele>150.0</ele><time>2026-05-02T09:41:13.831Z</time></trkpt><trkpt lat="40.66203410199816" lon="14.985798873367116"><ele>151.0</ele><time>2026-05-02T09:41:15.831Z</time></trkpt><trkpt lat="40.662061018013254" lon="14.98570950283271"><ele>152.0</ele><time>2026-05-02T09:41:18.83Z</time></trkpt><trkpt lat="40.66193317513739" lon="14.98560853928287"><ele>153.0</ele><time>2026-05-02T09:41:19.83Z</time></trkpt><trkpt lat="40.661834066219626" lon="14.98553251806731"><ele>154.0</ele><time>2026-05-02T09:41:20.83Z</time></trkpt><trkpt lat="40.66171116745346" lon="14.985443114757466"><ele>154.0</ele><time>2026-05-02T09:41:21.83Z</time></trkpt><trkpt lat="40.661593801712264" lon="14.985358259724366"><ele>154.0</ele><time>2026-05-02T09:41:22.83Z</time></trkpt><trkpt lat="40.661478906062726" lon="14.985278975195406"><ele>154.0</ele><time>2026-05-02T09:41:23.83Z</time></trkpt><trkpt lat="40.66136973235607" lon="14.985199381833421"><ele>154.0</ele><time>2026-05-02T09:41:24.83Z</time></trkpt><trkpt lat="40.66126594665428" lon="14.985122433358326"><ele>154.0</ele><time>2026-05-02T09:41:25.83Z</time></trkpt><trkpt lat="40.66116225127486" lon="14.985049301347868"><ele>154.0</ele><time>2026-05-02T09:41:26.83Z</time></trkpt><trkpt lat="40.66106247036335" lon="14.984979464167886"><ele>154.0</ele><time>2026-05-02T09:41:27.83Z</time></trkpt><trkpt lat="40.66096215829528" lon="14.98490529737992"><ele>154.0</ele><time>2026-05-02T09:41:28.83Z</time></trkpt><trkpt lat="40.66085289825114" lon="14.984829014977818"><ele>153.0</ele><time>2026-05-02T09:41:29.83Z</time></trkpt><trkpt lat="40.660736965415005" lon="14.984751863285144"><ele>152.0</ele><time>2026-05-02T09:41:30.83Z</time></trkpt><trkpt lat="40.660617402509494" lon="14.984674868699734"><ele>151.0</ele><time>2026-05-02T09:41:31.83Z</time></trkpt><trkpt lat="40.66048914204124" lon="14.98459470413921"><ele>150.0</ele><time>2026-05-02T09:41:32.83Z</time></trkpt><trkpt lat="40.660368759225804" lon="14.984492692365745"><ele>149.33333333333334</ele><time>2026-05-02T09:41:33.83Z</time></trkpt><trkpt lat="40.66023575245739" lon="14.984400905110963"><ele>148.66666666666669</ele><time>2026-05-02T09:41:34.83Z</time></trkpt><trkpt lat="40.660100425556806" lon="14.984303688242553"><ele>148.0</ele><time>2026-05-02T09:41:35.83Z</time></trkpt><trkpt lat="40.65997032529049" lon="14.98421112278116"><ele>147.66666666666669</ele><time>2026-05-02T09:41:36.83Z</time></trkpt><trkpt lat="40.65983856147304" lon="14.984116585793235"><ele>147.33333333333334</ele><time>2026-05-02T09:41:37.83Z</time></trkpt><trkpt lat="40.65970708838769" lon="14.984023224230697"><ele>147.0</ele><time>2026-05-02T09:41:38.83Z</time></trkpt><trkpt lat="40.6595712404353" lon="14.983931534841378"><ele>147.0</ele><time>2026-05-02T09:41:39.83Z</time></trkpt><trkpt lat="40.659434618102225" lon="14.983837755290493"><ele>147.0</ele><time>2026-05-02T09:41:40.829Z</time></trkpt><trkpt lat="40.65929970630498" lon="14.983740558445374"><ele>147.0</ele><time>2026-05-02T09:41:41.829Z</time></trkpt><trkpt lat="40.65916446494544" lon="14.983644320331875"><ele>147.0</ele><time>2026-05-02T09:41:42.829Z</time></trkpt><trkpt lat="40.659028511570554" lon="14.983547294101227"><ele>147.0</ele><time>2026-05-02T09:41:43.829Z</time></trkpt><trkpt lat="40.658889020285606" lon="14.983448137522432"><ele>147.0</ele><time>2026-05-02T09:41:44.829Z</time></trkpt><trkpt lat="40.658749899159275" lon="14.983346775355784"><ele>146.0</ele><time>2026-05-02T09:41:45.829Z</time></trkpt><trkpt lat="40.65861033268817" lon="14.98325135475061"><ele>145.0</ele><time>2026-05-02T09:41:46.829Z</time></trkpt><trkpt lat="40.658477378856766" lon="14.983160107947821"><ele>144.0</ele><time>2026-05-02T09:41:47.829Z</time></trkpt><trkpt lat="40.6583480128656" lon="14.983071904584877"><ele>144.0</ele><time>2026-05-02T09:41:48.829Z</time></trkpt><trkpt lat="40.65822618578901" lon="14.98298337533087"><ele>144.0</ele><time>2026-05-02T09:41:49.829Z</time></trkpt><trkpt lat="40.6581075573485" lon="14.982898356319772"><ele>144.0</ele><time>2026-05-02T09:41:50.829Z</time></trkpt><trkpt lat="40.657992335667785" lon="14.982815232752573"><ele>144.0</ele><time>2026-05-02T09:41:51.829Z</time></trkpt><trkpt lat="40.65787982128947" lon="14.982733751798234"><ele>143.5</ele><time>2026-05-02T09:41:52.829Z</time></trkpt><trkpt lat="40.65776964024292" lon="14.982659339621803"><ele>143.0</ele><time>2026-05-02T09:41:53.829Z</time></trkpt><trkpt lat="40.657659361294016" lon="14.982588842896341"><ele>142.5</ele><time>2026-05-02T09:41:54.829Z</time></trkpt><trkpt lat="40.6575453113416" lon="14.982518111253176"><ele>142.0</ele><time>2026-05-02T09:41:55.829Z</time></trkpt><trkpt lat="40.657442823386795" lon="14.982420196605869"><ele>141.75</ele><time>2026-05-02T09:41:56.829Z</time></trkpt><trkpt lat="40.657328195384785" lon="14.982342687972938"><ele>141.5</ele><time>2026-05-02T09:41:57.829Z</time></trkpt><trkpt lat="40.65721435058287" lon="14.982270895719994"><ele>141.25</ele><time>2026-05-02T09:41:58.829Z</time></trkpt><trkpt lat="40.657103618486666" lon="14.982199641389911"><ele>141.0</ele><time>2026-05-02T09:41:59.829Z</time></trkpt><trkpt lat="40.656994913696686" lon="14.982124590632555"><ele>141.25</ele><time>2026-05-02T09:42:00.829Z</time></trkpt><trkpt lat="40.65688608321599" lon="14.982050151489421"><ele>141.5</ele><time>2026-05-02T09:42:01.829Z</time></trkpt><trkpt lat="40.656787563117014" lon="14.981966093000997"><ele>141.75</ele><time>2026-05-02T09:42:02.828Z</time></trkpt><trkpt lat="40.656691566307046" lon="14.9818954175137"><ele>142.0</ele><time>2026-05-02T09:42:03.828Z</time></trkpt><trkpt lat="40.65659208380498" lon="14.981836730412095"><ele>142.0</ele><time>2026-05-02T09:42:04.828Z</time></trkpt><trkpt lat="40.65649938407695" lon="14.981775485380966"><ele>142.0</ele><time>2026-05-02T09:42:05.828Z</time></trkpt><trkpt lat="40.65640491586174" lon="14.981708388188398"><ele>142.0</ele><time>2026-05-02T09:42:06.828Z</time></trkpt><trkpt lat="40.656303697692046" lon="14.981633167216865"><ele>142.0</ele><time>2026-05-02T09:42:07.828Z</time></trkpt><trkpt lat="40.656200247351954" lon="14.981561551126992"><ele>142.0</ele><time>2026-05-02T09:42:08.828Z</time></trkpt><trkpt lat="40.65609600043227" lon="14.981512638133623"><ele>141.79999999999998</ele><time>2026-05-02T09:42:09.828Z</time></trkpt><trkpt lat="40.65600519671784" lon="14.981443545201024"><ele>141.6</ele><time>2026-05-02T09:42:10.828Z</time></trkpt><trkpt lat="40.65591765791608" lon="14.981382691179277"><ele>141.39999999999998</ele><time>2026-05-02T09:42:11.828Z</time></trkpt><trkpt lat="40.65583252364036" lon="14.981324855849397"><ele>141.2</ele><time>2026-05-02T09:42:12.828Z</time></trkpt><trkpt lat="40.6557560565527" lon="14.981270085088386"><ele>141.0</ele><time>2026-05-02T09:42:13.828Z</time></trkpt><trkpt lat="40.65568921552412" lon="14.981213942722786"><ele>141.0</ele><time>2026-05-02T09:42:14.828Z</time></trkpt><trkpt lat="40.65562444656019" lon="14.981163888934066"><ele>141.0</ele><time>2026-05-02T09:42:15.828Z</time></trkpt><trkpt lat="40.65555863103045" lon="14.981117453732946"><ele>141.0</ele><time>2026-05-02T09:42:16.828Z</time></trkpt><trkpt lat="40.65549458704584" lon="14.981074903872242"><ele>141.0</ele><time>2026-05-02T09:42:17.831Z</time></trkpt><trkpt lat="40.6554320071847" lon="14.981039955874575"><ele>141.0</ele><time>2026-05-02T09:42:18.831Z</time></trkpt><trkpt lat="40.65537198910901" lon="14.980997846639712"><ele>141.0</ele><time>2026-05-02T09:42:19.831Z</time></trkpt><trkpt lat="40.655274664949744" lon="14.980915457564734"><ele>140.6</ele><time>2026-05-02T09:42:21.831Z</time></trkpt><trkpt lat="40.655191895623695" lon="14.980842364617665"><ele>140.2</ele><time>2026-05-02T09:42:23.831Z</time></trkpt><trkpt lat="40.65511824697204" lon="14.980796827828389"><ele>139.8</ele><time>2026-05-02T09:42:25.831Z</time></trkpt><trkpt lat="40.65505501754467" lon="14.980737751444751"><ele>139.4</ele><time>2026-05-02T09:42:27.831Z</time></trkpt><trkpt lat="40.65494744626641" lon="14.980655511633016"><ele>139.0</ele><time>2026-05-02T09:42:29.831Z</time></trkpt><trkpt lat="40.65486779293135" lon="14.980617195307676"><ele>139.0</ele><time>2026-05-02T09:42:30.831Z</time></trkpt><trkpt lat="40.65478464944127" lon="14.980577547575729"><ele>139.0</ele><time>2026-05-02T09:42:31.831Z</time></trkpt><trkpt lat="40.65472362485648" lon="14.980490648670875"><ele>139.0</ele><time>2026-05-02T09:42:32.831Z</time></trkpt><trkpt lat="40.654648346085295" lon="14.980432585495866"><ele>139.0</ele><time>2026-05-02T09:42:33.83Z</time></trkpt><trkpt lat="40.65456999634699" lon="14.98037509803212"><ele>139.0</ele><time>2026-05-02T09:42:34.83Z</time></trkpt><trkpt lat="40.65449356906252" lon="14.980316144691313"><ele>139.0</ele><time>2026-05-02T09:42:35.83Z</time></trkpt><trkpt lat="40.654409466452265" lon="14.980254129791563"><ele>139.0</ele><time>2026-05-02T09:42:36.83Z</time></trkpt><trkpt lat="40.654328086184236" lon="14.980193850000065"><ele>139.0</ele><time>2026-05-02T09:42:37.83Z</time></trkpt><trkpt lat="40.654243727835656" lon="14.980142610055942"><ele>139.0</ele><time>2026-05-02T09:42:38.83Z</time></trkpt><trkpt lat="40.654159512581685" lon="14.980090913594205"><ele>139.0</ele><time>2026-05-02T09:42:39.83Z</time></trkpt><trkpt lat="40.65407931984351" lon="14.980035302174697"><ele>139.0</ele><time>2026-05-02T09:42:40.83Z</time></trkpt><trkpt lat="40.65400020957637" lon="14.979978586912399"><ele>139.0</ele><time>2026-05-02T09:42:41.83Z</time></trkpt><trkpt lat="40.653912209096625" lon="14.97994145970394"><ele>139.0</ele><time>2026-05-02T09:42:42.83Z</time></trkpt><trkpt lat="40.65384058917077" lon="14.979890269374083"><ele>139.0</ele><time>2026-05-02T09:42:43.83Z</time></trkpt><trkpt lat="40.65376897042864" lon="14.979837267688927"><ele>139.0</ele><time>2026-05-02T09:42:44.83Z</time></trkpt><trkpt lat="40.65369081374295" lon="14.979782072108394"><ele>139.0</ele><time>2026-05-02T09:42:45.83Z</time></trkpt><trkpt lat="40.65360138006508" lon="14.979729359642041"><ele>139.0</ele><time>2026-05-02T09:42:46.83Z</time></trkpt><trkpt lat="40.65350931707892" lon="14.979663388734512"><ele>138.8</ele><time>2026-05-02T09:42:47.83Z</time></trkpt><trkpt lat="40.65341957588605" lon="14.97960185488595"><ele>138.60000000000002</ele><time>2026-05-02T09:42:48.83Z</time></trkpt><trkpt lat="40.65332718673787" lon="14.979536801167832"><ele>138.4</ele><time>2026-05-02T09:42:49.83Z</time></trkpt><trkpt lat="40.65323238961099" lon="14.979469948630515"><ele>138.20000000000002</ele><time>2026-05-02T09:42:50.83Z</time></trkpt><trkpt lat="40.653138160570784" lon="14.979406826792077"><ele>138.0</ele><time>2026-05-02T09:42:51.83Z</time></trkpt><trkpt lat="40.653066693658566" lon="14.979316914913598"><ele>138.0</ele><time>2026-05-02T09:42:52.83Z</time></trkpt><trkpt lat="40.65298335727912" lon="14.979251076663898"><ele>138.0</ele><time>2026-05-02T09:42:53.83Z</time></trkpt><trkpt lat="40.65290354291064" lon="14.979193219925982"><ele>138.0</ele><time>2026-05-02T09:42:54.83Z</time></trkpt><trkpt lat="40.652823597742085" lon="14.979137363597395"><ele>138.0</ele><time>2026-05-02T09:42:55.829Z</time></trkpt><trkpt lat="40.65273524378013" lon="14.979083198065378"><ele>138.0</ele><time>2026-05-02T09:42:56.829Z</time></trkpt><trkpt lat="40.652645331461216" lon="14.97902291407546"><ele>137.25</ele><time>2026-05-02T09:42:57.829Z</time></trkpt><trkpt lat="40.65254881599746" lon="14.978958245015091"><ele>136.5</ele><time>2026-05-02T09:42:58.829Z</time></trkpt><trkpt lat="40.652446178532344" lon="14.978894329554363"><ele>135.75</ele><time>2026-05-02T09:42:59.829Z</time></trkpt><trkpt lat="40.65233608721851" lon="14.978830614664298"><ele>135.0</ele><time>2026-05-02T09:43:00.829Z</time></trkpt><trkpt lat="40.65220807476959" lon="14.9787491438466"><ele>135.0</ele><time>2026-05-02T09:43:01.829Z</time></trkpt><trkpt lat="40.652074367468806" lon="14.9786638740747"><ele>135.0</ele><time>2026-05-02T09:43:02.829Z</time></trkpt><trkpt lat="40.65195065056461" lon="14.978579805638338"><ele>135.0</ele><time>2026-05-02T09:43:03.829Z</time></trkpt><trkpt lat="40.65183263787293" lon="14.97849320239909"><ele>135.0</ele><time>2026-05-02T09:43:04.829Z</time></trkpt><trkpt lat="40.651711857644464" lon="14.978407883317674"><ele>134.5</ele><time>2026-05-02T09:43:05.829Z</time></trkpt><trkpt lat="40.65158616553912" lon="14.978323377192753"><ele>134.0</ele><time>2026-05-02T09:43:06.829Z</time></trkpt><trkpt lat="40.65148524730552" lon="14.978224126973595"><ele>133.5</ele><time>2026-05-02T09:43:07.829Z</time></trkpt><trkpt lat="40.65138285428549" lon="14.978148768913476"><ele>133.0</ele><time>2026-05-02T09:43:08.829Z</time></trkpt><trkpt lat="40.65129169180258" lon="14.978079605628462"><ele>133.0</ele><time>2026-05-02T09:43:09.829Z</time></trkpt><trkpt lat="40.65120040171645" lon="14.978021826830398"><ele>133.0</ele><time>2026-05-02T09:43:10.829Z</time></trkpt><trkpt lat="40.65111632347175" lon="14.977966546958708"><ele>133.0</ele><time>2026-05-02T09:43:11.829Z</time></trkpt><trkpt lat="40.65104120856337" lon="14.977914680641684"><ele>133.0</ele><time>2026-05-02T09:43:12.829Z</time></trkpt><trkpt lat="40.65097349910254" lon="14.977866986300219"><ele>133.0</ele><time>2026-05-02T09:43:13.829Z</time></trkpt><trkpt lat="40.65091104468983" lon="14.977818755356434"><ele>133.0</ele><time>2026-05-02T09:43:14.829Z</time></trkpt><trkpt lat="40.650849325084096" lon="14.977777080049169"><ele>133.16666666666669</ele><time>2026-05-02T09:43:15.829Z</time></trkpt><trkpt lat="40.65078837072107" lon="14.977739232847295"><ele>133.33333333333334</ele><time>2026-05-02T09:43:16.829Z</time></trkpt><trkpt lat="40.65073128158872" lon="14.977703621562712"><ele>133.5</ele><time>2026-05-02T09:43:17.828Z</time></trkpt><trkpt lat="40.65062020854538" lon="14.977629289170089"><ele>133.66666666666666</ele><time>2026-05-02T09:43:19.828Z</time></trkpt><trkpt lat="40.6505649324543" lon="14.977589091990584"><ele>133.83333333333331</ele><time>2026-05-02T09:43:20.828Z</time></trkpt><trkpt lat="40.65050014495336" lon="14.977547270619857"><ele>134.0</ele><time>2026-05-02T09:43:21.828Z</time></trkpt><trkpt lat="40.65042348875204" lon="14.97749643628714"><ele>134.25</ele><time>2026-05-02T09:43:22.828Z</time></trkpt><trkpt lat="40.650329446076874" lon="14.977443054102702"><ele>134.5</ele><time>2026-05-02T09:43:23.828Z</time></trkpt><trkpt lat="40.650225401909495" lon="14.977378367885605"><ele>134.75</ele><time>2026-05-02T09:43:24.828Z</time></trkpt><trkpt lat="40.65012030875142" lon="14.977299651304472"><ele>135.0</ele><time>2026-05-02T09:43:25.828Z</time></trkpt><trkpt lat="40.650021255795906" lon="14.977223282870982"><ele>134.25</ele><time>2026-05-02T09:43:26.828Z</time></trkpt><trkpt lat="40.6499216320674" lon="14.97714819074731"><ele>133.5</ele><time>2026-05-02T09:43:27.828Z</time></trkpt><trkpt lat="40.64981587295885" lon="14.977077290570097"><ele>132.75</ele><time>2026-05-02T09:43:28.828Z</time></trkpt><trkpt lat="40.649712802906805" lon="14.9770026809836"><ele>132.0</ele><time>2026-05-02T09:43:29.828Z</time></trkpt><trkpt lat="40.64960897105246" lon="14.976929787396326"><ele>132.0</ele><time>2026-05-02T09:43:30.828Z</time></trkpt><trkpt lat="40.64949898536324" lon="14.976858470962593"><ele>132.0</ele><time>2026-05-02T09:43:31.828Z</time></trkpt><trkpt lat="40.649386043992" lon="14.976791176300686"><ele>132.0</ele><time>2026-05-02T09:43:32.828Z</time></trkpt><trkpt lat="40.64928092670933" lon="14.976717657441872"><ele>132.0</ele><time>2026-05-02T09:43:33.828Z</time></trkpt><trkpt lat="40.6491836027944" lon="14.976647003768047"><ele>132.0</ele><time>2026-05-02T09:43:34.828Z</time></trkpt><trkpt lat="40.64909187583642" lon="14.976560682311256"><ele>132.0</ele><time>2026-05-02T09:43:35.828Z</time></trkpt><trkpt lat="40.64896366284326" lon="14.97647955939923"><ele>132.0</ele><time>2026-05-02T09:43:36.828Z</time></trkpt><trkpt lat="40.648825870011656" lon="14.976382702430225"><ele>132.0</ele><time>2026-05-02T09:43:37.828Z</time></trkpt><trkpt lat="40.648687891500145" lon="14.976280675871596"><ele>131.75</ele><time>2026-05-02T09:43:38.828Z</time></trkpt><trkpt lat="40.648552517177166" lon="14.976183358386647"><ele>131.5</ele><time>2026-05-02T09:43:39.827Z</time></trkpt><trkpt lat="40.64842571900436" lon="14.97609806985086"><ele>131.25</ele><time>2026-05-02T09:43:40.827Z</time></trkpt><trkpt lat="40.648314490554995" lon="14.976023433525521"><ele>131.0</ele><time>2026-05-02T09:43:41.827Z</time></trkpt><trkpt lat="40.64822170038982" lon="14.975959656187857"><ele>131.0</ele><time>2026-05-02T09:43:42.827Z</time></trkpt><trkpt lat="40.648136212719486" lon="14.97590234641464"><ele>131.0</ele><time>2026-05-02T09:43:43.827Z</time></trkpt><trkpt lat="40.64805226461028" lon="14.975846052574047"><ele>131.0</ele><time>2026-05-02T09:43:44.827Z</time></trkpt><trkpt lat="40.647960813998196" lon="14.975787000505392"><ele>131.0</ele><time>2026-05-02T09:43:45.827Z</time></trkpt><trkpt lat="40.64786360766336" lon="14.975719306896588"><ele>131.0</ele><time>2026-05-02T09:43:46.827Z</time></trkpt><trkpt lat="40.64775362696742" lon="14.975655417540926"><ele>130.5</ele><time>2026-05-02T09:43:47.827Z</time></trkpt><trkpt lat="40.647636228388244" lon="14.975585738574301"><ele>130.0</ele><time>2026-05-02T09:43:48.827Z</time></trkpt><trkpt lat="40.64753066614113" lon="14.97550555073531"><ele>129.5</ele><time>2026-05-02T09:43:49.827Z</time></trkpt><trkpt lat="40.647432401645055" lon="14.97542773690548"><ele>129.0</ele><time>2026-05-02T09:43:50.827Z</time></trkpt><trkpt lat="40.647337668515895" lon="14.975352479863044"><ele>129.0</ele><time>2026-05-02T09:43:51.827Z</time></trkpt><trkpt lat="40.64722874287504" lon="14.97528121258188"><ele>129.0</ele><time>2026-05-02T09:43:52.827Z</time></trkpt><trkpt lat="40.64712664453329" lon="14.975184442727961"><ele>129.0</ele><time>2026-05-02T09:43:53.827Z</time></trkpt><trkpt lat="40.64700934269853" lon="14.975101313546364"><ele>129.0</ele><time>2026-05-02T09:43:54.827Z</time></trkpt><trkpt lat="40.64689416286052" lon="14.975020352526165"><ele>128.75</ele><time>2026-05-02T09:43:55.827Z</time></trkpt><trkpt lat="40.646782552113265" lon="14.974942296298243"><ele>128.5</ele><time>2026-05-02T09:43:56.827Z</time></trkpt><trkpt lat="40.646660591708724" lon="14.974879286359458"><ele>128.25</ele><time>2026-05-02T09:43:57.827Z</time></trkpt><trkpt lat="40.646544599303766" lon="14.974795003570605"><ele>128.0</ele><time>2026-05-02T09:43:58.827Z</time></trkpt><trkpt lat="40.64643771426878" lon="14.974685388603667"><ele>128.0</ele><time>2026-05-02T09:43:59.827Z</time></trkpt><trkpt lat="40.64631709289711" lon="14.974602190010794"><ele>128.0</ele><time>2026-05-02T09:44:00.827Z</time></trkpt><trkpt lat="40.64618964075767" lon="14.974513012391059"><ele>128.0</ele><time>2026-05-02T09:44:01.826Z</time></trkpt><trkpt lat="40.64604812631084" lon="14.974421510496645"><ele>128.0</ele><time>2026-05-02T09:44:02.826Z</time></trkpt><trkpt lat="40.64589944699111" lon="14.974322236826186"><ele>128.33333333333331</ele><time>2026-05-02T09:44:03.826Z</time></trkpt><trkpt lat="40.64575361208011" lon="14.974220743119568"><ele>128.66666666666666</ele><time>2026-05-02T09:44:04.826Z</time></trkpt><trkpt lat="40.64562273649631" lon="14.974122615416332"><ele>129.0</ele><time>2026-05-02T09:44:05.826Z</time></trkpt><trkpt lat="40.64550519268073" lon="14.974034658180761"><ele>129.0</ele><time>2026-05-02T09:44:06.826Z</time></trkpt><trkpt lat="40.645389048821215" lon="14.973948438253181"><ele>129.0</ele><time>2026-05-02T09:44:07.826Z</time></trkpt><trkpt lat="40.645274354125156" lon="14.973865517792193"><ele>129.0</ele><time>2026-05-02T09:44:08.826Z</time></trkpt><trkpt lat="40.64516211650317" lon="14.973780871374514"><ele>129.0</ele><time>2026-05-02T09:44:09.826Z</time></trkpt><trkpt lat="40.64505245990803" lon="14.973699730176973"><ele>128.25</ele><time>2026-05-02T09:44:10.826Z</time></trkpt><trkpt lat="40.64493427580518" lon="14.973620931298354"><ele>127.5</ele><time>2026-05-02T09:44:11.826Z</time></trkpt><trkpt lat="40.64482046840411" lon="14.973539310107407"><ele>126.75</ele><time>2026-05-02T09:44:12.826Z</time></trkpt><trkpt lat="40.64471017775365" lon="14.97345694710714"><ele>126.0</ele><time>2026-05-02T09:44:13.826Z</time></trkpt><trkpt lat="40.6446068101636" lon="14.973363690591567"><ele>125.75</ele><time>2026-05-02T09:44:14.826Z</time></trkpt><trkpt lat="40.64449298302972" lon="14.973259892195843"><ele>125.5</ele><time>2026-05-02T09:44:15.826Z</time></trkpt><trkpt lat="40.64437216006397" lon="14.973150377635614"><ele>125.25</ele><time>2026-05-02T09:44:16.826Z</time></trkpt><trkpt lat="40.64427001806916" lon="14.973025748277962"><ele>125.0</ele><time>2026-05-02T09:44:17.826Z</time></trkpt><trkpt lat="40.64415973909207" lon="14.972912300235768"><ele>125.0</ele><time>2026-05-02T09:44:18.826Z</time></trkpt><trkpt lat="40.64405345626044" lon="14.972785848788014"><ele>125.0</ele><time>2026-05-02T09:44:19.826Z</time></trkpt><trkpt lat="40.64393262999079" lon="14.972661007227773"><ele>125.0</ele><time>2026-05-02T09:44:20.826Z</time></trkpt><trkpt lat="40.64379998518078" lon="14.972524727182892"><ele>125.0</ele><time>2026-05-02T09:44:21.826Z</time></trkpt><trkpt lat="40.64367476859712" lon="14.972395652589523"><ele>125.0</ele><time>2026-05-02T09:44:22.825Z</time></trkpt><trkpt lat="40.64356410906828" lon="14.972283641728477"><ele>125.0</ele><time>2026-05-02T09:44:23.829Z</time></trkpt><trkpt lat="40.64346392557742" lon="14.972179293836197"><ele>125.0</ele><time>2026-05-02T09:44:24.829Z</time></trkpt><trkpt lat="40.64337112850514" lon="14.972081604551715"><ele>123.75</ele><time>2026-05-02T09:44:25.828Z</time></trkpt><trkpt lat="40.643281541587804" lon="14.97198845686202"><ele>122.5</ele><time>2026-05-02T09:44:26.829Z</time></trkpt><trkpt lat="40.643190860026095" lon="14.971899557890586"><ele>121.25</ele><time>2026-05-02T09:44:27.829Z</time></trkpt><trkpt lat="40.64309765198252" lon="14.97181003822977"><ele>120.0</ele><time>2026-05-02T09:44:28.829Z</time></trkpt><trkpt lat="40.64300328444958" lon="14.971715935223889"><ele>119.75</ele><time>2026-05-02T09:44:29.829Z</time></trkpt><trkpt lat="40.64290845869281" lon="14.971617181265827"><ele>119.5</ele><time>2026-05-02T09:44:30.829Z</time></trkpt><trkpt lat="40.64281707544752" lon="14.971521556740134"><ele>119.25</ele><time>2026-05-02T09:44:31.829Z</time></trkpt><trkpt lat="40.64272823540665" lon="14.97142747920469"><ele>119.0</ele><time>2026-05-02T09:44:32.829Z</time></trkpt><trkpt lat="40.642638773551425" lon="14.971334554172513"><ele>118.80000000000001</ele><time>2026-05-02T09:44:33.829Z</time></trkpt><trkpt lat="40.642553651386145" lon="14.97124570236139"><ele>118.60000000000001</ele><time>2026-05-02T09:44:34.829Z</time></trkpt><trkpt lat="40.64247496806703" lon="14.971167775000552"><ele>118.4</ele><time>2026-05-02T09:44:35.829Z</time></trkpt><trkpt lat="40.64239789322447" lon="14.971089249832264"><ele>118.2</ele><time>2026-05-02T09:44:36.828Z</time></trkpt><trkpt lat="40.64231938342508" lon="14.971007127726383"><ele>118.0</ele><time>2026-05-02T09:44:37.828Z</time></trkpt><trkpt lat="40.64224182479558" lon="14.970919927713267"><ele>117.60000000000001</ele><time>2026-05-02T09:44:38.828Z</time></trkpt><trkpt lat="40.64216156966996" lon="14.97083291240744"><ele>117.20000000000002</ele><time>2026-05-02T09:44:39.828Z</time></trkpt><trkpt lat="40.642081415958394" lon="14.970749469465652"><ele>116.8</ele><time>2026-05-02T09:44:40.828Z</time></trkpt><trkpt lat="40.64199535944115" lon="14.970659633432005"><ele>116.4</ele><time>2026-05-02T09:44:41.828Z</time></trkpt><trkpt lat="40.64190790883976" lon="14.970565681586601"><ele>116.0</ele><time>2026-05-02T09:44:42.828Z</time></trkpt><trkpt lat="40.64181289538015" lon="14.970474231927192"><ele>115.8</ele><time>2026-05-02T09:44:43.828Z</time></trkpt><trkpt lat="40.64172714067407" lon="14.970395960392615"><ele>115.6</ele><time>2026-05-02T09:44:44.828Z</time></trkpt><trkpt lat="40.64164303263878" lon="14.970310016330913"><ele>115.4</ele><time>2026-05-02T09:44:45.828Z</time></trkpt><trkpt lat="40.641560983043156" lon="14.970227387843236"><ele>115.2</ele><time>2026-05-02T09:44:46.828Z</time></trkpt><trkpt lat="40.64147792240489" lon="14.970146498588662"><ele>115.0</ele><time>2026-05-02T09:44:47.828Z</time></trkpt><trkpt lat="40.64139557092216" lon="14.970063953241393"><ele>114.4</ele><time>2026-05-02T09:44:48.828Z</time></trkpt><trkpt lat="40.64131349602176" lon="14.969989421497642"><ele>113.8</ele><time>2026-05-02T09:44:49.828Z</time></trkpt><trkpt lat="40.641240363192374" lon="14.96991052613569"><ele>113.19999999999999</ele><time>2026-05-02T09:44:50.828Z</time></trkpt><trkpt lat="40.641166464522634" lon="14.969836317008463"><ele>112.6</ele><time>2026-05-02T09:44:51.828Z</time></trkpt><trkpt lat="40.6410929534591" lon="14.96975927901051"><ele>112.0</ele><time>2026-05-02T09:44:52.828Z</time></trkpt><trkpt lat="40.641026903431666" lon="14.969693358525566"><ele>112.0</ele><time>2026-05-02T09:44:53.827Z</time></trkpt><trkpt lat="40.640961119821554" lon="14.96962760596398"><ele>111.99999999999999</ele><time>2026-05-02T09:44:54.827Z</time></trkpt><trkpt lat="40.64091064387463" lon="14.969568033770415"><ele>111.99999999999999</ele><time>2026-05-02T09:44:55.827Z</time></trkpt><trkpt lat="40.64085286224271" lon="14.969444929854598"><ele>112.0</ele><time>2026-05-02T09:44:57.827Z</time></trkpt><trkpt lat="40.640915090727304" lon="14.969287932807752"><ele>112.0</ele><time>2026-05-02T09:44:59.827Z</time></trkpt><trkpt lat="40.640975563560644" lon="14.969198796574268"><ele>111.0</ele><time>2026-05-02T09:45:00.827Z</time></trkpt><trkpt lat="40.64103553901452" lon="14.96909503358445"><ele>109.99999999999999</ele><time>2026-05-02T09:45:01.827Z</time></trkpt><trkpt lat="40.64109217466642" lon="14.96898634647286"><ele>108.99999999999999</ele><time>2026-05-02T09:45:02.827Z</time></trkpt><trkpt lat="40.64114359435574" lon="14.968875369839758"><ele>108.0</ele><time>2026-05-02T09:45:03.827Z</time></trkpt><trkpt lat="40.64118420535586" lon="14.96876246504586"><ele>107.0</ele><time>2026-05-02T09:45:04.827Z</time></trkpt><trkpt lat="40.64120819292569" lon="14.968639302284247"><ele>107.0</ele><time>2026-05-02T09:45:05.827Z</time></trkpt><trkpt lat="40.64122071814637" lon="14.96850017662219"><ele>106.99999999999999</ele><time>2026-05-02T09:45:06.827Z</time></trkpt><trkpt lat="40.64122610618883" lon="14.9683512421416"><ele>106.99999999999999</ele><time>2026-05-02T09:45:07.827Z</time></trkpt><trkpt lat="40.641237340028255" lon="14.96819843681958"><ele>107.0</ele><time>2026-05-02T09:45:08.827Z</time></trkpt><trkpt lat="40.64125204226978" lon="14.968050574300326"><ele>107.0</ele><time>2026-05-02T09:45:09.827Z</time></trkpt><trkpt lat="40.641273811179026" lon="14.967912960887631"><ele>106.5</ele><time>2026-05-02T09:45:10.827Z</time></trkpt><trkpt lat="40.64130703835261" lon="14.967776979819316"><ele>106.0</ele><time>2026-05-02T09:45:11.827Z</time></trkpt><trkpt lat="40.64135653555588" lon="14.967639287289025"><ele>105.5</ele><time>2026-05-02T09:45:12.827Z</time></trkpt><trkpt lat="40.64142420377996" lon="14.967500185710652"><ele>105.0</ele><time>2026-05-02T09:45:13.827Z</time></trkpt><trkpt lat="40.64149423909367" lon="14.96735006966194"><ele>104.0</ele><time>2026-05-02T09:45:14.827Z</time></trkpt><trkpt lat="40.64156845422113" lon="14.967191663975658"><ele>103.0</ele><time>2026-05-02T09:45:15.826Z</time></trkpt><trkpt lat="40.64164910120769" lon="14.967030415832038"><ele>102.0</ele><time>2026-05-02T09:45:16.826Z</time></trkpt><trkpt lat="40.641735746187415" lon="14.966872426061451"><ele>101.0</ele><time>2026-05-02T09:45:17.826Z</time></trkpt><trkpt lat="40.64181058369717" lon="14.966726603341087"><ele>100.75</ele><time>2026-05-02T09:45:18.826Z</time></trkpt><trkpt lat="40.64188051191915" lon="14.966585423710157"><ele>100.5</ele><time>2026-05-02T09:45:19.826Z</time></trkpt><trkpt lat="40.6419551259523" lon="14.96645196509654"><ele>100.25</ele><time>2026-05-02T09:45:20.826Z</time></trkpt><trkpt lat="40.642028355533405" lon="14.966320819100382"><ele>100.0</ele><time>2026-05-02T09:45:21.826Z</time></trkpt><trkpt lat="40.642101932901404" lon="14.966192659572423"><ele>100.5</ele><time>2026-05-02T09:45:22.826Z</time></trkpt><trkpt lat="40.64218522815261" lon="14.966076752278639"><ele>101.0</ele><time>2026-05-02T09:45:23.826Z</time></trkpt><trkpt lat="40.642290299156265" lon="14.965955219585956"><ele>101.5</ele><time>2026-05-02T09:45:24.826Z</time></trkpt><trkpt lat="40.64240627606211" lon="14.965829486527337"><ele>102.0</ele><time>2026-05-02T09:45:25.826Z</time></trkpt><trkpt lat="40.6425342549805" lon="14.965695166794497"><ele>100.66666666666666</ele><time>2026-05-02T09:45:26.826Z</time></trkpt><trkpt lat="40.642674061170744" lon="14.965542663596267"><ele>99.33333333333333</ele><time>2026-05-02T09:45:27.826Z</time></trkpt><trkpt lat="40.642822847291676" lon="14.965371379533947"><ele>98.0</ele><time>2026-05-02T09:45:28.826Z</time></trkpt><trkpt lat="40.64297622117037" lon="14.965194651097619"><ele>95.66666666666666</ele><time>2026-05-02T09:45:29.826Z</time></trkpt><trkpt lat="40.643134200749245" lon="14.965019555750317"><ele>93.33333333333333</ele><time>2026-05-02T09:45:30.826Z</time></trkpt><trkpt lat="40.643284082604744" lon="14.964846848997082"><ele>91.0</ele><time>2026-05-02T09:45:31.826Z</time></trkpt><trkpt lat="40.643421805867554" lon="14.964685868548132"><ele>91.0</ele><time>2026-05-02T09:45:32.826Z</time></trkpt><trkpt lat="40.643549247862055" lon="14.964534872033376"><ele>91.0</ele><time>2026-05-02T09:45:33.826Z</time></trkpt><trkpt lat="40.643665117286105" lon="14.964395551128462"><ele>91.0</ele><time>2026-05-02T09:45:34.826Z</time></trkpt><trkpt lat="40.64377400492612" lon="14.964271077829636"><ele>89.75</ele><time>2026-05-02T09:45:35.826Z</time></trkpt><trkpt lat="40.64387885853304" lon="14.964171935429253"><ele>88.5</ele><time>2026-05-02T09:45:36.826Z</time></trkpt><trkpt lat="40.64399251237155" lon="14.964105939530995"><ele>87.25</ele><time>2026-05-02T09:45:37.825Z</time></trkpt><trkpt lat="40.64412270959743" lon="14.964078288191468"><ele>86.0</ele><time>2026-05-02T09:45:38.825Z</time></trkpt><trkpt lat="40.64426928404308" lon="14.964075568322306"><ele>86.0</ele><time>2026-05-02T09:45:39.825Z</time></trkpt><trkpt lat="40.64442771419532" lon="14.964063968891955"><ele>86.0</ele><time>2026-05-02T09:45:40.825Z</time></trkpt><trkpt lat="40.64458330894256" lon="14.964030723324141"><ele>86.0</ele><time>2026-05-02T09:45:41.825Z</time></trkpt><trkpt lat="40.644725547856474" lon="14.9640174546741"><ele>87.25</ele><time>2026-05-02T09:45:42.825Z</time></trkpt><trkpt lat="40.64485129235951" lon="14.963981930575773"><ele>88.5</ele><time>2026-05-02T09:45:43.825Z</time></trkpt><trkpt lat="40.64497080731648" lon="14.963915039835282"><ele>89.75</ele><time>2026-05-02T09:45:44.825Z</time></trkpt><trkpt lat="40.6450625590538" lon="14.963808251849963"><ele>91.0</ele><time>2026-05-02T09:45:45.825Z</time></trkpt><trkpt lat="40.64512577341652" lon="14.96367808804267"><ele>91.0</ele><time>2026-05-02T09:45:46.825Z</time></trkpt><trkpt lat="40.64517204866378" lon="14.963536065084353"><ele>91.0</ele><time>2026-05-02T09:45:47.825Z</time></trkpt><trkpt lat="40.64518921347638" lon="14.963385057109603"><ele>91.0</ele><time>2026-05-02T09:45:48.825Z</time></trkpt><trkpt lat="40.6451724188566" lon="14.963218508420887"><ele>91.0</ele><time>2026-05-02T09:45:49.825Z</time></trkpt><trkpt lat="40.645136494292714" lon="14.963046611336585"><ele>92.0</ele><time>2026-05-02T09:45:50.825Z</time></trkpt><trkpt lat="40.645076733167656" lon="14.96287557134996"><ele>93.0</ele><time>2026-05-02T09:45:51.825Z</time></trkpt><trkpt lat="40.64503479946959" lon="14.962714416675603"><ele>94.0</ele><time>2026-05-02T09:45:52.825Z</time></trkpt><trkpt lat="40.645023599185784" lon="14.962545375772727"><ele>95.0</ele><time>2026-05-02T09:45:53.825Z</time></trkpt><trkpt lat="40.64503256362598" lon="14.96236870869514"><ele>96.33333333333334</ele><time>2026-05-02T09:45:54.825Z</time></trkpt><trkpt lat="40.6450673825939" lon="14.962178715721363"><ele>97.66666666666667</ele><time>2026-05-02T09:45:55.825Z</time></trkpt><trkpt lat="40.64510135137807" lon="14.961978080790663"><ele>99.0</ele><time>2026-05-02T09:45:56.825Z</time></trkpt><trkpt lat="40.6451170792096" lon="14.96178121924888"><ele>101.0</ele><time>2026-05-02T09:45:57.825Z</time></trkpt><trkpt lat="40.64511884201209" lon="14.961580199886248"><ele>103.0</ele><time>2026-05-02T09:45:58.825Z</time></trkpt><trkpt lat="40.64512642747415" lon="14.961378485972034"><ele>105.0</ele><time>2026-05-02T09:45:59.824Z</time></trkpt><trkpt lat="40.645154315122596" lon="14.961177340429687"><ele>105.0</ele><time>2026-05-02T09:46:00.824Z</time></trkpt><trkpt lat="40.64520059546577" lon="14.96097801230412"><ele>105.0</ele><time>2026-05-02T09:46:01.824Z</time></trkpt><trkpt lat="40.645264500415834" lon="14.960780532061218"><ele>105.0</ele><time>2026-05-02T09:46:02.824Z</time></trkpt><trkpt lat="40.64533669590962" lon="14.960576297103756"><ele>105.66666666666666</ele><time>2026-05-02T09:46:03.824Z</time></trkpt><trkpt lat="40.64540869245695" lon="14.960367031198919"><ele>106.33333333333333</ele><time>2026-05-02T09:46:04.824Z</time></trkpt><trkpt lat="40.64547943774137" lon="14.960158467105805"><ele>107.0</ele><time>2026-05-02T09:46:05.824Z</time></trkpt><trkpt lat="40.64554698131304" lon="14.959957800816849"><ele>107.25</ele><time>2026-05-02T09:46:06.824Z</time></trkpt><trkpt lat="40.64561569392156" lon="14.959781571505717"><ele>107.5</ele><time>2026-05-02T09:46:07.824Z</time></trkpt><trkpt lat="40.64564068193929" lon="14.9596124750431"><ele>107.75</ele><time>2026-05-02T09:46:08.824Z</time></trkpt><trkpt lat="40.64566751344082" lon="14.95946855109532"><ele>108.0</ele><time>2026-05-02T09:46:09.824Z</time></trkpt><trkpt lat="40.64565502625218" lon="14.959345608821481"><ele>108.0</ele><time>2026-05-02T09:46:10.824Z</time></trkpt><trkpt lat="40.64565796669339" lon="14.959230380590236"><ele>108.00000000000001</ele><time>2026-05-02T09:46:11.824Z</time></trkpt><trkpt lat="40.645646501396165" lon="14.959120777190012"><ele>108.00000000000001</ele><time>2026-05-02T09:46:12.824Z</time></trkpt><trkpt lat="40.64562976167428" lon="14.958996090001458"><ele>108.0</ele><time>2026-05-02T09:46:13.824Z</time></trkpt><trkpt lat="40.64563313505604" lon="14.958846509691744"><ele>108.0</ele><time>2026-05-02T09:46:14.824Z</time></trkpt><trkpt lat="40.64561666558175" lon="14.958661233854489"><ele>108.0</ele><time>2026-05-02T09:46:15.824Z</time></trkpt><trkpt lat="40.64559754796612" lon="14.95844904275035"><ele>108.0</ele><time>2026-05-02T09:46:16.824Z</time></trkpt><trkpt lat="40.64558296656856" lon="14.958201005086552"><ele>108.0</ele><time>2026-05-02T09:46:17.824Z</time></trkpt><trkpt lat="40.64556359835719" lon="14.957920879926803"><ele>108.0</ele><time>2026-05-02T09:46:18.824Z</time></trkpt><trkpt lat="40.64554107119093" lon="14.957636991563072"><ele>108.0</ele><time>2026-05-02T09:46:19.824Z</time></trkpt><trkpt lat="40.645511868977444" lon="14.957352557755991"><ele>108.0</ele><time>2026-05-02T09:46:20.824Z</time></trkpt><trkpt lat="40.645483182687464" lon="14.957089830013219"><ele>107.66666666666666</ele><time>2026-05-02T09:46:21.823Z</time></trkpt><trkpt lat="40.64545743032827" lon="14.956840872308799"><ele>107.33333333333333</ele><time>2026-05-02T09:46:22.823Z</time></trkpt><trkpt lat="40.64543429301133" lon="14.956594477067469"><ele>107.0</ele><time>2026-05-02T09:46:23.823Z</time></trkpt><trkpt lat="40.64541740954173" lon="14.95634875420627"><ele>107.0</ele><time>2026-05-02T09:46:24.823Z</time></trkpt><trkpt lat="40.64539994259359" lon="14.956103969808085"><ele>107.0</ele><time>2026-05-02T09:46:25.823Z</time></trkpt><trkpt lat="40.64537911345781" lon="14.955876061980174"><ele>107.0</ele><time>2026-05-02T09:46:26.823Z</time></trkpt><trkpt lat="40.64535873540297" lon="14.955662873909088"><ele>106.66666666666666</ele><time>2026-05-02T09:46:27.823Z</time></trkpt><trkpt lat="40.6453416611767" lon="14.955459971300463"><ele>106.33333333333334</ele><time>2026-05-02T09:46:28.823Z</time></trkpt><trkpt lat="40.64532635256909" lon="14.955262805826907"><ele>106.0</ele><time>2026-05-02T09:46:29.827Z</time></trkpt><trkpt lat="40.645311941062445" lon="14.955067416524843"><ele>105.75</ele><time>2026-05-02T09:46:30.826Z</time></trkpt><trkpt lat="40.645301462398955" lon="14.954881099654534"><ele>105.5</ele><time>2026-05-02T09:46:31.826Z</time></trkpt><trkpt lat="40.64529920832678" lon="14.954702135127535"><ele>105.25</ele><time>2026-05-02T09:46:32.826Z</time></trkpt><trkpt lat="40.645299416748" lon="14.954518788869605"><ele>105.0</ele><time>2026-05-02T09:46:33.826Z</time></trkpt><trkpt lat="40.6452956613555" lon="14.95433864752038"><ele>104.25</ele><time>2026-05-02T09:46:34.826Z</time></trkpt><trkpt lat="40.645292976914625" lon="14.954147794299729"><ele>103.5</ele><time>2026-05-02T09:46:35.826Z</time></trkpt><trkpt lat="40.645298730836174" lon="14.953951313043403"><ele>102.75</ele><time>2026-05-02T09:46:36.827Z</time></trkpt><trkpt lat="40.64530502619302" lon="14.95374708032633"><ele>102.0</ele><time>2026-05-02T09:46:37.826Z</time></trkpt><trkpt lat="40.64530336027672" lon="14.95354064208353"><ele>100.66666666666666</ele><time>2026-05-02T09:46:38.826Z</time></trkpt><trkpt lat="40.64530378000677" lon="14.953328144239201"><ele>99.33333333333333</ele><time>2026-05-02T09:46:39.826Z</time></trkpt><trkpt lat="40.645301779728825" lon="14.953108882938288"><ele>98.0</ele><time>2026-05-02T09:46:40.826Z</time></trkpt><trkpt lat="40.64530070776134" lon="14.952882450923838"><ele>98.0</ele><time>2026-05-02T09:46:41.826Z</time></trkpt><trkpt lat="40.645303124543766" lon="14.952657809230114"><ele>98.0</ele><time>2026-05-02T09:46:42.826Z</time></trkpt><trkpt lat="40.64530554569908" lon="14.952431915930529"><ele>98.0</ele><time>2026-05-02T09:46:43.826Z</time></trkpt><trkpt lat="40.64530637235486" lon="14.952213624966104"><ele>98.0</ele><time>2026-05-02T09:46:44.826Z</time></trkpt><trkpt lat="40.64530325306459" lon="14.95199045684217"><ele>98.0</ele><time>2026-05-02T09:46:45.826Z</time></trkpt><trkpt lat="40.64530380889679" lon="14.951765434427294"><ele>98.0</ele><time>2026-05-02T09:46:46.826Z</time></trkpt><trkpt lat="40.645302926620076" lon="14.951526381797688"><ele>98.66666666666666</ele><time>2026-05-02T09:46:47.826Z</time></trkpt><trkpt lat="40.64530262475622" lon="14.951286291105433"><ele>99.33333333333334</ele><time>2026-05-02T09:46:48.826Z</time></trkpt><trkpt lat="40.645302143164415" lon="14.951039789233672"><ele>100.0</ele><time>2026-05-02T09:46:49.826Z</time></trkpt><trkpt lat="40.64530352937743" lon="14.950785169682568"><ele>100.66666666666667</ele><time>2026-05-02T09:46:50.825Z</time></trkpt><trkpt lat="40.645307889934266" lon="14.950528885400798"><ele>101.33333333333334</ele><time>2026-05-02T09:46:51.825Z</time></trkpt><trkpt lat="40.64531158298398" lon="14.950277356676212"><ele>102.0</ele><time>2026-05-02T09:46:52.825Z</time></trkpt><trkpt lat="40.64531582659244" lon="14.950027515368182"><ele>102.66666666666666</ele><time>2026-05-02T09:46:53.825Z</time></trkpt><trkpt lat="40.64532164336049" lon="14.94979595129896"><ele>103.33333333333333</ele><time>2026-05-02T09:46:54.825Z</time></trkpt><trkpt lat="40.64532611097784" lon="14.949578995732374"><ele>104.0</ele><time>2026-05-02T09:46:55.825Z</time></trkpt><trkpt lat="40.645332541965274" lon="14.949371907695841"><ele>104.33333333333333</ele><time>2026-05-02T09:46:56.825Z</time></trkpt><trkpt lat="40.645339262956625" lon="14.94917302508925"><ele>104.66666666666666</ele><time>2026-05-02T09:46:57.825Z</time></trkpt><trkpt lat="40.64534268846618" lon="14.94897239874813"><ele>105.0</ele><time>2026-05-02T09:46:58.825Z</time></trkpt><trkpt lat="40.64534256302916" lon="14.948767392770753"><ele>105.0</ele><time>2026-05-02T09:46:59.825Z</time></trkpt><trkpt lat="40.645335309385416" lon="14.94854498882144"><ele>105.0</ele><time>2026-05-02T09:47:00.825Z</time></trkpt><trkpt lat="40.64532758110828" lon="14.948318328261587"><ele>105.0</ele><time>2026-05-02T09:47:01.825Z</time></trkpt><trkpt lat="40.645325660679745" lon="14.948093016725089"><ele>105.0</ele><time>2026-05-02T09:47:02.825Z</time></trkpt><trkpt lat="40.64531212296249" lon="14.947871664423095"><ele>105.0</ele><time>2026-05-02T09:47:03.825Z</time></trkpt><trkpt lat="40.64528678907714" lon="14.9476577773282"><ele>105.0</ele><time>2026-05-02T09:47:04.825Z</time></trkpt><trkpt lat="40.64525865032078" lon="14.947456807637938"><ele>103.75</ele><time>2026-05-02T09:47:05.825Z</time></trkpt><trkpt lat="40.645220701541994" lon="14.94727156160315"><ele>102.5</ele><time>2026-05-02T09:47:06.825Z</time></trkpt><trkpt lat="40.64517792118774" lon="14.947095596382233"><ele>101.25</ele><time>2026-05-02T09:47:07.825Z</time></trkpt><trkpt lat="40.6451328259686" lon="14.94691834439792"><ele>100.0</ele><time>2026-05-02T09:47:08.825Z</time></trkpt><trkpt lat="40.64508004600788" lon="14.946739631498014"><ele>99.33333333333334</ele><time>2026-05-02T09:47:09.825Z</time></trkpt><trkpt lat="40.64502344108138" lon="14.946554334469495"><ele>98.66666666666666</ele><time>2026-05-02T09:47:10.825Z</time></trkpt><trkpt lat="40.644969537159675" lon="14.946362983580714"><ele>98.0</ele><time>2026-05-02T09:47:11.825Z</time></trkpt><trkpt lat="40.64492277925698" lon="14.94617453442327"><ele>98.0</ele><time>2026-05-02T09:47:12.824Z</time></trkpt><trkpt lat="40.6448821561883" lon="14.946004958179469"><ele>98.0</ele><time>2026-05-02T09:47:13.824Z</time></trkpt><trkpt lat="40.64483911962346" lon="14.945852148388964"><ele>98.0</ele><time>2026-05-02T09:47:14.824Z</time></trkpt><trkpt lat="40.64479699535014" lon="14.945692211059432"><ele>98.0</ele><time>2026-05-02T09:47:15.824Z</time></trkpt><trkpt lat="40.64475101946179" lon="14.945526356002713"><ele>98.0</ele><time>2026-05-02T09:47:16.824Z</time></trkpt><trkpt lat="40.64470406164129" lon="14.945358052919687"><ele>98.0</ele><time>2026-05-02T09:47:17.824Z</time></trkpt><trkpt lat="40.64466040012741" lon="14.945193545904507"><ele>98.0</ele><time>2026-05-02T09:47:18.824Z</time></trkpt><trkpt lat="40.644625294337324" lon="14.9450391715236"><ele>98.0</ele><time>2026-05-02T09:47:19.824Z</time></trkpt><trkpt lat="40.64459213180663" lon="14.944886372353555"><ele>97.75</ele><time>2026-05-02T09:47:20.824Z</time></trkpt><trkpt lat="40.644553529998056" lon="14.944727917528907"><ele>97.5</ele><time>2026-05-02T09:47:21.824Z</time></trkpt><trkpt lat="40.64451802862858" lon="14.94456451507009"><ele>97.25</ele><time>2026-05-02T09:47:22.824Z</time></trkpt><trkpt lat="40.644494841791285" lon="14.944405415417947"><ele>97.0</ele><time>2026-05-02T09:47:23.824Z</time></trkpt><trkpt lat="40.644488418963704" lon="14.944265108559035"><ele>96.50000000000001</ele><time>2026-05-02T09:47:24.824Z</time></trkpt><trkpt lat="40.644503075667636" lon="14.944148120915056"><ele>96.0</ele><time>2026-05-02T09:47:25.824Z</time></trkpt><trkpt lat="40.64451868431994" lon="14.94404210916246"><ele>95.5</ele><time>2026-05-02T09:47:26.824Z</time></trkpt><trkpt lat="40.64453342030662" lon="14.943954793799435"><ele>95.0</ele><time>2026-05-02T09:47:27.824Z</time></trkpt><trkpt lat="40.64459178963881" lon="14.94381048022068"><ele>94.5</ele><time>2026-05-02T09:47:29.824Z</time></trkpt><trkpt lat="40.64460860628262" lon="14.943714151382956"><ele>94.0</ele><time>2026-05-02T09:47:30.824Z</time></trkpt><trkpt lat="40.64460800182257" lon="14.943590014061572"><ele>94.0</ele><time>2026-05-02T09:47:31.824Z</time></trkpt><trkpt lat="40.64462863311837" lon="14.943446532477736"><ele>94.0</ele><time>2026-05-02T09:47:32.824Z</time></trkpt><trkpt lat="40.64462914576052" lon="14.943276790351746"><ele>94.0</ele><time>2026-05-02T09:47:33.824Z</time></trkpt><trkpt lat="40.64464053892155" lon="14.943079250953122"><ele>94.0</ele><time>2026-05-02T09:47:34.823Z</time></trkpt><trkpt lat="40.64466079116637" lon="14.942880261109218"><ele>93.0</ele><time>2026-05-02T09:47:35.823Z</time></trkpt><trkpt lat="40.64468192654177" lon="14.94268118642088"><ele>92.0</ele><time>2026-05-02T09:47:36.823Z</time></trkpt><trkpt lat="40.64471344223529" lon="14.942488545699677"><ele>91.0</ele><time>2026-05-02T09:47:37.823Z</time></trkpt><trkpt lat="40.644743534191775" lon="14.942292720616402"><ele>91.0</ele><time>2026-05-02T09:47:38.823Z</time></trkpt><trkpt lat="40.644782810200375" lon="14.94209682020011"><ele>91.0</ele><time>2026-05-02T09:47:39.823Z</time></trkpt><trkpt lat="40.644819041216856" lon="14.941890813017276"><ele>91.0</ele><time>2026-05-02T09:47:40.823Z</time></trkpt><trkpt lat="40.64485808894358" lon="14.941680244155217"><ele>91.0</ele><time>2026-05-02T09:47:41.823Z</time></trkpt><trkpt lat="40.644897927349525" lon="14.941466300478178"><ele>91.0</ele><time>2026-05-02T09:47:42.823Z</time></trkpt><trkpt lat="40.64494035863603" lon="14.941256662928756"><ele>91.0</ele><time>2026-05-02T09:47:43.823Z</time></trkpt><trkpt lat="40.64497761759407" lon="14.941058945201238"><ele>90.33333333333333</ele><time>2026-05-02T09:47:44.823Z</time></trkpt><trkpt lat="40.64501025965337" lon="14.940848969333452"><ele>89.66666666666667</ele><time>2026-05-02T09:47:45.823Z</time></trkpt><trkpt lat="40.64504607253385" lon="14.94064086566181"><ele>89.0</ele><time>2026-05-02T09:47:46.823Z</time></trkpt><trkpt lat="40.645084912134735" lon="14.940448674152538"><ele>89.0</ele><time>2026-05-02T09:47:47.823Z</time></trkpt><trkpt lat="40.645117743131735" lon="14.940251108084805"><ele>89.0</ele><time>2026-05-02T09:47:48.823Z</time></trkpt><trkpt lat="40.6451436062806" lon="14.940045234331354"><ele>89.0</ele><time>2026-05-02T09:47:49.823Z</time></trkpt><trkpt lat="40.64514964511164" lon="14.939831788142753"><ele>88.33333333333334</ele><time>2026-05-02T09:47:50.823Z</time></trkpt><trkpt lat="40.645136069710276" lon="14.939608318666773"><ele>87.66666666666667</ele><time>2026-05-02T09:47:51.823Z</time></trkpt><trkpt lat="40.64510566203845" lon="14.939383178247075"><ele>87.0</ele><time>2026-05-02T09:47:52.823Z</time></trkpt><trkpt lat="40.64505666032758" lon="14.939163961201173"><ele>86.66666666666667</ele><time>2026-05-02T09:47:53.823Z</time></trkpt><trkpt lat="40.645000505534554" lon="14.938947909269798"><ele>86.33333333333334</ele><time>2026-05-02T09:47:54.823Z</time></trkpt><trkpt lat="40.64492791580471" lon="14.938741058371335"><ele>86.0</ele><time>2026-05-02T09:47:55.823Z</time></trkpt><trkpt lat="40.64485251811321" lon="14.938544365315861"><ele>85.33333333333334</ele><time>2026-05-02T09:47:56.822Z</time></trkpt><trkpt lat="40.64477743696245" lon="14.93834674151133"><ele>84.66666666666667</ele><time>2026-05-02T09:47:57.822Z</time></trkpt><trkpt lat="40.64472150353279" lon="14.938144333647243"><ele>84.0</ele><time>2026-05-02T09:47:58.822Z</time></trkpt><trkpt lat="40.6446482520209" lon="14.93795370234441"><ele>84.0</ele><time>2026-05-02T09:47:59.822Z</time></trkpt><trkpt lat="40.64457086477858" lon="14.937761802503653"><ele>84.0</ele><time>2026-05-02T09:48:00.822Z</time></trkpt><trkpt lat="40.644496330469515" lon="14.937569380948226"><ele>84.0</ele><time>2026-05-02T09:48:01.822Z</time></trkpt><trkpt lat="40.64442338021507" lon="14.937373743124851"><ele>83.33333333333333</ele><time>2026-05-02T09:48:02.822Z</time></trkpt><trkpt lat="40.64435098867168" lon="14.937181962797773"><ele>82.66666666666666</ele><time>2026-05-02T09:48:03.822Z</time></trkpt><trkpt lat="40.64427841748887" lon="14.936980710161976"><ele>82.0</ele><time>2026-05-02T09:48:04.822Z</time></trkpt><trkpt lat="40.64419724463167" lon="14.936768450188874"><ele>81.66666666666666</ele><time>2026-05-02T09:48:05.822Z</time></trkpt><trkpt lat="40.644113715917335" lon="14.936547107287955"><ele>81.33333333333333</ele><time>2026-05-02T09:48:06.822Z</time></trkpt><trkpt lat="40.64401917543113" lon="14.936319094840924"><ele>81.0</ele><time>2026-05-02T09:48:07.822Z</time></trkpt><trkpt lat="40.64392025521119" lon="14.936084742361508"><ele>80.66666666666667</ele><time>2026-05-02T09:48:08.822Z</time></trkpt><trkpt lat="40.64382224691894" lon="14.935851321370748"><ele>80.33333333333334</ele><time>2026-05-02T09:48:09.822Z</time></trkpt><trkpt lat="40.64372032110704" lon="14.935628138947004"><ele>80.0</ele><time>2026-05-02T09:48:10.822Z</time></trkpt><trkpt lat="40.64361301803263" lon="14.93540624025222"><ele>79.66666666666667</ele><time>2026-05-02T09:48:11.822Z</time></trkpt><trkpt lat="40.64350475407253" lon="14.935187191284816"><ele>79.33333333333333</ele><time>2026-05-02T09:48:12.822Z</time></trkpt><trkpt lat="40.643395196448054" lon="14.934987770808247"><ele>79.0</ele><time>2026-05-02T09:48:13.822Z</time></trkpt><trkpt lat="40.64329079213866" lon="14.934792980525932"><ele>79.0</ele><time>2026-05-02T09:48:14.822Z</time></trkpt><trkpt lat="40.64319004490377" lon="14.934607182972004"><ele>79.0</ele><time>2026-05-02T09:48:15.822Z</time></trkpt><trkpt lat="40.643093180019825" lon="14.934426444154333"><ele>79.0</ele><time>2026-05-02T09:48:16.822Z</time></trkpt><trkpt lat="40.64299431975004" lon="14.934246912030446"><ele>79.0</ele><time>2026-05-02T09:48:17.822Z</time></trkpt><trkpt lat="40.64289612430263" lon="14.934064193325629"><ele>79.0</ele><time>2026-05-02T09:48:18.821Z</time></trkpt><trkpt lat="40.64279770595587" lon="14.933874371480298"><ele>79.0</ele><time>2026-05-02T09:48:19.821Z</time></trkpt><trkpt lat="40.642693805292026" lon="14.933688272016846"><ele>79.0</ele><time>2026-05-02T09:48:20.821Z</time></trkpt><trkpt lat="40.642589398791756" lon="14.933498134541924"><ele>79.0</ele><time>2026-05-02T09:48:21.821Z</time></trkpt><trkpt lat="40.6424915813144" lon="14.933317613091786"><ele>79.0</ele><time>2026-05-02T09:48:22.821Z</time></trkpt><trkpt lat="40.64239166797063" lon="14.933133705406005"><ele>78.0</ele><time>2026-05-02T09:48:23.821Z</time></trkpt><trkpt lat="40.64228872079311" lon="14.932944563816829"><ele>77.0</ele><time>2026-05-02T09:48:24.821Z</time></trkpt><trkpt lat="40.64218218910662" lon="14.932748193026061"><ele>76.0</ele><time>2026-05-02T09:48:25.821Z</time></trkpt><trkpt lat="40.642072925058166" lon="14.932553045125907"><ele>75.0</ele><time>2026-05-02T09:48:26.821Z</time></trkpt><trkpt lat="40.641964451311054" lon="14.932348064906177"><ele>74.0</ele><time>2026-05-02T09:48:27.821Z</time></trkpt><trkpt lat="40.64187466360395" lon="14.932124998565419"><ele>73.0</ele><time>2026-05-02T09:48:28.821Z</time></trkpt><trkpt lat="40.64176522546276" lon="14.931919670669503"><ele>71.66666666666666</ele><time>2026-05-02T09:48:29.821Z</time></trkpt><trkpt lat="40.64165252449838" lon="14.931714939140628"><ele>70.33333333333333</ele><time>2026-05-02T09:48:30.821Z</time></trkpt><trkpt lat="40.64153713855852" lon="14.931507207141653"><ele>69.0</ele><time>2026-05-02T09:48:31.821Z</time></trkpt><trkpt lat="40.64142155688067" lon="14.931299087229513"><ele>69.0</ele><time>2026-05-02T09:48:32.821Z</time></trkpt><trkpt lat="40.641304398721225" lon="14.93109083308277"><ele>69.0</ele><time>2026-05-02T09:48:33.821Z</time></trkpt><trkpt lat="40.64118255835162" lon="14.930892597334571"><ele>69.0</ele><time>2026-05-02T09:48:34.821Z</time></trkpt><trkpt lat="40.6410513954899" lon="14.930697201378685"><ele>68.66666666666667</ele><time>2026-05-02T09:48:35.823Z</time></trkpt><trkpt lat="40.640900927831495" lon="14.930517851026744"><ele>68.33333333333334</ele><time>2026-05-02T09:48:36.824Z</time></trkpt><trkpt lat="40.64073309340377" lon="14.930345987743198"><ele>68.0</ele><time>2026-05-02T09:48:37.824Z</time></trkpt><trkpt lat="40.640545150460646" lon="14.930162886364215"><ele>66.5</ele><time>2026-05-02T09:48:38.824Z</time></trkpt><trkpt lat="40.640352652740475" lon="14.929976550039498"><ele>65.0</ele><time>2026-05-02T09:48:39.824Z</time></trkpt><trkpt lat="40.64016616137981" lon="14.929789604346793"><ele>65.0</ele><time>2026-05-02T09:48:40.824Z</time></trkpt><trkpt lat="40.6399828449475" lon="14.929605913602325"><ele>65.0</ele><time>2026-05-02T09:48:41.824Z</time></trkpt><trkpt lat="40.639798481852736" lon="14.92942587114504"><ele>65.0</ele><time>2026-05-02T09:48:42.824Z</time></trkpt><trkpt lat="40.63961524428849" lon="14.929250879033452"><ele>65.0</ele><time>2026-05-02T09:48:43.824Z</time></trkpt><trkpt lat="40.63944022484721" lon="14.929081475756226"><ele>65.0</ele><time>2026-05-02T09:48:44.824Z</time></trkpt><trkpt lat="40.63928592129101" lon="14.928897922610492"><ele>64.33333333333334</ele><time>2026-05-02T09:48:45.823Z</time></trkpt><trkpt lat="40.6391335658185" lon="14.928748025192775"><ele>63.66666666666667</ele><time>2026-05-02T09:48:46.823Z</time></trkpt><trkpt lat="40.638986667511155" lon="14.928595160513527"><ele>63.0</ele><time>2026-05-02T09:48:47.824Z</time></trkpt><trkpt lat="40.63883600347755" lon="14.92844538574958"><ele>62.66666666666667</ele><time>2026-05-02T09:48:48.824Z</time></trkpt><trkpt lat="40.63868169694882" lon="14.928298420483925"><ele>62.333333333333336</ele><time>2026-05-02T09:48:49.824Z</time></trkpt><trkpt lat="40.63852577038363" lon="14.92814623770059"><ele>62.0</ele><time>2026-05-02T09:48:50.823Z</time></trkpt><trkpt lat="40.63835951926714" lon="14.927997272053858"><ele>61.66666666666667</ele><time>2026-05-02T09:48:51.823Z</time></trkpt><trkpt lat="40.638202962940134" lon="14.927851311170548"><ele>61.33333333333333</ele><time>2026-05-02T09:48:52.823Z</time></trkpt><trkpt lat="40.63805660205563" lon="14.927712274573656"><ele>61.0</ele><time>2026-05-02T09:48:53.823Z</time></trkpt><trkpt lat="40.637908454942654" lon="14.92757780128587"><ele>60.0</ele><time>2026-05-02T09:48:54.823Z</time></trkpt><trkpt lat="40.637758078234555" lon="14.927436188554484"><ele>59.0</ele><time>2026-05-02T09:48:55.823Z</time></trkpt><trkpt lat="40.63761754282267" lon="14.927301514253148"><ele>58.0</ele><time>2026-05-02T09:48:56.823Z</time></trkpt><trkpt lat="40.63747875311568" lon="14.927165296522901"><ele>58.0</ele><time>2026-05-02T09:48:57.823Z</time></trkpt><trkpt lat="40.63734011515594" lon="14.927031609806576"><ele>58.0</ele><time>2026-05-02T09:48:58.823Z</time></trkpt><trkpt lat="40.63721030305016" lon="14.926896892791543"><ele>58.0</ele><time>2026-05-02T09:48:59.823Z</time></trkpt><trkpt lat="40.63709107419823" lon="14.926752902693917"><ele>57.33333333333333</ele><time>2026-05-02T09:49:00.823Z</time></trkpt><trkpt lat="40.636977931925756" lon="14.926603542238857"><ele>56.66666666666667</ele><time>2026-05-02T09:49:01.823Z</time></trkpt><trkpt lat="40.636876619894636" lon="14.92644584132209"><ele>56.0</ele><time>2026-05-02T09:49:02.823Z</time></trkpt><trkpt lat="40.636788105996736" lon="14.926278359796374"><ele>56.0</ele><time>2026-05-02T09:49:03.823Z</time></trkpt><trkpt lat="40.63670297963242" lon="14.926105187877384"><ele>56.0</ele><time>2026-05-02T09:49:04.823Z</time></trkpt><trkpt lat="40.636619541929946" lon="14.925930242678247"><ele>56.0</ele><time>2026-05-02T09:49:05.823Z</time></trkpt><trkpt lat="40.63653743978257" lon="14.925751285938583"><ele>56.0</ele><time>2026-05-02T09:49:06.823Z</time></trkpt><trkpt lat="40.636456394429864" lon="14.925559488515537"><ele>56.0</ele><time>2026-05-02T09:49:07.823Z</time></trkpt><trkpt lat="40.63637153721998" lon="14.925365160663251"><ele>56.0</ele><time>2026-05-02T09:49:08.823Z</time></trkpt><trkpt lat="40.63627995836187" lon="14.925160442326517"><ele>55.66666666666667</ele><time>2026-05-02T09:49:09.823Z</time></trkpt><trkpt lat="40.63618680868215" lon="14.924953941485214"><ele>55.33333333333333</ele><time>2026-05-02T09:49:10.823Z</time></trkpt><trkpt lat="40.63609617447409" lon="14.924752776574142"><ele>55.0</ele><time>2026-05-02T09:49:11.823Z</time></trkpt><trkpt lat="40.63602588678543" lon="14.924537645238347"><ele>55.0</ele><time>2026-05-02T09:49:12.822Z</time></trkpt><trkpt lat="40.63594081381258" lon="14.924342884858314"><ele>55.0</ele><time>2026-05-02T09:49:13.822Z</time></trkpt><trkpt lat="40.635849961836804" lon="14.924146989632707"><ele>55.0</ele><time>2026-05-02T09:49:14.822Z</time></trkpt><trkpt lat="40.63575849140619" lon="14.923945822431998"><ele>55.0</ele><time>2026-05-02T09:49:15.822Z</time></trkpt><trkpt lat="40.63566591902377" lon="14.923742530586166"><ele>55.0</ele><time>2026-05-02T09:49:16.822Z</time></trkpt><trkpt lat="40.63557109437305" lon="14.923542624475353"><ele>55.0</ele><time>2026-05-02T09:49:17.822Z</time></trkpt><trkpt lat="40.635481078155095" lon="14.923350933719117"><ele>55.0</ele><time>2026-05-02T09:49:18.822Z</time></trkpt><trkpt lat="40.635400810091824" lon="14.923161558689703"><ele>55.0</ele><time>2026-05-02T09:49:19.822Z</time></trkpt><trkpt lat="40.63531924403214" lon="14.922983337091551"><ele>55.0</ele><time>2026-05-02T09:49:20.822Z</time></trkpt><trkpt lat="40.63524384328042" lon="14.922804843064535"><ele>55.0</ele><time>2026-05-02T09:49:21.822Z</time></trkpt><trkpt lat="40.63516922513259" lon="14.922629498205735"><ele>55.0</ele><time>2026-05-02T09:49:22.822Z</time></trkpt><trkpt lat="40.63509235321368" lon="14.922458747220672"><ele>55.0</ele><time>2026-05-02T09:49:23.822Z</time></trkpt><trkpt lat="40.63501517864179" lon="14.92228645117201"><ele>54.25</ele><time>2026-05-02T09:49:24.822Z</time></trkpt><trkpt lat="40.63493864860985" lon="14.922120499868663"><ele>53.5</ele><time>2026-05-02T09:49:25.822Z</time></trkpt><trkpt lat="40.634869034878136" lon="14.9219594354115"><ele>52.75</ele><time>2026-05-02T09:49:26.822Z</time></trkpt><trkpt lat="40.63479875941426" lon="14.921809929661574"><ele>52.0</ele><time>2026-05-02T09:49:27.822Z</time></trkpt><trkpt lat="40.63473555123927" lon="14.921672752684922"><ele>51.83333333333333</ele><time>2026-05-02T09:49:28.822Z</time></trkpt><trkpt lat="40.63468418524553" lon="14.921551129597653"><ele>51.666666666666664</ele><time>2026-05-02T09:49:29.822Z</time></trkpt><trkpt lat="40.634647087803714" lon="14.921444477431248"><ele>51.5</ele><time>2026-05-02T09:49:30.822Z</time></trkpt><trkpt lat="40.634631147310806" lon="14.921341851604499"><ele>51.33333333333333</ele><time>2026-05-02T09:49:31.822Z</time></trkpt><trkpt lat="40.63462753369759" lon="14.921236965379515"><ele>51.166666666666664</ele><time>2026-05-02T09:49:32.822Z</time></trkpt><trkpt lat="40.63462291614552" lon="14.921140971744041"><ele>51.0</ele><time>2026-05-02T09:49:33.822Z</time></trkpt><trkpt lat="40.63460048858614" lon="14.921063014716909"><ele>51.0</ele><time>2026-05-02T09:49:34.821Z</time></trkpt><trkpt lat="40.63449821751982" lon="14.92097166095253"><ele>51.0</ele><time>2026-05-02T09:49:36.821Z</time></trkpt><trkpt lat="40.63442323984803" lon="14.920948060673554"><ele>51.0</ele><time>2026-05-02T09:49:37.821Z</time></trkpt><trkpt lat="40.634355950732164" lon="14.920903524370864"><ele>51.0</ele><time>2026-05-02T09:49:38.821Z</time></trkpt><trkpt lat="40.63430333772382" lon="14.920830692368073"><ele>51.0</ele><time>2026-05-02T09:49:39.821Z</time></trkpt><trkpt lat="40.63426871123264" lon="14.920731130558993"><ele>51.0</ele><time>2026-05-02T09:49:40.821Z</time></trkpt><trkpt lat="40.634253192251535" lon="14.920625312450705"><ele>50.599999999999994</ele><time>2026-05-02T09:49:41.821Z</time></trkpt><trkpt lat="40.63420397165429" lon="14.920542929635543"><ele>50.2</ele><time>2026-05-02T09:49:42.821Z</time></trkpt><trkpt lat="40.634148303864876" lon="14.920492017747922"><ele>49.8</ele><time>2026-05-02T09:49:43.821Z</time></trkpt><trkpt lat="40.63399659362439" lon="14.920548058900074"><ele>49.400000000000006</ele><time>2026-05-02T09:49:45.821Z</time></trkpt><trkpt lat="40.63393365037192" lon="14.920621215993883"><ele>49.0</ele><time>2026-05-02T09:49:46.821Z</time></trkpt><trkpt lat="40.63388010413487" lon="14.920716032364657"><ele>49.0</ele><time>2026-05-02T09:49:47.821Z</time></trkpt><trkpt lat="40.6338282107032" lon="14.9208182185708"><ele>49.0</ele><time>2026-05-02T09:49:48.821Z</time></trkpt><trkpt lat="40.63377218748673" lon="14.920906798847561"><ele>49.0</ele><time>2026-05-02T09:49:49.821Z</time></trkpt><trkpt lat="40.633688513665106" lon="14.920959122304126"><ele>49.0</ele><time>2026-05-02T09:49:50.821Z</time></trkpt><trkpt lat="40.6335960854151" lon="14.920976442143367"><ele>49.0</ele><time>2026-05-02T09:49:51.821Z</time></trkpt><trkpt lat="40.63350763177322" lon="14.920954927885724"><ele>49.0</ele><time>2026-05-02T09:49:52.821Z</time></trkpt><trkpt lat="40.63342274536993" lon="14.920902467141406"><ele>49.0</ele><time>2026-05-02T09:49:53.821Z</time></trkpt><trkpt lat="40.63334003802036" lon="14.920817789734297"><ele>49.0</ele><time>2026-05-02T09:49:54.821Z</time></trkpt><trkpt lat="40.63327630457789" lon="14.920708225434165"><ele>49.0</ele><time>2026-05-02T09:49:55.821Z</time></trkpt><trkpt lat="40.63323483694246" lon="14.920573848234168"><ele>49.0</ele><time>2026-05-02T09:49:56.82Z</time></trkpt><trkpt lat="40.633222970714016" lon="14.920429426618389"><ele>49.0</ele><time>2026-05-02T09:49:57.82Z</time></trkpt><trkpt lat="40.63324056418362" lon="14.920268426731127"><ele>49.0</ele><time>2026-05-02T09:49:58.82Z</time></trkpt><trkpt lat="40.63326034592584" lon="14.920089713615203"><ele>49.0</ele><time>2026-05-02T09:49:59.82Z</time></trkpt><trkpt lat="40.633327177313525" lon="14.919898072624918"><ele>49.0</ele><time>2026-05-02T09:50:00.82Z</time></trkpt><trkpt lat="40.63341566262919" lon="14.919683999843606"><ele>48.666666666666664</ele><time>2026-05-02T09:50:01.82Z</time></trkpt><trkpt lat="40.633500334485014" lon="14.919437819442507"><ele>48.33333333333333</ele><time>2026-05-02T09:50:02.82Z</time></trkpt><trkpt lat="40.633597354228215" lon="14.919163107399568"><ele>48.0</ele><time>2026-05-02T09:50:03.82Z</time></trkpt><trkpt lat="40.63369220780479" lon="14.918871447728504"><ele>47.5</ele><time>2026-05-02T09:50:04.82Z</time></trkpt><trkpt lat="40.6337769675786" lon="14.918561301191039"><ele>47.0</ele><time>2026-05-02T09:50:05.82Z</time></trkpt><trkpt lat="40.633879210755225" lon="14.918250742968734"><ele>46.0</ele><time>2026-05-02T09:50:06.82Z</time></trkpt><trkpt lat="40.633984624211365" lon="14.917935634769249"><ele>45.0</ele><time>2026-05-02T09:50:07.82Z</time></trkpt><trkpt lat="40.63409906007041" lon="14.917610055904285"><ele>44.5</ele><time>2026-05-02T09:50:08.82Z</time></trkpt><trkpt lat="40.6341923797586" lon="14.91727198300419"><ele>44.0</ele><time>2026-05-02T09:50:09.82Z</time></trkpt><trkpt lat="40.63429604904939" lon="14.916946381321925"><ele>43.0</ele><time>2026-05-02T09:50:10.82Z</time></trkpt><trkpt lat="40.634398217186764" lon="14.916619754063401"><ele>42.0</ele><time>2026-05-02T09:50:11.82Z</time></trkpt><trkpt lat="40.63450731358251" lon="14.916295112189376"><ele>42.0</ele><time>2026-05-02T09:50:12.82Z</time></trkpt><trkpt lat="40.63461813235591" lon="14.915972289336686"><ele>42.0</ele><time>2026-05-02T09:50:13.82Z</time></trkpt><trkpt lat="40.63473001627744" lon="14.915638069101277"><ele>42.0</ele><time>2026-05-02T09:50:14.82Z</time></trkpt><trkpt lat="40.63483546289669" lon="14.915299537405918"><ele>42.0</ele><time>2026-05-02T09:50:15.82Z</time></trkpt><trkpt lat="40.634948978953894" lon="14.914964658912563"><ele>42.0</ele><time>2026-05-02T09:50:16.82Z</time></trkpt><trkpt lat="40.635065535310034" lon="14.914630713650881"><ele>42.0</ele><time>2026-05-02T09:50:17.819Z</time></trkpt><trkpt lat="40.635181408450954" lon="14.914290934225347"><ele>41.0</ele><time>2026-05-02T09:50:18.819Z</time></trkpt><trkpt lat="40.63529815886194" lon="14.91395274822702"><ele>40.0</ele><time>2026-05-02T09:50:19.819Z</time></trkpt><trkpt lat="40.63540918667741" lon="14.913603790963126"><ele>39.0</ele><time>2026-05-02T09:50:20.819Z</time></trkpt><trkpt lat="40.63551830118167" lon="14.913250040116237"><ele>38.0</ele><time>2026-05-02T09:50:21.819Z</time></trkpt><trkpt lat="40.63562815029444" lon="14.912899288849399"><ele>38.5</ele><time>2026-05-02T09:50:22.819Z</time></trkpt><trkpt lat="40.63574100701384" lon="14.912552344767347"><ele>39.0</ele><time>2026-05-02T09:50:23.819Z</time></trkpt><trkpt lat="40.635853428190664" lon="14.912204536271638"><ele>39.0</ele><time>2026-05-02T09:50:24.819Z</time></trkpt><trkpt lat="40.63596432619638" lon="14.911855841189828"><ele>39.0</ele><time>2026-05-02T09:50:25.819Z</time></trkpt><trkpt lat="40.636076411738195" lon="14.911506391794665"><ele>39.0</ele><time>2026-05-02T09:50:26.819Z</time></trkpt><trkpt lat="40.63618787897689" lon="14.91116173785671"><ele>39.0</ele><time>2026-05-02T09:50:27.819Z</time></trkpt><trkpt lat="40.636300430079636" lon="14.910822091921597"><ele>38.0</ele><time>2026-05-02T09:50:28.819Z</time></trkpt><trkpt lat="40.636416832396336" lon="14.910474846047581"><ele>37.0</ele><time>2026-05-02T09:50:29.819Z</time></trkpt><trkpt lat="40.63653109302565" lon="14.910122667283645"><ele>36.5</ele><time>2026-05-02T09:50:30.819Z</time></trkpt><trkpt lat="40.63664776009312" lon="14.909767136863113"><ele>36.0</ele><time>2026-05-02T09:50:31.819Z</time></trkpt><trkpt lat="40.63676705691414" lon="14.909403984112698"><ele>37.0</ele><time>2026-05-02T09:50:32.819Z</time></trkpt><trkpt lat="40.63688983571282" lon="14.90904042516449"><ele>38.0</ele><time>2026-05-02T09:50:33.819Z</time></trkpt><trkpt lat="40.63701593621728" lon="14.908679553047403"><ele>39.0</ele><time>2026-05-02T09:50:34.819Z</time></trkpt><trkpt lat="40.637143054346254" lon="14.908319533758847"><ele>40.0</ele><time>2026-05-02T09:50:35.819Z</time></trkpt><trkpt lat="40.637275262638134" lon="14.907962834122026"><ele>40.0</ele><time>2026-05-02T09:50:36.819Z</time></trkpt><trkpt lat="40.63740972863236" lon="14.907604546622327"><ele>40.0</ele><time>2026-05-02T09:50:37.819Z</time></trkpt><trkpt lat="40.637547773870416" lon="14.907251211202647"><ele>40.0</ele><time>2026-05-02T09:50:38.819Z</time></trkpt><trkpt lat="40.63769205474243" lon="14.90690168844957"><ele>40.0</ele><time>2026-05-02T09:50:39.818Z</time></trkpt><trkpt lat="40.63783993696404" lon="14.906553568729718"><ele>40.0</ele><time>2026-05-02T09:50:40.821Z</time></trkpt><trkpt lat="40.63798796435761" lon="14.906208408614207"><ele>40.0</ele><time>2026-05-02T09:50:41.822Z</time></trkpt><trkpt lat="40.638142858963114" lon="14.90587422538143"><ele>39.5</ele><time>2026-05-02T09:50:42.822Z</time></trkpt><trkpt lat="40.638296802220005" lon="14.90553571459741"><ele>39.0</ele><time>2026-05-02T09:50:43.821Z</time></trkpt><trkpt lat="40.63844824269721" lon="14.905199843431976"><ele>39.5</ele><time>2026-05-02T09:50:44.822Z</time></trkpt><trkpt lat="40.63860086166714" lon="14.90486551335515"><ele>40.0</ele><time>2026-05-02T09:50:45.822Z</time></trkpt><trkpt lat="40.63875623757522" lon="14.904526291684743"><ele>39.5</ele><time>2026-05-02T09:50:46.822Z</time></trkpt><trkpt lat="40.63891012791306" lon="14.90418960309291"><ele>39.0</ele><time>2026-05-02T09:50:47.821Z</time></trkpt><trkpt lat="40.639060878715746" lon="14.903853552472722"><ele>39.0</ele><time>2026-05-02T09:50:48.821Z</time></trkpt><trkpt lat="40.63921663084407" lon="14.903521153730834"><ele>39.0</ele><time>2026-05-02T09:50:49.822Z</time></trkpt><trkpt lat="40.63936723292829" lon="14.903190958996914"><ele>39.5</ele><time>2026-05-02T09:50:50.822Z</time></trkpt><trkpt lat="40.63951749188142" lon="14.902854147760653"><ele>40.0</ele><time>2026-05-02T09:50:51.821Z</time></trkpt><trkpt lat="40.63967063579742" lon="14.902514980557092"><ele>40.0</ele><time>2026-05-02T09:50:52.821Z</time></trkpt><trkpt lat="40.639824998002005" lon="14.902178135733193"><ele>40.0</ele><time>2026-05-02T09:50:53.821Z</time></trkpt><trkpt lat="40.63997790531037" lon="14.90184077865114"><ele>39.5</ele><time>2026-05-02T09:50:54.821Z</time></trkpt><trkpt lat="40.6401279671513" lon="14.901500959330873"><ele>39.0</ele><time>2026-05-02T09:50:55.821Z</time></trkpt><trkpt lat="40.64028424173129" lon="14.901166572659736"><ele>39.5</ele><time>2026-05-02T09:50:56.821Z</time></trkpt><trkpt lat="40.640444409434565" lon="14.900824570049616"><ele>40.0</ele><time>2026-05-02T09:50:57.821Z</time></trkpt><trkpt lat="40.64059720687534" lon="14.900490546957357"><ele>40.0</ele><time>2026-05-02T09:50:58.821Z</time></trkpt><trkpt lat="40.64075687279306" lon="14.90016328537563"><ele>40.0</ele><time>2026-05-02T09:50:59.821Z</time></trkpt><trkpt lat="40.640909298319855" lon="14.899833977608369"><ele>39.5</ele><time>2026-05-02T09:51:00.821Z</time></trkpt><trkpt lat="40.641060200261755" lon="14.899505700421132"><ele>39.0</ele><time>2026-05-02T09:51:01.821Z</time></trkpt><trkpt lat="40.641205073199714" lon="14.89917687975805"><ele>38.5</ele><time>2026-05-02T09:51:02.821Z</time></trkpt><trkpt lat="40.641348448546545" lon="14.898850654490783"><ele>38.0</ele><time>2026-05-02T09:51:03.821Z</time></trkpt><trkpt lat="40.64149114007505" lon="14.89852714404385"><ele>37.5</ele><time>2026-05-02T09:51:04.82Z</time></trkpt><trkpt lat="40.64163846325392" lon="14.89820638375874"><ele>37.0</ele><time>2026-05-02T09:51:05.82Z</time></trkpt><trkpt lat="40.64178912266255" lon="14.897877705214661"><ele>36.5</ele><time>2026-05-02T09:51:06.82Z</time></trkpt><trkpt lat="40.64193497752994" lon="14.897545601091863"><ele>36.0</ele><time>2026-05-02T09:51:07.82Z</time></trkpt><trkpt lat="40.642084791885374" lon="14.897204022047607"><ele>37.5</ele><time>2026-05-02T09:51:08.82Z</time></trkpt><trkpt lat="40.64224003150602" lon="14.896860566127566"><ele>39.0</ele><time>2026-05-02T09:51:09.82Z</time></trkpt><trkpt lat="40.64239111922298" lon="14.896511418674603"><ele>39.0</ele><time>2026-05-02T09:51:10.82Z</time></trkpt><trkpt lat="40.64254356412783" lon="14.896177124877571"><ele>39.0</ele><time>2026-05-02T09:51:11.82Z</time></trkpt><trkpt lat="40.642705919321536" lon="14.89583712432613"><ele>41.0</ele><time>2026-05-02T09:51:12.82Z</time></trkpt><trkpt lat="40.642859674044665" lon="14.895511557550154"><ele>43.0</ele><time>2026-05-02T09:51:13.82Z</time></trkpt><trkpt lat="40.643012443599346" lon="14.895186625415482"><ele>42.0</ele><time>2026-05-02T09:51:14.82Z</time></trkpt><trkpt lat="40.6431614916282" lon="14.89486002453745"><ele>41.0</ele><time>2026-05-02T09:51:15.82Z</time></trkpt><trkpt lat="40.64330994300755" lon="14.894528769683056"><ele>41.0</ele><time>2026-05-02T09:51:16.82Z</time></trkpt><trkpt lat="40.643459515098414" lon="14.894188001007924"><ele>41.0</ele><time>2026-05-02T09:51:17.82Z</time></trkpt><trkpt lat="40.64361280115571" lon="14.893844037181914"><ele>42.0</ele><time>2026-05-02T09:51:18.82Z</time></trkpt><trkpt lat="40.64376748465493" lon="14.89350483612602"><ele>43.0</ele><time>2026-05-02T09:51:19.82Z</time></trkpt><trkpt lat="40.643927450711736" lon="14.893159794607438"><ele>43.0</ele><time>2026-05-02T09:51:20.82Z</time></trkpt><trkpt lat="40.64408581818524" lon="14.892815767519352"><ele>43.0</ele><time>2026-05-02T09:51:21.82Z</time></trkpt><trkpt lat="40.644241652274665" lon="14.89246777827865"><ele>43.5</ele><time>2026-05-02T09:51:22.82Z</time></trkpt><trkpt lat="40.644399639320085" lon="14.892118426603766"><ele>44.0</ele><time>2026-05-02T09:51:23.82Z</time></trkpt><trkpt lat="40.64455273607428" lon="14.891764200109057"><ele>45.0</ele><time>2026-05-02T09:51:24.82Z</time></trkpt><trkpt lat="40.6447128757284" lon="14.8914173864919"><ele>46.0</ele><time>2026-05-02T09:51:25.82Z</time></trkpt><trkpt lat="40.64486982475062" lon="14.891067610255037"><ele>45.0</ele><time>2026-05-02T09:51:26.819Z</time></trkpt><trkpt lat="40.64502357821127" lon="14.890720602257538"><ele>44.0</ele><time>2026-05-02T09:51:27.819Z</time></trkpt><trkpt lat="40.6451777520078" lon="14.8903716219416"><ele>45.5</ele><time>2026-05-02T09:51:28.819Z</time></trkpt><trkpt lat="40.64533297676938" lon="14.890019608410599"><ele>47.0</ele><time>2026-05-02T09:51:29.819Z</time></trkpt><trkpt lat="40.64548836591258" lon="14.889672603870684"><ele>47.0</ele><time>2026-05-02T09:51:30.819Z</time></trkpt><trkpt lat="40.64564391051167" lon="14.889324844247183"><ele>47.0</ele><time>2026-05-02T09:51:31.819Z</time></trkpt><trkpt lat="40.64579712592748" lon="14.888978604739448"><ele>46.5</ele><time>2026-05-02T09:51:32.819Z</time></trkpt><trkpt lat="40.64594995431734" lon="14.888632242160961"><ele>46.0</ele><time>2026-05-02T09:51:33.819Z</time></trkpt><trkpt lat="40.64610559952126" lon="14.888278939795583"><ele>45.5</ele><time>2026-05-02T09:51:34.819Z</time></trkpt><trkpt lat="40.64626209131699" lon="14.887922774525764"><ele>45.0</ele><time>2026-05-02T09:51:35.819Z</time></trkpt><trkpt lat="40.64642074351887" lon="14.887564241804435"><ele>44.0</ele><time>2026-05-02T09:51:36.819Z</time></trkpt><trkpt lat="40.646581632551396" lon="14.887204022412446"><ele>43.0</ele><time>2026-05-02T09:51:37.819Z</time></trkpt><trkpt lat="40.64673454543228" lon="14.88684389107904"><ele>43.0</ele><time>2026-05-02T09:51:38.819Z</time></trkpt><trkpt lat="40.646900758311794" lon="14.886487084955693"><ele>43.0</ele><time>2026-05-02T09:51:39.819Z</time></trkpt><trkpt lat="40.64706282234902" lon="14.8861337995191"><ele>43.5</ele><time>2026-05-02T09:51:40.819Z</time></trkpt><trkpt lat="40.64721855734572" lon="14.885787539574245"><ele>44.0</ele><time>2026-05-02T09:51:41.819Z</time></trkpt><trkpt lat="40.64737080144047" lon="14.88543568126454"><ele>43.0</ele><time>2026-05-02T09:51:42.819Z</time></trkpt><trkpt lat="40.64751983194453" lon="14.885082314459988"><ele>42.0</ele><time>2026-05-02T09:51:43.819Z</time></trkpt><trkpt lat="40.647670856454695" lon="14.884727703273395"><ele>42.0</ele><time>2026-05-02T09:51:44.819Z</time></trkpt><trkpt lat="40.647821985627466" lon="14.884379293738045"><ele>42.0</ele><time>2026-05-02T09:51:45.819Z</time></trkpt><trkpt lat="40.6479803284168" lon="14.884032110634132"><ele>42.0</ele><time>2026-05-02T09:51:46.819Z</time></trkpt><trkpt lat="40.64813997980681" lon="14.88368604951106"><ele>42.0</ele><time>2026-05-02T09:51:47.818Z</time></trkpt><trkpt lat="40.648295453106115" lon="14.883325844896316"><ele>41.5</ele><time>2026-05-02T09:51:48.818Z</time></trkpt><trkpt lat="40.64846045408802" lon="14.882975295398298"><ele>41.0</ele><time>2026-05-02T09:51:49.818Z</time></trkpt><trkpt lat="40.64861171444047" lon="14.882621023669898"><ele>41.0</ele><time>2026-05-02T09:51:50.818Z</time></trkpt><trkpt lat="40.64876666282809" lon="14.882266424490492"><ele>41.0</ele><time>2026-05-02T09:51:51.818Z</time></trkpt><trkpt lat="40.648916046516206" lon="14.881904375935129"><ele>40.5</ele><time>2026-05-02T09:51:52.818Z</time></trkpt><trkpt lat="40.64907185067961" lon="14.881542618342001"><ele>40.0</ele><time>2026-05-02T09:51:53.818Z</time></trkpt><trkpt lat="40.64923935832643" lon="14.881173871378463"><ele>40.0</ele><time>2026-05-02T09:51:54.818Z</time></trkpt><trkpt lat="40.64940880047762" lon="14.880797886158945"><ele>40.0</ele><time>2026-05-02T09:51:55.818Z</time></trkpt><trkpt lat="40.649582956410555" lon="14.880431255554283"><ele>39.0</ele><time>2026-05-02T09:51:56.818Z</time></trkpt><trkpt lat="40.64975450800964" lon="14.880066954675726"><ele>38.0</ele><time>2026-05-02T09:51:57.818Z</time></trkpt><trkpt lat="40.649912405309884" lon="14.879702851702357"><ele>38.0</ele><time>2026-05-02T09:51:58.818Z</time></trkpt><trkpt lat="40.65007371755524" lon="14.879346657213386"><ele>38.0</ele><time>2026-05-02T09:51:59.818Z</time></trkpt><trkpt lat="40.65024279372904" lon="14.878986011153396"><ele>38.5</ele><time>2026-05-02T09:52:00.818Z</time></trkpt><trkpt lat="40.650407735208375" lon="14.878623288622084"><ele>39.0</ele><time>2026-05-02T09:52:01.818Z</time></trkpt><trkpt lat="40.65056555479206" lon="14.878260593755263"><ele>37.5</ele><time>2026-05-02T09:52:02.818Z</time></trkpt><trkpt lat="40.65072372058475" lon="14.877897088610382"><ele>36.0</ele><time>2026-05-02T09:52:03.818Z</time></trkpt><trkpt lat="40.650879411791344" lon="14.87752874780131"><ele>36.0</ele><time>2026-05-02T09:52:04.818Z</time></trkpt><trkpt lat="40.6510413415636" lon="14.877163428784772"><ele>36.0</ele><time>2026-05-02T09:52:05.818Z</time></trkpt><trkpt lat="40.65120492074832" lon="14.876797892719345"><ele>36.0</ele><time>2026-05-02T09:52:06.818Z</time></trkpt><trkpt lat="40.65137052309714" lon="14.876432849160748"><ele>36.0</ele><time>2026-05-02T09:52:07.818Z</time></trkpt><trkpt lat="40.65153919576806" lon="14.87605942784026"><ele>36.0</ele><time>2026-05-02T09:52:08.818Z</time></trkpt><trkpt lat="40.65170629131233" lon="14.875682989775223"><ele>36.0</ele><time>2026-05-02T09:52:09.817Z</time></trkpt><trkpt lat="40.65186572528153" lon="14.87530809080975"><ele>35.0</ele><time>2026-05-02T09:52:10.817Z</time></trkpt><trkpt lat="40.65202423456441" lon="14.874936596929285"><ele>34.0</ele><time>2026-05-02T09:52:11.817Z</time></trkpt><trkpt lat="40.65218056810978" lon="14.87457546187502"><ele>32.5</ele><time>2026-05-02T09:52:12.817Z</time></trkpt><trkpt lat="40.65234035630373" lon="14.874219886543566"><ele>31.0</ele><time>2026-05-02T09:52:13.817Z</time></trkpt><trkpt lat="40.652497482617484" lon="14.873866672335566"><ele>31.0</ele><time>2026-05-02T09:52:14.817Z</time></trkpt><trkpt lat="40.652650653074296" lon="14.873523493955545"><ele>31.0</ele><time>2026-05-02T09:52:15.817Z</time></trkpt><trkpt lat="40.652805733847394" lon="14.87318118271491"><ele>31.0</ele><time>2026-05-02T09:52:16.817Z</time></trkpt><trkpt lat="40.65295962135492" lon="14.872836147108863"><ele>31.0</ele><time>2026-05-02T09:52:17.817Z</time></trkpt><trkpt lat="40.65310175353597" lon="14.87247901392123"><ele>31.0</ele><time>2026-05-02T09:52:18.817Z</time></trkpt><trkpt lat="40.65324032599601" lon="14.87211876313356"><ele>31.0</ele><time>2026-05-02T09:52:19.817Z</time></trkpt><trkpt lat="40.65338536863048" lon="14.871758978424875"><ele>31.5</ele><time>2026-05-02T09:52:20.817Z</time></trkpt><trkpt lat="40.65352821965801" lon="14.871397147724396"><ele>32.0</ele><time>2026-05-02T09:52:21.817Z</time></trkpt><trkpt lat="40.65367123896079" lon="14.871034503552492"><ele>34.5</ele><time>2026-05-02T09:52:22.817Z</time></trkpt><trkpt lat="40.65381504308817" lon="14.870676409775733"><ele>37.0</ele><time>2026-05-02T09:52:23.817Z</time></trkpt><trkpt lat="40.65395939220892" lon="14.870317322473362"><ele>38.5</ele><time>2026-05-02T09:52:24.817Z</time></trkpt><trkpt lat="40.65410763032824" lon="14.869957862800387"><ele>40.0</ele><time>2026-05-02T09:52:25.817Z</time></trkpt><trkpt lat="40.654254260569594" lon="14.869593753558961"><ele>40.0</ele><time>2026-05-02T09:52:26.817Z</time></trkpt><trkpt lat="40.654397746278036" lon="14.869231568132324"><ele>40.0</ele><time>2026-05-02T09:52:27.817Z</time></trkpt><trkpt lat="40.65454212460632" lon="14.868870369044442"><ele>41.5</ele><time>2026-05-02T09:52:28.817Z</time></trkpt><trkpt lat="40.65468311064723" lon="14.868511282185008"><ele>43.0</ele><time>2026-05-02T09:52:29.817Z</time></trkpt><trkpt lat="40.654825077581556" lon="14.868156004251667"><ele>43.0</ele><time>2026-05-02T09:52:30.817Z</time></trkpt><trkpt lat="40.654965576901155" lon="14.867804173305842"><ele>43.0</ele><time>2026-05-02T09:52:31.816Z</time></trkpt><trkpt lat="40.655106877707055" lon="14.86745844261475"><ele>43.0</ele><time>2026-05-02T09:52:32.816Z</time></trkpt><trkpt lat="40.6552509810061" lon="14.867114930989025"><ele>43.0</ele><time>2026-05-02T09:52:33.816Z</time></trkpt><trkpt lat="40.655397131034405" lon="14.866767688593885"><ele>45.5</ele><time>2026-05-02T09:52:34.816Z</time></trkpt><trkpt lat="40.65554418167877" lon="14.866421128307541"><ele>48.0</ele><time>2026-05-02T09:52:35.816Z</time></trkpt><trkpt lat="40.65569402659513" lon="14.866072423339721"><ele>47.0</ele><time>2026-05-02T09:52:36.816Z</time></trkpt><trkpt lat="40.655848429096075" lon="14.865726361308022"><ele>46.0</ele><time>2026-05-02T09:52:37.816Z</time></trkpt><trkpt lat="40.656011118966894" lon="14.865383619385629"><ele>46.5</ele><time>2026-05-02T09:52:38.816Z</time></trkpt><trkpt lat="40.65618786780726" lon="14.865046119457341"><ele>47.0</ele><time>2026-05-02T09:52:39.816Z</time></trkpt><trkpt lat="40.65637500669639" lon="14.864725021423986"><ele>47.0</ele><time>2026-05-02T09:52:40.816Z</time></trkpt><trkpt lat="40.656572237590275" lon="14.864418389050991"><ele>47.0</ele><time>2026-05-02T09:52:41.816Z</time></trkpt><trkpt lat="40.656779123754866" lon="14.864127660614248"><ele>46.5</ele><time>2026-05-02T09:52:42.816Z</time></trkpt><trkpt lat="40.65698892365738" lon="14.863848367813832"><ele>46.0</ele><time>2026-05-02T09:52:43.816Z</time></trkpt><trkpt lat="40.65719743107941" lon="14.863576540345637"><ele>47.5</ele><time>2026-05-02T09:52:44.816Z</time></trkpt><trkpt lat="40.65740765104609" lon="14.863312459253617"><ele>49.0</ele><time>2026-05-02T09:52:45.816Z</time></trkpt><trkpt lat="40.65762228360902" lon="14.863056423503792"><ele>48.5</ele><time>2026-05-02T09:52:46.819Z</time></trkpt><trkpt lat="40.65784308058415" lon="14.862812245004273"><ele>48.0</ele><time>2026-05-02T09:52:47.82Z</time></trkpt><trkpt lat="40.65806741953233" lon="14.862585901475647"><ele>50.0</ele><time>2026-05-02T09:52:48.82Z</time></trkpt><trkpt lat="40.65829399848298" lon="14.862368485349776"><ele>52.0</ele><time>2026-05-02T09:52:49.819Z</time></trkpt><trkpt lat="40.65852876486539" lon="14.862157732915568"><ele>54.5</ele><time>2026-05-02T09:52:50.819Z</time></trkpt><trkpt lat="40.65877965206074" lon="14.861943746131528"><ele>57.0</ele><time>2026-05-02T09:52:51.819Z</time></trkpt><trkpt lat="40.65903073329748" lon="14.861733159981958"><ele>57.0</ele><time>2026-05-02T09:52:52.819Z</time></trkpt><trkpt lat="40.65928759046072" lon="14.861528342492251"><ele>57.0</ele><time>2026-05-02T09:52:53.819Z</time></trkpt><trkpt lat="40.659548941393766" lon="14.861331283702093"><ele>58.5</ele><time>2026-05-02T09:52:54.819Z</time></trkpt><trkpt lat="40.659815274068364" lon="14.86113435351711"><ele>60.0</ele><time>2026-05-02T09:52:55.82Z</time></trkpt><trkpt lat="40.66008234491344" lon="14.860938586015974"><ele>65.0</ele><time>2026-05-02T09:52:56.819Z</time></trkpt><trkpt lat="40.66034215440244" lon="14.860733419606404"><ele>70.0</ele><time>2026-05-02T09:52:57.819Z</time></trkpt><trkpt lat="40.660599932182755" lon="14.860530022710703"><ele>70.0</ele><time>2026-05-02T09:52:58.819Z</time></trkpt><trkpt lat="40.66085960812446" lon="14.860334824112272"><ele>70.0</ele><time>2026-05-02T09:52:59.819Z</time></trkpt><trkpt lat="40.66112245405154" lon="14.860156636534018"><ele>70.0</ele><time>2026-05-02T09:53:00.819Z</time></trkpt><trkpt lat="40.66139374053562" lon="14.860000000331176"><ele>70.0</ele><time>2026-05-02T09:53:01.819Z</time></trkpt><trkpt lat="40.66166656013396" lon="14.859849450669225"><ele>70.0</ele><time>2026-05-02T09:53:02.819Z</time></trkpt><trkpt lat="40.661939212994795" lon="14.859709962303672"><ele>70.0</ele><time>2026-05-02T09:53:03.819Z</time></trkpt><trkpt lat="40.66220968657571" lon="14.859581372903785"><ele>74.5</ele><time>2026-05-02T09:53:04.819Z</time></trkpt><trkpt lat="40.66247914998548" lon="14.859457742105421"><ele>79.0</ele><time>2026-05-02T09:53:05.819Z</time></trkpt><trkpt lat="40.66275253041889" lon="14.859354308125653"><ele>86.0</ele><time>2026-05-02T09:53:06.819Z</time></trkpt><trkpt lat="40.663025377614794" lon="14.859268416770714"><ele>93.0</ele><time>2026-05-02T09:53:07.819Z</time></trkpt><trkpt lat="40.663303210854" lon="14.85918918700097"><ele>93.0</ele><time>2026-05-02T09:53:08.819Z</time></trkpt><trkpt lat="40.66359143587259" lon="14.859113036096407"><ele>93.0</ele><time>2026-05-02T09:53:09.818Z</time></trkpt><trkpt lat="40.663883456164115" lon="14.859042102532669"><ele>112.0</ele><time>2026-05-02T09:53:10.818Z</time></trkpt><trkpt lat="40.6641855807982" lon="14.858982682198222"><ele>131.0</ele><time>2026-05-02T09:53:11.818Z</time></trkpt><trkpt lat="40.664494684579445" lon="14.858932988088162"><ele>150.5</ele><time>2026-05-02T09:53:12.818Z</time></trkpt><trkpt lat="40.66480601726208" lon="14.858885146698645"><ele>170.0</ele><time>2026-05-02T09:53:13.818Z</time></trkpt><trkpt lat="40.665122710397334" lon="14.858845813498252"><ele>178.0</ele><time>2026-05-02T09:53:14.818Z</time></trkpt><trkpt lat="40.66543902462109" lon="14.858806436075925"><ele>186.0</ele><time>2026-05-02T09:53:15.818Z</time></trkpt><trkpt lat="40.665757721764976" lon="14.858770463248437"><ele>112.0</ele><time>2026-05-02T09:53:16.818Z</time></trkpt><trkpt lat="40.67024541057833" lon="14.858372491869048"><ele>140.0</ele><time>2026-05-02T09:53:30.818Z</time></trkpt><trkpt lat="40.67069344907653" lon="14.858150908466953"><ele>140.0</ele><time>2026-05-02T09:53:31.817Z</time></trkpt><trkpt lat="40.671002726511496" lon="14.8580870885848"><ele>140.0</ele><time>2026-05-02T09:53:32.817Z</time></trkpt><trkpt lat="40.67135101527004" lon="14.858168795942134"><ele>161.5</ele><time>2026-05-02T09:53:33.817Z</time></trkpt><trkpt lat="40.67169942866135" lon="14.858136734042812"><ele>183.0</ele><time>2026-05-02T09:53:34.817Z</time></trkpt><trkpt lat="40.67204034381613" lon="14.858107246320055"><ele>193.5</ele><time>2026-05-02T09:53:35.817Z</time></trkpt><trkpt lat="40.67245411784196" lon="14.858073645059658"><ele>204.0</ele><time>2026-05-02T09:53:36.961Z</time></trkpt><trkpt lat="40.67280209158738" lon="14.858038229863727"><ele>216.0</ele><time>2026-05-02T09:53:37.961Z</time></trkpt><trkpt lat="40.674874482161044" lon="14.857929389923266"><ele>203.0</ele><time>2026-05-02T09:53:41.05Z</time></trkpt><trkpt lat="40.675596160804346" lon="14.857861414825805"><ele>153.0</ele><time>2026-05-02T09:53:42.054Z</time></trkpt><trkpt lat="40.67631304303746" lon="14.857791723683611"><ele>127.0</ele><time>2026-05-02T09:53:43.052Z</time></trkpt><trkpt lat="40.67703146160451" lon="14.857725638031141"><ele>107.0</ele><time>2026-05-02T09:53:44.052Z</time></trkpt><trkpt lat="40.67784577597089" lon="14.85551415744124"><ele>117.0</ele><time>2026-05-02T09:53:55.169Z</time></trkpt><trkpt lat="40.67824583173728" lon="14.857510363753885"><ele>117.0</ele><time>2026-05-02T09:53:57.816Z</time></trkpt><trkpt lat="40.67854814313543" lon="14.857477663549915"><ele>117.0</ele><time>2026-05-02T09:53:58.816Z</time></trkpt><trkpt lat="40.679049393707324" lon="14.857175977349218"><ele>115.5</ele><time>2026-05-02T09:53:59.816Z</time></trkpt><trkpt lat="40.679397850165394" lon="14.85731149801723"><ele>114.0</ele><time>2026-05-02T09:54:00.816Z</time></trkpt><trkpt lat="40.67965973573165" lon="14.857314219375283"><ele>114.0</ele><time>2026-05-02T09:54:01.816Z</time></trkpt><trkpt lat="40.679944906287965" lon="14.857291150164539"><ele>114.0</ele><time>2026-05-02T09:54:02.816Z</time></trkpt><trkpt lat="40.68022222856815" lon="14.857214519158957"><ele>114.0</ele><time>2026-05-02T09:54:03.816Z</time></trkpt><trkpt lat="40.680507410889284" lon="14.857129691934611"><ele>114.0</ele><time>2026-05-02T09:54:04.816Z</time></trkpt><trkpt lat="40.680790415917016" lon="14.857030329909737"><ele>114.0</ele><time>2026-05-02T09:54:05.816Z</time></trkpt><trkpt lat="40.681073530532984" lon="14.856917988186307"><ele>114.0</ele><time>2026-05-02T09:54:06.816Z</time></trkpt><trkpt lat="40.681355874347865" lon="14.856795789826803"><ele>114.5</ele><time>2026-05-02T09:54:07.816Z</time></trkpt><trkpt lat="40.68162759522144" lon="14.85665782554779"><ele>115.0</ele><time>2026-05-02T09:54:08.816Z</time></trkpt><trkpt lat="40.68189338827313" lon="14.856506825757252"><ele>115.5</ele><time>2026-05-02T09:54:09.816Z</time></trkpt><trkpt lat="40.68215003941026" lon="14.856338395751521"><ele>116.0</ele><time>2026-05-02T09:54:10.816Z</time></trkpt><trkpt lat="40.68240546426001" lon="14.85614985494563"><ele>114.5</ele><time>2026-05-02T09:54:11.816Z</time></trkpt><trkpt lat="40.68265402814404" lon="14.855947547552962"><ele>113.0</ele><time>2026-05-02T09:54:12.816Z</time></trkpt><trkpt lat="40.68289843001852" lon="14.85573877805392"><ele>113.0</ele><time>2026-05-02T09:54:13.816Z</time></trkpt><trkpt lat="40.683146063477075" lon="14.855508120223115"><ele>113.0</ele><time>2026-05-02T09:54:14.815Z</time></trkpt><trkpt lat="40.68338655318039" lon="14.85526549532737"><ele>113.0</ele><time>2026-05-02T09:54:15.815Z</time></trkpt><trkpt lat="40.683618632171274" lon="14.855009556375437"><ele>113.0</ele><time>2026-05-02T09:54:16.815Z</time></trkpt><trkpt lat="40.68384532919506" lon="14.854750929187478"><ele>113.0</ele><time>2026-05-02T09:54:17.815Z</time></trkpt><trkpt lat="40.684060669081674" lon="14.854468104171465"><ele>113.0</ele><time>2026-05-02T09:54:18.815Z</time></trkpt><trkpt lat="40.684268637859184" lon="14.854175531098203"><ele>114.5</ele><time>2026-05-02T09:54:19.815Z</time></trkpt><trkpt lat="40.684470479225396" lon="14.853868493503423"><ele>116.0</ele><time>2026-05-02T09:54:20.815Z</time></trkpt><trkpt lat="40.684663764668905" lon="14.85355008014757"><ele>115.5</ele><time>2026-05-02T09:54:21.815Z</time></trkpt><trkpt lat="40.684848820918376" lon="14.853219397225923"><ele>115.0</ele><time>2026-05-02T09:54:22.815Z</time></trkpt><trkpt lat="40.68502635574092" lon="14.852876692897015"><ele>115.5</ele><time>2026-05-02T09:54:23.815Z</time></trkpt><trkpt lat="40.68519165599457" lon="14.852523755283897"><ele>116.0</ele><time>2026-05-02T09:54:24.815Z</time></trkpt><trkpt lat="40.68534673855108" lon="14.852162021201922"><ele>116.0</ele><time>2026-05-02T09:54:25.815Z</time></trkpt><trkpt lat="40.685495371756204" lon="14.851797311584956"><ele>116.0</ele><time>2026-05-02T09:54:26.815Z</time></trkpt><trkpt lat="40.68562974414756" lon="14.851417800306802"><ele>114.0</ele><time>2026-05-02T09:54:27.815Z</time></trkpt><trkpt lat="40.68575655026016" lon="14.851031320343118"><ele>112.0</ele><time>2026-05-02T09:54:28.815Z</time></trkpt><trkpt lat="40.685891159515336" lon="14.850642217858853"><ele>112.0</ele><time>2026-05-02T09:54:29.815Z</time></trkpt><trkpt lat="40.68601173378736" lon="14.85024119164597"><ele>112.0</ele><time>2026-05-02T09:54:30.815Z</time></trkpt><trkpt lat="40.68612468086802" lon="14.849833349011165"><ele>112.0</ele><time>2026-05-02T09:54:31.815Z</time></trkpt><trkpt lat="40.68622856783435" lon="14.84943709778097"><ele>112.0</ele><time>2026-05-02T09:54:32.815Z</time></trkpt><trkpt lat="40.68633151132188" lon="14.849037301197379"><ele>112.0</ele><time>2026-05-02T09:54:33.815Z</time></trkpt><trkpt lat="40.68643830582413" lon="14.848638262832797"><ele>112.0</ele><time>2026-05-02T09:54:34.815Z</time></trkpt><trkpt lat="40.68654327806933" lon="14.848238081084425"><ele>112.0</ele><time>2026-05-02T09:54:35.815Z</time></trkpt><trkpt lat="40.68664468761767" lon="14.847838473244074"><ele>112.0</ele><time>2026-05-02T09:54:36.814Z</time></trkpt><trkpt lat="40.68674814462685" lon="14.847443864777404"><ele>115.5</ele><time>2026-05-02T09:54:37.814Z</time></trkpt><trkpt lat="40.68686798391278" lon="14.847064748492329"><ele>119.0</ele><time>2026-05-02T09:54:38.814Z</time></trkpt><trkpt lat="40.68701897796638" lon="14.846691427325917"><ele>120.5</ele><time>2026-05-02T09:54:39.814Z</time></trkpt><trkpt lat="40.68712902668536" lon="14.84632996043045"><ele>122.0</ele><time>2026-05-02T09:54:40.814Z</time></trkpt><trkpt lat="40.68722558406624" lon="14.845947048323612"><ele>123.0</ele><time>2026-05-02T09:54:41.814Z</time></trkpt><trkpt lat="40.68731702855878" lon="14.845582548144263"><ele>124.0</ele><time>2026-05-02T09:54:42.814Z</time></trkpt><trkpt lat="40.68741877557098" lon="14.8452035153178"><ele>125.0</ele><time>2026-05-02T09:54:43.814Z</time></trkpt><trkpt lat="40.68751484598554" lon="14.844852375619821"><ele>126.0</ele><time>2026-05-02T09:54:44.814Z</time></trkpt><trkpt lat="40.6876130353618" lon="14.844490279524436"><ele>126.5</ele><time>2026-05-02T09:54:45.814Z</time></trkpt><trkpt lat="40.68770540517848" lon="14.844151840651039"><ele>127.0</ele><time>2026-05-02T09:54:46.814Z</time></trkpt><trkpt lat="40.68781237972591" lon="14.84377164065259"><ele>129.0</ele><time>2026-05-02T09:54:47.814Z</time></trkpt><trkpt lat="40.68793039484251" lon="14.843038023368237"><ele>129.0</ele><time>2026-05-02T09:54:48.814Z</time></trkpt><trkpt lat="40.688065301092" lon="14.842657193811691"><ele>129.0</ele><time>2026-05-02T09:54:49.814Z</time></trkpt><trkpt lat="40.68819431500751" lon="14.84227493760731"><ele>129.5</ele><time>2026-05-02T09:54:50.814Z</time></trkpt><trkpt lat="40.68832435742578" lon="14.8418905587516"><ele>130.0</ele><time>2026-05-02T09:54:51.814Z</time></trkpt><trkpt lat="40.68845415555508" lon="14.841511282867936"><ele>133.0</ele><time>2026-05-02T09:54:52.818Z</time></trkpt><trkpt lat="40.688595922519795" lon="14.841133099465532"><ele>136.0</ele><time>2026-05-02T09:54:53.817Z</time></trkpt><trkpt lat="40.68875931032384" lon="14.840755097533908"><ele>136.5</ele><time>2026-05-02T09:54:54.817Z</time></trkpt><trkpt lat="40.68893179193612" lon="14.840374921721635"><ele>137.0</ele><time>2026-05-02T09:54:55.817Z</time></trkpt><trkpt lat="40.6891080125291" lon="14.840006945654588"><ele>137.5</ele><time>2026-05-02T09:54:56.817Z</time></trkpt><trkpt lat="40.689285250392395" lon="14.839640785236675"><ele>138.0</ele><time>2026-05-02T09:54:57.817Z</time></trkpt><trkpt lat="40.68946842376133" lon="14.83928094427054"><ele>140.0</ele><time>2026-05-02T09:54:58.817Z</time></trkpt><trkpt lat="40.68965406402077" lon="14.838933993408633"><ele>142.0</ele><time>2026-05-02T09:54:59.817Z</time></trkpt><trkpt lat="40.689845002987965" lon="14.838599728410392"><ele>142.5</ele><time>2026-05-02T09:55:00.817Z</time></trkpt><trkpt lat="40.69003897892066" lon="14.838275939418924"><ele>143.0</ele><time>2026-05-02T09:55:01.817Z</time></trkpt><trkpt lat="40.690232993329715" lon="14.83795897076882"><ele>145.0</ele><time>2026-05-02T09:55:02.817Z</time></trkpt><trkpt lat="40.69043601005319" lon="14.837650232281876"><ele>147.0</ele><time>2026-05-02T09:55:03.817Z</time></trkpt><trkpt lat="40.69064566648378" lon="14.837339003487804"><ele>147.5</ele><time>2026-05-02T09:55:04.817Z</time></trkpt><trkpt lat="40.690859657385545" lon="14.83702550924807"><ele>148.0</ele><time>2026-05-02T09:55:05.817Z</time></trkpt><trkpt lat="40.69108947339621" lon="14.836704654435264"><ele>149.5</ele><time>2026-05-02T09:55:06.817Z</time></trkpt><trkpt lat="40.69131709567158" lon="14.836385487586083"><ele>151.0</ele><time>2026-05-02T09:55:07.817Z</time></trkpt><trkpt lat="40.69155836361407" lon="14.83605883309169"><ele>151.5</ele><time>2026-05-02T09:55:08.817Z</time></trkpt><trkpt lat="40.69180718309026" lon="14.835728682280696"><ele>152.0</ele><time>2026-05-02T09:55:09.817Z</time></trkpt><trkpt lat="40.69205344643016" lon="14.835402847923898"><ele>154.0</ele><time>2026-05-02T09:55:10.817Z</time></trkpt><trkpt lat="40.69232753998006" lon="14.83507695880513"><ele>156.0</ele><time>2026-05-02T09:55:11.817Z</time></trkpt><trkpt lat="40.69257240971176" lon="14.834756195115407"><ele>157.0</ele><time>2026-05-02T09:55:12.817Z</time></trkpt><trkpt lat="40.69281849736233" lon="14.834445297561711"><ele>158.0</ele><time>2026-05-02T09:55:13.817Z</time></trkpt><trkpt lat="40.693064542560485" lon="14.834130175395273"><ele>158.0</ele><time>2026-05-02T09:55:14.817Z</time></trkpt><trkpt lat="40.69331084551399" lon="14.833807049831854"><ele>158.0</ele><time>2026-05-02T09:55:15.817Z</time></trkpt><trkpt lat="40.69355178658211" lon="14.833480359211144"><ele>161.0</ele><time>2026-05-02T09:55:16.817Z</time></trkpt><trkpt lat="40.69380079569227" lon="14.833141631829342"><ele>164.0</ele><time>2026-05-02T09:55:17.817Z</time></trkpt><trkpt lat="40.69404151639793" lon="14.83280856807113"><ele>165.0</ele><time>2026-05-02T09:55:18.817Z</time></trkpt><trkpt lat="40.694292306581076" lon="14.832483435824926"><ele>166.0</ele><time>2026-05-02T09:55:19.817Z</time></trkpt><trkpt lat="40.69453772209887" lon="14.832155015885755"><ele>166.0</ele><time>2026-05-02T09:55:20.817Z</time></trkpt><trkpt lat="40.69477071508351" lon="14.831820400444107"><ele>166.0</ele><time>2026-05-02T09:55:21.817Z</time></trkpt><trkpt lat="40.695002708810726" lon="14.831481161490387"><ele>166.0</ele><time>2026-05-02T09:55:22.817Z</time></trkpt><trkpt lat="40.69522740618126" lon="14.831136730506776"><ele>166.0</ele><time>2026-05-02T09:55:23.817Z</time></trkpt><trkpt lat="40.695440404156805" lon="14.830795165173381"><ele>170.0</ele><time>2026-05-02T09:55:24.817Z</time></trkpt><trkpt lat="40.69565308517466" lon="14.830451112527193"><ele>174.0</ele><time>2026-05-02T09:55:25.817Z</time></trkpt><trkpt lat="40.69585614480912" lon="14.830101399158313"><ele>174.5</ele><time>2026-05-02T09:55:26.817Z</time></trkpt><trkpt lat="40.69605466119155" lon="14.8297508773277"><ele>175.0</ele><time>2026-05-02T09:55:27.816Z</time></trkpt><trkpt lat="40.696249081637625" lon="14.829388309655036"><ele>177.0</ele><time>2026-05-02T09:55:28.816Z</time></trkpt><trkpt lat="40.696439063656406" lon="14.829024332303815"><ele>179.0</ele><time>2026-05-02T09:55:29.816Z</time></trkpt><trkpt lat="40.696621183785204" lon="14.828651459871576"><ele>178.0</ele><time>2026-05-02T09:55:30.816Z</time></trkpt><trkpt lat="40.69679721199596" lon="14.828282028573316"><ele>177.0</ele><time>2026-05-02T09:55:31.816Z</time></trkpt><trkpt lat="40.696961571101625" lon="14.827908863369839"><ele>178.0</ele><time>2026-05-02T09:55:32.816Z</time></trkpt><trkpt lat="40.697114284069286" lon="14.827528780584624"><ele>179.0</ele><time>2026-05-02T09:55:33.816Z</time></trkpt><trkpt lat="40.69725869326484" lon="14.827146136587759"><ele>177.5</ele><time>2026-05-02T09:55:34.816Z</time></trkpt><trkpt lat="40.69740486872957" lon="14.826764004012874"><ele>176.0</ele><time>2026-05-02T09:55:35.816Z</time></trkpt><trkpt lat="40.69753649369931" lon="14.826374201230868"><ele>175.0</ele><time>2026-05-02T09:55:36.816Z</time></trkpt><trkpt lat="40.69765920996066" lon="14.825978198651246"><ele>174.0</ele><time>2026-05-02T09:55:37.816Z</time></trkpt><trkpt lat="40.69777513566305" lon="14.825580226580357"><ele>174.5</ele><time>2026-05-02T09:55:38.816Z</time></trkpt><trkpt lat="40.69788301957397" lon="14.825179785591951"><ele>175.0</ele><time>2026-05-02T09:55:39.816Z</time></trkpt><trkpt lat="40.69798851300065" lon="14.824779443281598"><ele>175.0</ele><time>2026-05-02T09:55:40.816Z</time></trkpt><trkpt lat="40.698085606673835" lon="14.824374634004974"><ele>175.0</ele><time>2026-05-02T09:55:41.816Z</time></trkpt><trkpt lat="40.69817817209184" lon="14.823966912561978"><ele>175.0</ele><time>2026-05-02T09:55:42.816Z</time></trkpt><trkpt lat="40.69826070674506" lon="14.823554757833682"><ele>175.0</ele><time>2026-05-02T09:55:43.816Z</time></trkpt><trkpt lat="40.69833624563413" lon="14.823144050209317"><ele>175.5</ele><time>2026-05-02T09:55:44.816Z</time></trkpt><trkpt lat="40.6984009107072" lon="14.822724949242586"><ele>176.0</ele><time>2026-05-02T09:55:45.816Z</time></trkpt><trkpt lat="40.698465505260366" lon="14.822310756401846"><ele>176.0</ele><time>2026-05-02T09:55:46.816Z</time></trkpt><trkpt lat="40.69852484522045" lon="14.821897934498432"><ele>176.0</ele><time>2026-05-02T09:55:47.816Z</time></trkpt><trkpt lat="40.698577473589495" lon="14.821480165690215"><ele>177.0</ele><time>2026-05-02T09:55:48.816Z</time></trkpt><trkpt lat="40.6986228339756" lon="14.821058296018329"><ele>178.0</ele><time>2026-05-02T09:55:49.815Z</time></trkpt><trkpt lat="40.69866671511957" lon="14.82063708095824"><ele>179.0</ele><time>2026-05-02T09:55:50.815Z</time></trkpt><trkpt lat="40.698710051513224" lon="14.820212016028751"><ele>180.0</ele><time>2026-05-02T09:55:51.815Z</time></trkpt><trkpt lat="40.69875512026654" lon="14.819783806655556"><ele>180.5</ele><time>2026-05-02T09:55:52.815Z</time></trkpt><trkpt lat="40.698797890721906" lon="14.81934831016348"><ele>181.0</ele><time>2026-05-02T09:55:53.815Z</time></trkpt><trkpt lat="40.69883815548147" lon="14.818907513093265"><ele>183.5</ele><time>2026-05-02T09:55:54.815Z</time></trkpt><trkpt lat="40.69887886438091" lon="14.818473621434208"><ele>186.0</ele><time>2026-05-02T09:55:55.815Z</time></trkpt><trkpt lat="40.698919209391484" lon="14.818038050388315"><ele>187.0</ele><time>2026-05-02T09:55:56.815Z</time></trkpt><trkpt lat="40.69895936012877" lon="14.817607917133753"><ele>188.0</ele><time>2026-05-02T09:55:57.815Z</time></trkpt><trkpt lat="40.69900054915566" lon="14.817170142888356"><ele>189.5</ele><time>2026-05-02T09:55:58.815Z</time></trkpt><trkpt lat="40.69904305704778" lon="14.816732802497263"><ele>191.0</ele><time>2026-05-02T09:55:59.815Z</time></trkpt><trkpt lat="40.699085683379614" lon="14.81629338779026"><ele>192.5</ele><time>2026-05-02T09:56:00.815Z</time></trkpt><trkpt lat="40.6991235949918" lon="14.815854084141074"><ele>194.0</ele><time>2026-05-02T09:56:01.815Z</time></trkpt><trkpt lat="40.69924633738628" lon="14.81553757813665"><ele>178.0</ele><time>2026-05-02T09:56:02.815Z</time></trkpt><trkpt lat="40.69944714531539" lon="14.812404957457133"><ele>173.0</ele><time>2026-05-02T09:56:07.047Z</time></trkpt><trkpt lat="40.699497377455074" lon="14.810992885754127"><ele>171.5</ele><time>2026-05-02T09:56:13.814Z</time></trkpt><trkpt lat="40.69939954310557" lon="14.810502743040665"><ele>170.0</ele><time>2026-05-02T09:56:14.814Z</time></trkpt><trkpt lat="40.69941608966646" lon="14.810116616918682"><ele>170.0</ele><time>2026-05-02T09:56:15.814Z</time></trkpt><trkpt lat="40.699411739601885" lon="14.809740567680313"><ele>170.0</ele><time>2026-05-02T09:56:16.814Z</time></trkpt><trkpt lat="40.69939189933117" lon="14.809361785313211"><ele>169.0</ele><time>2026-05-02T09:56:17.814Z</time></trkpt><trkpt lat="40.69936222579464" lon="14.808985926823883"><ele>168.0</ele><time>2026-05-02T09:56:18.814Z</time></trkpt><trkpt lat="40.69931970580049" lon="14.808596085037259"><ele>164.0</ele><time>2026-05-02T09:56:19.814Z</time></trkpt><trkpt lat="40.69927496591348" lon="14.80822030047804"><ele>160.0</ele><time>2026-05-02T09:56:20.814Z</time></trkpt><trkpt lat="40.69922198192092" lon="14.807843300959833"><ele>156.5</ele><time>2026-05-02T09:56:21.814Z</time></trkpt><trkpt lat="40.69916330912369" lon="14.807469517315655"><ele>153.0</ele><time>2026-05-02T09:56:22.814Z</time></trkpt><trkpt lat="40.69909385886532" lon="14.807102886442108"><ele>154.0</ele><time>2026-05-02T09:56:23.814Z</time></trkpt><trkpt lat="40.69902324448027" lon="14.806741648964785"><ele>155.0</ele><time>2026-05-02T09:56:24.814Z</time></trkpt><trkpt lat="40.698938019872486" lon="14.8063918504627"><ele>155.0</ele><time>2026-05-02T09:56:25.814Z</time></trkpt><trkpt lat="40.69886107149516" lon="14.806028258240273"><ele>155.0</ele><time>2026-05-02T09:56:26.814Z</time></trkpt><trkpt lat="40.69878364100944" lon="14.8056714423186"><ele>156.0</ele><time>2026-05-02T09:56:27.814Z</time></trkpt><trkpt lat="40.69870085124648" lon="14.805317467123055"><ele>157.0</ele><time>2026-05-02T09:56:28.814Z</time></trkpt><trkpt lat="40.698621648101025" lon="14.804969942571233"><ele>149.5</ele><time>2026-05-02T09:56:29.814Z</time></trkpt><trkpt lat="40.69853542222896" lon="14.80460373246042"><ele>142.0</ele><time>2026-05-02T09:56:30.814Z</time></trkpt><trkpt lat="40.69844861855222" lon="14.804237568543732"><ele>141.5</ele><time>2026-05-02T09:56:31.814Z</time></trkpt><trkpt lat="40.698365468896455" lon="14.803862826967807"><ele>141.0</ele><time>2026-05-02T09:56:32.814Z</time></trkpt><trkpt lat="40.698284136765714" lon="14.803492110321992"><ele>141.0</ele><time>2026-05-02T09:56:33.813Z</time></trkpt><trkpt lat="40.698206608745345" lon="14.803128809522029"><ele>141.0</ele><time>2026-05-02T09:56:34.813Z</time></trkpt><trkpt lat="40.69811935805727" lon="14.802754116558612"><ele>142.5</ele><time>2026-05-02T09:56:35.813Z</time></trkpt><trkpt lat="40.69802756537673" lon="14.802371628110388"><ele>144.0</ele><time>2026-05-02T09:56:36.813Z</time></trkpt><trkpt lat="40.69793580122213" lon="14.80198847108633"><ele>143.5</ele><time>2026-05-02T09:56:37.813Z</time></trkpt><trkpt lat="40.697845239623874" lon="14.801591190942341"><ele>143.0</ele><time>2026-05-02T09:56:38.813Z</time></trkpt><trkpt lat="40.69775855932592" lon="14.801188307725225"><ele>134.0</ele><time>2026-05-02T09:56:39.813Z</time></trkpt><trkpt lat="40.697668619714605" lon="14.800786369011949"><ele>125.0</ele><time>2026-05-02T09:56:40.813Z</time></trkpt><trkpt lat="40.69757843095379" lon="14.800380550194975"><ele>125.0</ele><time>2026-05-02T09:56:41.813Z</time></trkpt><trkpt lat="40.697499285692416" lon="14.79998198375241"><ele>125.0</ele><time>2026-05-02T09:56:42.812Z</time></trkpt><trkpt lat="40.69742916025429" lon="14.799580063740226"><ele>125.0</ele><time>2026-05-02T09:56:43.811Z</time></trkpt><trkpt lat="40.697360477936876" lon="14.799176011424159"><ele>125.0</ele><time>2026-05-02T09:56:44.81Z</time></trkpt><trkpt lat="40.697299671818485" lon="14.798766738234855"><ele>122.5</ele><time>2026-05-02T09:56:45.808Z</time></trkpt><trkpt lat="40.69724609964185" lon="14.798353027939163"><ele>120.0</ele><time>2026-05-02T09:56:46.807Z</time></trkpt><trkpt lat="40.69719522776052" lon="14.797931658373901"><ele>118.0</ele><time>2026-05-02T09:56:47.806Z</time></trkpt><trkpt lat="40.69715811791553" lon="14.797499693639278"><ele>116.0</ele><time>2026-05-02T09:56:48.805Z</time></trkpt><trkpt lat="40.697126223152104" lon="14.797062952060983"><ele>114.0</ele><time>2026-05-02T09:56:49.804Z</time></trkpt><trkpt lat="40.69710126637068" lon="14.79663349899914"><ele>112.0</ele><time>2026-05-02T09:56:50.803Z</time></trkpt><trkpt lat="40.6970846060995" lon="14.79619732103976"><ele>111.0</ele><time>2026-05-02T09:56:51.802Z</time></trkpt><trkpt lat="40.69707753410029" lon="14.79575893084811"><ele>110.0</ele><time>2026-05-02T09:56:52.802Z</time></trkpt><trkpt lat="40.69707679375258" lon="14.79532647513134"><ele>111.5</ele><time>2026-05-02T09:56:53.801Z</time></trkpt><trkpt lat="40.69708480728939" lon="14.79489866298743"><ele>113.0</ele><time>2026-05-02T09:56:54.8Z</time></trkpt><trkpt lat="40.697100282508764" lon="14.794478239379762"><ele>114.0</ele><time>2026-05-02T09:56:55.8Z</time></trkpt><trkpt lat="40.69712125915036" lon="14.794061940730703"><ele>115.0</ele><time>2026-05-02T09:56:56.799Z</time></trkpt><trkpt lat="40.6971435017178" lon="14.793644202917388"><ele>115.0</ele><time>2026-05-02T09:56:57.798Z</time></trkpt><trkpt lat="40.697170561140254" lon="14.793220952723555"><ele>115.0</ele><time>2026-05-02T09:56:58.801Z</time></trkpt><trkpt lat="40.69720566721042" lon="14.792810392726047"><ele>112.5</ele><time>2026-05-02T09:56:59.8Z</time></trkpt><trkpt lat="40.69723941417213" lon="14.792401898366778"><ele>110.0</ele><time>2026-05-02T09:57:00.799Z</time></trkpt><trkpt lat="40.697277220515296" lon="14.792000089660146"><ele>107.5</ele><time>2026-05-02T09:57:01.799Z</time></trkpt><trkpt lat="40.697320738977226" lon="14.791599175729058"><ele>105.0</ele><time>2026-05-02T09:57:02.799Z</time></trkpt><trkpt lat="40.69736177995144" lon="14.791200737223596"><ele>103.0</ele><time>2026-05-02T09:57:03.799Z</time></trkpt><trkpt lat="40.69739485602435" lon="14.790796665989404"><ele>101.0</ele><time>2026-05-02T09:57:04.798Z</time></trkpt><trkpt lat="40.69741284130094" lon="14.790380210644619"><ele>99.0</ele><time>2026-05-02T09:57:05.798Z</time></trkpt><trkpt lat="40.69742427852301" lon="14.78996633543253"><ele>97.0</ele><time>2026-05-02T09:57:06.798Z</time></trkpt><trkpt lat="40.69741581777457" lon="14.789554704347374"><ele>96.5</ele><time>2026-05-02T09:57:07.798Z</time></trkpt><trkpt lat="40.697392801926746" lon="14.789138306267427"><ele>96.0</ele><time>2026-05-02T09:57:08.797Z</time></trkpt><trkpt lat="40.69736336771419" lon="14.788729168146043"><ele>93.0</ele><time>2026-05-02T09:57:09.797Z</time></trkpt><trkpt lat="40.69732467284891" lon="14.788323663941048"><ele>90.0</ele><time>2026-05-02T09:57:10.797Z</time></trkpt><trkpt lat="40.69726713424118" lon="14.787908989442858"><ele>87.5</ele><time>2026-05-02T09:57:11.797Z</time></trkpt><trkpt lat="40.6972040744901" lon="14.787508640190671"><ele>85.0</ele><time>2026-05-02T09:57:12.796Z</time></trkpt><trkpt lat="40.69713133586363" lon="14.787104187361281"><ele>85.0</ele><time>2026-05-02T09:57:13.796Z</time></trkpt><trkpt lat="40.697058122911145" lon="14.786701519900092"><ele>85.0</ele><time>2026-05-02T09:57:14.796Z</time></trkpt><trkpt lat="40.69697973766053" lon="14.786308942484442"><ele>79.0</ele><time>2026-05-02T09:57:15.796Z</time></trkpt><trkpt lat="40.69690666299713" lon="14.78592139597186"><ele>73.0</ele><time>2026-05-02T09:57:16.796Z</time></trkpt><trkpt lat="40.696833528442205" lon="14.78552496765496"><ele>72.0</ele><time>2026-05-02T09:57:17.795Z</time></trkpt><trkpt lat="40.69675305425924" lon="14.785142216978796"><ele>71.0</ele><time>2026-05-02T09:57:18.795Z</time></trkpt><trkpt lat="40.696678686705326" lon="14.784754421489962"><ele>71.0</ele><time>2026-05-02T09:57:19.795Z</time></trkpt><trkpt lat="40.69660729596756" lon="14.78438275795933"><ele>71.0</ele><time>2026-05-02T09:57:20.795Z</time></trkpt><trkpt lat="40.696537450111165" lon="14.784015319383268"><ele>71.0</ele><time>2026-05-02T09:57:21.795Z</time></trkpt><trkpt lat="40.69647889968422" lon="14.783657438366028"><ele>71.0</ele><time>2026-05-02T09:57:22.795Z</time></trkpt><trkpt lat="40.69641102417994" lon="14.783318079332737"><ele>72.0</ele><time>2026-05-02T09:57:23.794Z</time></trkpt><trkpt lat="40.69633898447746" lon="14.78300166268385"><ele>73.0</ele><time>2026-05-02T09:57:24.794Z</time></trkpt><trkpt lat="40.69625592276938" lon="14.7827073856267"><ele>72.0</ele><time>2026-05-02T09:57:25.794Z</time></trkpt><trkpt lat="40.696154911617676" lon="14.782421455362574"><ele>71.0</ele><time>2026-05-02T09:57:26.794Z</time></trkpt><trkpt lat="40.69602712103287" lon="14.782158004904593"><ele>64.5</ele><time>2026-05-02T09:57:27.794Z</time></trkpt><trkpt lat="40.69589542017262" lon="14.781909797286811"><ele>58.0</ele><time>2026-05-02T09:57:28.794Z</time></trkpt><trkpt lat="40.695756384127094" lon="14.781664766433556"><ele>57.5</ele><time>2026-05-02T09:57:29.794Z</time></trkpt><trkpt lat="40.69560358202341" lon="14.781429452758152"><ele>57.0</ele><time>2026-05-02T09:57:30.793Z</time></trkpt><trkpt lat="40.69541039168091" lon="14.78119599331766"><ele>54.5</ele><time>2026-05-02T09:57:31.793Z</time></trkpt><trkpt lat="40.69522080389914" lon="14.780972396510014"><ele>52.0</ele><time>2026-05-02T09:57:32.793Z</time></trkpt><trkpt lat="40.695052736826995" lon="14.780759042198682"><ele>52.0</ele><time>2026-05-02T09:57:33.793Z</time></trkpt><trkpt lat="40.69489388458533" lon="14.780555995882057"><ele>52.0</ele><time>2026-05-02T09:57:34.793Z</time></trkpt><trkpt lat="40.694742318934544" lon="14.780356569448427"><ele>52.0</ele><time>2026-05-02T09:57:35.793Z</time></trkpt><trkpt lat="40.69459195503002" lon="14.78015261993838"><ele>51.0</ele><time>2026-05-02T09:57:36.793Z</time></trkpt><trkpt lat="40.694442216472076" lon="14.779921780225765"><ele>50.0</ele><time>2026-05-02T09:57:37.793Z</time></trkpt><trkpt lat="40.694301241531164" lon="14.779676890209833"><ele>50.0</ele><time>2026-05-02T09:57:38.793Z</time></trkpt><trkpt lat="40.69418205024039" lon="14.779429551980034"><ele>50.0</ele><time>2026-05-02T09:57:39.793Z</time></trkpt><trkpt lat="40.69408604724801" lon="14.779182955236944"><ele>50.0</ele><time>2026-05-02T09:57:40.793Z</time></trkpt><trkpt lat="40.69400061191748" lon="14.778951693820904"><ele>49.0</ele><time>2026-05-02T09:57:41.792Z</time></trkpt><trkpt lat="40.6939300490473" lon="14.778732802291705"><ele>48.0</ele><time>2026-05-02T09:57:42.792Z</time></trkpt><trkpt lat="40.69386883407719" lon="14.778526162188218"><ele>47.0</ele><time>2026-05-02T09:57:43.792Z</time></trkpt><trkpt lat="40.69381347950668" lon="14.778320352152724"><ele>46.666666666666664</ele><time>2026-05-02T09:57:44.792Z</time></trkpt><trkpt lat="40.69375538418518" lon="14.778124419564158"><ele>46.333333333333336</ele><time>2026-05-02T09:57:45.792Z</time></trkpt><trkpt lat="40.6936991356109" lon="14.77793049597491"><ele>46.0</ele><time>2026-05-02T09:57:46.792Z</time></trkpt><trkpt lat="40.69364427645084" lon="14.777743749540075"><ele>45.5</ele><time>2026-05-02T09:57:47.792Z</time></trkpt><trkpt lat="40.693596877423715" lon="14.77757398128445"><ele>45.0</ele><time>2026-05-02T09:57:48.792Z</time></trkpt><trkpt lat="40.693552893536754" lon="14.777421101494848"><ele>44.5</ele><time>2026-05-02T09:57:49.792Z</time></trkpt><trkpt lat="40.6935141449439" lon="14.777283147090893"><ele>44.0</ele><time>2026-05-02T09:57:50.792Z</time></trkpt><trkpt lat="40.69348356124941" lon="14.777161336178885"><ele>43.400000000000006</ele><time>2026-05-02T09:57:51.792Z</time></trkpt><trkpt lat="40.69345961406916" lon="14.777059420526825"><ele>42.8</ele><time>2026-05-02T09:57:52.792Z</time></trkpt><trkpt lat="40.693418638297196" lon="14.776910971585197"><ele>42.2</ele><time>2026-05-02T09:57:54.792Z</time></trkpt><trkpt lat="40.693398868865906" lon="14.776771791809436"><ele>41.599999999999994</ele><time>2026-05-02T09:57:56.791Z</time></trkpt><trkpt lat="40.693376060112115" lon="14.776658553057514"><ele>41.0</ele><time>2026-05-02T09:57:57.791Z</time></trkpt><trkpt lat="40.693338026314265" lon="14.776531181909323"><ele>40.8</ele><time>2026-05-02T09:57:58.791Z</time></trkpt><trkpt lat="40.693295269235065" lon="14.77639091720742"><ele>40.599999999999994</ele><time>2026-05-02T09:57:59.791Z</time></trkpt><trkpt lat="40.69325286886919" lon="14.776254323771669"><ele>40.4</ele><time>2026-05-02T09:58:00.791Z</time></trkpt><trkpt lat="40.693211755727575" lon="14.776121854800799"><ele>40.2</ele><time>2026-05-02T09:58:01.791Z</time></trkpt><trkpt lat="40.69317249663525" lon="14.775998130149363"><ele>40.0</ele><time>2026-05-02T09:58:02.791Z</time></trkpt><trkpt lat="40.693134127382784" lon="14.775881799486088"><ele>39.66666666666667</ele><time>2026-05-02T09:58:03.791Z</time></trkpt><trkpt lat="40.69309378934663" lon="14.775772276535784"><ele>39.333333333333336</ele><time>2026-05-02T09:58:04.791Z</time></trkpt><trkpt lat="40.69305958763265" lon="14.775676305730508"><ele>39.0</ele><time>2026-05-02T09:58:05.791Z</time></trkpt><trkpt lat="40.69302547633044" lon="14.775585438193502"><ele>38.666666666666664</ele><time>2026-05-02T09:58:06.791Z</time></trkpt><trkpt lat="40.69298527654143" lon="14.775483138117348"><ele>38.33333333333333</ele><time>2026-05-02T09:58:07.791Z</time></trkpt><trkpt lat="40.69294732934675" lon="14.775384751891849"><ele>38.0</ele><time>2026-05-02T09:58:08.791Z</time></trkpt><trkpt lat="40.69290053111659" lon="14.775277696540426"><ele>39.0</ele><time>2026-05-02T09:58:09.791Z</time></trkpt><trkpt lat="40.692854248180204" lon="14.775184390511255"><ele>40.0</ele><time>2026-05-02T09:58:10.791Z</time></trkpt><trkpt lat="40.6928108612882" lon="14.77510822090531"><ele>41.0</ele><time>2026-05-02T09:58:11.791Z</time></trkpt><trkpt lat="40.692732954587235" lon="14.7749981477245"><ele>42.0</ele><time>2026-05-02T09:58:13.79Z</time></trkpt><trkpt lat="40.69268467056331" lon="14.774928020460644"><ele>43.0</ele><time>2026-05-02T09:58:14.79Z</time></trkpt><trkpt lat="40.69263388749257" lon="14.774849756553957"><ele>44.0</ele><time>2026-05-02T09:58:15.79Z</time></trkpt><trkpt lat="40.69257883570197" lon="14.774770239110754"><ele>44.0</ele><time>2026-05-02T09:58:16.79Z</time></trkpt><trkpt lat="40.692521279180546" lon="14.774687538265786"><ele>44.0</ele><time>2026-05-02T09:58:17.79Z</time></trkpt><trkpt lat="40.69247505827284" lon="14.77459934469362"><ele>44.0</ele><time>2026-05-02T09:58:18.79Z</time></trkpt><trkpt lat="40.69242866524379" lon="14.77450989347261"><ele>44.0</ele><time>2026-05-02T09:58:19.79Z</time></trkpt><trkpt lat="40.69235959227029" lon="14.774416455176528"><ele>44.0</ele><time>2026-05-02T09:58:20.79Z</time></trkpt><trkpt lat="40.692273681960785" lon="14.774323314549932"><ele>46.0</ele><time>2026-05-02T09:58:21.79Z</time></trkpt><trkpt lat="40.692181293428405" lon="14.774236621501453"><ele>48.0</ele><time>2026-05-02T09:58:22.79Z</time></trkpt><trkpt lat="40.692090469603315" lon="14.77416274734111"><ele>50.00000000000001</ele><time>2026-05-02T09:58:23.79Z</time></trkpt><trkpt lat="40.69199490560857" lon="14.774090100158201"><ele>52.0</ele><time>2026-05-02T09:58:24.79Z</time></trkpt><trkpt lat="40.691902515412536" lon="14.774016220975597"><ele>54.0</ele><time>2026-05-02T09:58:25.79Z</time></trkpt><trkpt lat="40.69181790903716" lon="14.773953536000136"><ele>54.0</ele><time>2026-05-02T09:58:26.79Z</time></trkpt><trkpt lat="40.69173652898835" lon="14.7738959139676"><ele>54.0</ele><time>2026-05-02T09:58:27.79Z</time></trkpt><trkpt lat="40.69167746305915" lon="14.77386581629588"><ele>54.0</ele><time>2026-05-02T09:58:28.79Z</time></trkpt><trkpt lat="40.69161354652628" lon="14.773833594305477"><ele>54.0</ele><time>2026-05-02T09:58:30.79Z</time></trkpt><trkpt lat="40.691520183075454" lon="14.773803941252996"><ele>54.0</ele><time>2026-05-02T09:58:32.789Z</time></trkpt><trkpt lat="40.69145345521618" lon="14.773802519052923"><ele>54.0</ele><time>2026-05-02T09:58:33.789Z</time></trkpt><trkpt lat="40.69138434148611" lon="14.77380144831632"><ele>54.0</ele><time>2026-05-02T09:58:34.789Z</time></trkpt><trkpt lat="40.691310612892224" lon="14.773790303731664"><ele>54.0</ele><time>2026-05-02T09:58:35.789Z</time></trkpt><trkpt lat="40.6912434469578" lon="14.773772489704532"><ele>54.0</ele><time>2026-05-02T09:58:36.789Z</time></trkpt><trkpt lat="40.69113773556292" lon="14.773753752750167"><ele>54.0</ele><time>2026-05-02T09:58:38.789Z</time></trkpt><trkpt lat="40.6910522473049" lon="14.773739316849158"><ele>54.0</ele><time>2026-05-02T09:58:41.789Z</time></trkpt><trkpt lat="40.690961064743725" lon="14.773703343172674"><ele>54.0</ele><time>2026-05-02T09:58:45.789Z</time></trkpt><trkpt lat="40.69084533076318" lon="14.77366925001825"><ele>52.333333333333336</ele><time>2026-05-02T09:58:47.789Z</time></trkpt><trkpt lat="40.69076178855909" lon="14.773661110138583"><ele>50.666666666666664</ele><time>2026-05-02T09:58:48.789Z</time></trkpt><trkpt lat="40.69068166378233" lon="14.77364381904357"><ele>49.0</ele><time>2026-05-02T09:58:49.789Z</time></trkpt><trkpt lat="40.69060187976417" lon="14.77363114478474"><ele>47.33333333333333</ele><time>2026-05-02T09:58:50.789Z</time></trkpt><trkpt lat="40.690511721765496" lon="14.773629829849108"><ele>45.666666666666664</ele><time>2026-05-02T09:58:51.788Z</time></trkpt><trkpt lat="40.69041338111595" lon="14.773609434626005"><ele>44.0</ele><time>2026-05-02T09:58:52.788Z</time></trkpt><trkpt lat="40.69032181780061" lon="14.77360553398919"><ele>44.0</ele><time>2026-05-02T09:58:53.788Z</time></trkpt><trkpt lat="40.690217163049944" lon="14.773587383215427"><ele>44.0</ele><time>2026-05-02T09:58:54.788Z</time></trkpt><trkpt lat="40.69010660652452" lon="14.773565389090752"><ele>44.0</ele><time>2026-05-02T09:58:55.788Z</time></trkpt><trkpt lat="40.689995001002316" lon="14.773546152087123"><ele>44.0</ele><time>2026-05-02T09:58:56.788Z</time></trkpt><trkpt lat="40.68989271692227" lon="14.773527839929232"><ele>44.0</ele><time>2026-05-02T09:58:57.788Z</time></trkpt><trkpt lat="40.689796803328356" lon="14.773505020978693"><ele>48.800000000000004</ele><time>2026-05-02T09:58:58.788Z</time></trkpt><trkpt lat="40.689703028228045" lon="14.773477540207368"><ele>53.6</ele><time>2026-05-02T09:58:59.788Z</time></trkpt><trkpt lat="40.68960868812248" lon="14.773443802815375"><ele>58.4</ele><time>2026-05-02T09:59:00.788Z</time></trkpt><trkpt lat="40.689517383222004" lon="14.77341178538368"><ele>63.2</ele><time>2026-05-02T09:59:01.788Z</time></trkpt><trkpt lat="40.68943157386352" lon="14.773377973391272"><ele>68.0</ele><time>2026-05-02T09:59:02.788Z</time></trkpt><trkpt lat="40.689359768381095" lon="14.773343059941901"><ele>69.2</ele><time>2026-05-02T09:59:03.788Z</time></trkpt><trkpt lat="40.689252550227586" lon="14.77330045531265"><ele>70.4</ele><time>2026-05-02T09:59:05.79Z</time></trkpt><trkpt lat="40.68917436608338" lon="14.773263622623759"><ele>71.60000000000001</ele><time>2026-05-02T09:59:07.791Z</time></trkpt><trkpt lat="40.68910373990698" lon="14.773226069204346"><ele>72.8</ele><time>2026-05-02T09:59:09.791Z</time></trkpt><trkpt lat="40.68902120544288" lon="14.773199588048014"><ele>74.0</ele><time>2026-05-02T09:59:11.791Z</time></trkpt><trkpt lat="40.688931435921" lon="14.773147037699056"><ele>74.0</ele><time>2026-05-02T09:59:13.791Z</time></trkpt><trkpt lat="40.68883216110029" lon="14.773112566451683"><ele>74.0</ele><time>2026-05-02T09:59:15.79Z</time></trkpt><trkpt lat="40.6887275054907" lon="14.773061031779521"><ele>74.0</ele><time>2026-05-02T09:59:17.79Z</time></trkpt><trkpt lat="40.68861560003468" lon="14.77300231294655"><ele>74.0</ele><time>2026-05-02T09:59:19.79Z</time></trkpt><trkpt lat="40.688558984801645" lon="14.772965945210414"><ele>74.0</ele><time>2026-05-02T09:59:20.79Z</time></trkpt><trkpt lat="40.68843972581179" lon="14.772892585255343"><ele>73.60000000000001</ele><time>2026-05-02T09:59:22.79Z</time></trkpt><trkpt lat="40.6883641690078" lon="14.772844357107237"><ele>73.2</ele><time>2026-05-02T09:59:23.79Z</time></trkpt><trkpt lat="40.68829362412653" lon="14.7728072867268"><ele>72.80000000000001</ele><time>2026-05-02T09:59:24.79Z</time></trkpt><trkpt lat="40.68817998385613" lon="14.77275760354532"><ele>72.4</ele><time>2026-05-02T09:59:26.79Z</time></trkpt><trkpt lat="40.68805956739192" lon="14.772704202614412"><ele>72.0</ele><time>2026-05-02T09:59:28.79Z</time></trkpt><trkpt lat="40.68798263054626" lon="14.772653979825805"><ele>72.0</ele><time>2026-05-02T09:59:29.79Z</time></trkpt><trkpt lat="40.68790080691222" lon="14.772601909067847"><ele>72.0</ele><time>2026-05-02T09:59:30.79Z</time></trkpt><trkpt lat="40.68782150046506" lon="14.772527636526373"><ele>72.0</ele><time>2026-05-02T09:59:31.79Z</time></trkpt><trkpt lat="40.68773711883592" lon="14.772449454855899"><ele>72.0</ele><time>2026-05-02T09:59:32.79Z</time></trkpt><trkpt lat="40.68764343291778" lon="14.77236865214222"><ele>72.0</ele><time>2026-05-02T09:59:33.79Z</time></trkpt><trkpt lat="40.68755361469729" lon="14.772284665677104"><ele>72.0</ele><time>2026-05-02T09:59:34.789Z</time></trkpt><trkpt lat="40.68746057971" lon="14.772195120272354"><ele>72.0</ele><time>2026-05-02T09:59:35.789Z</time></trkpt><trkpt lat="40.687369102169875" lon="14.772101011371033"><ele>72.0</ele><time>2026-05-02T09:59:36.789Z</time></trkpt><trkpt lat="40.687280951963615" lon="14.771998416331774"><ele>72.0</ele><time>2026-05-02T09:59:37.789Z</time></trkpt><trkpt lat="40.68719471879653" lon="14.77188380743901"><ele>71.75</ele><time>2026-05-02T09:59:38.789Z</time></trkpt><trkpt lat="40.68710788870257" lon="14.77176028479484"><ele>71.5</ele><time>2026-05-02T09:59:39.789Z</time></trkpt><trkpt lat="40.6870235694528" lon="14.771629741155078"><ele>71.25</ele><time>2026-05-02T09:59:40.789Z</time></trkpt><trkpt lat="40.68694569555137" lon="14.771496440403471"><ele>71.0</ele><time>2026-05-02T09:59:41.789Z</time></trkpt><trkpt lat="40.68687608446331" lon="14.771368242570597"><ele>71.0</ele><time>2026-05-02T09:59:42.789Z</time></trkpt><trkpt lat="40.686807301647356" lon="14.77123221033426"><ele>71.0</ele><time>2026-05-02T09:59:43.789Z</time></trkpt><trkpt lat="40.6867483654602" lon="14.771089068990019"><ele>71.0</ele><time>2026-05-02T09:59:44.789Z</time></trkpt><trkpt lat="40.686695742320936" lon="14.770947684833963"><ele>71.0</ele><time>2026-05-02T09:59:45.789Z</time></trkpt><trkpt lat="40.68665103017421" lon="14.770803424230307"><ele>71.75</ele><time>2026-05-02T09:59:46.789Z</time></trkpt><trkpt lat="40.68660920003729" lon="14.770656091804023"><ele>72.5</ele><time>2026-05-02T09:59:47.789Z</time></trkpt><trkpt lat="40.686570997488865" lon="14.770496178551731"><ele>73.25</ele><time>2026-05-02T09:59:48.789Z</time></trkpt><trkpt lat="40.686529830370134" lon="14.770317961909818"><ele>74.0</ele><time>2026-05-02T09:59:49.789Z</time></trkpt><trkpt lat="40.6864964575177" lon="14.770130888910089"><ele>76.0</ele><time>2026-05-02T09:59:50.789Z</time></trkpt><trkpt lat="40.68646629433698" lon="14.769930495659926"><ele>78.0</ele><time>2026-05-02T09:59:51.789Z</time></trkpt><trkpt lat="40.68644458601174" lon="14.769723417756722"><ele>80.0</ele><time>2026-05-02T09:59:52.789Z</time></trkpt><trkpt lat="40.68642745368817" lon="14.769510805175823"><ele>83.66666666666667</ele><time>2026-05-02T09:59:53.789Z</time></trkpt><trkpt lat="40.68641278922679" lon="14.769294885309055"><ele>87.33333333333333</ele><time>2026-05-02T09:59:54.788Z</time></trkpt><trkpt lat="40.686399908250294" lon="14.769081266212572"><ele>91.0</ele><time>2026-05-02T09:59:55.788Z</time></trkpt><trkpt lat="40.686391387860866" lon="14.768870809907996"><ele>91.0</ele><time>2026-05-02T09:59:56.788Z</time></trkpt><trkpt lat="40.68638827550615" lon="14.768662472464719"><ele>91.0</ele><time>2026-05-02T09:59:57.788Z</time></trkpt><trkpt lat="40.68640198993355" lon="14.768462675771344"><ele>91.0</ele><time>2026-05-02T09:59:58.788Z</time></trkpt><trkpt lat="40.686420830292796" lon="14.768253877951546"><ele>95.66666666666666</ele><time>2026-05-02T09:59:59.788Z</time></trkpt><trkpt lat="40.68645117347353" lon="14.7680164226048"><ele>100.33333333333333</ele><time>2026-05-02T10:00:00.788Z</time></trkpt><trkpt lat="40.686491382710756" lon="14.767760993977745"><ele>105.0</ele><time>2026-05-02T10:00:01.788Z</time></trkpt><trkpt lat="40.68653801135342" lon="14.76747339152968"><ele>107.0</ele><time>2026-05-02T10:00:02.788Z</time></trkpt><trkpt lat="40.68658421229774" lon="14.767167459053011"><ele>109.0</ele><time>2026-05-02T10:00:03.788Z</time></trkpt><trkpt lat="40.68665571591206" lon="14.76683789933737"><ele>116.0</ele><time>2026-05-02T10:00:04.788Z</time></trkpt><trkpt lat="40.68675526200597" lon="14.766477690594733"><ele>123.0</ele><time>2026-05-02T10:00:05.934Z</time></trkpt><trkpt lat="40.686848453956415" lon="14.76617679138686"><ele>111.0</ele><time>2026-05-02T10:00:06.933Z</time></trkpt><trkpt lat="40.68652867376302" lon="14.763582140520683"><ele>109.0</ele><time>2026-05-02T10:00:10.013Z</time></trkpt><trkpt lat="40.68642075821221" lon="14.763044479149618"><ele>107.0</ele><time>2026-05-02T10:00:18.787Z</time></trkpt><trkpt lat="40.68614448025306" lon="14.762681485971251"><ele>99.66666666666666</ele><time>2026-05-02T10:00:19.787Z</time></trkpt><trkpt lat="40.6860177627672" lon="14.76248184387324"><ele>92.33333333333333</ele><time>2026-05-02T10:00:20.787Z</time></trkpt><trkpt lat="40.68590391664057" lon="14.762313682857329"><ele>85.0</ele><time>2026-05-02T10:00:21.787Z</time></trkpt><trkpt lat="40.685786196374046" lon="14.76215450920996"><ele>85.0</ele><time>2026-05-02T10:00:22.787Z</time></trkpt><trkpt lat="40.685686846244266" lon="14.762002445185777"><ele>85.0</ele><time>2026-05-02T10:00:23.787Z</time></trkpt><trkpt lat="40.685595056930936" lon="14.761867200972254"><ele>85.0</ele><time>2026-05-02T10:00:24.787Z</time></trkpt><trkpt lat="40.685512270061224" lon="14.761742643794701"><ele>85.0</ele><time>2026-05-02T10:00:25.787Z</time></trkpt><trkpt lat="40.685446680547905" lon="14.761625424773298"><ele>86.66666666666666</ele><time>2026-05-02T10:00:26.787Z</time></trkpt><trkpt lat="40.68539185549474" lon="14.761524499412026"><ele>88.33333333333333</ele><time>2026-05-02T10:00:27.787Z</time></trkpt><trkpt lat="40.68534836133363" lon="14.761431448833488"><ele>90.0</ele><time>2026-05-02T10:00:28.787Z</time></trkpt><trkpt lat="40.68531260265078" lon="14.761338076349402"><ele>91.66666666666667</ele><time>2026-05-02T10:00:29.787Z</time></trkpt><trkpt lat="40.68528976780155" lon="14.761252599543797"><ele>93.33333333333334</ele><time>2026-05-02T10:00:30.787Z</time></trkpt><trkpt lat="40.68526501328035" lon="14.761175197874314"><ele>95.0</ele><time>2026-05-02T10:00:32.787Z</time></trkpt><trkpt lat="40.68530733167964" lon="14.76107296562778"><ele>97.0</ele><time>2026-05-02T10:00:33.787Z</time></trkpt><trkpt lat="40.68528644285686" lon="14.760993686045841"><ele>99.0</ele><time>2026-05-02T10:00:34.786Z</time></trkpt><trkpt lat="40.685235051711324" lon="14.760899109386445"><ele>101.0</ele><time>2026-05-02T10:00:35.786Z</time></trkpt><trkpt lat="40.68517279049231" lon="14.760777429802936"><ele>103.0</ele><time>2026-05-02T10:00:36.786Z</time></trkpt><trkpt lat="40.68512116004982" lon="14.760636373314867"><ele>105.0</ele><time>2026-05-02T10:00:37.786Z</time></trkpt><trkpt lat="40.68508979245857" lon="14.760459468900008"><ele>105.0</ele><time>2026-05-02T10:00:38.786Z</time></trkpt><trkpt lat="40.6850747300032" lon="14.76027523334911"><ele>105.0</ele><time>2026-05-02T10:00:39.786Z</time></trkpt><trkpt lat="40.685070328029425" lon="14.760075138136125"><ele>105.0</ele><time>2026-05-02T10:00:40.786Z</time></trkpt><trkpt lat="40.68508706664654" lon="14.759880952003398"><ele>105.0</ele><time>2026-05-02T10:00:41.786Z</time></trkpt><trkpt lat="40.685074206269796" lon="14.759673970073134"><ele>105.5</ele><time>2026-05-02T10:00:42.786Z</time></trkpt><trkpt lat="40.685061486432154" lon="14.759452693327377"><ele>106.0</ele><time>2026-05-02T10:00:43.786Z</time></trkpt><trkpt lat="40.685050919658885" lon="14.759267442001542"><ele>106.5</ele><time>2026-05-02T10:00:44.786Z</time></trkpt><trkpt lat="40.68502568242614" lon="14.759094745911543"><ele>107.0</ele><time>2026-05-02T10:00:45.786Z</time></trkpt><trkpt lat="40.68501295822252" lon="14.758937250948458"><ele>107.0</ele><time>2026-05-02T10:00:46.786Z</time></trkpt><trkpt lat="40.68498954722968" lon="14.758792793834736"><ele>106.99999999999999</ele><time>2026-05-02T10:00:47.786Z</time></trkpt><trkpt lat="40.68493907367791" lon="14.758667730993718"><ele>106.99999999999999</ele><time>2026-05-02T10:00:48.786Z</time></trkpt><trkpt lat="40.6848643777251" lon="14.758565740304592"><ele>107.0</ele><time>2026-05-02T10:00:49.786Z</time></trkpt><trkpt lat="40.68476231239857" lon="14.758490280542436"><ele>107.0</ele><time>2026-05-02T10:00:50.786Z</time></trkpt><trkpt lat="40.68465648810827" lon="14.75843893718469"><ele>108.0</ele><time>2026-05-02T10:00:51.786Z</time></trkpt><trkpt lat="40.684529291725966" lon="14.758414518133348"><ele>109.0</ele><time>2026-05-02T10:00:52.786Z</time></trkpt><trkpt lat="40.684407726815266" lon="14.758389621023525"><ele>110.0</ele><time>2026-05-02T10:00:53.786Z</time></trkpt><trkpt lat="40.68429194032601" lon="14.758365378863255"><ele>111.0</ele><time>2026-05-02T10:00:54.786Z</time></trkpt><trkpt lat="40.68416863398681" lon="14.758349041850286"><ele>111.0</ele><time>2026-05-02T10:00:55.785Z</time></trkpt><trkpt lat="40.68402908504736" lon="14.758325675080956"><ele>111.0</ele><time>2026-05-02T10:00:56.785Z</time></trkpt><trkpt lat="40.68388288712284" lon="14.758295570660286"><ele>111.0</ele><time>2026-05-02T10:00:57.785Z</time></trkpt><trkpt lat="40.683715756596285" lon="14.758250071962516"><ele>109.0</ele><time>2026-05-02T10:00:58.785Z</time></trkpt><trkpt lat="40.683552510973676" lon="14.758183935827777"><ele>107.0</ele><time>2026-05-02T10:00:59.785Z</time></trkpt><trkpt lat="40.6833962057725" lon="14.758118042353598"><ele>105.0</ele><time>2026-05-02T10:01:00.785Z</time></trkpt><trkpt lat="40.68325683549232" lon="14.758040065450649"><ele>105.0</ele><time>2026-05-02T10:01:01.785Z</time></trkpt><trkpt lat="40.68313723916517" lon="14.75793609638925"><ele>105.0</ele><time>2026-05-02T10:01:02.785Z</time></trkpt><trkpt lat="40.68301081279342" lon="14.757822449515444"><ele>105.0</ele><time>2026-05-02T10:01:03.785Z</time></trkpt><trkpt lat="40.68289857062889" lon="14.757671289453013"><ele>106.66666666666666</ele><time>2026-05-02T10:01:04.785Z</time></trkpt><trkpt lat="40.682781333390615" lon="14.757498953436436"><ele>108.33333333333333</ele><time>2026-05-02T10:01:05.785Z</time></trkpt><trkpt lat="40.68266643117904" lon="14.757350084321276"><ele>110.0</ele><time>2026-05-02T10:01:06.785Z</time></trkpt><trkpt lat="40.682553164009306" lon="14.757202875302337"><ele>110.0</ele><time>2026-05-02T10:01:07.785Z</time></trkpt><trkpt lat="40.68244077097197" lon="14.75708539109513"><ele>110.0</ele><time>2026-05-02T10:01:08.785Z</time></trkpt><trkpt lat="40.68234364156134" lon="14.756950329681231"><ele>110.0</ele><time>2026-05-02T10:01:09.785Z</time></trkpt><trkpt lat="40.68225874054066" lon="14.756805743325977"><ele>110.0</ele><time>2026-05-02T10:01:10.788Z</time></trkpt><trkpt lat="40.682189773252794" lon="14.756644469652464"><ele>115.0</ele><time>2026-05-02T10:01:11.789Z</time></trkpt><trkpt lat="40.68213760900702" lon="14.756480663929786"><ele>120.0</ele><time>2026-05-02T10:01:12.789Z</time></trkpt><trkpt lat="40.68210204855388" lon="14.75631526471571"><ele>125.0</ele><time>2026-05-02T10:01:13.788Z</time></trkpt><trkpt lat="40.682084293243186" lon="14.756135862783484"><ele>130.0</ele><time>2026-05-02T10:01:14.788Z</time></trkpt><trkpt lat="40.68207207594551" lon="14.755958066100735"><ele>131.25</ele><time>2026-05-02T10:01:15.788Z</time></trkpt><trkpt lat="40.682075665270844" lon="14.755776210881535"><ele>132.5</ele><time>2026-05-02T10:01:16.788Z</time></trkpt><trkpt lat="40.6820964423375" lon="14.755606863241063"><ele>133.75</ele><time>2026-05-02T10:01:17.788Z</time></trkpt><trkpt lat="40.6821366354963" lon="14.75544353719654"><ele>135.0</ele><time>2026-05-02T10:01:18.788Z</time></trkpt><trkpt lat="40.6821851087742" lon="14.75529135025147"><ele>131.25</ele><time>2026-05-02T10:01:19.788Z</time></trkpt><trkpt lat="40.68223235854306" lon="14.755132731063519"><ele>127.5</ele><time>2026-05-02T10:01:20.788Z</time></trkpt><trkpt lat="40.68225692751459" lon="14.754951294165293"><ele>123.75</ele><time>2026-05-02T10:01:21.788Z</time></trkpt><trkpt lat="40.68226921315805" lon="14.75476861883049"><ele>120.0</ele><time>2026-05-02T10:01:22.788Z</time></trkpt><trkpt lat="40.68226839007259" lon="14.754597994860248"><ele>120.0</ele><time>2026-05-02T10:01:23.788Z</time></trkpt><trkpt lat="40.6822604632764" lon="14.754424687290944"><ele>120.0</ele><time>2026-05-02T10:01:24.788Z</time></trkpt><trkpt lat="40.682250742011256" lon="14.754239142541556"><ele>120.0</ele><time>2026-05-02T10:01:25.788Z</time></trkpt><trkpt lat="40.68224495913098" lon="14.754053359570193"><ele>120.0</ele><time>2026-05-02T10:01:26.788Z</time></trkpt><trkpt lat="40.68225765922627" lon="14.753874905014557"><ele>120.75</ele><time>2026-05-02T10:01:27.788Z</time></trkpt><trkpt lat="40.68225765922881" lon="14.75369784802325"><ele>121.5</ele><time>2026-05-02T10:01:28.788Z</time></trkpt><trkpt lat="40.68225765923126" lon="14.753526650714262"><ele>122.25</ele><time>2026-05-02T10:01:29.788Z</time></trkpt><trkpt lat="40.6822584710392" lon="14.753377630885687"><ele>123.0</ele><time>2026-05-02T10:01:30.788Z</time></trkpt><trkpt lat="40.68225875923716" lon="14.753241907093663"><ele>123.75</ele><time>2026-05-02T10:01:31.788Z</time></trkpt><trkpt lat="40.68225875923971" lon="14.753123032792523"><ele>124.5</ele><time>2026-05-02T10:01:32.788Z</time></trkpt><trkpt lat="40.68225875923419" lon="14.753006920171455"><ele>125.25</ele><time>2026-05-02T10:01:33.932Z</time></trkpt><trkpt lat="40.682258759245016" lon="14.752859700079043"><ele>126.0</ele><time>2026-05-02T10:01:35.93Z</time></trkpt><trkpt lat="40.68223501964121" lon="14.752064395603616"><ele>123.33333333333333</ele><time>2026-05-02T10:01:50.787Z</time></trkpt><trkpt lat="40.68220686330355" lon="14.751989961606549"><ele>120.66666666666666</ele><time>2026-05-02T10:01:51.787Z</time></trkpt><trkpt lat="40.68219971967066" lon="14.751900186639888"><ele>118.0</ele><time>2026-05-02T10:01:52.787Z</time></trkpt><trkpt lat="40.682164699888396" lon="14.751810028782185"><ele>115.33333333333333</ele><time>2026-05-02T10:01:53.787Z</time></trkpt><trkpt lat="40.682122484965504" lon="14.751734227545056"><ele>112.66666666666666</ele><time>2026-05-02T10:01:54.787Z</time></trkpt><trkpt lat="40.6820801277069" lon="14.751658693476772"><ele>110.0</ele><time>2026-05-02T10:01:55.787Z</time></trkpt><trkpt lat="40.68198491191407" lon="14.751622125024072"><ele>104.4</ele><time>2026-05-02T10:01:56.787Z</time></trkpt><trkpt lat="40.68190248622208" lon="14.751589640685292"><ele>98.8</ele><time>2026-05-02T10:01:57.787Z</time></trkpt><trkpt lat="40.68182714636648" lon="14.751516908014075"><ele>93.19999999999999</ele><time>2026-05-02T10:01:58.787Z</time></trkpt><trkpt lat="40.681738239829734" lon="14.751460501195831"><ele>87.6</ele><time>2026-05-02T10:01:59.786Z</time></trkpt><trkpt lat="40.68163902954568" lon="14.751398641600842"><ele>82.0</ele><time>2026-05-02T10:02:00.786Z</time></trkpt><trkpt lat="40.68153509478743" lon="14.751334664851473"><ele>82.0</ele><time>2026-05-02T10:02:01.786Z</time></trkpt><trkpt lat="40.68142256358695" lon="14.751263455704208"><ele>82.0</ele><time>2026-05-02T10:02:02.786Z</time></trkpt><trkpt lat="40.681302740971056" lon="14.751187299748718"><ele>82.0</ele><time>2026-05-02T10:02:03.786Z</time></trkpt><trkpt lat="40.681191763141065" lon="14.75111575306707"><ele>82.0</ele><time>2026-05-02T10:02:04.786Z</time></trkpt><trkpt lat="40.68108818902417" lon="14.751044346202224"><ele>82.5</ele><time>2026-05-02T10:02:05.786Z</time></trkpt><trkpt lat="40.680989248708975" lon="14.750964629097416"><ele>83.0</ele><time>2026-05-02T10:02:06.786Z</time></trkpt><trkpt lat="40.68090002968117" lon="14.75087584265988"><ele>83.5</ele><time>2026-05-02T10:02:07.786Z</time></trkpt><trkpt lat="40.680822662584795" lon="14.750755443355208"><ele>84.0</ele><time>2026-05-02T10:02:08.786Z</time></trkpt><trkpt lat="40.68075162290924" lon="14.750618652770743"><ele>84.0</ele><time>2026-05-02T10:02:09.786Z</time></trkpt><trkpt lat="40.68069271891635" lon="14.750468139240137"><ele>84.0</ele><time>2026-05-02T10:02:10.786Z</time></trkpt><trkpt lat="40.68064489703388" lon="14.75029887015817"><ele>84.0</ele><time>2026-05-02T10:02:11.786Z</time></trkpt><trkpt lat="40.68058447179196" lon="14.75008403285287"><ele>84.0</ele><time>2026-05-02T10:02:12.786Z</time></trkpt><trkpt lat="40.68051762048591" lon="14.749841831973997"><ele>91.33333333333334</ele><time>2026-05-02T10:02:13.786Z</time></trkpt><trkpt lat="40.680456166196585" lon="14.749622975672535"><ele>98.66666666666667</ele><time>2026-05-02T10:02:14.786Z</time></trkpt><trkpt lat="40.68039070105021" lon="14.749439498772515"><ele>106.0</ele><time>2026-05-02T10:02:15.786Z</time></trkpt><trkpt lat="40.68033290890555" lon="14.7492681201277"><ele>98.75</ele><time>2026-05-02T10:02:16.786Z</time></trkpt><trkpt lat="40.68024507118607" lon="14.749120358394597"><ele>91.5</ele><time>2026-05-02T10:02:17.786Z</time></trkpt><trkpt lat="40.680137183740136" lon="14.748994059844176"><ele>84.25</ele><time>2026-05-02T10:02:18.786Z</time></trkpt><trkpt lat="40.679999814116016" lon="14.748896856274673"><ele>77.0</ele><time>2026-05-02T10:02:19.785Z</time></trkpt><trkpt lat="40.679833471680425" lon="14.74882739460985"><ele>77.0</ele><time>2026-05-02T10:02:20.785Z</time></trkpt><trkpt lat="40.67966080745199" lon="14.748763615998453"><ele>77.0</ele><time>2026-05-02T10:02:21.785Z</time></trkpt><trkpt lat="40.67949869890677" lon="14.748705995665432"><ele>77.0</ele><time>2026-05-02T10:02:22.785Z</time></trkpt><trkpt lat="40.679358788362904" lon="14.748627421915971"><ele>73.0</ele><time>2026-05-02T10:02:23.785Z</time></trkpt><trkpt lat="40.67922173139392" lon="14.748561773833728"><ele>69.0</ele><time>2026-05-02T10:02:24.785Z</time></trkpt><trkpt lat="40.679105119609794" lon="14.748476102389876"><ele>65.0</ele><time>2026-05-02T10:02:25.785Z</time></trkpt><trkpt lat="40.67900188294099" lon="14.748358108353312"><ele>61.0</ele><time>2026-05-02T10:02:26.785Z</time></trkpt><trkpt lat="40.678921173792126" lon="14.748202990288878"><ele>61.0</ele><time>2026-05-02T10:02:27.785Z</time></trkpt><trkpt lat="40.678832352558466" lon="14.748038309815959"><ele>61.0</ele><time>2026-05-02T10:02:28.785Z</time></trkpt><trkpt lat="40.67876765939863" lon="14.747857310414053"><ele>61.0</ele><time>2026-05-02T10:02:29.785Z</time></trkpt><trkpt lat="40.67871809555535" lon="14.747677903263298"><ele>62.5</ele><time>2026-05-02T10:02:30.785Z</time></trkpt><trkpt lat="40.67869717860653" lon="14.747494896942161"><ele>64.0</ele><time>2026-05-02T10:02:31.785Z</time></trkpt><trkpt lat="40.67871088899889" lon="14.747301077525918"><ele>65.5</ele><time>2026-05-02T10:02:32.785Z</time></trkpt><trkpt lat="40.67873222157188" lon="14.747093577302628"><ele>67.0</ele><time>2026-05-02T10:02:33.785Z</time></trkpt><trkpt lat="40.678748051904684" lon="14.746859777263516"><ele>67.0</ele><time>2026-05-02T10:02:34.785Z</time></trkpt><trkpt lat="40.67873897623058" lon="14.746628929238959"><ele>67.0</ele><time>2026-05-02T10:02:35.785Z</time></trkpt><trkpt lat="40.67871930189089" lon="14.746396902834046"><ele>67.0</ele><time>2026-05-02T10:02:36.785Z</time></trkpt><trkpt lat="40.67869953645895" lon="14.746168302245957"><ele>69.33333333333333</ele><time>2026-05-02T10:02:37.785Z</time></trkpt><trkpt lat="40.6786850685215" lon="14.745929938095376"><ele>71.66666666666667</ele><time>2026-05-02T10:02:38.785Z</time></trkpt><trkpt lat="40.67866689381836" lon="14.745691565121033"><ele>74.0</ele><time>2026-05-02T10:02:39.784Z</time></trkpt><trkpt lat="40.678647200758974" lon="14.74547061184554"><ele>74.0</ele><time>2026-05-02T10:02:40.784Z</time></trkpt><trkpt lat="40.67863199788645" lon="14.745258907952573"><ele>74.0</ele><time>2026-05-02T10:02:41.784Z</time></trkpt><trkpt lat="40.678618878590754" lon="14.745054117100482"><ele>74.0</ele><time>2026-05-02T10:02:42.784Z</time></trkpt><trkpt lat="40.678580531024515" lon="14.744860710374622"><ele>63.66666666666667</ele><time>2026-05-02T10:02:43.784Z</time></trkpt><trkpt lat="40.67853761313534" lon="14.744663211136205"><ele>53.333333333333336</ele><time>2026-05-02T10:02:44.784Z</time></trkpt><trkpt lat="40.67847659512762" lon="14.74446353499941"><ele>43.0</ele><time>2026-05-02T10:02:45.784Z</time></trkpt><trkpt lat="40.67841701923028" lon="14.744258293881206"><ele>43.0</ele><time>2026-05-02T10:02:46.784Z</time></trkpt><trkpt lat="40.678351792220724" lon="14.744041980309015"><ele>43.0</ele><time>2026-05-02T10:02:47.784Z</time></trkpt><trkpt lat="40.678294132984995" lon="14.74385029646253"><ele>43.0</ele><time>2026-05-02T10:02:48.784Z</time></trkpt><trkpt lat="40.67824288376112" lon="14.743680287710601"><ele>45.0</ele><time>2026-05-02T10:02:49.784Z</time></trkpt><trkpt lat="40.67818605126855" lon="14.743534176740724"><ele>47.0</ele><time>2026-05-02T10:02:50.784Z</time></trkpt><trkpt lat="40.67811943948046" lon="14.743416376009701"><ele>49.0</ele><time>2026-05-02T10:02:51.784Z</time></trkpt><trkpt lat="40.678048078085176" lon="14.743295339560603"><ele>51.0</ele><time>2026-05-02T10:02:52.784Z</time></trkpt><trkpt lat="40.67798832305582" lon="14.743199973779593"><ele>53.0</ele><time>2026-05-02T10:02:53.784Z</time></trkpt><trkpt lat="40.67793247270342" lon="14.743119601626146"><ele>53.00000000000001</ele><time>2026-05-02T10:02:54.784Z</time></trkpt><trkpt lat="40.6778780201386" lon="14.743049920098048"><ele>53.0</ele><time>2026-05-02T10:02:55.784Z</time></trkpt><trkpt lat="40.677826478801414" lon="14.742986075361916"><ele>53.0</ele><time>2026-05-02T10:02:56.784Z</time></trkpt><trkpt lat="40.67774570722735" lon="14.742888856871321"><ele>53.0</ele><time>2026-05-02T10:02:58.784Z</time></trkpt><trkpt lat="40.67768047965028" lon="14.74281788530402"><ele>53.00000000000001</ele><time>2026-05-02T10:03:00.783Z</time></trkpt><trkpt lat="40.6776782173914" lon="14.742718120248146"><ele>53.0</ele><time>2026-05-02T10:03:02.783Z</time></trkpt><trkpt lat="40.677723267192825" lon="14.742651405439581"><ele>53.66666666666667</ele><time>2026-05-02T10:03:03.783Z</time></trkpt><trkpt lat="40.67781236390634" lon="14.7425847239058"><ele>54.333333333333336</ele><time>2026-05-02T10:03:05.783Z</time></trkpt><trkpt lat="40.67787636925204" lon="14.742555671221579"><ele>55.0</ele><time>2026-05-02T10:03:08.783Z</time></trkpt><trkpt lat="40.677933786556274" lon="14.742521303860451"><ele>55.66666666666667</ele><time>2026-05-02T10:03:10.783Z</time></trkpt><trkpt lat="40.67800799500056" lon="14.742439188106419"><ele>56.333333333333336</ele><time>2026-05-02T10:03:12.783Z</time></trkpt><trkpt lat="40.67800318183954" lon="14.742314724146546"><ele>57.0</ele><time>2026-05-02T10:03:14.783Z</time></trkpt><trkpt lat="40.677999878387695" lon="14.742229524233363"><ele>57.0</ele><time>2026-05-02T10:03:15.783Z</time></trkpt><trkpt lat="40.67799405956712" lon="14.742137664200898"><ele>57.0</ele><time>2026-05-02T10:03:16.785Z</time></trkpt><trkpt lat="40.67798375193924" lon="14.742052241324874"><ele>57.0</ele><time>2026-05-02T10:03:17.785Z</time></trkpt><trkpt lat="40.677968948055394" lon="14.741967088610773"><ele>57.0</ele><time>2026-05-02T10:03:18.785Z</time></trkpt><trkpt lat="40.677948035956184" lon="14.741870903009765"><ele>57.0</ele><time>2026-05-02T10:03:19.785Z</time></trkpt><trkpt lat="40.67792321204139" lon="14.741759386149418"><ele>57.0</ele><time>2026-05-02T10:03:20.785Z</time></trkpt><trkpt lat="40.67789662436582" lon="14.741644004543984"><ele>59.166666666666664</ele><time>2026-05-02T10:03:21.785Z</time></trkpt><trkpt lat="40.67787159269384" lon="14.74153563271865"><ele>61.33333333333333</ele><time>2026-05-02T10:03:22.786Z</time></trkpt><trkpt lat="40.677850568732296" lon="14.741440231738617"><ele>63.5</ele><time>2026-05-02T10:03:23.785Z</time></trkpt><trkpt lat="40.677828644335385" lon="14.74134303093301"><ele>65.66666666666666</ele><time>2026-05-02T10:03:24.785Z</time></trkpt><trkpt lat="40.677803585103284" lon="14.741239259865038"><ele>67.83333333333333</ele><time>2026-05-02T10:03:25.785Z</time></trkpt><trkpt lat="40.677773752810204" lon="14.741142692917412"><ele>70.0</ele><time>2026-05-02T10:03:26.785Z</time></trkpt><trkpt lat="40.677723877360734" lon="14.741043427105584"><ele>62.99999999999999</ele><time>2026-05-02T10:03:27.785Z</time></trkpt><trkpt lat="40.67766368290821" lon="14.740967549826857"><ele>56.0</ele><time>2026-05-02T10:03:28.785Z</time></trkpt><trkpt lat="40.677591578565654" lon="14.740886101439933"><ele>49.0</ele><time>2026-05-02T10:03:29.786Z</time></trkpt><trkpt lat="40.67752597325287" lon="14.740813498202327"><ele>42.0</ele><time>2026-05-02T10:03:30.786Z</time></trkpt><trkpt lat="40.67745790391478" lon="14.740735116524698"><ele>35.0</ele><time>2026-05-02T10:03:31.786Z</time></trkpt><trkpt lat="40.6773933524869" lon="14.740660793580009"><ele>28.0</ele><time>2026-05-02T10:03:32.786Z</time></trkpt><trkpt lat="40.67732759770608" lon="14.740586889255807"><ele>28.000000000000004</ele><time>2026-05-02T10:03:33.786Z</time></trkpt><trkpt lat="40.67726148518112" lon="14.740513363159518"><ele>28.0</ele><time>2026-05-02T10:03:34.786Z</time></trkpt><trkpt lat="40.67720534228197" lon="14.74044488561478"><ele>28.0</ele><time>2026-05-02T10:03:35.786Z</time></trkpt><trkpt lat="40.67715909296122" lon="14.740373668897421"><ele>28.0</ele><time>2026-05-02T10:03:36.786Z</time></trkpt><trkpt lat="40.67713322221083" lon="14.740292302408387"><ele>28.000000000000004</ele><time>2026-05-02T10:03:37.785Z</time></trkpt><trkpt lat="40.67710650745598" lon="14.740192609167869"><ele>28.0</ele><time>2026-05-02T10:03:38.785Z</time></trkpt><trkpt lat="40.67707478671574" lon="14.740081898417845"><ele>26.4</ele><time>2026-05-02T10:03:39.785Z</time></trkpt><trkpt lat="40.677042524895924" lon="14.739964775166232"><ele>24.799999999999997</ele><time>2026-05-02T10:03:40.785Z</time></trkpt><trkpt lat="40.67700695381979" lon="14.739840011333033"><ele>23.2</ele><time>2026-05-02T10:03:41.785Z</time></trkpt><trkpt lat="40.676969566613835" lon="14.739704017337377"><ele>21.6</ele><time>2026-05-02T10:03:42.785Z</time></trkpt><trkpt lat="40.67693195127862" lon="14.739564386789334"><ele>20.0</ele><time>2026-05-02T10:03:43.785Z</time></trkpt><trkpt lat="40.676887920334366" lon="14.739404640182547"><ele>23.0</ele><time>2026-05-02T10:03:44.785Z</time></trkpt><trkpt lat="40.67684583525732" lon="14.739255662336594"><ele>26.0</ele><time>2026-05-02T10:03:45.785Z</time></trkpt><trkpt lat="40.67680512425185" lon="14.739116232972618"><ele>29.0</ele><time>2026-05-02T10:03:46.785Z</time></trkpt><trkpt lat="40.67676147943397" lon="14.738964226204725"><ele>32.0</ele><time>2026-05-02T10:03:47.785Z</time></trkpt><trkpt lat="40.67669608327384" lon="14.738799013836385"><ele>32.0</ele><time>2026-05-02T10:03:48.785Z</time></trkpt><trkpt lat="40.676620596859976" lon="14.738653622749228"><ele>32.0</ele><time>2026-05-02T10:03:49.785Z</time></trkpt><trkpt lat="40.67654468430752" lon="14.738536160771288"><ele>32.0</ele><time>2026-05-02T10:03:50.785Z</time></trkpt><trkpt lat="40.676479788366784" lon="14.738444013710064"><ele>32.0</ele><time>2026-05-02T10:03:51.785Z</time></trkpt><trkpt lat="40.67643281195807" lon="14.738377680967085"><ele>32.0</ele><time>2026-05-02T10:03:52.785Z</time></trkpt><trkpt lat="40.676357011857064" lon="14.73827249261409"><ele>28.200000000000003</ele><time>2026-05-02T10:03:54.785Z</time></trkpt><trkpt lat="40.676302808460335" lon="14.73819700472311"><ele>24.400000000000002</ele><time>2026-05-02T10:03:55.785Z</time></trkpt><trkpt lat="40.676230437031585" lon="14.738095156302714"><ele>20.6</ele><time>2026-05-02T10:03:56.785Z</time></trkpt><trkpt lat="40.6761175155694" lon="14.738031071406795"><ele>16.8</ele><time>2026-05-02T10:03:57.784Z</time></trkpt><trkpt lat="40.67605168118006" lon="14.737916931474349"><ele>13.0</ele><time>2026-05-02T10:03:58.784Z</time></trkpt><trkpt lat="40.6759927112827" lon="14.737806568521316"><ele>19.8</ele><time>2026-05-02T10:03:59.784Z</time></trkpt><trkpt lat="40.675942025694944" lon="14.737688109486863"><ele>26.6</ele><time>2026-05-02T10:04:00.784Z</time></trkpt><trkpt lat="40.67592639760908" lon="14.737572911670929"><ele>33.400000000000006</ele><time>2026-05-02T10:04:01.784Z</time></trkpt><trkpt lat="40.67588346474507" lon="14.73747253780467"><ele>40.2</ele><time>2026-05-02T10:04:02.784Z</time></trkpt><trkpt lat="40.67583465587422" lon="14.737361735516195"><ele>47.0</ele><time>2026-05-02T10:04:03.784Z</time></trkpt><trkpt lat="40.67577780929205" lon="14.737250745927698"><ele>47.0</ele><time>2026-05-02T10:04:04.784Z</time></trkpt><trkpt lat="40.67570901429703" lon="14.737144164945718"><ele>47.0</ele><time>2026-05-02T10:04:05.784Z</time></trkpt><trkpt lat="40.67563211624328" lon="14.737052035953987"><ele>47.0</ele><time>2026-05-02T10:04:06.784Z</time></trkpt><trkpt lat="40.6755385303203" lon="14.736976731057617"><ele>47.0</ele><time>2026-05-02T10:04:07.784Z</time></trkpt><trkpt lat="40.67544892657936" lon="14.736924002029669"><ele>47.0</ele><time>2026-05-02T10:04:08.784Z</time></trkpt><trkpt lat="40.67534909324566" lon="14.736873073565242"><ele>50.0</ele><time>2026-05-02T10:04:09.784Z</time></trkpt><trkpt lat="40.675236980921966" lon="14.736828525130942"><ele>53.0</ele><time>2026-05-02T10:04:10.784Z</time></trkpt><trkpt lat="40.675128996520044" lon="14.736789288721562"><ele>56.0</ele><time>2026-05-02T10:04:11.784Z</time></trkpt><trkpt lat="40.675029075837514" lon="14.736752252881955"><ele>59.0</ele><time>2026-05-02T10:04:12.784Z</time></trkpt><trkpt lat="40.67493112429694" lon="14.73671588208995"><ele>62.0</ele><time>2026-05-02T10:04:13.784Z</time></trkpt><trkpt lat="40.67482319256622" lon="14.736676399935346"><ele>62.0</ele><time>2026-05-02T10:04:14.784Z</time></trkpt><trkpt lat="40.6747167605219" lon="14.736639494507571"><ele>62.0</ele><time>2026-05-02T10:04:15.784Z</time></trkpt><trkpt lat="40.67461526618239" lon="14.736604148641398"><ele>62.0</ele><time>2026-05-02T10:04:16.784Z</time></trkpt><trkpt lat="40.67452564479938" lon="14.736565030210363"><ele>62.0</ele><time>2026-05-02T10:04:17.783Z</time></trkpt><trkpt lat="40.67444891565588" lon="14.736529878549883"><ele>62.0</ele><time>2026-05-02T10:04:18.783Z</time></trkpt><trkpt lat="40.67437588709678" lon="14.736494454938633"><ele>56.50000000000001</ele><time>2026-05-02T10:04:19.783Z</time></trkpt><trkpt lat="40.67429813068594" lon="14.736451056279172"><ele>51.0</ele><time>2026-05-02T10:04:20.783Z</time></trkpt><trkpt lat="40.674219508941704" lon="14.73640065749109"><ele>45.5</ele><time>2026-05-02T10:04:21.783Z</time></trkpt><trkpt lat="40.67414411689117" lon="14.736344409487977"><ele>40.0</ele><time>2026-05-02T10:04:22.783Z</time></trkpt><trkpt lat="40.674084790883796" lon="14.736291862428653"><ele>34.5</ele><time>2026-05-02T10:04:23.783Z</time></trkpt><trkpt lat="40.67402789127265" lon="14.7362283734964"><ele>29.0</ele><time>2026-05-02T10:04:24.783Z</time></trkpt><trkpt lat="40.67397547443963" lon="14.736162499351227"><ele>28.999999999999996</ele><time>2026-05-02T10:04:25.783Z</time></trkpt><trkpt lat="40.67392882090068" lon="14.736096838247478"><ele>29.0</ele><time>2026-05-02T10:04:26.783Z</time></trkpt><trkpt lat="40.673876955430835" lon="14.736023493436607"><ele>29.0</ele><time>2026-05-02T10:04:27.783Z</time></trkpt><trkpt lat="40.67381518626049" lon="14.73593496917905"><ele>29.0</ele><time>2026-05-02T10:04:28.783Z</time></trkpt><trkpt lat="40.67375007991171" lon="14.735851345879345"><ele>28.999999999999996</ele><time>2026-05-02T10:04:29.783Z</time></trkpt><trkpt lat="40.673678839863534" lon="14.735770596572785"><ele>29.0</ele><time>2026-05-02T10:04:30.783Z</time></trkpt><trkpt lat="40.67359314724013" lon="14.735703268048734"><ele>33.8</ele><time>2026-05-02T10:04:31.783Z</time></trkpt><trkpt lat="40.67350555615244" lon="14.735645379402735"><ele>38.599999999999994</ele><time>2026-05-02T10:04:32.783Z</time></trkpt><trkpt lat="40.67341438386467" lon="14.735583453536776"><ele>43.4</ele><time>2026-05-02T10:04:33.783Z</time></trkpt><trkpt lat="40.67332186811805" lon="14.735515403457985"><ele>48.199999999999996</ele><time>2026-05-02T10:04:34.783Z</time></trkpt><trkpt lat="40.673218971790746" lon="14.73543568164386"><ele>53.0</ele><time>2026-05-02T10:04:35.783Z</time></trkpt><trkpt lat="40.67312567872276" lon="14.735369569247698"><ele>53.00000000000001</ele><time>2026-05-02T10:04:36.783Z</time></trkpt><trkpt lat="40.673027460410765" lon="14.735307893445151"><ele>53.0</ele><time>2026-05-02T10:04:37.782Z</time></trkpt><trkpt lat="40.67294796442381" lon="14.735274718463359"><ele>53.0</ele><time>2026-05-02T10:04:38.782Z</time></trkpt><trkpt lat="40.67286664651212" lon="14.73523763538103"><ele>53.0</ele><time>2026-05-02T10:04:39.782Z</time></trkpt><trkpt lat="40.6727891321938" lon="14.7351979873608"><ele>53.00000000000001</ele><time>2026-05-02T10:04:40.782Z</time></trkpt><trkpt lat="40.67271261449922" lon="14.735147072294644"><ele>53.0</ele><time>2026-05-02T10:04:41.782Z</time></trkpt><trkpt lat="40.6726404919401" lon="14.735088728709004"><ele>55.50000000000001</ele><time>2026-05-02T10:04:42.782Z</time></trkpt><trkpt lat="40.672573818001524" lon="14.735018829155957"><ele>58.0</ele><time>2026-05-02T10:04:43.782Z</time></trkpt><trkpt lat="40.67249687427768" lon="14.734934322164948"><ele>60.5</ele><time>2026-05-02T10:04:44.782Z</time></trkpt><trkpt lat="40.67242596186227" lon="14.734856217399207"><ele>63.0</ele><time>2026-05-02T10:04:45.782Z</time></trkpt><trkpt lat="40.672364370977185" lon="14.73478784710357"><ele>65.5</ele><time>2026-05-02T10:04:46.782Z</time></trkpt><trkpt lat="40.672307818501906" lon="14.734725069610272"><ele>68.0</ele><time>2026-05-02T10:04:47.782Z</time></trkpt><trkpt lat="40.67225439496017" lon="14.734672222278647"><ele>68.0</ele><time>2026-05-02T10:04:48.782Z</time></trkpt><trkpt lat="40.67216493861374" lon="14.734588184143439"><ele>68.0</ele><time>2026-05-02T10:04:50.782Z</time></trkpt><trkpt lat="40.672098586677585" lon="14.734584692556124"><ele>68.0</ele><time>2026-05-02T10:04:51.782Z</time></trkpt><trkpt lat="40.671996571464796" lon="14.73449184318791"><ele>68.0</ele><time>2026-05-02T10:04:53.782Z</time></trkpt><trkpt lat="40.67194962283004" lon="14.734434867496738"><ele>68.0</ele><time>2026-05-02T10:04:54.782Z</time></trkpt><trkpt lat="40.67186000058341" lon="14.734324927494825"><ele>68.5</ele><time>2026-05-02T10:04:56.782Z</time></trkpt><trkpt lat="40.67181424913728" lon="14.734245778571541"><ele>69.0</ele><time>2026-05-02T10:04:57.782Z</time></trkpt><trkpt lat="40.67177771304719" lon="14.734173412890568"><ele>69.5</ele><time>2026-05-02T10:04:58.781Z</time></trkpt><trkpt lat="40.67173168912003" lon="14.734088582219774"><ele>70.0</ele><time>2026-05-02T10:05:00.781Z</time></trkpt><trkpt lat="40.671638714750266" lon="14.733973561500129"><ele>70.5</ele><time>2026-05-02T10:05:02.781Z</time></trkpt><trkpt lat="40.67159586081296" lon="14.733886680077875"><ele>71.0</ele><time>2026-05-02T10:05:03.781Z</time></trkpt><trkpt lat="40.67152389727839" lon="14.733838817066404"><ele>71.0</ele><time>2026-05-02T10:05:04.781Z</time></trkpt><trkpt lat="40.67146356597892" lon="14.733793156150703"><ele>71.0</ele><time>2026-05-02T10:05:05.781Z</time></trkpt><trkpt lat="40.671397498503495" lon="14.733662604160589"><ele>71.0</ele><time>2026-05-02T10:05:07.781Z</time></trkpt><trkpt lat="40.67135113109926" lon="14.733508558497746"><ele>71.0</ele><time>2026-05-02T10:05:09.781Z</time></trkpt><trkpt lat="40.671335901415304" lon="14.73340830546361"><ele>71.0</ele><time>2026-05-02T10:05:10.781Z</time></trkpt><trkpt lat="40.671332477886104" lon="14.733302331383188"><ele>74.0</ele><time>2026-05-02T10:05:11.781Z</time></trkpt><trkpt lat="40.671324126271365" lon="14.733186057479461"><ele>77.0</ele><time>2026-05-02T10:05:13.781Z</time></trkpt><trkpt lat="40.671320461038555" lon="14.733084872619699"><ele>80.0</ele><time>2026-05-02T10:05:15.781Z</time></trkpt><trkpt lat="40.67132027174141" lon="14.732952348637776"><ele>83.0</ele><time>2026-05-02T10:05:17.781Z</time></trkpt><trkpt lat="40.67130490909078" lon="14.732807198060899"><ele>86.0</ele><time>2026-05-02T10:05:19.78Z</time></trkpt><trkpt lat="40.67127138806886" lon="14.732660349647519"><ele>89.0</ele><time>2026-05-02T10:05:21.78Z</time></trkpt><trkpt lat="40.671233625638834" lon="14.732511827714205"><ele>92.0</ele><time>2026-05-02T10:05:23.783Z</time></trkpt><trkpt lat="40.671201630811716" lon="14.732400001008575"><ele>95.0</ele><time>2026-05-02T10:05:25.783Z</time></trkpt><trkpt lat="40.671183561022424" lon="14.732312116400754"><ele>98.0</ele><time>2026-05-02T10:05:27.783Z</time></trkpt><trkpt lat="40.6711514914404" lon="14.732237839893921"><ele>100.99999999999999</ele><time>2026-05-02T10:05:29.782Z</time></trkpt><trkpt lat="40.67112800316559" lon="14.732135059569929"><ele>104.0</ele><time>2026-05-02T10:05:32.783Z</time></trkpt><trkpt lat="40.671106805632206" lon="14.732035387140487"><ele>98.33333333333333</ele><time>2026-05-02T10:05:34.782Z</time></trkpt><trkpt lat="40.67107935053691" lon="14.73192410895816"><ele>92.66666666666666</ele><time>2026-05-02T10:05:36.783Z</time></trkpt><trkpt lat="40.671049214221846" lon="14.731777584246768"><ele>87.0</ele><time>2026-05-02T10:05:38.783Z</time></trkpt><trkpt lat="40.67103810969789" lon="14.731692097457442"><ele>81.33333333333333</ele><time>2026-05-02T10:05:39.783Z</time></trkpt><trkpt lat="40.67102498943938" lon="14.731601872966511"><ele>75.66666666666666</ele><time>2026-05-02T10:05:40.783Z</time></trkpt><trkpt lat="40.671020074673265" lon="14.731508490847897"><ele>70.0</ele><time>2026-05-02T10:05:41.783Z</time></trkpt><trkpt lat="40.67103678420988" lon="14.731422441285321"><ele>70.0</ele><time>2026-05-02T10:05:42.783Z</time></trkpt><trkpt lat="40.67105959252329" lon="14.731337742711638"><ele>70.0</ele><time>2026-05-02T10:05:43.783Z</time></trkpt><trkpt lat="40.671091393960005" lon="14.731249288736379"><ele>70.0</ele><time>2026-05-02T10:05:44.783Z</time></trkpt><trkpt lat="40.6711335461154" lon="14.731163872906714"><ele>70.0</ele><time>2026-05-02T10:05:45.783Z</time></trkpt><trkpt lat="40.67118552886917" lon="14.73107293671612"><ele>70.0</ele><time>2026-05-02T10:05:46.782Z</time></trkpt><trkpt lat="40.67124677660144" lon="14.730983929664088"><ele>70.0</ele><time>2026-05-02T10:05:47.782Z</time></trkpt><trkpt lat="40.671306934292296" lon="14.730904094046103"><ele>77.4</ele><time>2026-05-02T10:05:48.782Z</time></trkpt><trkpt lat="40.67135767739137" lon="14.730809515385294"><ele>84.8</ele><time>2026-05-02T10:05:49.782Z</time></trkpt><trkpt lat="40.67139806885379" lon="14.730693162988887"><ele>92.19999999999999</ele><time>2026-05-02T10:05:50.782Z</time></trkpt><trkpt lat="40.671424494646764" lon="14.730562138202663"><ele>99.6</ele><time>2026-05-02T10:05:51.782Z</time></trkpt><trkpt lat="40.67145343318622" lon="14.730414905739694"><ele>107.0</ele><time>2026-05-02T10:05:52.782Z</time></trkpt><trkpt lat="40.671467147092685" lon="14.730267189690316"><ele>105.83333333333333</ele><time>2026-05-02T10:05:53.782Z</time></trkpt><trkpt lat="40.671475678285134" lon="14.730133003074346"><ele>104.66666666666666</ele><time>2026-05-02T10:05:54.782Z</time></trkpt><trkpt lat="40.671509815270916" lon="14.730047524637035"><ele>103.5</ele><time>2026-05-02T10:05:55.782Z</time></trkpt><trkpt lat="40.671541654129165" lon="14.729942555716436"><ele>102.33333333333334</ele><time>2026-05-02T10:05:56.782Z</time></trkpt><trkpt lat="40.67156680685795" lon="14.729823827269776"><ele>101.16666666666667</ele><time>2026-05-02T10:05:57.782Z</time></trkpt><trkpt lat="40.67158151944017" lon="14.729711669577924"><ele>100.0</ele><time>2026-05-02T10:05:58.782Z</time></trkpt><trkpt lat="40.67160657227561" lon="14.729605429791489"><ele>100.00000000000001</ele><time>2026-05-02T10:05:59.782Z</time></trkpt><trkpt lat="40.67164632931992" lon="14.729505428800696"><ele>100.0</ele><time>2026-05-02T10:06:00.782Z</time></trkpt><trkpt lat="40.67170518600872" lon="14.72941836655407"><ele>100.0</ele><time>2026-05-02T10:06:01.782Z</time></trkpt><trkpt lat="40.67176819394823" lon="14.729335222833367"><ele>100.0</ele><time>2026-05-02T10:06:02.782Z</time></trkpt><trkpt lat="40.671835814030494" lon="14.729263046178989"><ele>100.00000000000001</ele><time>2026-05-02T10:06:03.782Z</time></trkpt><trkpt lat="40.67189016001558" lon="14.72921375864253"><ele>100.0</ele><time>2026-05-02T10:06:04.782Z</time></trkpt><trkpt lat="40.67195128720528" lon="14.729168208198718"><ele>99.83333333333334</ele><time>2026-05-02T10:06:05.782Z</time></trkpt><trkpt lat="40.67201171415019" lon="14.729109999590989"><ele>99.66666666666667</ele><time>2026-05-02T10:06:06.781Z</time></trkpt><trkpt lat="40.672100953706114" lon="14.729091032989933"><ele>99.5</ele><time>2026-05-02T10:06:07.781Z</time></trkpt><trkpt lat="40.67218198786893" lon="14.729063088473458"><ele>99.33333333333334</ele><time>2026-05-02T10:06:08.781Z</time></trkpt><trkpt lat="40.672272084600685" lon="14.729033760012733"><ele>99.16666666666667</ele><time>2026-05-02T10:06:09.781Z</time></trkpt><trkpt lat="40.672357154900936" lon="14.729004877262375"><ele>99.0</ele><time>2026-05-02T10:06:10.781Z</time></trkpt><trkpt lat="40.67244489646341" lon="14.728973863210845"><ele>99.0</ele><time>2026-05-02T10:06:11.781Z</time></trkpt><trkpt lat="40.67255172286612" lon="14.728936696932514"><ele>99.0</ele><time>2026-05-02T10:06:12.781Z</time></trkpt><trkpt lat="40.6726770596579" lon="14.728896536329508"><ele>99.0</ele><time>2026-05-02T10:06:13.781Z</time></trkpt><trkpt lat="40.67281287625199" lon="14.728816867163793"><ele>99.0</ele><time>2026-05-02T10:06:14.781Z</time></trkpt><trkpt lat="40.672938470206084" lon="14.728764312734564"><ele>100.6</ele><time>2026-05-02T10:06:15.781Z</time></trkpt><trkpt lat="40.6730509506117" lon="14.728712565083732"><ele>102.2</ele><time>2026-05-02T10:06:16.781Z</time></trkpt><trkpt lat="40.67315133976476" lon="14.728653310868541"><ele>103.79999999999998</ele><time>2026-05-02T10:06:17.781Z</time></trkpt><trkpt lat="40.67322786480682" lon="14.728587019431403"><ele>105.39999999999999</ele><time>2026-05-02T10:06:18.781Z</time></trkpt><trkpt lat="40.67329641267873" lon="14.728513085301726"><ele>107.0</ele><time>2026-05-02T10:06:19.781Z</time></trkpt><trkpt lat="40.673345441896" lon="14.728461005967871"><ele>106.8</ele><time>2026-05-02T10:06:20.781Z</time></trkpt><trkpt lat="40.673414428915315" lon="14.728368645693642"><ele>106.6</ele><time>2026-05-02T10:06:22.781Z</time></trkpt><trkpt lat="40.673471020945335" lon="14.728307325843213"><ele>106.39999999999999</ele><time>2026-05-02T10:06:24.781Z</time></trkpt><trkpt lat="40.67353244557486" lon="14.728219704649087"><ele>106.19999999999999</ele><time>2026-05-02T10:06:25.781Z</time></trkpt><trkpt lat="40.67359203303679" lon="14.728090124540094"><ele>106.0</ele><time>2026-05-02T10:06:26.78Z</time></trkpt><trkpt lat="40.673656787198475" lon="14.72794144643771"><ele>106.0</ele><time>2026-05-02T10:06:27.78Z</time></trkpt><trkpt lat="40.673717385161474" lon="14.727780334709168"><ele>106.0</ele><time>2026-05-02T10:06:28.78Z</time></trkpt><trkpt lat="40.673780652419026" lon="14.727616557682081"><ele>106.0</ele><time>2026-05-02T10:06:29.78Z</time></trkpt><trkpt lat="40.67385175027507" lon="14.727453786218653"><ele>106.0</ele><time>2026-05-02T10:06:30.78Z</time></trkpt><trkpt lat="40.67393856438773" lon="14.727283441530492"><ele>102.33333333333334</ele><time>2026-05-02T10:06:31.78Z</time></trkpt><trkpt lat="40.674050288115325" lon="14.727100077343602"><ele>98.66666666666667</ele><time>2026-05-02T10:06:32.78Z</time></trkpt><trkpt lat="40.67417660640342" lon="14.726931395661877"><ele>95.0</ele><time>2026-05-02T10:06:33.78Z</time></trkpt><trkpt lat="40.67428786621085" lon="14.726745858341706"><ele>91.33333333333334</ele><time>2026-05-02T10:06:34.78Z</time></trkpt><trkpt lat="40.67440026385188" lon="14.726585940945737"><ele>87.66666666666667</ele><time>2026-05-02T10:06:35.78Z</time></trkpt><trkpt lat="40.6745146478182" lon="14.72645730959188"><ele>84.0</ele><time>2026-05-02T10:06:36.78Z</time></trkpt><trkpt lat="40.67463695332156" lon="14.726308446928927"><ele>86.66666666666667</ele><time>2026-05-02T10:06:37.78Z</time></trkpt><trkpt lat="40.6747652126162" lon="14.726152021354668"><ele>89.33333333333334</ele><time>2026-05-02T10:06:38.78Z</time></trkpt><trkpt lat="40.67490820552805" lon="14.725994758735924"><ele>92.0</ele><time>2026-05-02T10:06:39.78Z</time></trkpt><trkpt lat="40.67505416381874" lon="14.725815937193111"><ele>92.0</ele><time>2026-05-02T10:06:40.78Z</time></trkpt><trkpt lat="40.6752181736716" lon="14.725645216046667"><ele>92.0</ele><time>2026-05-02T10:06:41.78Z</time></trkpt><trkpt lat="40.675362021458696" lon="14.72545316958453"><ele>92.0</ele><time>2026-05-02T10:06:42.78Z</time></trkpt><trkpt lat="40.67551187236435" lon="14.725275583972145"><ele>93.0</ele><time>2026-05-02T10:06:43.78Z</time></trkpt><trkpt lat="40.6756664888755" lon="14.725092013449396"><ele>94.0</ele><time>2026-05-02T10:06:44.78Z</time></trkpt><trkpt lat="40.675817396194496" lon="14.724895854997055"><ele>95.0</ele><time>2026-05-02T10:06:45.78Z</time></trkpt><trkpt lat="40.675980081181784" lon="14.724716049799799"><ele>94.66666666666667</ele><time>2026-05-02T10:06:46.779Z</time></trkpt><trkpt lat="40.676148518701005" lon="14.724541761775468"><ele>94.33333333333333</ele><time>2026-05-02T10:06:47.779Z</time></trkpt><trkpt lat="40.67631312817729" lon="14.72436732401516"><ele>94.0</ele><time>2026-05-02T10:06:48.779Z</time></trkpt><trkpt lat="40.67647833684477" lon="14.724196021814027"><ele>94.0</ele><time>2026-05-02T10:06:49.779Z</time></trkpt><trkpt lat="40.67664293806763" lon="14.724021451540848"><ele>94.0</ele><time>2026-05-02T10:06:50.779Z</time></trkpt><trkpt lat="40.67680219288605" lon="14.723859183703768"><ele>94.0</ele><time>2026-05-02T10:06:51.779Z</time></trkpt><trkpt lat="40.676955122645076" lon="14.72369290717042"><ele>94.33333333333333</ele><time>2026-05-02T10:06:52.779Z</time></trkpt><trkpt lat="40.67709636271304" lon="14.723527022296759"><ele>94.66666666666667</ele><time>2026-05-02T10:06:53.779Z</time></trkpt><trkpt lat="40.67723906307558" lon="14.72337257353493"><ele>95.0</ele><time>2026-05-02T10:06:54.779Z</time></trkpt><trkpt lat="40.67738310744621" lon="14.72323752631484"><ele>95.0</ele><time>2026-05-02T10:06:55.779Z</time></trkpt><trkpt lat="40.67752057638831" lon="14.723133923694487"><ele>95.0</ele><time>2026-05-02T10:06:56.779Z</time></trkpt><trkpt lat="40.677657947568655" lon="14.723072833413303"><ele>95.0</ele><time>2026-05-02T10:06:57.779Z</time></trkpt><trkpt lat="40.677789047590714" lon="14.723036923504946"><ele>95.0</ele><time>2026-05-02T10:06:58.779Z</time></trkpt><trkpt lat="40.677905921372435" lon="14.723017846453013"><ele>99.5</ele><time>2026-05-02T10:06:59.779Z</time></trkpt><trkpt lat="40.678010296829584" lon="14.722985436305505"><ele>104.0</ele><time>2026-05-02T10:07:00.779Z</time></trkpt><trkpt lat="40.6781145449472" lon="14.72295267836044"><ele>108.5</ele><time>2026-05-02T10:07:01.779Z</time></trkpt><trkpt lat="40.678247533652" lon="14.722941118835175"><ele>113.0</ele><time>2026-05-02T10:07:02.779Z</time></trkpt><trkpt lat="40.6783846527749" lon="14.722907624328151"><ele>113.0</ele><time>2026-05-02T10:07:03.779Z</time></trkpt><trkpt lat="40.67854395549725" lon="14.722848665472144"><ele>113.0</ele><time>2026-05-02T10:07:04.779Z</time></trkpt><trkpt lat="40.6787211898768" lon="14.722821659732567"><ele>113.0</ele><time>2026-05-02T10:07:05.779Z</time></trkpt><trkpt lat="40.67890372525028" lon="14.722781578960753"><ele>118.66666666666666</ele><time>2026-05-02T10:07:06.779Z</time></trkpt><trkpt lat="40.67909935912862" lon="14.722742104749209"><ele>124.33333333333334</ele><time>2026-05-02T10:07:07.778Z</time></trkpt><trkpt lat="40.67929537558268" lon="14.72270664046808"><ele>130.0</ele><time>2026-05-02T10:07:08.778Z</time></trkpt><trkpt lat="40.67947624535954" lon="14.722679084667663"><ele>116.66666666666667</ele><time>2026-05-02T10:07:09.778Z</time></trkpt><trkpt lat="40.679645136937616" lon="14.7226642947435"><ele>103.33333333333334</ele><time>2026-05-02T10:07:10.778Z</time></trkpt><trkpt lat="40.67980112526809" lon="14.722665138279886"><ele>90.0</ele><time>2026-05-02T10:07:11.778Z</time></trkpt><trkpt lat="40.67995309681823" lon="14.722669989866334"><ele>90.0</ele><time>2026-05-02T10:07:12.778Z</time></trkpt><trkpt lat="40.68011184750715" lon="14.722672045594281"><ele>90.0</ele><time>2026-05-02T10:07:13.778Z</time></trkpt><trkpt lat="40.68027648816678" lon="14.722664943778748"><ele>90.0</ele><time>2026-05-02T10:07:14.778Z</time></trkpt><trkpt lat="40.68043410435676" lon="14.722663439101872"><ele>88.33333333333333</ele><time>2026-05-02T10:07:15.778Z</time></trkpt><trkpt lat="40.68058902995648" lon="14.72265253694521"><ele>86.66666666666666</ele><time>2026-05-02T10:07:16.778Z</time></trkpt><trkpt lat="40.68075288123077" lon="14.722588446754687"><ele>85.0</ele><time>2026-05-02T10:07:17.778Z</time></trkpt><trkpt lat="40.68091662744217" lon="14.722500554840957"><ele>85.0</ele><time>2026-05-02T10:07:18.778Z</time></trkpt><trkpt lat="40.68108483511637" lon="14.72240274030551"><ele>85.0</ele><time>2026-05-02T10:07:19.778Z</time></trkpt><trkpt lat="40.681249843299796" lon="14.722309468018235"><ele>85.0</ele><time>2026-05-02T10:07:20.778Z</time></trkpt><trkpt lat="40.6814067519465" lon="14.722233283629398"><ele>86.66666666666666</ele><time>2026-05-02T10:07:21.778Z</time></trkpt><trkpt lat="40.681552119030826" lon="14.722171108469198"><ele>88.33333333333333</ele><time>2026-05-02T10:07:22.778Z</time></trkpt><trkpt lat="40.68170111583461" lon="14.722137506230657"><ele>90.0</ele><time>2026-05-02T10:07:23.778Z</time></trkpt><trkpt lat="40.68185031093683" lon="14.72212520959793"><ele>91.0</ele><time>2026-05-02T10:07:24.778Z</time></trkpt><trkpt lat="40.68200833894271" lon="14.722118056494358"><ele>92.0</ele><time>2026-05-02T10:07:25.778Z</time></trkpt><trkpt lat="40.68215603433483" lon="14.722098772854318"><ele>93.0</ele><time>2026-05-02T10:07:26.778Z</time></trkpt><trkpt lat="40.6822873464258" lon="14.722075159911546"><ele>94.0</ele><time>2026-05-02T10:07:27.777Z</time></trkpt><trkpt lat="40.68242499143385" lon="14.722068662552822"><ele>94.0</ele><time>2026-05-02T10:07:28.78Z</time></trkpt><trkpt lat="40.682567728012884" lon="14.722040148821314"><ele>94.0</ele><time>2026-05-02T10:07:29.781Z</time></trkpt><trkpt lat="40.68271278758125" lon="14.722011677164941"><ele>94.0</ele><time>2026-05-02T10:07:30.781Z</time></trkpt><trkpt lat="40.68286479012884" lon="14.72197329507099"><ele>94.0</ele><time>2026-05-02T10:07:31.781Z</time></trkpt><trkpt lat="40.6830222019375" lon="14.72192088423266"><ele>100.66666666666666</ele><time>2026-05-02T10:07:32.78Z</time></trkpt><trkpt lat="40.68316759215831" lon="14.721848774909269"><ele>107.33333333333333</ele><time>2026-05-02T10:07:33.78Z</time></trkpt><trkpt lat="40.6833213033429" lon="14.721829113853179"><ele>114.0</ele><time>2026-05-02T10:07:34.78Z</time></trkpt><trkpt lat="40.68346198500283" lon="14.721795426854841"><ele>116.75</ele><time>2026-05-02T10:07:35.781Z</time></trkpt><trkpt lat="40.68360283360002" lon="14.72178068363323"><ele>119.5</ele><time>2026-05-02T10:07:36.781Z</time></trkpt><trkpt lat="40.68372413972076" lon="14.721831106603966"><ele>122.25</ele><time>2026-05-02T10:07:37.78Z</time></trkpt><trkpt lat="40.683851468396746" lon="14.721904769642082"><ele>125.0</ele><time>2026-05-02T10:07:38.78Z</time></trkpt><trkpt lat="40.68399239008366" lon="14.721970772744227"><ele>122.25</ele><time>2026-05-02T10:07:39.78Z</time></trkpt><trkpt lat="40.68412091081969" lon="14.72207147816707"><ele>119.5</ele><time>2026-05-02T10:07:40.78Z</time></trkpt><trkpt lat="40.684252344759" lon="14.722148519163769"><ele>116.75</ele><time>2026-05-02T10:07:41.78Z</time></trkpt><trkpt lat="40.68438528257615" lon="14.72219141407255"><ele>114.0</ele><time>2026-05-02T10:07:42.78Z</time></trkpt><trkpt lat="40.684516539026234" lon="14.722203325525484"><ele>114.0</ele><time>2026-05-02T10:07:43.78Z</time></trkpt><trkpt lat="40.68465013594925" lon="14.722200649292061"><ele>114.0</ele><time>2026-05-02T10:07:44.779Z</time></trkpt><trkpt lat="40.684787540877245" lon="14.722201407912417"><ele>114.0</ele><time>2026-05-02T10:07:45.779Z</time></trkpt><trkpt lat="40.68493229007593" lon="14.722213185878651"><ele>114.0</ele><time>2026-05-02T10:07:46.779Z</time></trkpt><trkpt lat="40.685081196268015" lon="14.722241049156262"><ele>114.0</ele><time>2026-05-02T10:07:47.779Z</time></trkpt><trkpt lat="40.6852288907011" lon="14.722280707725936"><ele>114.0</ele><time>2026-05-02T10:07:48.779Z</time></trkpt><trkpt lat="40.68537557164907" lon="14.722320416427856"><ele>114.0</ele><time>2026-05-02T10:07:49.779Z</time></trkpt><trkpt lat="40.685512188222624" lon="14.722336825571785"><ele>114.0</ele><time>2026-05-02T10:07:50.779Z</time></trkpt><trkpt lat="40.68564627766333" lon="14.722350774278425"><ele>114.75</ele><time>2026-05-02T10:07:51.779Z</time></trkpt><trkpt lat="40.6857652309133" lon="14.722339967507027"><ele>115.5</ele><time>2026-05-02T10:07:52.779Z</time></trkpt><trkpt lat="40.68589611627174" lon="14.722289334584419"><ele>116.25</ele><time>2026-05-02T10:07:53.779Z</time></trkpt><trkpt lat="40.6860203692201" lon="14.722202728734995"><ele>117.0</ele><time>2026-05-02T10:07:54.779Z</time></trkpt><trkpt lat="40.686167107387355" lon="14.72210269315488"><ele>117.0</ele><time>2026-05-02T10:07:55.779Z</time></trkpt><trkpt lat="40.68630614629794" lon="14.721984143669614"><ele>117.0</ele><time>2026-05-02T10:07:56.779Z</time></trkpt><trkpt lat="40.68642088137358" lon="14.72187837473146"><ele>117.0</ele><time>2026-05-02T10:07:57.779Z</time></trkpt><trkpt lat="40.686548772471824" lon="14.721835267917246"><ele>117.0</ele><time>2026-05-02T10:07:58.779Z</time></trkpt><trkpt lat="40.68668246279867" lon="14.721836225829508"><ele>122.66666666666666</ele><time>2026-05-02T10:07:59.779Z</time></trkpt><trkpt lat="40.686824374587545" lon="14.721851549163299"><ele>128.33333333333331</ele><time>2026-05-02T10:08:00.779Z</time></trkpt><trkpt lat="40.68698469349165" lon="14.721855730812726"><ele>134.0</ele><time>2026-05-02T10:08:01.779Z</time></trkpt><trkpt lat="40.687152229805406" lon="14.721832737009786"><ele>134.0</ele><time>2026-05-02T10:08:02.779Z</time></trkpt><trkpt lat="40.68731833381245" lon="14.721780988591691"><ele>134.0</ele><time>2026-05-02T10:08:03.779Z</time></trkpt><trkpt lat="40.687492557422964" lon="14.72171123341068"><ele>134.0</ele><time>2026-05-02T10:08:04.778Z</time></trkpt><trkpt lat="40.68764986837066" lon="14.721617466857866"><ele>133.25</ele><time>2026-05-02T10:08:05.778Z</time></trkpt><trkpt lat="40.68778354302747" lon="14.721508011209066"><ele>132.5</ele><time>2026-05-02T10:08:06.778Z</time></trkpt><trkpt lat="40.68788619626208" lon="14.721378274421614"><ele>131.75</ele><time>2026-05-02T10:08:07.778Z</time></trkpt><trkpt lat="40.687971969410555" lon="14.721227799012851"><ele>131.0</ele><time>2026-05-02T10:08:08.778Z</time></trkpt><trkpt lat="40.68804730498485" lon="14.721042516360376"><ele>131.0</ele><time>2026-05-02T10:08:09.778Z</time></trkpt><trkpt lat="40.68813017332361" lon="14.720839523801779"><ele>131.0</ele><time>2026-05-02T10:08:10.778Z</time></trkpt><trkpt lat="40.68822157194128" lon="14.7206384463656"><ele>131.0</ele><time>2026-05-02T10:08:11.778Z</time></trkpt><trkpt lat="40.68832308442485" lon="14.720445762891577"><ele>131.0</ele><time>2026-05-02T10:08:12.778Z</time></trkpt><trkpt lat="40.68843471025751" lon="14.720274481676373"><ele>131.0</ele><time>2026-05-02T10:08:13.778Z</time></trkpt><trkpt lat="40.68856340843001" lon="14.72013142459052"><ele>131.0</ele><time>2026-05-02T10:08:14.778Z</time></trkpt><trkpt lat="40.68869858870892" lon="14.719986974528648"><ele>131.66666666666666</ele><time>2026-05-02T10:08:15.778Z</time></trkpt><trkpt lat="40.688862096231446" lon="14.719879709917327"><ele>132.33333333333334</ele><time>2026-05-02T10:08:16.778Z</time></trkpt><trkpt lat="40.68903245177235" lon="14.719779389698317"><ele>133.0</ele><time>2026-05-02T10:08:17.778Z</time></trkpt><trkpt lat="40.68921764093495" lon="14.719675380532694"><ele>133.0</ele><time>2026-05-02T10:08:18.778Z</time></trkpt><trkpt lat="40.68941051822563" lon="14.719566950761955"><ele>133.0</ele><time>2026-05-02T10:08:19.778Z</time></trkpt><trkpt lat="40.68957150780179" lon="14.71944381922492"><ele>133.0</ele><time>2026-05-02T10:08:20.778Z</time></trkpt><trkpt lat="40.689725427500925" lon="14.719350316404777"><ele>137.0</ele><time>2026-05-02T10:08:21.778Z</time></trkpt><trkpt lat="40.68987325645703" lon="14.71925353849793"><ele>141.0</ele><time>2026-05-02T10:08:22.778Z</time></trkpt><trkpt lat="40.69000058245123" lon="14.719141280070833"><ele>145.0</ele><time>2026-05-02T10:08:23.778Z</time></trkpt><trkpt lat="40.690120247204376" lon="14.719015950809505"><ele>145.0</ele><time>2026-05-02T10:08:24.777Z</time></trkpt><trkpt lat="40.69020003019287" lon="14.718835216247385"><ele>145.0</ele><time>2026-05-02T10:08:25.777Z</time></trkpt><trkpt lat="40.69029033394656" lon="14.718646906807605"><ele>145.0</ele><time>2026-05-02T10:08:26.777Z</time></trkpt><trkpt lat="40.69039119827946" lon="14.71846996841457"><ele>145.33333333333334</ele><time>2026-05-02T10:08:27.777Z</time></trkpt><trkpt lat="40.69050936987694" lon="14.71830854193211"><ele>145.66666666666666</ele><time>2026-05-02T10:08:28.777Z</time></trkpt><trkpt lat="40.69066699332675" lon="14.718195536028619"><ele>146.0</ele><time>2026-05-02T10:08:29.777Z</time></trkpt><trkpt lat="40.69081981117443" lon="14.718076741517109"><ele>146.0</ele><time>2026-05-02T10:08:30.777Z</time></trkpt><trkpt lat="40.69095800719941" lon="14.717918941026491"><ele>146.0</ele><time>2026-05-02T10:08:31.777Z</time></trkpt><trkpt lat="40.69105854832389" lon="14.71772446243122"><ele>146.0</ele><time>2026-05-02T10:08:32.777Z</time></trkpt><trkpt lat="40.691159741082124" lon="14.717519463416155"><ele>147.0</ele><time>2026-05-02T10:08:33.777Z</time></trkpt><trkpt lat="40.69125493391602" lon="14.717272496294404"><ele>148.0</ele><time>2026-05-02T10:08:34.777Z</time></trkpt><trkpt lat="40.69134881192684" lon="14.717033317386804"><ele>149.0</ele><time>2026-05-02T10:08:35.777Z</time></trkpt><trkpt lat="40.6914549366341" lon="14.716806328997702"><ele>149.0</ele><time>2026-05-02T10:08:36.777Z</time></trkpt><trkpt lat="40.691503114752294" lon="14.716547421172999"><ele>149.0</ele><time>2026-05-02T10:08:37.777Z</time></trkpt><trkpt lat="40.69155676405416" lon="14.71630693564964"><ele>149.0</ele><time>2026-05-02T10:08:38.777Z</time></trkpt><trkpt lat="40.69161186977248" lon="14.716078909057781"><ele>153.33333333333331</ele><time>2026-05-02T10:08:39.777Z</time></trkpt><trkpt lat="40.69172540965852" lon="14.715894489807775"><ele>157.66666666666666</ele><time>2026-05-02T10:08:40.777Z</time></trkpt><trkpt lat="40.69181455117589" lon="14.715693182670382"><ele>162.0</ele><time>2026-05-02T10:08:41.777Z</time></trkpt><trkpt lat="40.6918706989439" lon="14.715502859653173"><ele>161.5</ele><time>2026-05-02T10:08:42.777Z</time></trkpt><trkpt lat="40.691938342428834" lon="14.71533430085835"><ele>161.0</ele><time>2026-05-02T10:08:43.777Z</time></trkpt><trkpt lat="40.69202297290816" lon="14.715174377549978"><ele>160.5</ele><time>2026-05-02T10:08:44.776Z</time></trkpt><trkpt lat="40.69213776943447" lon="14.715058773761633"><ele>160.0</ele><time>2026-05-02T10:08:45.776Z</time></trkpt><trkpt lat="40.692255641997484" lon="14.714923921146294"><ele>160.0</ele><time>2026-05-02T10:08:46.776Z</time></trkpt><trkpt lat="40.692358079322204" lon="14.714790168738942"><ele>160.0</ele><time>2026-05-02T10:08:47.776Z</time></trkpt><trkpt lat="40.69244738179112" lon="14.714662858741562"><ele>160.0</ele><time>2026-05-02T10:08:48.776Z</time></trkpt><trkpt lat="40.69252632375135" lon="14.71453894685217"><ele>160.0</ele><time>2026-05-02T10:08:49.776Z</time></trkpt><trkpt lat="40.6925913941018" lon="14.71442069255518"><ele>160.0</ele><time>2026-05-02T10:08:50.776Z</time></trkpt><trkpt lat="40.69264325831882" lon="14.71430193795389"><ele>160.0</ele><time>2026-05-02T10:08:51.776Z</time></trkpt><trkpt lat="40.69271334327877" lon="14.714218645625085"><ele>160.0</ele><time>2026-05-02T10:08:52.776Z</time></trkpt><trkpt lat="40.69277750104986" lon="14.71415417454745"><ele>160.0</ele><time>2026-05-02T10:08:53.776Z</time></trkpt><trkpt lat="40.69284537800656" lon="14.714111200452821"><ele>160.0</ele><time>2026-05-02T10:08:54.776Z</time></trkpt><trkpt lat="40.69293848101868" lon="14.714086099340895"><ele>160.0</ele><time>2026-05-02T10:08:55.776Z</time></trkpt><trkpt lat="40.693042787664695" lon="14.714080695147837"><ele>160.0</ele><time>2026-05-02T10:08:56.776Z</time></trkpt><trkpt lat="40.693156630754174" lon="14.71410388269547"><ele>160.0</ele><time>2026-05-02T10:08:57.776Z</time></trkpt><trkpt lat="40.69327570275427" lon="14.714170199641313"><ele>160.0</ele><time>2026-05-02T10:08:58.776Z</time></trkpt><trkpt lat="40.693410892597356" lon="14.714193590421312"><ele>160.0</ele><time>2026-05-02T10:08:59.776Z</time></trkpt><trkpt lat="40.69355285041988" lon="14.7141879727127"><ele>164.0</ele><time>2026-05-02T10:09:00.776Z</time></trkpt><trkpt lat="40.693712039512874" lon="14.71415678639535"><ele>168.0</ele><time>2026-05-02T10:09:01.776Z</time></trkpt><trkpt lat="40.69388407991422" lon="14.714061881324222"><ele>172.0</ele><time>2026-05-02T10:09:02.776Z</time></trkpt><trkpt lat="40.694051175565555" lon="14.713968627517374"><ele>172.0</ele><time>2026-05-02T10:09:03.776Z</time></trkpt><trkpt lat="40.69420280393076" lon="14.713843724434147"><ele>172.0</ele><time>2026-05-02T10:09:04.775Z</time></trkpt><trkpt lat="40.69434883659482" lon="14.71368639991955"><ele>172.0</ele><time>2026-05-02T10:09:05.775Z</time></trkpt><trkpt lat="40.69450773466312" lon="14.713484964040152"><ele>173.0</ele><time>2026-05-02T10:09:06.775Z</time></trkpt><trkpt lat="40.6946662879431" lon="14.7132717935016"><ele>174.0</ele><time>2026-05-02T10:09:07.775Z</time></trkpt><trkpt lat="40.69484255232464" lon="14.713101875104147"><ele>175.0</ele><time>2026-05-02T10:09:08.775Z</time></trkpt><trkpt lat="40.69501211178109" lon="14.712930682018278"><ele>175.0</ele><time>2026-05-02T10:09:09.775Z</time></trkpt><trkpt lat="40.69519196657852" lon="14.712767983612645"><ele>175.0</ele><time>2026-05-02T10:09:10.775Z</time></trkpt><trkpt lat="40.69537381524197" lon="14.712620385594445"><ele>175.0</ele><time>2026-05-02T10:09:11.775Z</time></trkpt><trkpt lat="40.69557042009423" lon="14.712494077566747"><ele>181.0</ele><time>2026-05-02T10:09:12.775Z</time></trkpt><trkpt lat="40.69577568277008" lon="14.712383258680264"><ele>187.0</ele><time>2026-05-02T10:09:13.775Z</time></trkpt><trkpt lat="40.695984666377655" lon="14.712253561023651"><ele>190.0</ele><time>2026-05-02T10:09:14.775Z</time></trkpt><trkpt lat="40.696202410563494" lon="14.712088728903032"><ele>193.0</ele><time>2026-05-02T10:09:15.775Z</time></trkpt><trkpt lat="40.696470036242935" lon="14.71195930803451"><ele>193.0</ele><time>2026-05-02T10:09:16.775Z</time></trkpt><trkpt lat="40.69674717622307" lon="14.711823693534097"><ele>193.0</ele><time>2026-05-02T10:09:17.775Z</time></trkpt><trkpt lat="40.69703278236756" lon="14.711679791478607"><ele>193.0</ele><time>2026-05-02T10:09:18.775Z</time></trkpt><trkpt lat="40.697323117588255" lon="14.71152283933347"><ele>193.0</ele><time>2026-05-02T10:09:19.775Z</time></trkpt><trkpt lat="40.69761612196902" lon="14.711358520450318"><ele>196.5</ele><time>2026-05-02T10:09:20.775Z</time></trkpt><trkpt lat="40.697950648226254" lon="14.711394824206355"><ele>200.0</ele><time>2026-05-02T10:09:21.775Z</time></trkpt><trkpt lat="40.69819918756552" lon="14.711237323450503"><ele>200.0</ele><time>2026-05-02T10:09:22.775Z</time></trkpt><trkpt lat="40.69842277584897" lon="14.711094659928865"><ele>200.0</ele><time>2026-05-02T10:09:23.775Z</time></trkpt><trkpt lat="40.70018121067258" lon="14.709760459146267"><ele>201.66666666666669</ele><time>2026-05-02T10:09:34.774Z</time></trkpt><trkpt lat="40.70042693622806" lon="14.709787508160495"><ele>203.33333333333331</ele><time>2026-05-02T10:09:35.774Z</time></trkpt><trkpt lat="40.70060806418995" lon="14.709785959875509"><ele>205.0</ele><time>2026-05-02T10:09:36.774Z</time></trkpt><trkpt lat="40.70070257487794" lon="14.70971203118314"><ele>205.0</ele><time>2026-05-02T10:09:37.774Z</time></trkpt><trkpt lat="40.70077487856223" lon="14.709605016547352"><ele>205.0</ele><time>2026-05-02T10:09:38.774Z</time></trkpt><trkpt lat="40.70084228173921" lon="14.70950131189329"><ele>205.0</ele><time>2026-05-02T10:09:39.774Z</time></trkpt><trkpt lat="40.70091237506781" lon="14.70941184800317"><ele>205.0</ele><time>2026-05-02T10:09:40.778Z</time></trkpt><trkpt lat="40.700991236374385" lon="14.709334897423908"><ele>205.0</ele><time>2026-05-02T10:09:41.777Z</time></trkpt><trkpt lat="40.70107486141553" lon="14.709265718966652"><ele>204.99999999999997</ele><time>2026-05-02T10:09:42.777Z</time></trkpt><trkpt lat="40.70116093516517" lon="14.70920913428632"><ele>205.0</ele><time>2026-05-02T10:09:43.778Z</time></trkpt><trkpt lat="40.701243156428916" lon="14.709150597602823"><ele>205.0</ele><time>2026-05-02T10:09:44.777Z</time></trkpt><trkpt lat="40.70132254678681" lon="14.709098284149807"><ele>205.0</ele><time>2026-05-02T10:09:45.777Z</time></trkpt><trkpt lat="40.70140406598935" lon="14.709059120530021"><ele>204.99999999999997</ele><time>2026-05-02T10:09:46.777Z</time></trkpt><trkpt lat="40.70148357104247" lon="14.709022976801622"><ele>205.0</ele><time>2026-05-02T10:09:47.778Z</time></trkpt><trkpt lat="40.701551742949846" lon="14.708992786169032"><ele>205.0</ele><time>2026-05-02T10:09:48.778Z</time></trkpt><trkpt lat="40.7016163248801" lon="14.708980899396044"><ele>205.0</ele><time>2026-05-02T10:09:49.778Z</time></trkpt><trkpt lat="40.7017191213429" lon="14.708969719075771"><ele>205.0</ele><time>2026-05-02T10:09:51.778Z</time></trkpt><trkpt lat="40.70181411142294" lon="14.709015484275856"><ele>205.0</ele><time>2026-05-02T10:09:52.777Z</time></trkpt><trkpt lat="40.70183376421791" lon="14.708812891796352"><ele>205.0</ele><time>2026-05-02T10:09:54.777Z</time></trkpt><trkpt lat="40.70179396675724" lon="14.708730149593924"><ele>205.0</ele><time>2026-05-02T10:09:55.777Z</time></trkpt><trkpt lat="40.70192495273141" lon="14.708697292102903"><ele>205.0</ele><time>2026-05-02T10:09:57.777Z</time></trkpt><trkpt lat="40.70198825704903" lon="14.708672970009657"><ele>205.0</ele><time>2026-05-02T10:09:58.777Z</time></trkpt><trkpt lat="40.70210755031699" lon="14.708629444039287"><ele>205.0</ele><time>2026-05-02T10:10:00.777Z</time></trkpt><trkpt lat="40.70217503140649" lon="14.70860563307335"><ele>205.0</ele><time>2026-05-02T10:10:01.777Z</time></trkpt><trkpt lat="40.70229594510413" lon="14.70856385198066"><ele>205.0</ele><time>2026-05-02T10:10:03.777Z</time></trkpt><trkpt lat="40.70241493050331" lon="14.70852367828756"><ele>205.0</ele><time>2026-05-02T10:10:05.777Z</time></trkpt><trkpt lat="40.70251530521896" lon="14.708490815001221"><ele>205.0</ele><time>2026-05-02T10:10:07.777Z</time></trkpt><trkpt lat="40.70262224078969" lon="14.708455803672178"><ele>205.0</ele><time>2026-05-02T10:10:09.777Z</time></trkpt><trkpt lat="40.702688701045" lon="14.7084340442785"><ele>205.0</ele><time>2026-05-02T10:10:10.777Z</time></trkpt><trkpt lat="40.702808406427145" lon="14.7083942880042"><ele>204.71428571428572</ele><time>2026-05-02T10:10:12.776Z</time></trkpt><trkpt lat="40.70288340489114" lon="14.70836907078418"><ele>204.42857142857142</ele><time>2026-05-02T10:10:13.776Z</time></trkpt><trkpt lat="40.70295920096775" lon="14.708341119961993"><ele>204.14285714285714</ele><time>2026-05-02T10:10:14.776Z</time></trkpt><trkpt lat="40.70303643116596" lon="14.708311346264615"><ele>203.85714285714286</ele><time>2026-05-02T10:10:15.776Z</time></trkpt><trkpt lat="40.703098685348486" lon="14.70828502256263"><ele>203.57142857142856</ele><time>2026-05-02T10:10:16.776Z</time></trkpt><trkpt lat="40.7031650243896" lon="14.70825235422917"><ele>203.28571428571428</ele><time>2026-05-02T10:10:17.776Z</time></trkpt><trkpt lat="40.70321640052992" lon="14.708203361012005"><ele>203.0</ele><time>2026-05-02T10:10:18.776Z</time></trkpt><trkpt lat="40.70331345436969" lon="14.708166814274684"><ele>203.00000000000003</ele><time>2026-05-02T10:10:20.776Z</time></trkpt><trkpt lat="40.70338174250055" lon="14.708109378500508"><ele>203.0</ele><time>2026-05-02T10:10:22.776Z</time></trkpt><trkpt lat="40.7035007751004" lon="14.708091850477642"><ele>203.0</ele><time>2026-05-02T10:10:24.776Z</time></trkpt><trkpt lat="40.70357414017975" lon="14.708038604571216"><ele>203.0</ele><time>2026-05-02T10:10:25.776Z</time></trkpt><trkpt lat="40.70362147338673" lon="14.707937471093507"><ele>203.00000000000003</ele><time>2026-05-02T10:10:26.776Z</time></trkpt><trkpt lat="40.70368949162026" lon="14.707966762709583"><ele>203.0</ele><time>2026-05-02T10:10:27.776Z</time></trkpt><trkpt lat="40.7037504767632" lon="14.707939763275679"><ele>202.2</ele><time>2026-05-02T10:10:28.776Z</time></trkpt><trkpt lat="40.70381881395369" lon="14.707909702592652"><ele>201.4</ele><time>2026-05-02T10:10:29.776Z</time></trkpt><trkpt lat="40.70389619882493" lon="14.707875662104106"><ele>200.6</ele><time>2026-05-02T10:10:30.776Z</time></trkpt><trkpt lat="40.703989642610416" lon="14.707841488928835"><ele>199.79999999999998</ele><time>2026-05-02T10:10:31.775Z</time></trkpt><trkpt lat="40.70409957765927" lon="14.707798110511213"><ele>199.0</ele><time>2026-05-02T10:10:32.775Z</time></trkpt><trkpt lat="40.70420243770916" lon="14.707758575525045"><ele>199.16666666666666</ele><time>2026-05-02T10:10:33.775Z</time></trkpt><trkpt lat="40.70428668971121" lon="14.707726192655116"><ele>199.33333333333331</ele><time>2026-05-02T10:10:34.775Z</time></trkpt><trkpt lat="40.70436516040729" lon="14.707696031892251"><ele>199.5</ele><time>2026-05-02T10:10:35.775Z</time></trkpt><trkpt lat="40.70444232000587" lon="14.707666375026712"><ele>199.66666666666669</ele><time>2026-05-02T10:10:36.775Z</time></trkpt><trkpt lat="40.70451423506668" lon="14.707638722284745"><ele>199.83333333333334</ele><time>2026-05-02T10:10:37.775Z</time></trkpt><trkpt lat="40.70458449478361" lon="14.707612839223062"><ele>200.0</ele><time>2026-05-02T10:10:38.775Z</time></trkpt><trkpt lat="40.7046553918952" lon="14.707588366029151"><ele>199.14285714285717</ele><time>2026-05-02T10:10:39.775Z</time></trkpt><trkpt lat="40.704724577314956" lon="14.707565230258517"><ele>198.28571428571428</ele><time>2026-05-02T10:10:40.775Z</time></trkpt><trkpt lat="40.70479350380594" lon="14.707542822065582"><ele>197.42857142857144</ele><time>2026-05-02T10:10:41.775Z</time></trkpt><trkpt lat="40.7048667311269" lon="14.707519015647812"><ele>196.57142857142858</ele><time>2026-05-02T10:10:42.775Z</time></trkpt><trkpt lat="40.70493860911794" lon="14.707495410980835"><ele>195.71428571428572</ele><time>2026-05-02T10:10:43.775Z</time></trkpt><trkpt lat="40.70500792803409" lon="14.707472370879502"><ele>194.85714285714286</ele><time>2026-05-02T10:10:44.775Z</time></trkpt><trkpt lat="40.70507592030966" lon="14.707449771977299"><ele>194.0</ele><time>2026-05-02T10:10:45.775Z</time></trkpt><trkpt lat="40.7051462425483" lon="14.7074285852602"><ele>194.0</ele><time>2026-05-02T10:10:46.775Z</time></trkpt><trkpt lat="40.705210402402464" lon="14.707407293610052"><ele>194.0</ele><time>2026-05-02T10:10:47.775Z</time></trkpt><trkpt lat="40.705274637291275" lon="14.70738599947893"><ele>194.0</ele><time>2026-05-02T10:10:48.775Z</time></trkpt><trkpt lat="40.70533897763931" lon="14.707364701382632"><ele>194.0</ele><time>2026-05-02T10:10:49.775Z</time></trkpt><trkpt lat="40.70540915353472" lon="14.707341471574994"><ele>194.0</ele><time>2026-05-02T10:10:50.775Z</time></trkpt><trkpt lat="40.70547525506071" lon="14.707319590496118"><ele>194.0</ele><time>2026-05-02T10:10:51.774Z</time></trkpt><trkpt lat="40.70554212864623" lon="14.707297375845116"><ele>194.0</ele><time>2026-05-02T10:10:52.774Z</time></trkpt><trkpt lat="40.70560806978947" lon="14.707275467040708"><ele>193.79999999999998</ele><time>2026-05-02T10:10:53.774Z</time></trkpt><trkpt lat="40.70567024878656" lon="14.707255063267999"><ele>193.6</ele><time>2026-05-02T10:10:54.774Z</time></trkpt><trkpt lat="40.705785957739515" lon="14.707217389642533"><ele>193.4</ele><time>2026-05-02T10:10:56.774Z</time></trkpt><trkpt lat="40.7058942611311" lon="14.707182127208878"><ele>193.2</ele><time>2026-05-02T10:10:58.774Z</time></trkpt><trkpt lat="40.705982148449664" lon="14.707153512004965"><ele>193.0</ele><time>2026-05-02T10:11:00.774Z</time></trkpt><trkpt lat="40.70606398424074" lon="14.707126867140024"><ele>192.8</ele><time>2026-05-02T10:11:02.774Z</time></trkpt><trkpt lat="40.706164328194916" lon="14.707094196188429"><ele>192.60000000000002</ele><time>2026-05-02T10:11:04.774Z</time></trkpt><trkpt lat="40.70626918046612" lon="14.7070600892912"><ele>192.39999999999998</ele><time>2026-05-02T10:11:06.774Z</time></trkpt><trkpt lat="40.70639285344833" lon="14.707019883587524"><ele>192.2</ele><time>2026-05-02T10:11:08.774Z</time></trkpt><trkpt lat="40.706460741846996" lon="14.706997656661011"><ele>192.0</ele><time>2026-05-02T10:11:09.774Z</time></trkpt><trkpt lat="40.70654012784171" lon="14.70697159944741"><ele>192.0</ele><time>2026-05-02T10:11:10.774Z</time></trkpt><trkpt lat="40.706620185392936" lon="14.706945321827883"><ele>192.0</ele><time>2026-05-02T10:11:11.774Z</time></trkpt><trkpt lat="40.70669863125759" lon="14.706920748697794"><ele>192.0</ele><time>2026-05-02T10:11:12.773Z</time></trkpt><trkpt lat="40.70677239277921" lon="14.706898004514406"><ele>192.0</ele><time>2026-05-02T10:11:13.773Z</time></trkpt><trkpt lat="40.70683476530655" lon="14.706878772107304"><ele>192.0</ele><time>2026-05-02T10:11:14.773Z</time></trkpt><trkpt lat="40.70695534303612" lon="14.706841668326984"><ele>192.0</ele><time>2026-05-02T10:11:16.773Z</time></trkpt><trkpt lat="40.70702868873281" lon="14.706819291108527"><ele>192.16666666666666</ele><time>2026-05-02T10:11:17.773Z</time></trkpt><trkpt lat="40.70709933263046" lon="14.706797753677812"><ele>192.33333333333331</ele><time>2026-05-02T10:11:18.773Z</time></trkpt><trkpt lat="40.707165394982454" lon="14.706777613104899"><ele>192.5</ele><time>2026-05-02T10:11:19.773Z</time></trkpt><trkpt lat="40.70726292268538" lon="14.70674530122671"><ele>192.66666666666666</ele><time>2026-05-02T10:11:21.773Z</time></trkpt><trkpt lat="40.70734094126799" lon="14.706718003489064"><ele>192.83333333333331</ele><time>2026-05-02T10:11:24.773Z</time></trkpt><trkpt lat="40.707418601329415" lon="14.706689902792057"><ele>193.0</ele><time>2026-05-02T10:12:18.794Z</time></trkpt><trkpt lat="40.707523301927985" lon="14.706652017703991"><ele>193.0</ele><time>2026-05-02T10:12:20.794Z</time></trkpt><trkpt lat="40.70759831014997" lon="14.706624876559818"><ele>193.0</ele><time>2026-05-02T10:12:21.794Z</time></trkpt><trkpt lat="40.70769345141544" lon="14.706592565002374"><ele>193.0</ele><time>2026-05-02T10:12:22.794Z</time></trkpt><trkpt lat="40.707800731254906" lon="14.706557088565829"><ele>193.0</ele><time>2026-05-02T10:12:23.795Z</time></trkpt><trkpt lat="40.70790722844452" lon="14.706522759582853"><ele>193.0</ele><time>2026-05-02T10:12:24.795Z</time></trkpt><trkpt lat="40.70801044371134" lon="14.70648955400855"><ele>192.4</ele><time>2026-05-02T10:12:25.795Z</time></trkpt><trkpt lat="40.70808917679592" lon="14.706387979742173"><ele>191.8</ele><time>2026-05-02T10:12:26.795Z</time></trkpt><trkpt lat="40.70817562694069" lon="14.706359053511433"><ele>191.2</ele><time>2026-05-02T10:12:27.795Z</time></trkpt><trkpt lat="40.708256814712314" lon="14.706334965777446"><ele>190.6</ele><time>2026-05-02T10:12:28.795Z</time></trkpt><trkpt lat="40.708343183681755" lon="14.706303990367752"><ele>190.0</ele><time>2026-05-02T10:12:29.795Z</time></trkpt><trkpt lat="40.708432521588364" lon="14.706273462499064"><ele>190.0</ele><time>2026-05-02T10:12:30.795Z</time></trkpt><trkpt lat="40.708510176652545" lon="14.706247092180327"><ele>190.0</ele><time>2026-05-02T10:12:31.795Z</time></trkpt><trkpt lat="40.70859403649905" lon="14.706227267235263"><ele>190.0</ele><time>2026-05-02T10:12:32.795Z</time></trkpt><trkpt lat="40.70868239505517" lon="14.706207681520851"><ele>190.0</ele><time>2026-05-02T10:12:33.795Z</time></trkpt><trkpt lat="40.70877958113834" lon="14.706242108943504"><ele>190.0</ele><time>2026-05-02T10:12:34.795Z</time></trkpt><trkpt lat="40.708873723066866" lon="14.706213042963647"><ele>190.0</ele><time>2026-05-02T10:12:35.795Z</time></trkpt><trkpt lat="40.70897161341839" lon="14.706179935339273"><ele>190.0</ele><time>2026-05-02T10:12:36.795Z</time></trkpt><trkpt lat="40.709071287307715" lon="14.70614658077419"><ele>190.0</ele><time>2026-05-02T10:12:37.795Z</time></trkpt><trkpt lat="40.7091732925736" lon="14.706112463384192"><ele>190.0</ele><time>2026-05-02T10:12:38.795Z</time></trkpt><trkpt lat="40.709271293968" lon="14.706079685137556"><ele>190.0</ele><time>2026-05-02T10:12:39.795Z</time></trkpt><trkpt lat="40.70938570468247" lon="14.706042180893071"><ele>189.5</ele><time>2026-05-02T10:12:40.795Z</time></trkpt><trkpt lat="40.70950386196266" lon="14.706004245046072"><ele>189.0</ele><time>2026-05-02T10:12:41.795Z</time></trkpt><trkpt lat="40.70961779544262" lon="14.70596766530425"><ele>188.5</ele><time>2026-05-02T10:12:42.795Z</time></trkpt><trkpt lat="40.709731782537496" lon="14.705931020612057"><ele>188.0</ele><time>2026-05-02T10:12:43.795Z</time></trkpt><trkpt lat="40.70984748294213" lon="14.705893630478831"><ele>188.0</ele><time>2026-05-02T10:12:44.795Z</time></trkpt><trkpt lat="40.709950318935014" lon="14.705798607462754"><ele>188.0</ele><time>2026-05-02T10:12:45.795Z</time></trkpt><trkpt lat="40.71006498443249" lon="14.70576071218283"><ele>188.0</ele><time>2026-05-02T10:12:46.795Z</time></trkpt><trkpt lat="40.71017864790072" lon="14.705729052485715"><ele>188.0</ele><time>2026-05-02T10:12:47.795Z</time></trkpt><trkpt lat="40.710289594918834" lon="14.705691746286522"><ele>187.25</ele><time>2026-05-02T10:12:48.795Z</time></trkpt><trkpt lat="40.71040779077866" lon="14.705653838052957"><ele>186.5</ele><time>2026-05-02T10:12:49.795Z</time></trkpt><trkpt lat="40.710536649684926" lon="14.705615482460823"><ele>185.75</ele><time>2026-05-02T10:12:50.795Z</time></trkpt><trkpt lat="40.71067386766126" lon="14.705622875095811"><ele>185.0</ele><time>2026-05-02T10:12:51.795Z</time></trkpt><trkpt lat="40.71081356359921" lon="14.70557716886758"><ele>185.0</ele><time>2026-05-02T10:12:52.795Z</time></trkpt><trkpt lat="40.71094881695807" lon="14.705533534032819"><ele>185.0</ele><time>2026-05-02T10:12:53.795Z</time></trkpt><trkpt lat="40.71109224594845" lon="14.705487261646914"><ele>185.0</ele><time>2026-05-02T10:12:54.795Z</time></trkpt><trkpt lat="40.711240099558616" lon="14.705437323887656"><ele>185.0</ele><time>2026-05-02T10:12:55.795Z</time></trkpt><trkpt lat="40.71139145773714" lon="14.705386284518156"><ele>184.0</ele><time>2026-05-02T10:12:56.795Z</time></trkpt><trkpt lat="40.71154073031366" lon="14.705334378227786"><ele>183.0</ele><time>2026-05-02T10:12:57.795Z</time></trkpt><trkpt lat="40.71167354385205" lon="14.705284423650236"><ele>182.0</ele><time>2026-05-02T10:12:58.795Z</time></trkpt><trkpt lat="40.711785029675255" lon="14.705230569444193"><ele>181.0</ele><time>2026-05-02T10:12:59.795Z</time></trkpt><trkpt lat="40.71187085417326" lon="14.70518410784313"><ele>180.33333333333334</ele><time>2026-05-02T10:13:00.795Z</time></trkpt><trkpt lat="40.711948134642405" lon="14.70514139104226"><ele>179.66666666666669</ele><time>2026-05-02T10:13:01.795Z</time></trkpt><trkpt lat="40.71201302413535" lon="14.705103477368237"><ele>179.0</ele><time>2026-05-02T10:13:02.795Z</time></trkpt><trkpt lat="40.712080235120695" lon="14.70506339218738"><ele>178.33333333333334</ele><time>2026-05-02T10:13:03.795Z</time></trkpt><trkpt lat="40.71216658549031" lon="14.705011892043991"><ele>177.66666666666666</ele><time>2026-05-02T10:13:04.795Z</time></trkpt><trkpt lat="40.71226777540314" lon="14.7049484267631"><ele>177.0</ele><time>2026-05-02T10:13:05.795Z</time></trkpt><trkpt lat="40.71237824500453" lon="14.70486856723971"><ele>177.0</ele><time>2026-05-02T10:13:06.795Z</time></trkpt><trkpt lat="40.71249421207907" lon="14.704780289985049"><ele>177.0</ele><time>2026-05-02T10:13:07.794Z</time></trkpt><trkpt lat="40.71261016803259" lon="14.704687288071248"><ele>177.0</ele><time>2026-05-02T10:13:08.794Z</time></trkpt><trkpt lat="40.712718181989146" lon="14.704596630176535"><ele>177.0</ele><time>2026-05-02T10:13:09.794Z</time></trkpt><trkpt lat="40.71281741017186" lon="14.704511098775368"><ele>177.0</ele><time>2026-05-02T10:13:10.794Z</time></trkpt><trkpt lat="40.71290188859389" lon="14.704437285415182"><ele>177.0</ele><time>2026-05-02T10:13:11.794Z</time></trkpt><trkpt lat="40.71298085064967" lon="14.704367008238464"><ele>177.0</ele><time>2026-05-02T10:13:12.794Z</time></trkpt><trkpt lat="40.71304158840076" lon="14.70428611522222"><ele>177.0</ele><time>2026-05-02T10:13:13.794Z</time></trkpt><trkpt lat="40.71311755183245" lon="14.70423203233999"><ele>177.0</ele><time>2026-05-02T10:13:14.794Z</time></trkpt><trkpt lat="40.713189816184176" lon="14.704172183586355"><ele>176.83333333333334</ele><time>2026-05-02T10:13:15.794Z</time></trkpt><trkpt lat="40.71326166818544" lon="14.704111310143833"><ele>176.66666666666666</ele><time>2026-05-02T10:13:16.794Z</time></trkpt><trkpt lat="40.713333767016096" lon="14.704048356516484"><ele>176.5</ele><time>2026-05-02T10:13:17.794Z</time></trkpt><trkpt lat="40.71340240715233" lon="14.703982833446476"><ele>176.33333333333331</ele><time>2026-05-02T10:13:18.794Z</time></trkpt><trkpt lat="40.71346276220224" lon="14.703918611228554"><ele>176.16666666666666</ele><time>2026-05-02T10:13:19.794Z</time></trkpt><trkpt lat="40.7135175905141" lon="14.703874605508345"><ele>176.0</ele><time>2026-05-02T10:13:20.794Z</time></trkpt><trkpt lat="40.713589204348544" lon="14.703805245611548"><ele>175.83333333333331</ele><time>2026-05-02T10:13:22.794Z</time></trkpt><trkpt lat="40.71365563212428" lon="14.703723017269514"><ele>175.66666666666666</ele><time>2026-05-02T10:13:24.794Z</time></trkpt><trkpt lat="40.71373407903618" lon="14.703691774823461"><ele>175.5</ele><time>2026-05-02T10:13:25.794Z</time></trkpt><trkpt lat="40.71380645288958" lon="14.703627054240355"><ele>175.33333333333334</ele><time>2026-05-02T10:13:26.794Z</time></trkpt><trkpt lat="40.713873392357975" lon="14.703567193422"><ele>175.16666666666669</ele><time>2026-05-02T10:13:27.794Z</time></trkpt><trkpt lat="40.713917287503385" lon="14.703485828059906"><ele>175.0</ele><time>2026-05-02T10:13:28.794Z</time></trkpt><trkpt lat="40.713975374618116" lon="14.703435355510685"><ele>175.0</ele><time>2026-05-02T10:13:29.794Z</time></trkpt><trkpt lat="40.714057126959325" lon="14.703334935942218"><ele>175.0</ele><time>2026-05-02T10:13:31.793Z</time></trkpt><trkpt lat="40.714116011133534" lon="14.703265557492728"><ele>175.0</ele><time>2026-05-02T10:13:33.793Z</time></trkpt><trkpt lat="40.71418897649406" lon="14.703176288267025"><ele>175.0</ele><time>2026-05-02T10:13:35.793Z</time></trkpt><trkpt lat="40.714201663680754" lon="14.703052782700812"><ele>175.0</ele><time>2026-05-02T10:13:37.793Z</time></trkpt><trkpt lat="40.71415100903378" lon="14.70296787838122"><ele>175.0</ele><time>2026-05-02T10:13:39.793Z</time></trkpt><trkpt lat="40.71405058950776" lon="14.702893486065229"><ele>175.0</ele><time>2026-05-02T10:13:41.793Z</time></trkpt><trkpt lat="40.71395983948953" lon="14.70281182276287"><ele>175.0</ele><time>2026-05-02T10:13:43.793Z</time></trkpt><trkpt lat="40.71389056579531" lon="14.702768869201511"><ele>175.0</ele><time>2026-05-02T10:13:45.793Z</time></trkpt><trkpt lat="40.71395207395905" lon="14.702640670470219"><ele>175.0</ele><time>2026-05-02T10:13:46.793Z</time></trkpt><trkpt lat="40.71401645498741" lon="14.702535449967195"><ele>175.0</ele><time>2026-05-02T10:13:48.793Z</time></trkpt><trkpt lat="40.71405385513748" lon="14.702449359174325"><ele>175.0</ele><time>2026-05-02T10:13:50.793Z</time></trkpt><trkpt lat="40.71400061032559" lon="14.7025669496805"><ele>175.0</ele><time>2026-05-02T10:13:55.796Z</time></trkpt><trkpt lat="40.71403602755511" lon="14.702760326130015"><ele>175.0</ele><time>2026-05-02T10:13:57.796Z</time></trkpt><trkpt lat="40.71408712208217" lon="14.70281264405471"><ele>175.0</ele><time>2026-05-02T10:13:58.796Z</time></trkpt><trkpt lat="40.71415819667723" lon="14.702869088299085"><ele>175.0</ele><time>2026-05-02T10:14:00.795Z</time></trkpt><trkpt lat="40.714225123410856" lon="14.702886402415086"><ele>175.0</ele><time>2026-05-02T10:14:04.796Z</time></trkpt><trkpt lat="40.71429714898363" lon="14.7028289057953"><ele>175.0</ele><time>2026-05-02T10:14:06.795Z</time></trkpt><trkpt lat="40.71438130066408" lon="14.702782682854851"><ele>175.0</ele><time>2026-05-02T10:14:08.795Z</time></trkpt><trkpt lat="40.71446184437311" lon="14.702737768151692"><ele>175.0</ele><time>2026-05-02T10:14:11.795Z</time></trkpt><trkpt lat="40.71450984654622" lon="14.702679249930807"><ele>175.0</ele><time>2026-05-02T10:14:13.795Z</time></trkpt><trkpt lat="40.71446930781635" lon="14.702575533203325"><ele>173.5</ele><time>2026-05-02T10:14:14.795Z</time></trkpt><trkpt lat="40.71447475777536" lon="14.702464115995843"><ele>172.0</ele><time>2026-05-02T10:15:18.792Z</time></trkpt><trkpt lat="40.71453930154906" lon="14.702656253662184"><ele>170.5</ele><time>2026-05-02T10:15:32.791Z</time></trkpt><trkpt lat="40.71443114238368" lon="14.702509426548087"><ele>169.0</ele><time>2026-05-02T10:15:38.791Z</time></trkpt><trkpt lat="40.714530837668484" lon="14.702662861668765"><ele>169.0</ele><time>2026-05-02T10:15:56.79Z</time></trkpt><trkpt lat="40.71442895111502" lon="14.702579477981297"><ele>169.0</ele><time>2026-05-02T10:17:08.791Z</time></trkpt><trkpt lat="40.71441498500936" lon="14.702684130508706"><ele>169.0</ele><time>2026-05-02T10:18:08.812Z</time></trkpt><trkpt lat="40.71443547936621" lon="14.702599995539341"><ele>169.0</ele><time>2026-05-02T10:22:10.777Z</time></trkpt><trkpt lat="40.71448802119911" lon="14.70251485861123"><ele>169.0</ele><time>2026-05-02T10:22:13.789Z</time></trkpt><trkpt lat="40.714412606127105" lon="14.702534614384302"><ele>169.0</ele><time>2026-05-02T10:30:10.803Z</time></trkpt><trkpt lat="40.714368999378394" lon="14.702607897128427"><ele>170.0</ele><time>2026-05-02T10:30:12.803Z</time></trkpt><trkpt lat="40.71435597402745" lon="14.702697587502561"><ele>171.0</ele><time>2026-05-02T10:30:15.802Z</time></trkpt><trkpt lat="40.71427321211629" lon="14.702813348857845"><ele>172.0</ele><time>2026-05-02T10:30:17.802Z</time></trkpt><trkpt lat="40.71421000704429" lon="14.702804463269104"><ele>173.0</ele><time>2026-05-02T10:30:18.802Z</time></trkpt><trkpt lat="40.71411988891998" lon="14.702767584749528"><ele>174.0</ele><time>2026-05-02T10:30:20.802Z</time></trkpt><trkpt lat="40.71407301149643" lon="14.702647422471564"><ele>174.0</ele><time>2026-05-02T10:30:22.802Z</time></trkpt><trkpt lat="40.71410842759578" lon="14.702567322994684"><ele>174.0</ele><time>2026-05-02T10:30:24.802Z</time></trkpt><trkpt lat="40.71412659574747" lon="14.702458072866571"><ele>174.0</ele><time>2026-05-02T10:30:27.802Z</time></trkpt><trkpt lat="40.7140868443623" lon="14.702386478602364"><ele>174.0</ele><time>2026-05-02T10:30:29.802Z</time></trkpt><trkpt lat="40.71398877399392" lon="14.702517297997314"><ele>174.0</ele><time>2026-05-02T10:30:31.802Z</time></trkpt><trkpt lat="40.713940311970525" lon="14.70261178412328"><ele>174.0</ele><time>2026-05-02T10:30:32.802Z</time></trkpt><trkpt lat="40.71390604973688" lon="14.702716733935754"><ele>174.0</ele><time>2026-05-02T10:30:34.802Z</time></trkpt><trkpt lat="40.713812469850176" lon="14.702678607927659"><ele>174.0</ele><time>2026-05-02T10:30:38.805Z</time></trkpt><trkpt lat="40.71373055122173" lon="14.702606113480686"><ele>174.0</ele><time>2026-05-02T10:30:40.805Z</time></trkpt><trkpt lat="40.71371544209462" lon="14.702508623923908"><ele>174.0</ele><time>2026-05-02T10:30:41.805Z</time></trkpt><trkpt lat="40.71361667187716" lon="14.702431755313052"><ele>174.0</ele><time>2026-05-02T10:30:43.806Z</time></trkpt><trkpt lat="40.713534654315936" lon="14.702422462276541"><ele>175.39999999999998</ele><time>2026-05-02T10:30:44.806Z</time></trkpt><trkpt lat="40.71343991451571" lon="14.702408625874162"><ele>176.8</ele><time>2026-05-02T10:30:45.805Z</time></trkpt><trkpt lat="40.71335055255331" lon="14.702371430487414"><ele>178.2</ele><time>2026-05-02T10:30:46.805Z</time></trkpt><trkpt lat="40.713271319332016" lon="14.702314663914757"><ele>179.60000000000002</ele><time>2026-05-02T10:30:47.805Z</time></trkpt><trkpt lat="40.713181004696146" lon="14.702239249651157"><ele>181.0</ele><time>2026-05-02T10:30:48.805Z</time></trkpt><trkpt lat="40.71308464837109" lon="14.702151152879901"><ele>181.0</ele><time>2026-05-02T10:30:49.805Z</time></trkpt><trkpt lat="40.71299665109264" lon="14.702060743201754"><ele>181.0</ele><time>2026-05-02T10:30:50.805Z</time></trkpt><trkpt lat="40.71292118912432" lon="14.701977347040964"><ele>181.0</ele><time>2026-05-02T10:30:51.805Z</time></trkpt><trkpt lat="40.712841982578794" lon="14.70190017088396"><ele>181.0</ele><time>2026-05-02T10:30:52.805Z</time></trkpt><trkpt lat="40.71276511939202" lon="14.701830917857883"><ele>181.0</ele><time>2026-05-02T10:30:53.805Z</time></trkpt><trkpt lat="40.71269010384992" lon="14.701764704038439"><ele>181.8</ele><time>2026-05-02T10:30:54.805Z</time></trkpt><trkpt lat="40.71261240753604" lon="14.701699664527995"><ele>182.60000000000002</ele><time>2026-05-02T10:30:55.805Z</time></trkpt><trkpt lat="40.71252751332816" lon="14.701634004398914"><ele>183.4</ele><time>2026-05-02T10:30:56.805Z</time></trkpt><trkpt lat="40.712432778760785" lon="14.70155463679287"><ele>184.2</ele><time>2026-05-02T10:30:57.805Z</time></trkpt><trkpt lat="40.71234625713945" lon="14.701484542851778"><ele>185.0</ele><time>2026-05-02T10:30:58.805Z</time></trkpt><trkpt lat="40.71225681821677" lon="14.701404867968042"><ele>185.0</ele><time>2026-05-02T10:30:59.805Z</time></trkpt><trkpt lat="40.71214708006084" lon="14.701320321271671"><ele>185.0</ele><time>2026-05-02T10:31:00.805Z</time></trkpt><trkpt lat="40.7120272685531" lon="14.701231160463502"><ele>185.0</ele><time>2026-05-02T10:31:01.805Z</time></trkpt><trkpt lat="40.71187997538126" lon="14.701116065755974"><ele>185.0</ele><time>2026-05-02T10:31:02.805Z</time></trkpt><trkpt lat="40.71172804319699" lon="14.700991251751931"><ele>186.25</ele><time>2026-05-02T10:31:03.805Z</time></trkpt><trkpt lat="40.711589171205475" lon="14.700879805774774"><ele>187.5</ele><time>2026-05-02T10:31:04.805Z</time></trkpt><trkpt lat="40.71146521680326" lon="14.700767737042256"><ele>188.75</ele><time>2026-05-02T10:31:05.805Z</time></trkpt><trkpt lat="40.71136106157375" lon="14.700672243731557"><ele>190.0</ele><time>2026-05-02T10:31:06.805Z</time></trkpt><trkpt lat="40.711247127749814" lon="14.700575231975051"><ele>190.0</ele><time>2026-05-02T10:31:08.804Z</time></trkpt><trkpt lat="40.71120664195549" lon="14.700425310997035"><ele>190.0</ele><time>2026-05-02T10:31:10.804Z</time></trkpt><trkpt lat="40.711288699402836" lon="14.700253717230309"><ele>190.0</ele><time>2026-05-02T10:31:12.804Z</time></trkpt><trkpt lat="40.71137038336611" lon="14.700169884234139"><ele>190.0</ele><time>2026-05-02T10:31:13.804Z</time></trkpt><trkpt lat="40.711464120716485" lon="14.700083556724675"><ele>190.5</ele><time>2026-05-02T10:31:14.804Z</time></trkpt><trkpt lat="40.71154409990186" lon="14.699997623942853"><ele>191.0</ele><time>2026-05-02T10:31:15.804Z</time></trkpt><trkpt lat="40.711615152991136" lon="14.699928885294959"><ele>191.5</ele><time>2026-05-02T10:31:16.804Z</time></trkpt><trkpt lat="40.71166515503608" lon="14.699865430095887"><ele>192.0</ele><time>2026-05-02T10:31:17.804Z</time></trkpt><trkpt lat="40.71172551575904" lon="14.699780166968202"><ele>192.49999999999997</ele><time>2026-05-02T10:31:19.804Z</time></trkpt><trkpt lat="40.71177087183351" lon="14.699720776518808"><ele>193.0</ele><time>2026-05-02T10:31:23.804Z</time></trkpt><trkpt lat="40.71181143000587" lon="14.699622904597932"><ele>193.0</ele><time>2026-05-02T10:31:25.804Z</time></trkpt><trkpt lat="40.71179882865643" lon="14.699488503694162"><ele>193.0</ele><time>2026-05-02T10:31:27.804Z</time></trkpt><trkpt lat="40.711745936732314" lon="14.69942516631368"><ele>193.0</ele><time>2026-05-02T10:31:28.804Z</time></trkpt><trkpt lat="40.711712323724" lon="14.699304210552862"><ele>193.0</ele><time>2026-05-02T10:31:29.804Z</time></trkpt><trkpt lat="40.71164258367229" lon="14.699156542459994"><ele>193.0</ele><time>2026-05-02T10:31:30.804Z</time></trkpt><trkpt lat="40.71156170366073" lon="14.698986400701736"><ele>193.75</ele><time>2026-05-02T10:31:31.804Z</time></trkpt><trkpt lat="40.711485015064014" lon="14.698821277520409"><ele>194.5</ele><time>2026-05-02T10:31:32.803Z</time></trkpt><trkpt lat="40.71142310991557" lon="14.698683053241423"><ele>195.25</ele><time>2026-05-02T10:31:33.803Z</time></trkpt><trkpt lat="40.71135349402581" lon="14.698560290009636"><ele>196.0</ele><time>2026-05-02T10:31:34.803Z</time></trkpt><trkpt lat="40.71130803520758" lon="14.698442553626574"><ele>195.99999999999997</ele><time>2026-05-02T10:31:35.803Z</time></trkpt><trkpt lat="40.71126983203999" lon="14.698340282579764"><ele>196.0</ele><time>2026-05-02T10:31:36.803Z</time></trkpt><trkpt lat="40.71123845019714" lon="14.698257421098594"><ele>196.0</ele><time>2026-05-02T10:31:37.803Z</time></trkpt><trkpt lat="40.71119920403871" lon="14.69817828413271"><ele>196.0</ele><time>2026-05-02T10:31:38.803Z</time></trkpt><trkpt lat="40.71115317283328" lon="14.698077732518065"><ele>195.99999999999997</ele><time>2026-05-02T10:31:39.803Z</time></trkpt><trkpt lat="40.7111347746146" lon="14.697974053877473"><ele>196.0</ele><time>2026-05-02T10:31:40.803Z</time></trkpt><trkpt lat="40.71114152070163" lon="14.697872453509577"><ele>196.0</ele><time>2026-05-02T10:31:41.803Z</time></trkpt><trkpt lat="40.71118831424645" lon="14.697769457090235"><ele>196.0</ele><time>2026-05-02T10:31:42.803Z</time></trkpt><trkpt lat="40.7112154339118" lon="14.697652962382358"><ele>196.0</ele><time>2026-05-02T10:31:43.803Z</time></trkpt><trkpt lat="40.71123662485947" lon="14.697544657809361"><ele>196.0</ele><time>2026-05-02T10:31:44.803Z</time></trkpt><trkpt lat="40.71123433908013" lon="14.697447250641254"><ele>196.0</ele><time>2026-05-02T10:31:45.803Z</time></trkpt><trkpt lat="40.71132296016494" lon="14.69732830216596"><ele>196.75</ele><time>2026-05-02T10:31:47.803Z</time></trkpt><trkpt lat="40.71141310341313" lon="14.697272873331634"><ele>197.5</ele><time>2026-05-02T10:31:48.803Z</time></trkpt><trkpt lat="40.71150130724181" lon="14.69719306936504"><ele>198.25</ele><time>2026-05-02T10:31:49.803Z</time></trkpt><trkpt lat="40.71160532979369" lon="14.697106805108076"><ele>199.0</ele><time>2026-05-02T10:31:50.803Z</time></trkpt><trkpt lat="40.711711953794975" lon="14.69701737379537"><ele>199.0</ele><time>2026-05-02T10:31:51.803Z</time></trkpt><trkpt lat="40.71181470463517" lon="14.696963685876124"><ele>199.0</ele><time>2026-05-02T10:31:52.803Z</time></trkpt><trkpt lat="40.71188358839763" lon="14.696893197383691"><ele>199.0</ele><time>2026-05-02T10:31:53.803Z</time></trkpt><trkpt lat="40.711924869675876" lon="14.696811284557297"><ele>199.0</ele><time>2026-05-02T10:31:54.803Z</time></trkpt><trkpt lat="40.71194975768925" lon="14.696700546836482"><ele>199.0</ele><time>2026-05-02T10:31:55.803Z</time></trkpt><trkpt lat="40.711973530414625" lon="14.696566128021452"><ele>198.0</ele><time>2026-05-02T10:31:56.802Z</time></trkpt><trkpt lat="40.71200899240283" lon="14.696428213504385"><ele>197.0</ele><time>2026-05-02T10:31:57.802Z</time></trkpt><trkpt lat="40.712070889174115" lon="14.696308325164017"><ele>196.0</ele><time>2026-05-02T10:31:58.802Z</time></trkpt><trkpt lat="40.71214407555029" lon="14.69620817786271"><ele>195.0</ele><time>2026-05-02T10:31:59.802Z</time></trkpt><trkpt lat="40.71225293945948" lon="14.696097520661974"><ele>195.66666666666669</ele><time>2026-05-02T10:32:00.802Z</time></trkpt><trkpt lat="40.712377451645125" lon="14.69596993987409"><ele>196.33333333333334</ele><time>2026-05-02T10:32:01.802Z</time></trkpt><trkpt lat="40.712514439015656" lon="14.695828062354094"><ele>197.0</ele><time>2026-05-02T10:32:02.802Z</time></trkpt><trkpt lat="40.71264969408814" lon="14.695697250539487"><ele>195.8</ele><time>2026-05-02T10:32:03.802Z</time></trkpt><trkpt lat="40.71275836420322" lon="14.695589773317742"><ele>194.6</ele><time>2026-05-02T10:32:04.802Z</time></trkpt><trkpt lat="40.71283713254036" lon="14.695501134646554"><ele>193.4</ele><time>2026-05-02T10:32:05.802Z</time></trkpt><trkpt lat="40.71288499012944" lon="14.695429514535595"><ele>192.20000000000002</ele><time>2026-05-02T10:32:06.802Z</time></trkpt><trkpt lat="40.71291466784507" lon="14.695293872522681"><ele>191.0</ele><time>2026-05-02T10:32:08.802Z</time></trkpt><trkpt lat="40.71287066903889" lon="14.695199400289411"><ele>191.0</ele><time>2026-05-02T10:32:09.802Z</time></trkpt><trkpt lat="40.712813536954165" lon="14.695077070375252"><ele>191.0</ele><time>2026-05-02T10:32:10.802Z</time></trkpt><trkpt lat="40.71273279999637" lon="14.694923555035427"><ele>191.0</ele><time>2026-05-02T10:32:11.802Z</time></trkpt><trkpt lat="40.71264026491534" lon="14.694728808222033"><ele>191.0</ele><time>2026-05-02T10:32:12.802Z</time></trkpt><trkpt lat="40.71253852396986" lon="14.694507050559633"><ele>195.0</ele><time>2026-05-02T10:32:13.802Z</time></trkpt><trkpt lat="40.712428817126074" lon="14.694271223218376"><ele>199.0</ele><time>2026-05-02T10:32:14.802Z</time></trkpt><trkpt lat="40.712336616312896" lon="14.694044307418887"><ele>203.0</ele><time>2026-05-02T10:32:15.802Z</time></trkpt><trkpt lat="40.712263016348324" lon="14.693863024521256"><ele>203.0</ele><time>2026-05-02T10:32:16.802Z</time></trkpt><trkpt lat="40.71219918620403" lon="14.693724849750522"><ele>203.0</ele><time>2026-05-02T10:32:17.802Z</time></trkpt><trkpt lat="40.71215603744264" lon="14.6936283306437"><ele>203.0</ele><time>2026-05-02T10:32:18.802Z</time></trkpt><trkpt lat="40.71208851103447" lon="14.693538695161465"><ele>203.0</ele><time>2026-05-02T10:32:20.801Z</time></trkpt><trkpt lat="40.7120336600048" lon="14.693489762580354"><ele>203.0</ele><time>2026-05-02T10:32:28.801Z</time></trkpt><trkpt lat="40.71201652633414" lon="14.693354377773629"><ele>203.4</ele><time>2026-05-02T10:32:43.803Z</time></trkpt><trkpt lat="40.71214543360601" lon="14.693224982384958"><ele>203.8</ele><time>2026-05-02T10:32:46.804Z</time></trkpt><trkpt lat="40.71204693210262" lon="14.693220047429328"><ele>204.2</ele><time>2026-05-02T10:36:41.946Z</time></trkpt><trkpt lat="40.71208573440625" lon="14.693106609725465"><ele>204.6</ele><time>2026-05-02T10:59:26.93Z</time></trkpt><trkpt lat="40.71205510564099" lon="14.693197273525687"><ele>205.0</ele><time>2026-05-02T11:01:23.787Z</time></trkpt><trkpt lat="40.71220405385728" lon="14.693289041173083"><ele>205.0</ele><time>2026-05-02T11:01:49.788Z</time></trkpt><trkpt lat="40.71214029444877" lon="14.69327894981149"><ele>205.0</ele><time>2026-05-02T11:02:33.93Z</time></trkpt><trkpt lat="40.71207415064794" lon="14.693273016916518"><ele>205.0</ele><time>2026-05-02T11:02:48.786Z</time></trkpt></trkseg></trk></gpx>